<?xml version='1.0' encoding='UTF-8'?><gpx version="1.1" creator="JPX - https://github.com/jenetics/jpx" xmlns="http://www.topografix.com/GPX/1/1"><trk><trkseg><trkpt lat="40.3070864" lon="9.5565013"><ele>225.0</ele><time>2026-03-29T08:33:44.38Z</time></trkpt><trkpt lat="40.3070245" lon="9.5566801"><ele>225.0</ele><time>2026-03-29T08:33:45.387Z</time></trkpt><trkpt lat="40.306961" lon="9.556866"><ele>225.0</ele><time>2026-03-29T08:33:46.387Z</time></trkpt><trkpt lat="40.306896" lon="9.557062"><ele>225.0</ele><time>2026-03-29T08:33:47.395Z</time></trkpt><trkpt lat="40.3067634" lon="9.5574573"><ele>225.0</ele><time>2026-03-29T08:33:49.39Z</time></trkpt><trkpt lat="40.3066992" lon="9.5576459"><ele>225.0</ele><time>2026-03-29T08:33:50.397Z</time></trkpt><trkpt lat="40.306637" lon="9.5578262"><ele>225.0</ele><time>2026-03-29T08:33:51.386Z</time></trkpt><trkpt lat="40.3065749" lon="9.5580063"><ele>225.0</ele><time>2026-03-29T08:33:52.386Z</time></trkpt><trkpt lat="40.3065157" lon="9.5581802"><ele>225.0</ele><time>2026-03-29T08:33:53.385Z</time></trkpt><trkpt lat="40.3064588" lon="9.5583469"><ele>226.25</ele><time>2026-03-29T08:33:54.382Z</time></trkpt><trkpt lat="40.3064017" lon="9.5585138"><ele>227.5</ele><time>2026-03-29T08:33:55.382Z</time></trkpt><trkpt lat="40.3063426" lon="9.5586858"><ele>228.75</ele><time>2026-03-29T08:33:56.383Z</time></trkpt><trkpt lat="40.3062823" lon="9.5588627"><ele>230.0</ele><time>2026-03-29T08:33:57.382Z</time></trkpt><trkpt lat="40.3062224" lon="9.5590442"><ele>230.5</ele><time>2026-03-29T08:33:58.389Z</time></trkpt><trkpt lat="40.3061624" lon="9.559223"><ele>231.0</ele><time>2026-03-29T08:33:59.382Z</time></trkpt><trkpt lat="40.3061013" lon="9.5594023"><ele>231.5</ele><time>2026-03-29T08:34:00.383Z</time></trkpt><trkpt lat="40.3060384" lon="9.5595807"><ele>232.0</ele><time>2026-03-29T08:34:01.379Z</time></trkpt><trkpt lat="40.3059761" lon="9.559762"><ele>232.0</ele><time>2026-03-29T08:34:02.382Z</time></trkpt><trkpt lat="40.3059141" lon="9.559947"><ele>232.0</ele><time>2026-03-29T08:34:03.386Z</time></trkpt><trkpt lat="40.3058509" lon="9.5601339"><ele>232.0</ele><time>2026-03-29T08:34:04.384Z</time></trkpt><trkpt lat="40.3057863" lon="9.5603221"><ele>232.0</ele><time>2026-03-29T08:34:05.386Z</time></trkpt><trkpt lat="40.3057217" lon="9.5605077"><ele>232.0</ele><time>2026-03-29T08:34:06.384Z</time></trkpt><trkpt lat="40.3056562" lon="9.560692"><ele>232.0</ele><time>2026-03-29T08:34:07.381Z</time></trkpt><trkpt lat="40.305593" lon="9.560877"><ele>233.0</ele><time>2026-03-29T08:34:08.382Z</time></trkpt><trkpt lat="40.3055298" lon="9.5610605"><ele>234.0</ele><time>2026-03-29T08:34:09.382Z</time></trkpt><trkpt lat="40.3054691" lon="9.5612479"><ele>235.0</ele><time>2026-03-29T08:34:10.387Z</time></trkpt><trkpt lat="40.3054082" lon="9.5614361"><ele>235.66666666666666</ele><time>2026-03-29T08:34:11.381Z</time></trkpt><trkpt lat="40.3053435" lon="9.5616303"><ele>236.33333333333331</ele><time>2026-03-29T08:34:12.379Z</time></trkpt><trkpt lat="40.3052774" lon="9.5618257"><ele>237.0</ele><time>2026-03-29T08:34:13.383Z</time></trkpt><trkpt lat="40.3052119" lon="9.5620179"><ele>237.0</ele><time>2026-03-29T08:34:14.388Z</time></trkpt><trkpt lat="40.3051475" lon="9.5622085"><ele>237.0</ele><time>2026-03-29T08:34:15.384Z</time></trkpt><trkpt lat="40.3050814" lon="9.5623983"><ele>237.0</ele><time>2026-03-29T08:34:16.401Z</time></trkpt><trkpt lat="40.3050162" lon="9.5625884"><ele>237.0</ele><time>2026-03-29T08:34:17.383Z</time></trkpt><trkpt lat="40.3049503" lon="9.5627804"><ele>237.0</ele><time>2026-03-29T08:34:18.386Z</time></trkpt><trkpt lat="40.3048879" lon="9.562968"><ele>237.0</ele><time>2026-03-29T08:34:19.38Z</time></trkpt><trkpt lat="40.3048258" lon="9.5631508"><ele>237.66666666666669</ele><time>2026-03-29T08:34:20.382Z</time></trkpt><trkpt lat="40.3047629" lon="9.5633355"><ele>238.33333333333334</ele><time>2026-03-29T08:34:21.381Z</time></trkpt><trkpt lat="40.3046979" lon="9.5635209"><ele>239.0</ele><time>2026-03-29T08:34:22.378Z</time></trkpt><trkpt lat="40.3046295" lon="9.5637147"><ele>240.66666666666669</ele><time>2026-03-29T08:34:23.406Z</time></trkpt><trkpt lat="40.3045577" lon="9.5639119"><ele>242.33333333333331</ele><time>2026-03-29T08:34:24.385Z</time></trkpt><trkpt lat="40.3044872" lon="9.5641152"><ele>244.0</ele><time>2026-03-29T08:34:25.378Z</time></trkpt><trkpt lat="40.3044197" lon="9.5643151"><ele>244.0</ele><time>2026-03-29T08:34:26.383Z</time></trkpt><trkpt lat="40.304356" lon="9.5645052"><ele>244.0</ele><time>2026-03-29T08:34:27.385Z</time></trkpt><trkpt lat="40.3043008" lon="9.5646909"><ele>244.0</ele><time>2026-03-29T08:34:28.406Z</time></trkpt><trkpt lat="40.3042625" lon="9.5648722"><ele>244.75</ele><time>2026-03-29T08:34:29.383Z</time></trkpt><trkpt lat="40.3042364" lon="9.5650539"><ele>245.5</ele><time>2026-03-29T08:34:30.38Z</time></trkpt><trkpt lat="40.3042426" lon="9.5652389"><ele>246.25</ele><time>2026-03-29T08:34:31.386Z</time></trkpt><trkpt lat="40.3042586" lon="9.5654131"><ele>247.0</ele><time>2026-03-29T08:34:32.383Z</time></trkpt><trkpt lat="40.3042746" lon="9.5655817"><ele>248.0</ele><time>2026-03-29T08:34:33.384Z</time></trkpt><trkpt lat="40.304288" lon="9.565748"><ele>249.0</ele><time>2026-03-29T08:34:34.381Z</time></trkpt><trkpt lat="40.3042833" lon="9.5659143"><ele>250.0</ele><time>2026-03-29T08:34:35.378Z</time></trkpt><trkpt lat="40.3042674" lon="9.5660934"><ele>251.0</ele><time>2026-03-29T08:34:36.395Z</time></trkpt><trkpt lat="40.3042238" lon="9.5662713"><ele>252.33333333333334</ele><time>2026-03-29T08:34:37.38Z</time></trkpt><trkpt lat="40.3041645" lon="9.5664545"><ele>253.66666666666669</ele><time>2026-03-29T08:34:38.382Z</time></trkpt><trkpt lat="40.3041057" lon="9.5666398"><ele>255.0</ele><time>2026-03-29T08:34:39.382Z</time></trkpt><trkpt lat="40.3040474" lon="9.5668225"><ele>255.0</ele><time>2026-03-29T08:34:40.384Z</time></trkpt><trkpt lat="40.3039924" lon="9.5670067"><ele>255.0</ele><time>2026-03-29T08:34:41.384Z</time></trkpt><trkpt lat="40.3039384" lon="9.5671944"><ele>255.0</ele><time>2026-03-29T08:34:42.393Z</time></trkpt><trkpt lat="40.3038851" lon="9.5673764"><ele>257.6666666666667</ele><time>2026-03-29T08:34:43.383Z</time></trkpt><trkpt lat="40.3038308" lon="9.56756"><ele>260.33333333333337</ele><time>2026-03-29T08:34:44.385Z</time></trkpt><trkpt lat="40.3037734" lon="9.5677425"><ele>263.0</ele><time>2026-03-29T08:34:45.376Z</time></trkpt><trkpt lat="40.3037146" lon="9.5679292"><ele>264.0</ele><time>2026-03-29T08:34:46.381Z</time></trkpt><trkpt lat="40.303656" lon="9.5681166"><ele>265.0</ele><time>2026-03-29T08:34:47.382Z</time></trkpt><trkpt lat="40.3035971" lon="9.5683107"><ele>266.0</ele><time>2026-03-29T08:34:48.378Z</time></trkpt><trkpt lat="40.3035366" lon="9.5685104"><ele>267.33333333333337</ele><time>2026-03-29T08:34:49.4Z</time></trkpt><trkpt lat="40.3034797" lon="9.5687053"><ele>268.6666666666667</ele><time>2026-03-29T08:34:50.379Z</time></trkpt><trkpt lat="40.30342" lon="9.5689"><ele>270.0</ele><time>2026-03-29T08:34:51.379Z</time></trkpt><trkpt lat="40.3033626" lon="9.5690829"><ele>270.0</ele><time>2026-03-29T08:34:52.389Z</time></trkpt><trkpt lat="40.3033104" lon="9.5692474"><ele>270.0</ele><time>2026-03-29T08:34:53.384Z</time></trkpt><trkpt lat="40.303257" lon="9.5694057"><ele>270.0</ele><time>2026-03-29T08:34:54.403Z</time></trkpt><trkpt lat="40.3032101" lon="9.5695645"><ele>270.0</ele><time>2026-03-29T08:34:55.382Z</time></trkpt><trkpt lat="40.3031695" lon="9.5697209"><ele>270.25</ele><time>2026-03-29T08:34:56.378Z</time></trkpt><trkpt lat="40.3031412" lon="9.5698735"><ele>270.5</ele><time>2026-03-29T08:34:57.382Z</time></trkpt><trkpt lat="40.3031288" lon="9.5700283"><ele>270.75</ele><time>2026-03-29T08:34:58.379Z</time></trkpt><trkpt lat="40.3031581" lon="9.5701923"><ele>271.0</ele><time>2026-03-29T08:34:59.4Z</time></trkpt><trkpt lat="40.3032085" lon="9.5703572"><ele>272.75</ele><time>2026-03-29T08:35:00.38Z</time></trkpt><trkpt lat="40.3032611" lon="9.570523"><ele>274.5</ele><time>2026-03-29T08:35:01.385Z</time></trkpt><trkpt lat="40.3033024" lon="9.570683"><ele>276.25</ele><time>2026-03-29T08:35:02.381Z</time></trkpt><trkpt lat="40.3033244" lon="9.5708387"><ele>278.0</ele><time>2026-03-29T08:35:03.386Z</time></trkpt><trkpt lat="40.3033254" lon="9.5709912"><ele>278.0</ele><time>2026-03-29T08:35:04.382Z</time></trkpt><trkpt lat="40.3033097" lon="9.5711409"><ele>278.0</ele><time>2026-03-29T08:35:05.379Z</time></trkpt><trkpt lat="40.3032906" lon="9.571274"><ele>278.0</ele><time>2026-03-29T08:35:06.382Z</time></trkpt><trkpt lat="40.3032731" lon="9.5713795"><ele>278.0</ele><time>2026-03-29T08:35:07.382Z</time></trkpt><trkpt lat="40.3032588" lon="9.5714632"><ele>278.0</ele><time>2026-03-29T08:35:08.396Z</time></trkpt><trkpt lat="40.3032262" lon="9.5716092"><ele>278.1666666666667</ele><time>2026-03-29T08:35:10.381Z</time></trkpt><trkpt lat="40.3032133" lon="9.5717027"><ele>278.33333333333337</ele><time>2026-03-29T08:35:11.382Z</time></trkpt><trkpt lat="40.3031944" lon="9.5718064"><ele>278.5</ele><time>2026-03-29T08:35:12.379Z</time></trkpt><trkpt lat="40.3031692" lon="9.5718975"><ele>278.6666666666667</ele><time>2026-03-29T08:35:13.384Z</time></trkpt><trkpt lat="40.3031184" lon="9.5720003"><ele>278.8333333333333</ele><time>2026-03-29T08:35:15.396Z</time></trkpt><trkpt lat="40.3030618" lon="9.5720561"><ele>279.0</ele><time>2026-03-29T08:35:17.388Z</time></trkpt><trkpt lat="40.3029974" lon="9.5720652"><ele>280.5</ele><time>2026-03-29T08:35:19.38Z</time></trkpt><trkpt lat="40.3029362" lon="9.572001"><ele>282.0</ele><time>2026-03-29T08:35:21.385Z</time></trkpt><trkpt lat="40.3029027" lon="9.5719243"><ele>283.5</ele><time>2026-03-29T08:35:22.379Z</time></trkpt><trkpt lat="40.3028517" lon="9.5718348"><ele>285.0</ele><time>2026-03-29T08:35:23.383Z</time></trkpt><trkpt lat="40.3027724" lon="9.5717566"><ele>286.5</ele><time>2026-03-29T08:35:24.379Z</time></trkpt><trkpt lat="40.3026706" lon="9.571686"><ele>288.0</ele><time>2026-03-29T08:35:25.38Z</time></trkpt><trkpt lat="40.3025407" lon="9.5716478"><ele>288.0</ele><time>2026-03-29T08:35:26.385Z</time></trkpt><trkpt lat="40.3024076" lon="9.5716189"><ele>288.0</ele><time>2026-03-29T08:35:27.387Z</time></trkpt><trkpt lat="40.3022573" lon="9.5715931"><ele>288.0</ele><time>2026-03-29T08:35:28.383Z</time></trkpt><trkpt lat="40.3021076" lon="9.5715655"><ele>288.0</ele><time>2026-03-29T08:35:29.381Z</time></trkpt><trkpt lat="40.3019733" lon="9.5715256"><ele>289.0</ele><time>2026-03-29T08:35:30.379Z</time></trkpt><trkpt lat="40.3018462" lon="9.5714571"><ele>290.0</ele><time>2026-03-29T08:35:31.381Z</time></trkpt><trkpt lat="40.3017301" lon="9.5713559"><ele>291.0</ele><time>2026-03-29T08:35:32.379Z</time></trkpt><trkpt lat="40.3016361" lon="9.5712228"><ele>292.0</ele><time>2026-03-29T08:35:33.4Z</time></trkpt><trkpt lat="40.3015579" lon="9.5710914"><ele>292.0</ele><time>2026-03-29T08:35:34.38Z</time></trkpt><trkpt lat="40.301487" lon="9.5709657"><ele>292.0</ele><time>2026-03-29T08:35:35.384Z</time></trkpt><trkpt lat="40.3014097" lon="9.5708519"><ele>292.0</ele><time>2026-03-29T08:35:36.383Z</time></trkpt><trkpt lat="40.3013187" lon="9.5707719"><ele>292.0</ele><time>2026-03-29T08:35:37.384Z</time></trkpt><trkpt lat="40.3012118" lon="9.5707391"><ele>291.25</ele><time>2026-03-29T08:35:38.398Z</time></trkpt><trkpt lat="40.3011056" lon="9.5707629"><ele>290.5</ele><time>2026-03-29T08:35:39.379Z</time></trkpt><trkpt lat="40.3010105" lon="9.5708303"><ele>289.75</ele><time>2026-03-29T08:35:40.382Z</time></trkpt><trkpt lat="40.3009318" lon="9.5709576"><ele>289.0</ele><time>2026-03-29T08:35:41.383Z</time></trkpt><trkpt lat="40.300889" lon="9.5711223"><ele>291.0</ele><time>2026-03-29T08:35:42.378Z</time></trkpt><trkpt lat="40.3008543" lon="9.5712871"><ele>293.0</ele><time>2026-03-29T08:35:43.377Z</time></trkpt><trkpt lat="40.3008303" lon="9.5714668"><ele>295.0</ele><time>2026-03-29T08:35:44.384Z</time></trkpt><trkpt lat="40.3008074" lon="9.5716425"><ele>297.0</ele><time>2026-03-29T08:35:45.383Z</time></trkpt><trkpt lat="40.3007827" lon="9.5718221"><ele>297.0</ele><time>2026-03-29T08:35:46.386Z</time></trkpt><trkpt lat="40.3007534" lon="9.5720015"><ele>297.0</ele><time>2026-03-29T08:35:47.384Z</time></trkpt><trkpt lat="40.3007018" lon="9.5721713"><ele>297.0</ele><time>2026-03-29T08:35:48.4Z</time></trkpt><trkpt lat="40.3006301" lon="9.5723391"><ele>297.0</ele><time>2026-03-29T08:35:49.379Z</time></trkpt><trkpt lat="40.3005489" lon="9.572504"><ele>296.75</ele><time>2026-03-29T08:35:50.378Z</time></trkpt><trkpt lat="40.3004631" lon="9.5726665"><ele>296.5</ele><time>2026-03-29T08:35:51.385Z</time></trkpt><trkpt lat="40.3003749" lon="9.5728184"><ele>296.25</ele><time>2026-03-29T08:35:52.384Z</time></trkpt><trkpt lat="40.3002867" lon="9.572957"><ele>296.0</ele><time>2026-03-29T08:35:53.379Z</time></trkpt><trkpt lat="40.3001992" lon="9.5730881"><ele>298.25</ele><time>2026-03-29T08:35:54.4Z</time></trkpt><trkpt lat="40.3001176" lon="9.5732201"><ele>300.5</ele><time>2026-03-29T08:35:55.388Z</time></trkpt><trkpt lat="40.3000437" lon="9.5733574"><ele>302.75</ele><time>2026-03-29T08:35:56.378Z</time></trkpt><trkpt lat="40.299981" lon="9.5735028"><ele>305.0</ele><time>2026-03-29T08:35:57.379Z</time></trkpt><trkpt lat="40.2999315" lon="9.5736586"><ele>307.25</ele><time>2026-03-29T08:35:58.381Z</time></trkpt><trkpt lat="40.2998944" lon="9.5738235"><ele>309.5</ele><time>2026-03-29T08:35:59.408Z</time></trkpt><trkpt lat="40.2998625" lon="9.5739879"><ele>311.75</ele><time>2026-03-29T08:36:00.378Z</time></trkpt><trkpt lat="40.2998331" lon="9.5741604"><ele>314.0</ele><time>2026-03-29T08:36:01.389Z</time></trkpt><trkpt lat="40.2998023" lon="9.5743307"><ele>314.0</ele><time>2026-03-29T08:36:02.381Z</time></trkpt><trkpt lat="40.2997638" lon="9.5745053"><ele>314.0</ele><time>2026-03-29T08:36:03.379Z</time></trkpt><trkpt lat="40.2997116" lon="9.5746806"><ele>314.0</ele><time>2026-03-29T08:36:04.386Z</time></trkpt><trkpt lat="40.2996449" lon="9.5748545"><ele>314.0</ele><time>2026-03-29T08:36:05.389Z</time></trkpt><trkpt lat="40.2995687" lon="9.5750296"><ele>314.33333333333337</ele><time>2026-03-29T08:36:06.386Z</time></trkpt><trkpt lat="40.2994853" lon="9.5752189"><ele>314.6666666666667</ele><time>2026-03-29T08:36:07.382Z</time></trkpt><trkpt lat="40.2993921" lon="9.5754334"><ele>315.0</ele><time>2026-03-29T08:36:08.381Z</time></trkpt><trkpt lat="40.2992877" lon="9.57567"><ele>317.6666666666667</ele><time>2026-03-29T08:36:09.393Z</time></trkpt><trkpt lat="40.299179" lon="9.5759066"><ele>320.33333333333337</ele><time>2026-03-29T08:36:10.383Z</time></trkpt><trkpt lat="40.2990679" lon="9.5761414"><ele>323.0</ele><time>2026-03-29T08:36:11.378Z</time></trkpt><trkpt lat="40.2989614" lon="9.5763798"><ele>324.33333333333337</ele><time>2026-03-29T08:36:12.383Z</time></trkpt><trkpt lat="40.2988617" lon="9.5766224"><ele>325.6666666666667</ele><time>2026-03-29T08:36:13.387Z</time></trkpt><trkpt lat="40.298757" lon="9.5768651"><ele>327.0</ele><time>2026-03-29T08:36:14.379Z</time></trkpt><trkpt lat="40.2986383" lon="9.5770999"><ele>328.6666666666667</ele><time>2026-03-29T08:36:15.374Z</time></trkpt><trkpt lat="40.298513" lon="9.5773099"><ele>330.33333333333337</ele><time>2026-03-29T08:36:16.379Z</time></trkpt><trkpt lat="40.2983929" lon="9.5774875"><ele>332.0</ele><time>2026-03-29T08:36:17.374Z</time></trkpt><trkpt lat="40.2982781" lon="9.5776166"><ele>332.0</ele><time>2026-03-29T08:36:18.374Z</time></trkpt><trkpt lat="40.2981665" lon="9.5777171"><ele>332.0</ele><time>2026-03-29T08:36:19.391Z</time></trkpt><trkpt lat="40.2980426" lon="9.5777493"><ele>332.0</ele><time>2026-03-29T08:36:20.382Z</time></trkpt><trkpt lat="40.2979181" lon="9.5777283"><ele>332.0</ele><time>2026-03-29T08:36:21.376Z</time></trkpt><trkpt lat="40.2978076" lon="9.5776209"><ele>332.75</ele><time>2026-03-29T08:36:22.381Z</time></trkpt><trkpt lat="40.2977029" lon="9.5774981"><ele>333.5</ele><time>2026-03-29T08:36:23.38Z</time></trkpt><trkpt lat="40.2975852" lon="9.5773998"><ele>334.25</ele><time>2026-03-29T08:36:24.397Z</time></trkpt><trkpt lat="40.2974621" lon="9.5773528"><ele>335.0</ele><time>2026-03-29T08:36:25.385Z</time></trkpt><trkpt lat="40.2973355" lon="9.5773585"><ele>335.75</ele><time>2026-03-29T08:36:26.381Z</time></trkpt><trkpt lat="40.2972136" lon="9.5774236"><ele>336.5</ele><time>2026-03-29T08:36:27.381Z</time></trkpt><trkpt lat="40.2971029" lon="9.5774826"><ele>337.25</ele><time>2026-03-29T08:36:28.382Z</time></trkpt><trkpt lat="40.2970088" lon="9.5775414"><ele>338.0</ele><time>2026-03-29T08:36:29.384Z</time></trkpt><trkpt lat="40.2969227" lon="9.5776051"><ele>338.0</ele><time>2026-03-29T08:36:30.379Z</time></trkpt><trkpt lat="40.2968406" lon="9.577679"><ele>338.0</ele><time>2026-03-29T08:36:31.383Z</time></trkpt><trkpt lat="40.2967615" lon="9.5777686"><ele>338.0</ele><time>2026-03-29T08:36:32.378Z</time></trkpt><trkpt lat="40.2966881" lon="9.5778771"><ele>338.0</ele><time>2026-03-29T08:36:33.399Z</time></trkpt><trkpt lat="40.2966213" lon="9.5780035"><ele>338.0</ele><time>2026-03-29T08:36:34.378Z</time></trkpt><trkpt lat="40.2965642" lon="9.5781545"><ele>339.75</ele><time>2026-03-29T08:36:35.385Z</time></trkpt><trkpt lat="40.2965229" lon="9.5783197"><ele>341.5</ele><time>2026-03-29T08:36:36.381Z</time></trkpt><trkpt lat="40.2965012" lon="9.5784925"><ele>343.25</ele><time>2026-03-29T08:36:37.386Z</time></trkpt><trkpt lat="40.2964925" lon="9.578663"><ele>345.0</ele><time>2026-03-29T08:36:38.384Z</time></trkpt><trkpt lat="40.2964963" lon="9.578827"><ele>345.0</ele><time>2026-03-29T08:36:39.384Z</time></trkpt><trkpt lat="40.2965069" lon="9.5789853"><ele>345.0</ele><time>2026-03-29T08:36:40.386Z</time></trkpt><trkpt lat="40.2965207" lon="9.5791424"><ele>345.0</ele><time>2026-03-29T08:36:41.379Z</time></trkpt><trkpt lat="40.2965364" lon="9.5792999"><ele>345.0</ele><time>2026-03-29T08:36:42.377Z</time></trkpt><trkpt lat="40.2965525" lon="9.5794553"><ele>345.5</ele><time>2026-03-29T08:36:43.382Z</time></trkpt><trkpt lat="40.2965649" lon="9.5796065"><ele>346.0</ele><time>2026-03-29T08:36:44.381Z</time></trkpt><trkpt lat="40.2965682" lon="9.5797541"><ele>346.5</ele><time>2026-03-29T08:36:45.389Z</time></trkpt><trkpt lat="40.296558" lon="9.5799026"><ele>347.0</ele><time>2026-03-29T08:36:46.384Z</time></trkpt><trkpt lat="40.2965249" lon="9.5800495"><ele>347.0</ele><time>2026-03-29T08:36:47.394Z</time></trkpt><trkpt lat="40.2964716" lon="9.5801887"><ele>347.0</ele><time>2026-03-29T08:36:48.379Z</time></trkpt><trkpt lat="40.2964087" lon="9.5803208"><ele>347.0</ele><time>2026-03-29T08:36:49.374Z</time></trkpt><trkpt lat="40.2963449" lon="9.5804507"><ele>347.0</ele><time>2026-03-29T08:36:50.381Z</time></trkpt><trkpt lat="40.2962858" lon="9.5805825"><ele>347.25</ele><time>2026-03-29T08:36:51.383Z</time></trkpt><trkpt lat="40.2962343" lon="9.5807214"><ele>347.5</ele><time>2026-03-29T08:36:52.379Z</time></trkpt><trkpt lat="40.2961957" lon="9.5808692"><ele>347.75</ele><time>2026-03-29T08:36:53.398Z</time></trkpt><trkpt lat="40.2961693" lon="9.5810244"><ele>348.0</ele><time>2026-03-29T08:36:54.379Z</time></trkpt><trkpt lat="40.2961492" lon="9.5811846"><ele>349.0</ele><time>2026-03-29T08:36:55.378Z</time></trkpt><trkpt lat="40.2961344" lon="9.5813517"><ele>350.0</ele><time>2026-03-29T08:36:56.376Z</time></trkpt><trkpt lat="40.2961262" lon="9.5815279"><ele>351.0</ele><time>2026-03-29T08:36:57.379Z</time></trkpt><trkpt lat="40.2961254" lon="9.581709"><ele>352.0</ele><time>2026-03-29T08:36:58.379Z</time></trkpt><trkpt lat="40.2961292" lon="9.5818851"><ele>352.0</ele><time>2026-03-29T08:36:59.378Z</time></trkpt><trkpt lat="40.2961371" lon="9.5820558"><ele>352.0</ele><time>2026-03-29T08:37:00.397Z</time></trkpt><trkpt lat="40.2961469" lon="9.5822202"><ele>352.0</ele><time>2026-03-29T08:37:01.379Z</time></trkpt><trkpt lat="40.2961551" lon="9.5823654"><ele>352.0</ele><time>2026-03-29T08:37:02.377Z</time></trkpt><trkpt lat="40.296161" lon="9.5824984"><ele>352.0</ele><time>2026-03-29T08:37:03.381Z</time></trkpt><trkpt lat="40.2961673" lon="9.5826331"><ele>352.0</ele><time>2026-03-29T08:37:04.379Z</time></trkpt><trkpt lat="40.296193" lon="9.5827706"><ele>352.0</ele><time>2026-03-29T08:37:05.393Z</time></trkpt><trkpt lat="40.2962091" lon="9.5829081"><ele>352.0</ele><time>2026-03-29T08:37:06.379Z</time></trkpt><trkpt lat="40.2962179" lon="9.5830313"><ele>352.0</ele><time>2026-03-29T08:37:07.377Z</time></trkpt><trkpt lat="40.2962208" lon="9.5831423"><ele>353.16666666666663</ele><time>2026-03-29T08:37:08.378Z</time></trkpt><trkpt lat="40.2962225" lon="9.5832517"><ele>354.3333333333333</ele><time>2026-03-29T08:37:09.381Z</time></trkpt><trkpt lat="40.2962366" lon="9.5833574"><ele>355.5</ele><time>2026-03-29T08:37:10.38Z</time></trkpt><trkpt lat="40.2962407" lon="9.5834514"><ele>356.6666666666667</ele><time>2026-03-29T08:37:11.383Z</time></trkpt><trkpt lat="40.2962579" lon="9.5836108"><ele>357.83333333333337</ele><time>2026-03-29T08:37:13.377Z</time></trkpt><trkpt lat="40.2962895" lon="9.5836842"><ele>359.0</ele><time>2026-03-29T08:37:14.382Z</time></trkpt><trkpt lat="40.2963416" lon="9.5837332"><ele>360.79999999999995</ele><time>2026-03-29T08:37:15.379Z</time></trkpt><trkpt lat="40.2964493" lon="9.5837521"><ele>362.59999999999997</ele><time>2026-03-29T08:37:17.392Z</time></trkpt><trkpt lat="40.2965312" lon="9.5837551"><ele>364.4</ele><time>2026-03-29T08:37:19.38Z</time></trkpt><trkpt lat="40.296628" lon="9.5837352"><ele>366.2</ele><time>2026-03-29T08:37:23.383Z</time></trkpt><trkpt lat="40.2967483" lon="9.5836461"><ele>368.0</ele><time>2026-03-29T08:37:25.381Z</time></trkpt><trkpt lat="40.2968149" lon="9.5835824"><ele>368.0</ele><time>2026-03-29T08:37:26.395Z</time></trkpt><trkpt lat="40.2968913" lon="9.5835049"><ele>368.0</ele><time>2026-03-29T08:37:27.382Z</time></trkpt><trkpt lat="40.2969751" lon="9.5834194"><ele>368.0</ele><time>2026-03-29T08:37:28.38Z</time></trkpt><trkpt lat="40.2970751" lon="9.5833476"><ele>368.0</ele><time>2026-03-29T08:37:29.378Z</time></trkpt><trkpt lat="40.2971884" lon="9.583288"><ele>368.0</ele><time>2026-03-29T08:37:30.38Z</time></trkpt><trkpt lat="40.2973039" lon="9.5832437"><ele>368.2</ele><time>2026-03-29T08:37:31.38Z</time></trkpt><trkpt lat="40.2974153" lon="9.5832199"><ele>368.4</ele><time>2026-03-29T08:37:32.386Z</time></trkpt><trkpt lat="40.2975154" lon="9.5831981"><ele>368.59999999999997</ele><time>2026-03-29T08:37:33.378Z</time></trkpt><trkpt lat="40.2976087" lon="9.5831619"><ele>368.79999999999995</ele><time>2026-03-29T08:37:34.39Z</time></trkpt><trkpt lat="40.2977006" lon="9.5831363"><ele>369.0</ele><time>2026-03-29T08:37:35.387Z</time></trkpt><trkpt lat="40.2977886" lon="9.5831083"><ele>369.0</ele><time>2026-03-29T08:37:36.386Z</time></trkpt><trkpt lat="40.2978774" lon="9.5830705"><ele>369.0</ele><time>2026-03-29T08:37:37.377Z</time></trkpt><trkpt lat="40.2979628" lon="9.5829974"><ele>369.0</ele><time>2026-03-29T08:37:38.385Z</time></trkpt><trkpt lat="40.2980342" lon="9.5828876"><ele>369.0</ele><time>2026-03-29T08:37:39.383Z</time></trkpt><trkpt lat="40.2981013" lon="9.5827565"><ele>369.0</ele><time>2026-03-29T08:37:40.379Z</time></trkpt><trkpt lat="40.2981773" lon="9.5826079"><ele>367.25</ele><time>2026-03-29T08:37:41.386Z</time></trkpt><trkpt lat="40.298252" lon="9.5824625"><ele>365.5</ele><time>2026-03-29T08:37:42.381Z</time></trkpt><trkpt lat="40.2983228" lon="9.5823244"><ele>363.75</ele><time>2026-03-29T08:37:43.377Z</time></trkpt><trkpt lat="40.2983936" lon="9.582184"><ele>362.0</ele><time>2026-03-29T08:37:44.386Z</time></trkpt><trkpt lat="40.2984649" lon="9.582044"><ele>361.75</ele><time>2026-03-29T08:37:45.38Z</time></trkpt><trkpt lat="40.298536" lon="9.5819037"><ele>361.5</ele><time>2026-03-29T08:37:46.376Z</time></trkpt><trkpt lat="40.2986052" lon="9.5817667"><ele>361.25</ele><time>2026-03-29T08:37:47.385Z</time></trkpt><trkpt lat="40.2986734" lon="9.5816333"><ele>361.0</ele><time>2026-03-29T08:37:48.384Z</time></trkpt><trkpt lat="40.2987414" lon="9.5815043"><ele>361.0</ele><time>2026-03-29T08:37:49.376Z</time></trkpt><trkpt lat="40.2988031" lon="9.5813844"><ele>361.0</ele><time>2026-03-29T08:37:50.378Z</time></trkpt><trkpt lat="40.2988552" lon="9.5812814"><ele>361.0</ele><time>2026-03-29T08:37:51.379Z</time></trkpt><trkpt lat="40.2989038" lon="9.5811997"><ele>361.0</ele><time>2026-03-29T08:37:52.379Z</time></trkpt><trkpt lat="40.2989493" lon="9.5811403"><ele>361.0</ele><time>2026-03-29T08:37:53.388Z</time></trkpt><trkpt lat="40.2990677" lon="9.5811241"><ele>360.20000000000005</ele><time>2026-03-29T08:37:55.374Z</time></trkpt><trkpt lat="40.2991537" lon="9.5811514"><ele>359.40000000000003</ele><time>2026-03-29T08:37:56.382Z</time></trkpt><trkpt lat="40.2992528" lon="9.5811796"><ele>358.6</ele><time>2026-03-29T08:37:57.386Z</time></trkpt><trkpt lat="40.2993572" lon="9.5812221"><ele>357.8</ele><time>2026-03-29T08:37:58.383Z</time></trkpt><trkpt lat="40.2994561" lon="9.5812661"><ele>357.0</ele><time>2026-03-29T08:37:59.383Z</time></trkpt><trkpt lat="40.299559" lon="9.5812997"><ele>357.0</ele><time>2026-03-29T08:38:00.384Z</time></trkpt><trkpt lat="40.2996587" lon="9.5813057"><ele>357.0</ele><time>2026-03-29T08:38:01.381Z</time></trkpt><trkpt lat="40.2997583" lon="9.5812872"><ele>357.0</ele><time>2026-03-29T08:38:02.384Z</time></trkpt><trkpt lat="40.299852" lon="9.5812542"><ele>357.0</ele><time>2026-03-29T08:38:03.402Z</time></trkpt><trkpt lat="40.2999351" lon="9.5812243"><ele>357.0</ele><time>2026-03-29T08:38:04.388Z</time></trkpt><trkpt lat="40.3000057" lon="9.5812032"><ele>356.8333333333333</ele><time>2026-03-29T08:38:05.379Z</time></trkpt><trkpt lat="40.300075" lon="9.5811859"><ele>356.6666666666667</ele><time>2026-03-29T08:38:06.382Z</time></trkpt><trkpt lat="40.3001457" lon="9.581154"><ele>356.5</ele><time>2026-03-29T08:38:07.378Z</time></trkpt><trkpt lat="40.300223" lon="9.5811282"><ele>356.33333333333337</ele><time>2026-03-29T08:38:08.376Z</time></trkpt><trkpt lat="40.300305" lon="9.581088"><ele>356.1666666666667</ele><time>2026-03-29T08:38:09.386Z</time></trkpt><trkpt lat="40.3003789" lon="9.5810578"><ele>356.0</ele><time>2026-03-29T08:38:10.381Z</time></trkpt><trkpt lat="40.3004763" lon="9.5810577"><ele>356.0</ele><time>2026-03-29T08:38:11.379Z</time></trkpt><trkpt lat="40.3005648" lon="9.5810728"><ele>356.0</ele><time>2026-03-29T08:38:12.382Z</time></trkpt><trkpt lat="40.3006345" lon="9.5811075"><ele>356.0</ele><time>2026-03-29T08:38:13.383Z</time></trkpt><trkpt lat="40.300704" lon="9.5811287"><ele>356.0</ele><time>2026-03-29T08:38:14.387Z</time></trkpt><trkpt lat="40.3007703" lon="9.581171"><ele>356.0</ele><time>2026-03-29T08:38:15.38Z</time></trkpt><trkpt lat="40.3008395" lon="9.5813011"><ele>356.0</ele><time>2026-03-29T08:38:17.388Z</time></trkpt><trkpt lat="40.3008812" lon="9.5814095"><ele>355.83333333333337</ele><time>2026-03-29T08:38:18.382Z</time></trkpt><trkpt lat="40.3009108" lon="9.5815169"><ele>355.6666666666667</ele><time>2026-03-29T08:38:19.386Z</time></trkpt><trkpt lat="40.3009421" lon="9.5816304"><ele>355.5</ele><time>2026-03-29T08:38:20.38Z</time></trkpt><trkpt lat="40.300958" lon="9.5817519"><ele>355.3333333333333</ele><time>2026-03-29T08:38:21.384Z</time></trkpt><trkpt lat="40.3009596" lon="9.5818686"><ele>355.16666666666663</ele><time>2026-03-29T08:38:22.378Z</time></trkpt><trkpt lat="40.3009668" lon="9.5819722"><ele>355.0</ele><time>2026-03-29T08:38:23.381Z</time></trkpt><trkpt lat="40.3009932" lon="9.5820623"><ele>356.2</ele><time>2026-03-29T08:38:24.387Z</time></trkpt><trkpt lat="40.3010417" lon="9.5821497"><ele>357.4</ele><time>2026-03-29T08:38:25.383Z</time></trkpt><trkpt lat="40.3011054" lon="9.5822404"><ele>358.6</ele><time>2026-03-29T08:38:26.377Z</time></trkpt><trkpt lat="40.301178" lon="9.5823244"><ele>359.8</ele><time>2026-03-29T08:38:27.382Z</time></trkpt><trkpt lat="40.3012565" lon="9.5823871"><ele>361.0</ele><time>2026-03-29T08:38:28.379Z</time></trkpt><trkpt lat="40.3013415" lon="9.5824271"><ele>360.3333333333333</ele><time>2026-03-29T08:38:29.379Z</time></trkpt><trkpt lat="40.3014249" lon="9.582441"><ele>359.66666666666663</ele><time>2026-03-29T08:38:30.38Z</time></trkpt><trkpt lat="40.3015041" lon="9.5824374"><ele>359.0</ele><time>2026-03-29T08:38:31.379Z</time></trkpt><trkpt lat="40.301576" lon="9.5824186"><ele>358.3333333333333</ele><time>2026-03-29T08:38:32.382Z</time></trkpt><trkpt lat="40.3016472" lon="9.5823861"><ele>357.6666666666667</ele><time>2026-03-29T08:38:33.378Z</time></trkpt><trkpt lat="40.3017108" lon="9.5823448"><ele>357.0</ele><time>2026-03-29T08:38:34.383Z</time></trkpt><trkpt lat="40.3017638" lon="9.5822904"><ele>357.0</ele><time>2026-03-29T08:38:35.382Z</time></trkpt><trkpt lat="40.3018426" lon="9.5821552"><ele>357.0</ele><time>2026-03-29T08:38:37.391Z</time></trkpt><trkpt lat="40.3018822" lon="9.5820811"><ele>357.0</ele><time>2026-03-29T08:38:38.382Z</time></trkpt><trkpt lat="40.3019232" lon="9.5820091"><ele>357.0</ele><time>2026-03-29T08:38:39.383Z</time></trkpt><trkpt lat="40.3019676" lon="9.581944"><ele>357.0</ele><time>2026-03-29T08:38:40.399Z</time></trkpt><trkpt lat="40.3020154" lon="9.5818831"><ele>357.0</ele><time>2026-03-29T08:38:41.38Z</time></trkpt><trkpt lat="40.3020682" lon="9.5818211"><ele>356.3333333333333</ele><time>2026-03-29T08:38:42.379Z</time></trkpt><trkpt lat="40.3021256" lon="9.5817562"><ele>355.6666666666667</ele><time>2026-03-29T08:38:43.379Z</time></trkpt><trkpt lat="40.3021867" lon="9.581687"><ele>355.0</ele><time>2026-03-29T08:38:44.378Z</time></trkpt><trkpt lat="40.3022514" lon="9.5816161"><ele>354.33333333333337</ele><time>2026-03-29T08:38:45.378Z</time></trkpt><trkpt lat="40.30232" lon="9.5815418"><ele>353.6666666666667</ele><time>2026-03-29T08:38:46.382Z</time></trkpt><trkpt lat="40.302394" lon="9.581465"><ele>353.0</ele><time>2026-03-29T08:38:47.384Z</time></trkpt><trkpt lat="40.3024724" lon="9.5813852"><ele>351.33333333333337</ele><time>2026-03-29T08:38:48.383Z</time></trkpt><trkpt lat="40.3025514" lon="9.5813075"><ele>349.6666666666667</ele><time>2026-03-29T08:38:49.386Z</time></trkpt><trkpt lat="40.3026214" lon="9.5812326"><ele>348.0</ele><time>2026-03-29T08:38:50.384Z</time></trkpt><trkpt lat="40.3026723" lon="9.5811558"><ele>346.3333333333333</ele><time>2026-03-29T08:38:51.38Z</time></trkpt><trkpt lat="40.302703" lon="9.5810753"><ele>344.66666666666663</ele><time>2026-03-29T08:38:52.385Z</time></trkpt><trkpt lat="40.3027157" lon="9.5809869"><ele>343.0</ele><time>2026-03-29T08:38:53.383Z</time></trkpt><trkpt lat="40.3027135" lon="9.580895"><ele>342.8333333333333</ele><time>2026-03-29T08:38:54.385Z</time></trkpt><trkpt lat="40.3027081" lon="9.5807947"><ele>342.66666666666663</ele><time>2026-03-29T08:38:55.38Z</time></trkpt><trkpt lat="40.3027032" lon="9.5806829"><ele>342.5</ele><time>2026-03-29T08:38:56.386Z</time></trkpt><trkpt lat="40.3027024" lon="9.5805692"><ele>342.3333333333333</ele><time>2026-03-29T08:38:57.383Z</time></trkpt><trkpt lat="40.3027036" lon="9.5804639"><ele>342.1666666666667</ele><time>2026-03-29T08:38:58.387Z</time></trkpt><trkpt lat="40.3027103" lon="9.5803665"><ele>342.0</ele><time>2026-03-29T08:38:59.381Z</time></trkpt><trkpt lat="40.3027174" lon="9.5802743"><ele>340.5</ele><time>2026-03-29T08:39:00.384Z</time></trkpt><trkpt lat="40.3027344" lon="9.5801159"><ele>339.0</ele><time>2026-03-29T08:39:02.382Z</time></trkpt><trkpt lat="40.3027581" lon="9.5800312"><ele>337.5</ele><time>2026-03-29T08:39:03.39Z</time></trkpt><trkpt lat="40.3027954" lon="9.5799507"><ele>336.0</ele><time>2026-03-29T08:39:04.383Z</time></trkpt><trkpt lat="40.3028427" lon="9.579886"><ele>334.5</ele><time>2026-03-29T08:39:05.377Z</time></trkpt><trkpt lat="40.3028998" lon="9.5798349"><ele>333.0</ele><time>2026-03-29T08:39:06.386Z</time></trkpt><trkpt lat="40.302955" lon="9.5797899"><ele>334.59999999999997</ele><time>2026-03-29T08:39:07.379Z</time></trkpt><trkpt lat="40.3030811" lon="9.5797743"><ele>336.2</ele><time>2026-03-29T08:39:09.381Z</time></trkpt><trkpt lat="40.3031458" lon="9.579781"><ele>337.8</ele><time>2026-03-29T08:39:10.379Z</time></trkpt><trkpt lat="40.3032099" lon="9.5797896"><ele>339.4</ele><time>2026-03-29T08:39:11.382Z</time></trkpt><trkpt lat="40.3033135" lon="9.5797584"><ele>341.0</ele><time>2026-03-29T08:39:13.378Z</time></trkpt><trkpt lat="40.3033669" lon="9.5796301"><ele>341.0</ele><time>2026-03-29T08:39:15.383Z</time></trkpt><trkpt lat="40.3033732" lon="9.5795433"><ele>341.0</ele><time>2026-03-29T08:39:16.378Z</time></trkpt><trkpt lat="40.3033808" lon="9.5794602"><ele>341.0</ele><time>2026-03-29T08:39:17.381Z</time></trkpt><trkpt lat="40.3033918" lon="9.5793646"><ele>341.0</ele><time>2026-03-29T08:39:18.387Z</time></trkpt><trkpt lat="40.3034156" lon="9.5792754"><ele>341.0</ele><time>2026-03-29T08:39:19.386Z</time></trkpt><trkpt lat="40.303444" lon="9.5791831"><ele>341.0</ele><time>2026-03-29T08:39:20.396Z</time></trkpt><trkpt lat="40.3034814" lon="9.5790905"><ele>341.0</ele><time>2026-03-29T08:39:21.384Z</time></trkpt><trkpt lat="40.3035314" lon="9.5789981"><ele>338.33333333333337</ele><time>2026-03-29T08:39:22.378Z</time></trkpt><trkpt lat="40.3035856" lon="9.5789116"><ele>335.6666666666667</ele><time>2026-03-29T08:39:23.394Z</time></trkpt><trkpt lat="40.3036369" lon="9.5788264"><ele>333.0</ele><time>2026-03-29T08:39:24.392Z</time></trkpt><trkpt lat="40.3036903" lon="9.5787392"><ele>330.3333333333333</ele><time>2026-03-29T08:39:25.389Z</time></trkpt><trkpt lat="40.3037453" lon="9.5786485"><ele>327.66666666666663</ele><time>2026-03-29T08:39:26.38Z</time></trkpt><trkpt lat="40.3038036" lon="9.5785621"><ele>325.0</ele><time>2026-03-29T08:39:27.383Z</time></trkpt><trkpt lat="40.3038608" lon="9.5784809"><ele>321.66666666666663</ele><time>2026-03-29T08:39:28.376Z</time></trkpt><trkpt lat="40.3039289" lon="9.5784229"><ele>318.3333333333333</ele><time>2026-03-29T08:39:29.385Z</time></trkpt><trkpt lat="40.3039904" lon="9.5783759"><ele>315.0</ele><time>2026-03-29T08:39:30.383Z</time></trkpt><trkpt lat="40.3040529" lon="9.5782826"><ele>311.6666666666667</ele><time>2026-03-29T08:39:31.378Z</time></trkpt><trkpt lat="40.3041086" lon="9.5781978"><ele>308.33333333333337</ele><time>2026-03-29T08:39:32.379Z</time></trkpt><trkpt lat="40.3041515" lon="9.578113"><ele>305.0</ele><time>2026-03-29T08:39:33.384Z</time></trkpt><trkpt lat="40.3041985" lon="9.5780496"><ele>305.0</ele><time>2026-03-29T08:39:34.389Z</time></trkpt><trkpt lat="40.3042885" lon="9.5780101"><ele>305.0</ele><time>2026-03-29T08:39:36.387Z</time></trkpt><trkpt lat="40.3043439" lon="9.5780615"><ele>305.0</ele><time>2026-03-29T08:39:39.378Z</time></trkpt><trkpt lat="40.3043806" lon="9.5781419"><ele>305.0</ele><time>2026-03-29T08:39:44.382Z</time></trkpt><trkpt lat="40.3044024" lon="9.5782594"><ele>305.0</ele><time>2026-03-29T08:39:51.386Z</time></trkpt><trkpt lat="40.3044453" lon="9.5784274"><ele>305.0</ele><time>2026-03-29T08:39:53.382Z</time></trkpt><trkpt lat="40.3044753" lon="9.5785144"><ele>305.0</ele><time>2026-03-29T08:39:54.381Z</time></trkpt><trkpt lat="40.3045037" lon="9.578596"><ele>305.0</ele><time>2026-03-29T08:39:55.388Z</time></trkpt><trkpt lat="40.3045428" lon="9.5786731"><ele>305.0</ele><time>2026-03-29T08:39:56.385Z</time></trkpt><trkpt lat="40.3045946" lon="9.5787409"><ele>305.0</ele><time>2026-03-29T08:39:57.395Z</time></trkpt><trkpt lat="40.3046598" lon="9.5788177"><ele>305.0</ele><time>2026-03-29T08:39:58.379Z</time></trkpt><trkpt lat="40.3047225" lon="9.5788865"><ele>302.83333333333337</ele><time>2026-03-29T08:39:59.378Z</time></trkpt><trkpt lat="40.3047775" lon="9.5789711"><ele>300.6666666666667</ele><time>2026-03-29T08:40:00.387Z</time></trkpt><trkpt lat="40.3048191" lon="9.579041"><ele>298.5</ele><time>2026-03-29T08:40:01.38Z</time></trkpt><trkpt lat="40.3049315" lon="9.5791207"><ele>296.3333333333333</ele><time>2026-03-29T08:40:03.378Z</time></trkpt><trkpt lat="40.3050072" lon="9.5791433"><ele>294.16666666666663</ele><time>2026-03-29T08:40:04.383Z</time></trkpt><trkpt lat="40.3050956" lon="9.579148"><ele>292.0</ele><time>2026-03-29T08:40:05.379Z</time></trkpt><trkpt lat="40.3051989" lon="9.5791799"><ele>292.0</ele><time>2026-03-29T08:40:06.378Z</time></trkpt><trkpt lat="40.3053027" lon="9.5792131"><ele>292.0</ele><time>2026-03-29T08:40:07.398Z</time></trkpt><trkpt lat="40.3054236" lon="9.5792654"><ele>292.0</ele><time>2026-03-29T08:40:08.381Z</time></trkpt><trkpt lat="40.3055464" lon="9.579323"><ele>292.0</ele><time>2026-03-29T08:40:09.379Z</time></trkpt><trkpt lat="40.3056675" lon="9.5793772"><ele>289.75</ele><time>2026-03-29T08:40:10.379Z</time></trkpt><trkpt lat="40.3057978" lon="9.5794383"><ele>287.5</ele><time>2026-03-29T08:40:11.377Z</time></trkpt><trkpt lat="40.3059283" lon="9.5795075"><ele>285.25</ele><time>2026-03-29T08:40:12.379Z</time></trkpt><trkpt lat="40.3060597" lon="9.5795701"><ele>283.0</ele><time>2026-03-29T08:40:13.383Z</time></trkpt><trkpt lat="40.3061937" lon="9.5796332"><ele>281.75</ele><time>2026-03-29T08:40:14.376Z</time></trkpt><trkpt lat="40.3063294" lon="9.5797036"><ele>280.5</ele><time>2026-03-29T08:40:15.379Z</time></trkpt><trkpt lat="40.3064528" lon="9.5797678"><ele>279.25</ele><time>2026-03-29T08:40:16.379Z</time></trkpt><trkpt lat="40.3065639" lon="9.5798297"><ele>278.0</ele><time>2026-03-29T08:40:17.377Z</time></trkpt><trkpt lat="40.3066806" lon="9.5798756"><ele>277.5</ele><time>2026-03-29T08:40:18.38Z</time></trkpt><trkpt lat="40.3068054" lon="9.5799081"><ele>277.0</ele><time>2026-03-29T08:40:19.378Z</time></trkpt><trkpt lat="40.3069363" lon="9.579917"><ele>276.5</ele><time>2026-03-29T08:40:20.374Z</time></trkpt><trkpt lat="40.3070602" lon="9.579905"><ele>276.0</ele><time>2026-03-29T08:40:21.379Z</time></trkpt><trkpt lat="40.3071805" lon="9.5798654"><ele>276.0</ele><time>2026-03-29T08:40:22.38Z</time></trkpt><trkpt lat="40.3073088" lon="9.5798217"><ele>276.0</ele><time>2026-03-29T08:40:23.391Z</time></trkpt><trkpt lat="40.3074349" lon="9.5797385"><ele>276.0</ele><time>2026-03-29T08:40:24.383Z</time></trkpt><trkpt lat="40.3075589" lon="9.5796597"><ele>276.0</ele><time>2026-03-29T08:40:25.375Z</time></trkpt><trkpt lat="40.3076789" lon="9.5795949"><ele>276.0</ele><time>2026-03-29T08:40:26.381Z</time></trkpt><trkpt lat="40.3077931" lon="9.5795346"><ele>276.0</ele><time>2026-03-29T08:40:27.384Z</time></trkpt><trkpt lat="40.3078952" lon="9.5794939"><ele>276.0</ele><time>2026-03-29T08:40:28.378Z</time></trkpt><trkpt lat="40.3079952" lon="9.5794488"><ele>276.0</ele><time>2026-03-29T08:40:29.389Z</time></trkpt><trkpt lat="40.3080937" lon="9.5794027"><ele>276.0</ele><time>2026-03-29T08:40:30.382Z</time></trkpt><trkpt lat="40.3081904" lon="9.5793587"><ele>275.3333333333333</ele><time>2026-03-29T08:40:31.382Z</time></trkpt><trkpt lat="40.3082794" lon="9.5793197"><ele>274.6666666666667</ele><time>2026-03-29T08:40:32.383Z</time></trkpt><trkpt lat="40.3083616" lon="9.5792929"><ele>274.0</ele><time>2026-03-29T08:40:33.384Z</time></trkpt><trkpt lat="40.3084378" lon="9.5792857"><ele>273.33333333333337</ele><time>2026-03-29T08:40:34.379Z</time></trkpt><trkpt lat="40.3085091" lon="9.5792931"><ele>272.6666666666667</ele><time>2026-03-29T08:40:35.397Z</time></trkpt><trkpt lat="40.3085872" lon="9.5793268"><ele>272.0</ele><time>2026-03-29T08:40:36.382Z</time></trkpt><trkpt lat="40.308692" lon="9.5794094"><ele>272.0</ele><time>2026-03-29T08:40:37.387Z</time></trkpt><trkpt lat="40.3088093" lon="9.5795077"><ele>272.0</ele><time>2026-03-29T08:40:38.374Z</time></trkpt><trkpt lat="40.3089306" lon="9.5796138"><ele>272.0</ele><time>2026-03-29T08:40:39.389Z</time></trkpt><trkpt lat="40.3090484" lon="9.5797132"><ele>272.0</ele><time>2026-03-29T08:40:40.378Z</time></trkpt><trkpt lat="40.3091667" lon="9.5798137"><ele>269.5</ele><time>2026-03-29T08:40:41.38Z</time></trkpt><trkpt lat="40.3092723" lon="9.5799054"><ele>267.0</ele><time>2026-03-29T08:40:42.379Z</time></trkpt><trkpt lat="40.3093785" lon="9.5799848"><ele>264.5</ele><time>2026-03-29T08:40:43.376Z</time></trkpt><trkpt lat="40.3094849" lon="9.5800449"><ele>262.0</ele><time>2026-03-29T08:40:44.374Z</time></trkpt><trkpt lat="40.3095838" lon="9.5800927"><ele>262.0</ele><time>2026-03-29T08:40:45.38Z</time></trkpt><trkpt lat="40.3096702" lon="9.5801338"><ele>262.0</ele><time>2026-03-29T08:40:46.377Z</time></trkpt><trkpt lat="40.3097449" lon="9.5801707"><ele>262.0</ele><time>2026-03-29T08:40:47.381Z</time></trkpt><trkpt lat="40.3098206" lon="9.5802179"><ele>262.0</ele><time>2026-03-29T08:40:48.386Z</time></trkpt><trkpt lat="40.3098921" lon="9.5802629"><ele>262.0</ele><time>2026-03-29T08:40:49.379Z</time></trkpt><trkpt lat="40.3099605" lon="9.580305"><ele>262.0</ele><time>2026-03-29T08:40:50.376Z</time></trkpt><trkpt lat="40.3100229" lon="9.5803359"><ele>260.6</ele><time>2026-03-29T08:40:51.38Z</time></trkpt><trkpt lat="40.3101378" lon="9.5803911"><ele>259.2</ele><time>2026-03-29T08:40:53.394Z</time></trkpt><trkpt lat="40.3102204" lon="9.5805074"><ele>257.8</ele><time>2026-03-29T08:40:55.397Z</time></trkpt><trkpt lat="40.3102564" lon="9.5805978"><ele>256.4</ele><time>2026-03-29T08:40:56.378Z</time></trkpt><trkpt lat="40.310325" lon="9.580695"><ele>255.0</ele><time>2026-03-29T08:40:57.381Z</time></trkpt><trkpt lat="40.3104085" lon="9.5808029"><ele>255.0</ele><time>2026-03-29T08:40:58.385Z</time></trkpt><trkpt lat="40.3104879" lon="9.5809046"><ele>255.0</ele><time>2026-03-29T08:40:59.383Z</time></trkpt><trkpt lat="40.3105661" lon="9.5810093"><ele>255.0</ele><time>2026-03-29T08:41:00.385Z</time></trkpt><trkpt lat="40.3106368" lon="9.5811123"><ele>255.0</ele><time>2026-03-29T08:41:01.398Z</time></trkpt><trkpt lat="40.3107137" lon="9.5812207"><ele>255.0</ele><time>2026-03-29T08:41:02.379Z</time></trkpt><trkpt lat="40.3107855" lon="9.581345"><ele>254.0</ele><time>2026-03-29T08:41:03.379Z</time></trkpt><trkpt lat="40.3108591" lon="9.5814767"><ele>253.0</ele><time>2026-03-29T08:41:04.381Z</time></trkpt><trkpt lat="40.3109255" lon="9.5816089"><ele>252.0</ele><time>2026-03-29T08:41:05.381Z</time></trkpt><trkpt lat="40.3109906" lon="9.5817253"><ele>251.0</ele><time>2026-03-29T08:41:06.395Z</time></trkpt><trkpt lat="40.3110612" lon="9.581834"><ele>251.0</ele><time>2026-03-29T08:41:07.385Z</time></trkpt><trkpt lat="40.3111322" lon="9.5819383"><ele>251.00000000000003</ele><time>2026-03-29T08:41:08.387Z</time></trkpt><trkpt lat="40.3112093" lon="9.5820421"><ele>251.00000000000003</ele><time>2026-03-29T08:41:09.386Z</time></trkpt><trkpt lat="40.311281" lon="9.5821495"><ele>251.0</ele><time>2026-03-29T08:41:10.384Z</time></trkpt><trkpt lat="40.3113457" lon="9.5822564"><ele>251.0</ele><time>2026-03-29T08:41:11.377Z</time></trkpt><trkpt lat="40.3114151" lon="9.5823582"><ele>248.75</ele><time>2026-03-29T08:41:12.386Z</time></trkpt><trkpt lat="40.3114966" lon="9.5824494"><ele>246.5</ele><time>2026-03-29T08:41:13.383Z</time></trkpt><trkpt lat="40.3115802" lon="9.5825396"><ele>244.25</ele><time>2026-03-29T08:41:14.387Z</time></trkpt><trkpt lat="40.311675" lon="9.5826333"><ele>242.0</ele><time>2026-03-29T08:41:15.376Z</time></trkpt><trkpt lat="40.3117708" lon="9.5827518"><ele>240.5</ele><time>2026-03-29T08:41:16.381Z</time></trkpt><trkpt lat="40.3118648" lon="9.5828768"><ele>239.0</ele><time>2026-03-29T08:41:17.382Z</time></trkpt><trkpt lat="40.3119563" lon="9.5829972"><ele>237.5</ele><time>2026-03-29T08:41:18.383Z</time></trkpt><trkpt lat="40.3120433" lon="9.5831061"><ele>236.0</ele><time>2026-03-29T08:41:19.381Z</time></trkpt><trkpt lat="40.3121222" lon="9.5832066"><ele>236.0</ele><time>2026-03-29T08:41:20.379Z</time></trkpt><trkpt lat="40.3122018" lon="9.5832938"><ele>236.00000000000003</ele><time>2026-03-29T08:41:21.385Z</time></trkpt><trkpt lat="40.3122683" lon="9.5833809"><ele>236.00000000000003</ele><time>2026-03-29T08:41:22.389Z</time></trkpt><trkpt lat="40.3123317" lon="9.5834583"><ele>236.0</ele><time>2026-03-29T08:41:23.382Z</time></trkpt><trkpt lat="40.3123934" lon="9.5835305"><ele>236.0</ele><time>2026-03-29T08:41:24.409Z</time></trkpt><trkpt lat="40.3124763" lon="9.5835929"><ele>236.0</ele><time>2026-03-29T08:41:25.381Z</time></trkpt><trkpt lat="40.3125816" lon="9.5836559"><ele>236.0</ele><time>2026-03-29T08:41:26.381Z</time></trkpt><trkpt lat="40.31269" lon="9.5837134"><ele>236.0</ele><time>2026-03-29T08:41:27.384Z</time></trkpt><trkpt lat="40.3127972" lon="9.5837725"><ele>236.0</ele><time>2026-03-29T08:41:28.38Z</time></trkpt><trkpt lat="40.3128982" lon="9.5838326"><ele>235.8</ele><time>2026-03-29T08:41:29.396Z</time></trkpt><trkpt lat="40.3129923" lon="9.5838887"><ele>235.60000000000002</ele><time>2026-03-29T08:41:30.383Z</time></trkpt><trkpt lat="40.3130761" lon="9.5839583"><ele>235.4</ele><time>2026-03-29T08:41:31.383Z</time></trkpt><trkpt lat="40.3131534" lon="9.5840346"><ele>235.2</ele><time>2026-03-29T08:41:32.384Z</time></trkpt><trkpt lat="40.3132258" lon="9.5841142"><ele>235.0</ele><time>2026-03-29T08:41:33.383Z</time></trkpt><trkpt lat="40.3132981" lon="9.5841964"><ele>235.0</ele><time>2026-03-29T08:41:34.407Z</time></trkpt><trkpt lat="40.3133619" lon="9.5842979"><ele>235.0</ele><time>2026-03-29T08:41:35.378Z</time></trkpt><trkpt lat="40.3134219" lon="9.5843987"><ele>235.0</ele><time>2026-03-29T08:41:36.387Z</time></trkpt><trkpt lat="40.3134869" lon="9.5845079"><ele>235.0</ele><time>2026-03-29T08:41:37.379Z</time></trkpt><trkpt lat="40.3135547" lon="9.584624"><ele>235.0</ele><time>2026-03-29T08:41:38.377Z</time></trkpt><trkpt lat="40.313621" lon="9.5847425"><ele>235.25</ele><time>2026-03-29T08:41:39.38Z</time></trkpt><trkpt lat="40.3136863" lon="9.5848606"><ele>235.5</ele><time>2026-03-29T08:41:40.381Z</time></trkpt><trkpt lat="40.3137595" lon="9.5849836"><ele>235.75</ele><time>2026-03-29T08:41:41.392Z</time></trkpt><trkpt lat="40.3138405" lon="9.5851045"><ele>236.0</ele><time>2026-03-29T08:41:42.386Z</time></trkpt><trkpt lat="40.3139251" lon="9.5852289"><ele>236.0</ele><time>2026-03-29T08:41:43.389Z</time></trkpt><trkpt lat="40.3140104" lon="9.5853482"><ele>236.0</ele><time>2026-03-29T08:41:44.383Z</time></trkpt><trkpt lat="40.3141021" lon="9.5854683"><ele>236.0</ele><time>2026-03-29T08:41:45.385Z</time></trkpt><trkpt lat="40.3141846" lon="9.5855874"><ele>236.0</ele><time>2026-03-29T08:41:46.389Z</time></trkpt><trkpt lat="40.3142557" lon="9.5857073"><ele>236.0</ele><time>2026-03-29T08:41:47.385Z</time></trkpt><trkpt lat="40.3143289" lon="9.5858295"><ele>236.0</ele><time>2026-03-29T08:41:48.393Z</time></trkpt><trkpt lat="40.3144091" lon="9.5859382"><ele>236.0</ele><time>2026-03-29T08:41:49.383Z</time></trkpt><trkpt lat="40.3144968" lon="9.5860349"><ele>236.0</ele><time>2026-03-29T08:41:50.382Z</time></trkpt><trkpt lat="40.3145943" lon="9.5861277"><ele>236.5</ele><time>2026-03-29T08:41:51.383Z</time></trkpt><trkpt lat="40.3147013" lon="9.586219"><ele>237.0</ele><time>2026-03-29T08:41:52.382Z</time></trkpt><trkpt lat="40.3148157" lon="9.586306"><ele>237.5</ele><time>2026-03-29T08:41:53.385Z</time></trkpt><trkpt lat="40.3149313" lon="9.5863934"><ele>238.0</ele><time>2026-03-29T08:41:54.381Z</time></trkpt><trkpt lat="40.3150573" lon="9.5864662"><ele>238.5</ele><time>2026-03-29T08:41:55.405Z</time></trkpt><trkpt lat="40.315177" lon="9.586529"><ele>239.0</ele><time>2026-03-29T08:41:56.383Z</time></trkpt><trkpt lat="40.3152874" lon="9.5865851"><ele>239.5</ele><time>2026-03-29T08:41:57.381Z</time></trkpt><trkpt lat="40.3153909" lon="9.5866222"><ele>240.0</ele><time>2026-03-29T08:41:58.383Z</time></trkpt><trkpt lat="40.3155002" lon="9.5866485"><ele>240.25</ele><time>2026-03-29T08:41:59.384Z</time></trkpt><trkpt lat="40.3156178" lon="9.5866679"><ele>240.5</ele><time>2026-03-29T08:42:00.4Z</time></trkpt><trkpt lat="40.3157456" lon="9.5866877"><ele>240.75</ele><time>2026-03-29T08:42:01.387Z</time></trkpt><trkpt lat="40.3158685" lon="9.5867104"><ele>241.0</ele><time>2026-03-29T08:42:02.384Z</time></trkpt><trkpt lat="40.3159882" lon="9.5867324"><ele>241.0</ele><time>2026-03-29T08:42:03.385Z</time></trkpt><trkpt lat="40.3161088" lon="9.5867626"><ele>241.0</ele><time>2026-03-29T08:42:04.389Z</time></trkpt><trkpt lat="40.3162237" lon="9.5868073"><ele>241.0</ele><time>2026-03-29T08:42:05.382Z</time></trkpt><trkpt lat="40.3163371" lon="9.5868592"><ele>241.0</ele><time>2026-03-29T08:42:06.387Z</time></trkpt><trkpt lat="40.3164475" lon="9.5869032"><ele>240.8</ele><time>2026-03-29T08:42:07.381Z</time></trkpt><trkpt lat="40.3165502" lon="9.5869362"><ele>240.60000000000002</ele><time>2026-03-29T08:42:08.381Z</time></trkpt><trkpt lat="40.3166522" lon="9.5869455"><ele>240.4</ele><time>2026-03-29T08:42:09.383Z</time></trkpt><trkpt lat="40.316759" lon="9.5869399"><ele>240.2</ele><time>2026-03-29T08:42:10.383Z</time></trkpt><trkpt lat="40.3168703" lon="9.5869319"><ele>240.0</ele><time>2026-03-29T08:42:11.387Z</time></trkpt><trkpt lat="40.3169827" lon="9.5869138"><ele>240.0</ele><time>2026-03-29T08:42:12.382Z</time></trkpt><trkpt lat="40.3170953" lon="9.5868838"><ele>240.0</ele><time>2026-03-29T08:42:13.384Z</time></trkpt><trkpt lat="40.3172173" lon="9.5868426"><ele>240.0</ele><time>2026-03-29T08:42:14.382Z</time></trkpt><trkpt lat="40.3173355" lon="9.5867863"><ele>240.0</ele><time>2026-03-29T08:42:15.387Z</time></trkpt><trkpt lat="40.3174536" lon="9.5867185"><ele>240.75</ele><time>2026-03-29T08:42:16.376Z</time></trkpt><trkpt lat="40.3175736" lon="9.5866469"><ele>241.5</ele><time>2026-03-29T08:42:17.382Z</time></trkpt><trkpt lat="40.3176937" lon="9.5865841"><ele>242.25</ele><time>2026-03-29T08:42:18.379Z</time></trkpt><trkpt lat="40.3178152" lon="9.586534"><ele>243.0</ele><time>2026-03-29T08:42:19.375Z</time></trkpt><trkpt lat="40.317937" lon="9.5864944"><ele>243.0</ele><time>2026-03-29T08:42:20.378Z</time></trkpt><trkpt lat="40.3180591" lon="9.5864651"><ele>243.0</ele><time>2026-03-29T08:42:21.384Z</time></trkpt><trkpt lat="40.3181811" lon="9.5864442"><ele>243.0</ele><time>2026-03-29T08:42:22.393Z</time></trkpt><trkpt lat="40.3182984" lon="9.5864131"><ele>243.0</ele><time>2026-03-29T08:42:23.382Z</time></trkpt><trkpt lat="40.3184202" lon="9.58638"><ele>244.0</ele><time>2026-03-29T08:42:24.38Z</time></trkpt><trkpt lat="40.3185424" lon="9.5863229"><ele>245.0</ele><time>2026-03-29T08:42:25.384Z</time></trkpt><trkpt lat="40.3186717" lon="9.5862635"><ele>246.0</ele><time>2026-03-29T08:42:26.384Z</time></trkpt><trkpt lat="40.3188009" lon="9.5861987"><ele>247.0</ele><time>2026-03-29T08:42:27.384Z</time></trkpt><trkpt lat="40.3189171" lon="9.5861411"><ele>248.6</ele><time>2026-03-29T08:42:28.396Z</time></trkpt><trkpt lat="40.319028" lon="9.5860799"><ele>250.2</ele><time>2026-03-29T08:42:29.384Z</time></trkpt><trkpt lat="40.3191161" lon="9.5860221"><ele>251.8</ele><time>2026-03-29T08:42:30.378Z</time></trkpt><trkpt lat="40.3191854" lon="9.5859734"><ele>253.4</ele><time>2026-03-29T08:42:31.383Z</time></trkpt><trkpt lat="40.3192452" lon="9.5859214"><ele>255.0</ele><time>2026-03-29T08:42:32.376Z</time></trkpt><trkpt lat="40.3193245" lon="9.5858258"><ele>255.0</ele><time>2026-03-29T08:42:34.385Z</time></trkpt><trkpt lat="40.3194247" lon="9.5858019"><ele>255.0</ele><time>2026-03-29T08:42:40.381Z</time></trkpt><trkpt lat="40.3194892" lon="9.5858504"><ele>255.0</ele><time>2026-03-29T08:42:41.387Z</time></trkpt><trkpt lat="40.3195613" lon="9.5859304"><ele>255.0</ele><time>2026-03-29T08:42:42.387Z</time></trkpt><trkpt lat="40.3196365" lon="9.5860425"><ele>255.0</ele><time>2026-03-29T08:42:43.379Z</time></trkpt><trkpt lat="40.3197137" lon="9.5861782"><ele>256.0</ele><time>2026-03-29T08:42:44.387Z</time></trkpt><trkpt lat="40.3197823" lon="9.5863354"><ele>257.0</ele><time>2026-03-29T08:42:45.393Z</time></trkpt><trkpt lat="40.3198394" lon="9.586518"><ele>258.0</ele><time>2026-03-29T08:42:46.375Z</time></trkpt><trkpt lat="40.3198864" lon="9.5867229"><ele>258.0</ele><time>2026-03-29T08:42:47.378Z</time></trkpt><trkpt lat="40.3199171" lon="9.5869406"><ele>258.0</ele><time>2026-03-29T08:42:48.385Z</time></trkpt><trkpt lat="40.3199279" lon="9.5871675"><ele>258.0</ele><time>2026-03-29T08:42:49.391Z</time></trkpt><trkpt lat="40.3199327" lon="9.5873985"><ele>258.0</ele><time>2026-03-29T08:42:50.387Z</time></trkpt><trkpt lat="40.3199208" lon="9.5876333"><ele>258.0</ele><time>2026-03-29T08:42:51.382Z</time></trkpt><trkpt lat="40.3199221" lon="9.5878581"><ele>258.0</ele><time>2026-03-29T08:42:52.385Z</time></trkpt><trkpt lat="40.3199435" lon="9.5880738"><ele>258.0</ele><time>2026-03-29T08:42:53.382Z</time></trkpt><trkpt lat="40.3199859" lon="9.5882844"><ele>258.0</ele><time>2026-03-29T08:42:54.386Z</time></trkpt><trkpt lat="40.320037" lon="9.588494"><ele>258.0</ele><time>2026-03-29T08:42:55.385Z</time></trkpt><trkpt lat="40.3200952" lon="9.5887006"><ele>257.6666666666667</ele><time>2026-03-29T08:42:56.398Z</time></trkpt><trkpt lat="40.320159" lon="9.5889044"><ele>257.33333333333337</ele><time>2026-03-29T08:42:57.38Z</time></trkpt><trkpt lat="40.3202284" lon="9.5891075"><ele>257.0</ele><time>2026-03-29T08:42:58.382Z</time></trkpt><trkpt lat="40.3203055" lon="9.5892981"><ele>257.0</ele><time>2026-03-29T08:42:59.379Z</time></trkpt><trkpt lat="40.3203921" lon="9.5894788"><ele>257.0</ele><time>2026-03-29T08:43:00.382Z</time></trkpt><trkpt lat="40.3204937" lon="9.5896451"><ele>257.0</ele><time>2026-03-29T08:43:01.38Z</time></trkpt><trkpt lat="40.3206088" lon="9.5898042"><ele>257.0</ele><time>2026-03-29T08:43:02.386Z</time></trkpt><trkpt lat="40.3207287" lon="9.5899545"><ele>257.0</ele><time>2026-03-29T08:43:03.378Z</time></trkpt><trkpt lat="40.3208553" lon="9.5901028"><ele>257.0</ele><time>2026-03-29T08:43:04.387Z</time></trkpt><trkpt lat="40.3209779" lon="9.5902439"><ele>257.6666666666667</ele><time>2026-03-29T08:43:05.382Z</time></trkpt><trkpt lat="40.3210994" lon="9.5903862"><ele>258.3333333333333</ele><time>2026-03-29T08:43:06.382Z</time></trkpt><trkpt lat="40.3212229" lon="9.5905295"><ele>259.0</ele><time>2026-03-29T08:43:07.379Z</time></trkpt><trkpt lat="40.3213448" lon="9.5906771"><ele>258.0</ele><time>2026-03-29T08:43:08.38Z</time></trkpt><trkpt lat="40.3214643" lon="9.5908294"><ele>257.0</ele><time>2026-03-29T08:43:09.397Z</time></trkpt><trkpt lat="40.3215766" lon="9.5909874"><ele>256.0</ele><time>2026-03-29T08:43:10.382Z</time></trkpt><trkpt lat="40.3216807" lon="9.5911568"><ele>255.66666666666666</ele><time>2026-03-29T08:43:11.378Z</time></trkpt><trkpt lat="40.3217782" lon="9.5913363"><ele>255.33333333333331</ele><time>2026-03-29T08:43:12.383Z</time></trkpt><trkpt lat="40.3218672" lon="9.5915132"><ele>255.0</ele><time>2026-03-29T08:43:13.384Z</time></trkpt><trkpt lat="40.3219522" lon="9.5916858"><ele>255.0</ele><time>2026-03-29T08:43:14.382Z</time></trkpt><trkpt lat="40.322032" lon="9.5918578"><ele>255.0</ele><time>2026-03-29T08:43:15.379Z</time></trkpt><trkpt lat="40.3221064" lon="9.5920302"><ele>255.0</ele><time>2026-03-29T08:43:16.38Z</time></trkpt><trkpt lat="40.3221784" lon="9.5922059"><ele>253.33333333333331</ele><time>2026-03-29T08:43:17.376Z</time></trkpt><trkpt lat="40.3222522" lon="9.5923766"><ele>251.66666666666666</ele><time>2026-03-29T08:43:18.378Z</time></trkpt><trkpt lat="40.3223222" lon="9.5925612"><ele>250.0</ele><time>2026-03-29T08:43:19.384Z</time></trkpt><trkpt lat="40.3223979" lon="9.5927392"><ele>250.0</ele><time>2026-03-29T08:43:20.379Z</time></trkpt><trkpt lat="40.3224686" lon="9.5929154"><ele>250.0</ele><time>2026-03-29T08:43:21.38Z</time></trkpt><trkpt lat="40.3225397" lon="9.5930913"><ele>250.0</ele><time>2026-03-29T08:43:22.381Z</time></trkpt><trkpt lat="40.3226221" lon="9.5932674"><ele>250.0</ele><time>2026-03-29T08:43:23.38Z</time></trkpt><trkpt lat="40.3227092" lon="9.5934331"><ele>250.0</ele><time>2026-03-29T08:43:24.386Z</time></trkpt><trkpt lat="40.3228129" lon="9.5935882"><ele>250.0</ele><time>2026-03-29T08:43:25.378Z</time></trkpt><trkpt lat="40.3229251" lon="9.5937137"><ele>250.0</ele><time>2026-03-29T08:43:26.382Z</time></trkpt><trkpt lat="40.3230634" lon="9.5938682"><ele>250.0</ele><time>2026-03-29T08:43:27.378Z</time></trkpt><trkpt lat="40.3231832" lon="9.5939926"><ele>250.0</ele><time>2026-03-29T08:43:28.38Z</time></trkpt><trkpt lat="40.3233236" lon="9.5941099"><ele>250.0</ele><time>2026-03-29T08:43:29.381Z</time></trkpt><trkpt lat="40.3234738" lon="9.5942103"><ele>250.0</ele><time>2026-03-29T08:43:30.379Z</time></trkpt><trkpt lat="40.3236303" lon="9.594297"><ele>250.0</ele><time>2026-03-29T08:43:31.382Z</time></trkpt><trkpt lat="40.3237835" lon="9.5943765"><ele>249.66666666666666</ele><time>2026-03-29T08:43:32.383Z</time></trkpt><trkpt lat="40.323935" lon="9.5944534"><ele>249.33333333333331</ele><time>2026-03-29T08:43:33.38Z</time></trkpt><trkpt lat="40.3240837" lon="9.594531"><ele>249.0</ele><time>2026-03-29T08:43:34.406Z</time></trkpt><trkpt lat="40.3242333" lon="9.5946076"><ele>247.66666666666669</ele><time>2026-03-29T08:43:35.383Z</time></trkpt><trkpt lat="40.3243854" lon="9.5946846"><ele>246.33333333333334</ele><time>2026-03-29T08:43:36.378Z</time></trkpt><trkpt lat="40.3245377" lon="9.5947642"><ele>245.0</ele><time>2026-03-29T08:43:37.38Z</time></trkpt><trkpt lat="40.3246868" lon="9.594842"><ele>245.33333333333334</ele><time>2026-03-29T08:43:38.379Z</time></trkpt><trkpt lat="40.3248407" lon="9.5949246"><ele>245.66666666666669</ele><time>2026-03-29T08:43:39.401Z</time></trkpt><trkpt lat="40.3249992" lon="9.5949981"><ele>246.0</ele><time>2026-03-29T08:43:40.378Z</time></trkpt><trkpt lat="40.3251557" lon="9.5950743"><ele>246.0</ele><time>2026-03-29T08:43:41.377Z</time></trkpt><trkpt lat="40.3253127" lon="9.5951553"><ele>246.0</ele><time>2026-03-29T08:43:42.38Z</time></trkpt><trkpt lat="40.3254721" lon="9.5952357"><ele>246.0</ele><time>2026-03-29T08:43:43.384Z</time></trkpt><trkpt lat="40.3256323" lon="9.5953167"><ele>245.33333333333331</ele><time>2026-03-29T08:43:44.379Z</time></trkpt><trkpt lat="40.3257891" lon="9.595395"><ele>244.66666666666666</ele><time>2026-03-29T08:43:45.378Z</time></trkpt><trkpt lat="40.3259449" lon="9.5954697"><ele>244.0</ele><time>2026-03-29T08:43:46.379Z</time></trkpt><trkpt lat="40.3260987" lon="9.5955457"><ele>244.0</ele><time>2026-03-29T08:43:47.38Z</time></trkpt><trkpt lat="40.3262504" lon="9.595623"><ele>244.0</ele><time>2026-03-29T08:43:48.392Z</time></trkpt><trkpt lat="40.3264029" lon="9.5956999"><ele>244.0</ele><time>2026-03-29T08:43:49.379Z</time></trkpt><trkpt lat="40.3265591" lon="9.5957781"><ele>242.66666666666666</ele><time>2026-03-29T08:43:50.407Z</time></trkpt><trkpt lat="40.3267171" lon="9.5958569"><ele>241.33333333333331</ele><time>2026-03-29T08:43:51.379Z</time></trkpt><trkpt lat="40.3268756" lon="9.5959349"><ele>240.0</ele><time>2026-03-29T08:43:52.379Z</time></trkpt><trkpt lat="40.3270375" lon="9.5960153"><ele>240.0</ele><time>2026-03-29T08:43:53.378Z</time></trkpt><trkpt lat="40.3271977" lon="9.596094"><ele>240.0</ele><time>2026-03-29T08:43:54.376Z</time></trkpt><trkpt lat="40.3273598" lon="9.5961753"><ele>240.0</ele><time>2026-03-29T08:43:55.382Z</time></trkpt><trkpt lat="40.3275223" lon="9.5962569"><ele>238.33333333333331</ele><time>2026-03-29T08:43:56.385Z</time></trkpt><trkpt lat="40.3276861" lon="9.5963401"><ele>236.66666666666666</ele><time>2026-03-29T08:43:57.387Z</time></trkpt><trkpt lat="40.3278517" lon="9.5964247"><ele>235.0</ele><time>2026-03-29T08:43:58.382Z</time></trkpt><trkpt lat="40.3280212" lon="9.5965124"><ele>234.33333333333331</ele><time>2026-03-29T08:43:59.406Z</time></trkpt><trkpt lat="40.3281919" lon="9.5966011"><ele>233.66666666666669</ele><time>2026-03-29T08:44:00.382Z</time></trkpt><trkpt lat="40.3283607" lon="9.5966878"><ele>233.0</ele><time>2026-03-29T08:44:01.377Z</time></trkpt><trkpt lat="40.328527" lon="9.5967721"><ele>233.0</ele><time>2026-03-29T08:44:02.382Z</time></trkpt><trkpt lat="40.328693" lon="9.5968567"><ele>233.0</ele><time>2026-03-29T08:44:03.378Z</time></trkpt><trkpt lat="40.3288598" lon="9.5969405"><ele>233.0</ele><time>2026-03-29T08:44:04.408Z</time></trkpt><trkpt lat="40.3290282" lon="9.5970252"><ele>231.33333333333334</ele><time>2026-03-29T08:44:05.382Z</time></trkpt><trkpt lat="40.3291982" lon="9.5971086"><ele>229.66666666666669</ele><time>2026-03-29T08:44:06.382Z</time></trkpt><trkpt lat="40.329367" lon="9.5971908"><ele>228.0</ele><time>2026-03-29T08:44:07.379Z</time></trkpt><trkpt lat="40.3295348" lon="9.597274"><ele>228.0</ele><time>2026-03-29T08:44:08.382Z</time></trkpt><trkpt lat="40.3297017" lon="9.5973579"><ele>228.0</ele><time>2026-03-29T08:44:09.399Z</time></trkpt><trkpt lat="40.3298683" lon="9.5974425"><ele>228.0</ele><time>2026-03-29T08:44:10.378Z</time></trkpt><trkpt lat="40.3300351" lon="9.5975268"><ele>226.33333333333331</ele><time>2026-03-29T08:44:11.378Z</time></trkpt><trkpt lat="40.3302048" lon="9.5976118"><ele>224.66666666666666</ele><time>2026-03-29T08:44:12.382Z</time></trkpt><trkpt lat="40.3303773" lon="9.5976996"><ele>223.0</ele><time>2026-03-29T08:44:13.379Z</time></trkpt><trkpt lat="40.3305531" lon="9.5977896"><ele>222.0</ele><time>2026-03-29T08:44:14.4Z</time></trkpt><trkpt lat="40.3307353" lon="9.5978794"><ele>221.0</ele><time>2026-03-29T08:44:15.385Z</time></trkpt><trkpt lat="40.3309239" lon="9.5979642"><ele>220.0</ele><time>2026-03-29T08:44:16.381Z</time></trkpt><trkpt lat="40.3311168" lon="9.5980371"><ele>220.0</ele><time>2026-03-29T08:44:17.381Z</time></trkpt><trkpt lat="40.3313151" lon="9.5980961"><ele>220.0</ele><time>2026-03-29T08:44:18.385Z</time></trkpt><trkpt lat="40.3315164" lon="9.5981405"><ele>220.0</ele><time>2026-03-29T08:44:19.378Z</time></trkpt><trkpt lat="40.331717" lon="9.598174"><ele>219.0</ele><time>2026-03-29T08:44:20.382Z</time></trkpt><trkpt lat="40.3319116" lon="9.598203"><ele>218.0</ele><time>2026-03-29T08:44:21.385Z</time></trkpt><trkpt lat="40.332102" lon="9.5982314"><ele>217.0</ele><time>2026-03-29T08:44:22.391Z</time></trkpt><trkpt lat="40.3322879" lon="9.5982621"><ele>216.33333333333331</ele><time>2026-03-29T08:44:23.39Z</time></trkpt><trkpt lat="40.3324721" lon="9.5983003"><ele>215.66666666666669</ele><time>2026-03-29T08:44:24.38Z</time></trkpt><trkpt lat="40.3326493" lon="9.5983572"><ele>215.0</ele><time>2026-03-29T08:44:25.379Z</time></trkpt><trkpt lat="40.3328252" lon="9.5984332"><ele>215.0</ele><time>2026-03-29T08:44:26.381Z</time></trkpt><trkpt lat="40.3329839" lon="9.5985432"><ele>215.0</ele><time>2026-03-29T08:44:27.378Z</time></trkpt><trkpt lat="40.3331336" lon="9.5986731"><ele>215.0</ele><time>2026-03-29T08:44:28.38Z</time></trkpt><trkpt lat="40.3332887" lon="9.5988131"><ele>215.33333333333334</ele><time>2026-03-29T08:44:29.389Z</time></trkpt><trkpt lat="40.3334432" lon="9.598955"><ele>215.66666666666669</ele><time>2026-03-29T08:44:30.382Z</time></trkpt><trkpt lat="40.3336016" lon="9.5990932"><ele>216.0</ele><time>2026-03-29T08:44:31.38Z</time></trkpt><trkpt lat="40.3337575" lon="9.5992333"><ele>217.66666666666669</ele><time>2026-03-29T08:44:32.38Z</time></trkpt><trkpt lat="40.3339144" lon="9.5993715"><ele>219.33333333333334</ele><time>2026-03-29T08:44:33.378Z</time></trkpt><trkpt lat="40.3340634" lon="9.5995036"><ele>221.0</ele><time>2026-03-29T08:44:34.406Z</time></trkpt><trkpt lat="40.3342095" lon="9.5996293"><ele>221.0</ele><time>2026-03-29T08:44:35.379Z</time></trkpt><trkpt lat="40.3343528" lon="9.5997534"><ele>221.0</ele><time>2026-03-29T08:44:36.381Z</time></trkpt><trkpt lat="40.3344949" lon="9.5998767"><ele>221.0</ele><time>2026-03-29T08:44:37.381Z</time></trkpt><trkpt lat="40.3346378" lon="9.6000011"><ele>222.66666666666669</ele><time>2026-03-29T08:44:38.382Z</time></trkpt><trkpt lat="40.3347809" lon="9.6001242"><ele>224.33333333333331</ele><time>2026-03-29T08:44:39.377Z</time></trkpt><trkpt lat="40.3349258" lon="9.6002483"><ele>226.0</ele><time>2026-03-29T08:44:40.39Z</time></trkpt><trkpt lat="40.3350702" lon="9.6003736"><ele>226.0</ele><time>2026-03-29T08:44:41.38Z</time></trkpt><trkpt lat="40.33521" lon="9.6005035"><ele>226.0</ele><time>2026-03-29T08:44:42.382Z</time></trkpt><trkpt lat="40.3353428" lon="9.6006293"><ele>226.0</ele><time>2026-03-29T08:44:43.382Z</time></trkpt><trkpt lat="40.3354607" lon="9.6008009"><ele>226.0</ele><time>2026-03-29T08:44:44.386Z</time></trkpt><trkpt lat="40.3355505" lon="9.6009838"><ele>226.0</ele><time>2026-03-29T08:44:45.392Z</time></trkpt><trkpt lat="40.3356142" lon="9.6011903"><ele>226.0</ele><time>2026-03-29T08:44:46.382Z</time></trkpt><trkpt lat="40.3356621" lon="9.601417"><ele>227.0</ele><time>2026-03-29T08:44:47.382Z</time></trkpt><trkpt lat="40.3357014" lon="9.6016435"><ele>228.0</ele><time>2026-03-29T08:44:48.375Z</time></trkpt><trkpt lat="40.3357439" lon="9.6018883"><ele>229.0</ele><time>2026-03-29T08:44:49.379Z</time></trkpt><trkpt lat="40.3357894" lon="9.6021308"><ele>229.0</ele><time>2026-03-29T08:44:50.378Z</time></trkpt><trkpt lat="40.3358374" lon="9.6023824"><ele>229.0</ele><time>2026-03-29T08:44:51.382Z</time></trkpt><trkpt lat="40.3358879" lon="9.6026358"><ele>229.0</ele><time>2026-03-29T08:44:52.374Z</time></trkpt><trkpt lat="40.3359362" lon="9.602891"><ele>229.33333333333331</ele><time>2026-03-29T08:44:53.381Z</time></trkpt><trkpt lat="40.3359836" lon="9.6031488"><ele>229.66666666666669</ele><time>2026-03-29T08:44:54.382Z</time></trkpt><trkpt lat="40.3360222" lon="9.6034071"><ele>230.0</ele><time>2026-03-29T08:44:55.378Z</time></trkpt><trkpt lat="40.3360439" lon="9.6036698"><ele>230.33333333333334</ele><time>2026-03-29T08:44:56.376Z</time></trkpt><trkpt lat="40.3360543" lon="9.6039339"><ele>230.66666666666669</ele><time>2026-03-29T08:44:57.385Z</time></trkpt><trkpt lat="40.3360538" lon="9.6041996"><ele>231.0</ele><time>2026-03-29T08:44:58.387Z</time></trkpt><trkpt lat="40.3360478" lon="9.6044659"><ele>231.33333333333331</ele><time>2026-03-29T08:44:59.381Z</time></trkpt><trkpt lat="40.3360414" lon="9.6047334"><ele>231.66666666666666</ele><time>2026-03-29T08:45:00.382Z</time></trkpt><trkpt lat="40.336036" lon="9.605"><ele>232.0</ele><time>2026-03-29T08:45:01.383Z</time></trkpt><trkpt lat="40.3360277" lon="9.6052643"><ele>232.33333333333331</ele><time>2026-03-29T08:45:02.399Z</time></trkpt><trkpt lat="40.33602" lon="9.6055266"><ele>232.66666666666669</ele><time>2026-03-29T08:45:03.386Z</time></trkpt><trkpt lat="40.3360134" lon="9.6057718"><ele>233.0</ele><time>2026-03-29T08:45:04.383Z</time></trkpt><trkpt lat="40.3360082" lon="9.6060011"><ele>233.33333333333334</ele><time>2026-03-29T08:45:05.383Z</time></trkpt><trkpt lat="40.3360075" lon="9.6062232"><ele>233.66666666666669</ele><time>2026-03-29T08:45:06.379Z</time></trkpt><trkpt lat="40.336022" lon="9.6064443"><ele>234.0</ele><time>2026-03-29T08:45:07.378Z</time></trkpt><trkpt lat="40.336059" lon="9.6066564"><ele>234.0</ele><time>2026-03-29T08:45:08.4Z</time></trkpt><trkpt lat="40.3361246" lon="9.6068602"><ele>234.0</ele><time>2026-03-29T08:45:09.378Z</time></trkpt><trkpt lat="40.3362111" lon="9.6070573"><ele>234.0</ele><time>2026-03-29T08:45:10.378Z</time></trkpt><trkpt lat="40.3363075" lon="9.6072506"><ele>234.33333333333331</ele><time>2026-03-29T08:45:11.376Z</time></trkpt><trkpt lat="40.3364188" lon="9.6074452"><ele>234.66666666666666</ele><time>2026-03-29T08:45:12.38Z</time></trkpt><trkpt lat="40.3365268" lon="9.6076437"><ele>235.0</ele><time>2026-03-29T08:45:13.381Z</time></trkpt><trkpt lat="40.3366375" lon="9.6078431"><ele>235.0</ele><time>2026-03-29T08:45:14.381Z</time></trkpt><trkpt lat="40.336749" lon="9.6080361"><ele>235.0</ele><time>2026-03-29T08:45:15.384Z</time></trkpt><trkpt lat="40.3368558" lon="9.6082289"><ele>235.0</ele><time>2026-03-29T08:45:16.379Z</time></trkpt><trkpt lat="40.336964" lon="9.6084222"><ele>235.0</ele><time>2026-03-29T08:45:17.382Z</time></trkpt><trkpt lat="40.3370732" lon="9.6086159"><ele>235.0</ele><time>2026-03-29T08:45:18.376Z</time></trkpt><trkpt lat="40.3371844" lon="9.608811"><ele>235.0</ele><time>2026-03-29T08:45:19.378Z</time></trkpt><trkpt lat="40.3372968" lon="9.6090084"><ele>234.33333333333331</ele><time>2026-03-29T08:45:20.378Z</time></trkpt><trkpt lat="40.3374073" lon="9.6092041"><ele>233.66666666666669</ele><time>2026-03-29T08:45:21.38Z</time></trkpt><trkpt lat="40.3375165" lon="9.6094011"><ele>233.0</ele><time>2026-03-29T08:45:22.378Z</time></trkpt><trkpt lat="40.3376291" lon="9.6095975"><ele>233.0</ele><time>2026-03-29T08:45:23.397Z</time></trkpt><trkpt lat="40.3377399" lon="9.6097929"><ele>233.0</ele><time>2026-03-29T08:45:24.379Z</time></trkpt><trkpt lat="40.3378522" lon="9.6099857"><ele>233.0</ele><time>2026-03-29T08:45:25.381Z</time></trkpt><trkpt lat="40.3379736" lon="9.61017"><ele>235.33333333333334</ele><time>2026-03-29T08:45:26.381Z</time></trkpt><trkpt lat="40.3381074" lon="9.6103356"><ele>237.66666666666669</ele><time>2026-03-29T08:45:27.38Z</time></trkpt><trkpt lat="40.3382537" lon="9.6104854"><ele>240.0</ele><time>2026-03-29T08:45:28.374Z</time></trkpt><trkpt lat="40.3384058" lon="9.6106197"><ele>240.0</ele><time>2026-03-29T08:45:29.381Z</time></trkpt><trkpt lat="40.3385593" lon="9.6107399"><ele>240.0</ele><time>2026-03-29T08:45:30.381Z</time></trkpt><trkpt lat="40.3387048" lon="9.6108486"><ele>240.0</ele><time>2026-03-29T08:45:31.394Z</time></trkpt><trkpt lat="40.3388443" lon="9.6109498"><ele>240.5</ele><time>2026-03-29T08:45:32.381Z</time></trkpt><trkpt lat="40.3389606" lon="9.6110602"><ele>241.0</ele><time>2026-03-29T08:45:33.382Z</time></trkpt><trkpt lat="40.3390558" lon="9.6111852"><ele>241.5</ele><time>2026-03-29T08:45:34.382Z</time></trkpt><trkpt lat="40.3390955" lon="9.6113456"><ele>242.0</ele><time>2026-03-29T08:45:35.378Z</time></trkpt><trkpt lat="40.3390959" lon="9.6115256"><ele>242.0</ele><time>2026-03-29T08:45:36.384Z</time></trkpt><trkpt lat="40.3390663" lon="9.6117018"><ele>242.0</ele><time>2026-03-29T08:45:37.383Z</time></trkpt><trkpt lat="40.3390257" lon="9.6118962"><ele>242.0</ele><time>2026-03-29T08:45:38.388Z</time></trkpt><trkpt lat="40.338984" lon="9.6120985"><ele>242.0</ele><time>2026-03-29T08:45:39.382Z</time></trkpt><trkpt lat="40.3389291" lon="9.612309"><ele>242.0</ele><time>2026-03-29T08:45:40.381Z</time></trkpt><trkpt lat="40.3388828" lon="9.6125244"><ele>242.0</ele><time>2026-03-29T08:45:41.379Z</time></trkpt><trkpt lat="40.3388353" lon="9.6127528"><ele>242.33333333333334</ele><time>2026-03-29T08:45:42.384Z</time></trkpt><trkpt lat="40.3387856" lon="9.6129938"><ele>242.66666666666669</ele><time>2026-03-29T08:45:43.376Z</time></trkpt><trkpt lat="40.3387353" lon="9.6132393"><ele>243.0</ele><time>2026-03-29T08:45:44.386Z</time></trkpt><trkpt lat="40.3386838" lon="9.6134914"><ele>242.66666666666669</ele><time>2026-03-29T08:45:45.378Z</time></trkpt><trkpt lat="40.3386296" lon="9.6137453"><ele>242.33333333333334</ele><time>2026-03-29T08:45:46.38Z</time></trkpt><trkpt lat="40.3385849" lon="9.613996"><ele>242.0</ele><time>2026-03-29T08:45:47.379Z</time></trkpt><trkpt lat="40.338532" lon="9.6142459"><ele>243.66666666666669</ele><time>2026-03-29T08:45:48.383Z</time></trkpt><trkpt lat="40.3384807" lon="9.6144952"><ele>245.33333333333331</ele><time>2026-03-29T08:45:49.378Z</time></trkpt><trkpt lat="40.3384302" lon="9.6147491"><ele>247.0</ele><time>2026-03-29T08:45:50.409Z</time></trkpt><trkpt lat="40.3383792" lon="9.6149999"><ele>247.0</ele><time>2026-03-29T08:45:51.382Z</time></trkpt><trkpt lat="40.3383286" lon="9.6152488"><ele>247.0</ele><time>2026-03-29T08:45:52.381Z</time></trkpt><trkpt lat="40.3382844" lon="9.6154961"><ele>247.0</ele><time>2026-03-29T08:45:53.38Z</time></trkpt><trkpt lat="40.3382374" lon="9.6157386"><ele>248.33333333333331</ele><time>2026-03-29T08:45:54.383Z</time></trkpt><trkpt lat="40.3381886" lon="9.6159739"><ele>249.66666666666669</ele><time>2026-03-29T08:45:55.404Z</time></trkpt><trkpt lat="40.3381416" lon="9.6162031"><ele>251.0</ele><time>2026-03-29T08:45:56.387Z</time></trkpt><trkpt lat="40.3380942" lon="9.616431"><ele>249.66666666666669</ele><time>2026-03-29T08:45:57.378Z</time></trkpt><trkpt lat="40.3380473" lon="9.6166583"><ele>248.33333333333331</ele><time>2026-03-29T08:45:58.38Z</time></trkpt><trkpt lat="40.3380024" lon="9.6168836"><ele>247.0</ele><time>2026-03-29T08:45:59.378Z</time></trkpt><trkpt lat="40.3379564" lon="9.6171121"><ele>247.0</ele><time>2026-03-29T08:46:00.38Z</time></trkpt><trkpt lat="40.3379092" lon="9.6173435"><ele>247.0</ele><time>2026-03-29T08:46:01.382Z</time></trkpt><trkpt lat="40.3378636" lon="9.6175742"><ele>247.0</ele><time>2026-03-29T08:46:02.382Z</time></trkpt><trkpt lat="40.3378163" lon="9.6178037"><ele>248.0</ele><time>2026-03-29T08:46:03.393Z</time></trkpt><trkpt lat="40.3377695" lon="9.6180379"><ele>249.0</ele><time>2026-03-29T08:46:04.387Z</time></trkpt><trkpt lat="40.3377213" lon="9.6182709"><ele>250.0</ele><time>2026-03-29T08:46:05.378Z</time></trkpt><trkpt lat="40.3376744" lon="9.6185024"><ele>250.66666666666666</ele><time>2026-03-29T08:46:06.379Z</time></trkpt><trkpt lat="40.3376285" lon="9.61873"><ele>251.33333333333331</ele><time>2026-03-29T08:46:07.387Z</time></trkpt><trkpt lat="40.3375831" lon="9.6189476"><ele>252.0</ele><time>2026-03-29T08:46:08.381Z</time></trkpt><trkpt lat="40.3375444" lon="9.6191828"><ele>252.0</ele><time>2026-03-29T08:46:09.383Z</time></trkpt><trkpt lat="40.3375261" lon="9.6194169"><ele>252.0</ele><time>2026-03-29T08:46:10.395Z</time></trkpt><trkpt lat="40.3375288" lon="9.6196554"><ele>252.0</ele><time>2026-03-29T08:46:11.382Z</time></trkpt><trkpt lat="40.3375546" lon="9.6198943"><ele>252.0</ele><time>2026-03-29T08:46:12.381Z</time></trkpt><trkpt lat="40.3375933" lon="9.6201367"><ele>252.0</ele><time>2026-03-29T08:46:13.386Z</time></trkpt><trkpt lat="40.3376405" lon="9.6203845"><ele>252.0</ele><time>2026-03-29T08:46:14.382Z</time></trkpt><trkpt lat="40.3376878" lon="9.6206362"><ele>252.0</ele><time>2026-03-29T08:46:15.413Z</time></trkpt><trkpt lat="40.337734" lon="9.6208828"><ele>252.0</ele><time>2026-03-29T08:46:16.377Z</time></trkpt><trkpt lat="40.3377815" lon="9.621117"><ele>252.0</ele><time>2026-03-29T08:46:17.382Z</time></trkpt><trkpt lat="40.3378265" lon="9.6213383"><ele>251.0</ele><time>2026-03-29T08:46:18.38Z</time></trkpt><trkpt lat="40.3378699" lon="9.62155"><ele>250.0</ele><time>2026-03-29T08:46:19.381Z</time></trkpt><trkpt lat="40.3379159" lon="9.6217422"><ele>249.0</ele><time>2026-03-29T08:46:20.379Z</time></trkpt><trkpt lat="40.33798" lon="9.6219129"><ele>249.5</ele><time>2026-03-29T08:46:21.394Z</time></trkpt><trkpt lat="40.3380666" lon="9.6220484"><ele>250.0</ele><time>2026-03-29T08:46:22.378Z</time></trkpt><trkpt lat="40.3381745" lon="9.6221504"><ele>250.5</ele><time>2026-03-29T08:46:23.379Z</time></trkpt><trkpt lat="40.3382974" lon="9.6222174"><ele>251.0</ele><time>2026-03-29T08:46:24.386Z</time></trkpt><trkpt lat="40.3384264" lon="9.6222697"><ele>251.0</ele><time>2026-03-29T08:46:25.378Z</time></trkpt><trkpt lat="40.3385475" lon="9.6223389"><ele>251.0</ele><time>2026-03-29T08:46:26.412Z</time></trkpt><trkpt lat="40.3386453" lon="9.6224453"><ele>251.0</ele><time>2026-03-29T08:46:27.38Z</time></trkpt><trkpt lat="40.3387167" lon="9.6225459"><ele>251.0</ele><time>2026-03-29T08:46:28.382Z</time></trkpt><trkpt lat="40.3387492" lon="9.6227156"><ele>249.0</ele><time>2026-03-29T08:46:29.383Z</time></trkpt><trkpt lat="40.3387391" lon="9.6229088"><ele>247.0</ele><time>2026-03-29T08:46:30.378Z</time></trkpt><trkpt lat="40.3387269" lon="9.6231133"><ele>245.0</ele><time>2026-03-29T08:46:31.382Z</time></trkpt><trkpt lat="40.3387201" lon="9.6233322"><ele>245.0</ele><time>2026-03-29T08:46:32.379Z</time></trkpt><trkpt lat="40.3387617" lon="9.6235514"><ele>245.0</ele><time>2026-03-29T08:46:33.397Z</time></trkpt><trkpt lat="40.3388254" lon="9.623777"><ele>245.0</ele><time>2026-03-29T08:46:34.378Z</time></trkpt><trkpt lat="40.338897" lon="9.624009"><ele>246.66666666666669</ele><time>2026-03-29T08:46:35.378Z</time></trkpt><trkpt lat="40.3389897" lon="9.6242318"><ele>248.33333333333331</ele><time>2026-03-29T08:46:36.379Z</time></trkpt><trkpt lat="40.3390908" lon="9.6244673"><ele>250.0</ele><time>2026-03-29T08:46:37.384Z</time></trkpt><trkpt lat="40.3391965" lon="9.6246998"><ele>250.0</ele><time>2026-03-29T08:46:38.378Z</time></trkpt><trkpt lat="40.3393136" lon="9.6249233"><ele>250.0</ele><time>2026-03-29T08:46:39.401Z</time></trkpt><trkpt lat="40.3394348" lon="9.6251514"><ele>250.0</ele><time>2026-03-29T08:46:40.378Z</time></trkpt><trkpt lat="40.3395667" lon="9.625374"><ele>250.66666666666666</ele><time>2026-03-29T08:46:41.379Z</time></trkpt><trkpt lat="40.3396979" lon="9.6255857"><ele>251.33333333333331</ele><time>2026-03-29T08:46:42.38Z</time></trkpt><trkpt lat="40.3398322" lon="9.6257886"><ele>252.0</ele><time>2026-03-29T08:46:43.377Z</time></trkpt><trkpt lat="40.3399629" lon="9.6259575"><ele>252.0</ele><time>2026-03-29T08:46:44.388Z</time></trkpt><trkpt lat="40.3401176" lon="9.6261036"><ele>252.0</ele><time>2026-03-29T08:46:45.381Z</time></trkpt><trkpt lat="40.3402821" lon="9.6262223"><ele>252.0</ele><time>2026-03-29T08:46:46.379Z</time></trkpt><trkpt lat="40.3404382" lon="9.6263177"><ele>251.0</ele><time>2026-03-29T08:46:47.384Z</time></trkpt><trkpt lat="40.3405705" lon="9.6264204"><ele>250.0</ele><time>2026-03-29T08:46:48.378Z</time></trkpt><trkpt lat="40.3406748" lon="9.6265546"><ele>249.0</ele><time>2026-03-29T08:46:49.394Z</time></trkpt><trkpt lat="40.3407588" lon="9.6266868"><ele>248.0</ele><time>2026-03-29T08:46:50.376Z</time></trkpt><trkpt lat="40.3407823" lon="9.626869"><ele>247.33333333333334</ele><time>2026-03-29T08:46:51.381Z</time></trkpt><trkpt lat="40.3407687" lon="9.6270724"><ele>246.66666666666669</ele><time>2026-03-29T08:46:52.378Z</time></trkpt><trkpt lat="40.3407475" lon="9.6272818"><ele>246.0</ele><time>2026-03-29T08:46:53.378Z</time></trkpt><trkpt lat="40.340733" lon="9.6274875"><ele>246.0</ele><time>2026-03-29T08:46:54.396Z</time></trkpt><trkpt lat="40.3408009" lon="9.6276972"><ele>246.0</ele><time>2026-03-29T08:46:55.375Z</time></trkpt><trkpt lat="40.3408965" lon="9.6278858"><ele>246.0</ele><time>2026-03-29T08:46:56.375Z</time></trkpt><trkpt lat="40.3410036" lon="9.6280903"><ele>244.33333333333331</ele><time>2026-03-29T08:46:57.373Z</time></trkpt><trkpt lat="40.3411107" lon="9.6282913"><ele>242.66666666666666</ele><time>2026-03-29T08:46:58.385Z</time></trkpt><trkpt lat="40.3411945" lon="9.6285041"><ele>241.0</ele><time>2026-03-29T08:46:59.38Z</time></trkpt><trkpt lat="40.3412724" lon="9.6287232"><ele>242.33333333333331</ele><time>2026-03-29T08:47:00.379Z</time></trkpt><trkpt lat="40.3413153" lon="9.6289578"><ele>243.66666666666669</ele><time>2026-03-29T08:47:01.376Z</time></trkpt><trkpt lat="40.3413603" lon="9.6291933"><ele>245.0</ele><time>2026-03-29T08:47:02.377Z</time></trkpt><trkpt lat="40.3414034" lon="9.6294311"><ele>244.33333333333334</ele><time>2026-03-29T08:47:03.381Z</time></trkpt><trkpt lat="40.3414507" lon="9.6296646"><ele>243.66666666666669</ele><time>2026-03-29T08:47:04.391Z</time></trkpt><trkpt lat="40.3414945" lon="9.6298817"><ele>243.0</ele><time>2026-03-29T08:47:05.379Z</time></trkpt><trkpt lat="40.3415333" lon="9.6300776"><ele>243.0</ele><time>2026-03-29T08:47:06.391Z</time></trkpt><trkpt lat="40.3415828" lon="9.6302503"><ele>243.0</ele><time>2026-03-29T08:47:07.382Z</time></trkpt><trkpt lat="40.3416464" lon="9.630398"><ele>243.0</ele><time>2026-03-29T08:47:08.382Z</time></trkpt><trkpt lat="40.3417341" lon="9.630519"><ele>243.0</ele><time>2026-03-29T08:47:09.39Z</time></trkpt><trkpt lat="40.3418499" lon="9.6306059"><ele>241.5</ele><time>2026-03-29T08:47:10.384Z</time></trkpt><trkpt lat="40.3419849" lon="9.6306508"><ele>240.0</ele><time>2026-03-29T08:47:11.378Z</time></trkpt><trkpt lat="40.3421152" lon="9.6306594"><ele>238.5</ele><time>2026-03-29T08:47:12.382Z</time></trkpt><trkpt lat="40.3422346" lon="9.63066"><ele>237.0</ele><time>2026-03-29T08:47:13.379Z</time></trkpt><trkpt lat="40.3423414" lon="9.6306588"><ele>237.0</ele><time>2026-03-29T08:47:14.379Z</time></trkpt><trkpt lat="40.3424271" lon="9.6306642"><ele>237.0</ele><time>2026-03-29T08:47:15.385Z</time></trkpt><trkpt lat="40.3424921" lon="9.6306794"><ele>237.0</ele><time>2026-03-29T08:47:16.387Z</time></trkpt><trkpt lat="40.3425535" lon="9.6306982"><ele>237.0</ele><time>2026-03-29T08:47:17.379Z</time></trkpt><trkpt lat="40.3426473" lon="9.6307299"><ele>237.0</ele><time>2026-03-29T08:47:19.383Z</time></trkpt><trkpt lat="40.3427268" lon="9.6307616"><ele>237.0</ele><time>2026-03-29T08:47:21.383Z</time></trkpt><trkpt lat="40.3427962" lon="9.6308309"><ele>237.0</ele><time>2026-03-29T08:47:23.394Z</time></trkpt><trkpt lat="40.3428015" lon="9.6309935"><ele>237.0</ele><time>2026-03-29T08:47:25.377Z</time></trkpt><trkpt lat="40.3427822" lon="9.6311244"><ele>237.0</ele><time>2026-03-29T08:47:26.394Z</time></trkpt><trkpt lat="40.3427524" lon="9.6312922"><ele>237.0</ele><time>2026-03-29T08:47:27.379Z</time></trkpt><trkpt lat="40.342726" lon="9.6314714"><ele>235.0</ele><time>2026-03-29T08:47:28.38Z</time></trkpt><trkpt lat="40.3426916" lon="9.631634"><ele>233.0</ele><time>2026-03-29T08:47:29.378Z</time></trkpt><trkpt lat="40.3426395" lon="9.6317838"><ele>231.0</ele><time>2026-03-29T08:47:30.389Z</time></trkpt><trkpt lat="40.3425687" lon="9.631928"><ele>229.0</ele><time>2026-03-29T08:47:31.383Z</time></trkpt><trkpt lat="40.342492" lon="9.6320647"><ele>228.0</ele><time>2026-03-29T08:47:32.379Z</time></trkpt><trkpt lat="40.342413" lon="9.632196"><ele>227.0</ele><time>2026-03-29T08:47:33.385Z</time></trkpt><trkpt lat="40.3423281" lon="9.6323239"><ele>226.0</ele><time>2026-03-29T08:47:34.388Z</time></trkpt><trkpt lat="40.3422353" lon="9.6324415"><ele>225.0</ele><time>2026-03-29T08:47:35.378Z</time></trkpt><trkpt lat="40.3421397" lon="9.6325437"><ele>224.4</ele><time>2026-03-29T08:47:36.403Z</time></trkpt><trkpt lat="40.3420466" lon="9.632634"><ele>223.8</ele><time>2026-03-29T08:47:37.382Z</time></trkpt><trkpt lat="40.3419594" lon="9.632713"><ele>223.2</ele><time>2026-03-29T08:47:38.386Z</time></trkpt><trkpt lat="40.3418622" lon="9.6327765"><ele>222.6</ele><time>2026-03-29T08:47:39.383Z</time></trkpt><trkpt lat="40.3417774" lon="9.6328297"><ele>222.0</ele><time>2026-03-29T08:47:40.382Z</time></trkpt><trkpt lat="40.3416788" lon="9.6328339"><ele>220.75</ele><time>2026-03-29T08:47:41.388Z</time></trkpt><trkpt lat="40.3415782" lon="9.6328405"><ele>219.5</ele><time>2026-03-29T08:47:42.39Z</time></trkpt><trkpt lat="40.3414718" lon="9.6328806"><ele>218.25</ele><time>2026-03-29T08:47:43.388Z</time></trkpt><trkpt lat="40.341367" lon="9.6329512"><ele>217.0</ele><time>2026-03-29T08:47:44.38Z</time></trkpt><trkpt lat="40.3412495" lon="9.6330257"><ele>216.75</ele><time>2026-03-29T08:47:45.38Z</time></trkpt><trkpt lat="40.3411167" lon="9.6330805"><ele>216.5</ele><time>2026-03-29T08:47:46.383Z</time></trkpt><trkpt lat="40.340984" lon="9.6331315"><ele>216.25</ele><time>2026-03-29T08:47:47.384Z</time></trkpt><trkpt lat="40.3408593" lon="9.6331671"><ele>216.0</ele><time>2026-03-29T08:47:48.394Z</time></trkpt><trkpt lat="40.3407363" lon="9.6331789"><ele>216.0</ele><time>2026-03-29T08:47:49.382Z</time></trkpt><trkpt lat="40.3406136" lon="9.6331654"><ele>216.0</ele><time>2026-03-29T08:47:50.389Z</time></trkpt><trkpt lat="40.3405005" lon="9.6331486"><ele>216.0</ele><time>2026-03-29T08:47:51.379Z</time></trkpt><trkpt lat="40.3403913" lon="9.6331409"><ele>216.0</ele><time>2026-03-29T08:47:52.395Z</time></trkpt><trkpt lat="40.3402866" lon="9.633143"><ele>215.20000000000002</ele><time>2026-03-29T08:47:53.381Z</time></trkpt><trkpt lat="40.340188" lon="9.6331541"><ele>214.40000000000003</ele><time>2026-03-29T08:47:54.386Z</time></trkpt><trkpt lat="40.3401013" lon="9.6332098"><ele>213.6</ele><time>2026-03-29T08:47:55.379Z</time></trkpt><trkpt lat="40.3400391" lon="9.6333065"><ele>212.8</ele><time>2026-03-29T08:47:56.383Z</time></trkpt><trkpt lat="40.3399979" lon="9.6334344"><ele>212.0</ele><time>2026-03-29T08:47:57.387Z</time></trkpt><trkpt lat="40.3399736" lon="9.6335799"><ele>211.0</ele><time>2026-03-29T08:47:58.379Z</time></trkpt><trkpt lat="40.3399767" lon="9.6337482"><ele>210.0</ele><time>2026-03-29T08:47:59.398Z</time></trkpt><trkpt lat="40.3399867" lon="9.6339255"><ele>209.0</ele><time>2026-03-29T08:48:00.382Z</time></trkpt><trkpt lat="40.3400064" lon="9.6340831"><ele>208.0</ele><time>2026-03-29T08:48:01.377Z</time></trkpt><trkpt lat="40.3400314" lon="9.6342555"><ele>208.0</ele><time>2026-03-29T08:48:02.377Z</time></trkpt><trkpt lat="40.3400465" lon="9.6344219"><ele>208.0</ele><time>2026-03-29T08:48:03.386Z</time></trkpt><trkpt lat="40.3400682" lon="9.6345725"><ele>208.0</ele><time>2026-03-29T08:48:04.379Z</time></trkpt><trkpt lat="40.3400818" lon="9.6347097"><ele>208.0</ele><time>2026-03-29T08:48:05.401Z</time></trkpt><trkpt lat="40.3400869" lon="9.6348393"><ele>208.0</ele><time>2026-03-29T08:48:06.38Z</time></trkpt><trkpt lat="40.3400619" lon="9.6349586"><ele>207.2</ele><time>2026-03-29T08:48:07.378Z</time></trkpt><trkpt lat="40.3400115" lon="9.6350784"><ele>206.4</ele><time>2026-03-29T08:48:08.385Z</time></trkpt><trkpt lat="40.3399452" lon="9.6352017"><ele>205.6</ele><time>2026-03-29T08:48:09.386Z</time></trkpt><trkpt lat="40.3398782" lon="9.6353255"><ele>204.79999999999998</ele><time>2026-03-29T08:48:10.384Z</time></trkpt><trkpt lat="40.3398116" lon="9.6354433"><ele>204.0</ele><time>2026-03-29T08:48:11.387Z</time></trkpt><trkpt lat="40.339745" lon="9.6355629"><ele>202.5</ele><time>2026-03-29T08:48:12.379Z</time></trkpt><trkpt lat="40.3396833" lon="9.6356877"><ele>201.0</ele><time>2026-03-29T08:48:13.382Z</time></trkpt><trkpt lat="40.3396249" lon="9.6358186"><ele>199.5</ele><time>2026-03-29T08:48:14.387Z</time></trkpt><trkpt lat="40.3395687" lon="9.635957"><ele>198.0</ele><time>2026-03-29T08:48:15.381Z</time></trkpt><trkpt lat="40.3395153" lon="9.6360986"><ele>197.75</ele><time>2026-03-29T08:48:16.4Z</time></trkpt><trkpt lat="40.3394598" lon="9.6362328"><ele>197.5</ele><time>2026-03-29T08:48:17.379Z</time></trkpt><trkpt lat="40.3393959" lon="9.636353"><ele>197.25</ele><time>2026-03-29T08:48:18.386Z</time></trkpt><trkpt lat="40.3393179" lon="9.6364649"><ele>197.0</ele><time>2026-03-29T08:48:19.385Z</time></trkpt><trkpt lat="40.3392376" lon="9.6365849"><ele>197.0</ele><time>2026-03-29T08:48:20.384Z</time></trkpt><trkpt lat="40.3391612" lon="9.6366958"><ele>197.0</ele><time>2026-03-29T08:48:21.399Z</time></trkpt><trkpt lat="40.339086" lon="9.6368458"><ele>197.0</ele><time>2026-03-29T08:48:22.385Z</time></trkpt><trkpt lat="40.3390066" lon="9.6369955"><ele>197.0</ele><time>2026-03-29T08:48:23.38Z</time></trkpt><trkpt lat="40.3389372" lon="9.6371545"><ele>194.33333333333334</ele><time>2026-03-29T08:48:24.383Z</time></trkpt><trkpt lat="40.3388713" lon="9.6373462"><ele>191.66666666666669</ele><time>2026-03-29T08:48:25.384Z</time></trkpt><trkpt lat="40.3388112" lon="9.6375267"><ele>189.0</ele><time>2026-03-29T08:48:26.406Z</time></trkpt><trkpt lat="40.338763" lon="9.6377094"><ele>188.25</ele><time>2026-03-29T08:48:27.384Z</time></trkpt><trkpt lat="40.3387209" lon="9.6378829"><ele>187.5</ele><time>2026-03-29T08:48:28.385Z</time></trkpt><trkpt lat="40.3386794" lon="9.6380582"><ele>186.75</ele><time>2026-03-29T08:48:29.385Z</time></trkpt><trkpt lat="40.3386271" lon="9.6382377"><ele>186.0</ele><time>2026-03-29T08:48:30.382Z</time></trkpt><trkpt lat="40.3385731" lon="9.6384017"><ele>186.0</ele><time>2026-03-29T08:48:31.384Z</time></trkpt><trkpt lat="40.3385056" lon="9.6385608"><ele>186.0</ele><time>2026-03-29T08:48:32.381Z</time></trkpt><trkpt lat="40.3384351" lon="9.6387146"><ele>186.0</ele><time>2026-03-29T08:48:33.404Z</time></trkpt><trkpt lat="40.3383637" lon="9.6388696"><ele>186.0</ele><time>2026-03-29T08:48:34.38Z</time></trkpt><trkpt lat="40.3382925" lon="9.6390301"><ele>185.0</ele><time>2026-03-29T08:48:35.388Z</time></trkpt><trkpt lat="40.338227" lon="9.6391942"><ele>184.0</ele><time>2026-03-29T08:48:36.381Z</time></trkpt><trkpt lat="40.3381681" lon="9.639365"><ele>183.0</ele><time>2026-03-29T08:48:37.384Z</time></trkpt><trkpt lat="40.3381171" lon="9.6395418"><ele>182.0</ele><time>2026-03-29T08:48:38.407Z</time></trkpt><trkpt lat="40.3380762" lon="9.6397285"><ele>181.0</ele><time>2026-03-29T08:48:39.381Z</time></trkpt><trkpt lat="40.338043" lon="9.6399214"><ele>180.0</ele><time>2026-03-29T08:48:40.382Z</time></trkpt><trkpt lat="40.3380159" lon="9.6401178"><ele>179.0</ele><time>2026-03-29T08:48:41.379Z</time></trkpt><trkpt lat="40.3379921" lon="9.6403147"><ele>178.0</ele><time>2026-03-29T08:48:42.384Z</time></trkpt><trkpt lat="40.3379712" lon="9.6405051"><ele>177.0</ele><time>2026-03-29T08:48:43.392Z</time></trkpt><trkpt lat="40.3379543" lon="9.6406853"><ele>176.0</ele><time>2026-03-29T08:48:44.385Z</time></trkpt><trkpt lat="40.3379411" lon="9.6408625"><ele>175.0</ele><time>2026-03-29T08:48:45.381Z</time></trkpt><trkpt lat="40.337932" lon="9.6410391"><ele>173.5</ele><time>2026-03-29T08:48:46.379Z</time></trkpt><trkpt lat="40.3379295" lon="9.6412221"><ele>172.0</ele><time>2026-03-29T08:48:47.38Z</time></trkpt><trkpt lat="40.3379312" lon="9.6414131"><ele>170.5</ele><time>2026-03-29T08:48:48.381Z</time></trkpt><trkpt lat="40.3379386" lon="9.6416071"><ele>169.0</ele><time>2026-03-29T08:48:49.381Z</time></trkpt><trkpt lat="40.3379484" lon="9.6417951"><ele>168.5</ele><time>2026-03-29T08:48:50.403Z</time></trkpt><trkpt lat="40.3379627" lon="9.6419715"><ele>168.0</ele><time>2026-03-29T08:48:51.379Z</time></trkpt><trkpt lat="40.3379815" lon="9.6421325"><ele>167.5</ele><time>2026-03-29T08:48:52.387Z</time></trkpt><trkpt lat="40.3380091" lon="9.6422699"><ele>167.0</ele><time>2026-03-29T08:48:53.381Z</time></trkpt><trkpt lat="40.3380544" lon="9.642389"><ele>167.0</ele><time>2026-03-29T08:48:54.385Z</time></trkpt><trkpt lat="40.3381252" lon="9.6424878"><ele>167.0</ele><time>2026-03-29T08:48:55.402Z</time></trkpt><trkpt lat="40.3382166" lon="9.642574"><ele>167.0</ele><time>2026-03-29T08:48:56.384Z</time></trkpt><trkpt lat="40.3383124" lon="9.6426472"><ele>167.0</ele><time>2026-03-29T08:48:57.393Z</time></trkpt><trkpt lat="40.338404" lon="9.6427161"><ele>167.0</ele><time>2026-03-29T08:48:58.386Z</time></trkpt><trkpt lat="40.3384847" lon="9.6427938"><ele>166.0</ele><time>2026-03-29T08:48:59.387Z</time></trkpt><trkpt lat="40.3385462" lon="9.6428889"><ele>165.0</ele><time>2026-03-29T08:49:00.384Z</time></trkpt><trkpt lat="40.3385792" lon="9.643008"><ele>164.0</ele><time>2026-03-29T08:49:01.387Z</time></trkpt><trkpt lat="40.3386058" lon="9.6431376"><ele>163.0</ele><time>2026-03-29T08:49:02.399Z</time></trkpt><trkpt lat="40.3386168" lon="9.6432889"><ele>162.0</ele><time>2026-03-29T08:49:03.386Z</time></trkpt><trkpt lat="40.3386253" lon="9.6434329"><ele>162.0</ele><time>2026-03-29T08:49:04.383Z</time></trkpt><trkpt lat="40.3386385" lon="9.6435717"><ele>162.0</ele><time>2026-03-29T08:49:05.385Z</time></trkpt><trkpt lat="40.3386535" lon="9.6436969"><ele>162.0</ele><time>2026-03-29T08:49:06.384Z</time></trkpt><trkpt lat="40.3386704" lon="9.6438094"><ele>162.0</ele><time>2026-03-29T08:49:07.388Z</time></trkpt><trkpt lat="40.3386841" lon="9.6439137"><ele>162.0</ele><time>2026-03-29T08:49:08.38Z</time></trkpt><trkpt lat="40.3386791" lon="9.6440172"><ele>161.0</ele><time>2026-03-29T08:49:09.382Z</time></trkpt><trkpt lat="40.3386676" lon="9.6441266"><ele>160.0</ele><time>2026-03-29T08:49:10.382Z</time></trkpt><trkpt lat="40.3386212" lon="9.6442426"><ele>159.0</ele><time>2026-03-29T08:49:11.382Z</time></trkpt><trkpt lat="40.3385726" lon="9.6443591"><ele>158.0</ele><time>2026-03-29T08:49:12.396Z</time></trkpt><trkpt lat="40.3385157" lon="9.6444764"><ele>157.0</ele><time>2026-03-29T08:49:13.386Z</time></trkpt><trkpt lat="40.3384541" lon="9.6445985"><ele>156.0</ele><time>2026-03-29T08:49:14.391Z</time></trkpt><trkpt lat="40.3383905" lon="9.6447215"><ele>155.0</ele><time>2026-03-29T08:49:15.39Z</time></trkpt><trkpt lat="40.3383293" lon="9.644841"><ele>154.0</ele><time>2026-03-29T08:49:16.395Z</time></trkpt><trkpt lat="40.3382605" lon="9.64495"><ele>153.0</ele><time>2026-03-29T08:49:17.38Z</time></trkpt><trkpt lat="40.3381784" lon="9.6450491"><ele>152.0</ele><time>2026-03-29T08:49:18.389Z</time></trkpt><trkpt lat="40.3380968" lon="9.6451401"><ele>152.4</ele><time>2026-03-29T08:49:19.386Z</time></trkpt><trkpt lat="40.3380241" lon="9.6452148"><ele>152.79999999999998</ele><time>2026-03-29T08:49:20.387Z</time></trkpt><trkpt lat="40.3379556" lon="9.6453158"><ele>153.2</ele><time>2026-03-29T08:49:21.388Z</time></trkpt><trkpt lat="40.3378789" lon="9.6454116"><ele>153.6</ele><time>2026-03-29T08:49:22.39Z</time></trkpt><trkpt lat="40.3378057" lon="9.6455072"><ele>154.0</ele><time>2026-03-29T08:49:23.4Z</time></trkpt><trkpt lat="40.3377138" lon="9.6455694"><ele>152.6</ele><time>2026-03-29T08:49:24.382Z</time></trkpt><trkpt lat="40.3376028" lon="9.6456248"><ele>151.2</ele><time>2026-03-29T08:49:25.386Z</time></trkpt><trkpt lat="40.3375002" lon="9.6456849"><ele>149.79999999999998</ele><time>2026-03-29T08:49:26.385Z</time></trkpt><trkpt lat="40.3374064" lon="9.645755"><ele>148.4</ele><time>2026-03-29T08:49:27.388Z</time></trkpt><trkpt lat="40.3373369" lon="9.645827"><ele>147.0</ele><time>2026-03-29T08:49:28.386Z</time></trkpt><trkpt lat="40.3372947" lon="9.6458929"><ele>147.0</ele><time>2026-03-29T08:49:29.389Z</time></trkpt><trkpt lat="40.3372668" lon="9.6460517"><ele>147.0</ele><time>2026-03-29T08:49:31.382Z</time></trkpt><trkpt lat="40.3372582" lon="9.6461527"><ele>147.0</ele><time>2026-03-29T08:49:32.383Z</time></trkpt><trkpt lat="40.3372458" lon="9.6462727"><ele>147.0</ele><time>2026-03-29T08:49:33.378Z</time></trkpt><trkpt lat="40.3372314" lon="9.6463842"><ele>147.0</ele><time>2026-03-29T08:49:34.388Z</time></trkpt><trkpt lat="40.3372243" lon="9.6465009"><ele>147.33333333333334</ele><time>2026-03-29T08:49:35.379Z</time></trkpt><trkpt lat="40.3372367" lon="9.6466111"><ele>147.66666666666666</ele><time>2026-03-29T08:49:36.385Z</time></trkpt><trkpt lat="40.3372561" lon="9.6467295"><ele>148.0</ele><time>2026-03-29T08:49:37.378Z</time></trkpt><trkpt lat="40.3372822" lon="9.6468465"><ele>148.33333333333331</ele><time>2026-03-29T08:49:38.378Z</time></trkpt><trkpt lat="40.3373086" lon="9.6469569"><ele>148.66666666666666</ele><time>2026-03-29T08:49:39.406Z</time></trkpt><trkpt lat="40.3373299" lon="9.6470519"><ele>149.0</ele><time>2026-03-29T08:49:40.379Z</time></trkpt><trkpt lat="40.3373352" lon="9.6471367"><ele>149.0</ele><time>2026-03-29T08:49:41.388Z</time></trkpt><trkpt lat="40.3373279" lon="9.647226"><ele>149.0</ele><time>2026-03-29T08:49:42.378Z</time></trkpt><trkpt lat="40.3372996" lon="9.6473175"><ele>149.0</ele><time>2026-03-29T08:49:43.388Z</time></trkpt><trkpt lat="40.337252" lon="9.6474162"><ele>149.0</ele><time>2026-03-29T08:49:44.382Z</time></trkpt><trkpt lat="40.3371966" lon="9.6475267"><ele>149.0</ele><time>2026-03-29T08:49:45.383Z</time></trkpt><trkpt lat="40.3371374" lon="9.6476387"><ele>149.0</ele><time>2026-03-29T08:49:46.386Z</time></trkpt><trkpt lat="40.3370796" lon="9.6477482"><ele>147.8</ele><time>2026-03-29T08:49:47.388Z</time></trkpt><trkpt lat="40.3370152" lon="9.6478546"><ele>146.60000000000002</ele><time>2026-03-29T08:49:48.374Z</time></trkpt><trkpt lat="40.3369489" lon="9.6479662"><ele>145.4</ele><time>2026-03-29T08:49:49.385Z</time></trkpt><trkpt lat="40.3368824" lon="9.6480839"><ele>144.20000000000002</ele><time>2026-03-29T08:49:50.382Z</time></trkpt><trkpt lat="40.3368183" lon="9.648205"><ele>143.0</ele><time>2026-03-29T08:49:51.388Z</time></trkpt><trkpt lat="40.3367595" lon="9.6483309"><ele>143.0</ele><time>2026-03-29T08:49:52.383Z</time></trkpt><trkpt lat="40.3367063" lon="9.648455"><ele>143.0</ele><time>2026-03-29T08:49:53.402Z</time></trkpt><trkpt lat="40.3366566" lon="9.6485757"><ele>143.0</ele><time>2026-03-29T08:49:54.387Z</time></trkpt><trkpt lat="40.3366115" lon="9.6487027"><ele>143.0</ele><time>2026-03-29T08:49:55.39Z</time></trkpt><trkpt lat="40.3365692" lon="9.6488386"><ele>143.0</ele><time>2026-03-29T08:49:56.384Z</time></trkpt><trkpt lat="40.336533" lon="9.6489784"><ele>142.6</ele><time>2026-03-29T08:49:57.389Z</time></trkpt><trkpt lat="40.336503" lon="9.6491155"><ele>142.20000000000002</ele><time>2026-03-29T08:49:58.38Z</time></trkpt><trkpt lat="40.3364763" lon="9.6492488"><ele>141.8</ele><time>2026-03-29T08:49:59.4Z</time></trkpt><trkpt lat="40.3364478" lon="9.6493784"><ele>141.4</ele><time>2026-03-29T08:50:00.388Z</time></trkpt><trkpt lat="40.3364098" lon="9.6495002"><ele>141.0</ele><time>2026-03-29T08:50:01.384Z</time></trkpt><trkpt lat="40.3363571" lon="9.6496032"><ele>139.8</ele><time>2026-03-29T08:50:02.382Z</time></trkpt><trkpt lat="40.3363012" lon="9.6496991"><ele>138.6</ele><time>2026-03-29T08:50:03.394Z</time></trkpt><trkpt lat="40.3362168" lon="9.6497679"><ele>137.4</ele><time>2026-03-29T08:50:04.39Z</time></trkpt><trkpt lat="40.3361306" lon="9.649846"><ele>136.2</ele><time>2026-03-29T08:50:05.391Z</time></trkpt><trkpt lat="40.3360426" lon="9.6499335"><ele>135.0</ele><time>2026-03-29T08:50:06.383Z</time></trkpt><trkpt lat="40.3359645" lon="9.6500447"><ele>135.0</ele><time>2026-03-29T08:50:07.393Z</time></trkpt><trkpt lat="40.3358958" lon="9.6501687"><ele>135.0</ele><time>2026-03-29T08:50:08.385Z</time></trkpt><trkpt lat="40.3358377" lon="9.6502906"><ele>135.0</ele><time>2026-03-29T08:50:09.384Z</time></trkpt><trkpt lat="40.3357949" lon="9.6504078"><ele>135.0</ele><time>2026-03-29T08:50:10.384Z</time></trkpt><trkpt lat="40.3357653" lon="9.6505288"><ele>135.0</ele><time>2026-03-29T08:50:11.386Z</time></trkpt><trkpt lat="40.3357566" lon="9.6506648"><ele>134.5</ele><time>2026-03-29T08:50:12.384Z</time></trkpt><trkpt lat="40.3357472" lon="9.650809"><ele>134.0</ele><time>2026-03-29T08:50:13.389Z</time></trkpt><trkpt lat="40.3357343" lon="9.6509549"><ele>133.5</ele><time>2026-03-29T08:50:14.392Z</time></trkpt><trkpt lat="40.335717" lon="9.6511011"><ele>133.0</ele><time>2026-03-29T08:50:15.39Z</time></trkpt><trkpt lat="40.3356917" lon="9.6512507"><ele>132.25</ele><time>2026-03-29T08:50:16.412Z</time></trkpt><trkpt lat="40.3356664" lon="9.6514261"><ele>131.5</ele><time>2026-03-29T08:50:17.386Z</time></trkpt><trkpt lat="40.3356549" lon="9.651579"><ele>130.75</ele><time>2026-03-29T08:50:18.378Z</time></trkpt><trkpt lat="40.335643" lon="9.6517323"><ele>130.0</ele><time>2026-03-29T08:50:19.38Z</time></trkpt><trkpt lat="40.3356379" lon="9.6518782"><ele>130.0</ele><time>2026-03-29T08:50:20.385Z</time></trkpt><trkpt lat="40.3356284" lon="9.6520207"><ele>130.0</ele><time>2026-03-29T08:50:21.386Z</time></trkpt><trkpt lat="40.3356262" lon="9.6521618"><ele>130.0</ele><time>2026-03-29T08:50:22.402Z</time></trkpt><trkpt lat="40.3356318" lon="9.6523005"><ele>130.0</ele><time>2026-03-29T08:50:23.385Z</time></trkpt><trkpt lat="40.3356458" lon="9.6524423"><ele>130.0</ele><time>2026-03-29T08:50:24.385Z</time></trkpt><trkpt lat="40.335667" lon="9.6525773"><ele>130.0</ele><time>2026-03-29T08:50:25.389Z</time></trkpt><trkpt lat="40.3356927" lon="9.6526977"><ele>130.0</ele><time>2026-03-29T08:50:26.382Z</time></trkpt><trkpt lat="40.3357294" lon="9.6528033"><ele>130.0</ele><time>2026-03-29T08:50:27.396Z</time></trkpt><trkpt lat="40.335779" lon="9.6528839"><ele>130.0</ele><time>2026-03-29T08:50:28.382Z</time></trkpt><trkpt lat="40.3358427" lon="9.6529618"><ele>130.0</ele><time>2026-03-29T08:50:29.386Z</time></trkpt><trkpt lat="40.3359235" lon="9.6530118"><ele>130.0</ele><time>2026-03-29T08:50:30.387Z</time></trkpt><trkpt lat="40.3360169" lon="9.6530724"><ele>129.75</ele><time>2026-03-29T08:50:31.387Z</time></trkpt><trkpt lat="40.336095" lon="9.6531473"><ele>129.5</ele><time>2026-03-29T08:50:32.406Z</time></trkpt><trkpt lat="40.336189" lon="9.6532495"><ele>129.25</ele><time>2026-03-29T08:50:33.39Z</time></trkpt><trkpt lat="40.3362836" lon="9.6533408"><ele>129.0</ele><time>2026-03-29T08:50:34.383Z</time></trkpt><trkpt lat="40.3363735" lon="9.6534369"><ele>128.75</ele><time>2026-03-29T08:50:35.393Z</time></trkpt><trkpt lat="40.3364627" lon="9.6535281"><ele>128.5</ele><time>2026-03-29T08:50:36.389Z</time></trkpt><trkpt lat="40.3365498" lon="9.6536216"><ele>128.25</ele><time>2026-03-29T08:50:37.403Z</time></trkpt><trkpt lat="40.3366466" lon="9.6537141"><ele>128.0</ele><time>2026-03-29T08:50:38.382Z</time></trkpt><trkpt lat="40.3367366" lon="9.6538047"><ele>127.99999999999999</ele><time>2026-03-29T08:50:39.388Z</time></trkpt><trkpt lat="40.3368259" lon="9.6538979"><ele>128.0</ele><time>2026-03-29T08:50:40.382Z</time></trkpt><trkpt lat="40.3369036" lon="9.653985"><ele>128.0</ele><time>2026-03-29T08:50:41.387Z</time></trkpt><trkpt lat="40.3369593" lon="9.6540662"><ele>128.0</ele><time>2026-03-29T08:50:42.386Z</time></trkpt><trkpt lat="40.3369931" lon="9.654145"><ele>127.99999999999999</ele><time>2026-03-29T08:50:43.388Z</time></trkpt><trkpt lat="40.3370091" lon="9.6542277"><ele>128.0</ele><time>2026-03-29T08:50:44.389Z</time></trkpt><trkpt lat="40.3370075" lon="9.6543126"><ele>127.33333333333333</ele><time>2026-03-29T08:50:45.402Z</time></trkpt><trkpt lat="40.3370274" lon="9.654458"><ele>126.66666666666666</ele><time>2026-03-29T08:50:47.386Z</time></trkpt><trkpt lat="40.3370715" lon="9.6545238"><ele>126.0</ele><time>2026-03-29T08:50:48.381Z</time></trkpt><trkpt lat="40.3371364" lon="9.6545865"><ele>125.33333333333334</ele><time>2026-03-29T08:50:49.383Z</time></trkpt><trkpt lat="40.337213" lon="9.6546488"><ele>124.66666666666667</ele><time>2026-03-29T08:50:50.381Z</time></trkpt><trkpt lat="40.3372805" lon="9.6547126"><ele>124.0</ele><time>2026-03-29T08:50:51.384Z</time></trkpt><trkpt lat="40.3373323" lon="9.6547858"><ele>124.00000000000001</ele><time>2026-03-29T08:50:52.382Z</time></trkpt><trkpt lat="40.3373757" lon="9.6548733"><ele>124.0</ele><time>2026-03-29T08:50:53.394Z</time></trkpt><trkpt lat="40.3374158" lon="9.6549552"><ele>124.0</ele><time>2026-03-29T08:50:54.378Z</time></trkpt><trkpt lat="40.3374406" lon="9.6550416"><ele>124.0</ele><time>2026-03-29T08:50:55.385Z</time></trkpt><trkpt lat="40.3374456" lon="9.6551377"><ele>124.00000000000001</ele><time>2026-03-29T08:50:56.38Z</time></trkpt><trkpt lat="40.3374229" lon="9.6552565"><ele>124.0</ele><time>2026-03-29T08:50:57.382Z</time></trkpt><trkpt lat="40.337382" lon="9.655398"><ele>123.0</ele><time>2026-03-29T08:50:58.381Z</time></trkpt><trkpt lat="40.3373286" lon="9.6555577"><ele>122.0</ele><time>2026-03-29T08:50:59.381Z</time></trkpt><trkpt lat="40.3372725" lon="9.6557233"><ele>121.0</ele><time>2026-03-29T08:51:00.394Z</time></trkpt><trkpt lat="40.3372198" lon="9.6558917"><ele>120.0</ele><time>2026-03-29T08:51:01.383Z</time></trkpt><trkpt lat="40.3371696" lon="9.6560499"><ele>118.6</ele><time>2026-03-29T08:51:02.389Z</time></trkpt><trkpt lat="40.3371271" lon="9.6561955"><ele>117.2</ele><time>2026-03-29T08:51:03.386Z</time></trkpt><trkpt lat="40.3370904" lon="9.6563316"><ele>115.80000000000001</ele><time>2026-03-29T08:51:04.384Z</time></trkpt><trkpt lat="40.3370571" lon="9.6564558"><ele>114.4</ele><time>2026-03-29T08:51:05.381Z</time></trkpt><trkpt lat="40.3370256" lon="9.6565795"><ele>113.0</ele><time>2026-03-29T08:51:06.379Z</time></trkpt><trkpt lat="40.3370068" lon="9.6566984"><ele>113.0</ele><time>2026-03-29T08:51:07.381Z</time></trkpt><trkpt lat="40.3369932" lon="9.6568155"><ele>113.00000000000001</ele><time>2026-03-29T08:51:08.383Z</time></trkpt><trkpt lat="40.337016" lon="9.6569356"><ele>113.00000000000001</ele><time>2026-03-29T08:51:09.387Z</time></trkpt><trkpt lat="40.3370561" lon="9.6570664"><ele>113.0</ele><time>2026-03-29T08:51:10.379Z</time></trkpt><trkpt lat="40.3371058" lon="9.6572185"><ele>113.0</ele><time>2026-03-29T08:51:11.395Z</time></trkpt><trkpt lat="40.3371583" lon="9.6573803"><ele>113.0</ele><time>2026-03-29T08:51:12.382Z</time></trkpt><trkpt lat="40.3372164" lon="9.6575461"><ele>113.0</ele><time>2026-03-29T08:51:13.391Z</time></trkpt><trkpt lat="40.3372731" lon="9.6577096"><ele>113.0</ele><time>2026-03-29T08:51:14.388Z</time></trkpt><trkpt lat="40.3373293" lon="9.657867"><ele>113.0</ele><time>2026-03-29T08:51:15.384Z</time></trkpt><trkpt lat="40.3373814" lon="9.6580192"><ele>112.0</ele><time>2026-03-29T08:51:16.387Z</time></trkpt><trkpt lat="40.3374323" lon="9.6581707"><ele>111.0</ele><time>2026-03-29T08:51:17.384Z</time></trkpt><trkpt lat="40.3374797" lon="9.6583126"><ele>110.0</ele><time>2026-03-29T08:51:18.396Z</time></trkpt><trkpt lat="40.3375275" lon="9.6584465"><ele>109.0</ele><time>2026-03-29T08:51:19.383Z</time></trkpt><trkpt lat="40.3375691" lon="9.6585724"><ele>108.80000000000001</ele><time>2026-03-29T08:51:20.388Z</time></trkpt><trkpt lat="40.3376044" lon="9.6586853"><ele>108.60000000000001</ele><time>2026-03-29T08:51:21.381Z</time></trkpt><trkpt lat="40.3376413" lon="9.6588018"><ele>108.4</ele><time>2026-03-29T08:51:22.387Z</time></trkpt><trkpt lat="40.3376671" lon="9.6589277"><ele>108.2</ele><time>2026-03-29T08:51:23.383Z</time></trkpt><trkpt lat="40.3376919" lon="9.6590587"><ele>108.0</ele><time>2026-03-29T08:51:24.38Z</time></trkpt><trkpt lat="40.3377019" lon="9.6592276"><ele>108.0</ele><time>2026-03-29T08:51:25.383Z</time></trkpt><trkpt lat="40.3377136" lon="9.6593891"><ele>108.0</ele><time>2026-03-29T08:51:26.382Z</time></trkpt><trkpt lat="40.3377285" lon="9.6595486"><ele>108.0</ele><time>2026-03-29T08:51:27.382Z</time></trkpt><trkpt lat="40.3377462" lon="9.6597036"><ele>108.0</ele><time>2026-03-29T08:51:28.386Z</time></trkpt><trkpt lat="40.3377625" lon="9.6598554"><ele>107.4</ele><time>2026-03-29T08:51:29.387Z</time></trkpt><trkpt lat="40.3377759" lon="9.6599918"><ele>106.80000000000001</ele><time>2026-03-29T08:51:30.407Z</time></trkpt><trkpt lat="40.3377856" lon="9.660111"><ele>106.2</ele><time>2026-03-29T08:51:31.38Z</time></trkpt><trkpt lat="40.33778" lon="9.6602249"><ele>105.6</ele><time>2026-03-29T08:51:32.386Z</time></trkpt><trkpt lat="40.337754" lon="9.6603516"><ele>105.0</ele><time>2026-03-29T08:51:33.379Z</time></trkpt><trkpt lat="40.3377218" lon="9.6604955"><ele>104.25</ele><time>2026-03-29T08:51:34.383Z</time></trkpt><trkpt lat="40.3376955" lon="9.660648"><ele>103.5</ele><time>2026-03-29T08:51:35.389Z</time></trkpt><trkpt lat="40.3376713" lon="9.6607965"><ele>102.75</ele><time>2026-03-29T08:51:36.386Z</time></trkpt><trkpt lat="40.337647" lon="9.6609438"><ele>102.0</ele><time>2026-03-29T08:51:37.409Z</time></trkpt><trkpt lat="40.3376244" lon="9.6610938"><ele>101.0</ele><time>2026-03-29T08:51:38.378Z</time></trkpt><trkpt lat="40.3376045" lon="9.6612508"><ele>100.0</ele><time>2026-03-29T08:51:39.385Z</time></trkpt><trkpt lat="40.3375821" lon="9.6614064"><ele>99.0</ele><time>2026-03-29T08:51:40.385Z</time></trkpt><trkpt lat="40.3375577" lon="9.6615595"><ele>98.0</ele><time>2026-03-29T08:51:41.386Z</time></trkpt><trkpt lat="40.3375383" lon="9.6617064"><ele>98.0</ele><time>2026-03-29T08:51:42.389Z</time></trkpt><trkpt lat="40.3375267" lon="9.6618528"><ele>98.0</ele><time>2026-03-29T08:51:43.385Z</time></trkpt><trkpt lat="40.337506" lon="9.6620005"><ele>98.0</ele><time>2026-03-29T08:51:44.378Z</time></trkpt><trkpt lat="40.3374719" lon="9.6621532"><ele>98.0</ele><time>2026-03-29T08:51:45.382Z</time></trkpt><trkpt lat="40.3374368" lon="9.6623055"><ele>97.25</ele><time>2026-03-29T08:51:46.38Z</time></trkpt><trkpt lat="40.3374035" lon="9.6624569"><ele>96.5</ele><time>2026-03-29T08:51:47.387Z</time></trkpt><trkpt lat="40.337377" lon="9.6626059"><ele>95.75</ele><time>2026-03-29T08:51:48.395Z</time></trkpt><trkpt lat="40.3373484" lon="9.6627552"><ele>95.0</ele><time>2026-03-29T08:51:49.388Z</time></trkpt><trkpt lat="40.3373176" lon="9.6629074"><ele>94.25</ele><time>2026-03-29T08:51:50.402Z</time></trkpt><trkpt lat="40.3372898" lon="9.6630664"><ele>93.5</ele><time>2026-03-29T08:51:51.385Z</time></trkpt><trkpt lat="40.3372588" lon="9.6632248"><ele>92.75</ele><time>2026-03-29T08:51:52.385Z</time></trkpt><trkpt lat="40.3372286" lon="9.6633814"><ele>92.0</ele><time>2026-03-29T08:51:53.387Z</time></trkpt><trkpt lat="40.3372049" lon="9.6635398"><ele>90.75</ele><time>2026-03-29T08:51:54.392Z</time></trkpt><trkpt lat="40.3371757" lon="9.6636941"><ele>89.5</ele><time>2026-03-29T08:51:55.388Z</time></trkpt><trkpt lat="40.337146" lon="9.6638503"><ele>88.25</ele><time>2026-03-29T08:51:56.382Z</time></trkpt><trkpt lat="40.3371162" lon="9.6640019"><ele>87.0</ele><time>2026-03-29T08:51:57.406Z</time></trkpt><trkpt lat="40.3370876" lon="9.6641544"><ele>87.0</ele><time>2026-03-29T08:51:58.406Z</time></trkpt><trkpt lat="40.3370582" lon="9.6643033"><ele>87.0</ele><time>2026-03-29T08:51:59.382Z</time></trkpt><trkpt lat="40.337028" lon="9.6644413"><ele>87.0</ele><time>2026-03-29T08:52:00.409Z</time></trkpt><trkpt lat="40.3370005" lon="9.6645701"><ele>87.0</ele><time>2026-03-29T08:52:01.382Z</time></trkpt><trkpt lat="40.3369917" lon="9.664684"><ele>87.0</ele><time>2026-03-29T08:52:02.387Z</time></trkpt><trkpt lat="40.3369925" lon="9.6647921"><ele>86.19999999999999</ele><time>2026-03-29T08:52:03.385Z</time></trkpt><trkpt lat="40.3370036" lon="9.6649105"><ele>85.4</ele><time>2026-03-29T08:52:04.388Z</time></trkpt><trkpt lat="40.3370191" lon="9.665042"><ele>84.6</ele><time>2026-03-29T08:52:05.38Z</time></trkpt><trkpt lat="40.3370375" lon="9.6651855"><ele>83.80000000000001</ele><time>2026-03-29T08:52:06.392Z</time></trkpt><trkpt lat="40.337058" lon="9.6653248"><ele>83.0</ele><time>2026-03-29T08:52:07.384Z</time></trkpt><trkpt lat="40.3370793" lon="9.6654526"><ele>82.66666666666667</ele><time>2026-03-29T08:52:08.386Z</time></trkpt><trkpt lat="40.3370968" lon="9.6655636"><ele>82.33333333333334</ele><time>2026-03-29T08:52:09.385Z</time></trkpt><trkpt lat="40.3371103" lon="9.6656522"><ele>82.0</ele><time>2026-03-29T08:52:10.389Z</time></trkpt><trkpt lat="40.3371315" lon="9.6657898"><ele>81.66666666666667</ele><time>2026-03-29T08:52:12.386Z</time></trkpt><trkpt lat="40.3371532" lon="9.6659078"><ele>81.33333333333333</ele><time>2026-03-29T08:52:14.395Z</time></trkpt><trkpt lat="40.3371753" lon="9.6660104"><ele>81.0</ele><time>2026-03-29T08:52:17.393Z</time></trkpt><trkpt lat="40.3371798" lon="9.6659246"><ele>81.0</ele><time>2026-03-29T09:01:31.392Z</time></trkpt><trkpt lat="40.3371535" lon="9.6658124"><ele>81.0</ele><time>2026-03-29T09:01:33.39Z</time></trkpt><trkpt lat="40.3371257" lon="9.6656578"><ele>81.0</ele><time>2026-03-29T09:01:35.39Z</time></trkpt><trkpt lat="40.3371089" lon="9.6655631"><ele>81.0</ele><time>2026-03-29T09:01:36.386Z</time></trkpt><trkpt lat="40.3370914" lon="9.665466"><ele>81.0</ele><time>2026-03-29T09:01:37.384Z</time></trkpt><trkpt lat="40.3370726" lon="9.6653624"><ele>81.0</ele><time>2026-03-29T09:01:38.386Z</time></trkpt><trkpt lat="40.337055" lon="9.6652425"><ele>81.4</ele><time>2026-03-29T09:01:39.378Z</time></trkpt><trkpt lat="40.3370335" lon="9.6651141"><ele>81.8</ele><time>2026-03-29T09:01:40.394Z</time></trkpt><trkpt lat="40.3370135" lon="9.6649907"><ele>82.2</ele><time>2026-03-29T09:01:41.38Z</time></trkpt><trkpt lat="40.3369974" lon="9.6648651"><ele>82.60000000000001</ele><time>2026-03-29T09:01:42.381Z</time></trkpt><trkpt lat="40.3369856" lon="9.664746"><ele>83.0</ele><time>2026-03-29T09:01:43.38Z</time></trkpt><trkpt lat="40.3369847" lon="9.6646217"><ele>83.0</ele><time>2026-03-29T09:01:44.382Z</time></trkpt><trkpt lat="40.3370016" lon="9.6644925"><ele>83.0</ele><time>2026-03-29T09:01:45.384Z</time></trkpt><trkpt lat="40.3370334" lon="9.66435"><ele>83.0</ele><time>2026-03-29T09:01:46.387Z</time></trkpt><trkpt lat="40.3370624" lon="9.6642124"><ele>83.0</ele><time>2026-03-29T09:01:47.382Z</time></trkpt><trkpt lat="40.3370862" lon="9.6640938"><ele>83.0</ele><time>2026-03-29T09:01:48.382Z</time></trkpt><trkpt lat="40.337111" lon="9.6639818"><ele>83.66666666666667</ele><time>2026-03-29T09:01:49.381Z</time></trkpt><trkpt lat="40.3371364" lon="9.6638708"><ele>84.33333333333334</ele><time>2026-03-29T09:01:50.384Z</time></trkpt><trkpt lat="40.3371628" lon="9.6637573"><ele>85.0</ele><time>2026-03-29T09:01:51.386Z</time></trkpt><trkpt lat="40.3371833" lon="9.6636372"><ele>85.66666666666667</ele><time>2026-03-29T09:01:52.382Z</time></trkpt><trkpt lat="40.3372006" lon="9.6635236"><ele>86.33333333333333</ele><time>2026-03-29T09:01:53.404Z</time></trkpt><trkpt lat="40.3372171" lon="9.6634229"><ele>87.0</ele><time>2026-03-29T09:01:54.382Z</time></trkpt><trkpt lat="40.3372385" lon="9.663331"><ele>87.71428571428571</ele><time>2026-03-29T09:01:55.386Z</time></trkpt><trkpt lat="40.3372566" lon="9.663235"><ele>88.42857142857143</ele><time>2026-03-29T09:01:56.386Z</time></trkpt><trkpt lat="40.337275" lon="9.6631393"><ele>89.14285714285714</ele><time>2026-03-29T09:01:57.379Z</time></trkpt><trkpt lat="40.3372945" lon="9.6630421"><ele>89.85714285714286</ele><time>2026-03-29T09:01:58.379Z</time></trkpt><trkpt lat="40.3373141" lon="9.6629442"><ele>90.57142857142857</ele><time>2026-03-29T09:01:59.381Z</time></trkpt><trkpt lat="40.3373304" lon="9.6628527"><ele>91.28571428571429</ele><time>2026-03-29T09:02:00.381Z</time></trkpt><trkpt lat="40.3373445" lon="9.6627653"><ele>92.0</ele><time>2026-03-29T09:02:01.386Z</time></trkpt><trkpt lat="40.3373604" lon="9.6626806"><ele>92.5</ele><time>2026-03-29T09:02:02.384Z</time></trkpt><trkpt lat="40.3373779" lon="9.6625973"><ele>93.0</ele><time>2026-03-29T09:02:03.386Z</time></trkpt><trkpt lat="40.3374039" lon="9.662457"><ele>93.5</ele><time>2026-03-29T09:02:05.384Z</time></trkpt><trkpt lat="40.3374231" lon="9.6623428"><ele>94.0</ele><time>2026-03-29T09:02:07.381Z</time></trkpt><trkpt lat="40.3374438" lon="9.6622403"><ele>94.5</ele><time>2026-03-29T09:02:09.383Z</time></trkpt><trkpt lat="40.3374609" lon="9.6621349"><ele>95.0</ele><time>2026-03-29T09:02:12.384Z</time></trkpt><trkpt lat="40.3374958" lon="9.6620043"><ele>95.5</ele><time>2026-03-29T09:02:26.391Z</time></trkpt><trkpt lat="40.3375244" lon="9.6618653"><ele>96.0</ele><time>2026-03-29T09:02:28.39Z</time></trkpt><trkpt lat="40.3375384" lon="9.6617795"><ele>96.5</ele><time>2026-03-29T09:02:29.381Z</time></trkpt><trkpt lat="40.3375499" lon="9.661688"><ele>97.0</ele><time>2026-03-29T09:02:30.395Z</time></trkpt><trkpt lat="40.3375616" lon="9.6615989"><ele>97.49999999999999</ele><time>2026-03-29T09:02:31.379Z</time></trkpt><trkpt lat="40.3375874" lon="9.6614534"><ele>98.0</ele><time>2026-03-29T09:02:33.381Z</time></trkpt><trkpt lat="40.3375995" lon="9.6613468"><ele>98.0</ele><time>2026-03-29T09:02:35.382Z</time></trkpt><trkpt lat="40.3376151" lon="9.661214"><ele>98.0</ele><time>2026-03-29T09:02:37.378Z</time></trkpt><trkpt lat="40.3376372" lon="9.6610685"><ele>98.0</ele><time>2026-03-29T09:02:39.382Z</time></trkpt><trkpt lat="40.3376613" lon="9.6609282"><ele>98.0</ele><time>2026-03-29T09:02:41.39Z</time></trkpt><trkpt lat="40.3376823" lon="9.6607986"><ele>98.0</ele><time>2026-03-29T09:02:43.393Z</time></trkpt><trkpt lat="40.3377052" lon="9.6606655"><ele>99.0</ele><time>2026-03-29T09:02:45.383Z</time></trkpt><trkpt lat="40.3377377" lon="9.6605117"><ele>100.0</ele><time>2026-03-29T09:02:47.385Z</time></trkpt><trkpt lat="40.3377657" lon="9.6603738"><ele>101.0</ele><time>2026-03-29T09:02:49.392Z</time></trkpt><trkpt lat="40.3377929" lon="9.6602282"><ele>102.0</ele><time>2026-03-29T09:02:51.385Z</time></trkpt><trkpt lat="40.3378034" lon="9.6600655"><ele>102.42857142857143</ele><time>2026-03-29T09:02:53.387Z</time></trkpt><trkpt lat="40.3377941" lon="9.6599652"><ele>102.85714285714286</ele><time>2026-03-29T09:02:54.384Z</time></trkpt><trkpt lat="40.3377842" lon="9.6598709"><ele>103.28571428571428</ele><time>2026-03-29T09:02:55.389Z</time></trkpt><trkpt lat="40.3377739" lon="9.6597744"><ele>103.71428571428572</ele><time>2026-03-29T09:02:56.385Z</time></trkpt><trkpt lat="40.3377628" lon="9.6596771"><ele>104.14285714285714</ele><time>2026-03-29T09:02:57.385Z</time></trkpt><trkpt lat="40.337752" lon="9.6595817"><ele>104.57142857142857</ele><time>2026-03-29T09:02:58.383Z</time></trkpt><trkpt lat="40.3377417" lon="9.6594906"><ele>105.0</ele><time>2026-03-29T09:02:59.378Z</time></trkpt><trkpt lat="40.3377307" lon="9.6593986"><ele>105.42857142857143</ele><time>2026-03-29T09:03:00.378Z</time></trkpt><trkpt lat="40.3377212" lon="9.6593073"><ele>105.85714285714286</ele><time>2026-03-29T09:03:01.384Z</time></trkpt><trkpt lat="40.3377116" lon="9.6592141"><ele>106.28571428571428</ele><time>2026-03-29T09:03:02.379Z</time></trkpt><trkpt lat="40.3377047" lon="9.6591294"><ele>106.71428571428572</ele><time>2026-03-29T09:03:03.389Z</time></trkpt><trkpt lat="40.3376986" lon="9.6590458"><ele>107.14285714285714</ele><time>2026-03-29T09:03:04.377Z</time></trkpt><trkpt lat="40.3376899" lon="9.6589623"><ele>107.57142857142857</ele><time>2026-03-29T09:03:05.386Z</time></trkpt><trkpt lat="40.3376741" lon="9.6588774"><ele>108.0</ele><time>2026-03-29T09:03:06.378Z</time></trkpt><trkpt lat="40.3376499" lon="9.6587897"><ele>108.0</ele><time>2026-03-29T09:03:07.383Z</time></trkpt><trkpt lat="40.3376205" lon="9.6586947"><ele>108.0</ele><time>2026-03-29T09:03:08.387Z</time></trkpt><trkpt lat="40.3375862" lon="9.6585859"><ele>108.0</ele><time>2026-03-29T09:03:09.386Z</time></trkpt><trkpt lat="40.3375492" lon="9.6584722"><ele>108.0</ele><time>2026-03-29T09:03:10.396Z</time></trkpt><trkpt lat="40.3375128" lon="9.6583629"><ele>108.0</ele><time>2026-03-29T09:03:11.384Z</time></trkpt><trkpt lat="40.3374785" lon="9.6582558"><ele>108.0</ele><time>2026-03-29T09:03:12.375Z</time></trkpt><trkpt lat="40.3374455" lon="9.6581533"><ele>108.16666666666667</ele><time>2026-03-29T09:03:13.388Z</time></trkpt><trkpt lat="40.337416" lon="9.6580537"><ele>108.33333333333334</ele><time>2026-03-29T09:03:14.382Z</time></trkpt><trkpt lat="40.3373835" lon="9.6579492"><ele>108.5</ele><time>2026-03-29T09:03:15.382Z</time></trkpt><trkpt lat="40.3373497" lon="9.6578492"><ele>108.66666666666667</ele><time>2026-03-29T09:03:16.38Z</time></trkpt><trkpt lat="40.3373161" lon="9.6577449"><ele>108.83333333333334</ele><time>2026-03-29T09:03:17.382Z</time></trkpt><trkpt lat="40.3372829" lon="9.6576423"><ele>109.0</ele><time>2026-03-29T09:03:18.383Z</time></trkpt><trkpt lat="40.3372444" lon="9.6575399"><ele>109.50000000000001</ele><time>2026-03-29T09:03:19.387Z</time></trkpt><trkpt lat="40.3372099" lon="9.6574389"><ele>110.0</ele><time>2026-03-29T09:03:20.377Z</time></trkpt><trkpt lat="40.337177" lon="9.6573385"><ele>110.5</ele><time>2026-03-29T09:03:21.395Z</time></trkpt><trkpt lat="40.3371442" lon="9.6572375"><ele>111.0</ele><time>2026-03-29T09:03:22.383Z</time></trkpt><trkpt lat="40.33711" lon="9.6571351"><ele>111.50000000000001</ele><time>2026-03-29T09:03:23.385Z</time></trkpt><trkpt lat="40.3370768" lon="9.6570323"><ele>112.0</ele><time>2026-03-29T09:03:24.382Z</time></trkpt><trkpt lat="40.337049" lon="9.6569287"><ele>112.16666666666667</ele><time>2026-03-29T09:03:25.384Z</time></trkpt><trkpt lat="40.3370281" lon="9.6568265"><ele>112.33333333333334</ele><time>2026-03-29T09:03:26.379Z</time></trkpt><trkpt lat="40.3370218" lon="9.656725"><ele>112.5</ele><time>2026-03-29T09:03:27.387Z</time></trkpt><trkpt lat="40.3370289" lon="9.6566261"><ele>112.66666666666666</ele><time>2026-03-29T09:03:28.388Z</time></trkpt><trkpt lat="40.3370502" lon="9.6565289"><ele>112.83333333333333</ele><time>2026-03-29T09:03:29.386Z</time></trkpt><trkpt lat="40.3370744" lon="9.6564293"><ele>113.0</ele><time>2026-03-29T09:03:30.378Z</time></trkpt><trkpt lat="40.3371011" lon="9.6563256"><ele>112.99999999999999</ele><time>2026-03-29T09:03:31.385Z</time></trkpt><trkpt lat="40.3371302" lon="9.6562159"><ele>113.0</ele><time>2026-03-29T09:03:32.381Z</time></trkpt><trkpt lat="40.337161" lon="9.6561013"><ele>113.0</ele><time>2026-03-29T09:03:33.384Z</time></trkpt><trkpt lat="40.3371921" lon="9.6559925"><ele>113.0</ele><time>2026-03-29T09:03:34.38Z</time></trkpt><trkpt lat="40.3372235" lon="9.6558851"><ele>112.99999999999999</ele><time>2026-03-29T09:03:35.383Z</time></trkpt><trkpt lat="40.3372542" lon="9.6557828"><ele>113.0</ele><time>2026-03-29T09:03:36.378Z</time></trkpt><trkpt lat="40.3372855" lon="9.6556833"><ele>114.16666666666666</ele><time>2026-03-29T09:03:37.388Z</time></trkpt><trkpt lat="40.3373217" lon="9.6555795"><ele>115.33333333333333</ele><time>2026-03-29T09:03:38.38Z</time></trkpt><trkpt lat="40.3373588" lon="9.6554679"><ele>116.5</ele><time>2026-03-29T09:03:39.386Z</time></trkpt><trkpt lat="40.337393" lon="9.6553562"><ele>117.66666666666666</ele><time>2026-03-29T09:03:40.379Z</time></trkpt><trkpt lat="40.3374215" lon="9.6552488"><ele>118.83333333333333</ele><time>2026-03-29T09:03:41.394Z</time></trkpt><trkpt lat="40.3374385" lon="9.6551487"><ele>120.0</ele><time>2026-03-29T09:03:42.385Z</time></trkpt><trkpt lat="40.3374533" lon="9.6550578"><ele>120.33333333333333</ele><time>2026-03-29T09:03:43.393Z</time></trkpt><trkpt lat="40.3374454" lon="9.6549694"><ele>120.66666666666666</ele><time>2026-03-29T09:03:44.378Z</time></trkpt><trkpt lat="40.3374182" lon="9.6548839"><ele>121.0</ele><time>2026-03-29T09:03:45.385Z</time></trkpt><trkpt lat="40.337377" lon="9.6547994"><ele>121.33333333333333</ele><time>2026-03-29T09:03:46.38Z</time></trkpt><trkpt lat="40.3373101" lon="9.6547134"><ele>121.66666666666666</ele><time>2026-03-29T09:03:47.385Z</time></trkpt><trkpt lat="40.3372445" lon="9.6546362"><ele>122.0</ele><time>2026-03-29T09:03:48.377Z</time></trkpt><trkpt lat="40.3371683" lon="9.6545776"><ele>121.99999999999999</ele><time>2026-03-29T09:03:49.392Z</time></trkpt><trkpt lat="40.3371094" lon="9.6545201"><ele>122.0</ele><time>2026-03-29T09:03:50.38Z</time></trkpt><trkpt lat="40.3370655" lon="9.6544597"><ele>121.99999999999999</ele><time>2026-03-29T09:03:51.383Z</time></trkpt><trkpt lat="40.3370227" lon="9.6543522"><ele>121.99999999999999</ele><time>2026-03-29T09:03:53.379Z</time></trkpt><trkpt lat="40.337018" lon="9.6542657"><ele>122.0</ele><time>2026-03-29T09:03:54.413Z</time></trkpt><trkpt lat="40.3370032" lon="9.6541712"><ele>121.99999999999999</ele><time>2026-03-29T09:03:55.379Z</time></trkpt><trkpt lat="40.3369737" lon="9.6540842"><ele>121.99999999999999</ele><time>2026-03-29T09:03:56.382Z</time></trkpt><trkpt lat="40.3369305" lon="9.6540049"><ele>123.19999999999999</ele><time>2026-03-29T09:03:57.382Z</time></trkpt><trkpt lat="40.3368822" lon="9.6539243"><ele>124.39999999999999</ele><time>2026-03-29T09:03:58.381Z</time></trkpt><trkpt lat="40.3368147" lon="9.6538447"><ele>125.60000000000001</ele><time>2026-03-29T09:03:59.41Z</time></trkpt><trkpt lat="40.3367423" lon="9.6537648"><ele>126.80000000000001</ele><time>2026-03-29T09:04:00.385Z</time></trkpt><trkpt lat="40.3366687" lon="9.6536894"><ele>128.0</ele><time>2026-03-29T09:04:01.386Z</time></trkpt><trkpt lat="40.336595" lon="9.6536092"><ele>128.20000000000002</ele><time>2026-03-29T09:04:02.383Z</time></trkpt><trkpt lat="40.3365211" lon="9.6535306"><ele>128.4</ele><time>2026-03-29T09:04:03.382Z</time></trkpt><trkpt lat="40.336452" lon="9.6534564"><ele>128.60000000000002</ele><time>2026-03-29T09:04:04.388Z</time></trkpt><trkpt lat="40.336384" lon="9.653387"><ele>128.8</ele><time>2026-03-29T09:04:05.385Z</time></trkpt><trkpt lat="40.336313" lon="9.6533146"><ele>129.0</ele><time>2026-03-29T09:04:06.385Z</time></trkpt><trkpt lat="40.3362409" lon="9.6532381"><ele>129.0</ele><time>2026-03-29T09:04:07.382Z</time></trkpt><trkpt lat="40.3361664" lon="9.653163"><ele>129.0</ele><time>2026-03-29T09:04:08.432Z</time></trkpt><trkpt lat="40.3360917" lon="9.6530916"><ele>129.0</ele><time>2026-03-29T09:04:09.389Z</time></trkpt><trkpt lat="40.3360207" lon="9.6530315"><ele>129.0</ele><time>2026-03-29T09:04:10.382Z</time></trkpt><trkpt lat="40.3359499" lon="9.6529835"><ele>129.0</ele><time>2026-03-29T09:04:11.381Z</time></trkpt><trkpt lat="40.3358817" lon="9.6529409"><ele>129.0</ele><time>2026-03-29T09:04:12.379Z</time></trkpt><trkpt lat="40.3358194" lon="9.6528882"><ele>129.0</ele><time>2026-03-29T09:04:13.379Z</time></trkpt><trkpt lat="40.3357706" lon="9.6528218"><ele>129.0</ele><time>2026-03-29T09:04:14.382Z</time></trkpt><trkpt lat="40.3357363" lon="9.6527384"><ele>129.0</ele><time>2026-03-29T09:04:15.385Z</time></trkpt><trkpt lat="40.3357084" lon="9.6526446"><ele>129.0</ele><time>2026-03-29T09:04:16.379Z</time></trkpt><trkpt lat="40.3356826" lon="9.6525512"><ele>129.0</ele><time>2026-03-29T09:04:17.408Z</time></trkpt><trkpt lat="40.3356667" lon="9.6524362"><ele>129.0</ele><time>2026-03-29T09:04:18.383Z</time></trkpt><trkpt lat="40.3356554" lon="9.65231"><ele>129.2</ele><time>2026-03-29T09:04:19.378Z</time></trkpt><trkpt lat="40.335652" lon="9.6521754"><ele>129.4</ele><time>2026-03-29T09:04:20.379Z</time></trkpt><trkpt lat="40.3356558" lon="9.6520443"><ele>129.6</ele><time>2026-03-29T09:04:21.375Z</time></trkpt><trkpt lat="40.3356626" lon="9.6519129"><ele>129.8</ele><time>2026-03-29T09:04:22.385Z</time></trkpt><trkpt lat="40.3356679" lon="9.6517858"><ele>130.0</ele><time>2026-03-29T09:04:23.377Z</time></trkpt><trkpt lat="40.3356713" lon="9.6516637"><ele>130.0</ele><time>2026-03-29T09:04:24.381Z</time></trkpt><trkpt lat="40.3356751" lon="9.6515414"><ele>130.0</ele><time>2026-03-29T09:04:25.378Z</time></trkpt><trkpt lat="40.3356835" lon="9.6514236"><ele>130.0</ele><time>2026-03-29T09:04:26.379Z</time></trkpt><trkpt lat="40.3356975" lon="9.6513146"><ele>130.0</ele><time>2026-03-29T09:04:27.377Z</time></trkpt><trkpt lat="40.3357093" lon="9.6512075"><ele>130.0</ele><time>2026-03-29T09:04:28.384Z</time></trkpt><trkpt lat="40.3357236" lon="9.6510991"><ele>130.0</ele><time>2026-03-29T09:04:29.377Z</time></trkpt><trkpt lat="40.3357375" lon="9.6509924"><ele>130.5</ele><time>2026-03-29T09:04:30.38Z</time></trkpt><trkpt lat="40.3357507" lon="9.6508828"><ele>131.0</ele><time>2026-03-29T09:04:31.383Z</time></trkpt><trkpt lat="40.3357531" lon="9.6507665"><ele>131.5</ele><time>2026-03-29T09:04:32.376Z</time></trkpt><trkpt lat="40.335757" lon="9.6506559"><ele>132.0</ele><time>2026-03-29T09:04:33.385Z</time></trkpt><trkpt lat="40.335765" lon="9.6505457"><ele>132.5</ele><time>2026-03-29T09:04:34.381Z</time></trkpt><trkpt lat="40.3357732" lon="9.6504455"><ele>133.0</ele><time>2026-03-29T09:04:35.382Z</time></trkpt><trkpt lat="40.3358045" lon="9.6503547"><ele>133.33333333333334</ele><time>2026-03-29T09:04:36.378Z</time></trkpt><trkpt lat="40.3358383" lon="9.6502582"><ele>133.66666666666669</ele><time>2026-03-29T09:04:37.378Z</time></trkpt><trkpt lat="40.3358904" lon="9.6501587"><ele>134.0</ele><time>2026-03-29T09:04:38.376Z</time></trkpt><trkpt lat="40.3359449" lon="9.650073"><ele>134.33333333333334</ele><time>2026-03-29T09:04:39.378Z</time></trkpt><trkpt lat="40.3360056" lon="9.6499896"><ele>134.66666666666666</ele><time>2026-03-29T09:04:40.381Z</time></trkpt><trkpt lat="40.336079" lon="9.6499125"><ele>135.0</ele><time>2026-03-29T09:04:41.385Z</time></trkpt><trkpt lat="40.3361597" lon="9.6498363"><ele>135.0</ele><time>2026-03-29T09:04:42.378Z</time></trkpt><trkpt lat="40.3362366" lon="9.6497627"><ele>135.0</ele><time>2026-03-29T09:04:43.4Z</time></trkpt><trkpt lat="40.3363048" lon="9.6496915"><ele>135.0</ele><time>2026-03-29T09:04:44.382Z</time></trkpt><trkpt lat="40.3363599" lon="9.6496131"><ele>135.0</ele><time>2026-03-29T09:04:45.38Z</time></trkpt><trkpt lat="40.3364022" lon="9.6495247"><ele>135.0</ele><time>2026-03-29T09:04:46.38Z</time></trkpt><trkpt lat="40.3364349" lon="9.6494242"><ele>135.0</ele><time>2026-03-29T09:04:47.374Z</time></trkpt><trkpt lat="40.3364634" lon="9.6493146"><ele>136.2</ele><time>2026-03-29T09:04:48.376Z</time></trkpt><trkpt lat="40.3364896" lon="9.6491989"><ele>137.4</ele><time>2026-03-29T09:04:49.382Z</time></trkpt><trkpt lat="40.3365133" lon="9.649083"><ele>138.6</ele><time>2026-03-29T09:04:50.382Z</time></trkpt><trkpt lat="40.3365355" lon="9.6489675"><ele>139.8</ele><time>2026-03-29T09:04:51.381Z</time></trkpt><trkpt lat="40.3365647" lon="9.6488467"><ele>141.0</ele><time>2026-03-29T09:04:52.389Z</time></trkpt><trkpt lat="40.3365956" lon="9.6487252"><ele>141.4</ele><time>2026-03-29T09:04:53.38Z</time></trkpt><trkpt lat="40.3366408" lon="9.6486095"><ele>141.8</ele><time>2026-03-29T09:04:54.378Z</time></trkpt><trkpt lat="40.3366849" lon="9.6484921"><ele>142.20000000000002</ele><time>2026-03-29T09:04:55.378Z</time></trkpt><trkpt lat="40.3367321" lon="9.6483796"><ele>142.6</ele><time>2026-03-29T09:04:56.382Z</time></trkpt><trkpt lat="40.3367884" lon="9.6482668"><ele>143.0</ele><time>2026-03-29T09:04:57.378Z</time></trkpt><trkpt lat="40.3368469" lon="9.6481618"><ele>143.0</ele><time>2026-03-29T09:04:58.377Z</time></trkpt><trkpt lat="40.3369041" lon="9.6480556"><ele>143.0</ele><time>2026-03-29T09:04:59.38Z</time></trkpt><trkpt lat="40.3369672" lon="9.6479505"><ele>143.0</ele><time>2026-03-29T09:05:00.379Z</time></trkpt><trkpt lat="40.3370293" lon="9.6478463"><ele>143.0</ele><time>2026-03-29T09:05:01.385Z</time></trkpt><trkpt lat="40.337091" lon="9.6477409"><ele>143.0</ele><time>2026-03-29T09:05:02.379Z</time></trkpt><trkpt lat="40.3371509" lon="9.6476399"><ele>143.0</ele><time>2026-03-29T09:05:03.377Z</time></trkpt><trkpt lat="40.3372074" lon="9.6475248"><ele>143.0</ele><time>2026-03-29T09:05:04.382Z</time></trkpt><trkpt lat="40.3372567" lon="9.6474281"><ele>143.0</ele><time>2026-03-29T09:05:05.384Z</time></trkpt><trkpt lat="40.337297" lon="9.6473414"><ele>143.0</ele><time>2026-03-29T09:05:06.379Z</time></trkpt><trkpt lat="40.3373231" lon="9.6472479"><ele>143.0</ele><time>2026-03-29T09:05:07.404Z</time></trkpt><trkpt lat="40.3373482" lon="9.6471563"><ele>143.0</ele><time>2026-03-29T09:05:08.387Z</time></trkpt><trkpt lat="40.3373395" lon="9.6470639"><ele>144.0</ele><time>2026-03-29T09:05:09.385Z</time></trkpt><trkpt lat="40.3373158" lon="9.6469677"><ele>145.0</ele><time>2026-03-29T09:05:10.38Z</time></trkpt><trkpt lat="40.3372915" lon="9.6468603"><ele>146.0</ele><time>2026-03-29T09:05:11.383Z</time></trkpt><trkpt lat="40.337267" lon="9.6467548"><ele>147.0</ele><time>2026-03-29T09:05:12.38Z</time></trkpt><trkpt lat="40.3372499" lon="9.6466518"><ele>148.0</ele><time>2026-03-29T09:05:13.382Z</time></trkpt><trkpt lat="40.337238" lon="9.6465545"><ele>149.0</ele><time>2026-03-29T09:05:14.384Z</time></trkpt><trkpt lat="40.3372274" lon="9.6464707"><ele>149.0</ele><time>2026-03-29T09:05:15.379Z</time></trkpt><trkpt lat="40.3372413" lon="9.6463615"><ele>149.0</ele><time>2026-03-29T09:05:17.379Z</time></trkpt><trkpt lat="40.3372605" lon="9.6462781"><ele>149.0</ele><time>2026-03-29T09:05:20.384Z</time></trkpt><trkpt lat="40.33729" lon="9.6461577"><ele>149.0</ele><time>2026-03-29T09:12:51.368Z</time></trkpt><trkpt lat="40.3372814" lon="9.6460317"><ele>149.0</ele><time>2026-03-29T09:12:53.395Z</time></trkpt><trkpt lat="40.3373126" lon="9.6458801"><ele>148.66666666666666</ele><time>2026-03-29T09:12:55.392Z</time></trkpt><trkpt lat="40.3373654" lon="9.6458128"><ele>148.33333333333331</ele><time>2026-03-29T09:12:56.385Z</time></trkpt><trkpt lat="40.3374244" lon="9.6457511"><ele>148.0</ele><time>2026-03-29T09:12:57.386Z</time></trkpt><trkpt lat="40.3374989" lon="9.6456994"><ele>147.66666666666666</ele><time>2026-03-29T09:12:58.386Z</time></trkpt><trkpt lat="40.3375802" lon="9.6456545"><ele>147.33333333333334</ele><time>2026-03-29T09:12:59.386Z</time></trkpt><trkpt lat="40.3376631" lon="9.6456145"><ele>147.0</ele><time>2026-03-29T09:13:00.386Z</time></trkpt><trkpt lat="40.3377461" lon="9.6455677"><ele>147.0</ele><time>2026-03-29T09:13:01.385Z</time></trkpt><trkpt lat="40.3378236" lon="9.6455046"><ele>147.0</ele><time>2026-03-29T09:13:02.382Z</time></trkpt><trkpt lat="40.3379048" lon="9.6454347"><ele>147.0</ele><time>2026-03-29T09:13:03.385Z</time></trkpt><trkpt lat="40.3379852" lon="9.6453344"><ele>147.0</ele><time>2026-03-29T09:13:04.393Z</time></trkpt><trkpt lat="40.3380596" lon="9.6452413"><ele>147.0</ele><time>2026-03-29T09:13:05.386Z</time></trkpt><trkpt lat="40.3381383" lon="9.6451506"><ele>148.25</ele><time>2026-03-29T09:13:06.406Z</time></trkpt><trkpt lat="40.3382209" lon="9.6450498"><ele>149.5</ele><time>2026-03-29T09:13:07.385Z</time></trkpt><trkpt lat="40.3383092" lon="9.6449421"><ele>150.75</ele><time>2026-03-29T09:13:08.388Z</time></trkpt><trkpt lat="40.338376" lon="9.6448136"><ele>152.0</ele><time>2026-03-29T09:13:09.39Z</time></trkpt><trkpt lat="40.3384411" lon="9.6446854"><ele>152.0</ele><time>2026-03-29T09:13:10.394Z</time></trkpt><trkpt lat="40.3384936" lon="9.6445731"><ele>152.0</ele><time>2026-03-29T09:13:11.389Z</time></trkpt><trkpt lat="40.3385402" lon="9.6444762"><ele>152.0</ele><time>2026-03-29T09:13:12.386Z</time></trkpt><trkpt lat="40.3385812" lon="9.6443899"><ele>152.0</ele><time>2026-03-29T09:13:13.39Z</time></trkpt><trkpt lat="40.3386194" lon="9.6442775"><ele>152.0</ele><time>2026-03-29T09:13:15.387Z</time></trkpt><trkpt lat="40.3386425" lon="9.6441732"><ele>152.0</ele><time>2026-03-29T09:13:18.393Z</time></trkpt><trkpt lat="40.3386595" lon="9.644088"><ele>152.0</ele><time>2026-03-29T09:13:21.387Z</time></trkpt><trkpt lat="40.3387203" lon="9.6441493"><ele>152.0</ele><time>2026-03-29T09:14:24.382Z</time></trkpt><trkpt lat="40.3387374" lon="9.6442336"><ele>152.0</ele><time>2026-03-29T09:14:25.386Z</time></trkpt><trkpt lat="40.3387588" lon="9.64434"><ele>152.0</ele><time>2026-03-29T09:14:26.379Z</time></trkpt><trkpt lat="40.3387818" lon="9.6444729"><ele>152.0</ele><time>2026-03-29T09:14:27.378Z</time></trkpt><trkpt lat="40.3388087" lon="9.6446153"><ele>152.0</ele><time>2026-03-29T09:14:28.385Z</time></trkpt><trkpt lat="40.3388368" lon="9.6447645"><ele>152.0</ele><time>2026-03-29T09:14:29.379Z</time></trkpt><trkpt lat="40.338884" lon="9.6449182"><ele>152.0</ele><time>2026-03-29T09:14:30.396Z</time></trkpt><trkpt lat="40.338929" lon="9.6450583"><ele>152.0</ele><time>2026-03-29T09:14:31.391Z</time></trkpt><trkpt lat="40.3389601" lon="9.645172"><ele>152.0</ele><time>2026-03-29T09:14:32.383Z</time></trkpt><trkpt lat="40.3389702" lon="9.6452817"><ele>152.0</ele><time>2026-03-29T09:14:33.381Z</time></trkpt><trkpt lat="40.3389656" lon="9.6454054"><ele>153.5</ele><time>2026-03-29T09:14:34.387Z</time></trkpt><trkpt lat="40.338959" lon="9.6455449"><ele>155.0</ele><time>2026-03-29T09:14:35.388Z</time></trkpt><trkpt lat="40.3389496" lon="9.6456926"><ele>156.5</ele><time>2026-03-29T09:14:36.386Z</time></trkpt><trkpt lat="40.3389411" lon="9.6458561"><ele>158.0</ele><time>2026-03-29T09:14:37.391Z</time></trkpt><trkpt lat="40.3389322" lon="9.6460325"><ele>157.25</ele><time>2026-03-29T09:14:38.381Z</time></trkpt><trkpt lat="40.3389229" lon="9.6461924"><ele>156.5</ele><time>2026-03-29T09:14:39.387Z</time></trkpt><trkpt lat="40.3389134" lon="9.6463521"><ele>155.75</ele><time>2026-03-29T09:14:40.383Z</time></trkpt><trkpt lat="40.3389021" lon="9.646504"><ele>155.0</ele><time>2026-03-29T09:14:41.38Z</time></trkpt><trkpt lat="40.3388827" lon="9.6466389"><ele>154.6</ele><time>2026-03-29T09:14:42.38Z</time></trkpt><trkpt lat="40.3388609" lon="9.6467733"><ele>154.2</ele><time>2026-03-29T09:14:43.384Z</time></trkpt><trkpt lat="40.3388411" lon="9.6469092"><ele>153.8</ele><time>2026-03-29T09:14:44.379Z</time></trkpt><trkpt lat="40.3388196" lon="9.6470486"><ele>153.4</ele><time>2026-03-29T09:14:45.384Z</time></trkpt><trkpt lat="40.3387994" lon="9.6471852"><ele>153.0</ele><time>2026-03-29T09:14:46.382Z</time></trkpt><trkpt lat="40.3387805" lon="9.6473123"><ele>153.0</ele><time>2026-03-29T09:14:47.383Z</time></trkpt><trkpt lat="40.3387665" lon="9.6474294"><ele>153.0</ele><time>2026-03-29T09:14:48.385Z</time></trkpt><trkpt lat="40.338762" lon="9.6475292"><ele>153.0</ele><time>2026-03-29T09:14:49.384Z</time></trkpt><trkpt lat="40.3387681" lon="9.6476225"><ele>153.0</ele><time>2026-03-29T09:14:50.38Z</time></trkpt><trkpt lat="40.3387871" lon="9.6477182"><ele>153.0</ele><time>2026-03-29T09:14:51.383Z</time></trkpt><trkpt lat="40.3388181" lon="9.6478211"><ele>153.0</ele><time>2026-03-29T09:14:52.384Z</time></trkpt><trkpt lat="40.3388532" lon="9.6479405"><ele>152.6</ele><time>2026-03-29T09:14:53.384Z</time></trkpt><trkpt lat="40.3388885" lon="9.6480717"><ele>152.20000000000002</ele><time>2026-03-29T09:14:54.384Z</time></trkpt><trkpt lat="40.338923" lon="9.6482067"><ele>151.8</ele><time>2026-03-29T09:14:55.382Z</time></trkpt><trkpt lat="40.3389589" lon="9.6483474"><ele>151.4</ele><time>2026-03-29T09:14:56.381Z</time></trkpt><trkpt lat="40.3389932" lon="9.6484844"><ele>151.0</ele><time>2026-03-29T09:14:57.383Z</time></trkpt><trkpt lat="40.3390282" lon="9.6486145"><ele>150.8</ele><time>2026-03-29T09:14:58.384Z</time></trkpt><trkpt lat="40.3390624" lon="9.648739"><ele>150.6</ele><time>2026-03-29T09:14:59.386Z</time></trkpt><trkpt lat="40.3390987" lon="9.6488627"><ele>150.4</ele><time>2026-03-29T09:15:00.381Z</time></trkpt><trkpt lat="40.3391437" lon="9.6489859"><ele>150.2</ele><time>2026-03-29T09:15:01.396Z</time></trkpt><trkpt lat="40.3391973" lon="9.6491092"><ele>150.0</ele><time>2026-03-29T09:15:02.383Z</time></trkpt><trkpt lat="40.3392542" lon="9.6492347"><ele>150.0</ele><time>2026-03-29T09:15:03.382Z</time></trkpt><trkpt lat="40.3393098" lon="9.6493565"><ele>150.0</ele><time>2026-03-29T09:15:04.383Z</time></trkpt><trkpt lat="40.3393666" lon="9.6494768"><ele>150.0</ele><time>2026-03-29T09:15:05.391Z</time></trkpt><trkpt lat="40.3394213" lon="9.6495943"><ele>150.0</ele><time>2026-03-29T09:15:06.384Z</time></trkpt><trkpt lat="40.3394768" lon="9.6497053"><ele>150.0</ele><time>2026-03-29T09:15:07.381Z</time></trkpt><trkpt lat="40.3395411" lon="9.6498107"><ele>149.8</ele><time>2026-03-29T09:15:08.382Z</time></trkpt><trkpt lat="40.3396153" lon="9.6499085"><ele>149.6</ele><time>2026-03-29T09:15:09.379Z</time></trkpt><trkpt lat="40.3396951" lon="9.6500037"><ele>149.4</ele><time>2026-03-29T09:15:10.402Z</time></trkpt><trkpt lat="40.339771" lon="9.650095"><ele>149.2</ele><time>2026-03-29T09:15:11.382Z</time></trkpt><trkpt lat="40.3398429" lon="9.6501827"><ele>149.0</ele><time>2026-03-29T09:15:12.378Z</time></trkpt><trkpt lat="40.3399127" lon="9.6502651"><ele>148.8</ele><time>2026-03-29T09:15:13.382Z</time></trkpt><trkpt lat="40.3399785" lon="9.650346"><ele>148.60000000000002</ele><time>2026-03-29T09:15:14.378Z</time></trkpt><trkpt lat="40.3400449" lon="9.650427"><ele>148.4</ele><time>2026-03-29T09:15:15.403Z</time></trkpt><trkpt lat="40.3401143" lon="9.6505099"><ele>148.20000000000002</ele><time>2026-03-29T09:15:16.386Z</time></trkpt><trkpt lat="40.3401847" lon="9.6505948"><ele>148.0</ele><time>2026-03-29T09:15:17.396Z</time></trkpt><trkpt lat="40.3402565" lon="9.6506815"><ele>148.0</ele><time>2026-03-29T09:15:18.379Z</time></trkpt><trkpt lat="40.3403296" lon="9.65077"><ele>148.0</ele><time>2026-03-29T09:15:19.378Z</time></trkpt><trkpt lat="40.3404056" lon="9.6508609"><ele>148.0</ele><time>2026-03-29T09:15:20.386Z</time></trkpt><trkpt lat="40.3404831" lon="9.6509518"><ele>148.0</ele><time>2026-03-29T09:15:21.382Z</time></trkpt><trkpt lat="40.3405639" lon="9.6510458"><ele>148.0</ele><time>2026-03-29T09:15:22.386Z</time></trkpt><trkpt lat="40.3406457" lon="9.6511448"><ele>147.8</ele><time>2026-03-29T09:15:23.382Z</time></trkpt><trkpt lat="40.3407271" lon="9.651246"><ele>147.60000000000002</ele><time>2026-03-29T09:15:24.392Z</time></trkpt><trkpt lat="40.3408035" lon="9.6513506"><ele>147.39999999999998</ele><time>2026-03-29T09:15:25.382Z</time></trkpt><trkpt lat="40.340875" lon="9.6514634"><ele>147.2</ele><time>2026-03-29T09:15:26.385Z</time></trkpt><trkpt lat="40.3409422" lon="9.6515774"><ele>147.0</ele><time>2026-03-29T09:15:27.385Z</time></trkpt><trkpt lat="40.3410065" lon="9.6516888"><ele>147.0</ele><time>2026-03-29T09:15:28.387Z</time></trkpt><trkpt lat="40.3410703" lon="9.6518005"><ele>147.0</ele><time>2026-03-29T09:15:29.393Z</time></trkpt><trkpt lat="40.3411329" lon="9.6519126"><ele>147.0</ele><time>2026-03-29T09:15:30.383Z</time></trkpt><trkpt lat="40.3411933" lon="9.6520214"><ele>147.0</ele><time>2026-03-29T09:15:31.387Z</time></trkpt><trkpt lat="40.3412524" lon="9.6521259"><ele>147.0</ele><time>2026-03-29T09:15:32.391Z</time></trkpt><trkpt lat="40.3413086" lon="9.6522246"><ele>146.79999999999998</ele><time>2026-03-29T09:15:33.386Z</time></trkpt><trkpt lat="40.3413706" lon="9.6523214"><ele>146.6</ele><time>2026-03-29T09:15:34.386Z</time></trkpt><trkpt lat="40.3414332" lon="9.6524166"><ele>146.39999999999998</ele><time>2026-03-29T09:15:35.382Z</time></trkpt><trkpt lat="40.3414925" lon="9.6525178"><ele>146.2</ele><time>2026-03-29T09:15:36.39Z</time></trkpt><trkpt lat="40.3415535" lon="9.6526328"><ele>146.0</ele><time>2026-03-29T09:15:37.379Z</time></trkpt><trkpt lat="40.3416109" lon="9.6527526"><ele>145.0</ele><time>2026-03-29T09:15:38.379Z</time></trkpt><trkpt lat="40.341663" lon="9.6528704"><ele>144.0</ele><time>2026-03-29T09:15:39.382Z</time></trkpt><trkpt lat="40.3417172" lon="9.6529875"><ele>143.0</ele><time>2026-03-29T09:15:40.383Z</time></trkpt><trkpt lat="40.3417739" lon="9.6531047"><ele>142.0</ele><time>2026-03-29T09:15:41.389Z</time></trkpt><trkpt lat="40.3418323" lon="9.6532251"><ele>141.0</ele><time>2026-03-29T09:15:42.385Z</time></trkpt><trkpt lat="40.3418867" lon="9.6533502"><ele>141.0</ele><time>2026-03-29T09:15:43.389Z</time></trkpt><trkpt lat="40.3419384" lon="9.653477"><ele>141.0</ele><time>2026-03-29T09:15:44.388Z</time></trkpt><trkpt lat="40.3419875" lon="9.6536039"><ele>141.0</ele><time>2026-03-29T09:15:45.379Z</time></trkpt><trkpt lat="40.3420346" lon="9.653729"><ele>141.0</ele><time>2026-03-29T09:15:46.392Z</time></trkpt><trkpt lat="40.342082" lon="9.6538463"><ele>141.0</ele><time>2026-03-29T09:15:47.392Z</time></trkpt><trkpt lat="40.3421317" lon="9.6539594"><ele>140.6</ele><time>2026-03-29T09:15:48.381Z</time></trkpt><trkpt lat="40.3421843" lon="9.654074"><ele>140.2</ele><time>2026-03-29T09:15:49.382Z</time></trkpt><trkpt lat="40.3422365" lon="9.6541844"><ele>139.8</ele><time>2026-03-29T09:15:50.386Z</time></trkpt><trkpt lat="40.3422877" lon="9.6542862"><ele>139.4</ele><time>2026-03-29T09:15:51.387Z</time></trkpt><trkpt lat="40.3423433" lon="9.6543894"><ele>139.0</ele><time>2026-03-29T09:15:52.417Z</time></trkpt><trkpt lat="40.3424043" lon="9.6544921"><ele>138.2</ele><time>2026-03-29T09:15:53.39Z</time></trkpt><trkpt lat="40.3424697" lon="9.654592"><ele>137.4</ele><time>2026-03-29T09:15:54.384Z</time></trkpt><trkpt lat="40.3425358" lon="9.6546884"><ele>136.6</ele><time>2026-03-29T09:15:55.387Z</time></trkpt><trkpt lat="40.3425988" lon="9.6547891"><ele>135.8</ele><time>2026-03-29T09:15:56.386Z</time></trkpt><trkpt lat="40.3426573" lon="9.6548986"><ele>135.0</ele><time>2026-03-29T09:15:57.389Z</time></trkpt><trkpt lat="40.3427111" lon="9.6550132"><ele>135.0</ele><time>2026-03-29T09:15:58.385Z</time></trkpt><trkpt lat="40.342761" lon="9.6551312"><ele>135.0</ele><time>2026-03-29T09:15:59.385Z</time></trkpt><trkpt lat="40.3428095" lon="9.6552476"><ele>135.0</ele><time>2026-03-29T09:16:00.386Z</time></trkpt><trkpt lat="40.3428541" lon="9.6553702"><ele>135.0</ele><time>2026-03-29T09:16:01.39Z</time></trkpt><trkpt lat="40.342896" lon="9.6554997"><ele>135.0</ele><time>2026-03-29T09:16:02.385Z</time></trkpt><trkpt lat="40.3429362" lon="9.6556323"><ele>134.0</ele><time>2026-03-29T09:16:03.389Z</time></trkpt><trkpt lat="40.3429734" lon="9.6557621"><ele>133.0</ele><time>2026-03-29T09:16:04.391Z</time></trkpt><trkpt lat="40.3430086" lon="9.6558879"><ele>132.0</ele><time>2026-03-29T09:16:05.39Z</time></trkpt><trkpt lat="40.3430432" lon="9.6560103"><ele>131.0</ele><time>2026-03-29T09:16:06.393Z</time></trkpt><trkpt lat="40.343079" lon="9.6561293"><ele>130.0</ele><time>2026-03-29T09:16:07.39Z</time></trkpt><trkpt lat="40.3431131" lon="9.6562425"><ele>129.5</ele><time>2026-03-29T09:16:08.383Z</time></trkpt><trkpt lat="40.3431437" lon="9.6563491"><ele>129.0</ele><time>2026-03-29T09:16:09.388Z</time></trkpt><trkpt lat="40.3431669" lon="9.6564526"><ele>128.5</ele><time>2026-03-29T09:16:10.396Z</time></trkpt><trkpt lat="40.3431815" lon="9.6565578"><ele>128.0</ele><time>2026-03-29T09:16:11.387Z</time></trkpt><trkpt lat="40.3431858" lon="9.656674"><ele>127.50000000000001</ele><time>2026-03-29T09:16:12.41Z</time></trkpt><trkpt lat="40.3431823" lon="9.6568039"><ele>127.0</ele><time>2026-03-29T09:16:13.387Z</time></trkpt><trkpt lat="40.3431772" lon="9.6569445"><ele>126.25</ele><time>2026-03-29T09:16:14.391Z</time></trkpt><trkpt lat="40.3431712" lon="9.657094"><ele>125.5</ele><time>2026-03-29T09:16:15.386Z</time></trkpt><trkpt lat="40.3431651" lon="9.6572414"><ele>124.75</ele><time>2026-03-29T09:16:16.392Z</time></trkpt><trkpt lat="40.3431603" lon="9.6573901"><ele>124.0</ele><time>2026-03-29T09:16:17.381Z</time></trkpt><trkpt lat="40.3431547" lon="9.6575413"><ele>124.0</ele><time>2026-03-29T09:16:18.383Z</time></trkpt><trkpt lat="40.3431479" lon="9.6576889"><ele>124.0</ele><time>2026-03-29T09:16:19.382Z</time></trkpt><trkpt lat="40.343141" lon="9.6578338"><ele>124.0</ele><time>2026-03-29T09:16:20.383Z</time></trkpt><trkpt lat="40.3431351" lon="9.6579806"><ele>124.0</ele><time>2026-03-29T09:16:21.383Z</time></trkpt><trkpt lat="40.3431283" lon="9.65813"><ele>124.0</ele><time>2026-03-29T09:16:22.388Z</time></trkpt><trkpt lat="40.3431207" lon="9.6582812"><ele>122.75</ele><time>2026-03-29T09:16:23.387Z</time></trkpt><trkpt lat="40.3431132" lon="9.6584389"><ele>121.5</ele><time>2026-03-29T09:16:24.382Z</time></trkpt><trkpt lat="40.3431074" lon="9.6585959"><ele>120.25</ele><time>2026-03-29T09:16:25.389Z</time></trkpt><trkpt lat="40.343104" lon="9.6587464"><ele>119.0</ele><time>2026-03-29T09:16:26.39Z</time></trkpt><trkpt lat="40.3431012" lon="9.658893"><ele>117.75</ele><time>2026-03-29T09:16:27.404Z</time></trkpt><trkpt lat="40.3430936" lon="9.659039"><ele>116.5</ele><time>2026-03-29T09:16:28.39Z</time></trkpt><trkpt lat="40.3430871" lon="9.6591857"><ele>115.25</ele><time>2026-03-29T09:16:29.385Z</time></trkpt><trkpt lat="40.3430808" lon="9.6593316"><ele>114.0</ele><time>2026-03-29T09:16:30.383Z</time></trkpt><trkpt lat="40.3430767" lon="9.6594836"><ele>112.75</ele><time>2026-03-29T09:16:31.385Z</time></trkpt><trkpt lat="40.3430726" lon="9.6596334"><ele>111.5</ele><time>2026-03-29T09:16:32.383Z</time></trkpt><trkpt lat="40.3430658" lon="9.6597875"><ele>110.25</ele><time>2026-03-29T09:16:33.39Z</time></trkpt><trkpt lat="40.343059" lon="9.6599402"><ele>109.0</ele><time>2026-03-29T09:16:34.382Z</time></trkpt><trkpt lat="40.3430515" lon="9.6600942"><ele>109.0</ele><time>2026-03-29T09:16:35.388Z</time></trkpt><trkpt lat="40.3430441" lon="9.6602419"><ele>109.0</ele><time>2026-03-29T09:16:36.378Z</time></trkpt><trkpt lat="40.3430371" lon="9.6603942"><ele>109.0</ele><time>2026-03-29T09:16:37.383Z</time></trkpt><trkpt lat="40.3430292" lon="9.6605437"><ele>109.0</ele><time>2026-03-29T09:16:38.388Z</time></trkpt><trkpt lat="40.3430243" lon="9.6606944"><ele>108.4</ele><time>2026-03-29T09:16:39.385Z</time></trkpt><trkpt lat="40.3430178" lon="9.6608441"><ele>107.80000000000001</ele><time>2026-03-29T09:16:40.392Z</time></trkpt><trkpt lat="40.3430112" lon="9.6609901"><ele>107.19999999999999</ele><time>2026-03-29T09:16:41.383Z</time></trkpt><trkpt lat="40.3430063" lon="9.6611362"><ele>106.6</ele><time>2026-03-29T09:16:42.389Z</time></trkpt><trkpt lat="40.3430023" lon="9.66128"><ele>106.0</ele><time>2026-03-29T09:16:43.392Z</time></trkpt><trkpt lat="40.3429975" lon="9.6614219"><ele>105.0</ele><time>2026-03-29T09:16:44.379Z</time></trkpt><trkpt lat="40.3429911" lon="9.6615655"><ele>104.0</ele><time>2026-03-29T09:16:45.382Z</time></trkpt><trkpt lat="40.3429855" lon="9.6617035"><ele>103.0</ele><time>2026-03-29T09:16:46.388Z</time></trkpt><trkpt lat="40.3429805" lon="9.6618364"><ele>102.0</ele><time>2026-03-29T09:16:47.395Z</time></trkpt><trkpt lat="40.3429763" lon="9.6619598"><ele>101.0</ele><time>2026-03-29T09:16:48.383Z</time></trkpt><trkpt lat="40.3429694" lon="9.6620801"><ele>100.19999999999999</ele><time>2026-03-29T09:16:49.392Z</time></trkpt><trkpt lat="40.3429663" lon="9.6622012"><ele>99.39999999999999</ele><time>2026-03-29T09:16:50.386Z</time></trkpt><trkpt lat="40.3429634" lon="9.6623224"><ele>98.6</ele><time>2026-03-29T09:16:51.393Z</time></trkpt><trkpt lat="40.3429601" lon="9.6624495"><ele>97.8</ele><time>2026-03-29T09:16:52.379Z</time></trkpt><trkpt lat="40.3429565" lon="9.6625789"><ele>97.0</ele><time>2026-03-29T09:16:53.393Z</time></trkpt><trkpt lat="40.3429527" lon="9.6627086"><ele>96.0</ele><time>2026-03-29T09:16:54.387Z</time></trkpt><trkpt lat="40.3429456" lon="9.6628444"><ele>95.0</ele><time>2026-03-29T09:16:55.38Z</time></trkpt><trkpt lat="40.3429386" lon="9.6629818"><ele>94.0</ele><time>2026-03-29T09:16:56.385Z</time></trkpt><trkpt lat="40.342931" lon="9.6631203"><ele>93.0</ele><time>2026-03-29T09:16:57.385Z</time></trkpt><trkpt lat="40.3429293" lon="9.6632547"><ele>92.0</ele><time>2026-03-29T09:16:58.387Z</time></trkpt><trkpt lat="40.3429336" lon="9.6633875"><ele>92.0</ele><time>2026-03-29T09:16:59.4Z</time></trkpt><trkpt lat="40.3429393" lon="9.6635222"><ele>92.0</ele><time>2026-03-29T09:17:00.383Z</time></trkpt><trkpt lat="40.3429567" lon="9.6636609"><ele>92.0</ele><time>2026-03-29T09:17:01.395Z</time></trkpt><trkpt lat="40.3429747" lon="9.6637948"><ele>92.0</ele><time>2026-03-29T09:17:02.382Z</time></trkpt><trkpt lat="40.3429916" lon="9.6639212"><ele>92.0</ele><time>2026-03-29T09:17:03.383Z</time></trkpt><trkpt lat="40.3430092" lon="9.664042"><ele>91.33333333333334</ele><time>2026-03-29T09:17:04.387Z</time></trkpt><trkpt lat="40.3430262" lon="9.664146"><ele>90.66666666666667</ele><time>2026-03-29T09:17:05.383Z</time></trkpt><trkpt lat="40.3430482" lon="9.6642388"><ele>90.0</ele><time>2026-03-29T09:17:06.4Z</time></trkpt><trkpt lat="40.3430844" lon="9.6643253"><ele>89.33333333333333</ele><time>2026-03-29T09:17:07.385Z</time></trkpt><trkpt lat="40.3431358" lon="9.664408"><ele>88.66666666666666</ele><time>2026-03-29T09:17:08.385Z</time></trkpt><trkpt lat="40.3431909" lon="9.6644938"><ele>88.0</ele><time>2026-03-29T09:17:09.388Z</time></trkpt><trkpt lat="40.343275" lon="9.6645831"><ele>86.0</ele><time>2026-03-29T09:17:10.382Z</time></trkpt><trkpt lat="40.3433687" lon="9.6646836"><ele>84.0</ele><time>2026-03-29T09:17:11.392Z</time></trkpt><trkpt lat="40.3434673" lon="9.6647891"><ele>82.0</ele><time>2026-03-29T09:17:12.386Z</time></trkpt><trkpt lat="40.3435705" lon="9.66491"><ele>80.0</ele><time>2026-03-29T09:17:13.387Z</time></trkpt><trkpt lat="40.3436683" lon="9.6650207"><ele>80.0</ele><time>2026-03-29T09:17:14.389Z</time></trkpt><trkpt lat="40.3437655" lon="9.6651213"><ele>80.0</ele><time>2026-03-29T09:17:15.397Z</time></trkpt><trkpt lat="40.3438542" lon="9.6652163"><ele>80.0</ele><time>2026-03-29T09:17:16.386Z</time></trkpt><trkpt lat="40.3439387" lon="9.6653085"><ele>80.0</ele><time>2026-03-29T09:17:17.389Z</time></trkpt><trkpt lat="40.3440217" lon="9.6654074"><ele>79.2</ele><time>2026-03-29T09:17:18.389Z</time></trkpt><trkpt lat="40.3441011" lon="9.6655149"><ele>78.4</ele><time>2026-03-29T09:17:19.393Z</time></trkpt><trkpt lat="40.3441796" lon="9.6656197"><ele>77.6</ele><time>2026-03-29T09:17:20.383Z</time></trkpt><trkpt lat="40.3442476" lon="9.665729"><ele>76.8</ele><time>2026-03-29T09:17:21.405Z</time></trkpt><trkpt lat="40.3443157" lon="9.6658316"><ele>76.0</ele><time>2026-03-29T09:17:22.385Z</time></trkpt><trkpt lat="40.3443733" lon="9.6659309"><ele>76.0</ele><time>2026-03-29T09:17:23.386Z</time></trkpt><trkpt lat="40.3444271" lon="9.6660289"><ele>76.0</ele><time>2026-03-29T09:17:24.389Z</time></trkpt><trkpt lat="40.3444791" lon="9.6661312"><ele>76.0</ele><time>2026-03-29T09:17:25.382Z</time></trkpt><trkpt lat="40.3445296" lon="9.6662473"><ele>76.0</ele><time>2026-03-29T09:17:26.398Z</time></trkpt><trkpt lat="40.3445691" lon="9.6663801"><ele>76.0</ele><time>2026-03-29T09:17:27.392Z</time></trkpt><trkpt lat="40.344609" lon="9.6665161"><ele>75.0</ele><time>2026-03-29T09:17:28.382Z</time></trkpt><trkpt lat="40.3446468" lon="9.666645"><ele>74.0</ele><time>2026-03-29T09:17:29.386Z</time></trkpt><trkpt lat="40.3446888" lon="9.6667753"><ele>73.0</ele><time>2026-03-29T09:17:30.385Z</time></trkpt><trkpt lat="40.3447352" lon="9.6669141"><ele>72.0</ele><time>2026-03-29T09:17:31.388Z</time></trkpt><trkpt lat="40.3447821" lon="9.6670573"><ele>71.0</ele><time>2026-03-29T09:17:32.406Z</time></trkpt><trkpt lat="40.3448197" lon="9.6671988"><ele>69.33333333333334</ele><time>2026-03-29T09:17:33.39Z</time></trkpt><trkpt lat="40.3448467" lon="9.6673349"><ele>67.66666666666667</ele><time>2026-03-29T09:17:34.387Z</time></trkpt><trkpt lat="40.3448754" lon="9.6674498"><ele>66.0</ele><time>2026-03-29T09:17:35.383Z</time></trkpt><trkpt lat="40.3449133" lon="9.6675424"><ele>64.33333333333333</ele><time>2026-03-29T09:17:36.386Z</time></trkpt><trkpt lat="40.3449508" lon="9.6676317"><ele>62.666666666666664</ele><time>2026-03-29T09:17:37.389Z</time></trkpt><trkpt lat="40.3450021" lon="9.6676943"><ele>61.0</ele><time>2026-03-29T09:17:38.386Z</time></trkpt><trkpt lat="40.3450625" lon="9.6677266"><ele>60.99999999999999</ele><time>2026-03-29T09:17:39.392Z</time></trkpt><trkpt lat="40.3451693" lon="9.6677126"><ele>61.0</ele><time>2026-03-29T09:17:41.4Z</time></trkpt><trkpt lat="40.3452238" lon="9.6676706"><ele>61.0</ele><time>2026-03-29T09:17:42.386Z</time></trkpt><trkpt lat="40.3452751" lon="9.6676001"><ele>61.0</ele><time>2026-03-29T09:17:43.389Z</time></trkpt><trkpt lat="40.34533" lon="9.6675009"><ele>60.99999999999999</ele><time>2026-03-29T09:17:44.381Z</time></trkpt><trkpt lat="40.3453952" lon="9.6673841"><ele>61.0</ele><time>2026-03-29T09:17:45.382Z</time></trkpt><trkpt lat="40.3454598" lon="9.6672689"><ele>60.99999999999999</ele><time>2026-03-29T09:17:46.39Z</time></trkpt><trkpt lat="40.3455198" lon="9.6671629"><ele>61.0</ele><time>2026-03-29T09:17:47.391Z</time></trkpt><trkpt lat="40.3455751" lon="9.6670686"><ele>61.0</ele><time>2026-03-29T09:17:48.384Z</time></trkpt><trkpt lat="40.3456282" lon="9.6669931"><ele>61.0</ele><time>2026-03-29T09:17:49.384Z</time></trkpt><trkpt lat="40.3456833" lon="9.6669337"><ele>60.99999999999999</ele><time>2026-03-29T09:17:50.388Z</time></trkpt><trkpt lat="40.3457383" lon="9.6668762"><ele>61.0</ele><time>2026-03-29T09:17:51.383Z</time></trkpt><trkpt lat="40.3458113" lon="9.6668306"><ele>60.25</ele><time>2026-03-29T09:17:52.387Z</time></trkpt><trkpt lat="40.345904" lon="9.6667823"><ele>59.5</ele><time>2026-03-29T09:17:53.386Z</time></trkpt><trkpt lat="40.3460085" lon="9.6667424"><ele>58.75</ele><time>2026-03-29T09:17:54.391Z</time></trkpt><trkpt lat="40.3461203" lon="9.6667008"><ele>58.0</ele><time>2026-03-29T09:17:55.382Z</time></trkpt><trkpt lat="40.3462404" lon="9.6666547"><ele>58.0</ele><time>2026-03-29T09:17:56.387Z</time></trkpt><trkpt lat="40.3463533" lon="9.666616"><ele>58.0</ele><time>2026-03-29T09:17:57.383Z</time></trkpt><trkpt lat="40.3464576" lon="9.6665896"><ele>58.0</ele><time>2026-03-29T09:17:58.388Z</time></trkpt><trkpt lat="40.3465486" lon="9.6665813"><ele>58.0</ele><time>2026-03-29T09:17:59.38Z</time></trkpt><trkpt lat="40.3466326" lon="9.6665989"><ele>58.0</ele><time>2026-03-29T09:18:00.385Z</time></trkpt><trkpt lat="40.3467167" lon="9.6666352"><ele>57.25</ele><time>2026-03-29T09:18:01.386Z</time></trkpt><trkpt lat="40.346806" lon="9.6666749"><ele>56.5</ele><time>2026-03-29T09:18:02.386Z</time></trkpt><trkpt lat="40.3469127" lon="9.6667321"><ele>55.75</ele><time>2026-03-29T09:18:03.387Z</time></trkpt><trkpt lat="40.3470263" lon="9.666796"><ele>55.0</ele><time>2026-03-29T09:18:04.382Z</time></trkpt><trkpt lat="40.3471359" lon="9.6668577"><ele>55.4</ele><time>2026-03-29T09:18:05.404Z</time></trkpt><trkpt lat="40.3472315" lon="9.6669171"><ele>55.8</ele><time>2026-03-29T09:18:06.388Z</time></trkpt><trkpt lat="40.3473103" lon="9.6669758"><ele>56.2</ele><time>2026-03-29T09:18:07.381Z</time></trkpt><trkpt lat="40.3473812" lon="9.6670247"><ele>56.6</ele><time>2026-03-29T09:18:08.38Z</time></trkpt><trkpt lat="40.3474084" lon="9.6671761"><ele>57.0</ele><time>2026-03-29T09:18:10.384Z</time></trkpt><trkpt lat="40.347391" lon="9.6672569"><ele>57.400000000000006</ele><time>2026-03-29T09:18:11.387Z</time></trkpt><trkpt lat="40.3473558" lon="9.6673525"><ele>57.800000000000004</ele><time>2026-03-29T09:18:12.38Z</time></trkpt><trkpt lat="40.3473043" lon="9.66746"><ele>58.2</ele><time>2026-03-29T09:18:13.389Z</time></trkpt><trkpt lat="40.3472494" lon="9.6675742"><ele>58.6</ele><time>2026-03-29T09:18:14.377Z</time></trkpt><trkpt lat="40.3471935" lon="9.6676972"><ele>59.0</ele><time>2026-03-29T09:18:15.381Z</time></trkpt><trkpt lat="40.3471549" lon="9.6678217"><ele>59.400000000000006</ele><time>2026-03-29T09:18:16.383Z</time></trkpt><trkpt lat="40.3471466" lon="9.6679385"><ele>59.800000000000004</ele><time>2026-03-29T09:18:17.386Z</time></trkpt><trkpt lat="40.3471799" lon="9.6680502"><ele>60.199999999999996</ele><time>2026-03-29T09:18:18.378Z</time></trkpt><trkpt lat="40.3472386" lon="9.668164"><ele>60.599999999999994</ele><time>2026-03-29T09:18:19.381Z</time></trkpt><trkpt lat="40.3473106" lon="9.6682865"><ele>61.0</ele><time>2026-03-29T09:18:20.383Z</time></trkpt><trkpt lat="40.3473917" lon="9.6684239"><ele>61.0</ele><time>2026-03-29T09:18:21.378Z</time></trkpt><trkpt lat="40.3474774" lon="9.6685803"><ele>61.0</ele><time>2026-03-29T09:18:22.384Z</time></trkpt><trkpt lat="40.3475644" lon="9.6687422"><ele>61.0</ele><time>2026-03-29T09:18:23.383Z</time></trkpt><trkpt lat="40.347661" lon="9.6688923"><ele>61.0</ele><time>2026-03-29T09:18:24.384Z</time></trkpt><trkpt lat="40.3477659" lon="9.66903"><ele>60.33333333333333</ele><time>2026-03-29T09:18:25.379Z</time></trkpt><trkpt lat="40.347878" lon="9.6691594"><ele>59.66666666666667</ele><time>2026-03-29T09:18:26.384Z</time></trkpt><trkpt lat="40.3479961" lon="9.6692869"><ele>59.0</ele><time>2026-03-29T09:18:27.384Z</time></trkpt><trkpt lat="40.3481155" lon="9.6694138"><ele>59.333333333333336</ele><time>2026-03-29T09:18:28.384Z</time></trkpt><trkpt lat="40.3482363" lon="9.6695441"><ele>59.66666666666667</ele><time>2026-03-29T09:18:29.387Z</time></trkpt><trkpt lat="40.3483588" lon="9.6696755"><ele>60.0</ele><time>2026-03-29T09:18:30.386Z</time></trkpt><trkpt lat="40.3484802" lon="9.6698031"><ele>60.0</ele><time>2026-03-29T09:18:31.381Z</time></trkpt><trkpt lat="40.3485972" lon="9.6699279"><ele>60.0</ele><time>2026-03-29T09:18:32.39Z</time></trkpt><trkpt lat="40.3487117" lon="9.6700521"><ele>60.0</ele><time>2026-03-29T09:18:33.389Z</time></trkpt><trkpt lat="40.3488235" lon="9.6701739"><ele>60.0</ele><time>2026-03-29T09:18:34.383Z</time></trkpt><trkpt lat="40.3489321" lon="9.6702879"><ele>59.0</ele><time>2026-03-29T09:18:35.387Z</time></trkpt><trkpt lat="40.3490336" lon="9.6703959"><ele>58.0</ele><time>2026-03-29T09:18:36.387Z</time></trkpt><trkpt lat="40.3491281" lon="9.6704943"><ele>57.0</ele><time>2026-03-29T09:18:37.382Z</time></trkpt><trkpt lat="40.3492223" lon="9.6705922"><ele>56.0</ele><time>2026-03-29T09:18:38.394Z</time></trkpt><trkpt lat="40.3493164" lon="9.6706908"><ele>56.0</ele><time>2026-03-29T09:18:39.382Z</time></trkpt><trkpt lat="40.3494097" lon="9.6707942"><ele>56.0</ele><time>2026-03-29T09:18:40.392Z</time></trkpt><trkpt lat="40.3495035" lon="9.6708963"><ele>56.0</ele><time>2026-03-29T09:18:41.393Z</time></trkpt><trkpt lat="40.3495958" lon="9.6709966"><ele>56.0</ele><time>2026-03-29T09:18:42.389Z</time></trkpt><trkpt lat="40.3496865" lon="9.6710967"><ele>55.75</ele><time>2026-03-29T09:18:43.394Z</time></trkpt><trkpt lat="40.3497774" lon="9.671195"><ele>55.5</ele><time>2026-03-29T09:18:44.386Z</time></trkpt><trkpt lat="40.3498673" lon="9.6712912"><ele>55.25</ele><time>2026-03-29T09:18:45.386Z</time></trkpt><trkpt lat="40.3499572" lon="9.671387"><ele>55.0</ele><time>2026-03-29T09:18:46.388Z</time></trkpt><trkpt lat="40.3500451" lon="9.6714842"><ele>55.0</ele><time>2026-03-29T09:18:47.394Z</time></trkpt><trkpt lat="40.3501324" lon="9.6715865"><ele>55.0</ele><time>2026-03-29T09:18:48.384Z</time></trkpt><trkpt lat="40.3502156" lon="9.6717012"><ele>55.0</ele><time>2026-03-29T09:18:49.393Z</time></trkpt><trkpt lat="40.3502914" lon="9.6718268"><ele>55.0</ele><time>2026-03-29T09:18:50.384Z</time></trkpt><trkpt lat="40.3503605" lon="9.6719613"><ele>54.75</ele><time>2026-03-29T09:18:51.382Z</time></trkpt><trkpt lat="40.3504257" lon="9.6721"><ele>54.5</ele><time>2026-03-29T09:18:52.386Z</time></trkpt><trkpt lat="40.3504904" lon="9.6722391"><ele>54.25</ele><time>2026-03-29T09:18:53.394Z</time></trkpt><trkpt lat="40.3505534" lon="9.6723754"><ele>54.0</ele><time>2026-03-29T09:18:54.383Z</time></trkpt><trkpt lat="40.3506119" lon="9.672505"><ele>53.0</ele><time>2026-03-29T09:18:55.391Z</time></trkpt><trkpt lat="40.3506741" lon="9.6726299"><ele>52.00000000000001</ele><time>2026-03-29T09:18:56.386Z</time></trkpt><trkpt lat="40.3507344" lon="9.6727605"><ele>51.0</ele><time>2026-03-29T09:18:57.389Z</time></trkpt><trkpt lat="40.3507901" lon="9.6728775"><ele>50.0</ele><time>2026-03-29T09:18:58.388Z</time></trkpt><trkpt lat="40.3508469" lon="9.6729928"><ele>49.0</ele><time>2026-03-29T09:18:59.388Z</time></trkpt><trkpt lat="40.3508937" lon="9.6730927"><ele>48.800000000000004</ele><time>2026-03-29T09:19:00.387Z</time></trkpt><trkpt lat="40.3509409" lon="9.6732103"><ele>48.6</ele><time>2026-03-29T09:19:01.387Z</time></trkpt><trkpt lat="40.3509868" lon="9.6733293"><ele>48.4</ele><time>2026-03-29T09:19:02.387Z</time></trkpt><trkpt lat="40.3510332" lon="9.6734553"><ele>48.2</ele><time>2026-03-29T09:19:03.387Z</time></trkpt><trkpt lat="40.3510622" lon="9.6735926"><ele>48.0</ele><time>2026-03-29T09:19:04.391Z</time></trkpt><trkpt lat="40.3510727" lon="9.6737416"><ele>47.75</ele><time>2026-03-29T09:19:05.388Z</time></trkpt><trkpt lat="40.3510668" lon="9.6738931"><ele>47.5</ele><time>2026-03-29T09:19:06.388Z</time></trkpt><trkpt lat="40.3510524" lon="9.6740503"><ele>47.25</ele><time>2026-03-29T09:19:07.386Z</time></trkpt><trkpt lat="40.3510368" lon="9.6742123"><ele>47.0</ele><time>2026-03-29T09:19:08.381Z</time></trkpt><trkpt lat="40.3510265" lon="9.6743745"><ele>46.25</ele><time>2026-03-29T09:19:09.387Z</time></trkpt><trkpt lat="40.351022" lon="9.6745349"><ele>45.5</ele><time>2026-03-29T09:19:10.39Z</time></trkpt><trkpt lat="40.3510274" lon="9.6746972"><ele>44.75</ele><time>2026-03-29T09:19:11.383Z</time></trkpt><trkpt lat="40.3510398" lon="9.6748569"><ele>44.0</ele><time>2026-03-29T09:19:12.392Z</time></trkpt><trkpt lat="40.3510551" lon="9.675016"><ele>44.0</ele><time>2026-03-29T09:19:13.386Z</time></trkpt><trkpt lat="40.351076" lon="9.675177"><ele>44.0</ele><time>2026-03-29T09:19:14.39Z</time></trkpt><trkpt lat="40.3510984" lon="9.6753399"><ele>44.0</ele><time>2026-03-29T09:19:15.388Z</time></trkpt><trkpt lat="40.35112" lon="9.6755026"><ele>44.0</ele><time>2026-03-29T09:19:16.39Z</time></trkpt><trkpt lat="40.3511394" lon="9.6756631"><ele>42.75</ele><time>2026-03-29T09:19:17.387Z</time></trkpt><trkpt lat="40.351161" lon="9.6758173"><ele>41.5</ele><time>2026-03-29T09:19:18.386Z</time></trkpt><trkpt lat="40.3511855" lon="9.6759636"><ele>40.25</ele><time>2026-03-29T09:19:19.388Z</time></trkpt><trkpt lat="40.3512213" lon="9.6761039"><ele>39.0</ele><time>2026-03-29T09:19:20.389Z</time></trkpt><trkpt lat="40.3512649" lon="9.6762371"><ele>38.0</ele><time>2026-03-29T09:19:21.401Z</time></trkpt><trkpt lat="40.3513233" lon="9.6763794"><ele>37.0</ele><time>2026-03-29T09:19:22.385Z</time></trkpt><trkpt lat="40.351391" lon="9.6765178"><ele>36.0</ele><time>2026-03-29T09:19:23.385Z</time></trkpt><trkpt lat="40.3514691" lon="9.67666"><ele>35.0</ele><time>2026-03-29T09:19:24.381Z</time></trkpt><trkpt lat="40.3515611" lon="9.6768008"><ele>31.75</ele><time>2026-03-29T09:19:25.382Z</time></trkpt><trkpt lat="40.3516405" lon="9.6769463"><ele>28.5</ele><time>2026-03-29T09:19:26.397Z</time></trkpt><trkpt lat="40.3517191" lon="9.6770895"><ele>25.25</ele><time>2026-03-29T09:19:27.384Z</time></trkpt><trkpt lat="40.3517972" lon="9.6772306"><ele>22.0</ele><time>2026-03-29T09:19:28.382Z</time></trkpt><trkpt lat="40.3518757" lon="9.6773705"><ele>22.0</ele><time>2026-03-29T09:19:29.379Z</time></trkpt><trkpt lat="40.3519559" lon="9.6775082"><ele>22.0</ele><time>2026-03-29T09:19:30.379Z</time></trkpt><trkpt lat="40.3520334" lon="9.6776408"><ele>22.0</ele><time>2026-03-29T09:19:31.39Z</time></trkpt><trkpt lat="40.3521043" lon="9.677765"><ele>22.0</ele><time>2026-03-29T09:19:32.39Z</time></trkpt><trkpt lat="40.3521689" lon="9.6778887"><ele>21.8</ele><time>2026-03-29T09:19:33.392Z</time></trkpt><trkpt lat="40.3522357" lon="9.6780023"><ele>21.6</ele><time>2026-03-29T09:19:34.395Z</time></trkpt><trkpt lat="40.3522948" lon="9.6780922"><ele>21.400000000000002</ele><time>2026-03-29T09:19:35.387Z</time></trkpt><trkpt lat="40.3523733" lon="9.6781918"><ele>21.200000000000003</ele><time>2026-03-29T09:19:36.384Z</time></trkpt><trkpt lat="40.3524586" lon="9.6782878"><ele>21.0</ele><time>2026-03-29T09:19:37.413Z</time></trkpt><trkpt lat="40.3525611" lon="9.6783775"><ele>21.0</ele><time>2026-03-29T09:19:38.386Z</time></trkpt><trkpt lat="40.3526681" lon="9.678458"><ele>21.0</ele><time>2026-03-29T09:19:39.388Z</time></trkpt><trkpt lat="40.3527734" lon="9.6785369"><ele>21.0</ele><time>2026-03-29T09:19:40.391Z</time></trkpt><trkpt lat="40.3528815" lon="9.6786115"><ele>21.0</ele><time>2026-03-29T09:19:41.39Z</time></trkpt><trkpt lat="40.3529911" lon="9.6786822"><ele>21.5</ele><time>2026-03-29T09:19:42.394Z</time></trkpt><trkpt lat="40.3531018" lon="9.6787502"><ele>22.0</ele><time>2026-03-29T09:19:43.39Z</time></trkpt><trkpt lat="40.3532097" lon="9.6788176"><ele>22.5</ele><time>2026-03-29T09:19:44.417Z</time></trkpt><trkpt lat="40.3533157" lon="9.6788814"><ele>23.0</ele><time>2026-03-29T09:19:45.386Z</time></trkpt><trkpt lat="40.3534258" lon="9.6789479"><ele>23.0</ele><time>2026-03-29T09:19:46.386Z</time></trkpt><trkpt lat="40.3535276" lon="9.6790305"><ele>23.0</ele><time>2026-03-29T09:19:47.385Z</time></trkpt><trkpt lat="40.3536323" lon="9.6790986"><ele>23.0</ele><time>2026-03-29T09:19:48.39Z</time></trkpt><trkpt lat="40.3537365" lon="9.6791689"><ele>23.0</ele><time>2026-03-29T09:19:49.383Z</time></trkpt><trkpt lat="40.353842" lon="9.679234"><ele>24.0</ele><time>2026-03-29T09:19:50.394Z</time></trkpt><trkpt lat="40.3539448" lon="9.679298"><ele>25.0</ele><time>2026-03-29T09:19:51.384Z</time></trkpt><trkpt lat="40.3540504" lon="9.6793606"><ele>26.0</ele><time>2026-03-29T09:19:52.388Z</time></trkpt><trkpt lat="40.3541542" lon="9.6794238"><ele>27.0</ele><time>2026-03-29T09:19:53.386Z</time></trkpt><trkpt lat="40.3542586" lon="9.679488"><ele>27.0</ele><time>2026-03-29T09:19:54.391Z</time></trkpt><trkpt lat="40.3543635" lon="9.6795549"><ele>27.0</ele><time>2026-03-29T09:19:55.381Z</time></trkpt><trkpt lat="40.3544675" lon="9.6796181"><ele>27.0</ele><time>2026-03-29T09:19:56.4Z</time></trkpt><trkpt lat="40.3545773" lon="9.6796911"><ele>27.0</ele><time>2026-03-29T09:19:57.39Z</time></trkpt><trkpt lat="40.3546871" lon="9.6797636"><ele>27.75</ele><time>2026-03-29T09:19:58.394Z</time></trkpt><trkpt lat="40.3547929" lon="9.6798145"><ele>28.5</ele><time>2026-03-29T09:19:59.388Z</time></trkpt><trkpt lat="40.354909" lon="9.6798402"><ele>29.25</ele><time>2026-03-29T09:20:00.403Z</time></trkpt><trkpt lat="40.3550316" lon="9.6798407"><ele>30.0</ele><time>2026-03-29T09:20:01.389Z</time></trkpt><trkpt lat="40.3551589" lon="9.6798113"><ele>30.0</ele><time>2026-03-29T09:20:02.389Z</time></trkpt><trkpt lat="40.3552924" lon="9.6797625"><ele>30.0</ele><time>2026-03-29T09:20:03.393Z</time></trkpt><trkpt lat="40.3554352" lon="9.6797084"><ele>30.0</ele><time>2026-03-29T09:20:04.39Z</time></trkpt><trkpt lat="40.3555768" lon="9.6796551"><ele>30.0</ele><time>2026-03-29T09:20:05.386Z</time></trkpt><trkpt lat="40.3557034" lon="9.679605"><ele>30.5</ele><time>2026-03-29T09:20:06.386Z</time></trkpt><trkpt lat="40.3558255" lon="9.6795603"><ele>31.0</ele><time>2026-03-29T09:20:07.389Z</time></trkpt><trkpt lat="40.3559472" lon="9.6795348"><ele>31.5</ele><time>2026-03-29T09:20:08.39Z</time></trkpt><trkpt lat="40.3560642" lon="9.6795373"><ele>32.0</ele><time>2026-03-29T09:20:09.395Z</time></trkpt><trkpt lat="40.3561779" lon="9.6795621"><ele>32.0</ele><time>2026-03-29T09:20:10.397Z</time></trkpt><trkpt lat="40.3562796" lon="9.6795933"><ele>32.0</ele><time>2026-03-29T09:20:11.388Z</time></trkpt><trkpt lat="40.3563797" lon="9.6796266"><ele>32.0</ele><time>2026-03-29T09:20:12.389Z</time></trkpt><trkpt lat="40.3564814" lon="9.6796529"><ele>32.0</ele><time>2026-03-29T09:20:13.394Z</time></trkpt><trkpt lat="40.3565974" lon="9.6796875"><ele>32.0</ele><time>2026-03-29T09:20:14.382Z</time></trkpt><trkpt lat="40.3567271" lon="9.6797253"><ele>32.666666666666664</ele><time>2026-03-29T09:20:15.395Z</time></trkpt><trkpt lat="40.3568688" lon="9.6797664"><ele>33.333333333333336</ele><time>2026-03-29T09:20:16.385Z</time></trkpt><trkpt lat="40.3570224" lon="9.6798125"><ele>34.0</ele><time>2026-03-29T09:20:17.393Z</time></trkpt><trkpt lat="40.357176" lon="9.6798624"><ele>34.0</ele><time>2026-03-29T09:20:18.388Z</time></trkpt><trkpt lat="40.3573187" lon="9.6799077"><ele>34.0</ele><time>2026-03-29T09:20:19.389Z</time></trkpt><trkpt lat="40.3574525" lon="9.6799506"><ele>34.0</ele><time>2026-03-29T09:20:20.408Z</time></trkpt><trkpt lat="40.3575858" lon="9.6799958"><ele>34.0</ele><time>2026-03-29T09:20:21.39Z</time></trkpt><trkpt lat="40.3577206" lon="9.6800439"><ele>34.0</ele><time>2026-03-29T09:20:22.385Z</time></trkpt><trkpt lat="40.3578568" lon="9.6801003"><ele>34.0</ele><time>2026-03-29T09:20:23.385Z</time></trkpt><trkpt lat="40.3579964" lon="9.6801631"><ele>34.0</ele><time>2026-03-29T09:20:24.387Z</time></trkpt><trkpt lat="40.3581336" lon="9.680231"><ele>34.0</ele><time>2026-03-29T09:20:25.386Z</time></trkpt><trkpt lat="40.3582733" lon="9.6803022"><ele>32.75</ele><time>2026-03-29T09:20:26.381Z</time></trkpt><trkpt lat="40.358414" lon="9.6803705"><ele>31.5</ele><time>2026-03-29T09:20:27.388Z</time></trkpt><trkpt lat="40.3585529" lon="9.6804274"><ele>30.25</ele><time>2026-03-29T09:20:28.382Z</time></trkpt><trkpt lat="40.3586922" lon="9.6804646"><ele>29.0</ele><time>2026-03-29T09:20:29.386Z</time></trkpt><trkpt lat="40.358831" lon="9.680489"><ele>29.25</ele><time>2026-03-29T09:20:30.38Z</time></trkpt><trkpt lat="40.3589698" lon="9.6805076"><ele>29.5</ele><time>2026-03-29T09:20:31.382Z</time></trkpt><trkpt lat="40.3591079" lon="9.6805238"><ele>29.75</ele><time>2026-03-29T09:20:32.383Z</time></trkpt><trkpt lat="40.3592426" lon="9.6805362"><ele>30.0</ele><time>2026-03-29T09:20:33.384Z</time></trkpt><trkpt lat="40.3593664" lon="9.6805426"><ele>30.0</ele><time>2026-03-29T09:20:34.393Z</time></trkpt><trkpt lat="40.3594805" lon="9.6805362"><ele>30.0</ele><time>2026-03-29T09:20:35.386Z</time></trkpt><trkpt lat="40.3595923" lon="9.6805109"><ele>30.0</ele><time>2026-03-29T09:20:36.387Z</time></trkpt><trkpt lat="40.3597065" lon="9.6804586"><ele>30.0</ele><time>2026-03-29T09:20:37.384Z</time></trkpt><trkpt lat="40.3598189" lon="9.6803807"><ele>30.0</ele><time>2026-03-29T09:20:38.383Z</time></trkpt><trkpt lat="40.3599305" lon="9.6802994"><ele>30.0</ele><time>2026-03-29T09:20:39.387Z</time></trkpt><trkpt lat="40.3600309" lon="9.6802045"><ele>30.0</ele><time>2026-03-29T09:20:40.383Z</time></trkpt><trkpt lat="40.360122" lon="9.680118"><ele>30.0</ele><time>2026-03-29T09:20:41.386Z</time></trkpt><trkpt lat="40.3602152" lon="9.6800286"><ele>30.8</ele><time>2026-03-29T09:20:42.391Z</time></trkpt><trkpt lat="40.3603085" lon="9.6799368"><ele>31.6</ele><time>2026-03-29T09:20:43.405Z</time></trkpt><trkpt lat="40.3603945" lon="9.6798516"><ele>32.4</ele><time>2026-03-29T09:20:44.385Z</time></trkpt><trkpt lat="40.3604637" lon="9.6797819"><ele>33.2</ele><time>2026-03-29T09:20:45.384Z</time></trkpt><trkpt lat="40.3605261" lon="9.6797256"><ele>34.0</ele><time>2026-03-29T09:20:46.382Z</time></trkpt><trkpt lat="40.3606238" lon="9.6796714"><ele>34.0</ele><time>2026-03-29T09:20:48.378Z</time></trkpt><trkpt lat="40.360701" lon="9.6797351"><ele>34.0</ele><time>2026-03-29T09:20:50.385Z</time></trkpt><trkpt lat="40.3607223" lon="9.6799233"><ele>34.0</ele><time>2026-03-29T09:20:52.389Z</time></trkpt><trkpt lat="40.3607135" lon="9.6800707"><ele>34.0</ele><time>2026-03-29T09:20:53.383Z</time></trkpt><trkpt lat="40.3607038" lon="9.6802426"><ele>33.25</ele><time>2026-03-29T09:20:54.383Z</time></trkpt><trkpt lat="40.3606939" lon="9.6804307"><ele>32.5</ele><time>2026-03-29T09:20:55.384Z</time></trkpt><trkpt lat="40.3606828" lon="9.6806303"><ele>31.75</ele><time>2026-03-29T09:20:56.384Z</time></trkpt><trkpt lat="40.3606726" lon="9.6808266"><ele>31.0</ele><time>2026-03-29T09:20:57.401Z</time></trkpt><trkpt lat="40.3606619" lon="9.681023"><ele>30.5</ele><time>2026-03-29T09:20:58.395Z</time></trkpt><trkpt lat="40.3606517" lon="9.6812176"><ele>30.0</ele><time>2026-03-29T09:20:59.383Z</time></trkpt><trkpt lat="40.3606431" lon="9.6814089"><ele>29.5</ele><time>2026-03-29T09:21:00.393Z</time></trkpt><trkpt lat="40.3606346" lon="9.6815934"><ele>29.0</ele><time>2026-03-29T09:21:01.385Z</time></trkpt><trkpt lat="40.3606245" lon="9.6817724"><ele>28.25</ele><time>2026-03-29T09:21:02.384Z</time></trkpt><trkpt lat="40.3606135" lon="9.6819455"><ele>27.5</ele><time>2026-03-29T09:21:03.382Z</time></trkpt><trkpt lat="40.3606006" lon="9.682115"><ele>26.75</ele><time>2026-03-29T09:21:04.381Z</time></trkpt><trkpt lat="40.360582" lon="9.682285"><ele>26.0</ele><time>2026-03-29T09:21:05.386Z</time></trkpt><trkpt lat="40.3605542" lon="9.6824586"><ele>26.25</ele><time>2026-03-29T09:21:06.384Z</time></trkpt><trkpt lat="40.3605182" lon="9.6826287"><ele>26.5</ele><time>2026-03-29T09:21:07.397Z</time></trkpt><trkpt lat="40.360478" lon="9.6827977"><ele>26.75</ele><time>2026-03-29T09:21:08.39Z</time></trkpt><trkpt lat="40.360436" lon="9.6829663"><ele>27.0</ele><time>2026-03-29T09:21:09.391Z</time></trkpt><trkpt lat="40.3603927" lon="9.6831341"><ele>26.0</ele><time>2026-03-29T09:21:10.391Z</time></trkpt><trkpt lat="40.3603489" lon="9.6833047"><ele>25.0</ele><time>2026-03-29T09:21:11.396Z</time></trkpt><trkpt lat="40.3603079" lon="9.6834809"><ele>24.0</ele><time>2026-03-29T09:21:12.389Z</time></trkpt><trkpt lat="40.3602702" lon="9.6836627"><ele>23.0</ele><time>2026-03-29T09:21:13.382Z</time></trkpt><trkpt lat="40.3602361" lon="9.6838451"><ele>21.75</ele><time>2026-03-29T09:21:14.394Z</time></trkpt><trkpt lat="40.3602094" lon="9.6840241"><ele>20.5</ele><time>2026-03-29T09:21:15.386Z</time></trkpt><trkpt lat="40.3601913" lon="9.6842026"><ele>19.25</ele><time>2026-03-29T09:21:16.386Z</time></trkpt><trkpt lat="40.360179" lon="9.6843901"><ele>18.0</ele><time>2026-03-29T09:21:17.392Z</time></trkpt><trkpt lat="40.360171" lon="9.6845881"><ele>17.333333333333332</ele><time>2026-03-29T09:21:18.386Z</time></trkpt><trkpt lat="40.3601649" lon="9.6847926"><ele>16.666666666666664</ele><time>2026-03-29T09:21:19.405Z</time></trkpt><trkpt lat="40.3601619" lon="9.6850007"><ele>16.0</ele><time>2026-03-29T09:21:20.387Z</time></trkpt><trkpt lat="40.360159" lon="9.6851972"><ele>15.0</ele><time>2026-03-29T09:21:21.392Z</time></trkpt><trkpt lat="40.3601514" lon="9.6854147"><ele>14.0</ele><time>2026-03-29T09:21:22.383Z</time></trkpt><trkpt lat="40.360153" lon="9.6856349"><ele>13.0</ele><time>2026-03-29T09:21:23.394Z</time></trkpt><trkpt lat="40.3601619" lon="9.6858552"><ele>13.0</ele><time>2026-03-29T09:21:24.384Z</time></trkpt><trkpt lat="40.3601655" lon="9.6860956"><ele>13.0</ele><time>2026-03-29T09:21:25.382Z</time></trkpt><trkpt lat="40.3601631" lon="9.6863246"><ele>13.0</ele><time>2026-03-29T09:21:26.391Z</time></trkpt><trkpt lat="40.3601602" lon="9.6865478"><ele>13.0</ele><time>2026-03-29T09:21:27.382Z</time></trkpt><trkpt lat="40.3601519" lon="9.6867652"><ele>13.0</ele><time>2026-03-29T09:21:28.386Z</time></trkpt><trkpt lat="40.3601233" lon="9.6869726"><ele>13.0</ele><time>2026-03-29T09:21:29.382Z</time></trkpt><trkpt lat="40.3600703" lon="9.6871739"><ele>12.0</ele><time>2026-03-29T09:21:30.392Z</time></trkpt><trkpt lat="40.3600108" lon="9.6873629"><ele>11.0</ele><time>2026-03-29T09:21:31.381Z</time></trkpt><trkpt lat="40.3599159" lon="9.6875403"><ele>10.0</ele><time>2026-03-29T09:21:32.392Z</time></trkpt><trkpt lat="40.3598284" lon="9.6877178"><ele>9.666666666666668</ele><time>2026-03-29T09:21:33.381Z</time></trkpt><trkpt lat="40.35976" lon="9.6879139"><ele>9.333333333333334</ele><time>2026-03-29T09:21:34.39Z</time></trkpt><trkpt lat="40.3597234" lon="9.6881265"><ele>9.0</ele><time>2026-03-29T09:21:35.387Z</time></trkpt><trkpt lat="40.3596991" lon="9.6883475"><ele>9.0</ele><time>2026-03-29T09:21:36.385Z</time></trkpt><trkpt lat="40.3596695" lon="9.6885728"><ele>9.0</ele><time>2026-03-29T09:21:37.389Z</time></trkpt><trkpt lat="40.3596347" lon="9.6887954"><ele>9.0</ele><time>2026-03-29T09:21:38.388Z</time></trkpt><trkpt lat="40.359564" lon="9.6890175"><ele>8.333333333333334</ele><time>2026-03-29T09:21:39.385Z</time></trkpt><trkpt lat="40.3594903" lon="9.6892335"><ele>7.666666666666667</ele><time>2026-03-29T09:21:40.383Z</time></trkpt><trkpt lat="40.3594201" lon="9.6894553"><ele>7.0</ele><time>2026-03-29T09:21:41.387Z</time></trkpt><trkpt lat="40.3593606" lon="9.6896807"><ele>6.333333333333334</ele><time>2026-03-29T09:21:42.399Z</time></trkpt><trkpt lat="40.3593011" lon="9.6899043"><ele>5.666666666666667</ele><time>2026-03-29T09:21:43.39Z</time></trkpt><trkpt lat="40.3592459" lon="9.6901287"><ele>5.0</ele><time>2026-03-29T09:21:44.394Z</time></trkpt><trkpt lat="40.3591973" lon="9.6903429"><ele>4.666666666666667</ele><time>2026-03-29T09:21:45.382Z</time></trkpt><trkpt lat="40.3591602" lon="9.6905545"><ele>4.333333333333333</ele><time>2026-03-29T09:21:46.385Z</time></trkpt><trkpt lat="40.359123" lon="9.6907615"><ele>4.0</ele><time>2026-03-29T09:21:47.391Z</time></trkpt><trkpt lat="40.3590877" lon="9.6909599"><ele>3.8000000000000003</ele><time>2026-03-29T09:21:48.394Z</time></trkpt><trkpt lat="40.3590583" lon="9.6911369"><ele>3.6000000000000005</ele><time>2026-03-29T09:21:49.386Z</time></trkpt><trkpt lat="40.3590367" lon="9.6912795"><ele>3.4</ele><time>2026-03-29T09:21:50.386Z</time></trkpt><trkpt lat="40.3590159" lon="9.6913924"><ele>3.2</ele><time>2026-03-29T09:21:51.39Z</time></trkpt><trkpt lat="40.358995" lon="9.6914728"><ele>3.0</ele><time>2026-03-29T09:21:52.384Z</time></trkpt><trkpt lat="40.3589148" lon="9.691551"><ele>3.2</ele><time>2026-03-29T09:21:56.393Z</time></trkpt><trkpt lat="40.3588348" lon="9.6914769"><ele>3.4</ele><time>2026-03-29T09:21:58.383Z</time></trkpt><trkpt lat="40.3587767" lon="9.6913912"><ele>3.6000000000000005</ele><time>2026-03-29T09:21:59.39Z</time></trkpt><trkpt lat="40.3587102" lon="9.6912891"><ele>3.8000000000000003</ele><time>2026-03-29T09:22:00.392Z</time></trkpt><trkpt lat="40.3586266" lon="9.6911679"><ele>4.0</ele><time>2026-03-29T09:22:01.387Z</time></trkpt><trkpt lat="40.3585402" lon="9.6910362"><ele>4.0</ele><time>2026-03-29T09:22:02.396Z</time></trkpt><trkpt lat="40.35845" lon="9.6908955"><ele>4.0</ele><time>2026-03-29T09:22:03.384Z</time></trkpt><trkpt lat="40.3583499" lon="9.6907462"><ele>4.0</ele><time>2026-03-29T09:22:04.386Z</time></trkpt><trkpt lat="40.3582412" lon="9.6905911"><ele>4.0</ele><time>2026-03-29T09:22:05.395Z</time></trkpt><trkpt lat="40.3581244" lon="9.6904418"><ele>4.0</ele><time>2026-03-29T09:22:06.384Z</time></trkpt><trkpt lat="40.357999" lon="9.6902959"><ele>4.0</ele><time>2026-03-29T09:22:07.411Z</time></trkpt><trkpt lat="40.3578649" lon="9.6901565"><ele>4.0</ele><time>2026-03-29T09:22:08.386Z</time></trkpt><trkpt lat="40.3577269" lon="9.6900251"><ele>4.0</ele><time>2026-03-29T09:22:09.388Z</time></trkpt><trkpt lat="40.3575911" lon="9.6898992"><ele>4.0</ele><time>2026-03-29T09:22:10.386Z</time></trkpt><trkpt lat="40.3574522" lon="9.6897777"><ele>4.0</ele><time>2026-03-29T09:22:11.386Z</time></trkpt><trkpt lat="40.3573111" lon="9.6896509"><ele>4.0</ele><time>2026-03-29T09:22:12.383Z</time></trkpt><trkpt lat="40.3571729" lon="9.6895208"><ele>4.0</ele><time>2026-03-29T09:22:13.385Z</time></trkpt><trkpt lat="40.3570446" lon="9.6894011"><ele>4.0</ele><time>2026-03-29T09:22:14.386Z</time></trkpt><trkpt lat="40.3569194" lon="9.6892853"><ele>4.0</ele><time>2026-03-29T09:22:15.382Z</time></trkpt><trkpt lat="40.3567942" lon="9.6891711"><ele>4.0</ele><time>2026-03-29T09:22:16.383Z</time></trkpt><trkpt lat="40.35667" lon="9.689059"><ele>4.0</ele><time>2026-03-29T09:22:17.388Z</time></trkpt><trkpt lat="40.3565395" lon="9.6889435"><ele>4.0</ele><time>2026-03-29T09:22:18.384Z</time></trkpt><trkpt lat="40.3564013" lon="9.68883"><ele>4.0</ele><time>2026-03-29T09:22:19.388Z</time></trkpt><trkpt lat="40.3562663" lon="9.6887202"><ele>5.0</ele><time>2026-03-29T09:22:20.384Z</time></trkpt><trkpt lat="40.3561129" lon="9.6886106"><ele>6.0</ele><time>2026-03-29T09:22:21.386Z</time></trkpt><trkpt lat="40.3559538" lon="9.6885242"><ele>7.0</ele><time>2026-03-29T09:22:22.383Z</time></trkpt><trkpt lat="40.3557921" lon="9.6884433"><ele>7.0</ele><time>2026-03-29T09:22:23.385Z</time></trkpt><trkpt lat="40.3556358" lon="9.688369"><ele>7.0</ele><time>2026-03-29T09:22:24.388Z</time></trkpt><trkpt lat="40.3554767" lon="9.6882924"><ele>7.0</ele><time>2026-03-29T09:22:25.386Z</time></trkpt><trkpt lat="40.3553176" lon="9.6882198"><ele>7.0</ele><time>2026-03-29T09:22:26.384Z</time></trkpt><trkpt lat="40.3551599" lon="9.688148"><ele>7.0</ele><time>2026-03-29T09:22:27.384Z</time></trkpt><trkpt lat="40.3550047" lon="9.6880771"><ele>7.0</ele><time>2026-03-29T09:22:28.388Z</time></trkpt><trkpt lat="40.3548536" lon="9.6880084"><ele>6.666666666666667</ele><time>2026-03-29T09:22:29.386Z</time></trkpt><trkpt lat="40.3547033" lon="9.687941"><ele>6.333333333333334</ele><time>2026-03-29T09:22:30.39Z</time></trkpt><trkpt lat="40.3545532" lon="9.6878718"><ele>6.0</ele><time>2026-03-29T09:22:31.383Z</time></trkpt><trkpt lat="40.3544051" lon="9.6878117"><ele>6.333333333333334</ele><time>2026-03-29T09:22:32.382Z</time></trkpt><trkpt lat="40.3542427" lon="9.6877342"><ele>6.666666666666667</ele><time>2026-03-29T09:22:33.383Z</time></trkpt><trkpt lat="40.3540757" lon="9.687658"><ele>7.0</ele><time>2026-03-29T09:22:34.388Z</time></trkpt><trkpt lat="40.3539139" lon="9.687573"><ele>7.0</ele><time>2026-03-29T09:22:35.409Z</time></trkpt><trkpt lat="40.353752" lon="9.687483"><ele>7.0</ele><time>2026-03-29T09:22:36.396Z</time></trkpt><trkpt lat="40.3535937" lon="9.687382"><ele>7.0</ele><time>2026-03-29T09:22:37.38Z</time></trkpt><trkpt lat="40.3534313" lon="9.6872723"><ele>7.0</ele><time>2026-03-29T09:22:38.391Z</time></trkpt><trkpt lat="40.3532757" lon="9.6871655"><ele>7.0</ele><time>2026-03-29T09:22:39.383Z</time></trkpt><trkpt lat="40.3531205" lon="9.6870556"><ele>7.0</ele><time>2026-03-29T09:22:40.379Z</time></trkpt><trkpt lat="40.3529656" lon="9.686946"><ele>7.0</ele><time>2026-03-29T09:22:41.387Z</time></trkpt><trkpt lat="40.3528107" lon="9.6868357"><ele>7.0</ele><time>2026-03-29T09:22:42.379Z</time></trkpt><trkpt lat="40.3526541" lon="9.6867249"><ele>7.0</ele><time>2026-03-29T09:22:43.38Z</time></trkpt><trkpt lat="40.3524994" lon="9.6866186"><ele>7.0</ele><time>2026-03-29T09:22:44.381Z</time></trkpt><trkpt lat="40.3523474" lon="9.6865155"><ele>7.0</ele><time>2026-03-29T09:22:45.394Z</time></trkpt><trkpt lat="40.3522017" lon="9.6864159"><ele>7.0</ele><time>2026-03-29T09:22:46.384Z</time></trkpt><trkpt lat="40.3520587" lon="9.6863227"><ele>7.333333333333334</ele><time>2026-03-29T09:22:47.387Z</time></trkpt><trkpt lat="40.3519138" lon="9.6862357"><ele>7.666666666666666</ele><time>2026-03-29T09:22:48.387Z</time></trkpt><trkpt lat="40.3517677" lon="9.6861509"><ele>8.0</ele><time>2026-03-29T09:22:49.39Z</time></trkpt><trkpt lat="40.3516213" lon="9.686068"><ele>8.0</ele><time>2026-03-29T09:22:50.388Z</time></trkpt><trkpt lat="40.3514739" lon="9.6859939"><ele>8.0</ele><time>2026-03-29T09:22:51.389Z</time></trkpt><trkpt lat="40.3513237" lon="9.685932"><ele>8.0</ele><time>2026-03-29T09:22:52.387Z</time></trkpt><trkpt lat="40.351168" lon="9.6858811"><ele>8.0</ele><time>2026-03-29T09:22:53.385Z</time></trkpt><trkpt lat="40.3510059" lon="9.6858396"><ele>8.0</ele><time>2026-03-29T09:22:54.398Z</time></trkpt><trkpt lat="40.3508377" lon="9.6858052"><ele>8.0</ele><time>2026-03-29T09:22:55.39Z</time></trkpt><trkpt lat="40.3506636" lon="9.6857737"><ele>8.666666666666666</ele><time>2026-03-29T09:22:56.387Z</time></trkpt><trkpt lat="40.3504844" lon="9.6857443"><ele>9.333333333333334</ele><time>2026-03-29T09:22:57.39Z</time></trkpt><trkpt lat="40.3503051" lon="9.6857173"><ele>10.0</ele><time>2026-03-29T09:22:58.384Z</time></trkpt><trkpt lat="40.3501275" lon="9.6856922"><ele>10.0</ele><time>2026-03-29T09:22:59.387Z</time></trkpt><trkpt lat="40.3499519" lon="9.6856672"><ele>10.0</ele><time>2026-03-29T09:23:00.384Z</time></trkpt><trkpt lat="40.3497782" lon="9.6856456"><ele>10.0</ele><time>2026-03-29T09:23:01.389Z</time></trkpt><trkpt lat="40.3496041" lon="9.6856318"><ele>10.0</ele><time>2026-03-29T09:23:02.385Z</time></trkpt><trkpt lat="40.3494289" lon="9.6856271"><ele>10.0</ele><time>2026-03-29T09:23:03.389Z</time></trkpt><trkpt lat="40.3492529" lon="9.6856254"><ele>10.0</ele><time>2026-03-29T09:23:04.395Z</time></trkpt><trkpt lat="40.3490784" lon="9.6856299"><ele>10.0</ele><time>2026-03-29T09:23:05.385Z</time></trkpt><trkpt lat="40.3489045" lon="9.6856413"><ele>10.0</ele><time>2026-03-29T09:23:06.41Z</time></trkpt><trkpt lat="40.348731" lon="9.6856589"><ele>10.0</ele><time>2026-03-29T09:23:07.384Z</time></trkpt><trkpt lat="40.3485574" lon="9.6856807"><ele>10.0</ele><time>2026-03-29T09:23:08.38Z</time></trkpt><trkpt lat="40.3483817" lon="9.6857051"><ele>10.0</ele><time>2026-03-29T09:23:09.394Z</time></trkpt><trkpt lat="40.3482055" lon="9.6857302"><ele>10.0</ele><time>2026-03-29T09:23:10.385Z</time></trkpt><trkpt lat="40.3480265" lon="9.6857541"><ele>10.0</ele><time>2026-03-29T09:23:11.39Z</time></trkpt><trkpt lat="40.3478454" lon="9.6857786"><ele>10.0</ele><time>2026-03-29T09:23:12.387Z</time></trkpt><trkpt lat="40.3476642" lon="9.6858012"><ele>10.0</ele><time>2026-03-29T09:23:13.388Z</time></trkpt><trkpt lat="40.3474923" lon="9.6858141"><ele>10.0</ele><time>2026-03-29T09:23:14.386Z</time></trkpt><trkpt lat="40.3473236" lon="9.6858084"><ele>10.0</ele><time>2026-03-29T09:23:15.392Z</time></trkpt><trkpt lat="40.3471516" lon="9.6857803"><ele>10.0</ele><time>2026-03-29T09:23:16.384Z</time></trkpt><trkpt lat="40.3469785" lon="9.6857401"><ele>8.666666666666668</ele><time>2026-03-29T09:23:17.383Z</time></trkpt><trkpt lat="40.3468059" lon="9.6857091"><ele>7.333333333333334</ele><time>2026-03-29T09:23:18.384Z</time></trkpt><trkpt lat="40.3466305" lon="9.6857023"><ele>6.0</ele><time>2026-03-29T09:23:19.382Z</time></trkpt><trkpt lat="40.3464497" lon="9.6857171"><ele>5.666666666666667</ele><time>2026-03-29T09:23:20.387Z</time></trkpt><trkpt lat="40.3462637" lon="9.6857464"><ele>5.333333333333334</ele><time>2026-03-29T09:23:21.384Z</time></trkpt><trkpt lat="40.3460736" lon="9.6857834"><ele>5.0</ele><time>2026-03-29T09:23:22.38Z</time></trkpt><trkpt lat="40.3458823" lon="9.6858239"><ele>5.0</ele><time>2026-03-29T09:23:23.379Z</time></trkpt><trkpt lat="40.3456914" lon="9.6858628"><ele>5.0</ele><time>2026-03-29T09:23:24.381Z</time></trkpt><trkpt lat="40.3455033" lon="9.6859007"><ele>5.0</ele><time>2026-03-29T09:23:25.386Z</time></trkpt><trkpt lat="40.3453181" lon="9.6859386"><ele>5.333333333333334</ele><time>2026-03-29T09:23:26.379Z</time></trkpt><trkpt lat="40.3451352" lon="9.6859783"><ele>5.666666666666667</ele><time>2026-03-29T09:23:27.391Z</time></trkpt><trkpt lat="40.3449605" lon="9.6860282"><ele>6.0</ele><time>2026-03-29T09:23:28.381Z</time></trkpt><trkpt lat="40.3447914" lon="9.6860988"><ele>5.666666666666667</ele><time>2026-03-29T09:23:29.389Z</time></trkpt><trkpt lat="40.3446264" lon="9.6861864"><ele>5.333333333333334</ele><time>2026-03-29T09:23:30.383Z</time></trkpt><trkpt lat="40.3444697" lon="9.6862727"><ele>5.0</ele><time>2026-03-29T09:23:31.381Z</time></trkpt><trkpt lat="40.3443182" lon="9.6863584"><ele>5.0</ele><time>2026-03-29T09:23:32.388Z</time></trkpt><trkpt lat="40.3441604" lon="9.6863983"><ele>5.0</ele><time>2026-03-29T09:23:33.386Z</time></trkpt><trkpt lat="40.3440028" lon="9.6864128"><ele>5.0</ele><time>2026-03-29T09:23:34.381Z</time></trkpt><trkpt lat="40.3438496" lon="9.6863884"><ele>5.2</ele><time>2026-03-29T09:23:35.386Z</time></trkpt><trkpt lat="40.3437146" lon="9.686341"><ele>5.4</ele><time>2026-03-29T09:23:36.38Z</time></trkpt><trkpt lat="40.3436005" lon="9.6862889"><ele>5.6</ele><time>2026-03-29T09:23:37.388Z</time></trkpt><trkpt lat="40.3435116" lon="9.686236"><ele>5.8</ele><time>2026-03-29T09:23:38.388Z</time></trkpt><trkpt lat="40.3434478" lon="9.6862013"><ele>6.0</ele><time>2026-03-29T09:23:39.388Z</time></trkpt><trkpt lat="40.3433335" lon="9.6861881"><ele>6.0</ele><time>2026-03-29T09:23:41.386Z</time></trkpt><trkpt lat="40.3432412" lon="9.6862359"><ele>6.0</ele><time>2026-03-29T09:23:43.387Z</time></trkpt><trkpt lat="40.3431338" lon="9.6862846"><ele>6.0</ele><time>2026-03-29T09:23:45.386Z</time></trkpt><trkpt lat="40.3430466" lon="9.6863455"><ele>6.0</ele><time>2026-03-29T09:23:47.395Z</time></trkpt><trkpt lat="40.3429759" lon="9.6864134"><ele>6.0</ele><time>2026-03-29T09:23:49.388Z</time></trkpt><trkpt lat="40.342934" lon="9.6865342"><ele>5.75</ele><time>2026-03-29T09:23:51.384Z</time></trkpt><trkpt lat="40.3429059" lon="9.6866588"><ele>5.5</ele><time>2026-03-29T09:23:53.387Z</time></trkpt><trkpt lat="40.3428847" lon="9.6868083"><ele>5.25</ele><time>2026-03-29T09:23:55.391Z</time></trkpt><trkpt lat="40.3428613" lon="9.6869699"><ele>5.0</ele><time>2026-03-29T09:23:57.385Z</time></trkpt><trkpt lat="40.3428275" lon="9.6871132"><ele>4.0</ele><time>2026-03-29T09:23:59.383Z</time></trkpt><trkpt lat="40.342798" lon="9.6872406"><ele>3.0</ele><time>2026-03-29T09:24:01.385Z</time></trkpt><trkpt lat="40.3427603" lon="9.6873768"><ele>2.0</ele><time>2026-03-29T09:24:03.387Z</time></trkpt><trkpt lat="40.3427562" lon="9.6875246"><ele>1.0</ele><time>2026-03-29T09:24:05.392Z</time></trkpt><trkpt lat="40.3428232" lon="9.6876278"><ele>0.0</ele><time>2026-03-29T09:24:07.382Z</time></trkpt><trkpt lat="40.3428792" lon="9.6876769"><ele>0.0</ele><time>2026-03-29T09:24:08.39Z</time></trkpt><trkpt lat="40.3429439" lon="9.6877249"><ele>0.0</ele><time>2026-03-29T09:24:09.392Z</time></trkpt><trkpt lat="40.3430151" lon="9.6877782"><ele>0.0</ele><time>2026-03-29T09:24:10.385Z</time></trkpt><trkpt lat="40.3430797" lon="9.6878278"><ele>0.0</ele><time>2026-03-29T09:24:11.388Z</time></trkpt><trkpt lat="40.3431421" lon="9.6878797"><ele>0.0</ele><time>2026-03-29T09:24:12.39Z</time></trkpt><trkpt lat="40.3432068" lon="9.6879337"><ele>0.0</ele><time>2026-03-29T09:24:13.383Z</time></trkpt><trkpt lat="40.3432747" lon="9.6879794"><ele>0.3333333333333333</ele><time>2026-03-29T09:24:14.391Z</time></trkpt><trkpt lat="40.3433426" lon="9.688012"><ele>0.6666666666666666</ele><time>2026-03-29T09:24:15.391Z</time></trkpt><trkpt lat="40.3434043" lon="9.6880354"><ele>1.0</ele><time>2026-03-29T09:24:16.389Z</time></trkpt><trkpt lat="40.3434845" lon="9.6880305"><ele>1.3333333333333333</ele><time>2026-03-29T09:24:17.392Z</time></trkpt><trkpt lat="40.3435698" lon="9.6880327"><ele>1.6666666666666665</ele><time>2026-03-29T09:24:18.387Z</time></trkpt><trkpt lat="40.3436456" lon="9.6880367"><ele>2.0</ele><time>2026-03-29T09:24:19.396Z</time></trkpt><trkpt lat="40.3437177" lon="9.6880565"><ele>1.9999999999999998</ele><time>2026-03-29T09:24:20.388Z</time></trkpt><trkpt lat="40.3437825" lon="9.688088"><ele>2.0</ele><time>2026-03-29T09:24:21.395Z</time></trkpt><trkpt lat="40.3438475" lon="9.6881243"><ele>2.0</ele><time>2026-03-29T09:24:22.389Z</time></trkpt><trkpt lat="40.343912" lon="9.6881678"><ele>2.0</ele><time>2026-03-29T09:24:23.395Z</time></trkpt><trkpt lat="40.3439693" lon="9.6882174"><ele>1.9999999999999998</ele><time>2026-03-29T09:24:24.39Z</time></trkpt><trkpt lat="40.3440287" lon="9.6882573"><ele>2.0</ele><time>2026-03-29T09:24:25.382Z</time></trkpt><trkpt lat="40.3441207" lon="9.688333"><ele>1.9999999999999998</ele><time>2026-03-29T09:24:27.387Z</time></trkpt><trkpt lat="40.344185" lon="9.6884134"><ele>2.0</ele><time>2026-03-29T09:24:29.385Z</time></trkpt><trkpt lat="40.3442096" lon="9.688526"><ele>2.0</ele><time>2026-03-29T09:24:31.394Z</time></trkpt><trkpt lat="40.3442455" lon="9.6886057"><ele>2.0</ele><time>2026-03-29T09:24:33.388Z</time></trkpt><trkpt lat="40.3442995" lon="9.6886733"><ele>1.9999999999999998</ele><time>2026-03-29T09:24:35.391Z</time></trkpt><trkpt lat="40.3443616" lon="9.6887285"><ele>2.0</ele><time>2026-03-29T09:24:37.388Z</time></trkpt><trkpt lat="40.3444565" lon="9.6888113"><ele>2.4000000000000004</ele><time>2026-03-29T09:24:39.391Z</time></trkpt><trkpt lat="40.3445052" lon="9.688867"><ele>2.8000000000000003</ele><time>2026-03-29T09:24:40.393Z</time></trkpt><trkpt lat="40.3445589" lon="9.6889256"><ele>3.2</ele><time>2026-03-29T09:24:41.386Z</time></trkpt><trkpt lat="40.3446709" lon="9.6890432"><ele>3.6</ele><time>2026-03-29T09:24:43.385Z</time></trkpt><trkpt lat="40.3447342" lon="9.689086"><ele>4.0</ele><time>2026-03-29T09:24:44.395Z</time></trkpt><trkpt lat="40.3448261" lon="9.6891586"><ele>3.9999999999999996</ele><time>2026-03-29T09:24:46.395Z</time></trkpt><trkpt lat="40.3448686" lon="9.6892366"><ele>4.0</ele><time>2026-03-29T09:24:49.388Z</time></trkpt><trkpt lat="40.3448793" lon="9.6893455"><ele>4.0</ele><time>2026-03-29T09:24:52.387Z</time></trkpt><trkpt lat="40.3448946" lon="9.6894525"><ele>4.0</ele><time>2026-03-29T09:25:01.399Z</time></trkpt><trkpt lat="40.3449139" lon="9.689536"><ele>3.9999999999999996</ele><time>2026-03-29T09:25:03.391Z</time></trkpt><trkpt lat="40.3449232" lon="9.6896371"><ele>4.0</ele><time>2026-03-29T09:25:06.392Z</time></trkpt><trkpt lat="40.3449613" lon="9.6897425"><ele>4.800000000000001</ele><time>2026-03-29T09:25:09.387Z</time></trkpt><trkpt lat="40.3450149" lon="9.6897995"><ele>5.6000000000000005</ele><time>2026-03-29T09:25:11.387Z</time></trkpt><trkpt lat="40.345093" lon="9.6898339"><ele>6.4</ele><time>2026-03-29T09:25:13.395Z</time></trkpt><trkpt lat="40.3452217" lon="9.6898776"><ele>7.2</ele><time>2026-03-29T09:25:15.385Z</time></trkpt><trkpt lat="40.3453124" lon="9.6899243"><ele>8.0</ele><time>2026-03-29T09:25:17.384Z</time></trkpt><trkpt lat="40.3454076" lon="9.6899903"><ele>7.999999999999999</ele><time>2026-03-29T09:25:19.388Z</time></trkpt><trkpt lat="40.3454981" lon="9.6900494"><ele>8.0</ele><time>2026-03-29T09:25:21.386Z</time></trkpt><trkpt lat="40.345603" lon="9.6901032"><ele>8.0</ele><time>2026-03-29T09:25:23.383Z</time></trkpt><trkpt lat="40.3456687" lon="9.6901365"><ele>8.0</ele><time>2026-03-29T09:25:24.391Z</time></trkpt><trkpt lat="40.3457358" lon="9.6901738"><ele>7.999999999999999</ele><time>2026-03-29T09:25:25.39Z</time></trkpt><trkpt lat="40.3458084" lon="9.6902113"><ele>8.0</ele><time>2026-03-29T09:25:26.389Z</time></trkpt><trkpt lat="40.3458837" lon="9.6902735"><ele>7.4</ele><time>2026-03-29T09:25:27.387Z</time></trkpt><trkpt lat="40.3459467" lon="9.6903067"><ele>6.800000000000001</ele><time>2026-03-29T09:25:28.387Z</time></trkpt><trkpt lat="40.3460587" lon="9.6903761"><ele>6.2</ele><time>2026-03-29T09:25:30.385Z</time></trkpt><trkpt lat="40.3461706" lon="9.6904683"><ele>5.6</ele><time>2026-03-29T09:25:32.386Z</time></trkpt><trkpt lat="40.3462271" lon="9.6905305"><ele>5.0</ele><time>2026-03-29T09:25:33.397Z</time></trkpt><trkpt lat="40.3462796" lon="9.6905904"><ele>5.0</ele><time>2026-03-29T09:25:34.391Z</time></trkpt><trkpt lat="40.3463322" lon="9.690651"><ele>5.0</ele><time>2026-03-29T09:25:35.387Z</time></trkpt><trkpt lat="40.3463851" lon="9.6907049"><ele>5.0</ele><time>2026-03-29T09:25:36.389Z</time></trkpt><trkpt lat="40.3464375" lon="9.6907524"><ele>5.0</ele><time>2026-03-29T09:25:37.383Z</time></trkpt><trkpt lat="40.3465214" lon="9.6908725"><ele>5.0</ele><time>2026-03-29T09:25:39.39Z</time></trkpt><trkpt lat="40.3465717" lon="9.6909469"><ele>5.0</ele><time>2026-03-29T09:25:40.385Z</time></trkpt><trkpt lat="40.3466235" lon="9.6910201"><ele>5.0</ele><time>2026-03-29T09:25:41.392Z</time></trkpt><trkpt lat="40.3466713" lon="9.6910786"><ele>5.0</ele><time>2026-03-29T09:25:42.386Z</time></trkpt><trkpt lat="40.346733" lon="9.6911287"><ele>5.0</ele><time>2026-03-29T09:25:43.385Z</time></trkpt><trkpt lat="40.3468007" lon="9.6911746"><ele>5.0</ele><time>2026-03-29T09:25:44.39Z</time></trkpt><trkpt lat="40.3468748" lon="9.691212"><ele>5.0</ele><time>2026-03-29T09:25:45.383Z</time></trkpt><trkpt lat="40.3469558" lon="9.6912531"><ele>5.0</ele><time>2026-03-29T09:25:46.386Z</time></trkpt><trkpt lat="40.3470389" lon="9.6912931"><ele>5.0</ele><time>2026-03-29T09:25:47.387Z</time></trkpt><trkpt lat="40.3471183" lon="9.6913392"><ele>5.0</ele><time>2026-03-29T09:25:48.386Z</time></trkpt><trkpt lat="40.3472077" lon="9.6913953"><ele>5.0</ele><time>2026-03-29T09:25:49.39Z</time></trkpt><trkpt lat="40.3472953" lon="9.6914555"><ele>5.0</ele><time>2026-03-29T09:25:50.39Z</time></trkpt><trkpt lat="40.3473814" lon="9.6915205"><ele>5.0</ele><time>2026-03-29T09:25:51.386Z</time></trkpt><trkpt lat="40.3474432" lon="9.6915779"><ele>4.8</ele><time>2026-03-29T09:25:52.406Z</time></trkpt><trkpt lat="40.3475157" lon="9.6916678"><ele>4.6</ele><time>2026-03-29T09:25:53.379Z</time></trkpt><trkpt lat="40.3475835" lon="9.691759"><ele>4.4</ele><time>2026-03-29T09:25:54.388Z</time></trkpt><trkpt lat="40.3476586" lon="9.6918442"><ele>4.2</ele><time>2026-03-29T09:25:55.392Z</time></trkpt><trkpt lat="40.347732" lon="9.6919142"><ele>4.0</ele><time>2026-03-29T09:25:56.386Z</time></trkpt><trkpt lat="40.3478008" lon="9.6919893"><ele>4.0</ele><time>2026-03-29T09:25:57.384Z</time></trkpt><trkpt lat="40.3478707" lon="9.6920599"><ele>4.0</ele><time>2026-03-29T09:25:58.393Z</time></trkpt><trkpt lat="40.3479526" lon="9.6921294"><ele>4.0</ele><time>2026-03-29T09:25:59.387Z</time></trkpt><trkpt lat="40.3480245" lon="9.6921976"><ele>4.0</ele><time>2026-03-29T09:26:00.39Z</time></trkpt><trkpt lat="40.3481004" lon="9.6922702"><ele>4.0</ele><time>2026-03-29T09:26:01.392Z</time></trkpt><trkpt lat="40.3481699" lon="9.692328"><ele>3.9999999999999996</ele><time>2026-03-29T09:26:02.387Z</time></trkpt><trkpt lat="40.3482426" lon="9.6923978"><ele>4.0</ele><time>2026-03-29T09:26:03.388Z</time></trkpt><trkpt lat="40.3483048" lon="9.6924482"><ele>4.0</ele><time>2026-03-29T09:26:04.384Z</time></trkpt><trkpt lat="40.3484172" lon="9.692511"><ele>4.0</ele><time>2026-03-29T09:26:06.385Z</time></trkpt><trkpt lat="40.3484845" lon="9.6925396"><ele>3.9999999999999996</ele><time>2026-03-29T09:26:07.392Z</time></trkpt><trkpt lat="40.3485563" lon="9.6925688"><ele>4.0</ele><time>2026-03-29T09:26:08.382Z</time></trkpt><trkpt lat="40.3486301" lon="9.6926021"><ele>4.0</ele><time>2026-03-29T09:26:09.389Z</time></trkpt><trkpt lat="40.3487143" lon="9.6926602"><ele>4.0</ele><time>2026-03-29T09:26:10.381Z</time></trkpt><trkpt lat="40.3488013" lon="9.6927202"><ele>4.0</ele><time>2026-03-29T09:26:11.39Z</time></trkpt><trkpt lat="40.3488878" lon="9.6927951"><ele>4.0</ele><time>2026-03-29T09:26:12.381Z</time></trkpt><trkpt lat="40.3489721" lon="9.6928655"><ele>4.0</ele><time>2026-03-29T09:26:13.39Z</time></trkpt><trkpt lat="40.34905" lon="9.6929293"><ele>4.5</ele><time>2026-03-29T09:26:14.383Z</time></trkpt><trkpt lat="40.3491191" lon="9.6929882"><ele>5.0</ele><time>2026-03-29T09:26:15.389Z</time></trkpt><trkpt lat="40.3491796" lon="9.6930432"><ele>5.5</ele><time>2026-03-29T09:26:16.389Z</time></trkpt><trkpt lat="40.3492496" lon="9.6931218"><ele>6.0</ele><time>2026-03-29T09:26:17.392Z</time></trkpt><trkpt lat="40.349321" lon="9.6931969"><ele>6.500000000000001</ele><time>2026-03-29T09:26:18.381Z</time></trkpt><trkpt lat="40.3493999" lon="9.6932617"><ele>7.0</ele><time>2026-03-29T09:26:19.385Z</time></trkpt><trkpt lat="40.3494842" lon="9.6933085"><ele>7.000000000000001</ele><time>2026-03-29T09:26:20.382Z</time></trkpt><trkpt lat="40.3495677" lon="9.6933584"><ele>7.0</ele><time>2026-03-29T09:26:21.391Z</time></trkpt><trkpt lat="40.3496509" lon="9.6934106"><ele>7.0</ele><time>2026-03-29T09:26:22.384Z</time></trkpt><trkpt lat="40.3497265" lon="9.6934673"><ele>7.0</ele><time>2026-03-29T09:26:23.391Z</time></trkpt><trkpt lat="40.3497955" lon="9.6935185"><ele>7.000000000000001</ele><time>2026-03-29T09:26:24.389Z</time></trkpt><trkpt lat="40.3498572" lon="9.6935622"><ele>7.0</ele><time>2026-03-29T09:26:25.386Z</time></trkpt><trkpt lat="40.349947" lon="9.6936449"><ele>7.3999999999999995</ele><time>2026-03-29T09:26:27.391Z</time></trkpt><trkpt lat="40.3500244" lon="9.6937384"><ele>7.799999999999999</ele><time>2026-03-29T09:26:29.391Z</time></trkpt><trkpt lat="40.350081" lon="9.6938494"><ele>8.2</ele><time>2026-03-29T09:26:31.393Z</time></trkpt><trkpt lat="40.3501707" lon="9.6939014"><ele>8.6</ele><time>2026-03-29T09:26:33.386Z</time></trkpt><trkpt lat="40.3502915" lon="9.693987"><ele>9.0</ele><time>2026-03-29T09:26:35.385Z</time></trkpt><trkpt lat="40.3503463" lon="9.6940365"><ele>9.0</ele><time>2026-03-29T09:26:36.389Z</time></trkpt><trkpt lat="40.3504355" lon="9.6941137"><ele>9.0</ele><time>2026-03-29T09:26:38.388Z</time></trkpt><trkpt lat="40.350505" lon="9.6942029"><ele>9.0</ele><time>2026-03-29T09:26:40.382Z</time></trkpt><trkpt lat="40.3506103" lon="9.6943278"><ele>9.0</ele><time>2026-03-29T09:26:42.39Z</time></trkpt><trkpt lat="40.3506626" lon="9.6943881"><ele>9.0</ele><time>2026-03-29T09:26:43.383Z</time></trkpt><trkpt lat="40.3507178" lon="9.6944546"><ele>8.6</ele><time>2026-03-29T09:26:44.397Z</time></trkpt><trkpt lat="40.3507719" lon="9.6945273"><ele>8.2</ele><time>2026-03-29T09:26:45.384Z</time></trkpt><trkpt lat="40.3508292" lon="9.6946091"><ele>7.799999999999999</ele><time>2026-03-29T09:26:46.387Z</time></trkpt><trkpt lat="40.350884" lon="9.6947018"><ele>7.3999999999999995</ele><time>2026-03-29T09:26:47.391Z</time></trkpt><trkpt lat="40.350942" lon="9.6947963"><ele>7.0</ele><time>2026-03-29T09:26:48.391Z</time></trkpt><trkpt lat="40.3510118" lon="9.6949082"><ele>7.0</ele><time>2026-03-29T09:26:49.384Z</time></trkpt><trkpt lat="40.3510815" lon="9.6950079"><ele>6.999999999999999</ele><time>2026-03-29T09:26:50.389Z</time></trkpt><trkpt lat="40.3511572" lon="9.6951247"><ele>6.999999999999999</ele><time>2026-03-29T09:26:51.382Z</time></trkpt><trkpt lat="40.3512318" lon="9.6952392"><ele>7.0</ele><time>2026-03-29T09:26:52.389Z</time></trkpt><trkpt lat="40.3513029" lon="9.6953548"><ele>7.0</ele><time>2026-03-29T09:26:53.381Z</time></trkpt><trkpt lat="40.3513771" lon="9.6954758"><ele>7.0</ele><time>2026-03-29T09:26:54.386Z</time></trkpt><trkpt lat="40.3514522" lon="9.6956043"><ele>7.0</ele><time>2026-03-29T09:26:55.383Z</time></trkpt><trkpt lat="40.3515247" lon="9.6957267"><ele>7.0</ele><time>2026-03-29T09:26:56.387Z</time></trkpt><trkpt lat="40.3515999" lon="9.6958493"><ele>7.0</ele><time>2026-03-29T09:26:57.392Z</time></trkpt><trkpt lat="40.3516728" lon="9.6959701"><ele>6.75</ele><time>2026-03-29T09:26:58.387Z</time></trkpt><trkpt lat="40.3517433" lon="9.6960888"><ele>6.5</ele><time>2026-03-29T09:26:59.381Z</time></trkpt><trkpt lat="40.3518147" lon="9.69621"><ele>6.25</ele><time>2026-03-29T09:27:00.383Z</time></trkpt><trkpt lat="40.3518927" lon="9.6963401"><ele>6.0</ele><time>2026-03-29T09:27:01.382Z</time></trkpt><trkpt lat="40.351976" lon="9.6964707"><ele>6.0</ele><time>2026-03-29T09:27:02.383Z</time></trkpt><trkpt lat="40.3520441" lon="9.6965937"><ele>6.0</ele><time>2026-03-29T09:27:03.383Z</time></trkpt><trkpt lat="40.3521166" lon="9.6967044"><ele>6.0</ele><time>2026-03-29T09:27:04.404Z</time></trkpt><trkpt lat="40.3521829" lon="9.6968087"><ele>6.0</ele><time>2026-03-29T09:27:05.384Z</time></trkpt><trkpt lat="40.3522418" lon="9.6968783"><ele>6.0</ele><time>2026-03-29T09:27:06.385Z</time></trkpt><trkpt lat="40.352306" lon="9.6969239"><ele>6.199999999999999</ele><time>2026-03-29T09:27:07.382Z</time></trkpt><trkpt lat="40.3523707" lon="9.6969648"><ele>6.3999999999999995</ele><time>2026-03-29T09:27:08.39Z</time></trkpt><trkpt lat="40.3524356" lon="9.6969736"><ele>6.6</ele><time>2026-03-29T09:27:09.388Z</time></trkpt><trkpt lat="40.3525384" lon="9.6970109"><ele>6.8</ele><time>2026-03-29T09:27:11.388Z</time></trkpt><trkpt lat="40.3526369" lon="9.696988"><ele>7.0</ele><time>2026-03-29T09:27:13.399Z</time></trkpt><trkpt lat="40.3527368" lon="9.6968886"><ele>6.833333333333334</ele><time>2026-03-29T09:27:15.391Z</time></trkpt><trkpt lat="40.3527979" lon="9.6968459"><ele>6.666666666666667</ele><time>2026-03-29T09:27:16.406Z</time></trkpt><trkpt lat="40.3528655" lon="9.6968002"><ele>6.5</ele><time>2026-03-29T09:27:17.381Z</time></trkpt><trkpt lat="40.3529647" lon="9.6967564"><ele>6.333333333333334</ele><time>2026-03-29T09:27:19.379Z</time></trkpt><trkpt lat="40.353039" lon="9.6967613"><ele>6.166666666666667</ele><time>2026-03-29T09:27:22.38Z</time></trkpt><trkpt lat="40.3531099" lon="9.6967946"><ele>6.0</ele><time>2026-03-29T09:27:26.386Z</time></trkpt><trkpt lat="40.3531728" lon="9.6968136"><ele>5.999999999999999</ele><time>2026-03-29T09:27:41.384Z</time></trkpt><trkpt lat="40.3532412" lon="9.6967859"><ele>6.0</ele><time>2026-03-29T09:27:45.387Z</time></trkpt><trkpt lat="40.3532959" lon="9.6967386"><ele>6.0</ele><time>2026-03-29T09:27:47.391Z</time></trkpt><trkpt lat="40.353333" lon="9.6966661"><ele>6.0</ele><time>2026-03-29T09:27:49.382Z</time></trkpt><trkpt lat="40.3533877" lon="9.6965812"><ele>6.0</ele><time>2026-03-29T09:27:52.386Z</time></trkpt><trkpt lat="40.353437" lon="9.6965298"><ele>5.999999999999999</ele><time>2026-03-29T09:27:55.385Z</time></trkpt><trkpt lat="40.3534911" lon="9.6964819"><ele>6.0</ele><time>2026-03-29T09:27:57.388Z</time></trkpt><trkpt lat="40.3535501" lon="9.6964181"><ele>6.0</ele><time>2026-03-29T09:28:00.38Z</time></trkpt><trkpt lat="40.353613" lon="9.6963206"><ele>6.0</ele><time>2026-03-29T09:28:03.386Z</time></trkpt><trkpt lat="40.3536863" lon="9.6962631"><ele>6.0</ele><time>2026-03-29T09:28:05.391Z</time></trkpt><trkpt lat="40.3537907" lon="9.6962032"><ele>6.0</ele><time>2026-03-29T09:28:07.394Z</time></trkpt><trkpt lat="40.3539" lon="9.696201"><ele>6.0</ele><time>2026-03-29T09:28:09.388Z</time></trkpt><trkpt lat="40.3540233" lon="9.6962841"><ele>6.0</ele><time>2026-03-29T09:28:11.384Z</time></trkpt><trkpt lat="40.3540934" lon="9.6963505"><ele>6.0</ele><time>2026-03-29T09:28:12.389Z</time></trkpt><trkpt lat="40.3541706" lon="9.6964253"><ele>6.0</ele><time>2026-03-29T09:28:13.389Z</time></trkpt><trkpt lat="40.3542485" lon="9.6964999"><ele>6.0</ele><time>2026-03-29T09:28:14.39Z</time></trkpt><trkpt lat="40.3543205" lon="9.6965711"><ele>6.0</ele><time>2026-03-29T09:28:15.386Z</time></trkpt><trkpt lat="40.3543969" lon="9.6966415"><ele>6.0</ele><time>2026-03-29T09:28:16.387Z</time></trkpt><trkpt lat="40.354484" lon="9.6967189"><ele>6.0</ele><time>2026-03-29T09:28:17.384Z</time></trkpt><trkpt lat="40.3545715" lon="9.6968015"><ele>6.0</ele><time>2026-03-29T09:28:18.39Z</time></trkpt><trkpt lat="40.3546556" lon="9.6968824"><ele>6.0</ele><time>2026-03-29T09:28:19.384Z</time></trkpt><trkpt lat="40.3547346" lon="9.6969642"><ele>6.0</ele><time>2026-03-29T09:28:20.391Z</time></trkpt><trkpt lat="40.3548102" lon="9.6970531"><ele>5.8</ele><time>2026-03-29T09:28:21.383Z</time></trkpt><trkpt lat="40.3548847" lon="9.6971454"><ele>5.6</ele><time>2026-03-29T09:28:22.387Z</time></trkpt><trkpt lat="40.3549606" lon="9.6972388"><ele>5.4</ele><time>2026-03-29T09:28:23.383Z</time></trkpt><trkpt lat="40.3550387" lon="9.6973324"><ele>5.2</ele><time>2026-03-29T09:28:24.403Z</time></trkpt><trkpt lat="40.3551188" lon="9.69742"><ele>5.0</ele><time>2026-03-29T09:28:25.386Z</time></trkpt><trkpt lat="40.3552044" lon="9.697499"><ele>5.0</ele><time>2026-03-29T09:28:26.391Z</time></trkpt><trkpt lat="40.3552882" lon="9.6975769"><ele>5.0</ele><time>2026-03-29T09:28:27.392Z</time></trkpt><trkpt lat="40.3553741" lon="9.6976407"><ele>5.0</ele><time>2026-03-29T09:28:28.383Z</time></trkpt><trkpt lat="40.3554657" lon="9.6977293"><ele>5.0</ele><time>2026-03-29T09:28:29.385Z</time></trkpt><trkpt lat="40.3555502" lon="9.697814"><ele>5.0</ele><time>2026-03-29T09:28:30.395Z</time></trkpt><trkpt lat="40.3556252" lon="9.6978886"><ele>4.6</ele><time>2026-03-29T09:28:31.385Z</time></trkpt><trkpt lat="40.3556943" lon="9.6979611"><ele>4.2</ele><time>2026-03-29T09:28:32.39Z</time></trkpt><trkpt lat="40.3557603" lon="9.6980435"><ele>3.8</ele><time>2026-03-29T09:28:33.392Z</time></trkpt><trkpt lat="40.3558267" lon="9.6981373"><ele>3.4</ele><time>2026-03-29T09:28:34.383Z</time></trkpt><trkpt lat="40.3558943" lon="9.6982389"><ele>3.0</ele><time>2026-03-29T09:28:35.389Z</time></trkpt><trkpt lat="40.355966" lon="9.698344"><ele>3.0</ele><time>2026-03-29T09:28:36.383Z</time></trkpt><trkpt lat="40.356041" lon="9.6984483"><ele>3.0</ele><time>2026-03-29T09:28:37.383Z</time></trkpt><trkpt lat="40.3561336" lon="9.6985525"><ele>3.0</ele><time>2026-03-29T09:28:38.385Z</time></trkpt><trkpt lat="40.356223" lon="9.6986512"><ele>3.0</ele><time>2026-03-29T09:28:39.382Z</time></trkpt><trkpt lat="40.3563123" lon="9.6987427"><ele>2.8</ele><time>2026-03-29T09:28:40.38Z</time></trkpt><trkpt lat="40.356398" lon="9.6988323"><ele>2.5999999999999996</ele><time>2026-03-29T09:28:41.388Z</time></trkpt><trkpt lat="40.3564772" lon="9.6989165"><ele>2.4000000000000004</ele><time>2026-03-29T09:28:42.383Z</time></trkpt><trkpt lat="40.3565555" lon="9.6989985"><ele>2.2</ele><time>2026-03-29T09:28:43.388Z</time></trkpt><trkpt lat="40.356634" lon="9.6990802"><ele>2.0</ele><time>2026-03-29T09:28:44.384Z</time></trkpt><trkpt lat="40.3567076" lon="9.6991535"><ele>2.0</ele><time>2026-03-29T09:28:45.393Z</time></trkpt><trkpt lat="40.3567683" lon="9.6992606"><ele>2.0</ele><time>2026-03-29T09:28:46.386Z</time></trkpt><trkpt lat="40.3568306" lon="9.6993669"><ele>2.0</ele><time>2026-03-29T09:28:47.393Z</time></trkpt><trkpt lat="40.3568924" lon="9.6994743"><ele>2.0</ele><time>2026-03-29T09:28:48.382Z</time></trkpt><trkpt lat="40.3569631" lon="9.6995827"><ele>2.0</ele><time>2026-03-29T09:28:49.388Z</time></trkpt><trkpt lat="40.3570274" lon="9.6996786"><ele>2.2</ele><time>2026-03-29T09:28:50.382Z</time></trkpt><trkpt lat="40.3570869" lon="9.6997678"><ele>2.4000000000000004</ele><time>2026-03-29T09:28:51.391Z</time></trkpt><trkpt lat="40.3571393" lon="9.6998634"><ele>2.5999999999999996</ele><time>2026-03-29T09:28:52.386Z</time></trkpt><trkpt lat="40.3571827" lon="9.6999725"><ele>2.8</ele><time>2026-03-29T09:28:53.387Z</time></trkpt><trkpt lat="40.3572126" lon="9.7000856"><ele>3.0</ele><time>2026-03-29T09:28:54.386Z</time></trkpt><trkpt lat="40.3572322" lon="9.7001998"><ele>2.5</ele><time>2026-03-29T09:28:55.389Z</time></trkpt><trkpt lat="40.3572506" lon="9.7002979"><ele>2.0</ele><time>2026-03-29T09:28:56.387Z</time></trkpt><trkpt lat="40.3572798" lon="9.7003877"><ele>1.5</ele><time>2026-03-29T09:28:57.393Z</time></trkpt><trkpt lat="40.3573158" lon="9.7004718"><ele>1.0</ele><time>2026-03-29T09:28:58.387Z</time></trkpt><trkpt lat="40.3573546" lon="9.7005394"><ele>0.5</ele><time>2026-03-29T09:28:59.418Z</time></trkpt><trkpt lat="40.3574187" lon="9.7006418"><ele>0.0</ele><time>2026-03-29T09:29:01.39Z</time></trkpt><trkpt lat="40.3574692" lon="9.7006999"><ele>0.0</ele><time>2026-03-29T09:29:03.388Z</time></trkpt><trkpt lat="40.3575576" lon="9.7008386"><ele>0.0</ele><time>2026-03-29T09:37:09.394Z</time></trkpt><trkpt lat="40.3576148" lon="9.7009278"><ele>0.0</ele><time>2026-03-29T09:37:10.384Z</time></trkpt><trkpt lat="40.3576686" lon="9.7010033"><ele>0.0</ele><time>2026-03-29T09:37:11.387Z</time></trkpt><trkpt lat="40.3577228" lon="9.7010839"><ele>0.0</ele><time>2026-03-29T09:37:12.383Z</time></trkpt><trkpt lat="40.3577784" lon="9.7011691"><ele>0.0</ele><time>2026-03-29T09:37:13.383Z</time></trkpt><trkpt lat="40.3578351" lon="9.7012639"><ele>0.0</ele><time>2026-03-29T09:37:14.379Z</time></trkpt><trkpt lat="40.3578929" lon="9.7013643"><ele>0.0</ele><time>2026-03-29T09:37:15.382Z</time></trkpt><trkpt lat="40.3579518" lon="9.7014677"><ele>0.0</ele><time>2026-03-29T09:37:16.382Z</time></trkpt><trkpt lat="40.3580051" lon="9.7015636"><ele>0.0</ele><time>2026-03-29T09:37:17.38Z</time></trkpt><trkpt lat="40.3580509" lon="9.7016511"><ele>0.0</ele><time>2026-03-29T09:37:18.381Z</time></trkpt><trkpt lat="40.3580877" lon="9.701729"><ele>0.0</ele><time>2026-03-29T09:37:19.378Z</time></trkpt><trkpt lat="40.3581229" lon="9.7018023"><ele>0.0</ele><time>2026-03-29T09:37:20.383Z</time></trkpt><trkpt lat="40.3581728" lon="9.7019391"><ele>0.0</ele><time>2026-03-29T09:37:22.383Z</time></trkpt><trkpt lat="40.3582174" lon="9.7020662"><ele>0.0</ele><time>2026-03-29T09:37:24.384Z</time></trkpt><trkpt lat="40.3582765" lon="9.7021923"><ele>0.0</ele><time>2026-03-29T09:37:26.384Z</time></trkpt><trkpt lat="40.3583478" lon="9.7023223"><ele>0.0</ele><time>2026-03-29T09:37:28.4Z</time></trkpt><trkpt lat="40.3583905" lon="9.7023884"><ele>0.0</ele><time>2026-03-29T09:37:29.381Z</time></trkpt><trkpt lat="40.3584376" lon="9.7024617"><ele>0.0</ele><time>2026-03-29T09:37:30.384Z</time></trkpt><trkpt lat="40.3584875" lon="9.7025402"><ele>0.0</ele><time>2026-03-29T09:37:31.386Z</time></trkpt><trkpt lat="40.3585384" lon="9.7026222"><ele>0.0</ele><time>2026-03-29T09:37:32.389Z</time></trkpt><trkpt lat="40.3585936" lon="9.7027086"><ele>0.0</ele><time>2026-03-29T09:37:33.381Z</time></trkpt><trkpt lat="40.358651" lon="9.702798"><ele>0.0</ele><time>2026-03-29T09:37:34.382Z</time></trkpt><trkpt lat="40.3587099" lon="9.7028837"><ele>0.0</ele><time>2026-03-29T09:37:35.385Z</time></trkpt><trkpt lat="40.3587732" lon="9.7029697"><ele>0.0</ele><time>2026-03-29T09:37:36.38Z</time></trkpt><trkpt lat="40.3588399" lon="9.7030482"><ele>0.0</ele><time>2026-03-29T09:37:37.4Z</time></trkpt><trkpt lat="40.3589058" lon="9.7031184"><ele>0.0</ele><time>2026-03-29T09:37:38.381Z</time></trkpt><trkpt lat="40.3589712" lon="9.7031841"><ele>0.0</ele><time>2026-03-29T09:37:39.382Z</time></trkpt><trkpt lat="40.3590372" lon="9.7032465"><ele>0.0</ele><time>2026-03-29T09:37:40.38Z</time></trkpt><trkpt lat="40.359104" lon="9.7033048"><ele>0.0</ele><time>2026-03-29T09:37:41.385Z</time></trkpt><trkpt lat="40.3591711" lon="9.7033619"><ele>0.0</ele><time>2026-03-29T09:37:42.381Z</time></trkpt><trkpt lat="40.359242" lon="9.7034214"><ele>0.0</ele><time>2026-03-29T09:37:43.379Z</time></trkpt><trkpt lat="40.35932" lon="9.703488"><ele>0.0</ele><time>2026-03-29T09:37:44.385Z</time></trkpt><trkpt lat="40.3594054" lon="9.7035658"><ele>0.0</ele><time>2026-03-29T09:37:45.384Z</time></trkpt><trkpt lat="40.3594878" lon="9.7036553"><ele>0.0</ele><time>2026-03-29T09:37:46.385Z</time></trkpt><trkpt lat="40.359573" lon="9.7037572"><ele>0.0</ele><time>2026-03-29T09:37:47.384Z</time></trkpt><trkpt lat="40.359663" lon="9.7038646"><ele>0.0</ele><time>2026-03-29T09:37:48.385Z</time></trkpt><trkpt lat="40.3597595" lon="9.7039738"><ele>-0.25</ele><time>2026-03-29T09:37:49.382Z</time></trkpt><trkpt lat="40.3598633" lon="9.7040819"><ele>-0.5</ele><time>2026-03-29T09:37:50.379Z</time></trkpt><trkpt lat="40.3599679" lon="9.7041857"><ele>-0.75</ele><time>2026-03-29T09:37:51.383Z</time></trkpt><trkpt lat="40.3600717" lon="9.7042855"><ele>-1.0</ele><time>2026-03-29T09:37:52.381Z</time></trkpt><trkpt lat="40.3601734" lon="9.7043954"><ele>-0.75</ele><time>2026-03-29T09:37:53.405Z</time></trkpt><trkpt lat="40.3602679" lon="9.704525"><ele>-0.5</ele><time>2026-03-29T09:37:54.38Z</time></trkpt><trkpt lat="40.3603545" lon="9.7046734"><ele>-0.25</ele><time>2026-03-29T09:37:55.381Z</time></trkpt><trkpt lat="40.3604443" lon="9.7048284"><ele>0.0</ele><time>2026-03-29T09:37:56.383Z</time></trkpt><trkpt lat="40.3605453" lon="9.7049827"><ele>0.0</ele><time>2026-03-29T09:37:57.382Z</time></trkpt><trkpt lat="40.3606597" lon="9.7051305"><ele>0.0</ele><time>2026-03-29T09:37:58.379Z</time></trkpt><trkpt lat="40.3607802" lon="9.7052733"><ele>0.0</ele><time>2026-03-29T09:37:59.381Z</time></trkpt><trkpt lat="40.3609021" lon="9.7054083"><ele>0.3333333333333333</ele><time>2026-03-29T09:38:00.381Z</time></trkpt><trkpt lat="40.361015" lon="9.7055548"><ele>0.6666666666666666</ele><time>2026-03-29T09:38:01.383Z</time></trkpt><trkpt lat="40.3611198" lon="9.7057229"><ele>1.0</ele><time>2026-03-29T09:38:02.391Z</time></trkpt><trkpt lat="40.3612145" lon="9.70589"><ele>1.0</ele><time>2026-03-29T09:38:03.378Z</time></trkpt><trkpt lat="40.3613049" lon="9.7060645"><ele>1.0</ele><time>2026-03-29T09:38:04.376Z</time></trkpt><trkpt lat="40.3613987" lon="9.7062238"><ele>1.0</ele><time>2026-03-29T09:38:05.378Z</time></trkpt><trkpt lat="40.3615028" lon="9.7063602"><ele>1.3333333333333333</ele><time>2026-03-29T09:38:06.379Z</time></trkpt><trkpt lat="40.3616205" lon="9.7064824"><ele>1.6666666666666665</ele><time>2026-03-29T09:38:07.383Z</time></trkpt><trkpt lat="40.3617459" lon="9.7066007"><ele>2.0</ele><time>2026-03-29T09:38:08.384Z</time></trkpt><trkpt lat="40.3618773" lon="9.7067136"><ele>2.0</ele><time>2026-03-29T09:38:09.381Z</time></trkpt><trkpt lat="40.362008" lon="9.7068279"><ele>2.0</ele><time>2026-03-29T09:38:10.382Z</time></trkpt><trkpt lat="40.3621406" lon="9.706946"><ele>2.0</ele><time>2026-03-29T09:38:11.386Z</time></trkpt><trkpt lat="40.3622744" lon="9.7070641"><ele>1.6666666666666665</ele><time>2026-03-29T09:38:12.384Z</time></trkpt><trkpt lat="40.3624128" lon="9.7071768"><ele>1.3333333333333333</ele><time>2026-03-29T09:38:13.396Z</time></trkpt><trkpt lat="40.3625551" lon="9.7072831"><ele>1.0</ele><time>2026-03-29T09:38:14.383Z</time></trkpt><trkpt lat="40.3627002" lon="9.7073816"><ele>1.0</ele><time>2026-03-29T09:38:15.379Z</time></trkpt><trkpt lat="40.3628487" lon="9.7074697"><ele>1.0</ele><time>2026-03-29T09:38:16.384Z</time></trkpt><trkpt lat="40.3630003" lon="9.7075436"><ele>1.0</ele><time>2026-03-29T09:38:17.384Z</time></trkpt><trkpt lat="40.3631585" lon="9.7076083"><ele>0.6666666666666666</ele><time>2026-03-29T09:38:18.381Z</time></trkpt><trkpt lat="40.3633202" lon="9.7076591"><ele>0.3333333333333333</ele><time>2026-03-29T09:38:19.385Z</time></trkpt><trkpt lat="40.3634808" lon="9.7077148"><ele>0.0</ele><time>2026-03-29T09:38:20.383Z</time></trkpt><trkpt lat="40.3636424" lon="9.7077778"><ele>0.0</ele><time>2026-03-29T09:38:21.381Z</time></trkpt><trkpt lat="40.3638079" lon="9.707839"><ele>0.0</ele><time>2026-03-29T09:38:22.384Z</time></trkpt><trkpt lat="40.3639681" lon="9.707897"><ele>0.0</ele><time>2026-03-29T09:38:23.382Z</time></trkpt><trkpt lat="40.364127" lon="9.7079581"><ele>0.0</ele><time>2026-03-29T09:38:24.403Z</time></trkpt><trkpt lat="40.3642879" lon="9.7080115"><ele>0.0</ele><time>2026-03-29T09:38:25.389Z</time></trkpt><trkpt lat="40.364447" lon="9.7080553"><ele>0.0</ele><time>2026-03-29T09:38:26.378Z</time></trkpt><trkpt lat="40.3646132" lon="9.7080843"><ele>0.0</ele><time>2026-03-29T09:38:27.385Z</time></trkpt><trkpt lat="40.3647737" lon="9.7080928"><ele>0.0</ele><time>2026-03-29T09:38:28.38Z</time></trkpt><trkpt lat="40.3649343" lon="9.708082"><ele>0.0</ele><time>2026-03-29T09:38:29.408Z</time></trkpt><trkpt lat="40.3650973" lon="9.7080569"><ele>0.0</ele><time>2026-03-29T09:38:30.386Z</time></trkpt><trkpt lat="40.3652625" lon="9.708021"><ele>0.0</ele><time>2026-03-29T09:38:31.375Z</time></trkpt><trkpt lat="40.3654321" lon="9.7079861"><ele>0.0</ele><time>2026-03-29T09:38:32.382Z</time></trkpt><trkpt lat="40.3655987" lon="9.7079491"><ele>0.3333333333333333</ele><time>2026-03-29T09:38:33.378Z</time></trkpt><trkpt lat="40.3657615" lon="9.707912"><ele>0.6666666666666666</ele><time>2026-03-29T09:38:34.385Z</time></trkpt><trkpt lat="40.3659245" lon="9.7078774"><ele>1.0</ele><time>2026-03-29T09:38:35.381Z</time></trkpt><trkpt lat="40.366087" lon="9.7078401"><ele>1.0</ele><time>2026-03-29T09:38:36.381Z</time></trkpt><trkpt lat="40.3662494" lon="9.7077955"><ele>1.0</ele><time>2026-03-29T09:38:37.381Z</time></trkpt><trkpt lat="40.3664119" lon="9.7077453"><ele>1.0</ele><time>2026-03-29T09:38:38.381Z</time></trkpt><trkpt lat="40.366575" lon="9.7076909"><ele>1.6666666666666665</ele><time>2026-03-29T09:38:39.38Z</time></trkpt><trkpt lat="40.3667339" lon="9.7076359"><ele>2.3333333333333335</ele><time>2026-03-29T09:38:40.379Z</time></trkpt><trkpt lat="40.3668882" lon="9.7075836"><ele>3.0</ele><time>2026-03-29T09:38:41.38Z</time></trkpt><trkpt lat="40.3670371" lon="9.7075294"><ele>3.0</ele><time>2026-03-29T09:38:42.383Z</time></trkpt><trkpt lat="40.3671778" lon="9.7074789"><ele>3.0</ele><time>2026-03-29T09:38:43.382Z</time></trkpt><trkpt lat="40.3673176" lon="9.7074321"><ele>3.0</ele><time>2026-03-29T09:38:44.385Z</time></trkpt><trkpt lat="40.3674529" lon="9.7073865"><ele>3.0</ele><time>2026-03-29T09:38:45.384Z</time></trkpt><trkpt lat="40.3675858" lon="9.7073413"><ele>2.8</ele><time>2026-03-29T09:38:46.395Z</time></trkpt><trkpt lat="40.367708" lon="9.7072983"><ele>2.5999999999999996</ele><time>2026-03-29T09:38:47.378Z</time></trkpt><trkpt lat="40.3678209" lon="9.7072599"><ele>2.4000000000000004</ele><time>2026-03-29T09:38:48.379Z</time></trkpt><trkpt lat="40.3679177" lon="9.7072234"><ele>2.2</ele><time>2026-03-29T09:38:49.383Z</time></trkpt><trkpt lat="40.3679907" lon="9.7072031"><ele>2.0</ele><time>2026-03-29T09:38:50.379Z</time></trkpt><trkpt lat="40.3680541" lon="9.7071841"><ele>1.9999999999999998</ele><time>2026-03-29T09:38:51.38Z</time></trkpt><trkpt lat="40.3681408" lon="9.7071878"><ele>2.0</ele><time>2026-03-29T09:38:53.378Z</time></trkpt><trkpt lat="40.368108" lon="9.7073023"><ele>2.0</ele><time>2026-03-29T09:38:57.389Z</time></trkpt><trkpt lat="40.3680512" lon="9.7073646"><ele>2.0</ele><time>2026-03-29T09:38:58.381Z</time></trkpt><trkpt lat="40.3679866" lon="9.7074426"><ele>1.9999999999999998</ele><time>2026-03-29T09:38:59.384Z</time></trkpt><trkpt lat="40.3679116" lon="9.7075415"><ele>2.0</ele><time>2026-03-29T09:39:00.381Z</time></trkpt><trkpt lat="40.3678257" lon="9.707659"><ele>2.0</ele><time>2026-03-29T09:39:01.387Z</time></trkpt><trkpt lat="40.3677368" lon="9.707785"><ele>2.0</ele><time>2026-03-29T09:39:02.386Z</time></trkpt><trkpt lat="40.3676433" lon="9.7079206"><ele>2.0</ele><time>2026-03-29T09:39:03.382Z</time></trkpt><trkpt lat="40.3675491" lon="9.7080578"><ele>2.0</ele><time>2026-03-29T09:39:04.388Z</time></trkpt><trkpt lat="40.3674546" lon="9.7081997"><ele>2.0</ele><time>2026-03-29T09:39:05.385Z</time></trkpt><trkpt lat="40.3673519" lon="9.708347"><ele>2.0</ele><time>2026-03-29T09:39:06.385Z</time></trkpt><trkpt lat="40.3672468" lon="9.7084901"><ele>2.0</ele><time>2026-03-29T09:39:07.383Z</time></trkpt><trkpt lat="40.3671332" lon="9.7086295"><ele>1.3333333333333333</ele><time>2026-03-29T09:39:08.382Z</time></trkpt><trkpt lat="40.3670135" lon="9.7087582"><ele>0.6666666666666666</ele><time>2026-03-29T09:39:09.389Z</time></trkpt><trkpt lat="40.3668927" lon="9.7088792"><ele>0.0</ele><time>2026-03-29T09:39:10.38Z</time></trkpt><trkpt lat="40.3667713" lon="9.7089972"><ele>0.0</ele><time>2026-03-29T09:39:11.379Z</time></trkpt><trkpt lat="40.3666522" lon="9.7091157"><ele>0.0</ele><time>2026-03-29T09:39:12.383Z</time></trkpt><trkpt lat="40.3665372" lon="9.7092376"><ele>0.0</ele><time>2026-03-29T09:39:13.384Z</time></trkpt><trkpt lat="40.3664271" lon="9.7093646"><ele>0.0</ele><time>2026-03-29T09:39:14.386Z</time></trkpt><trkpt lat="40.3663204" lon="9.7095013"><ele>0.3333333333333333</ele><time>2026-03-29T09:39:15.378Z</time></trkpt><trkpt lat="40.3662183" lon="9.7096498"><ele>0.6666666666666666</ele><time>2026-03-29T09:39:16.383Z</time></trkpt><trkpt lat="40.3661207" lon="9.7098067"><ele>1.0</ele><time>2026-03-29T09:39:17.385Z</time></trkpt><trkpt lat="40.3660261" lon="9.7099689"><ele>1.0</ele><time>2026-03-29T09:39:18.38Z</time></trkpt><trkpt lat="40.3659331" lon="9.7101286"><ele>1.0</ele><time>2026-03-29T09:39:19.385Z</time></trkpt><trkpt lat="40.3658388" lon="9.7102842"><ele>1.0</ele><time>2026-03-29T09:39:20.385Z</time></trkpt><trkpt lat="40.3657459" lon="9.710424"><ele>1.0</ele><time>2026-03-29T09:39:21.406Z</time></trkpt><trkpt lat="40.3656533" lon="9.7105503"><ele>1.0</ele><time>2026-03-29T09:39:22.381Z</time></trkpt><trkpt lat="40.3655607" lon="9.7106709"><ele>1.0</ele><time>2026-03-29T09:39:23.383Z</time></trkpt><trkpt lat="40.3654705" lon="9.7107901"><ele>1.0</ele><time>2026-03-29T09:39:24.379Z</time></trkpt><trkpt lat="40.3653813" lon="9.7109078"><ele>1.0</ele><time>2026-03-29T09:39:25.381Z</time></trkpt><trkpt lat="40.3652951" lon="9.7110194"><ele>1.25</ele><time>2026-03-29T09:39:26.387Z</time></trkpt><trkpt lat="40.3652011" lon="9.7111289"><ele>1.5</ele><time>2026-03-29T09:39:27.383Z</time></trkpt><trkpt lat="40.3650991" lon="9.7112289"><ele>1.75</ele><time>2026-03-29T09:39:28.38Z</time></trkpt><trkpt lat="40.3649961" lon="9.7113266"><ele>2.0</ele><time>2026-03-29T09:39:29.379Z</time></trkpt><trkpt lat="40.3648939" lon="9.711419"><ele>2.0</ele><time>2026-03-29T09:39:30.385Z</time></trkpt><trkpt lat="40.364792" lon="9.7115146"><ele>2.0</ele><time>2026-03-29T09:39:31.383Z</time></trkpt><trkpt lat="40.3646949" lon="9.7116142"><ele>2.0</ele><time>2026-03-29T09:39:32.387Z</time></trkpt><trkpt lat="40.3646047" lon="9.7117223"><ele>2.0</ele><time>2026-03-29T09:39:33.379Z</time></trkpt><trkpt lat="40.3645258" lon="9.7118288"><ele>1.8333333333333333</ele><time>2026-03-29T09:39:34.395Z</time></trkpt><trkpt lat="40.3644594" lon="9.711932"><ele>1.6666666666666665</ele><time>2026-03-29T09:39:35.38Z</time></trkpt><trkpt lat="40.364401" lon="9.7120273"><ele>1.5</ele><time>2026-03-29T09:39:36.385Z</time></trkpt><trkpt lat="40.3643658" lon="9.7121192"><ele>1.3333333333333333</ele><time>2026-03-29T09:39:37.379Z</time></trkpt><trkpt lat="40.3643607" lon="9.7122102"><ele>1.1666666666666665</ele><time>2026-03-29T09:39:38.375Z</time></trkpt><trkpt lat="40.364386" lon="9.7122914"><ele>1.0</ele><time>2026-03-29T09:39:39.404Z</time></trkpt><trkpt lat="40.3644317" lon="9.7123704"><ele>1.0</ele><time>2026-03-29T09:39:40.384Z</time></trkpt><trkpt lat="40.3644908" lon="9.7124485"><ele>1.0</ele><time>2026-03-29T09:39:41.379Z</time></trkpt><trkpt lat="40.3645606" lon="9.7125352"><ele>1.0</ele><time>2026-03-29T09:39:42.38Z</time></trkpt><trkpt lat="40.3646401" lon="9.7126389"><ele>1.0</ele><time>2026-03-29T09:39:43.382Z</time></trkpt><trkpt lat="40.3647242" lon="9.7127523"><ele>1.0</ele><time>2026-03-29T09:39:44.377Z</time></trkpt><trkpt lat="40.3648098" lon="9.7128704"><ele>1.0</ele><time>2026-03-29T09:39:45.378Z</time></trkpt><trkpt lat="40.3648985" lon="9.7129908"><ele>1.0</ele><time>2026-03-29T09:39:46.38Z</time></trkpt><trkpt lat="40.3649886" lon="9.7131128"><ele>1.0</ele><time>2026-03-29T09:39:47.376Z</time></trkpt><trkpt lat="40.3650813" lon="9.7132393"><ele>1.0</ele><time>2026-03-29T09:39:48.378Z</time></trkpt><trkpt lat="40.3651713" lon="9.7133624"><ele>1.0</ele><time>2026-03-29T09:39:49.38Z</time></trkpt><trkpt lat="40.3652622" lon="9.7134821"><ele>1.0</ele><time>2026-03-29T09:39:50.386Z</time></trkpt><trkpt lat="40.36535" lon="9.713608"><ele>1.0</ele><time>2026-03-29T09:39:51.381Z</time></trkpt><trkpt lat="40.3654472" lon="9.7137512"><ele>1.0</ele><time>2026-03-29T09:39:52.383Z</time></trkpt><trkpt lat="40.3655334" lon="9.7138848"><ele>1.0</ele><time>2026-03-29T09:39:53.379Z</time></trkpt><trkpt lat="40.3656242" lon="9.7140104"><ele>1.0</ele><time>2026-03-29T09:39:54.383Z</time></trkpt><trkpt lat="40.365718" lon="9.7141278"><ele>1.0</ele><time>2026-03-29T09:39:55.378Z</time></trkpt><trkpt lat="40.3658083" lon="9.714249"><ele>1.0</ele><time>2026-03-29T09:39:56.387Z</time></trkpt><trkpt lat="40.3658982" lon="9.7143638"><ele>1.0</ele><time>2026-03-29T09:39:57.383Z</time></trkpt><trkpt lat="40.365992" lon="9.7144739"><ele>1.0</ele><time>2026-03-29T09:39:58.378Z</time></trkpt><trkpt lat="40.3660764" lon="9.7145903"><ele>1.0</ele><time>2026-03-29T09:39:59.382Z</time></trkpt><trkpt lat="40.3661622" lon="9.7147068"><ele>1.0</ele><time>2026-03-29T09:40:00.387Z</time></trkpt><trkpt lat="40.3662363" lon="9.7148154"><ele>1.0</ele><time>2026-03-29T09:40:01.381Z</time></trkpt><trkpt lat="40.3663098" lon="9.7149042"><ele>1.0</ele><time>2026-03-29T09:40:02.387Z</time></trkpt><trkpt lat="40.3663629" lon="9.7149836"><ele>1.0</ele><time>2026-03-29T09:40:03.38Z</time></trkpt><trkpt lat="40.3664066" lon="9.7150499"><ele>1.0</ele><time>2026-03-29T09:40:04.384Z</time></trkpt><trkpt lat="40.3664541" lon="9.7151779"><ele>1.0</ele><time>2026-03-29T09:40:06.395Z</time></trkpt><trkpt lat="40.3664315" lon="9.7153022"><ele>1.3333333333333333</ele><time>2026-03-29T09:40:08.38Z</time></trkpt><trkpt lat="40.3663452" lon="9.7153762"><ele>1.6666666666666665</ele><time>2026-03-29T09:40:10.383Z</time></trkpt><trkpt lat="40.3662584" lon="9.7154457"><ele>2.0</ele><time>2026-03-29T09:40:12.384Z</time></trkpt><trkpt lat="40.3661978" lon="9.7155171"><ele>2.3333333333333335</ele><time>2026-03-29T09:40:14.383Z</time></trkpt><trkpt lat="40.3661473" lon="9.7155681"><ele>2.6666666666666665</ele><time>2026-03-29T09:40:16.381Z</time></trkpt><trkpt lat="40.3660873" lon="9.7156318"><ele>3.0</ele><time>2026-03-29T09:40:18.383Z</time></trkpt><trkpt lat="40.3660233" lon="9.7157001"><ele>3.0</ele><time>2026-03-29T09:40:20.383Z</time></trkpt><trkpt lat="40.3659899" lon="9.7158028"><ele>3.0</ele><time>2026-03-29T09:40:23.38Z</time></trkpt><trkpt lat="40.3660537" lon="9.7159033"><ele>3.0</ele><time>2026-03-29T09:40:26.382Z</time></trkpt><trkpt lat="40.3661427" lon="9.7159974"><ele>3.0</ele><time>2026-03-29T09:40:28.383Z</time></trkpt><trkpt lat="40.3661924" lon="9.7160664"><ele>3.0</ele><time>2026-03-29T09:40:29.386Z</time></trkpt><trkpt lat="40.3662518" lon="9.7161407"><ele>3.0</ele><time>2026-03-29T09:40:30.382Z</time></trkpt><trkpt lat="40.3663148" lon="9.7162155"><ele>3.0</ele><time>2026-03-29T09:40:31.383Z</time></trkpt><trkpt lat="40.3663835" lon="9.7163038"><ele>3.0</ele><time>2026-03-29T09:40:32.379Z</time></trkpt><trkpt lat="40.3664555" lon="9.7163971"><ele>3.0</ele><time>2026-03-29T09:40:33.387Z</time></trkpt><trkpt lat="40.3665298" lon="9.7164906"><ele>3.0</ele><time>2026-03-29T09:40:34.38Z</time></trkpt><trkpt lat="40.3666079" lon="9.7165881"><ele>3.0</ele><time>2026-03-29T09:40:35.38Z</time></trkpt><trkpt lat="40.366692" lon="9.7166905"><ele>3.0</ele><time>2026-03-29T09:40:36.38Z</time></trkpt><trkpt lat="40.3667765" lon="9.716799"><ele>3.0</ele><time>2026-03-29T09:40:37.381Z</time></trkpt><trkpt lat="40.3668645" lon="9.7169031"><ele>3.0</ele><time>2026-03-29T09:40:38.379Z</time></trkpt><trkpt lat="40.3669502" lon="9.7169986"><ele>2.6</ele><time>2026-03-29T09:40:39.383Z</time></trkpt><trkpt lat="40.3670241" lon="9.7171015"><ele>2.1999999999999997</ele><time>2026-03-29T09:40:40.379Z</time></trkpt><trkpt lat="40.3670958" lon="9.7171992"><ele>1.8</ele><time>2026-03-29T09:40:41.385Z</time></trkpt><trkpt lat="40.3671715" lon="9.7172945"><ele>1.4</ele><time>2026-03-29T09:40:42.379Z</time></trkpt><trkpt lat="40.3672447" lon="9.7173839"><ele>1.0</ele><time>2026-03-29T09:40:43.387Z</time></trkpt><trkpt lat="40.367317" lon="9.7174728"><ele>1.0</ele><time>2026-03-29T09:40:44.386Z</time></trkpt><trkpt lat="40.3673865" lon="9.717557"><ele>1.0</ele><time>2026-03-29T09:40:45.381Z</time></trkpt><trkpt lat="40.3674575" lon="9.7176452"><ele>1.0</ele><time>2026-03-29T09:40:46.377Z</time></trkpt><trkpt lat="40.3675294" lon="9.7177401"><ele>1.0</ele><time>2026-03-29T09:40:47.38Z</time></trkpt><trkpt lat="40.3675998" lon="9.7178389"><ele>1.0</ele><time>2026-03-29T09:40:48.382Z</time></trkpt><trkpt lat="40.3676713" lon="9.7179341"><ele>1.0</ele><time>2026-03-29T09:40:49.386Z</time></trkpt><trkpt lat="40.3677446" lon="9.7180296"><ele>1.0</ele><time>2026-03-29T09:40:50.38Z</time></trkpt><trkpt lat="40.3678193" lon="9.7181217"><ele>1.0</ele><time>2026-03-29T09:40:51.382Z</time></trkpt><trkpt lat="40.3678933" lon="9.7182175"><ele>1.0</ele><time>2026-03-29T09:40:52.388Z</time></trkpt><trkpt lat="40.3679697" lon="9.7183151"><ele>1.0</ele><time>2026-03-29T09:40:53.387Z</time></trkpt><trkpt lat="40.3680476" lon="9.718416"><ele>1.0</ele><time>2026-03-29T09:40:54.402Z</time></trkpt><trkpt lat="40.3681334" lon="9.7185207"><ele>1.0</ele><time>2026-03-29T09:40:55.379Z</time></trkpt><trkpt lat="40.3682231" lon="9.7186321"><ele>1.0</ele><time>2026-03-29T09:40:56.388Z</time></trkpt><trkpt lat="40.3683126" lon="9.7187446"><ele>1.0</ele><time>2026-03-29T09:40:57.382Z</time></trkpt><trkpt lat="40.3684028" lon="9.7188596"><ele>1.0</ele><time>2026-03-29T09:40:58.387Z</time></trkpt><trkpt lat="40.3684908" lon="9.7189727"><ele>1.0</ele><time>2026-03-29T09:40:59.379Z</time></trkpt><trkpt lat="40.368578" lon="9.7190898"><ele>1.0</ele><time>2026-03-29T09:41:00.382Z</time></trkpt><trkpt lat="40.3686628" lon="9.719211"><ele>1.0</ele><time>2026-03-29T09:41:01.382Z</time></trkpt><trkpt lat="40.3687544" lon="9.7193292"><ele>0.75</ele><time>2026-03-29T09:41:02.38Z</time></trkpt><trkpt lat="40.3688471" lon="9.719453"><ele>0.5</ele><time>2026-03-29T09:41:03.38Z</time></trkpt><trkpt lat="40.3689456" lon="9.7195758"><ele>0.25</ele><time>2026-03-29T09:41:04.381Z</time></trkpt><trkpt lat="40.3690407" lon="9.7197001"><ele>0.0</ele><time>2026-03-29T09:41:05.38Z</time></trkpt><trkpt lat="40.3691408" lon="9.7198247"><ele>0.0</ele><time>2026-03-29T09:41:06.378Z</time></trkpt><trkpt lat="40.3692417" lon="9.7199487"><ele>0.0</ele><time>2026-03-29T09:41:07.382Z</time></trkpt><trkpt lat="40.3693453" lon="9.7200685"><ele>0.0</ele><time>2026-03-29T09:41:08.385Z</time></trkpt><trkpt lat="40.3694423" lon="9.7201968"><ele>0.0</ele><time>2026-03-29T09:41:09.378Z</time></trkpt><trkpt lat="40.3695411" lon="9.7203212"><ele>0.25</ele><time>2026-03-29T09:41:10.382Z</time></trkpt><trkpt lat="40.36964" lon="9.7204462"><ele>0.5</ele><time>2026-03-29T09:41:11.387Z</time></trkpt><trkpt lat="40.3697393" lon="9.7205752"><ele>0.75</ele><time>2026-03-29T09:41:12.385Z</time></trkpt><trkpt lat="40.3698397" lon="9.720705"><ele>1.0</ele><time>2026-03-29T09:41:13.383Z</time></trkpt><trkpt lat="40.3699364" lon="9.7208334"><ele>1.25</ele><time>2026-03-29T09:41:14.379Z</time></trkpt><trkpt lat="40.3700307" lon="9.7209572"><ele>1.5</ele><time>2026-03-29T09:41:15.378Z</time></trkpt><trkpt lat="40.3701241" lon="9.721079"><ele>1.75</ele><time>2026-03-29T09:41:16.386Z</time></trkpt><trkpt lat="40.3702109" lon="9.7211964"><ele>2.0</ele><time>2026-03-29T09:41:17.381Z</time></trkpt><trkpt lat="40.3702982" lon="9.7213105"><ele>1.75</ele><time>2026-03-29T09:41:18.388Z</time></trkpt><trkpt lat="40.3703867" lon="9.7214232"><ele>1.5</ele><time>2026-03-29T09:41:19.388Z</time></trkpt><trkpt lat="40.3704714" lon="9.7215277"><ele>1.25</ele><time>2026-03-29T09:41:20.385Z</time></trkpt><trkpt lat="40.3705541" lon="9.7216445"><ele>1.0</ele><time>2026-03-29T09:41:21.383Z</time></trkpt><trkpt lat="40.3706383" lon="9.7217691"><ele>1.0</ele><time>2026-03-29T09:41:22.387Z</time></trkpt><trkpt lat="40.3707249" lon="9.721895"><ele>1.0</ele><time>2026-03-29T09:41:23.385Z</time></trkpt><trkpt lat="40.3708138" lon="9.7220181"><ele>1.0</ele><time>2026-03-29T09:41:24.383Z</time></trkpt><trkpt lat="40.370904" lon="9.7221445"><ele>1.0</ele><time>2026-03-29T09:41:25.382Z</time></trkpt><trkpt lat="40.3709954" lon="9.7222782"><ele>1.0</ele><time>2026-03-29T09:41:26.386Z</time></trkpt><trkpt lat="40.3710891" lon="9.7224125"><ele>1.0</ele><time>2026-03-29T09:41:27.38Z</time></trkpt><trkpt lat="40.3711813" lon="9.7225437"><ele>1.0</ele><time>2026-03-29T09:41:28.385Z</time></trkpt><trkpt lat="40.3712732" lon="9.7226749"><ele>1.0</ele><time>2026-03-29T09:41:29.38Z</time></trkpt><trkpt lat="40.3713643" lon="9.7228079"><ele>1.25</ele><time>2026-03-29T09:41:30.383Z</time></trkpt><trkpt lat="40.3714498" lon="9.7229426"><ele>1.5</ele><time>2026-03-29T09:41:31.385Z</time></trkpt><trkpt lat="40.3715326" lon="9.7230731"><ele>1.75</ele><time>2026-03-29T09:41:32.385Z</time></trkpt><trkpt lat="40.3716139" lon="9.7232007"><ele>2.0</ele><time>2026-03-29T09:41:33.378Z</time></trkpt><trkpt lat="40.3716952" lon="9.7233265"><ele>2.0</ele><time>2026-03-29T09:41:34.404Z</time></trkpt><trkpt lat="40.3717749" lon="9.7234492"><ele>2.0</ele><time>2026-03-29T09:41:35.381Z</time></trkpt><trkpt lat="40.3718511" lon="9.723564"><ele>2.0</ele><time>2026-03-29T09:41:36.383Z</time></trkpt><trkpt lat="40.3719256" lon="9.7236747"><ele>2.0</ele><time>2026-03-29T09:41:37.379Z</time></trkpt><trkpt lat="40.3719986" lon="9.7237819"><ele>2.0</ele><time>2026-03-29T09:41:38.387Z</time></trkpt><trkpt lat="40.3720692" lon="9.7238878"><ele>2.0</ele><time>2026-03-29T09:41:39.387Z</time></trkpt><trkpt lat="40.3721344" lon="9.7239915"><ele>2.0</ele><time>2026-03-29T09:41:40.384Z</time></trkpt><trkpt lat="40.3721895" lon="9.7241008"><ele>2.0</ele><time>2026-03-29T09:41:41.383Z</time></trkpt><trkpt lat="40.3722493" lon="9.7241953"><ele>2.0</ele><time>2026-03-29T09:41:42.382Z</time></trkpt><trkpt lat="40.3723061" lon="9.7242923"><ele>2.0</ele><time>2026-03-29T09:41:43.381Z</time></trkpt><trkpt lat="40.3723631" lon="9.7243926"><ele>2.0</ele><time>2026-03-29T09:41:44.381Z</time></trkpt><trkpt lat="40.3724186" lon="9.724491"><ele>2.0</ele><time>2026-03-29T09:41:45.384Z</time></trkpt><trkpt lat="40.3724727" lon="9.7245891"><ele>2.0</ele><time>2026-03-29T09:41:46.386Z</time></trkpt><trkpt lat="40.3725286" lon="9.7246856"><ele>2.0</ele><time>2026-03-29T09:41:47.38Z</time></trkpt><trkpt lat="40.3725854" lon="9.7247848"><ele>1.8</ele><time>2026-03-29T09:41:48.386Z</time></trkpt><trkpt lat="40.3726413" lon="9.7248872"><ele>1.6</ele><time>2026-03-29T09:41:49.387Z</time></trkpt><trkpt lat="40.3726979" lon="9.7249908"><ele>1.4000000000000001</ele><time>2026-03-29T09:41:50.378Z</time></trkpt><trkpt lat="40.3727537" lon="9.7250928"><ele>1.2000000000000002</ele><time>2026-03-29T09:41:51.386Z</time></trkpt><trkpt lat="40.372812" lon="9.7251951"><ele>1.0</ele><time>2026-03-29T09:41:52.383Z</time></trkpt><trkpt lat="40.372866" lon="9.7252953"><ele>0.8333333333333333</ele><time>2026-03-29T09:41:53.388Z</time></trkpt><trkpt lat="40.3729147" lon="9.7253866"><ele>0.6666666666666666</ele><time>2026-03-29T09:41:54.388Z</time></trkpt><trkpt lat="40.3729572" lon="9.7254666"><ele>0.5</ele><time>2026-03-29T09:41:55.403Z</time></trkpt><trkpt lat="40.3730335" lon="9.7255543"><ele>0.3333333333333333</ele><time>2026-03-29T09:41:57.387Z</time></trkpt><trkpt lat="40.373109" lon="9.7255509"><ele>0.16666666666666666</ele><time>2026-03-29T09:41:59.386Z</time></trkpt><trkpt lat="40.3732024" lon="9.7254717"><ele>0.0</ele><time>2026-03-29T09:42:01.388Z</time></trkpt><trkpt lat="40.3732617" lon="9.725409"><ele>0.4</ele><time>2026-03-29T09:42:02.38Z</time></trkpt><trkpt lat="40.3733272" lon="9.725332"><ele>0.8</ele><time>2026-03-29T09:42:03.388Z</time></trkpt><trkpt lat="40.373392" lon="9.7252504"><ele>1.2000000000000002</ele><time>2026-03-29T09:42:04.394Z</time></trkpt><trkpt lat="40.3734518" lon="9.7251586"><ele>1.6</ele><time>2026-03-29T09:42:05.388Z</time></trkpt><trkpt lat="40.3735026" lon="9.725046"><ele>2.0</ele><time>2026-03-29T09:42:06.386Z</time></trkpt><trkpt lat="40.3735418" lon="9.7249222"><ele>2.0</ele><time>2026-03-29T09:42:07.383Z</time></trkpt><trkpt lat="40.3735752" lon="9.7247907"><ele>2.0</ele><time>2026-03-29T09:42:08.388Z</time></trkpt><trkpt lat="40.3736079" lon="9.7246507"><ele>2.0</ele><time>2026-03-29T09:42:09.387Z</time></trkpt><trkpt lat="40.3736409" lon="9.7245158"><ele>2.0</ele><time>2026-03-29T09:42:10.385Z</time></trkpt><trkpt lat="40.3736724" lon="9.7243819"><ele>2.0</ele><time>2026-03-29T09:42:11.387Z</time></trkpt><trkpt lat="40.3737058" lon="9.7242453"><ele>2.0</ele><time>2026-03-29T09:42:12.383Z</time></trkpt><trkpt lat="40.3737418" lon="9.7241047"><ele>2.0</ele><time>2026-03-29T09:42:13.391Z</time></trkpt><trkpt lat="40.373782" lon="9.7239566"><ele>2.0</ele><time>2026-03-29T09:42:14.389Z</time></trkpt><trkpt lat="40.3738233" lon="9.7238035"><ele>2.0</ele><time>2026-03-29T09:42:15.405Z</time></trkpt><trkpt lat="40.3738637" lon="9.723644"><ele>2.0</ele><time>2026-03-29T09:42:16.388Z</time></trkpt><trkpt lat="40.3739091" lon="9.7234725"><ele>2.0</ele><time>2026-03-29T09:42:17.386Z</time></trkpt><trkpt lat="40.3739596" lon="9.7232927"><ele>2.0</ele><time>2026-03-29T09:42:18.385Z</time></trkpt><trkpt lat="40.3740104" lon="9.7231105"><ele>2.0</ele><time>2026-03-29T09:42:19.39Z</time></trkpt><trkpt lat="40.3740614" lon="9.7229203"><ele>2.0</ele><time>2026-03-29T09:42:20.383Z</time></trkpt><trkpt lat="40.3741128" lon="9.7227222"><ele>2.0</ele><time>2026-03-29T09:42:21.382Z</time></trkpt><trkpt lat="40.3741649" lon="9.7225206"><ele>2.0</ele><time>2026-03-29T09:42:22.38Z</time></trkpt><trkpt lat="40.3742197" lon="9.7223139"><ele>2.0</ele><time>2026-03-29T09:42:23.387Z</time></trkpt><trkpt lat="40.3742777" lon="9.722103"><ele>2.0</ele><time>2026-03-29T09:42:24.389Z</time></trkpt><trkpt lat="40.3743346" lon="9.7218864"><ele>2.0</ele><time>2026-03-29T09:42:25.386Z</time></trkpt><trkpt lat="40.3743888" lon="9.7216723"><ele>1.6666666666666665</ele><time>2026-03-29T09:42:26.385Z</time></trkpt><trkpt lat="40.3744442" lon="9.7214561"><ele>1.3333333333333333</ele><time>2026-03-29T09:42:27.39Z</time></trkpt><trkpt lat="40.3744987" lon="9.7212377"><ele>1.0</ele><time>2026-03-29T09:42:28.379Z</time></trkpt><trkpt lat="40.3745536" lon="9.7210235"><ele>0.6666666666666666</ele><time>2026-03-29T09:42:29.386Z</time></trkpt><trkpt lat="40.3746105" lon="9.7208095"><ele>0.3333333333333333</ele><time>2026-03-29T09:42:30.391Z</time></trkpt><trkpt lat="40.3746679" lon="9.7205937"><ele>0.0</ele><time>2026-03-29T09:42:31.385Z</time></trkpt><trkpt lat="40.3747256" lon="9.7203788"><ele>0.6666666666666666</ele><time>2026-03-29T09:42:32.385Z</time></trkpt><trkpt lat="40.3747803" lon="9.7201693"><ele>1.3333333333333333</ele><time>2026-03-29T09:42:33.384Z</time></trkpt><trkpt lat="40.3748324" lon="9.7199643"><ele>2.0</ele><time>2026-03-29T09:42:34.384Z</time></trkpt><trkpt lat="40.3748842" lon="9.7197647"><ele>2.0</ele><time>2026-03-29T09:42:35.386Z</time></trkpt><trkpt lat="40.3749366" lon="9.7195699"><ele>2.0</ele><time>2026-03-29T09:42:36.383Z</time></trkpt><trkpt lat="40.374988" lon="9.7193785"><ele>2.0</ele><time>2026-03-29T09:42:37.386Z</time></trkpt><trkpt lat="40.3750384" lon="9.7191905"><ele>2.0</ele><time>2026-03-29T09:42:38.385Z</time></trkpt><trkpt lat="40.3750878" lon="9.7190047"><ele>2.0</ele><time>2026-03-29T09:42:39.386Z</time></trkpt><trkpt lat="40.375136" lon="9.7188211"><ele>2.0</ele><time>2026-03-29T09:42:40.383Z</time></trkpt><trkpt lat="40.375183" lon="9.7186381"><ele>2.0</ele><time>2026-03-29T09:42:41.386Z</time></trkpt><trkpt lat="40.375229" lon="9.7184558"><ele>2.0</ele><time>2026-03-29T09:42:42.382Z</time></trkpt><trkpt lat="40.3752745" lon="9.7182746"><ele>2.0</ele><time>2026-03-29T09:42:43.383Z</time></trkpt><trkpt lat="40.3753206" lon="9.7180954"><ele>2.0</ele><time>2026-03-29T09:42:44.385Z</time></trkpt><trkpt lat="40.3753677" lon="9.7179162"><ele>2.0</ele><time>2026-03-29T09:42:45.38Z</time></trkpt><trkpt lat="40.3754157" lon="9.7177359"><ele>1.6666666666666665</ele><time>2026-03-29T09:42:46.381Z</time></trkpt><trkpt lat="40.375464" lon="9.7175521"><ele>1.3333333333333333</ele><time>2026-03-29T09:42:47.379Z</time></trkpt><trkpt lat="40.3755135" lon="9.7173629"><ele>1.0</ele><time>2026-03-29T09:42:48.382Z</time></trkpt><trkpt lat="40.3755643" lon="9.7171694"><ele>1.0</ele><time>2026-03-29T09:42:49.383Z</time></trkpt><trkpt lat="40.3756167" lon="9.7169715"><ele>1.0</ele><time>2026-03-29T09:42:50.382Z</time></trkpt><trkpt lat="40.3756704" lon="9.7167693"><ele>1.0</ele><time>2026-03-29T09:42:51.377Z</time></trkpt><trkpt lat="40.375725" lon="9.7165619"><ele>1.0</ele><time>2026-03-29T09:42:52.384Z</time></trkpt><trkpt lat="40.3757803" lon="9.7163549"><ele>1.0</ele><time>2026-03-29T09:42:53.382Z</time></trkpt><trkpt lat="40.3758341" lon="9.7161478"><ele>1.0</ele><time>2026-03-29T09:42:54.381Z</time></trkpt><trkpt lat="40.375888" lon="9.7159399"><ele>1.3333333333333333</ele><time>2026-03-29T09:42:55.378Z</time></trkpt><trkpt lat="40.3759427" lon="9.7157315"><ele>1.6666666666666665</ele><time>2026-03-29T09:42:56.386Z</time></trkpt><trkpt lat="40.3759976" lon="9.7155348"><ele>2.0</ele><time>2026-03-29T09:42:57.38Z</time></trkpt><trkpt lat="40.3760344" lon="9.7153339"><ele>2.0</ele><time>2026-03-29T09:42:58.378Z</time></trkpt><trkpt lat="40.3760411" lon="9.7151365"><ele>2.0</ele><time>2026-03-29T09:42:59.382Z</time></trkpt><trkpt lat="40.3760332" lon="9.7149473"><ele>2.0</ele><time>2026-03-29T09:43:00.38Z</time></trkpt><trkpt lat="40.3759779" lon="9.7147619"><ele>2.0</ele><time>2026-03-29T09:43:01.379Z</time></trkpt><trkpt lat="40.3759129" lon="9.7145592"><ele>2.0</ele><time>2026-03-29T09:43:02.379Z</time></trkpt><trkpt lat="40.3758667" lon="9.714354"><ele>2.0</ele><time>2026-03-29T09:43:03.382Z</time></trkpt><trkpt lat="40.3758433" lon="9.7141342"><ele>2.0</ele><time>2026-03-29T09:43:04.38Z</time></trkpt><trkpt lat="40.3758322" lon="9.7139059"><ele>2.0</ele><time>2026-03-29T09:43:05.385Z</time></trkpt><trkpt lat="40.3758449" lon="9.7136864"><ele>2.0</ele><time>2026-03-29T09:43:06.387Z</time></trkpt><trkpt lat="40.3758591" lon="9.7134579"><ele>2.0</ele><time>2026-03-29T09:43:07.381Z</time></trkpt><trkpt lat="40.3758759" lon="9.7132402"><ele>2.0</ele><time>2026-03-29T09:43:08.381Z</time></trkpt><trkpt lat="40.375889" lon="9.7130209"><ele>2.0</ele><time>2026-03-29T09:43:09.376Z</time></trkpt><trkpt lat="40.3759026" lon="9.7128039"><ele>2.0</ele><time>2026-03-29T09:43:10.38Z</time></trkpt><trkpt lat="40.3759129" lon="9.7125891"><ele>2.6666666666666665</ele><time>2026-03-29T09:43:11.378Z</time></trkpt><trkpt lat="40.3759195" lon="9.7123739"><ele>3.333333333333333</ele><time>2026-03-29T09:43:12.385Z</time></trkpt><trkpt lat="40.3759255" lon="9.712152"><ele>4.0</ele><time>2026-03-29T09:43:13.38Z</time></trkpt><trkpt lat="40.3759319" lon="9.7119376"><ele>3.333333333333333</ele><time>2026-03-29T09:43:14.386Z</time></trkpt><trkpt lat="40.3759462" lon="9.711714"><ele>2.6666666666666665</ele><time>2026-03-29T09:43:15.38Z</time></trkpt><trkpt lat="40.3759582" lon="9.7114923"><ele>2.0</ele><time>2026-03-29T09:43:16.383Z</time></trkpt><trkpt lat="40.3759739" lon="9.7112657"><ele>2.333333333333333</ele><time>2026-03-29T09:43:17.385Z</time></trkpt><trkpt lat="40.3759894" lon="9.7110473"><ele>2.6666666666666665</ele><time>2026-03-29T09:43:18.386Z</time></trkpt><trkpt lat="40.3760037" lon="9.7108304"><ele>3.0</ele><time>2026-03-29T09:43:19.384Z</time></trkpt><trkpt lat="40.3760121" lon="9.7106108"><ele>3.0</ele><time>2026-03-29T09:43:20.389Z</time></trkpt><trkpt lat="40.3760238" lon="9.7103946"><ele>3.0</ele><time>2026-03-29T09:43:21.385Z</time></trkpt><trkpt lat="40.3760353" lon="9.7101806"><ele>3.0</ele><time>2026-03-29T09:43:22.381Z</time></trkpt><trkpt lat="40.3760446" lon="9.7099709"><ele>3.25</ele><time>2026-03-29T09:43:23.381Z</time></trkpt><trkpt lat="40.3760548" lon="9.7097727"><ele>3.5</ele><time>2026-03-29T09:43:24.383Z</time></trkpt><trkpt lat="40.3760644" lon="9.7095861"><ele>3.75</ele><time>2026-03-29T09:43:25.383Z</time></trkpt><trkpt lat="40.3760747" lon="9.7094046"><ele>4.0</ele><time>2026-03-29T09:43:26.385Z</time></trkpt><trkpt lat="40.3760826" lon="9.7092282"><ele>4.0</ele><time>2026-03-29T09:43:27.379Z</time></trkpt><trkpt lat="40.376091" lon="9.7090468"><ele>4.0</ele><time>2026-03-29T09:43:28.379Z</time></trkpt><trkpt lat="40.3760993" lon="9.708859"><ele>4.0</ele><time>2026-03-29T09:43:29.382Z</time></trkpt><trkpt lat="40.3761107" lon="9.7086709"><ele>4.0</ele><time>2026-03-29T09:43:30.381Z</time></trkpt><trkpt lat="40.3761202" lon="9.7084909"><ele>4.25</ele><time>2026-03-29T09:43:31.379Z</time></trkpt><trkpt lat="40.3761257" lon="9.708326"><ele>4.5</ele><time>2026-03-29T09:43:32.383Z</time></trkpt><trkpt lat="40.376134" lon="9.7081696"><ele>4.75</ele><time>2026-03-29T09:43:33.382Z</time></trkpt><trkpt lat="40.3761431" lon="9.7080195"><ele>5.0</ele><time>2026-03-29T09:43:34.386Z</time></trkpt><trkpt lat="40.376151" lon="9.7078768"><ele>5.0</ele><time>2026-03-29T09:43:35.384Z</time></trkpt><trkpt lat="40.376157" lon="9.7077479"><ele>5.0</ele><time>2026-03-29T09:43:36.382Z</time></trkpt><trkpt lat="40.3761647" lon="9.7076214"><ele>5.0</ele><time>2026-03-29T09:43:37.387Z</time></trkpt><trkpt lat="40.3761793" lon="9.7075024"><ele>5.0</ele><time>2026-03-29T09:43:38.383Z</time></trkpt><trkpt lat="40.3761808" lon="9.707378"><ele>5.0</ele><time>2026-03-29T09:43:39.381Z</time></trkpt><trkpt lat="40.3761863" lon="9.7072513"><ele>5.0</ele><time>2026-03-29T09:43:40.385Z</time></trkpt><trkpt lat="40.376194" lon="9.7071174"><ele>5.0</ele><time>2026-03-29T09:43:41.38Z</time></trkpt><trkpt lat="40.3762032" lon="9.7069819"><ele>5.0</ele><time>2026-03-29T09:43:42.388Z</time></trkpt><trkpt lat="40.3762103" lon="9.7068454"><ele>5.0</ele><time>2026-03-29T09:43:43.38Z</time></trkpt><trkpt lat="40.3762218" lon="9.7067134"><ele>5.0</ele><time>2026-03-29T09:43:44.382Z</time></trkpt><trkpt lat="40.3762275" lon="9.7065846"><ele>5.0</ele><time>2026-03-29T09:43:45.387Z</time></trkpt><trkpt lat="40.3762418" lon="9.7064556"><ele>5.0</ele><time>2026-03-29T09:43:46.387Z</time></trkpt><trkpt lat="40.3762523" lon="9.7063287"><ele>5.0</ele><time>2026-03-29T09:43:47.392Z</time></trkpt><trkpt lat="40.3762602" lon="9.7062137"><ele>5.0</ele><time>2026-03-29T09:43:48.389Z</time></trkpt><trkpt lat="40.3762636" lon="9.7060942"><ele>5.0</ele><time>2026-03-29T09:43:49.385Z</time></trkpt><trkpt lat="40.3762683" lon="9.7059651"><ele>5.25</ele><time>2026-03-29T09:43:50.385Z</time></trkpt><trkpt lat="40.3762757" lon="9.7058214"><ele>5.5</ele><time>2026-03-29T09:43:51.384Z</time></trkpt><trkpt lat="40.3762815" lon="9.7056652"><ele>5.75</ele><time>2026-03-29T09:43:52.382Z</time></trkpt><trkpt lat="40.3762892" lon="9.7055006"><ele>6.0</ele><time>2026-03-29T09:43:53.384Z</time></trkpt><trkpt lat="40.3762982" lon="9.7053269"><ele>6.0</ele><time>2026-03-29T09:43:54.404Z</time></trkpt><trkpt lat="40.3763086" lon="9.7051464"><ele>6.0</ele><time>2026-03-29T09:43:55.387Z</time></trkpt><trkpt lat="40.3763238" lon="9.7049597"><ele>6.0</ele><time>2026-03-29T09:43:56.387Z</time></trkpt><trkpt lat="40.3763459" lon="9.7047667"><ele>6.0</ele><time>2026-03-29T09:43:57.385Z</time></trkpt><trkpt lat="40.3763712" lon="9.7045737"><ele>5.666666666666667</ele><time>2026-03-29T09:43:58.389Z</time></trkpt><trkpt lat="40.3764065" lon="9.7043819"><ele>5.333333333333334</ele><time>2026-03-29T09:43:59.386Z</time></trkpt><trkpt lat="40.3764395" lon="9.7041859"><ele>5.0</ele><time>2026-03-29T09:44:00.381Z</time></trkpt><trkpt lat="40.3764895" lon="9.7040027"><ele>5.0</ele><time>2026-03-29T09:44:01.389Z</time></trkpt><trkpt lat="40.3765428" lon="9.7038202"><ele>5.0</ele><time>2026-03-29T09:44:02.387Z</time></trkpt><trkpt lat="40.3765974" lon="9.7036504"><ele>5.0</ele><time>2026-03-29T09:44:03.386Z</time></trkpt><trkpt lat="40.3766507" lon="9.7034786"><ele>5.0</ele><time>2026-03-29T09:44:04.392Z</time></trkpt><trkpt lat="40.3767025" lon="9.7033135"><ele>5.25</ele><time>2026-03-29T09:44:05.386Z</time></trkpt><trkpt lat="40.376755" lon="9.7031526"><ele>5.5</ele><time>2026-03-29T09:44:06.388Z</time></trkpt><trkpt lat="40.3768082" lon="9.702999"><ele>5.75</ele><time>2026-03-29T09:44:07.386Z</time></trkpt><trkpt lat="40.3768587" lon="9.7028413"><ele>6.0</ele><time>2026-03-29T09:44:08.387Z</time></trkpt><trkpt lat="40.3769102" lon="9.7026851"><ele>5.5</ele><time>2026-03-29T09:44:09.386Z</time></trkpt><trkpt lat="40.3769628" lon="9.7025299"><ele>5.0</ele><time>2026-03-29T09:44:10.4Z</time></trkpt><trkpt lat="40.3770123" lon="9.7023769"><ele>4.5</ele><time>2026-03-29T09:44:11.385Z</time></trkpt><trkpt lat="40.3770633" lon="9.7022218"><ele>4.0</ele><time>2026-03-29T09:44:12.388Z</time></trkpt><trkpt lat="40.3771143" lon="9.7020664"><ele>4.0</ele><time>2026-03-29T09:44:13.386Z</time></trkpt><trkpt lat="40.3771675" lon="9.7019052"><ele>4.0</ele><time>2026-03-29T09:44:14.386Z</time></trkpt><trkpt lat="40.3772219" lon="9.7017418"><ele>4.0</ele><time>2026-03-29T09:44:15.384Z</time></trkpt><trkpt lat="40.3772773" lon="9.7015762"><ele>4.0</ele><time>2026-03-29T09:44:16.39Z</time></trkpt><trkpt lat="40.3773334" lon="9.7014099"><ele>4.0</ele><time>2026-03-29T09:44:17.387Z</time></trkpt><trkpt lat="40.3773843" lon="9.7012459"><ele>4.0</ele><time>2026-03-29T09:44:18.415Z</time></trkpt><trkpt lat="40.3774352" lon="9.701088"><ele>4.0</ele><time>2026-03-29T09:44:19.389Z</time></trkpt><trkpt lat="40.3774866" lon="9.7009356"><ele>4.0</ele><time>2026-03-29T09:44:20.388Z</time></trkpt><trkpt lat="40.3775361" lon="9.7007836"><ele>4.5</ele><time>2026-03-29T09:44:21.388Z</time></trkpt><trkpt lat="40.3775861" lon="9.7006312"><ele>5.0</ele><time>2026-03-29T09:44:22.386Z</time></trkpt><trkpt lat="40.3776413" lon="9.7004762"><ele>5.5</ele><time>2026-03-29T09:44:23.386Z</time></trkpt><trkpt lat="40.3777032" lon="9.700333"><ele>6.0</ele><time>2026-03-29T09:44:24.391Z</time></trkpt><trkpt lat="40.3777661" lon="9.7001925"><ele>6.25</ele><time>2026-03-29T09:44:25.388Z</time></trkpt><trkpt lat="40.3778254" lon="9.7000578"><ele>6.5</ele><time>2026-03-29T09:44:26.385Z</time></trkpt><trkpt lat="40.3778865" lon="9.6999248"><ele>6.75</ele><time>2026-03-29T09:44:27.384Z</time></trkpt><trkpt lat="40.3779454" lon="9.699793"><ele>7.0</ele><time>2026-03-29T09:44:28.381Z</time></trkpt><trkpt lat="40.3780007" lon="9.6996617"><ele>7.0</ele><time>2026-03-29T09:44:29.39Z</time></trkpt><trkpt lat="40.3780549" lon="9.6995418"><ele>6.999999999999999</ele><time>2026-03-29T09:44:30.384Z</time></trkpt><trkpt lat="40.3781063" lon="9.6994303"><ele>6.999999999999999</ele><time>2026-03-29T09:44:31.393Z</time></trkpt><trkpt lat="40.3781536" lon="9.6993285"><ele>7.0</ele><time>2026-03-29T09:44:32.385Z</time></trkpt><trkpt lat="40.3781971" lon="9.6992368"><ele>7.0</ele><time>2026-03-29T09:44:33.381Z</time></trkpt><trkpt lat="40.3782356" lon="9.6991487"><ele>7.000000000000001</ele><time>2026-03-29T09:44:34.383Z</time></trkpt><trkpt lat="40.3782732" lon="9.6990601"><ele>7.0</ele><time>2026-03-29T09:44:35.383Z</time></trkpt><trkpt lat="40.3783118" lon="9.6989698"><ele>7.0</ele><time>2026-03-29T09:44:36.382Z</time></trkpt><trkpt lat="40.37835" lon="9.6988785"><ele>7.0</ele><time>2026-03-29T09:44:37.38Z</time></trkpt><trkpt lat="40.3783913" lon="9.698789"><ele>7.000000000000001</ele><time>2026-03-29T09:44:38.384Z</time></trkpt><trkpt lat="40.378433" lon="9.6986953"><ele>7.0</ele><time>2026-03-29T09:44:39.386Z</time></trkpt><trkpt lat="40.3784758" lon="9.698601"><ele>6.6</ele><time>2026-03-29T09:44:40.383Z</time></trkpt><trkpt lat="40.3785169" lon="9.6985061"><ele>6.199999999999999</ele><time>2026-03-29T09:44:41.402Z</time></trkpt><trkpt lat="40.3785551" lon="9.6984215"><ele>5.8</ele><time>2026-03-29T09:44:42.386Z</time></trkpt><trkpt lat="40.3786172" lon="9.6982816"><ele>5.4</ele><time>2026-03-29T09:44:44.383Z</time></trkpt><trkpt lat="40.3786566" lon="9.6981838"><ele>5.0</ele><time>2026-03-29T09:44:46.383Z</time></trkpt><trkpt lat="40.3787568" lon="9.6981467"><ele>5.0</ele><time>2026-03-29T09:44:50.386Z</time></trkpt><trkpt lat="40.3788082" lon="9.6982077"><ele>5.0</ele><time>2026-03-29T09:44:51.387Z</time></trkpt><trkpt lat="40.378863" lon="9.6982894"><ele>5.0</ele><time>2026-03-29T09:44:52.378Z</time></trkpt><trkpt lat="40.3789235" lon="9.6983584"><ele>5.0</ele><time>2026-03-29T09:44:53.389Z</time></trkpt><trkpt lat="40.378982" lon="9.6984511"><ele>5.0</ele><time>2026-03-29T09:44:54.386Z</time></trkpt><trkpt lat="40.3790392" lon="9.6985307"><ele>5.0</ele><time>2026-03-29T09:44:55.382Z</time></trkpt><trkpt lat="40.379094" lon="9.6985978"><ele>5.333333333333334</ele><time>2026-03-29T09:44:56.385Z</time></trkpt><trkpt lat="40.3791452" lon="9.6986776"><ele>5.666666666666667</ele><time>2026-03-29T09:44:57.379Z</time></trkpt><trkpt lat="40.3792378" lon="9.6987916"><ele>6.0</ele><time>2026-03-29T09:44:59.385Z</time></trkpt><trkpt lat="40.3792829" lon="9.6988556"><ele>6.333333333333334</ele><time>2026-03-29T09:45:00.386Z</time></trkpt><trkpt lat="40.3793332" lon="9.6989142"><ele>6.666666666666667</ele><time>2026-03-29T09:45:01.383Z</time></trkpt><trkpt lat="40.3793799" lon="9.6989699"><ele>7.0</ele><time>2026-03-29T09:45:02.382Z</time></trkpt><trkpt lat="40.3794316" lon="9.6990295"><ele>7.0</ele><time>2026-03-29T09:45:03.384Z</time></trkpt><trkpt lat="40.3795282" lon="9.6991406"><ele>6.999999999999999</ele><time>2026-03-29T09:45:05.384Z</time></trkpt><trkpt lat="40.3796182" lon="9.6992573"><ele>6.999999999999999</ele><time>2026-03-29T09:45:07.379Z</time></trkpt><trkpt lat="40.3796652" lon="9.6993183"><ele>7.0</ele><time>2026-03-29T09:45:08.38Z</time></trkpt><trkpt lat="40.3797097" lon="9.6993794"><ele>7.0</ele><time>2026-03-29T09:45:09.384Z</time></trkpt><trkpt lat="40.3797585" lon="9.6994413"><ele>7.0</ele><time>2026-03-29T09:45:10.378Z</time></trkpt><trkpt lat="40.3798047" lon="9.6995033"><ele>6.999999999999999</ele><time>2026-03-29T09:45:11.387Z</time></trkpt><trkpt lat="40.3798684" lon="9.6995681"><ele>6.999999999999999</ele><time>2026-03-29T09:45:12.385Z</time></trkpt><trkpt lat="40.3799399" lon="9.699647"><ele>7.0</ele><time>2026-03-29T09:45:13.377Z</time></trkpt><trkpt lat="40.3800238" lon="9.6997266"><ele>7.0</ele><time>2026-03-29T09:45:14.38Z</time></trkpt><trkpt lat="40.3801133" lon="9.6998159"><ele>7.0</ele><time>2026-03-29T09:45:15.383Z</time></trkpt><trkpt lat="40.3802079" lon="9.6998985"><ele>7.0</ele><time>2026-03-29T09:45:16.38Z</time></trkpt><trkpt lat="40.3803168" lon="9.6999837"><ele>7.0</ele><time>2026-03-29T09:45:17.382Z</time></trkpt><trkpt lat="40.3804391" lon="9.7000664"><ele>7.0</ele><time>2026-03-29T09:45:18.383Z</time></trkpt><trkpt lat="40.3805698" lon="9.7001825"><ele>5.666666666666667</ele><time>2026-03-29T09:45:19.38Z</time></trkpt><trkpt lat="40.3806981" lon="9.7002964"><ele>4.333333333333334</ele><time>2026-03-29T09:45:20.382Z</time></trkpt><trkpt lat="40.3808334" lon="9.7003969"><ele>3.0</ele><time>2026-03-29T09:45:21.383Z</time></trkpt><trkpt lat="40.3809645" lon="9.7004904"><ele>3.0</ele><time>2026-03-29T09:45:22.384Z</time></trkpt><trkpt lat="40.3810871" lon="9.7005805"><ele>3.0</ele><time>2026-03-29T09:45:23.387Z</time></trkpt><trkpt lat="40.3812056" lon="9.7006643"><ele>3.0</ele><time>2026-03-29T09:45:24.39Z</time></trkpt><trkpt lat="40.3813282" lon="9.7007543"><ele>3.0</ele><time>2026-03-29T09:45:25.411Z</time></trkpt><trkpt lat="40.3814502" lon="9.7008446"><ele>3.0</ele><time>2026-03-29T09:45:26.384Z</time></trkpt><trkpt lat="40.3815737" lon="9.7009307"><ele>3.0</ele><time>2026-03-29T09:45:27.391Z</time></trkpt><trkpt lat="40.3816898" lon="9.7010151"><ele>3.0</ele><time>2026-03-29T09:45:28.389Z</time></trkpt><trkpt lat="40.3818024" lon="9.7011004"><ele>3.0</ele><time>2026-03-29T09:45:29.387Z</time></trkpt><trkpt lat="40.3819098" lon="9.7011775"><ele>3.0</ele><time>2026-03-29T09:45:30.384Z</time></trkpt><trkpt lat="40.382013" lon="9.7012529"><ele>3.0</ele><time>2026-03-29T09:45:31.385Z</time></trkpt><trkpt lat="40.3821141" lon="9.7013304"><ele>3.0</ele><time>2026-03-29T09:45:32.39Z</time></trkpt><trkpt lat="40.3822164" lon="9.7014066"><ele>3.0</ele><time>2026-03-29T09:45:33.386Z</time></trkpt><trkpt lat="40.382321" lon="9.7014814"><ele>3.3333333333333335</ele><time>2026-03-29T09:45:34.4Z</time></trkpt><trkpt lat="40.3824164" lon="9.7015491"><ele>3.666666666666667</ele><time>2026-03-29T09:45:35.381Z</time></trkpt><trkpt lat="40.3825017" lon="9.7016119"><ele>4.0</ele><time>2026-03-29T09:45:36.383Z</time></trkpt><trkpt lat="40.382574" lon="9.7016653"><ele>4.333333333333334</ele><time>2026-03-29T09:45:37.383Z</time></trkpt><trkpt lat="40.3826327" lon="9.7017111"><ele>4.666666666666667</ele><time>2026-03-29T09:45:38.388Z</time></trkpt><trkpt lat="40.3827065" lon="9.7017767"><ele>5.0</ele><time>2026-03-29T09:45:40.388Z</time></trkpt><trkpt lat="40.3826987" lon="9.7018656"><ele>5.0</ele><time>2026-03-29T09:45:43.386Z</time></trkpt><trkpt lat="40.3826168" lon="9.7018332"><ele>5.0</ele><time>2026-03-29T09:45:45.386Z</time></trkpt><trkpt lat="40.3825132" lon="9.7018053"><ele>5.0</ele><time>2026-03-29T09:45:47.387Z</time></trkpt><trkpt lat="40.3824516" lon="9.7018397"><ele>5.0</ele><time>2026-03-29T09:45:48.394Z</time></trkpt><trkpt lat="40.3823928" lon="9.7019021"><ele>5.0</ele><time>2026-03-29T09:45:49.382Z</time></trkpt><trkpt lat="40.382345" lon="9.7019888"><ele>5.0</ele><time>2026-03-29T09:45:50.387Z</time></trkpt><trkpt lat="40.3822894" lon="9.7020923"><ele>5.0</ele><time>2026-03-29T09:45:51.379Z</time></trkpt><trkpt lat="40.3822266" lon="9.7022056"><ele>5.0</ele><time>2026-03-29T09:45:52.383Z</time></trkpt><trkpt lat="40.3821589" lon="9.7023318"><ele>5.0</ele><time>2026-03-29T09:45:53.381Z</time></trkpt><trkpt lat="40.3820896" lon="9.7024628"><ele>5.0</ele><time>2026-03-29T09:45:54.379Z</time></trkpt><trkpt lat="40.3820193" lon="9.702593"><ele>4.8</ele><time>2026-03-29T09:45:55.387Z</time></trkpt><trkpt lat="40.3819515" lon="9.7027175"><ele>4.6</ele><time>2026-03-29T09:45:56.384Z</time></trkpt><trkpt lat="40.381884" lon="9.7028395"><ele>4.4</ele><time>2026-03-29T09:45:57.386Z</time></trkpt><trkpt lat="40.3818266" lon="9.7029457"><ele>4.2</ele><time>2026-03-29T09:45:58.379Z</time></trkpt><trkpt lat="40.3817727" lon="9.7030444"><ele>4.0</ele><time>2026-03-29T09:45:59.386Z</time></trkpt><trkpt lat="40.3817238" lon="9.7031367"><ele>4.0</ele><time>2026-03-29T09:46:00.382Z</time></trkpt><trkpt lat="40.3816688" lon="9.7032297"><ele>4.0</ele><time>2026-03-29T09:46:01.392Z</time></trkpt><trkpt lat="40.381617" lon="9.7033365"><ele>4.0</ele><time>2026-03-29T09:46:02.387Z</time></trkpt><trkpt lat="40.3815623" lon="9.7034388"><ele>4.0</ele><time>2026-03-29T09:46:03.386Z</time></trkpt><trkpt lat="40.3815052" lon="9.7035519"><ele>4.0</ele><time>2026-03-29T09:46:04.383Z</time></trkpt><trkpt lat="40.3814451" lon="9.7036544"><ele>4.4</ele><time>2026-03-29T09:46:05.39Z</time></trkpt><trkpt lat="40.3813824" lon="9.7037575"><ele>4.800000000000001</ele><time>2026-03-29T09:46:06.383Z</time></trkpt><trkpt lat="40.381324" lon="9.7038704"><ele>5.199999999999999</ele><time>2026-03-29T09:46:07.389Z</time></trkpt><trkpt lat="40.3812645" lon="9.7039838"><ele>5.6</ele><time>2026-03-29T09:46:08.38Z</time></trkpt><trkpt lat="40.3812007" lon="9.7040975"><ele>6.0</ele><time>2026-03-29T09:46:09.385Z</time></trkpt><trkpt lat="40.3811401" lon="9.7042158"><ele>5.2</ele><time>2026-03-29T09:46:10.382Z</time></trkpt><trkpt lat="40.3810799" lon="9.7043403"><ele>4.3999999999999995</ele><time>2026-03-29T09:46:11.385Z</time></trkpt><trkpt lat="40.3810171" lon="9.7044499"><ele>3.6</ele><time>2026-03-29T09:46:12.386Z</time></trkpt><trkpt lat="40.3809522" lon="9.7045646"><ele>2.8</ele><time>2026-03-29T09:46:13.386Z</time></trkpt><trkpt lat="40.380885" lon="9.7046837"><ele>2.0</ele><time>2026-03-29T09:46:14.391Z</time></trkpt><trkpt lat="40.3808198" lon="9.704804"><ele>2.0</ele><time>2026-03-29T09:46:15.39Z</time></trkpt><trkpt lat="40.3807628" lon="9.7049326"><ele>2.0</ele><time>2026-03-29T09:46:16.379Z</time></trkpt><trkpt lat="40.3807083" lon="9.7050579"><ele>2.0</ele><time>2026-03-29T09:46:17.385Z</time></trkpt><trkpt lat="40.380658" lon="9.7051835"><ele>2.0</ele><time>2026-03-29T09:46:18.388Z</time></trkpt><trkpt lat="40.3806052" lon="9.705311"><ele>2.0</ele><time>2026-03-29T09:46:19.387Z</time></trkpt><trkpt lat="40.3805543" lon="9.7054398"><ele>1.5</ele><time>2026-03-29T09:46:20.389Z</time></trkpt><trkpt lat="40.3805033" lon="9.7055682"><ele>1.0</ele><time>2026-03-29T09:46:21.387Z</time></trkpt><trkpt lat="40.3804535" lon="9.7057028"><ele>0.5</ele><time>2026-03-29T09:46:22.381Z</time></trkpt><trkpt lat="40.3804068" lon="9.7058375"><ele>0.0</ele><time>2026-03-29T09:46:23.383Z</time></trkpt><trkpt lat="40.3803606" lon="9.7059737"><ele>0.2</ele><time>2026-03-29T09:46:24.382Z</time></trkpt><trkpt lat="40.380317" lon="9.7061058"><ele>0.4</ele><time>2026-03-29T09:46:25.384Z</time></trkpt><trkpt lat="40.3802776" lon="9.706239"><ele>0.6000000000000001</ele><time>2026-03-29T09:46:26.387Z</time></trkpt><trkpt lat="40.3802411" lon="9.7063739"><ele>0.8</ele><time>2026-03-29T09:46:27.387Z</time></trkpt><trkpt lat="40.3802058" lon="9.7065132"><ele>1.0</ele><time>2026-03-29T09:46:28.383Z</time></trkpt><trkpt lat="40.3801693" lon="9.7066557"><ele>1.0</ele><time>2026-03-29T09:46:29.389Z</time></trkpt><trkpt lat="40.3801331" lon="9.7068008"><ele>1.0</ele><time>2026-03-29T09:46:30.391Z</time></trkpt><trkpt lat="40.3801003" lon="9.7069487"><ele>1.0</ele><time>2026-03-29T09:46:31.394Z</time></trkpt><trkpt lat="40.3800709" lon="9.7070966"><ele>1.0</ele><time>2026-03-29T09:46:32.388Z</time></trkpt><trkpt lat="40.3800428" lon="9.7072467"><ele>1.0</ele><time>2026-03-29T09:46:33.392Z</time></trkpt><trkpt lat="40.3800157" lon="9.707397"><ele>1.0</ele><time>2026-03-29T09:46:34.39Z</time></trkpt><trkpt lat="40.3799914" lon="9.707549"><ele>1.0</ele><time>2026-03-29T09:46:35.39Z</time></trkpt><trkpt lat="40.3799672" lon="9.7077026"><ele>1.0</ele><time>2026-03-29T09:46:36.403Z</time></trkpt><trkpt lat="40.3799446" lon="9.7078622"><ele>1.25</ele><time>2026-03-29T09:46:37.387Z</time></trkpt><trkpt lat="40.3799243" lon="9.7080278"><ele>1.5</ele><time>2026-03-29T09:46:38.393Z</time></trkpt><trkpt lat="40.379904" lon="9.7081962"><ele>1.75</ele><time>2026-03-29T09:46:39.387Z</time></trkpt><trkpt lat="40.3798842" lon="9.7083624"><ele>2.0</ele><time>2026-03-29T09:46:40.39Z</time></trkpt><trkpt lat="40.3798641" lon="9.7085304"><ele>1.75</ele><time>2026-03-29T09:46:41.384Z</time></trkpt><trkpt lat="40.379846" lon="9.708698"><ele>1.5</ele><time>2026-03-29T09:46:42.388Z</time></trkpt><trkpt lat="40.3798275" lon="9.7088673"><ele>1.25</ele><time>2026-03-29T09:46:43.387Z</time></trkpt><trkpt lat="40.3798072" lon="9.7090391"><ele>1.0</ele><time>2026-03-29T09:46:44.383Z</time></trkpt><trkpt lat="40.3797854" lon="9.7092113"><ele>1.0</ele><time>2026-03-29T09:46:45.405Z</time></trkpt><trkpt lat="40.379764" lon="9.7093853"><ele>1.0</ele><time>2026-03-29T09:46:46.391Z</time></trkpt><trkpt lat="40.3797435" lon="9.7095609"><ele>1.0</ele><time>2026-03-29T09:46:47.387Z</time></trkpt><trkpt lat="40.379724" lon="9.70974"><ele>1.0</ele><time>2026-03-29T09:46:48.388Z</time></trkpt><trkpt lat="40.3797052" lon="9.7099211"><ele>1.25</ele><time>2026-03-29T09:46:49.386Z</time></trkpt><trkpt lat="40.3796877" lon="9.7101007"><ele>1.5</ele><time>2026-03-29T09:46:50.384Z</time></trkpt><trkpt lat="40.3796694" lon="9.7102846"><ele>1.75</ele><time>2026-03-29T09:46:51.385Z</time></trkpt><trkpt lat="40.3796524" lon="9.7104754"><ele>2.0</ele><time>2026-03-29T09:46:52.386Z</time></trkpt><trkpt lat="40.3796368" lon="9.7106688"><ele>1.3333333333333333</ele><time>2026-03-29T09:46:53.387Z</time></trkpt><trkpt lat="40.3796234" lon="9.7108651"><ele>0.6666666666666666</ele><time>2026-03-29T09:46:54.39Z</time></trkpt><trkpt lat="40.379612" lon="9.7110662"><ele>0.0</ele><time>2026-03-29T09:46:55.393Z</time></trkpt><trkpt lat="40.3796029" lon="9.7112736"><ele>-0.3333333333333333</ele><time>2026-03-29T09:46:56.384Z</time></trkpt><trkpt lat="40.3795962" lon="9.7114868"><ele>-0.6666666666666666</ele><time>2026-03-29T09:46:57.394Z</time></trkpt><trkpt lat="40.3795908" lon="9.7117064"><ele>-1.0</ele><time>2026-03-29T09:46:58.387Z</time></trkpt><trkpt lat="40.3795882" lon="9.7119312"><ele>-0.3333333333333333</ele><time>2026-03-29T09:46:59.389Z</time></trkpt><trkpt lat="40.3795866" lon="9.7121606"><ele>0.3333333333333333</ele><time>2026-03-29T09:47:00.39Z</time></trkpt><trkpt lat="40.3795889" lon="9.7123761"><ele>1.0</ele><time>2026-03-29T09:47:01.386Z</time></trkpt><trkpt lat="40.3795874" lon="9.7126081"><ele>1.0</ele><time>2026-03-29T09:47:02.39Z</time></trkpt><trkpt lat="40.3795796" lon="9.7128376"><ele>1.0</ele><time>2026-03-29T09:47:03.387Z</time></trkpt><trkpt lat="40.3795765" lon="9.7130677"><ele>1.0</ele><time>2026-03-29T09:47:04.386Z</time></trkpt><trkpt lat="40.3795733" lon="9.7133014"><ele>1.0</ele><time>2026-03-29T09:47:05.389Z</time></trkpt><trkpt lat="40.3795696" lon="9.7135382"><ele>1.0</ele><time>2026-03-29T09:47:06.392Z</time></trkpt><trkpt lat="40.3795686" lon="9.7137737"><ele>1.0</ele><time>2026-03-29T09:47:07.382Z</time></trkpt><trkpt lat="40.3795641" lon="9.7140062"><ele>0.6666666666666666</ele><time>2026-03-29T09:47:08.388Z</time></trkpt><trkpt lat="40.3795606" lon="9.714237"><ele>0.3333333333333333</ele><time>2026-03-29T09:47:09.387Z</time></trkpt><trkpt lat="40.3795554" lon="9.7144676"><ele>0.0</ele><time>2026-03-29T09:47:10.387Z</time></trkpt><trkpt lat="40.3795497" lon="9.7147012"><ele>0.0</ele><time>2026-03-29T09:47:11.387Z</time></trkpt><trkpt lat="40.3795446" lon="9.7149341"><ele>0.0</ele><time>2026-03-29T09:47:12.386Z</time></trkpt><trkpt lat="40.3795388" lon="9.7151685"><ele>0.0</ele><time>2026-03-29T09:47:13.39Z</time></trkpt><trkpt lat="40.3795329" lon="9.7154035"><ele>0.3333333333333333</ele><time>2026-03-29T09:47:14.386Z</time></trkpt><trkpt lat="40.3795188" lon="9.7156318"><ele>0.6666666666666666</ele><time>2026-03-29T09:47:15.39Z</time></trkpt><trkpt lat="40.37951" lon="9.7158684"><ele>1.0</ele><time>2026-03-29T09:47:16.386Z</time></trkpt><trkpt lat="40.3794955" lon="9.7160945"><ele>1.3333333333333333</ele><time>2026-03-29T09:47:17.388Z</time></trkpt><trkpt lat="40.3794819" lon="9.7163121"><ele>1.6666666666666665</ele><time>2026-03-29T09:47:18.39Z</time></trkpt><trkpt lat="40.3794667" lon="9.7165205"><ele>2.0</ele><time>2026-03-29T09:47:19.392Z</time></trkpt><trkpt lat="40.3794492" lon="9.7167282"><ele>1.75</ele><time>2026-03-29T09:47:20.387Z</time></trkpt><trkpt lat="40.3794317" lon="9.7169289"><ele>1.5</ele><time>2026-03-29T09:47:21.382Z</time></trkpt><trkpt lat="40.3794154" lon="9.7171109"><ele>1.25</ele><time>2026-03-29T09:47:22.384Z</time></trkpt><trkpt lat="40.3793978" lon="9.7172857"><ele>1.0</ele><time>2026-03-29T09:47:23.391Z</time></trkpt><trkpt lat="40.3793801" lon="9.7174574"><ele>1.0</ele><time>2026-03-29T09:47:24.384Z</time></trkpt><trkpt lat="40.37936" lon="9.7176265"><ele>1.0</ele><time>2026-03-29T09:47:25.394Z</time></trkpt><trkpt lat="40.3793367" lon="9.7178"><ele>1.0</ele><time>2026-03-29T09:47:26.382Z</time></trkpt><trkpt lat="40.3793137" lon="9.7179769"><ele>1.0</ele><time>2026-03-29T09:47:27.385Z</time></trkpt><trkpt lat="40.3792894" lon="9.7181554"><ele>1.0</ele><time>2026-03-29T09:47:28.386Z</time></trkpt><trkpt lat="40.379273" lon="9.7183328"><ele>1.0</ele><time>2026-03-29T09:47:29.386Z</time></trkpt><trkpt lat="40.3792418" lon="9.7185063"><ele>1.0</ele><time>2026-03-29T09:47:30.384Z</time></trkpt><trkpt lat="40.3792067" lon="9.7186979"><ele>1.0</ele><time>2026-03-29T09:47:31.382Z</time></trkpt><trkpt lat="40.3791767" lon="9.7188875"><ele>1.0</ele><time>2026-03-29T09:47:32.393Z</time></trkpt><trkpt lat="40.3791494" lon="9.7190845"><ele>1.0</ele><time>2026-03-29T09:47:33.387Z</time></trkpt><trkpt lat="40.3791199" lon="9.7192856"><ele>1.0</ele><time>2026-03-29T09:47:34.399Z</time></trkpt><trkpt lat="40.3790856" lon="9.719492"><ele>1.3333333333333333</ele><time>2026-03-29T09:47:35.384Z</time></trkpt><trkpt lat="40.3790624" lon="9.7196824"><ele>1.6666666666666665</ele><time>2026-03-29T09:47:36.387Z</time></trkpt><trkpt lat="40.3790336" lon="9.7198832"><ele>2.0</ele><time>2026-03-29T09:47:37.384Z</time></trkpt><trkpt lat="40.379005" lon="9.7200849"><ele>1.6666666666666665</ele><time>2026-03-29T09:47:38.386Z</time></trkpt><trkpt lat="40.3789716" lon="9.7202866"><ele>1.3333333333333333</ele><time>2026-03-29T09:47:39.388Z</time></trkpt><trkpt lat="40.37894" lon="9.7204892"><ele>1.0</ele><time>2026-03-29T09:47:40.386Z</time></trkpt><trkpt lat="40.3789069" lon="9.7206903"><ele>1.0</ele><time>2026-03-29T09:47:41.39Z</time></trkpt><trkpt lat="40.378876" lon="9.7208948"><ele>1.0</ele><time>2026-03-29T09:47:42.383Z</time></trkpt><trkpt lat="40.3788454" lon="9.7211035"><ele>1.0</ele><time>2026-03-29T09:47:43.395Z</time></trkpt><trkpt lat="40.3788123" lon="9.7213109"><ele>1.0</ele><time>2026-03-29T09:47:44.392Z</time></trkpt><trkpt lat="40.3787796" lon="9.7215213"><ele>1.0</ele><time>2026-03-29T09:47:45.383Z</time></trkpt><trkpt lat="40.3787475" lon="9.7217306"><ele>1.0</ele><time>2026-03-29T09:47:46.388Z</time></trkpt><trkpt lat="40.3787144" lon="9.7219401"><ele>1.0</ele><time>2026-03-29T09:47:47.386Z</time></trkpt><trkpt lat="40.378683" lon="9.7221519"><ele>1.0</ele><time>2026-03-29T09:47:48.395Z</time></trkpt><trkpt lat="40.3786519" lon="9.7223625"><ele>1.0</ele><time>2026-03-29T09:47:49.388Z</time></trkpt><trkpt lat="40.3786214" lon="9.7225699"><ele>1.0</ele><time>2026-03-29T09:47:50.39Z</time></trkpt><trkpt lat="40.3785901" lon="9.7227758"><ele>1.0</ele><time>2026-03-29T09:47:51.39Z</time></trkpt><trkpt lat="40.3785585" lon="9.7229833"><ele>1.0</ele><time>2026-03-29T09:47:52.389Z</time></trkpt><trkpt lat="40.378526" lon="9.7231947"><ele>1.0</ele><time>2026-03-29T09:47:53.388Z</time></trkpt><trkpt lat="40.3784934" lon="9.7234085"><ele>1.0</ele><time>2026-03-29T09:47:54.389Z</time></trkpt><trkpt lat="40.3784611" lon="9.7236245"><ele>1.0</ele><time>2026-03-29T09:47:55.395Z</time></trkpt><trkpt lat="40.3784304" lon="9.7238413"><ele>1.0</ele><time>2026-03-29T09:47:56.39Z</time></trkpt><trkpt lat="40.3783986" lon="9.7240578"><ele>1.0</ele><time>2026-03-29T09:47:57.391Z</time></trkpt><trkpt lat="40.3783658" lon="9.7242768"><ele>1.0</ele><time>2026-03-29T09:47:58.392Z</time></trkpt><trkpt lat="40.3783339" lon="9.7244878"><ele>1.5</ele><time>2026-03-29T09:47:59.388Z</time></trkpt><trkpt lat="40.3783048" lon="9.7246788"><ele>2.0</ele><time>2026-03-29T09:48:00.391Z</time></trkpt><trkpt lat="40.378278" lon="9.7248462"><ele>2.5</ele><time>2026-03-29T09:48:01.388Z</time></trkpt><trkpt lat="40.3782525" lon="9.7249893"><ele>3.0</ele><time>2026-03-29T09:48:02.388Z</time></trkpt><trkpt lat="40.3782373" lon="9.7251125"><ele>3.0</ele><time>2026-03-29T09:48:03.384Z</time></trkpt><trkpt lat="40.3781935" lon="9.7251856"><ele>3.0</ele><time>2026-03-29T09:48:04.388Z</time></trkpt><trkpt lat="40.3781437" lon="9.7252701"><ele>3.0</ele><time>2026-03-29T09:48:05.386Z</time></trkpt><trkpt lat="40.3780799" lon="9.7253391"><ele>3.0</ele><time>2026-03-29T09:48:06.393Z</time></trkpt><trkpt lat="40.3780429" lon="9.7254164"><ele>3.0</ele><time>2026-03-29T09:48:07.393Z</time></trkpt><trkpt lat="40.3780457" lon="9.7255501"><ele>3.0</ele><time>2026-03-29T09:48:09.382Z</time></trkpt><trkpt lat="40.3781073" lon="9.7256532"><ele>3.2</ele><time>2026-03-29T09:48:11.392Z</time></trkpt><trkpt lat="40.3781851" lon="9.7257211"><ele>3.4</ele><time>2026-03-29T09:48:13.385Z</time></trkpt><trkpt lat="40.3782125" lon="9.7258207"><ele>3.6000000000000005</ele><time>2026-03-29T09:48:15.386Z</time></trkpt><trkpt lat="40.3781816" lon="9.7260079"><ele>3.8000000000000003</ele><time>2026-03-29T09:48:17.386Z</time></trkpt><trkpt lat="40.3781722" lon="9.7261244"><ele>4.0</ele><time>2026-03-29T09:48:18.382Z</time></trkpt><trkpt lat="40.3781755" lon="9.7262374"><ele>3.9999999999999996</ele><time>2026-03-29T09:48:19.386Z</time></trkpt><trkpt lat="40.3781946" lon="9.7263438"><ele>4.0</ele><time>2026-03-29T09:48:20.389Z</time></trkpt><trkpt lat="40.378226" lon="9.7264311"><ele>4.0</ele><time>2026-03-29T09:48:21.386Z</time></trkpt><trkpt lat="40.3782607" lon="9.7265007"><ele>4.0</ele><time>2026-03-29T09:48:22.391Z</time></trkpt><trkpt lat="40.3783345" lon="9.7266014"><ele>3.9999999999999996</ele><time>2026-03-29T09:48:24.39Z</time></trkpt><trkpt lat="40.3784392" lon="9.7265621"><ele>4.0</ele><time>2026-03-29T09:49:00.385Z</time></trkpt><trkpt lat="40.3785275" lon="9.7264626"><ele>4.0</ele><time>2026-03-29T09:49:02.383Z</time></trkpt><trkpt lat="40.3785909" lon="9.7264136"><ele>4.0</ele><time>2026-03-29T09:49:03.38Z</time></trkpt><trkpt lat="40.3786646" lon="9.7263746"><ele>4.0</ele><time>2026-03-29T09:49:04.384Z</time></trkpt><trkpt lat="40.3787532" lon="9.7263458"><ele>4.0</ele><time>2026-03-29T09:49:05.392Z</time></trkpt><trkpt lat="40.3788539" lon="9.7263266"><ele>4.0</ele><time>2026-03-29T09:49:06.385Z</time></trkpt><trkpt lat="40.3789632" lon="9.7263168"><ele>6.2</ele><time>2026-03-29T09:49:07.404Z</time></trkpt><trkpt lat="40.3790771" lon="9.7263149"><ele>8.4</ele><time>2026-03-29T09:49:08.39Z</time></trkpt><trkpt lat="40.3791915" lon="9.7263106"><ele>10.6</ele><time>2026-03-29T09:49:09.39Z</time></trkpt><trkpt lat="40.3793066" lon="9.7263022"><ele>12.8</ele><time>2026-03-29T09:49:10.391Z</time></trkpt><trkpt lat="40.3794087" lon="9.726286"><ele>15.0</ele><time>2026-03-29T09:49:11.384Z</time></trkpt><trkpt lat="40.3795164" lon="9.7262774"><ele>15.0</ele><time>2026-03-29T09:49:12.39Z</time></trkpt><trkpt lat="40.3796229" lon="9.726291"><ele>15.0</ele><time>2026-03-29T09:49:13.39Z</time></trkpt><trkpt lat="40.3797293" lon="9.7263338"><ele>15.0</ele><time>2026-03-29T09:49:14.384Z</time></trkpt><trkpt lat="40.3798397" lon="9.7263766"><ele>15.0</ele><time>2026-03-29T09:49:15.393Z</time></trkpt><trkpt lat="40.3799486" lon="9.7263951"><ele>15.0</ele><time>2026-03-29T09:49:16.386Z</time></trkpt><trkpt lat="40.3800606" lon="9.7263863"><ele>14.0</ele><time>2026-03-29T09:49:17.404Z</time></trkpt><trkpt lat="40.3801647" lon="9.7263579"><ele>13.0</ele><time>2026-03-29T09:49:18.385Z</time></trkpt><trkpt lat="40.3802565" lon="9.7263221"><ele>12.0</ele><time>2026-03-29T09:49:19.385Z</time></trkpt><trkpt lat="40.3803338" lon="9.7262914"><ele>11.0</ele><time>2026-03-29T09:49:20.383Z</time></trkpt><trkpt lat="40.3804311" lon="9.7262734"><ele>10.0</ele><time>2026-03-29T09:49:22.382Z</time></trkpt><trkpt lat="40.3804433" lon="9.7263709"><ele>10.0</ele><time>2026-03-29T09:49:32.389Z</time></trkpt><trkpt lat="40.3803508" lon="9.7265047"><ele>10.0</ele><time>2026-03-29T09:49:34.387Z</time></trkpt><trkpt lat="40.3802874" lon="9.7265845"><ele>10.0</ele><time>2026-03-29T09:49:35.385Z</time></trkpt><trkpt lat="40.3802054" lon="9.7266627"><ele>10.0</ele><time>2026-03-29T09:49:36.379Z</time></trkpt><trkpt lat="40.3801068" lon="9.7267216"><ele>10.0</ele><time>2026-03-29T09:49:37.382Z</time></trkpt><trkpt lat="40.3800008" lon="9.7267453"><ele>10.0</ele><time>2026-03-29T09:49:38.394Z</time></trkpt><trkpt lat="40.379891" lon="9.7267319"><ele>10.0</ele><time>2026-03-29T09:49:39.382Z</time></trkpt><trkpt lat="40.3797815" lon="9.7266825"><ele>10.0</ele><time>2026-03-29T09:49:40.384Z</time></trkpt><trkpt lat="40.3796749" lon="9.7266233"><ele>10.0</ele><time>2026-03-29T09:49:41.385Z</time></trkpt><trkpt lat="40.3795601" lon="9.7265895"><ele>11.25</ele><time>2026-03-29T09:49:42.384Z</time></trkpt><trkpt lat="40.379445" lon="9.7265706"><ele>12.5</ele><time>2026-03-29T09:49:43.387Z</time></trkpt><trkpt lat="40.3793348" lon="9.7265872"><ele>13.75</ele><time>2026-03-29T09:49:44.384Z</time></trkpt><trkpt lat="40.3792247" lon="9.7266383"><ele>15.0</ele><time>2026-03-29T09:49:45.401Z</time></trkpt><trkpt lat="40.3791353" lon="9.7267196"><ele>15.0</ele><time>2026-03-29T09:49:46.383Z</time></trkpt><trkpt lat="40.3790625" lon="9.7268365"><ele>15.0</ele><time>2026-03-29T09:49:47.383Z</time></trkpt><trkpt lat="40.3790012" lon="9.7269673"><ele>15.0</ele><time>2026-03-29T09:49:48.39Z</time></trkpt><trkpt lat="40.3789851" lon="9.727131"><ele>15.0</ele><time>2026-03-29T09:49:49.383Z</time></trkpt><trkpt lat="40.3790008" lon="9.7272956"><ele>15.5</ele><time>2026-03-29T09:49:50.41Z</time></trkpt><trkpt lat="40.3790354" lon="9.7274694"><ele>16.0</ele><time>2026-03-29T09:49:51.392Z</time></trkpt><trkpt lat="40.3790882" lon="9.7276423"><ele>16.5</ele><time>2026-03-29T09:49:52.385Z</time></trkpt><trkpt lat="40.3791694" lon="9.7278013"><ele>17.0</ele><time>2026-03-29T09:49:53.385Z</time></trkpt><trkpt lat="40.3792715" lon="9.7279374"><ele>17.0</ele><time>2026-03-29T09:49:54.382Z</time></trkpt><trkpt lat="40.3793908" lon="9.7280516"><ele>17.0</ele><time>2026-03-29T09:49:55.388Z</time></trkpt><trkpt lat="40.3795297" lon="9.7281561"><ele>17.0</ele><time>2026-03-29T09:49:56.382Z</time></trkpt><trkpt lat="40.3796838" lon="9.7282605"><ele>18.0</ele><time>2026-03-29T09:49:57.389Z</time></trkpt><trkpt lat="40.3798505" lon="9.7283688"><ele>19.0</ele><time>2026-03-29T09:49:58.385Z</time></trkpt><trkpt lat="40.3800214" lon="9.7284815"><ele>20.0</ele><time>2026-03-29T09:49:59.384Z</time></trkpt><trkpt lat="40.3801869" lon="9.7285902"><ele>20.0</ele><time>2026-03-29T09:50:00.386Z</time></trkpt><trkpt lat="40.3803551" lon="9.7286989"><ele>20.0</ele><time>2026-03-29T09:50:01.388Z</time></trkpt><trkpt lat="40.380519" lon="9.7288001"><ele>20.0</ele><time>2026-03-29T09:50:02.386Z</time></trkpt><trkpt lat="40.3806735" lon="9.7288966"><ele>22.333333333333336</ele><time>2026-03-29T09:50:03.382Z</time></trkpt><trkpt lat="40.3808243" lon="9.7289918"><ele>24.666666666666668</ele><time>2026-03-29T09:50:04.405Z</time></trkpt><trkpt lat="40.3809699" lon="9.7290876"><ele>27.0</ele><time>2026-03-29T09:50:05.382Z</time></trkpt><trkpt lat="40.3811031" lon="9.7291888"><ele>27.0</ele><time>2026-03-29T09:50:06.385Z</time></trkpt><trkpt lat="40.3812075" lon="9.7293222"><ele>27.0</ele><time>2026-03-29T09:50:07.388Z</time></trkpt><trkpt lat="40.3812892" lon="9.7294865"><ele>27.0</ele><time>2026-03-29T09:50:08.386Z</time></trkpt><trkpt lat="40.3813403" lon="9.7296745"><ele>27.0</ele><time>2026-03-29T09:50:09.385Z</time></trkpt><trkpt lat="40.3813852" lon="9.7298887"><ele>27.666666666666664</ele><time>2026-03-29T09:50:10.386Z</time></trkpt><trkpt lat="40.3814176" lon="9.7301108"><ele>28.333333333333332</ele><time>2026-03-29T09:50:11.379Z</time></trkpt><trkpt lat="40.3814527" lon="9.7303379"><ele>29.0</ele><time>2026-03-29T09:50:12.383Z</time></trkpt><trkpt lat="40.3814876" lon="9.7305666"><ele>29.0</ele><time>2026-03-29T09:50:13.388Z</time></trkpt><trkpt lat="40.3815231" lon="9.7307847"><ele>29.0</ele><time>2026-03-29T09:50:14.384Z</time></trkpt><trkpt lat="40.3815571" lon="9.7309908"><ele>29.0</ele><time>2026-03-29T09:50:15.383Z</time></trkpt><trkpt lat="40.3815882" lon="9.7311837"><ele>28.75</ele><time>2026-03-29T09:50:16.383Z</time></trkpt><trkpt lat="40.3816185" lon="9.7313685"><ele>28.5</ele><time>2026-03-29T09:50:17.386Z</time></trkpt><trkpt lat="40.381648" lon="9.7315542"><ele>28.25</ele><time>2026-03-29T09:50:18.389Z</time></trkpt><trkpt lat="40.3816712" lon="9.7317481"><ele>28.0</ele><time>2026-03-29T09:50:19.383Z</time></trkpt><trkpt lat="40.3816836" lon="9.7319491"><ele>28.0</ele><time>2026-03-29T09:50:20.388Z</time></trkpt><trkpt lat="40.3816849" lon="9.7321547"><ele>28.0</ele><time>2026-03-29T09:50:21.384Z</time></trkpt><trkpt lat="40.3816815" lon="9.7323651"><ele>28.0</ele><time>2026-03-29T09:50:22.383Z</time></trkpt><trkpt lat="40.3816762" lon="9.7325691"><ele>27.75</ele><time>2026-03-29T09:50:23.384Z</time></trkpt><trkpt lat="40.3816699" lon="9.732769"><ele>27.5</ele><time>2026-03-29T09:50:24.389Z</time></trkpt><trkpt lat="40.3816644" lon="9.7329634"><ele>27.25</ele><time>2026-03-29T09:50:25.386Z</time></trkpt><trkpt lat="40.3816586" lon="9.7331574"><ele>27.0</ele><time>2026-03-29T09:50:26.396Z</time></trkpt><trkpt lat="40.381653" lon="9.7333559"><ele>26.333333333333336</ele><time>2026-03-29T09:50:27.384Z</time></trkpt><trkpt lat="40.3816466" lon="9.7335581"><ele>25.666666666666668</ele><time>2026-03-29T09:50:28.389Z</time></trkpt><trkpt lat="40.3816403" lon="9.7337632"><ele>25.0</ele><time>2026-03-29T09:50:29.386Z</time></trkpt><trkpt lat="40.3816336" lon="9.7339735"><ele>25.0</ele><time>2026-03-29T09:50:30.383Z</time></trkpt><trkpt lat="40.3816281" lon="9.734187"><ele>25.0</ele><time>2026-03-29T09:50:31.388Z</time></trkpt><trkpt lat="40.3816227" lon="9.7343995"><ele>25.0</ele><time>2026-03-29T09:50:32.389Z</time></trkpt><trkpt lat="40.3816179" lon="9.7346008"><ele>24.75</ele><time>2026-03-29T09:50:33.386Z</time></trkpt><trkpt lat="40.3816135" lon="9.7347917"><ele>24.5</ele><time>2026-03-29T09:50:34.391Z</time></trkpt><trkpt lat="40.3816106" lon="9.7349748"><ele>24.25</ele><time>2026-03-29T09:50:35.383Z</time></trkpt><trkpt lat="40.3816066" lon="9.7351515"><ele>24.0</ele><time>2026-03-29T09:50:36.382Z</time></trkpt><trkpt lat="40.3816017" lon="9.7353254"><ele>23.75</ele><time>2026-03-29T09:50:37.385Z</time></trkpt><trkpt lat="40.3815981" lon="9.7355012"><ele>23.5</ele><time>2026-03-29T09:50:38.384Z</time></trkpt><trkpt lat="40.3816025" lon="9.7356806"><ele>23.25</ele><time>2026-03-29T09:50:39.382Z</time></trkpt><trkpt lat="40.381621" lon="9.7358629"><ele>23.0</ele><time>2026-03-29T09:50:40.379Z</time></trkpt><trkpt lat="40.3816562" lon="9.7360485"><ele>21.666666666666668</ele><time>2026-03-29T09:50:41.382Z</time></trkpt><trkpt lat="40.3817048" lon="9.7362392"><ele>20.333333333333332</ele><time>2026-03-29T09:50:42.379Z</time></trkpt><trkpt lat="40.3817609" lon="9.7364359"><ele>19.0</ele><time>2026-03-29T09:50:43.382Z</time></trkpt><trkpt lat="40.3818212" lon="9.7366379"><ele>19.0</ele><time>2026-03-29T09:50:44.386Z</time></trkpt><trkpt lat="40.381884" lon="9.7368447"><ele>19.0</ele><time>2026-03-29T09:50:45.386Z</time></trkpt><trkpt lat="40.3819486" lon="9.7370469"><ele>19.0</ele><time>2026-03-29T09:50:46.383Z</time></trkpt><trkpt lat="40.3820146" lon="9.7372351"><ele>18.5</ele><time>2026-03-29T09:50:47.383Z</time></trkpt><trkpt lat="40.3820811" lon="9.7374106"><ele>18.0</ele><time>2026-03-29T09:50:48.387Z</time></trkpt><trkpt lat="40.382149" lon="9.7375826"><ele>17.5</ele><time>2026-03-29T09:50:49.382Z</time></trkpt><trkpt lat="40.3822171" lon="9.7377517"><ele>17.0</ele><time>2026-03-29T09:50:50.382Z</time></trkpt><trkpt lat="40.3822843" lon="9.7379225"><ele>17.0</ele><time>2026-03-29T09:50:51.382Z</time></trkpt><trkpt lat="40.3823513" lon="9.7380941"><ele>17.0</ele><time>2026-03-29T09:50:52.387Z</time></trkpt><trkpt lat="40.3824207" lon="9.7382663"><ele>17.0</ele><time>2026-03-29T09:50:53.383Z</time></trkpt><trkpt lat="40.3824945" lon="9.7384391"><ele>17.0</ele><time>2026-03-29T09:50:54.384Z</time></trkpt><trkpt lat="40.3825747" lon="9.7386093"><ele>15.333333333333334</ele><time>2026-03-29T09:50:55.383Z</time></trkpt><trkpt lat="40.3826657" lon="9.7387735"><ele>13.666666666666668</ele><time>2026-03-29T09:50:56.384Z</time></trkpt><trkpt lat="40.3827682" lon="9.7389298"><ele>12.0</ele><time>2026-03-29T09:50:57.383Z</time></trkpt><trkpt lat="40.3828798" lon="9.739079"><ele>12.0</ele><time>2026-03-29T09:50:58.386Z</time></trkpt><trkpt lat="40.3829961" lon="9.7392238"><ele>12.0</ele><time>2026-03-29T09:50:59.387Z</time></trkpt><trkpt lat="40.3831078" lon="9.7393615"><ele>12.0</ele><time>2026-03-29T09:51:00.384Z</time></trkpt><trkpt lat="40.3832119" lon="9.739489"><ele>12.0</ele><time>2026-03-29T09:51:01.389Z</time></trkpt><trkpt lat="40.3833143" lon="9.7396131"><ele>12.0</ele><time>2026-03-29T09:51:02.386Z</time></trkpt><trkpt lat="40.3834189" lon="9.7397399"><ele>12.0</ele><time>2026-03-29T09:51:03.378Z</time></trkpt><trkpt lat="40.3835269" lon="9.7398731"><ele>12.0</ele><time>2026-03-29T09:51:04.383Z</time></trkpt><trkpt lat="40.3836383" lon="9.7400089"><ele>12.0</ele><time>2026-03-29T09:51:05.382Z</time></trkpt><trkpt lat="40.383751" lon="9.7401446"><ele>12.0</ele><time>2026-03-29T09:51:06.386Z</time></trkpt><trkpt lat="40.3838649" lon="9.7402815"><ele>12.0</ele><time>2026-03-29T09:51:07.384Z</time></trkpt><trkpt lat="40.3839798" lon="9.74042"><ele>12.333333333333332</ele><time>2026-03-29T09:51:08.384Z</time></trkpt><trkpt lat="40.3840948" lon="9.7405605"><ele>12.666666666666666</ele><time>2026-03-29T09:51:09.383Z</time></trkpt><trkpt lat="40.3842112" lon="9.7407018"><ele>13.0</ele><time>2026-03-29T09:51:10.382Z</time></trkpt><trkpt lat="40.3843315" lon="9.740839"><ele>13.0</ele><time>2026-03-29T09:51:11.382Z</time></trkpt><trkpt lat="40.3844594" lon="9.7409652"><ele>13.0</ele><time>2026-03-29T09:51:12.383Z</time></trkpt><trkpt lat="40.3845985" lon="9.7410767"><ele>13.0</ele><time>2026-03-29T09:51:13.382Z</time></trkpt><trkpt lat="40.3847491" lon="9.7411725"><ele>12.333333333333332</ele><time>2026-03-29T09:51:14.383Z</time></trkpt><trkpt lat="40.3849086" lon="9.7412556"><ele>11.666666666666666</ele><time>2026-03-29T09:51:15.381Z</time></trkpt><trkpt lat="40.3850736" lon="9.741328"><ele>11.0</ele><time>2026-03-29T09:51:16.392Z</time></trkpt><trkpt lat="40.3852435" lon="9.7413931"><ele>11.0</ele><time>2026-03-29T09:51:17.382Z</time></trkpt><trkpt lat="40.385409" lon="9.7414568"><ele>11.0</ele><time>2026-03-29T09:51:18.381Z</time></trkpt><trkpt lat="40.3855691" lon="9.74152"><ele>11.0</ele><time>2026-03-29T09:51:19.38Z</time></trkpt><trkpt lat="40.3857279" lon="9.7415849"><ele>11.333333333333332</ele><time>2026-03-29T09:51:20.38Z</time></trkpt><trkpt lat="40.3858899" lon="9.7416408"><ele>11.666666666666666</ele><time>2026-03-29T09:51:21.39Z</time></trkpt><trkpt lat="40.3860528" lon="9.7417098"><ele>12.0</ele><time>2026-03-29T09:51:22.387Z</time></trkpt><trkpt lat="40.3862162" lon="9.7417716"><ele>12.0</ele><time>2026-03-29T09:51:23.387Z</time></trkpt><trkpt lat="40.3863822" lon="9.7418074"><ele>12.0</ele><time>2026-03-29T09:51:24.379Z</time></trkpt><trkpt lat="40.3865521" lon="9.7418229"><ele>12.0</ele><time>2026-03-29T09:51:25.383Z</time></trkpt><trkpt lat="40.3867226" lon="9.7418225"><ele>12.0</ele><time>2026-03-29T09:51:26.379Z</time></trkpt><trkpt lat="40.3868854" lon="9.741821"><ele>12.0</ele><time>2026-03-29T09:51:27.39Z</time></trkpt><trkpt lat="40.3870405" lon="9.7418541"><ele>12.0</ele><time>2026-03-29T09:51:28.383Z</time></trkpt><trkpt lat="40.3871831" lon="9.7419167"><ele>13.75</ele><time>2026-03-29T09:51:29.386Z</time></trkpt><trkpt lat="40.3873163" lon="9.7420055"><ele>15.5</ele><time>2026-03-29T09:51:30.381Z</time></trkpt><trkpt lat="40.3874338" lon="9.7421252"><ele>17.25</ele><time>2026-03-29T09:51:31.382Z</time></trkpt><trkpt lat="40.3875257" lon="9.742275"><ele>19.0</ele><time>2026-03-29T09:51:32.383Z</time></trkpt><trkpt lat="40.3875952" lon="9.7424495"><ele>19.0</ele><time>2026-03-29T09:51:33.386Z</time></trkpt><trkpt lat="40.3876481" lon="9.7426418"><ele>19.0</ele><time>2026-03-29T09:51:34.378Z</time></trkpt><trkpt lat="40.3876971" lon="9.7428481"><ele>19.0</ele><time>2026-03-29T09:51:35.378Z</time></trkpt><trkpt lat="40.3877474" lon="9.7430662"><ele>19.0</ele><time>2026-03-29T09:51:36.381Z</time></trkpt><trkpt lat="40.3877971" lon="9.7432929"><ele>19.0</ele><time>2026-03-29T09:51:37.384Z</time></trkpt><trkpt lat="40.3878474" lon="9.7435255"><ele>19.0</ele><time>2026-03-29T09:51:38.379Z</time></trkpt><trkpt lat="40.3879005" lon="9.743763"><ele>19.333333333333332</ele><time>2026-03-29T09:51:39.389Z</time></trkpt><trkpt lat="40.3879586" lon="9.7440043"><ele>19.666666666666668</ele><time>2026-03-29T09:51:40.384Z</time></trkpt><trkpt lat="40.3880213" lon="9.7442462"><ele>20.0</ele><time>2026-03-29T09:51:41.383Z</time></trkpt><trkpt lat="40.388088" lon="9.7444771"><ele>19.333333333333336</ele><time>2026-03-29T09:51:42.379Z</time></trkpt><trkpt lat="40.3881515" lon="9.7446897"><ele>18.666666666666668</ele><time>2026-03-29T09:51:43.381Z</time></trkpt><trkpt lat="40.3882129" lon="9.7448849"><ele>18.0</ele><time>2026-03-29T09:51:44.379Z</time></trkpt><trkpt lat="40.3882734" lon="9.7450678"><ele>17.75</ele><time>2026-03-29T09:51:45.384Z</time></trkpt><trkpt lat="40.3883328" lon="9.7452438"><ele>17.5</ele><time>2026-03-29T09:51:46.382Z</time></trkpt><trkpt lat="40.388388" lon="9.7454116"><ele>17.25</ele><time>2026-03-29T09:51:47.384Z</time></trkpt><trkpt lat="40.3884362" lon="9.7455623"><ele>17.0</ele><time>2026-03-29T09:51:48.377Z</time></trkpt><trkpt lat="40.3884761" lon="9.7456851"><ele>17.0</ele><time>2026-03-29T09:51:49.384Z</time></trkpt><trkpt lat="40.3885103" lon="9.74579"><ele>17.0</ele><time>2026-03-29T09:51:50.381Z</time></trkpt><trkpt lat="40.388539" lon="9.7458813"><ele>17.0</ele><time>2026-03-29T09:51:51.385Z</time></trkpt><trkpt lat="40.3885641" lon="9.7459611"><ele>17.0</ele><time>2026-03-29T09:51:52.378Z</time></trkpt><trkpt lat="40.3886156" lon="9.7460836"><ele>17.0</ele><time>2026-03-29T09:51:54.38Z</time></trkpt><trkpt lat="40.3886934" lon="9.7461189"><ele>17.0</ele><time>2026-03-29T09:51:56.38Z</time></trkpt><trkpt lat="40.3887885" lon="9.7460779"><ele>16.999999999999996</ele><time>2026-03-29T09:51:58.388Z</time></trkpt><trkpt lat="40.3888516" lon="9.7460471"><ele>17.0</ele><time>2026-03-29T09:51:59.385Z</time></trkpt><trkpt lat="40.3889297" lon="9.7460414"><ele>17.0</ele><time>2026-03-29T09:52:00.386Z</time></trkpt><trkpt lat="40.3890058" lon="9.7460388"><ele>17.0</ele><time>2026-03-29T09:52:01.387Z</time></trkpt><trkpt lat="40.3890778" lon="9.7460282"><ele>17.0</ele><time>2026-03-29T09:52:02.378Z</time></trkpt><trkpt lat="40.3891397" lon="9.7460042"><ele>16.999999999999996</ele><time>2026-03-29T09:52:03.379Z</time></trkpt><trkpt lat="40.3891907" lon="9.7459529"><ele>17.0</ele><time>2026-03-29T09:52:04.379Z</time></trkpt><trkpt lat="40.3892413" lon="9.7458814"><ele>17.0</ele><time>2026-03-29T09:52:05.384Z</time></trkpt><trkpt lat="40.3892942" lon="9.7457949"><ele>17.0</ele><time>2026-03-29T09:52:06.387Z</time></trkpt><trkpt lat="40.3893568" lon="9.7457062"><ele>17.0</ele><time>2026-03-29T09:52:07.39Z</time></trkpt><trkpt lat="40.3894232" lon="9.7455983"><ele>17.0</ele><time>2026-03-29T09:52:08.387Z</time></trkpt><trkpt lat="40.3894904" lon="9.7454828"><ele>17.0</ele><time>2026-03-29T09:52:09.386Z</time></trkpt><trkpt lat="40.3895604" lon="9.7453672"><ele>17.0</ele><time>2026-03-29T09:52:10.382Z</time></trkpt><trkpt lat="40.389624" lon="9.7452541"><ele>17.0</ele><time>2026-03-29T09:52:11.385Z</time></trkpt><trkpt lat="40.3896818" lon="9.7451501"><ele>17.0</ele><time>2026-03-29T09:52:12.387Z</time></trkpt><trkpt lat="40.3897438" lon="9.7450444"><ele>17.0</ele><time>2026-03-29T09:52:13.386Z</time></trkpt><trkpt lat="40.3898013" lon="9.7449478"><ele>17.0</ele><time>2026-03-29T09:52:14.382Z</time></trkpt><trkpt lat="40.3898627" lon="9.7448515"><ele>17.8</ele><time>2026-03-29T09:52:15.384Z</time></trkpt><trkpt lat="40.3899322" lon="9.7447538"><ele>18.6</ele><time>2026-03-29T09:52:16.382Z</time></trkpt><trkpt lat="40.3900016" lon="9.7446548"><ele>19.400000000000002</ele><time>2026-03-29T09:52:17.39Z</time></trkpt><trkpt lat="40.3900766" lon="9.7445586"><ele>20.2</ele><time>2026-03-29T09:52:18.388Z</time></trkpt><trkpt lat="40.3901333" lon="9.7444462"><ele>21.0</ele><time>2026-03-29T09:52:19.403Z</time></trkpt><trkpt lat="40.3901947" lon="9.744336"><ele>21.200000000000003</ele><time>2026-03-29T09:52:20.381Z</time></trkpt><trkpt lat="40.3902549" lon="9.744233"><ele>21.400000000000002</ele><time>2026-03-29T09:52:21.393Z</time></trkpt><trkpt lat="40.390318" lon="9.7441282"><ele>21.6</ele><time>2026-03-29T09:52:22.389Z</time></trkpt><trkpt lat="40.3903827" lon="9.744029"><ele>21.8</ele><time>2026-03-29T09:52:23.38Z</time></trkpt><trkpt lat="40.3904501" lon="9.743929"><ele>22.0</ele><time>2026-03-29T09:52:24.38Z</time></trkpt><trkpt lat="40.3905166" lon="9.7438284"><ele>22.6</ele><time>2026-03-29T09:52:25.385Z</time></trkpt><trkpt lat="40.3905808" lon="9.7437264"><ele>23.200000000000003</ele><time>2026-03-29T09:52:26.381Z</time></trkpt><trkpt lat="40.3906455" lon="9.7436245"><ele>23.8</ele><time>2026-03-29T09:52:27.43Z</time></trkpt><trkpt lat="40.3907106" lon="9.7435294"><ele>24.4</ele><time>2026-03-29T09:52:28.39Z</time></trkpt><trkpt lat="40.3907741" lon="9.7434508"><ele>25.0</ele><time>2026-03-29T09:52:29.382Z</time></trkpt><trkpt lat="40.3908363" lon="9.743406"><ele>25.000000000000004</ele><time>2026-03-29T09:52:30.39Z</time></trkpt><trkpt lat="40.3909633" lon="9.7434057"><ele>25.0</ele><time>2026-03-29T09:52:32.392Z</time></trkpt><trkpt lat="40.3910297" lon="9.7434278"><ele>25.0</ele><time>2026-03-29T09:52:33.39Z</time></trkpt><trkpt lat="40.391094" lon="9.7434991"><ele>25.0</ele><time>2026-03-29T09:52:34.385Z</time></trkpt><trkpt lat="40.3911636" lon="9.7435639"><ele>25.000000000000004</ele><time>2026-03-29T09:52:35.412Z</time></trkpt><trkpt lat="40.3912324" lon="9.743604"><ele>25.0</ele><time>2026-03-29T09:52:36.393Z</time></trkpt><trkpt lat="40.3912958" lon="9.7436154"><ele>25.500000000000004</ele><time>2026-03-29T09:52:37.385Z</time></trkpt><trkpt lat="40.3913621" lon="9.7436119"><ele>26.0</ele><time>2026-03-29T09:52:38.382Z</time></trkpt><trkpt lat="40.3914215" lon="9.743556"><ele>26.5</ele><time>2026-03-29T09:52:39.382Z</time></trkpt><trkpt lat="40.3914835" lon="9.7434881"><ele>27.0</ele><time>2026-03-29T09:52:40.387Z</time></trkpt><trkpt lat="40.3915517" lon="9.743407"><ele>27.500000000000004</ele><time>2026-03-29T09:52:41.381Z</time></trkpt><trkpt lat="40.3916253" lon="9.7433181"><ele>28.0</ele><time>2026-03-29T09:52:42.383Z</time></trkpt><trkpt lat="40.391703" lon="9.743227"><ele>28.4</ele><time>2026-03-29T09:52:43.384Z</time></trkpt><trkpt lat="40.3917855" lon="9.7431331"><ele>28.799999999999997</ele><time>2026-03-29T09:52:44.383Z</time></trkpt><trkpt lat="40.3918634" lon="9.7430284"><ele>29.2</ele><time>2026-03-29T09:52:45.382Z</time></trkpt><trkpt lat="40.3919309" lon="9.7429162"><ele>29.6</ele><time>2026-03-29T09:52:46.383Z</time></trkpt><trkpt lat="40.3919965" lon="9.7427953"><ele>30.0</ele><time>2026-03-29T09:52:47.379Z</time></trkpt><trkpt lat="40.3920609" lon="9.7426804"><ele>30.75</ele><time>2026-03-29T09:52:48.391Z</time></trkpt><trkpt lat="40.3921348" lon="9.742576"><ele>31.5</ele><time>2026-03-29T09:52:49.382Z</time></trkpt><trkpt lat="40.3922216" lon="9.7424801"><ele>32.25</ele><time>2026-03-29T09:52:50.386Z</time></trkpt><trkpt lat="40.3923173" lon="9.7423815"><ele>33.0</ele><time>2026-03-29T09:52:51.388Z</time></trkpt><trkpt lat="40.3924101" lon="9.7422728"><ele>33.25</ele><time>2026-03-29T09:52:52.39Z</time></trkpt><trkpt lat="40.3924988" lon="9.7421524"><ele>33.5</ele><time>2026-03-29T09:52:53.388Z</time></trkpt><trkpt lat="40.3925813" lon="9.7420247"><ele>33.75</ele><time>2026-03-29T09:52:54.387Z</time></trkpt><trkpt lat="40.3926592" lon="9.7418916"><ele>34.0</ele><time>2026-03-29T09:52:55.39Z</time></trkpt><trkpt lat="40.3927385" lon="9.741761"><ele>34.75</ele><time>2026-03-29T09:52:56.388Z</time></trkpt><trkpt lat="40.392823" lon="9.7416393"><ele>35.5</ele><time>2026-03-29T09:52:57.389Z</time></trkpt><trkpt lat="40.3929143" lon="9.7415228"><ele>36.25</ele><time>2026-03-29T09:52:58.386Z</time></trkpt><trkpt lat="40.392977" lon="9.7414041"><ele>37.0</ele><time>2026-03-29T09:52:59.389Z</time></trkpt><trkpt lat="40.3930419" lon="9.7412811"><ele>37.0</ele><time>2026-03-29T09:53:00.387Z</time></trkpt><trkpt lat="40.3930929" lon="9.7411284"><ele>37.0</ele><time>2026-03-29T09:53:01.387Z</time></trkpt><trkpt lat="40.3931462" lon="9.74098"><ele>37.0</ele><time>2026-03-29T09:53:02.387Z</time></trkpt><trkpt lat="40.39322" lon="9.7408336"><ele>37.0</ele><time>2026-03-29T09:53:03.387Z</time></trkpt><trkpt lat="40.3932952" lon="9.7407015"><ele>37.5</ele><time>2026-03-29T09:53:04.406Z</time></trkpt><trkpt lat="40.3933665" lon="9.7405633"><ele>38.0</ele><time>2026-03-29T09:53:05.389Z</time></trkpt><trkpt lat="40.3934349" lon="9.7404191"><ele>38.5</ele><time>2026-03-29T09:53:06.39Z</time></trkpt><trkpt lat="40.3934933" lon="9.7402871"><ele>39.0</ele><time>2026-03-29T09:53:07.386Z</time></trkpt><trkpt lat="40.3935513" lon="9.7401551"><ele>39.75</ele><time>2026-03-29T09:53:08.388Z</time></trkpt><trkpt lat="40.3936007" lon="9.7400216"><ele>40.5</ele><time>2026-03-29T09:53:09.388Z</time></trkpt><trkpt lat="40.3936421" lon="9.7398863"><ele>41.25</ele><time>2026-03-29T09:53:10.391Z</time></trkpt><trkpt lat="40.3936849" lon="9.7397439"><ele>42.0</ele><time>2026-03-29T09:53:11.394Z</time></trkpt><trkpt lat="40.3937276" lon="9.7395989"><ele>42.0</ele><time>2026-03-29T09:53:12.387Z</time></trkpt><trkpt lat="40.3937705" lon="9.7394553"><ele>42.0</ele><time>2026-03-29T09:53:13.387Z</time></trkpt><trkpt lat="40.3938135" lon="9.7393248"><ele>42.0</ele><time>2026-03-29T09:53:14.392Z</time></trkpt><trkpt lat="40.3938638" lon="9.7392196"><ele>42.0</ele><time>2026-03-29T09:53:15.387Z</time></trkpt><trkpt lat="40.3939193" lon="9.7391491"><ele>42.0</ele><time>2026-03-29T09:53:16.385Z</time></trkpt><trkpt lat="40.3940281" lon="9.7390914"><ele>42.0</ele><time>2026-03-29T09:53:18.406Z</time></trkpt><trkpt lat="40.3940909" lon="9.7391227"><ele>42.0</ele><time>2026-03-29T09:53:20.396Z</time></trkpt><trkpt lat="40.3941693" lon="9.7392029"><ele>42.0</ele><time>2026-03-29T09:53:22.393Z</time></trkpt><trkpt lat="40.39422" lon="9.7392665"><ele>42.0</ele><time>2026-03-29T09:53:23.388Z</time></trkpt><trkpt lat="40.3942784" lon="9.7393407"><ele>42.0</ele><time>2026-03-29T09:53:24.386Z</time></trkpt><trkpt lat="40.3943421" lon="9.7394252"><ele>42.0</ele><time>2026-03-29T09:53:25.39Z</time></trkpt><trkpt lat="40.3944066" lon="9.7395147"><ele>42.0</ele><time>2026-03-29T09:53:26.386Z</time></trkpt><trkpt lat="40.3944706" lon="9.7396037"><ele>42.0</ele><time>2026-03-29T09:53:27.397Z</time></trkpt><trkpt lat="40.3945384" lon="9.739696"><ele>42.0</ele><time>2026-03-29T09:53:28.386Z</time></trkpt><trkpt lat="40.3946064" lon="9.7397947"><ele>42.0</ele><time>2026-03-29T09:53:29.387Z</time></trkpt><trkpt lat="40.3946656" lon="9.7398852"><ele>42.0</ele><time>2026-03-29T09:53:30.389Z</time></trkpt><trkpt lat="40.394732" lon="9.7399851"><ele>42.0</ele><time>2026-03-29T09:53:31.389Z</time></trkpt><trkpt lat="40.3948051" lon="9.7400789"><ele>42.0</ele><time>2026-03-29T09:53:32.402Z</time></trkpt><trkpt lat="40.3948824" lon="9.7401757"><ele>42.0</ele><time>2026-03-29T09:53:33.388Z</time></trkpt><trkpt lat="40.3949633" lon="9.7402772"><ele>42.0</ele><time>2026-03-29T09:53:34.39Z</time></trkpt><trkpt lat="40.395041" lon="9.7403779"><ele>42.0</ele><time>2026-03-29T09:53:35.388Z</time></trkpt><trkpt lat="40.3951191" lon="9.7404664"><ele>41.8</ele><time>2026-03-29T09:53:36.383Z</time></trkpt><trkpt lat="40.395192" lon="9.7405547"><ele>41.6</ele><time>2026-03-29T09:53:37.387Z</time></trkpt><trkpt lat="40.395259" lon="9.740657"><ele>41.4</ele><time>2026-03-29T09:53:38.39Z</time></trkpt><trkpt lat="40.3953256" lon="9.7407785"><ele>41.199999999999996</ele><time>2026-03-29T09:53:39.386Z</time></trkpt><trkpt lat="40.3953934" lon="9.7409142"><ele>41.0</ele><time>2026-03-29T09:53:40.388Z</time></trkpt><trkpt lat="40.3954669" lon="9.7410405"><ele>40.8</ele><time>2026-03-29T09:53:41.391Z</time></trkpt><trkpt lat="40.3955399" lon="9.7411494"><ele>40.599999999999994</ele><time>2026-03-29T09:53:42.387Z</time></trkpt><trkpt lat="40.3956148" lon="9.741243"><ele>40.4</ele><time>2026-03-29T09:53:43.395Z</time></trkpt><trkpt lat="40.3956989" lon="9.7413405"><ele>40.2</ele><time>2026-03-29T09:53:44.394Z</time></trkpt><trkpt lat="40.395797" lon="9.7414175"><ele>40.0</ele><time>2026-03-29T09:53:45.388Z</time></trkpt><trkpt lat="40.3958715" lon="9.7415389"><ele>40.0</ele><time>2026-03-29T09:53:46.394Z</time></trkpt><trkpt lat="40.3959411" lon="9.7416628"><ele>40.0</ele><time>2026-03-29T09:53:47.386Z</time></trkpt><trkpt lat="40.3960214" lon="9.7417997"><ele>40.0</ele><time>2026-03-29T09:53:48.384Z</time></trkpt><trkpt lat="40.3960956" lon="9.7419384"><ele>40.0</ele><time>2026-03-29T09:53:49.388Z</time></trkpt><trkpt lat="40.3961703" lon="9.7420635"><ele>40.2</ele><time>2026-03-29T09:53:50.389Z</time></trkpt><trkpt lat="40.3962319" lon="9.7421732"><ele>40.4</ele><time>2026-03-29T09:53:51.403Z</time></trkpt><trkpt lat="40.3962746" lon="9.7422465"><ele>40.599999999999994</ele><time>2026-03-29T09:53:52.394Z</time></trkpt><trkpt lat="40.3963452" lon="9.7423152"><ele>40.8</ele><time>2026-03-29T09:53:54.383Z</time></trkpt><trkpt lat="40.3964037" lon="9.7422699"><ele>41.0</ele><time>2026-03-29T09:53:56.39Z</time></trkpt><trkpt lat="40.3964712" lon="9.7421255"><ele>41.199999999999996</ele><time>2026-03-29T09:53:58.39Z</time></trkpt><trkpt lat="40.3965256" lon="9.7420208"><ele>41.4</ele><time>2026-03-29T09:53:59.395Z</time></trkpt><trkpt lat="40.3965795" lon="9.7419113"><ele>41.6</ele><time>2026-03-29T09:54:00.387Z</time></trkpt><trkpt lat="40.3966324" lon="9.7417961"><ele>41.8</ele><time>2026-03-29T09:54:01.383Z</time></trkpt><trkpt lat="40.3966826" lon="9.7416826"><ele>42.0</ele><time>2026-03-29T09:54:02.387Z</time></trkpt><trkpt lat="40.3967324" lon="9.7415812"><ele>42.166666666666664</ele><time>2026-03-29T09:54:03.392Z</time></trkpt><trkpt lat="40.3967772" lon="9.7414849"><ele>42.333333333333336</ele><time>2026-03-29T09:54:04.391Z</time></trkpt><trkpt lat="40.3968203" lon="9.7413873"><ele>42.5</ele><time>2026-03-29T09:54:05.394Z</time></trkpt><trkpt lat="40.3968646" lon="9.7412986"><ele>42.66666666666667</ele><time>2026-03-29T09:54:06.393Z</time></trkpt><trkpt lat="40.3969049" lon="9.7412136"><ele>42.833333333333336</ele><time>2026-03-29T09:54:07.399Z</time></trkpt><trkpt lat="40.3969417" lon="9.7411295"><ele>43.0</ele><time>2026-03-29T09:54:08.383Z</time></trkpt><trkpt lat="40.396982" lon="9.7410379"><ele>43.16666666666667</ele><time>2026-03-29T09:54:09.395Z</time></trkpt><trkpt lat="40.3970186" lon="9.7409549"><ele>43.333333333333336</ele><time>2026-03-29T09:54:10.39Z</time></trkpt><trkpt lat="40.3970568" lon="9.7408694"><ele>43.5</ele><time>2026-03-29T09:54:11.39Z</time></trkpt><trkpt lat="40.3970931" lon="9.7407859"><ele>43.666666666666664</ele><time>2026-03-29T09:54:12.389Z</time></trkpt><trkpt lat="40.397133" lon="9.740699"><ele>43.83333333333333</ele><time>2026-03-29T09:54:13.392Z</time></trkpt><trkpt lat="40.3971705" lon="9.7406114"><ele>44.0</ele><time>2026-03-29T09:54:14.392Z</time></trkpt><trkpt lat="40.3972142" lon="9.7405199"><ele>44.6</ele><time>2026-03-29T09:54:15.382Z</time></trkpt><trkpt lat="40.3972661" lon="9.7404285"><ele>45.2</ele><time>2026-03-29T09:54:16.387Z</time></trkpt><trkpt lat="40.3973179" lon="9.7403325"><ele>45.800000000000004</ele><time>2026-03-29T09:54:17.387Z</time></trkpt><trkpt lat="40.3973723" lon="9.7402323"><ele>46.400000000000006</ele><time>2026-03-29T09:54:18.396Z</time></trkpt><trkpt lat="40.3974234" lon="9.740125"><ele>47.0</ele><time>2026-03-29T09:54:19.386Z</time></trkpt><trkpt lat="40.3974787" lon="9.7400154"><ele>47.2</ele><time>2026-03-29T09:54:20.405Z</time></trkpt><trkpt lat="40.397533" lon="9.7399051"><ele>47.400000000000006</ele><time>2026-03-29T09:54:21.39Z</time></trkpt><trkpt lat="40.3975859" lon="9.7397852"><ele>47.599999999999994</ele><time>2026-03-29T09:54:22.393Z</time></trkpt><trkpt lat="40.3976381" lon="9.7396586"><ele>47.8</ele><time>2026-03-29T09:54:23.389Z</time></trkpt><trkpt lat="40.3976895" lon="9.7395223"><ele>48.0</ele><time>2026-03-29T09:54:24.382Z</time></trkpt><trkpt lat="40.3977405" lon="9.7393806"><ele>48.5</ele><time>2026-03-29T09:54:25.389Z</time></trkpt><trkpt lat="40.3977917" lon="9.7392378"><ele>49.0</ele><time>2026-03-29T09:54:26.39Z</time></trkpt><trkpt lat="40.3978412" lon="9.7390949"><ele>49.5</ele><time>2026-03-29T09:54:27.38Z</time></trkpt><trkpt lat="40.3978871" lon="9.7389534"><ele>50.0</ele><time>2026-03-29T09:54:28.409Z</time></trkpt><trkpt lat="40.397932" lon="9.7388187"><ele>50.0</ele><time>2026-03-29T09:54:29.381Z</time></trkpt><trkpt lat="40.3979819" lon="9.7386779"><ele>50.0</ele><time>2026-03-29T09:54:30.39Z</time></trkpt><trkpt lat="40.3980337" lon="9.7385345"><ele>50.0</ele><time>2026-03-29T09:54:31.384Z</time></trkpt><trkpt lat="40.3980865" lon="9.7383868"><ele>50.0</ele><time>2026-03-29T09:54:32.388Z</time></trkpt><trkpt lat="40.3981399" lon="9.7382388"><ele>50.5</ele><time>2026-03-29T09:54:33.387Z</time></trkpt><trkpt lat="40.3981892" lon="9.7380958"><ele>51.0</ele><time>2026-03-29T09:54:34.382Z</time></trkpt><trkpt lat="40.3982353" lon="9.7379523"><ele>51.5</ele><time>2026-03-29T09:54:35.386Z</time></trkpt><trkpt lat="40.3982837" lon="9.7378034"><ele>52.0</ele><time>2026-03-29T09:54:36.387Z</time></trkpt><trkpt lat="40.3983345" lon="9.7376514"><ele>52.5</ele><time>2026-03-29T09:54:37.393Z</time></trkpt><trkpt lat="40.3983887" lon="9.7374973"><ele>53.0</ele><time>2026-03-29T09:54:38.392Z</time></trkpt><trkpt lat="40.3984417" lon="9.7373432"><ele>53.5</ele><time>2026-03-29T09:54:39.384Z</time></trkpt><trkpt lat="40.398495" lon="9.7371869"><ele>54.0</ele><time>2026-03-29T09:54:40.383Z</time></trkpt><trkpt lat="40.39855" lon="9.7370247"><ele>54.25</ele><time>2026-03-29T09:54:41.387Z</time></trkpt><trkpt lat="40.3986085" lon="9.7368565"><ele>54.5</ele><time>2026-03-29T09:54:42.385Z</time></trkpt><trkpt lat="40.3986679" lon="9.7366867"><ele>54.75</ele><time>2026-03-29T09:54:43.386Z</time></trkpt><trkpt lat="40.3987275" lon="9.7365153"><ele>55.0</ele><time>2026-03-29T09:54:44.388Z</time></trkpt><trkpt lat="40.3987828" lon="9.7363399"><ele>55.0</ele><time>2026-03-29T09:54:45.386Z</time></trkpt><trkpt lat="40.3988386" lon="9.7361612"><ele>55.0</ele><time>2026-03-29T09:54:46.383Z</time></trkpt><trkpt lat="40.3988952" lon="9.7359829"><ele>55.0</ele><time>2026-03-29T09:54:47.385Z</time></trkpt><trkpt lat="40.3989547" lon="9.7358059"><ele>55.0</ele><time>2026-03-29T09:54:48.384Z</time></trkpt><trkpt lat="40.3990148" lon="9.7356288"><ele>55.5</ele><time>2026-03-29T09:54:49.384Z</time></trkpt><trkpt lat="40.3990701" lon="9.7354554"><ele>56.0</ele><time>2026-03-29T09:54:50.395Z</time></trkpt><trkpt lat="40.3991226" lon="9.7352805"><ele>56.5</ele><time>2026-03-29T09:54:51.385Z</time></trkpt><trkpt lat="40.3991791" lon="9.7351046"><ele>57.0</ele><time>2026-03-29T09:54:52.385Z</time></trkpt><trkpt lat="40.3992372" lon="9.7349233"><ele>57.0</ele><time>2026-03-29T09:54:53.386Z</time></trkpt><trkpt lat="40.3992942" lon="9.7347437"><ele>57.0</ele><time>2026-03-29T09:54:54.385Z</time></trkpt><trkpt lat="40.3993468" lon="9.7345635"><ele>57.0</ele><time>2026-03-29T09:54:55.386Z</time></trkpt><trkpt lat="40.3993955" lon="9.7343932"><ele>57.0</ele><time>2026-03-29T09:54:56.39Z</time></trkpt><trkpt lat="40.3994375" lon="9.7342384"><ele>56.8</ele><time>2026-03-29T09:54:57.399Z</time></trkpt><trkpt lat="40.3994783" lon="9.7341048"><ele>56.6</ele><time>2026-03-29T09:54:58.383Z</time></trkpt><trkpt lat="40.3995283" lon="9.7339943"><ele>56.39999999999999</ele><time>2026-03-29T09:54:59.388Z</time></trkpt><trkpt lat="40.3995878" lon="9.7338952"><ele>56.199999999999996</ele><time>2026-03-29T09:55:00.39Z</time></trkpt><trkpt lat="40.3996574" lon="9.7337954"><ele>56.0</ele><time>2026-03-29T09:55:01.387Z</time></trkpt><trkpt lat="40.3997269" lon="9.7336939"><ele>56.599999999999994</ele><time>2026-03-29T09:55:02.391Z</time></trkpt><trkpt lat="40.3997864" lon="9.7335835"><ele>57.199999999999996</ele><time>2026-03-29T09:55:03.388Z</time></trkpt><trkpt lat="40.3998437" lon="9.7334716"><ele>57.800000000000004</ele><time>2026-03-29T09:55:04.392Z</time></trkpt><trkpt lat="40.3998961" lon="9.7333541"><ele>58.400000000000006</ele><time>2026-03-29T09:55:05.388Z</time></trkpt><trkpt lat="40.3999452" lon="9.733236"><ele>59.0</ele><time>2026-03-29T09:55:06.389Z</time></trkpt><trkpt lat="40.3999997" lon="9.7331159"><ele>59.25</ele><time>2026-03-29T09:55:07.383Z</time></trkpt><trkpt lat="40.4000567" lon="9.7329879"><ele>59.5</ele><time>2026-03-29T09:55:08.388Z</time></trkpt><trkpt lat="40.4001135" lon="9.7328599"><ele>59.75</ele><time>2026-03-29T09:55:09.38Z</time></trkpt><trkpt lat="40.4001749" lon="9.732723"><ele>60.0</ele><time>2026-03-29T09:55:10.391Z</time></trkpt><trkpt lat="40.4002356" lon="9.7325822"><ele>60.0</ele><time>2026-03-29T09:55:11.389Z</time></trkpt><trkpt lat="40.4002902" lon="9.732439"><ele>60.0</ele><time>2026-03-29T09:55:12.385Z</time></trkpt><trkpt lat="40.4003412" lon="9.7322871"><ele>60.0</ele><time>2026-03-29T09:55:13.391Z</time></trkpt><trkpt lat="40.4003903" lon="9.7321235"><ele>60.0</ele><time>2026-03-29T09:55:14.384Z</time></trkpt><trkpt lat="40.4004358" lon="9.7319547"><ele>60.25</ele><time>2026-03-29T09:55:15.383Z</time></trkpt><trkpt lat="40.4004824" lon="9.731782"><ele>60.5</ele><time>2026-03-29T09:55:16.383Z</time></trkpt><trkpt lat="40.4005285" lon="9.7316087"><ele>60.75</ele><time>2026-03-29T09:55:17.386Z</time></trkpt><trkpt lat="40.4005751" lon="9.7314333"><ele>61.0</ele><time>2026-03-29T09:55:18.386Z</time></trkpt><trkpt lat="40.4006244" lon="9.7312557"><ele>61.25</ele><time>2026-03-29T09:55:19.384Z</time></trkpt><trkpt lat="40.4006753" lon="9.7310766"><ele>61.5</ele><time>2026-03-29T09:55:20.387Z</time></trkpt><trkpt lat="40.4007277" lon="9.730898"><ele>61.75</ele><time>2026-03-29T09:55:21.387Z</time></trkpt><trkpt lat="40.4007832" lon="9.7307141"><ele>62.0</ele><time>2026-03-29T09:55:22.387Z</time></trkpt><trkpt lat="40.4008355" lon="9.7305322"><ele>62.0</ele><time>2026-03-29T09:55:23.382Z</time></trkpt><trkpt lat="40.4008898" lon="9.7303464"><ele>62.0</ele><time>2026-03-29T09:55:24.385Z</time></trkpt><trkpt lat="40.4009478" lon="9.7301579"><ele>62.0</ele><time>2026-03-29T09:55:25.386Z</time></trkpt><trkpt lat="40.4010059" lon="9.7299676"><ele>62.0</ele><time>2026-03-29T09:55:26.383Z</time></trkpt><trkpt lat="40.4010634" lon="9.7297734"><ele>62.0</ele><time>2026-03-29T09:55:27.387Z</time></trkpt><trkpt lat="40.4011196" lon="9.7295823"><ele>62.0</ele><time>2026-03-29T09:55:28.382Z</time></trkpt><trkpt lat="40.4011759" lon="9.7293888"><ele>62.0</ele><time>2026-03-29T09:55:29.387Z</time></trkpt><trkpt lat="40.4012327" lon="9.7291997"><ele>62.0</ele><time>2026-03-29T09:55:30.391Z</time></trkpt><trkpt lat="40.4012919" lon="9.7290097"><ele>62.0</ele><time>2026-03-29T09:55:31.387Z</time></trkpt><trkpt lat="40.401351" lon="9.7288201"><ele>62.66666666666667</ele><time>2026-03-29T09:55:32.392Z</time></trkpt><trkpt lat="40.4014096" lon="9.7286287"><ele>63.33333333333333</ele><time>2026-03-29T09:55:33.387Z</time></trkpt><trkpt lat="40.401468" lon="9.7284368"><ele>64.0</ele><time>2026-03-29T09:55:34.39Z</time></trkpt><trkpt lat="40.4015252" lon="9.7282443"><ele>64.0</ele><time>2026-03-29T09:55:35.389Z</time></trkpt><trkpt lat="40.4015816" lon="9.7280535"><ele>64.0</ele><time>2026-03-29T09:55:36.385Z</time></trkpt><trkpt lat="40.4016363" lon="9.7278628"><ele>64.0</ele><time>2026-03-29T09:55:37.393Z</time></trkpt><trkpt lat="40.4016925" lon="9.7276813"><ele>64.25</ele><time>2026-03-29T09:55:38.39Z</time></trkpt><trkpt lat="40.4017428" lon="9.7275023"><ele>64.5</ele><time>2026-03-29T09:55:39.388Z</time></trkpt><trkpt lat="40.4017941" lon="9.7273229"><ele>64.75</ele><time>2026-03-29T09:55:40.389Z</time></trkpt><trkpt lat="40.4018465" lon="9.7271409"><ele>65.0</ele><time>2026-03-29T09:55:41.389Z</time></trkpt><trkpt lat="40.401905" lon="9.726973"><ele>64.75</ele><time>2026-03-29T09:55:42.384Z</time></trkpt><trkpt lat="40.4019654" lon="9.7268033"><ele>64.5</ele><time>2026-03-29T09:55:43.388Z</time></trkpt><trkpt lat="40.4020367" lon="9.7266367"><ele>64.25</ele><time>2026-03-29T09:55:44.39Z</time></trkpt><trkpt lat="40.402098" lon="9.726474"><ele>64.0</ele><time>2026-03-29T09:55:45.385Z</time></trkpt><trkpt lat="40.4021547" lon="9.7263098"><ele>64.25</ele><time>2026-03-29T09:55:46.395Z</time></trkpt><trkpt lat="40.4021997" lon="9.7261416"><ele>64.5</ele><time>2026-03-29T09:55:47.393Z</time></trkpt><trkpt lat="40.4022345" lon="9.7259849"><ele>64.75</ele><time>2026-03-29T09:55:48.387Z</time></trkpt><trkpt lat="40.4022608" lon="9.7258449"><ele>65.0</ele><time>2026-03-29T09:55:49.388Z</time></trkpt><trkpt lat="40.4022787" lon="9.7257055"><ele>65.2</ele><time>2026-03-29T09:55:50.388Z</time></trkpt><trkpt lat="40.4022978" lon="9.7255756"><ele>65.4</ele><time>2026-03-29T09:55:51.386Z</time></trkpt><trkpt lat="40.4023189" lon="9.7254604"><ele>65.6</ele><time>2026-03-29T09:55:52.386Z</time></trkpt><trkpt lat="40.4023397" lon="9.7253544"><ele>65.8</ele><time>2026-03-29T09:55:53.386Z</time></trkpt><trkpt lat="40.4023698" lon="9.7252381"><ele>66.0</ele><time>2026-03-29T09:55:54.388Z</time></trkpt><trkpt lat="40.4023921" lon="9.7251331"><ele>66.39999999999999</ele><time>2026-03-29T09:55:55.387Z</time></trkpt><trkpt lat="40.4024113" lon="9.7250374"><ele>66.8</ele><time>2026-03-29T09:55:56.383Z</time></trkpt><trkpt lat="40.4024388" lon="9.7249253"><ele>67.19999999999999</ele><time>2026-03-29T09:55:57.389Z</time></trkpt><trkpt lat="40.4024566" lon="9.7248141"><ele>67.6</ele><time>2026-03-29T09:55:58.387Z</time></trkpt><trkpt lat="40.4024641" lon="9.7246839"><ele>68.0</ele><time>2026-03-29T09:55:59.39Z</time></trkpt><trkpt lat="40.4024622" lon="9.7245528"><ele>68.0</ele><time>2026-03-29T09:56:00.386Z</time></trkpt><trkpt lat="40.4024654" lon="9.7244167"><ele>68.0</ele><time>2026-03-29T09:56:01.387Z</time></trkpt><trkpt lat="40.4024684" lon="9.7242753"><ele>68.0</ele><time>2026-03-29T09:56:02.388Z</time></trkpt><trkpt lat="40.4024604" lon="9.7241351"><ele>68.0</ele><time>2026-03-29T09:56:03.397Z</time></trkpt><trkpt lat="40.4024434" lon="9.7239915"><ele>68.0</ele><time>2026-03-29T09:56:04.382Z</time></trkpt><trkpt lat="40.4024218" lon="9.7238516"><ele>67.8</ele><time>2026-03-29T09:56:05.387Z</time></trkpt><trkpt lat="40.4024024" lon="9.7237137"><ele>67.6</ele><time>2026-03-29T09:56:06.382Z</time></trkpt><trkpt lat="40.4023862" lon="9.7235723"><ele>67.4</ele><time>2026-03-29T09:56:07.39Z</time></trkpt><trkpt lat="40.4023683" lon="9.7234342"><ele>67.2</ele><time>2026-03-29T09:56:08.393Z</time></trkpt><trkpt lat="40.4023481" lon="9.7232957"><ele>67.0</ele><time>2026-03-29T09:56:09.384Z</time></trkpt><trkpt lat="40.4023231" lon="9.7231501"><ele>67.0</ele><time>2026-03-29T09:56:10.391Z</time></trkpt><trkpt lat="40.4022962" lon="9.7230011"><ele>67.0</ele><time>2026-03-29T09:56:11.39Z</time></trkpt><trkpt lat="40.4022741" lon="9.7228637"><ele>67.0</ele><time>2026-03-29T09:56:12.391Z</time></trkpt><trkpt lat="40.4022536" lon="9.7227398"><ele>67.0</ele><time>2026-03-29T09:56:13.389Z</time></trkpt><trkpt lat="40.4022364" lon="9.7226321"><ele>67.0</ele><time>2026-03-29T09:56:14.386Z</time></trkpt><trkpt lat="40.4022224" lon="9.7225365"><ele>66.83333333333333</ele><time>2026-03-29T09:56:15.395Z</time></trkpt><trkpt lat="40.4022162" lon="9.7224452"><ele>66.66666666666666</ele><time>2026-03-29T09:56:16.383Z</time></trkpt><trkpt lat="40.402214" lon="9.7223451"><ele>66.5</ele><time>2026-03-29T09:56:17.384Z</time></trkpt><trkpt lat="40.4022114" lon="9.7222224"><ele>66.33333333333333</ele><time>2026-03-29T09:56:18.383Z</time></trkpt><trkpt lat="40.4022025" lon="9.7220955"><ele>66.16666666666667</ele><time>2026-03-29T09:56:19.389Z</time></trkpt><trkpt lat="40.4021862" lon="9.7219737"><ele>66.0</ele><time>2026-03-29T09:56:20.384Z</time></trkpt><trkpt lat="40.4021644" lon="9.7218652"><ele>65.71428571428571</ele><time>2026-03-29T09:56:21.39Z</time></trkpt><trkpt lat="40.4021401" lon="9.7217667"><ele>65.42857142857143</ele><time>2026-03-29T09:56:22.391Z</time></trkpt><trkpt lat="40.4021133" lon="9.7216788"><ele>65.14285714285714</ele><time>2026-03-29T09:56:23.386Z</time></trkpt><trkpt lat="40.4020821" lon="9.7215912"><ele>64.85714285714286</ele><time>2026-03-29T09:56:24.387Z</time></trkpt><trkpt lat="40.4020408" lon="9.7215034"><ele>64.57142857142857</ele><time>2026-03-29T09:56:25.386Z</time></trkpt><trkpt lat="40.4019929" lon="9.7214438"><ele>64.28571428571428</ele><time>2026-03-29T09:56:26.392Z</time></trkpt><trkpt lat="40.4019382" lon="9.721391"><ele>64.0</ele><time>2026-03-29T09:56:27.387Z</time></trkpt><trkpt lat="40.4018716" lon="9.7213502"><ele>64.0</ele><time>2026-03-29T09:56:28.394Z</time></trkpt><trkpt lat="40.4017977" lon="9.7213005"><ele>64.0</ele><time>2026-03-29T09:56:29.389Z</time></trkpt><trkpt lat="40.4017188" lon="9.721248"><ele>64.0</ele><time>2026-03-29T09:56:30.396Z</time></trkpt><trkpt lat="40.4016401" lon="9.7211704"><ele>64.0</ele><time>2026-03-29T09:56:31.383Z</time></trkpt><trkpt lat="40.4015543" lon="9.7210823"><ele>64.0</ele><time>2026-03-29T09:56:32.384Z</time></trkpt><trkpt lat="40.4014567" lon="9.7209921"><ele>64.4</ele><time>2026-03-29T09:56:33.387Z</time></trkpt><trkpt lat="40.4013655" lon="9.7209158"><ele>64.80000000000001</ele><time>2026-03-29T09:56:34.396Z</time></trkpt><trkpt lat="40.4012717" lon="9.7208529"><ele>65.19999999999999</ele><time>2026-03-29T09:56:35.391Z</time></trkpt><trkpt lat="40.4011819" lon="9.7207971"><ele>65.6</ele><time>2026-03-29T09:56:36.402Z</time></trkpt><trkpt lat="40.4011013" lon="9.7207336"><ele>66.0</ele><time>2026-03-29T09:56:37.385Z</time></trkpt><trkpt lat="40.4010299" lon="9.7206633"><ele>66.2</ele><time>2026-03-29T09:56:38.388Z</time></trkpt><trkpt lat="40.4009628" lon="9.7205798"><ele>66.39999999999999</ele><time>2026-03-29T09:56:39.39Z</time></trkpt><trkpt lat="40.4008931" lon="9.7204884"><ele>66.6</ele><time>2026-03-29T09:56:40.389Z</time></trkpt><trkpt lat="40.4008213" lon="9.7204054"><ele>66.8</ele><time>2026-03-29T09:56:41.386Z</time></trkpt><trkpt lat="40.4007422" lon="9.7203298"><ele>67.0</ele><time>2026-03-29T09:56:42.387Z</time></trkpt><trkpt lat="40.4006642" lon="9.7202566"><ele>67.0</ele><time>2026-03-29T09:56:43.436Z</time></trkpt><trkpt lat="40.4005797" lon="9.7201836"><ele>67.0</ele><time>2026-03-29T09:56:44.389Z</time></trkpt><trkpt lat="40.4004891" lon="9.7201099"><ele>67.0</ele><time>2026-03-29T09:56:45.387Z</time></trkpt><trkpt lat="40.4004041" lon="9.7200437"><ele>67.0</ele><time>2026-03-29T09:56:46.39Z</time></trkpt><trkpt lat="40.400328" lon="9.7199791"><ele>67.0</ele><time>2026-03-29T09:56:47.383Z</time></trkpt><trkpt lat="40.4002688" lon="9.7199073"><ele>67.0</ele><time>2026-03-29T09:56:48.385Z</time></trkpt><trkpt lat="40.4002245" lon="9.719822"><ele>67.0</ele><time>2026-03-29T09:56:49.391Z</time></trkpt><trkpt lat="40.400188" lon="9.7197156"><ele>67.0</ele><time>2026-03-29T09:56:50.39Z</time></trkpt><trkpt lat="40.4001465" lon="9.7195955"><ele>67.0</ele><time>2026-03-29T09:56:51.391Z</time></trkpt><trkpt lat="40.4000994" lon="9.7194712"><ele>67.0</ele><time>2026-03-29T09:56:52.379Z</time></trkpt><trkpt lat="40.400054" lon="9.7193495"><ele>67.0</ele><time>2026-03-29T09:56:53.383Z</time></trkpt><trkpt lat="40.4000107" lon="9.71924"><ele>67.0</ele><time>2026-03-29T09:56:54.383Z</time></trkpt><trkpt lat="40.3999698" lon="9.719143"><ele>67.0</ele><time>2026-03-29T09:56:55.387Z</time></trkpt><trkpt lat="40.3999335" lon="9.7190555"><ele>67.0</ele><time>2026-03-29T09:56:56.378Z</time></trkpt><trkpt lat="40.3999037" lon="9.71898"><ele>67.0</ele><time>2026-03-29T09:56:57.395Z</time></trkpt><trkpt lat="40.3998551" lon="9.7188597"><ele>67.0</ele><time>2026-03-29T09:56:59.385Z</time></trkpt><trkpt lat="40.3998291" lon="9.7187704"><ele>67.0</ele><time>2026-03-29T09:57:01.39Z</time></trkpt><trkpt lat="40.3998784" lon="9.7186862"><ele>67.0</ele><time>2026-03-29T09:57:12.384Z</time></trkpt><trkpt lat="40.3999741" lon="9.7186677"><ele>67.0</ele><time>2026-03-29T09:57:14.385Z</time></trkpt><trkpt lat="40.400063" lon="9.7186778"><ele>67.0</ele><time>2026-03-29T09:57:15.388Z</time></trkpt><trkpt lat="40.4001568" lon="9.7186926"><ele>67.0</ele><time>2026-03-29T09:57:16.407Z</time></trkpt><trkpt lat="40.4002667" lon="9.7187086"><ele>67.0</ele><time>2026-03-29T09:57:17.386Z</time></trkpt><trkpt lat="40.4003856" lon="9.7187245"><ele>67.0</ele><time>2026-03-29T09:57:18.383Z</time></trkpt><trkpt lat="40.4005111" lon="9.7187409"><ele>67.0</ele><time>2026-03-29T09:57:19.386Z</time></trkpt><trkpt lat="40.4006497" lon="9.7187582"><ele>67.0</ele><time>2026-03-29T09:57:20.393Z</time></trkpt><trkpt lat="40.4007972" lon="9.7187739"><ele>67.33333333333333</ele><time>2026-03-29T09:57:21.39Z</time></trkpt><trkpt lat="40.4009519" lon="9.7187909"><ele>67.66666666666667</ele><time>2026-03-29T09:57:22.41Z</time></trkpt><trkpt lat="40.4011151" lon="9.7188087"><ele>68.0</ele><time>2026-03-29T09:57:23.387Z</time></trkpt><trkpt lat="40.4012825" lon="9.7188298"><ele>68.33333333333334</ele><time>2026-03-29T09:57:24.387Z</time></trkpt><trkpt lat="40.4014578" lon="9.718851"><ele>68.66666666666667</ele><time>2026-03-29T09:57:25.384Z</time></trkpt><trkpt lat="40.4016401" lon="9.7188722"><ele>69.0</ele><time>2026-03-29T09:57:26.386Z</time></trkpt><trkpt lat="40.4018258" lon="9.7188929"><ele>69.0</ele><time>2026-03-29T09:57:27.386Z</time></trkpt><trkpt lat="40.4020159" lon="9.718914"><ele>69.0</ele><time>2026-03-29T09:57:28.384Z</time></trkpt><trkpt lat="40.4022093" lon="9.7189349"><ele>69.0</ele><time>2026-03-29T09:57:29.395Z</time></trkpt><trkpt lat="40.4024074" lon="9.7189564"><ele>69.33333333333333</ele><time>2026-03-29T09:57:30.382Z</time></trkpt><trkpt lat="40.4026068" lon="9.7189786"><ele>69.66666666666666</ele><time>2026-03-29T09:57:31.384Z</time></trkpt><trkpt lat="40.4028017" lon="9.719001"><ele>70.0</ele><time>2026-03-29T09:57:32.386Z</time></trkpt><trkpt lat="40.4029917" lon="9.7190237"><ele>71.0</ele><time>2026-03-29T09:57:33.384Z</time></trkpt><trkpt lat="40.4031774" lon="9.7190462"><ele>72.0</ele><time>2026-03-29T09:57:34.397Z</time></trkpt><trkpt lat="40.4033626" lon="9.719068"><ele>73.0</ele><time>2026-03-29T09:57:35.386Z</time></trkpt><trkpt lat="40.4035467" lon="9.7190894"><ele>73.0</ele><time>2026-03-29T09:57:36.39Z</time></trkpt><trkpt lat="40.4037273" lon="9.7191106"><ele>73.0</ele><time>2026-03-29T09:57:37.383Z</time></trkpt><trkpt lat="40.4039051" lon="9.7191292"><ele>73.0</ele><time>2026-03-29T09:57:38.392Z</time></trkpt><trkpt lat="40.4040837" lon="9.7191437"><ele>72.66666666666666</ele><time>2026-03-29T09:57:39.382Z</time></trkpt><trkpt lat="40.4042659" lon="9.7191579"><ele>72.33333333333333</ele><time>2026-03-29T09:57:40.387Z</time></trkpt><trkpt lat="40.4044705" lon="9.7191739"><ele>72.0</ele><time>2026-03-29T09:57:41.381Z</time></trkpt><trkpt lat="40.404684" lon="9.719199"><ele>72.0</ele><time>2026-03-29T09:57:42.388Z</time></trkpt><trkpt lat="40.4048855" lon="9.7192281"><ele>72.0</ele><time>2026-03-29T09:57:43.39Z</time></trkpt><trkpt lat="40.4050705" lon="9.71926"><ele>72.0</ele><time>2026-03-29T09:57:44.383Z</time></trkpt><trkpt lat="40.4052361" lon="9.7193048"><ele>72.0</ele><time>2026-03-29T09:57:45.39Z</time></trkpt><trkpt lat="40.4053857" lon="9.7193774"><ele>72.0</ele><time>2026-03-29T09:57:46.387Z</time></trkpt><trkpt lat="40.4055228" lon="9.7194876"><ele>72.0</ele><time>2026-03-29T09:57:47.386Z</time></trkpt><trkpt lat="40.4056475" lon="9.7196345"><ele>72.0</ele><time>2026-03-29T09:57:48.382Z</time></trkpt><trkpt lat="40.4057669" lon="9.7198085"><ele>72.0</ele><time>2026-03-29T09:57:49.387Z</time></trkpt><trkpt lat="40.4058852" lon="9.719999"><ele>72.0</ele><time>2026-03-29T09:57:50.386Z</time></trkpt><trkpt lat="40.4060086" lon="9.7201995"><ele>72.0</ele><time>2026-03-29T09:57:51.386Z</time></trkpt><trkpt lat="40.4061367" lon="9.7204057"><ele>72.0</ele><time>2026-03-29T09:57:52.39Z</time></trkpt><trkpt lat="40.4062662" lon="9.7206144"><ele>72.0</ele><time>2026-03-29T09:57:53.388Z</time></trkpt><trkpt lat="40.4063969" lon="9.7208263"><ele>73.33333333333333</ele><time>2026-03-29T09:57:54.39Z</time></trkpt><trkpt lat="40.4065287" lon="9.7210387"><ele>74.66666666666666</ele><time>2026-03-29T09:57:55.39Z</time></trkpt><trkpt lat="40.4066613" lon="9.7212529"><ele>76.0</ele><time>2026-03-29T09:57:56.396Z</time></trkpt><trkpt lat="40.4067941" lon="9.7214678"><ele>76.0</ele><time>2026-03-29T09:57:57.389Z</time></trkpt><trkpt lat="40.4069274" lon="9.721683"><ele>76.0</ele><time>2026-03-29T09:57:58.394Z</time></trkpt><trkpt lat="40.4070625" lon="9.7218977"><ele>76.0</ele><time>2026-03-29T09:57:59.382Z</time></trkpt><trkpt lat="40.4071983" lon="9.7221141"><ele>76.66666666666666</ele><time>2026-03-29T09:58:00.389Z</time></trkpt><trkpt lat="40.407333" lon="9.7223321"><ele>77.33333333333333</ele><time>2026-03-29T09:58:01.395Z</time></trkpt><trkpt lat="40.4074672" lon="9.7225515"><ele>78.0</ele><time>2026-03-29T09:58:02.393Z</time></trkpt><trkpt lat="40.4076023" lon="9.7227703"><ele>78.0</ele><time>2026-03-29T09:58:03.393Z</time></trkpt><trkpt lat="40.4077386" lon="9.7229894"><ele>78.0</ele><time>2026-03-29T09:58:04.388Z</time></trkpt><trkpt lat="40.4078758" lon="9.7232081"><ele>78.0</ele><time>2026-03-29T09:58:05.383Z</time></trkpt><trkpt lat="40.4080134" lon="9.7234275"><ele>79.33333333333333</ele><time>2026-03-29T09:58:06.39Z</time></trkpt><trkpt lat="40.4081499" lon="9.7236476"><ele>80.66666666666666</ele><time>2026-03-29T09:58:07.392Z</time></trkpt><trkpt lat="40.4082867" lon="9.7238677"><ele>82.0</ele><time>2026-03-29T09:58:08.386Z</time></trkpt><trkpt lat="40.4084225" lon="9.7240878"><ele>82.0</ele><time>2026-03-29T09:58:09.392Z</time></trkpt><trkpt lat="40.4085552" lon="9.7243025"><ele>82.0</ele><time>2026-03-29T09:58:10.385Z</time></trkpt><trkpt lat="40.4086821" lon="9.7245073"><ele>82.0</ele><time>2026-03-29T09:58:11.385Z</time></trkpt><trkpt lat="40.4088047" lon="9.7247041"><ele>83.0</ele><time>2026-03-29T09:58:12.388Z</time></trkpt><trkpt lat="40.4089227" lon="9.7248942"><ele>84.0</ele><time>2026-03-29T09:58:13.384Z</time></trkpt><trkpt lat="40.4090377" lon="9.7250806"><ele>85.0</ele><time>2026-03-29T09:58:14.379Z</time></trkpt><trkpt lat="40.4091515" lon="9.7252625"><ele>85.0</ele><time>2026-03-29T09:58:15.389Z</time></trkpt><trkpt lat="40.4092602" lon="9.725435"><ele>85.0</ele><time>2026-03-29T09:58:16.392Z</time></trkpt><trkpt lat="40.4093631" lon="9.7255984"><ele>85.0</ele><time>2026-03-29T09:58:17.391Z</time></trkpt><trkpt lat="40.4094614" lon="9.7257565"><ele>85.0</ele><time>2026-03-29T09:58:18.393Z</time></trkpt><trkpt lat="40.4095557" lon="9.7259097"><ele>85.0</ele><time>2026-03-29T09:58:19.387Z</time></trkpt><trkpt lat="40.4096468" lon="9.7260587"><ele>85.0</ele><time>2026-03-29T09:58:20.389Z</time></trkpt><trkpt lat="40.4097342" lon="9.7261999"><ele>85.0</ele><time>2026-03-29T09:58:21.387Z</time></trkpt><trkpt lat="40.4098157" lon="9.7263315"><ele>85.75</ele><time>2026-03-29T09:58:22.387Z</time></trkpt><trkpt lat="40.4098911" lon="9.7264537"><ele>86.5</ele><time>2026-03-29T09:58:23.387Z</time></trkpt><trkpt lat="40.4099652" lon="9.7265754"><ele>87.25</ele><time>2026-03-29T09:58:24.392Z</time></trkpt><trkpt lat="40.4100393" lon="9.7266989"><ele>88.0</ele><time>2026-03-29T09:58:25.39Z</time></trkpt><trkpt lat="40.4101134" lon="9.7268264"><ele>87.75</ele><time>2026-03-29T09:58:26.388Z</time></trkpt><trkpt lat="40.4101881" lon="9.7269572"><ele>87.5</ele><time>2026-03-29T09:58:27.393Z</time></trkpt><trkpt lat="40.4102663" lon="9.7270938"><ele>87.25</ele><time>2026-03-29T09:58:28.387Z</time></trkpt><trkpt lat="40.4103486" lon="9.7272352"><ele>87.0</ele><time>2026-03-29T09:58:29.39Z</time></trkpt><trkpt lat="40.4104343" lon="9.7273814"><ele>87.0</ele><time>2026-03-29T09:58:30.382Z</time></trkpt><trkpt lat="40.4105228" lon="9.7275321"><ele>87.0</ele><time>2026-03-29T09:58:31.391Z</time></trkpt><trkpt lat="40.4106159" lon="9.7276867"><ele>87.0</ele><time>2026-03-29T09:58:32.388Z</time></trkpt><trkpt lat="40.410713" lon="9.7278447"><ele>87.0</ele><time>2026-03-29T09:58:33.389Z</time></trkpt><trkpt lat="40.4108131" lon="9.7280072"><ele>87.0</ele><time>2026-03-29T09:58:34.383Z</time></trkpt><trkpt lat="40.4109166" lon="9.7281734"><ele>87.0</ele><time>2026-03-29T09:58:35.39Z</time></trkpt><trkpt lat="40.4110235" lon="9.7283469"><ele>87.0</ele><time>2026-03-29T09:58:36.39Z</time></trkpt><trkpt lat="40.4111337" lon="9.7285251"><ele>87.0</ele><time>2026-03-29T09:58:37.389Z</time></trkpt><trkpt lat="40.4112459" lon="9.7287062"><ele>87.0</ele><time>2026-03-29T09:58:38.385Z</time></trkpt><trkpt lat="40.4113561" lon="9.7288877"><ele>87.33333333333333</ele><time>2026-03-29T09:58:39.385Z</time></trkpt><trkpt lat="40.4114629" lon="9.7290691"><ele>87.66666666666666</ele><time>2026-03-29T09:58:40.389Z</time></trkpt><trkpt lat="40.4115644" lon="9.7292498"><ele>88.0</ele><time>2026-03-29T09:58:41.383Z</time></trkpt><trkpt lat="40.4116607" lon="9.7294272"><ele>87.33333333333333</ele><time>2026-03-29T09:58:42.387Z</time></trkpt><trkpt lat="40.411754" lon="9.7296055"><ele>86.66666666666667</ele><time>2026-03-29T09:58:43.382Z</time></trkpt><trkpt lat="40.411844" lon="9.7297846"><ele>86.0</ele><time>2026-03-29T09:58:44.383Z</time></trkpt><trkpt lat="40.4119322" lon="9.729966"><ele>86.0</ele><time>2026-03-29T09:58:45.386Z</time></trkpt><trkpt lat="40.4120198" lon="9.7301504"><ele>86.0</ele><time>2026-03-29T09:58:46.388Z</time></trkpt><trkpt lat="40.4121052" lon="9.7303305"><ele>86.0</ele><time>2026-03-29T09:58:47.392Z</time></trkpt><trkpt lat="40.4121848" lon="9.7304975"><ele>86.5</ele><time>2026-03-29T09:58:48.387Z</time></trkpt><trkpt lat="40.4122606" lon="9.7306539"><ele>87.0</ele><time>2026-03-29T09:58:49.389Z</time></trkpt><trkpt lat="40.4123314" lon="9.7308022"><ele>87.5</ele><time>2026-03-29T09:58:50.387Z</time></trkpt><trkpt lat="40.4123969" lon="9.7309421"><ele>88.0</ele><time>2026-03-29T09:58:51.39Z</time></trkpt><trkpt lat="40.4124581" lon="9.731074"><ele>88.0</ele><time>2026-03-29T09:58:52.384Z</time></trkpt><trkpt lat="40.4125156" lon="9.731199"><ele>88.0</ele><time>2026-03-29T09:58:53.389Z</time></trkpt><trkpt lat="40.4125697" lon="9.7313183"><ele>88.0</ele><time>2026-03-29T09:58:54.392Z</time></trkpt><trkpt lat="40.4126204" lon="9.7314283"><ele>88.0</ele><time>2026-03-29T09:58:55.384Z</time></trkpt><trkpt lat="40.4126672" lon="9.7315288"><ele>88.0</ele><time>2026-03-29T09:58:56.396Z</time></trkpt><trkpt lat="40.4127091" lon="9.7316179"><ele>88.0</ele><time>2026-03-29T09:58:57.385Z</time></trkpt><trkpt lat="40.4127441" lon="9.7316918"><ele>88.0</ele><time>2026-03-29T09:58:58.393Z</time></trkpt><trkpt lat="40.4128139" lon="9.7317528"><ele>88.0</ele><time>2026-03-29T09:59:00.39Z</time></trkpt><trkpt lat="40.4128821" lon="9.7317349"><ele>88.0</ele><time>2026-03-29T09:59:02.397Z</time></trkpt><trkpt lat="40.4130049" lon="9.7316879"><ele>88.0</ele><time>2026-03-29T09:59:04.393Z</time></trkpt><trkpt lat="40.4130828" lon="9.7316584"><ele>88.0</ele><time>2026-03-29T09:59:05.386Z</time></trkpt><trkpt lat="40.4131631" lon="9.7316291"><ele>87.83333333333333</ele><time>2026-03-29T09:59:06.389Z</time></trkpt><trkpt lat="40.4132517" lon="9.7315965"><ele>87.66666666666666</ele><time>2026-03-29T09:59:07.39Z</time></trkpt><trkpt lat="40.4133373" lon="9.7315634"><ele>87.5</ele><time>2026-03-29T09:59:08.398Z</time></trkpt><trkpt lat="40.4134093" lon="9.7315302"><ele>87.33333333333333</ele><time>2026-03-29T09:59:09.387Z</time></trkpt><trkpt lat="40.413476" lon="9.7315008"><ele>87.16666666666667</ele><time>2026-03-29T09:59:10.389Z</time></trkpt><trkpt lat="40.4135874" lon="9.7314539"><ele>87.0</ele><time>2026-03-29T09:59:12.389Z</time></trkpt><trkpt lat="40.4136777" lon="9.7314221"><ele>87.0</ele><time>2026-03-29T09:59:14.391Z</time></trkpt><trkpt lat="40.4137619" lon="9.7313825"><ele>87.0</ele><time>2026-03-29T09:59:16.38Z</time></trkpt><trkpt lat="40.4138305" lon="9.7313563"><ele>87.0</ele><time>2026-03-29T09:59:18.39Z</time></trkpt><trkpt lat="40.4139018" lon="9.731325"><ele>87.0</ele><time>2026-03-29T09:59:20.383Z</time></trkpt><trkpt lat="40.41397" lon="9.7312956"><ele>87.0</ele><time>2026-03-29T09:59:22.379Z</time></trkpt><trkpt lat="40.414035" lon="9.7312717"><ele>87.0</ele><time>2026-03-29T09:59:24.391Z</time></trkpt><trkpt lat="40.4141007" lon="9.7312459"><ele>87.0</ele><time>2026-03-29T09:59:26.387Z</time></trkpt><trkpt lat="40.4141626" lon="9.7312229"><ele>87.28571428571428</ele><time>2026-03-29T09:59:28.386Z</time></trkpt><trkpt lat="40.4142295" lon="9.7311984"><ele>87.57142857142857</ele><time>2026-03-29T09:59:30.388Z</time></trkpt><trkpt lat="40.4142945" lon="9.7311728"><ele>87.85714285714286</ele><time>2026-03-29T09:59:32.382Z</time></trkpt><trkpt lat="40.4143566" lon="9.7311485"><ele>88.14285714285714</ele><time>2026-03-29T09:59:34.388Z</time></trkpt><trkpt lat="40.4144238" lon="9.7311252"><ele>88.42857142857143</ele><time>2026-03-29T09:59:36.385Z</time></trkpt><trkpt lat="40.4144951" lon="9.7311046"><ele>88.71428571428571</ele><time>2026-03-29T09:59:38.386Z</time></trkpt><trkpt lat="40.4145763" lon="9.7310736"><ele>89.0</ele><time>2026-03-29T09:59:40.384Z</time></trkpt><trkpt lat="40.414681" lon="9.7310386"><ele>89.16666666666667</ele><time>2026-03-29T09:59:42.383Z</time></trkpt><trkpt lat="40.4147454" lon="9.7310162"><ele>89.33333333333334</ele><time>2026-03-29T09:59:43.382Z</time></trkpt><trkpt lat="40.4148116" lon="9.7309995"><ele>89.5</ele><time>2026-03-29T09:59:44.385Z</time></trkpt><trkpt lat="40.4148807" lon="9.7309821"><ele>89.66666666666667</ele><time>2026-03-29T09:59:45.382Z</time></trkpt><trkpt lat="40.4149576" lon="9.7309595"><ele>89.83333333333333</ele><time>2026-03-29T09:59:46.39Z</time></trkpt><trkpt lat="40.4150422" lon="9.7309356"><ele>90.0</ele><time>2026-03-29T09:59:47.391Z</time></trkpt><trkpt lat="40.4151348" lon="9.7309078"><ele>90.0</ele><time>2026-03-29T09:59:48.389Z</time></trkpt><trkpt lat="40.4152353" lon="9.7308729"><ele>90.0</ele><time>2026-03-29T09:59:49.386Z</time></trkpt><trkpt lat="40.4153446" lon="9.7308354"><ele>90.0</ele><time>2026-03-29T09:59:50.384Z</time></trkpt><trkpt lat="40.4154561" lon="9.7308002"><ele>90.0</ele><time>2026-03-29T09:59:51.381Z</time></trkpt><trkpt lat="40.415565" lon="9.7307664"><ele>90.0</ele><time>2026-03-29T09:59:52.387Z</time></trkpt><trkpt lat="40.4156766" lon="9.73073"><ele>90.75</ele><time>2026-03-29T09:59:53.383Z</time></trkpt><trkpt lat="40.4157933" lon="9.7306915"><ele>91.5</ele><time>2026-03-29T09:59:54.386Z</time></trkpt><trkpt lat="40.4159075" lon="9.7306509"><ele>92.25</ele><time>2026-03-29T09:59:55.387Z</time></trkpt><trkpt lat="40.4160174" lon="9.7306114"><ele>93.0</ele><time>2026-03-29T09:59:56.387Z</time></trkpt><trkpt lat="40.4161267" lon="9.7305718"><ele>93.0</ele><time>2026-03-29T09:59:57.389Z</time></trkpt><trkpt lat="40.4162337" lon="9.7305334"><ele>93.0</ele><time>2026-03-29T09:59:58.39Z</time></trkpt><trkpt lat="40.4163397" lon="9.730496"><ele>93.0</ele><time>2026-03-29T09:59:59.395Z</time></trkpt><trkpt lat="40.4164435" lon="9.7304583"><ele>93.0</ele><time>2026-03-29T10:00:00.389Z</time></trkpt><trkpt lat="40.4165465" lon="9.7304205"><ele>93.0</ele><time>2026-03-29T10:00:01.391Z</time></trkpt><trkpt lat="40.4166443" lon="9.7303845"><ele>93.4</ele><time>2026-03-29T10:00:02.385Z</time></trkpt><trkpt lat="40.4167386" lon="9.7303486"><ele>93.80000000000001</ele><time>2026-03-29T10:00:03.389Z</time></trkpt><trkpt lat="40.4168291" lon="9.7303134"><ele>94.2</ele><time>2026-03-29T10:00:04.386Z</time></trkpt><trkpt lat="40.4169182" lon="9.7302793"><ele>94.6</ele><time>2026-03-29T10:00:05.386Z</time></trkpt><trkpt lat="40.4170053" lon="9.7302472"><ele>95.0</ele><time>2026-03-29T10:00:06.391Z</time></trkpt><trkpt lat="40.4170896" lon="9.7302173"><ele>95.6</ele><time>2026-03-29T10:00:07.388Z</time></trkpt><trkpt lat="40.4171729" lon="9.7301867"><ele>96.2</ele><time>2026-03-29T10:00:08.387Z</time></trkpt><trkpt lat="40.4172564" lon="9.7301579"><ele>96.80000000000001</ele><time>2026-03-29T10:00:09.391Z</time></trkpt><trkpt lat="40.4173437" lon="9.7301265"><ele>97.4</ele><time>2026-03-29T10:00:10.385Z</time></trkpt><trkpt lat="40.4174351" lon="9.7300957"><ele>98.0</ele><time>2026-03-29T10:00:11.382Z</time></trkpt><trkpt lat="40.4175312" lon="9.7300673"><ele>98.0</ele><time>2026-03-29T10:00:12.387Z</time></trkpt><trkpt lat="40.4176307" lon="9.7300419"><ele>98.0</ele><time>2026-03-29T10:00:13.385Z</time></trkpt><trkpt lat="40.4177324" lon="9.7300166"><ele>98.0</ele><time>2026-03-29T10:00:14.387Z</time></trkpt><trkpt lat="40.4178362" lon="9.7299921"><ele>98.0</ele><time>2026-03-29T10:00:15.383Z</time></trkpt><trkpt lat="40.4179429" lon="9.729973"><ele>98.0</ele><time>2026-03-29T10:00:16.387Z</time></trkpt><trkpt lat="40.4180543" lon="9.7299611"><ele>98.5</ele><time>2026-03-29T10:00:17.386Z</time></trkpt><trkpt lat="40.4181702" lon="9.7299527"><ele>99.0</ele><time>2026-03-29T10:00:18.392Z</time></trkpt><trkpt lat="40.418289" lon="9.7299407"><ele>99.5</ele><time>2026-03-29T10:00:19.394Z</time></trkpt><trkpt lat="40.4184051" lon="9.7299209"><ele>100.0</ele><time>2026-03-29T10:00:20.386Z</time></trkpt><trkpt lat="40.4185277" lon="9.729894"><ele>100.0</ele><time>2026-03-29T10:00:21.386Z</time></trkpt><trkpt lat="40.4186431" lon="9.729856"><ele>100.0</ele><time>2026-03-29T10:00:22.386Z</time></trkpt><trkpt lat="40.4187614" lon="9.729819"><ele>100.0</ele><time>2026-03-29T10:00:23.385Z</time></trkpt><trkpt lat="40.4188822" lon="9.7297777"><ele>100.0</ele><time>2026-03-29T10:00:24.387Z</time></trkpt><trkpt lat="40.4190052" lon="9.7297337"><ele>100.25</ele><time>2026-03-29T10:00:25.392Z</time></trkpt><trkpt lat="40.4191277" lon="9.7296817"><ele>100.5</ele><time>2026-03-29T10:00:26.385Z</time></trkpt><trkpt lat="40.4192418" lon="9.7296288"><ele>100.75</ele><time>2026-03-29T10:00:27.386Z</time></trkpt><trkpt lat="40.4193444" lon="9.7295691"><ele>101.0</ele><time>2026-03-29T10:00:28.391Z</time></trkpt><trkpt lat="40.4194291" lon="9.7295015"><ele>100.99999999999999</ele><time>2026-03-29T10:00:29.386Z</time></trkpt><trkpt lat="40.4194927" lon="9.729438"><ele>101.0</ele><time>2026-03-29T10:00:30.385Z</time></trkpt><trkpt lat="40.4195475" lon="9.7293725"><ele>101.0</ele><time>2026-03-29T10:00:31.397Z</time></trkpt><trkpt lat="40.4196182" lon="9.7293237"><ele>101.0</ele><time>2026-03-29T10:00:32.392Z</time></trkpt><trkpt lat="40.4197479" lon="9.7293065"><ele>100.99999999999999</ele><time>2026-03-29T10:00:34.385Z</time></trkpt><trkpt lat="40.4198159" lon="9.7293399"><ele>101.0</ele><time>2026-03-29T10:00:35.387Z</time></trkpt><trkpt lat="40.419892" lon="9.729408"><ele>101.5</ele><time>2026-03-29T10:00:36.385Z</time></trkpt><trkpt lat="40.419992" lon="9.7294955"><ele>102.0</ele><time>2026-03-29T10:00:37.387Z</time></trkpt><trkpt lat="40.4200981" lon="9.7295812"><ele>102.5</ele><time>2026-03-29T10:00:38.382Z</time></trkpt><trkpt lat="40.4202108" lon="9.7296676"><ele>103.0</ele><time>2026-03-29T10:00:39.385Z</time></trkpt><trkpt lat="40.4203226" lon="9.7297499"><ele>103.0</ele><time>2026-03-29T10:00:40.38Z</time></trkpt><trkpt lat="40.4204344" lon="9.729836"><ele>103.0</ele><time>2026-03-29T10:00:41.385Z</time></trkpt><trkpt lat="40.4205449" lon="9.7299233"><ele>103.0</ele><time>2026-03-29T10:00:42.39Z</time></trkpt><trkpt lat="40.4206531" lon="9.7300114"><ele>103.0</ele><time>2026-03-29T10:00:43.383Z</time></trkpt><trkpt lat="40.4207604" lon="9.7300981"><ele>103.0</ele><time>2026-03-29T10:00:44.384Z</time></trkpt><trkpt lat="40.4208766" lon="9.7301846"><ele>103.0</ele><time>2026-03-29T10:00:45.389Z</time></trkpt><trkpt lat="40.4209865" lon="9.7302776"><ele>103.0</ele><time>2026-03-29T10:00:46.382Z</time></trkpt><trkpt lat="40.4210991" lon="9.7303507"><ele>103.0</ele><time>2026-03-29T10:00:47.383Z</time></trkpt><trkpt lat="40.4212128" lon="9.73042"><ele>103.2</ele><time>2026-03-29T10:00:48.385Z</time></trkpt><trkpt lat="40.4213246" lon="9.7304796"><ele>103.4</ele><time>2026-03-29T10:00:49.386Z</time></trkpt><trkpt lat="40.4214298" lon="9.7305361"><ele>103.60000000000001</ele><time>2026-03-29T10:00:50.391Z</time></trkpt><trkpt lat="40.4215278" lon="9.730595"><ele>103.80000000000001</ele><time>2026-03-29T10:00:51.381Z</time></trkpt><trkpt lat="40.4216224" lon="9.7306479"><ele>104.0</ele><time>2026-03-29T10:00:52.383Z</time></trkpt><trkpt lat="40.4217131" lon="9.7306974"><ele>103.99999999999999</ele><time>2026-03-29T10:00:53.388Z</time></trkpt><trkpt lat="40.4217982" lon="9.7307483"><ele>104.0</ele><time>2026-03-29T10:00:54.389Z</time></trkpt><trkpt lat="40.4218636" lon="9.7307868"><ele>104.0</ele><time>2026-03-29T10:00:55.389Z</time></trkpt><trkpt lat="40.42196" lon="9.7308369"><ele>104.0</ele><time>2026-03-29T10:00:57.387Z</time></trkpt><trkpt lat="40.4220232" lon="9.7308748"><ele>103.99999999999999</ele><time>2026-03-29T10:00:59.386Z</time></trkpt><trkpt lat="40.422084" lon="9.7309147"><ele>104.0</ele><time>2026-03-29T10:01:01.385Z</time></trkpt><trkpt lat="40.4221807" lon="9.7309755"><ele>104.0</ele><time>2026-03-29T10:01:03.388Z</time></trkpt><trkpt lat="40.4222931" lon="9.7310438"><ele>104.0</ele><time>2026-03-29T10:01:05.407Z</time></trkpt><trkpt lat="40.4223503" lon="9.7310786"><ele>104.0</ele><time>2026-03-29T10:01:06.386Z</time></trkpt><trkpt lat="40.4224612" lon="9.7311419"><ele>104.0</ele><time>2026-03-29T10:01:08.386Z</time></trkpt><trkpt lat="40.422576" lon="9.731215"><ele>104.0</ele><time>2026-03-29T10:01:10.387Z</time></trkpt><trkpt lat="40.4226467" lon="9.7312609"><ele>103.80000000000001</ele><time>2026-03-29T10:01:11.381Z</time></trkpt><trkpt lat="40.4227206" lon="9.7313098"><ele>103.60000000000001</ele><time>2026-03-29T10:01:12.387Z</time></trkpt><trkpt lat="40.4228013" lon="9.7313612"><ele>103.4</ele><time>2026-03-29T10:01:13.382Z</time></trkpt><trkpt lat="40.4228909" lon="9.7314175"><ele>103.2</ele><time>2026-03-29T10:01:14.383Z</time></trkpt><trkpt lat="40.4229869" lon="9.7314786"><ele>103.0</ele><time>2026-03-29T10:01:15.388Z</time></trkpt><trkpt lat="40.4230863" lon="9.7315436"><ele>103.0</ele><time>2026-03-29T10:01:16.384Z</time></trkpt><trkpt lat="40.4231882" lon="9.7316115"><ele>103.0</ele><time>2026-03-29T10:01:17.381Z</time></trkpt><trkpt lat="40.4232922" lon="9.7316807"><ele>103.0</ele><time>2026-03-29T10:01:18.384Z</time></trkpt><trkpt lat="40.4233942" lon="9.7317493"><ele>103.0</ele><time>2026-03-29T10:01:19.389Z</time></trkpt><trkpt lat="40.4234962" lon="9.7318212"><ele>102.75</ele><time>2026-03-29T10:01:20.382Z</time></trkpt><trkpt lat="40.4235984" lon="9.7319007"><ele>102.5</ele><time>2026-03-29T10:01:21.385Z</time></trkpt><trkpt lat="40.4236982" lon="9.731987"><ele>102.25</ele><time>2026-03-29T10:01:22.383Z</time></trkpt><trkpt lat="40.4237953" lon="9.7320841"><ele>102.0</ele><time>2026-03-29T10:01:23.387Z</time></trkpt><trkpt lat="40.423889" lon="9.7321906"><ele>101.5</ele><time>2026-03-29T10:01:24.384Z</time></trkpt><trkpt lat="40.4239761" lon="9.7323048"><ele>101.0</ele><time>2026-03-29T10:01:25.381Z</time></trkpt><trkpt lat="40.4240536" lon="9.7324244"><ele>100.5</ele><time>2026-03-29T10:01:26.39Z</time></trkpt><trkpt lat="40.4241184" lon="9.7325425"><ele>100.0</ele><time>2026-03-29T10:01:27.387Z</time></trkpt><trkpt lat="40.4241674" lon="9.7326606"><ele>98.8</ele><time>2026-03-29T10:01:28.387Z</time></trkpt><trkpt lat="40.4242033" lon="9.7327779"><ele>97.6</ele><time>2026-03-29T10:01:29.388Z</time></trkpt><trkpt lat="40.4242301" lon="9.7328906"><ele>96.4</ele><time>2026-03-29T10:01:30.388Z</time></trkpt><trkpt lat="40.4242534" lon="9.7329847"><ele>95.2</ele><time>2026-03-29T10:01:31.385Z</time></trkpt><trkpt lat="40.4243169" lon="9.7331056"><ele>94.0</ele><time>2026-03-29T10:01:33.385Z</time></trkpt><trkpt lat="40.4244034" lon="9.7331438"><ele>94.0</ele><time>2026-03-29T10:01:35.389Z</time></trkpt><trkpt lat="40.424506" lon="9.7330794"><ele>94.0</ele><time>2026-03-29T10:01:37.381Z</time></trkpt><trkpt lat="40.4245618" lon="9.7330352"><ele>94.0</ele><time>2026-03-29T10:01:38.403Z</time></trkpt><trkpt lat="40.4246195" lon="9.7329885"><ele>94.0</ele><time>2026-03-29T10:01:39.386Z</time></trkpt><trkpt lat="40.4246826" lon="9.7329514"><ele>94.0</ele><time>2026-03-29T10:01:40.39Z</time></trkpt><trkpt lat="40.4247428" lon="9.7329128"><ele>94.0</ele><time>2026-03-29T10:01:41.38Z</time></trkpt><trkpt lat="40.4248008" lon="9.7328725"><ele>94.0</ele><time>2026-03-29T10:01:42.382Z</time></trkpt><trkpt lat="40.4248991" lon="9.7328137"><ele>92.6</ele><time>2026-03-29T10:01:44.384Z</time></trkpt><trkpt lat="40.4249777" lon="9.7328345"><ele>91.2</ele><time>2026-03-29T10:01:46.386Z</time></trkpt><trkpt lat="40.4250006" lon="9.7329303"><ele>89.8</ele><time>2026-03-29T10:01:48.397Z</time></trkpt><trkpt lat="40.4249847" lon="9.7330726"><ele>88.39999999999999</ele><time>2026-03-29T10:01:50.388Z</time></trkpt><trkpt lat="40.4249665" lon="9.7331563"><ele>87.0</ele><time>2026-03-29T10:01:51.382Z</time></trkpt><trkpt lat="40.4249071" lon="9.7332992"><ele>87.0</ele><time>2026-03-29T10:01:53.39Z</time></trkpt><trkpt lat="40.4248514" lon="9.7334397"><ele>87.0</ele><time>2026-03-29T10:01:55.39Z</time></trkpt><trkpt lat="40.4248174" lon="9.733578"><ele>87.0</ele><time>2026-03-29T10:01:57.385Z</time></trkpt><trkpt lat="40.4247839" lon="9.7336959"><ele>87.0</ele><time>2026-03-29T10:01:59.385Z</time></trkpt><trkpt lat="40.4247466" lon="9.7338093"><ele>87.0</ele><time>2026-03-29T10:02:01.39Z</time></trkpt><trkpt lat="40.424735" lon="9.7339098"><ele>87.33333333333333</ele><time>2026-03-29T10:02:03.386Z</time></trkpt><trkpt lat="40.4247463" lon="9.7340477"><ele>87.66666666666667</ele><time>2026-03-29T10:02:05.388Z</time></trkpt><trkpt lat="40.424721" lon="9.7341831"><ele>88.0</ele><time>2026-03-29T10:02:07.402Z</time></trkpt><trkpt lat="40.4246884" lon="9.7342659"><ele>88.33333333333334</ele><time>2026-03-29T10:02:08.385Z</time></trkpt><trkpt lat="40.4246527" lon="9.7343543"><ele>88.66666666666667</ele><time>2026-03-29T10:02:09.39Z</time></trkpt><trkpt lat="40.4246131" lon="9.7344511"><ele>89.0</ele><time>2026-03-29T10:02:10.388Z</time></trkpt><trkpt lat="40.4245757" lon="9.7345526"><ele>87.83333333333334</ele><time>2026-03-29T10:02:11.382Z</time></trkpt><trkpt lat="40.4245377" lon="9.7346556"><ele>86.66666666666667</ele><time>2026-03-29T10:02:12.386Z</time></trkpt><trkpt lat="40.4245024" lon="9.7347606"><ele>85.5</ele><time>2026-03-29T10:02:13.387Z</time></trkpt><trkpt lat="40.424469" lon="9.7348669"><ele>84.33333333333333</ele><time>2026-03-29T10:02:14.39Z</time></trkpt><trkpt lat="40.4244342" lon="9.7349737"><ele>83.16666666666666</ele><time>2026-03-29T10:02:15.386Z</time></trkpt><trkpt lat="40.4243954" lon="9.7350807"><ele>82.0</ele><time>2026-03-29T10:02:16.394Z</time></trkpt><trkpt lat="40.4243525" lon="9.7351819"><ele>83.33333333333333</ele><time>2026-03-29T10:02:17.384Z</time></trkpt><trkpt lat="40.4243064" lon="9.7352716"><ele>84.66666666666666</ele><time>2026-03-29T10:02:18.387Z</time></trkpt><trkpt lat="40.4242588" lon="9.735366"><ele>86.0</ele><time>2026-03-29T10:02:19.381Z</time></trkpt><trkpt lat="40.4242126" lon="9.7354549"><ele>87.33333333333333</ele><time>2026-03-29T10:02:20.387Z</time></trkpt><trkpt lat="40.4241636" lon="9.7355406"><ele>88.66666666666667</ele><time>2026-03-29T10:02:21.387Z</time></trkpt><trkpt lat="40.4241096" lon="9.7356261"><ele>90.0</ele><time>2026-03-29T10:02:22.389Z</time></trkpt><trkpt lat="40.4240553" lon="9.7357134"><ele>90.0</ele><time>2026-03-29T10:02:23.398Z</time></trkpt><trkpt lat="40.4240055" lon="9.7358053"><ele>90.0</ele><time>2026-03-29T10:02:24.383Z</time></trkpt><trkpt lat="40.4239616" lon="9.7358933"><ele>90.0</ele><time>2026-03-29T10:02:25.389Z</time></trkpt><trkpt lat="40.4239203" lon="9.735968"><ele>90.0</ele><time>2026-03-29T10:02:26.387Z</time></trkpt><trkpt lat="40.4238752" lon="9.7360685"><ele>90.0</ele><time>2026-03-29T10:02:28.39Z</time></trkpt><trkpt lat="40.4239485" lon="9.7361349"><ele>90.0</ele><time>2026-03-29T10:02:31.395Z</time></trkpt><trkpt lat="40.4240869" lon="9.7361114"><ele>90.6</ele><time>2026-03-29T10:02:33.388Z</time></trkpt><trkpt lat="40.4241714" lon="9.7361008"><ele>91.2</ele><time>2026-03-29T10:02:34.392Z</time></trkpt><trkpt lat="40.4242574" lon="9.7360903"><ele>91.80000000000001</ele><time>2026-03-29T10:02:35.385Z</time></trkpt><trkpt lat="40.424352" lon="9.7360987"><ele>92.4</ele><time>2026-03-29T10:02:36.388Z</time></trkpt><trkpt lat="40.4244576" lon="9.7361229"><ele>93.0</ele><time>2026-03-29T10:02:37.384Z</time></trkpt><trkpt lat="40.4245675" lon="9.7361481"><ele>93.4</ele><time>2026-03-29T10:02:38.384Z</time></trkpt><trkpt lat="40.4246754" lon="9.7361756"><ele>93.80000000000001</ele><time>2026-03-29T10:02:39.384Z</time></trkpt><trkpt lat="40.4247753" lon="9.7362121"><ele>94.2</ele><time>2026-03-29T10:02:40.382Z</time></trkpt><trkpt lat="40.4248717" lon="9.7362627"><ele>94.6</ele><time>2026-03-29T10:02:41.389Z</time></trkpt><trkpt lat="40.4249688" lon="9.7363136"><ele>95.0</ele><time>2026-03-29T10:02:42.384Z</time></trkpt><trkpt lat="40.4250611" lon="9.7363886"><ele>95.0</ele><time>2026-03-29T10:02:43.384Z</time></trkpt><trkpt lat="40.4251558" lon="9.7364691"><ele>95.0</ele><time>2026-03-29T10:02:44.39Z</time></trkpt><trkpt lat="40.425253" lon="9.736551"><ele>95.0</ele><time>2026-03-29T10:02:45.393Z</time></trkpt><trkpt lat="40.4253563" lon="9.7366425"><ele>95.0</ele><time>2026-03-29T10:02:46.387Z</time></trkpt><trkpt lat="40.4254652" lon="9.7367381"><ele>95.0</ele><time>2026-03-29T10:02:47.389Z</time></trkpt><trkpt lat="40.4255768" lon="9.7368363"><ele>95.0</ele><time>2026-03-29T10:02:48.385Z</time></trkpt><trkpt lat="40.4256869" lon="9.7369378"><ele>95.0</ele><time>2026-03-29T10:02:49.386Z</time></trkpt><trkpt lat="40.4257982" lon="9.7370406"><ele>95.0</ele><time>2026-03-29T10:02:50.383Z</time></trkpt><trkpt lat="40.4259103" lon="9.7371446"><ele>95.0</ele><time>2026-03-29T10:02:51.393Z</time></trkpt><trkpt lat="40.4260274" lon="9.7372525"><ele>95.0</ele><time>2026-03-29T10:02:52.382Z</time></trkpt><trkpt lat="40.4261487" lon="9.7373598"><ele>95.0</ele><time>2026-03-29T10:02:53.38Z</time></trkpt><trkpt lat="40.4262663" lon="9.7374667"><ele>95.0</ele><time>2026-03-29T10:02:54.386Z</time></trkpt><trkpt lat="40.4263819" lon="9.7375713"><ele>95.0</ele><time>2026-03-29T10:02:55.389Z</time></trkpt><trkpt lat="40.4264949" lon="9.7376747"><ele>95.0</ele><time>2026-03-29T10:02:56.382Z</time></trkpt><trkpt lat="40.4266066" lon="9.7377751"><ele>95.0</ele><time>2026-03-29T10:02:57.389Z</time></trkpt><trkpt lat="40.4267169" lon="9.7378743"><ele>95.0</ele><time>2026-03-29T10:02:58.386Z</time></trkpt><trkpt lat="40.4268272" lon="9.7379741"><ele>95.0</ele><time>2026-03-29T10:02:59.383Z</time></trkpt><trkpt lat="40.4269366" lon="9.7380731"><ele>95.0</ele><time>2026-03-29T10:03:00.386Z</time></trkpt><trkpt lat="40.4270421" lon="9.7381687"><ele>95.0</ele><time>2026-03-29T10:03:01.39Z</time></trkpt><trkpt lat="40.4271395" lon="9.7382554"><ele>95.0</ele><time>2026-03-29T10:03:02.39Z</time></trkpt><trkpt lat="40.4272273" lon="9.7383329"><ele>95.2</ele><time>2026-03-29T10:03:03.38Z</time></trkpt><trkpt lat="40.4273005" lon="9.738397"><ele>95.4</ele><time>2026-03-29T10:03:04.402Z</time></trkpt><trkpt lat="40.4273638" lon="9.7384499"><ele>95.6</ele><time>2026-03-29T10:03:05.388Z</time></trkpt><trkpt lat="40.4274631" lon="9.7384965"><ele>95.8</ele><time>2026-03-29T10:03:07.387Z</time></trkpt><trkpt lat="40.4275297" lon="9.7384487"><ele>96.0</ele><time>2026-03-29T10:03:09.387Z</time></trkpt><trkpt lat="40.4275981" lon="9.7383178"><ele>96.0</ele><time>2026-03-29T10:03:11.386Z</time></trkpt><trkpt lat="40.4276274" lon="9.7382267"><ele>96.0</ele><time>2026-03-29T10:03:12.386Z</time></trkpt><trkpt lat="40.4276509" lon="9.7381463"><ele>96.0</ele><time>2026-03-29T10:03:13.386Z</time></trkpt><trkpt lat="40.4276981" lon="9.7380193"><ele>96.0</ele><time>2026-03-29T10:03:15.391Z</time></trkpt><trkpt lat="40.4277327" lon="9.7379217"><ele>96.0</ele><time>2026-03-29T10:03:17.391Z</time></trkpt><trkpt lat="40.4277641" lon="9.7378365"><ele>96.0</ele><time>2026-03-29T10:03:20.387Z</time></trkpt><trkpt lat="40.4277964" lon="9.7377533"><ele>96.0</ele><time>2026-03-29T10:03:22.392Z</time></trkpt><trkpt lat="40.4278468" lon="9.737623"><ele>96.0</ele><time>2026-03-29T10:03:24.393Z</time></trkpt><trkpt lat="40.4278777" lon="9.7375457"><ele>96.0</ele><time>2026-03-29T10:03:25.39Z</time></trkpt><trkpt lat="40.4279115" lon="9.7374557"><ele>96.0</ele><time>2026-03-29T10:03:26.393Z</time></trkpt><trkpt lat="40.4279488" lon="9.7373507"><ele>96.0</ele><time>2026-03-29T10:03:27.391Z</time></trkpt><trkpt lat="40.4279899" lon="9.7372355"><ele>96.0</ele><time>2026-03-29T10:03:28.388Z</time></trkpt><trkpt lat="40.4280338" lon="9.7371225"><ele>96.0</ele><time>2026-03-29T10:03:29.397Z</time></trkpt><trkpt lat="40.4280809" lon="9.7370153"><ele>96.0</ele><time>2026-03-29T10:03:30.394Z</time></trkpt><trkpt lat="40.4281336" lon="9.7369083"><ele>96.0</ele><time>2026-03-29T10:03:31.392Z</time></trkpt><trkpt lat="40.4281911" lon="9.7367974"><ele>96.0</ele><time>2026-03-29T10:03:32.382Z</time></trkpt><trkpt lat="40.4282483" lon="9.736684"><ele>96.0</ele><time>2026-03-29T10:03:33.389Z</time></trkpt><trkpt lat="40.4283034" lon="9.7365602"><ele>96.75</ele><time>2026-03-29T10:03:34.389Z</time></trkpt><trkpt lat="40.4283594" lon="9.7364264"><ele>97.5</ele><time>2026-03-29T10:03:35.383Z</time></trkpt><trkpt lat="40.4284172" lon="9.7362902"><ele>98.25</ele><time>2026-03-29T10:03:36.396Z</time></trkpt><trkpt lat="40.4284732" lon="9.7361485"><ele>99.0</ele><time>2026-03-29T10:03:37.386Z</time></trkpt><trkpt lat="40.4285271" lon="9.7360011"><ele>99.25</ele><time>2026-03-29T10:03:38.382Z</time></trkpt><trkpt lat="40.4285798" lon="9.7358538"><ele>99.5</ele><time>2026-03-29T10:03:39.382Z</time></trkpt><trkpt lat="40.4286262" lon="9.7357105"><ele>99.75</ele><time>2026-03-29T10:03:40.386Z</time></trkpt><trkpt lat="40.4286711" lon="9.7355725"><ele>100.0</ele><time>2026-03-29T10:03:41.39Z</time></trkpt><trkpt lat="40.4287295" lon="9.7354379"><ele>100.0</ele><time>2026-03-29T10:03:42.386Z</time></trkpt><trkpt lat="40.4287889" lon="9.7352931"><ele>100.0</ele><time>2026-03-29T10:03:43.407Z</time></trkpt><trkpt lat="40.4288483" lon="9.735134"><ele>100.0</ele><time>2026-03-29T10:03:44.388Z</time></trkpt><trkpt lat="40.4289091" lon="9.7349764"><ele>100.0</ele><time>2026-03-29T10:03:45.387Z</time></trkpt><trkpt lat="40.4289706" lon="9.7348193"><ele>100.25</ele><time>2026-03-29T10:03:46.39Z</time></trkpt><trkpt lat="40.4290321" lon="9.7346603"><ele>100.5</ele><time>2026-03-29T10:03:47.386Z</time></trkpt><trkpt lat="40.4290931" lon="9.7344999"><ele>100.75</ele><time>2026-03-29T10:03:48.389Z</time></trkpt><trkpt lat="40.4291543" lon="9.7343417"><ele>101.0</ele><time>2026-03-29T10:03:49.383Z</time></trkpt><trkpt lat="40.4292142" lon="9.7341869"><ele>101.25</ele><time>2026-03-29T10:03:50.388Z</time></trkpt><trkpt lat="40.429275" lon="9.7340369"><ele>101.5</ele><time>2026-03-29T10:03:51.385Z</time></trkpt><trkpt lat="40.4293343" lon="9.7338898"><ele>101.75</ele><time>2026-03-29T10:03:52.392Z</time></trkpt><trkpt lat="40.4293937" lon="9.73374"><ele>102.0</ele><time>2026-03-29T10:03:53.383Z</time></trkpt><trkpt lat="40.4294549" lon="9.7335863"><ele>102.6</ele><time>2026-03-29T10:03:54.39Z</time></trkpt><trkpt lat="40.4295142" lon="9.7334408"><ele>103.19999999999999</ele><time>2026-03-29T10:03:55.384Z</time></trkpt><trkpt lat="40.4295599" lon="9.7333143"><ele>103.8</ele><time>2026-03-29T10:03:56.391Z</time></trkpt><trkpt lat="40.4296017" lon="9.7331953"><ele>104.4</ele><time>2026-03-29T10:03:57.39Z</time></trkpt><trkpt lat="40.4296313" lon="9.7330984"><ele>105.0</ele><time>2026-03-29T10:03:58.393Z</time></trkpt><trkpt lat="40.4296962" lon="9.7330033"><ele>105.33333333333333</ele><time>2026-03-29T10:04:00.397Z</time></trkpt><trkpt lat="40.4297655" lon="9.7330143"><ele>105.66666666666666</ele><time>2026-03-29T10:04:03.391Z</time></trkpt><trkpt lat="40.4298408" lon="9.7330562"><ele>106.0</ele><time>2026-03-29T10:04:06.391Z</time></trkpt><trkpt lat="40.4299146" lon="9.7330893"><ele>106.33333333333333</ele><time>2026-03-29T10:04:09.397Z</time></trkpt><trkpt lat="40.4300126" lon="9.7331281"><ele>106.66666666666666</ele><time>2026-03-29T10:04:11.382Z</time></trkpt><trkpt lat="40.4300737" lon="9.7331532"><ele>107.0</ele><time>2026-03-29T10:04:12.384Z</time></trkpt><trkpt lat="40.4301401" lon="9.7331815"><ele>106.99999999999999</ele><time>2026-03-29T10:04:13.383Z</time></trkpt><trkpt lat="40.4302132" lon="9.7332061"><ele>107.0</ele><time>2026-03-29T10:04:14.384Z</time></trkpt><trkpt lat="40.4302945" lon="9.7332329"><ele>107.0</ele><time>2026-03-29T10:04:15.383Z</time></trkpt><trkpt lat="40.4303829" lon="9.7332616"><ele>107.0</ele><time>2026-03-29T10:04:16.387Z</time></trkpt><trkpt lat="40.4304767" lon="9.7332943"><ele>106.99999999999999</ele><time>2026-03-29T10:04:17.389Z</time></trkpt><trkpt lat="40.4305734" lon="9.7333333"><ele>107.0</ele><time>2026-03-29T10:04:18.39Z</time></trkpt><trkpt lat="40.4306764" lon="9.7333758"><ele>106.75</ele><time>2026-03-29T10:04:19.386Z</time></trkpt><trkpt lat="40.4307859" lon="9.7334217"><ele>106.5</ele><time>2026-03-29T10:04:20.385Z</time></trkpt><trkpt lat="40.4309019" lon="9.7334683"><ele>106.25</ele><time>2026-03-29T10:04:21.39Z</time></trkpt><trkpt lat="40.4310189" lon="9.7335156"><ele>106.0</ele><time>2026-03-29T10:04:22.385Z</time></trkpt><trkpt lat="40.4311413" lon="9.7335624"><ele>106.0</ele><time>2026-03-29T10:04:23.393Z</time></trkpt><trkpt lat="40.4312679" lon="9.7336058"><ele>106.0</ele><time>2026-03-29T10:04:24.388Z</time></trkpt><trkpt lat="40.4314037" lon="9.7336572"><ele>106.0</ele><time>2026-03-29T10:04:25.391Z</time></trkpt><trkpt lat="40.4315395" lon="9.7337078"><ele>106.0</ele><time>2026-03-29T10:04:26.388Z</time></trkpt><trkpt lat="40.4316706" lon="9.7337591"><ele>106.0</ele><time>2026-03-29T10:04:27.39Z</time></trkpt><trkpt lat="40.4317878" lon="9.7338044"><ele>106.0</ele><time>2026-03-29T10:04:28.404Z</time></trkpt><trkpt lat="40.4318803" lon="9.7338419"><ele>106.0</ele><time>2026-03-29T10:04:29.391Z</time></trkpt><trkpt lat="40.4319562" lon="9.7338838"><ele>106.0</ele><time>2026-03-29T10:04:30.386Z</time></trkpt><trkpt lat="40.4320223" lon="9.7339414"><ele>106.0</ele><time>2026-03-29T10:04:31.387Z</time></trkpt><trkpt lat="40.4320924" lon="9.7340082"><ele>105.75</ele><time>2026-03-29T10:04:32.393Z</time></trkpt><trkpt lat="40.4321728" lon="9.7341117"><ele>105.5</ele><time>2026-03-29T10:04:33.388Z</time></trkpt><trkpt lat="40.4322625" lon="9.7342289"><ele>105.25</ele><time>2026-03-29T10:04:34.395Z</time></trkpt><trkpt lat="40.4323462" lon="9.7343381"><ele>105.0</ele><time>2026-03-29T10:04:35.389Z</time></trkpt><trkpt lat="40.4324175" lon="9.7344432"><ele>104.6</ele><time>2026-03-29T10:04:36.385Z</time></trkpt><trkpt lat="40.4324818" lon="9.7345601"><ele>104.2</ele><time>2026-03-29T10:04:37.39Z</time></trkpt><trkpt lat="40.4325492" lon="9.7346821"><ele>103.80000000000001</ele><time>2026-03-29T10:04:38.386Z</time></trkpt><trkpt lat="40.4326195" lon="9.7348048"><ele>103.4</ele><time>2026-03-29T10:04:39.39Z</time></trkpt><trkpt lat="40.4326882" lon="9.7349065"><ele>103.0</ele><time>2026-03-29T10:04:40.383Z</time></trkpt><trkpt lat="40.4327497" lon="9.7349962"><ele>103.00000000000001</ele><time>2026-03-29T10:04:41.393Z</time></trkpt><trkpt lat="40.4327961" lon="9.7350648"><ele>103.0</ele><time>2026-03-29T10:04:42.391Z</time></trkpt><trkpt lat="40.4328237" lon="9.7351642"><ele>103.0</ele><time>2026-03-29T10:04:43.386Z</time></trkpt><trkpt lat="40.4328665" lon="9.7352578"><ele>103.0</ele><time>2026-03-29T10:04:44.391Z</time></trkpt><trkpt lat="40.4329225" lon="9.7353356"><ele>103.00000000000001</ele><time>2026-03-29T10:04:45.389Z</time></trkpt><trkpt lat="40.4329876" lon="9.7354059"><ele>103.0</ele><time>2026-03-29T10:04:46.389Z</time></trkpt><trkpt lat="40.4330481" lon="9.7354647"><ele>102.50000000000001</ele><time>2026-03-29T10:04:47.388Z</time></trkpt><trkpt lat="40.4331164" lon="9.7355239"><ele>102.0</ele><time>2026-03-29T10:04:48.383Z</time></trkpt><trkpt lat="40.4332008" lon="9.7355632"><ele>101.5</ele><time>2026-03-29T10:04:49.39Z</time></trkpt><trkpt lat="40.4332863" lon="9.7355934"><ele>101.0</ele><time>2026-03-29T10:04:50.384Z</time></trkpt><trkpt lat="40.4333633" lon="9.7356055"><ele>100.50000000000001</ele><time>2026-03-29T10:04:51.386Z</time></trkpt><trkpt lat="40.4334392" lon="9.7356127"><ele>100.0</ele><time>2026-03-29T10:04:52.403Z</time></trkpt><trkpt lat="40.4335614" lon="9.7355837"><ele>100.0</ele><time>2026-03-29T10:04:54.382Z</time></trkpt><trkpt lat="40.4336597" lon="9.7356126"><ele>100.0</ele><time>2026-03-29T10:04:56.383Z</time></trkpt><trkpt lat="40.4337485" lon="9.7356521"><ele>100.0</ele><time>2026-03-29T10:04:58.388Z</time></trkpt><trkpt lat="40.4338264" lon="9.7357277"><ele>100.0</ele><time>2026-03-29T10:05:00.392Z</time></trkpt><trkpt lat="40.4339042" lon="9.7358555"><ele>100.0</ele><time>2026-03-29T10:05:02.394Z</time></trkpt><trkpt lat="40.4339724" lon="9.7359497"><ele>97.6</ele><time>2026-03-29T10:05:04.4Z</time></trkpt><trkpt lat="40.4340533" lon="9.7360232"><ele>95.2</ele><time>2026-03-29T10:05:06.384Z</time></trkpt><trkpt lat="40.4341388" lon="9.7360924"><ele>92.80000000000001</ele><time>2026-03-29T10:05:08.382Z</time></trkpt><trkpt lat="40.4342188" lon="9.7361683"><ele>90.4</ele><time>2026-03-29T10:05:10.389Z</time></trkpt><trkpt lat="40.4342988" lon="9.7362595"><ele>88.0</ele><time>2026-03-29T10:05:12.384Z</time></trkpt><trkpt lat="40.4343873" lon="9.736349"><ele>88.0</ele><time>2026-03-29T10:05:14.39Z</time></trkpt><trkpt lat="40.4344704" lon="9.7364385"><ele>88.0</ele><time>2026-03-29T10:05:16.4Z</time></trkpt><trkpt lat="40.4345467" lon="9.736521"><ele>88.0</ele><time>2026-03-29T10:05:18.388Z</time></trkpt><trkpt lat="40.4346423" lon="9.7365869"><ele>88.0</ele><time>2026-03-29T10:05:20.385Z</time></trkpt><trkpt lat="40.434735" lon="9.7366234"><ele>88.0</ele><time>2026-03-29T10:05:22.387Z</time></trkpt><trkpt lat="40.4348369" lon="9.7366818"><ele>85.0</ele><time>2026-03-29T10:05:24.387Z</time></trkpt><trkpt lat="40.4349151" lon="9.7367568"><ele>82.0</ele><time>2026-03-29T10:05:26.384Z</time></trkpt><trkpt lat="40.4349684" lon="9.7368116"><ele>79.0</ele><time>2026-03-29T10:05:27.393Z</time></trkpt><trkpt lat="40.435034" lon="9.7368723"><ele>76.0</ele><time>2026-03-29T10:05:28.383Z</time></trkpt><trkpt lat="40.4351025" lon="9.7369356"><ele>73.0</ele><time>2026-03-29T10:05:29.4Z</time></trkpt><trkpt lat="40.435167" lon="9.7369952"><ele>70.0</ele><time>2026-03-29T10:05:30.384Z</time></trkpt><trkpt lat="40.4352271" lon="9.7370495"><ele>70.0</ele><time>2026-03-29T10:05:31.385Z</time></trkpt><trkpt lat="40.4352843" lon="9.7370999"><ele>70.0</ele><time>2026-03-29T10:05:32.38Z</time></trkpt><trkpt lat="40.4353417" lon="9.7371525"><ele>70.0</ele><time>2026-03-29T10:05:33.382Z</time></trkpt><trkpt lat="40.4353968" lon="9.7372121"><ele>70.0</ele><time>2026-03-29T10:05:34.393Z</time></trkpt><trkpt lat="40.4355218" lon="9.7373074"><ele>70.0</ele><time>2026-03-29T10:05:36.386Z</time></trkpt><trkpt lat="40.435587" lon="9.7373578"><ele>70.0</ele><time>2026-03-29T10:05:37.382Z</time></trkpt><trkpt lat="40.4356403" lon="9.7374068"><ele>67.83333333333333</ele><time>2026-03-29T10:05:38.379Z</time></trkpt><trkpt lat="40.4357405" lon="9.7374613"><ele>65.66666666666666</ele><time>2026-03-29T10:05:40.39Z</time></trkpt><trkpt lat="40.4358299" lon="9.7374774"><ele>63.5</ele><time>2026-03-29T10:05:42.38Z</time></trkpt><trkpt lat="40.4358944" lon="9.7374746"><ele>61.33333333333333</ele><time>2026-03-29T10:05:44.393Z</time></trkpt><trkpt lat="40.4359955" lon="9.7374876"><ele>59.166666666666664</ele><time>2026-03-29T10:05:46.39Z</time></trkpt><trkpt lat="40.4360711" lon="9.7375247"><ele>57.0</ele><time>2026-03-29T10:05:47.39Z</time></trkpt><trkpt lat="40.4361474" lon="9.7375648"><ele>57.0</ele><time>2026-03-29T10:05:48.388Z</time></trkpt><trkpt lat="40.4362341" lon="9.737603"><ele>57.0</ele><time>2026-03-29T10:05:49.383Z</time></trkpt><trkpt lat="40.4363284" lon="9.7376407"><ele>57.0</ele><time>2026-03-29T10:05:50.382Z</time></trkpt><trkpt lat="40.4364288" lon="9.7376756"><ele>57.0</ele><time>2026-03-29T10:05:51.385Z</time></trkpt><trkpt lat="40.4365387" lon="9.73772"><ele>57.0</ele><time>2026-03-29T10:05:52.383Z</time></trkpt><trkpt lat="40.4366552" lon="9.7377692"><ele>57.0</ele><time>2026-03-29T10:05:53.392Z</time></trkpt><trkpt lat="40.4367643" lon="9.7378141"><ele>57.0</ele><time>2026-03-29T10:05:54.38Z</time></trkpt><trkpt lat="40.4368578" lon="9.7378578"><ele>57.0</ele><time>2026-03-29T10:05:55.38Z</time></trkpt><trkpt lat="40.4369429" lon="9.7379058"><ele>57.0</ele><time>2026-03-29T10:05:56.381Z</time></trkpt><trkpt lat="40.4370169" lon="9.7379606"><ele>57.0</ele><time>2026-03-29T10:05:57.38Z</time></trkpt><trkpt lat="40.4370775" lon="9.7380219"><ele>57.0</ele><time>2026-03-29T10:05:58.388Z</time></trkpt><trkpt lat="40.4371224" lon="9.7380861"><ele>57.0</ele><time>2026-03-29T10:05:59.381Z</time></trkpt><trkpt lat="40.4371542" lon="9.7382281"><ele>57.0</ele><time>2026-03-29T10:06:01.388Z</time></trkpt><trkpt lat="40.4371172" lon="9.738394"><ele>57.0</ele><time>2026-03-29T10:06:03.379Z</time></trkpt><trkpt lat="40.43708" lon="9.7384833"><ele>57.0</ele><time>2026-03-29T10:06:04.384Z</time></trkpt><trkpt lat="40.4370349" lon="9.7385646"><ele>57.666666666666664</ele><time>2026-03-29T10:06:05.381Z</time></trkpt><trkpt lat="40.436987" lon="9.7386397"><ele>58.33333333333333</ele><time>2026-03-29T10:06:06.385Z</time></trkpt><trkpt lat="40.4369418" lon="9.7387244"><ele>59.0</ele><time>2026-03-29T10:06:07.385Z</time></trkpt><trkpt lat="40.4369113" lon="9.7388164"><ele>59.666666666666664</ele><time>2026-03-29T10:06:08.379Z</time></trkpt><trkpt lat="40.436891" lon="9.7389166"><ele>60.33333333333333</ele><time>2026-03-29T10:06:09.385Z</time></trkpt><trkpt lat="40.4368802" lon="9.7390238"><ele>61.0</ele><time>2026-03-29T10:06:10.381Z</time></trkpt><trkpt lat="40.4368819" lon="9.7391267"><ele>60.99999999999999</ele><time>2026-03-29T10:06:11.387Z</time></trkpt><trkpt lat="40.4368961" lon="9.7392219"><ele>61.0</ele><time>2026-03-29T10:06:12.388Z</time></trkpt><trkpt lat="40.4369234" lon="9.7393095"><ele>61.0</ele><time>2026-03-29T10:06:13.381Z</time></trkpt><trkpt lat="40.4369678" lon="9.739388"><ele>61.0</ele><time>2026-03-29T10:06:14.384Z</time></trkpt><trkpt lat="40.4370247" lon="9.7394607"><ele>60.99999999999999</ele><time>2026-03-29T10:06:15.383Z</time></trkpt><trkpt lat="40.4370916" lon="9.7395386"><ele>61.0</ele><time>2026-03-29T10:06:16.38Z</time></trkpt><trkpt lat="40.4371683" lon="9.7396276"><ele>57.75</ele><time>2026-03-29T10:06:17.383Z</time></trkpt><trkpt lat="40.4372497" lon="9.7397268"><ele>54.5</ele><time>2026-03-29T10:06:18.384Z</time></trkpt><trkpt lat="40.4373346" lon="9.7398367"><ele>51.25</ele><time>2026-03-29T10:06:19.382Z</time></trkpt><trkpt lat="40.4374234" lon="9.7399601"><ele>48.0</ele><time>2026-03-29T10:06:20.426Z</time></trkpt><trkpt lat="40.437515" lon="9.7400937"><ele>48.5</ele><time>2026-03-29T10:06:21.386Z</time></trkpt><trkpt lat="40.4376079" lon="9.7402318"><ele>49.0</ele><time>2026-03-29T10:06:22.38Z</time></trkpt><trkpt lat="40.4377022" lon="9.7403668"><ele>49.5</ele><time>2026-03-29T10:06:23.383Z</time></trkpt><trkpt lat="40.4378063" lon="9.7404946"><ele>50.0</ele><time>2026-03-29T10:06:24.381Z</time></trkpt><trkpt lat="40.4379138" lon="9.7406244"><ele>48.66666666666667</ele><time>2026-03-29T10:06:25.4Z</time></trkpt><trkpt lat="40.4380436" lon="9.7407442"><ele>47.333333333333336</ele><time>2026-03-29T10:06:26.385Z</time></trkpt><trkpt lat="40.4381825" lon="9.7408759"><ele>46.0</ele><time>2026-03-29T10:06:27.384Z</time></trkpt><trkpt lat="40.4383243" lon="9.7410085"><ele>47.0</ele><time>2026-03-29T10:06:28.384Z</time></trkpt><trkpt lat="40.4384525" lon="9.7411277"><ele>48.0</ele><time>2026-03-29T10:06:29.384Z</time></trkpt><trkpt lat="40.4385589" lon="9.7412407"><ele>49.0</ele><time>2026-03-29T10:06:30.385Z</time></trkpt><trkpt lat="40.4386511" lon="9.7413677"><ele>50.0</ele><time>2026-03-29T10:06:31.382Z</time></trkpt><trkpt lat="40.4387377" lon="9.7415171"><ele>49.5</ele><time>2026-03-29T10:06:32.376Z</time></trkpt><trkpt lat="40.4388098" lon="9.7416674"><ele>49.0</ele><time>2026-03-29T10:06:33.379Z</time></trkpt><trkpt lat="40.438864" lon="9.7418109"><ele>48.5</ele><time>2026-03-29T10:06:34.38Z</time></trkpt><trkpt lat="40.4389063" lon="9.7419678"><ele>48.0</ele><time>2026-03-29T10:06:35.381Z</time></trkpt><trkpt lat="40.4389356" lon="9.7421277"><ele>47.5</ele><time>2026-03-29T10:06:36.384Z</time></trkpt><trkpt lat="40.4389517" lon="9.7422907"><ele>47.0</ele><time>2026-03-29T10:06:37.381Z</time></trkpt><trkpt lat="40.4389701" lon="9.7424474"><ele>46.5</ele><time>2026-03-29T10:06:38.382Z</time></trkpt><trkpt lat="40.4389784" lon="9.7426015"><ele>46.0</ele><time>2026-03-29T10:06:39.38Z</time></trkpt><trkpt lat="40.4389852" lon="9.7427459"><ele>44.8</ele><time>2026-03-29T10:06:40.388Z</time></trkpt><trkpt lat="40.4389783" lon="9.7428866"><ele>43.599999999999994</ele><time>2026-03-29T10:06:41.383Z</time></trkpt><trkpt lat="40.4389685" lon="9.743026"><ele>42.4</ele><time>2026-03-29T10:06:42.385Z</time></trkpt><trkpt lat="40.4389631" lon="9.7431544"><ele>41.2</ele><time>2026-03-29T10:06:43.387Z</time></trkpt><trkpt lat="40.4389783" lon="9.7432593"><ele>40.0</ele><time>2026-03-29T10:06:44.386Z</time></trkpt><trkpt lat="40.4390022" lon="9.7433442"><ele>40.0</ele><time>2026-03-29T10:06:45.42Z</time></trkpt><trkpt lat="40.4390438" lon="9.7434141"><ele>40.0</ele><time>2026-03-29T10:06:46.391Z</time></trkpt><trkpt lat="40.4391244" lon="9.7435172"><ele>40.0</ele><time>2026-03-29T10:06:48.387Z</time></trkpt><trkpt lat="40.4391835" lon="9.7435699"><ele>40.0</ele><time>2026-03-29T10:06:50.391Z</time></trkpt><trkpt lat="40.4392352" lon="9.7436447"><ele>40.0</ele><time>2026-03-29T10:06:52.385Z</time></trkpt><trkpt lat="40.4393094" lon="9.7437909"><ele>41.0</ele><time>2026-03-29T10:06:54.378Z</time></trkpt><trkpt lat="40.4393345" lon="9.7438946"><ele>42.0</ele><time>2026-03-29T10:06:55.381Z</time></trkpt><trkpt lat="40.4393574" lon="9.7440069"><ele>43.0</ele><time>2026-03-29T10:06:56.385Z</time></trkpt><trkpt lat="40.4393888" lon="9.7440986"><ele>44.0</ele><time>2026-03-29T10:06:57.379Z</time></trkpt><trkpt lat="40.4394172" lon="9.7441725"><ele>45.0</ele><time>2026-03-29T10:06:58.389Z</time></trkpt><trkpt lat="40.4395101" lon="9.7442642"><ele>46.0</ele><time>2026-03-29T10:07:00.379Z</time></trkpt><trkpt lat="40.4396077" lon="9.7443299"><ele>44.0</ele><time>2026-03-29T10:07:02.38Z</time></trkpt><trkpt lat="40.4397166" lon="9.7444046"><ele>42.0</ele><time>2026-03-29T10:07:04.384Z</time></trkpt><trkpt lat="40.4397826" lon="9.7444487"><ele>40.0</ele><time>2026-03-29T10:07:05.384Z</time></trkpt><trkpt lat="40.4398589" lon="9.7445009"><ele>38.0</ele><time>2026-03-29T10:07:06.378Z</time></trkpt><trkpt lat="40.4399357" lon="9.7445694"><ele>36.0</ele><time>2026-03-29T10:07:07.38Z</time></trkpt><trkpt lat="40.4400173" lon="9.7446404"><ele>36.0</ele><time>2026-03-29T10:07:08.383Z</time></trkpt><trkpt lat="40.4401002" lon="9.7447392"><ele>36.0</ele><time>2026-03-29T10:07:09.382Z</time></trkpt><trkpt lat="40.4401717" lon="9.7448451"><ele>36.0</ele><time>2026-03-29T10:07:10.401Z</time></trkpt><trkpt lat="40.4402279" lon="9.7449672"><ele>36.0</ele><time>2026-03-29T10:07:11.382Z</time></trkpt><trkpt lat="40.4402731" lon="9.7450954"><ele>36.0</ele><time>2026-03-29T10:07:12.387Z</time></trkpt><trkpt lat="40.4403119" lon="9.7452186"><ele>35.0</ele><time>2026-03-29T10:07:13.379Z</time></trkpt><trkpt lat="40.4403384" lon="9.7453335"><ele>34.0</ele><time>2026-03-29T10:07:14.388Z</time></trkpt><trkpt lat="40.4403423" lon="9.7454412"><ele>33.0</ele><time>2026-03-29T10:07:15.38Z</time></trkpt><trkpt lat="40.440309" lon="9.7455236"><ele>32.0</ele><time>2026-03-29T10:07:16.378Z</time></trkpt><trkpt lat="40.4402682" lon="9.7455925"><ele>31.0</ele><time>2026-03-29T10:07:17.381Z</time></trkpt><trkpt lat="40.4401954" lon="9.7456411"><ele>30.0</ele><time>2026-03-29T10:07:18.382Z</time></trkpt><trkpt lat="40.4401042" lon="9.7456993"><ele>30.0</ele><time>2026-03-29T10:07:19.396Z</time></trkpt><trkpt lat="40.4400085" lon="9.7457727"><ele>30.0</ele><time>2026-03-29T10:07:20.382Z</time></trkpt><trkpt lat="40.4399126" lon="9.7458431"><ele>30.0</ele><time>2026-03-29T10:07:21.382Z</time></trkpt><trkpt lat="40.4398217" lon="9.7459228"><ele>30.0</ele><time>2026-03-29T10:07:22.39Z</time></trkpt><trkpt lat="40.4397412" lon="9.7459966"><ele>30.0</ele><time>2026-03-29T10:07:23.387Z</time></trkpt><trkpt lat="40.4396848" lon="9.7460712"><ele>29.0</ele><time>2026-03-29T10:07:24.386Z</time></trkpt><trkpt lat="40.4396509" lon="9.7461547"><ele>28.0</ele><time>2026-03-29T10:07:25.385Z</time></trkpt><trkpt lat="40.4396362" lon="9.7462452"><ele>27.0</ele><time>2026-03-29T10:07:26.393Z</time></trkpt><trkpt lat="40.4396394" lon="9.7463441"><ele>26.0</ele><time>2026-03-29T10:07:27.384Z</time></trkpt><trkpt lat="40.4396557" lon="9.7464485"><ele>25.0</ele><time>2026-03-29T10:07:28.382Z</time></trkpt><trkpt lat="40.4396769" lon="9.7465508"><ele>24.0</ele><time>2026-03-29T10:07:29.384Z</time></trkpt><trkpt lat="40.4396982" lon="9.7466429"><ele>24.0</ele><time>2026-03-29T10:07:30.383Z</time></trkpt><trkpt lat="40.4397201" lon="9.7467205"><ele>24.0</ele><time>2026-03-29T10:07:31.381Z</time></trkpt><trkpt lat="40.439744" lon="9.7468505"><ele>24.0</ele><time>2026-03-29T10:07:33.379Z</time></trkpt><trkpt lat="40.439706" lon="9.7469559"><ele>24.0</ele><time>2026-03-29T10:07:35.385Z</time></trkpt><trkpt lat="40.4396168" lon="9.7470047"><ele>24.0</ele><time>2026-03-29T10:07:37.394Z</time></trkpt><trkpt lat="40.439554" lon="9.7470115"><ele>24.0</ele><time>2026-03-29T10:07:38.385Z</time></trkpt><trkpt lat="40.4394848" lon="9.7470102"><ele>24.4</ele><time>2026-03-29T10:07:39.388Z</time></trkpt><trkpt lat="40.4393742" lon="9.7469906"><ele>24.799999999999997</ele><time>2026-03-29T10:07:41.385Z</time></trkpt><trkpt lat="40.4393067" lon="9.7469707"><ele>25.200000000000003</ele><time>2026-03-29T10:07:43.382Z</time></trkpt><trkpt lat="40.4392237" lon="9.7470155"><ele>25.6</ele><time>2026-03-29T10:09:03.393Z</time></trkpt><trkpt lat="40.4391391" lon="9.7471593"><ele>26.0</ele><time>2026-03-29T10:09:05.388Z</time></trkpt><trkpt lat="40.4390861" lon="9.7472536"><ele>26.0</ele><time>2026-03-29T10:09:06.383Z</time></trkpt><trkpt lat="40.4390347" lon="9.7473465"><ele>26.0</ele><time>2026-03-29T10:09:07.39Z</time></trkpt><trkpt lat="40.4389866" lon="9.7474426"><ele>26.0</ele><time>2026-03-29T10:09:08.38Z</time></trkpt><trkpt lat="40.4389449" lon="9.7475384"><ele>26.0</ele><time>2026-03-29T10:09:09.384Z</time></trkpt><trkpt lat="40.4389063" lon="9.7476516"><ele>26.0</ele><time>2026-03-29T10:09:10.383Z</time></trkpt><trkpt lat="40.43887" lon="9.7477763"><ele>26.200000000000003</ele><time>2026-03-29T10:09:11.388Z</time></trkpt><trkpt lat="40.4388329" lon="9.7479037"><ele>26.400000000000002</ele><time>2026-03-29T10:09:12.381Z</time></trkpt><trkpt lat="40.4387942" lon="9.7480343"><ele>26.6</ele><time>2026-03-29T10:09:13.38Z</time></trkpt><trkpt lat="40.4387507" lon="9.7481647"><ele>26.8</ele><time>2026-03-29T10:09:14.379Z</time></trkpt><trkpt lat="40.4387043" lon="9.7482932"><ele>27.0</ele><time>2026-03-29T10:09:15.387Z</time></trkpt><trkpt lat="40.43866" lon="9.7484143"><ele>27.0</ele><time>2026-03-29T10:09:16.378Z</time></trkpt><trkpt lat="40.4386084" lon="9.7485176"><ele>27.000000000000004</ele><time>2026-03-29T10:09:17.388Z</time></trkpt><trkpt lat="40.4385602" lon="9.7486204"><ele>27.000000000000004</ele><time>2026-03-29T10:09:18.389Z</time></trkpt><trkpt lat="40.4385007" lon="9.7487052"><ele>27.0</ele><time>2026-03-29T10:09:19.39Z</time></trkpt><trkpt lat="40.4384162" lon="9.7487566"><ele>27.0</ele><time>2026-03-29T10:09:20.384Z</time></trkpt><trkpt lat="40.4383293" lon="9.7488114"><ele>26.333333333333332</ele><time>2026-03-29T10:09:21.382Z</time></trkpt><trkpt lat="40.4382566" lon="9.7488768"><ele>25.666666666666668</ele><time>2026-03-29T10:09:22.38Z</time></trkpt><trkpt lat="40.4381868" lon="9.7489403"><ele>25.0</ele><time>2026-03-29T10:09:23.39Z</time></trkpt><trkpt lat="40.4381093" lon="9.748998"><ele>24.333333333333336</ele><time>2026-03-29T10:09:24.378Z</time></trkpt><trkpt lat="40.4380312" lon="9.7490564"><ele>23.666666666666668</ele><time>2026-03-29T10:09:25.386Z</time></trkpt><trkpt lat="40.4379599" lon="9.7491276"><ele>23.0</ele><time>2026-03-29T10:09:26.394Z</time></trkpt><trkpt lat="40.437895" lon="9.7491838"><ele>23.0</ele><time>2026-03-29T10:09:27.386Z</time></trkpt><trkpt lat="40.4377562" lon="9.7491531"><ele>23.0</ele><time>2026-03-29T10:09:29.386Z</time></trkpt><trkpt lat="40.4376713" lon="9.7491247"><ele>23.0</ele><time>2026-03-29T10:09:30.384Z</time></trkpt><trkpt lat="40.4375973" lon="9.7491198"><ele>23.0</ele><time>2026-03-29T10:09:31.415Z</time></trkpt><trkpt lat="40.437517" lon="9.749119"><ele>23.0</ele><time>2026-03-29T10:09:32.386Z</time></trkpt><trkpt lat="40.4374222" lon="9.7491569"><ele>23.0</ele><time>2026-03-29T10:09:33.388Z</time></trkpt><trkpt lat="40.4373092" lon="9.7492069"><ele>23.0</ele><time>2026-03-29T10:09:34.384Z</time></trkpt><trkpt lat="40.4371869" lon="9.7492569"><ele>23.0</ele><time>2026-03-29T10:09:35.384Z</time></trkpt><trkpt lat="40.4370673" lon="9.7493084"><ele>23.0</ele><time>2026-03-29T10:09:36.39Z</time></trkpt><trkpt lat="40.4369524" lon="9.7493694"><ele>25.5</ele><time>2026-03-29T10:09:37.385Z</time></trkpt><trkpt lat="40.4368353" lon="9.749438"><ele>28.0</ele><time>2026-03-29T10:09:38.39Z</time></trkpt><trkpt lat="40.4367081" lon="9.7495106"><ele>30.5</ele><time>2026-03-29T10:09:39.386Z</time></trkpt><trkpt lat="40.4365835" lon="9.7495792"><ele>33.0</ele><time>2026-03-29T10:09:40.388Z</time></trkpt><trkpt lat="40.4364662" lon="9.7496427"><ele>33.0</ele><time>2026-03-29T10:09:41.386Z</time></trkpt><trkpt lat="40.4363735" lon="9.749689"><ele>33.0</ele><time>2026-03-29T10:09:42.379Z</time></trkpt><trkpt lat="40.4363043" lon="9.7497005"><ele>33.0</ele><time>2026-03-29T10:09:43.407Z</time></trkpt><trkpt lat="40.4362395" lon="9.7497043"><ele>33.0</ele><time>2026-03-29T10:09:44.384Z</time></trkpt><trkpt lat="40.4361751" lon="9.7497864"><ele>33.0</ele><time>2026-03-29T10:09:46.379Z</time></trkpt><trkpt lat="40.4361539" lon="9.7498689"><ele>33.0</ele><time>2026-03-29T10:09:47.384Z</time></trkpt><trkpt lat="40.4361365" lon="9.7499492"><ele>33.6</ele><time>2026-03-29T10:09:48.381Z</time></trkpt><trkpt lat="40.4360886" lon="9.7500898"><ele>34.199999999999996</ele><time>2026-03-29T10:09:50.389Z</time></trkpt><trkpt lat="40.4360246" lon="9.7501964"><ele>34.8</ele><time>2026-03-29T10:09:52.387Z</time></trkpt><trkpt lat="40.4359762" lon="9.7502657"><ele>35.4</ele><time>2026-03-29T10:09:53.383Z</time></trkpt><trkpt lat="40.4359223" lon="9.7503643"><ele>36.0</ele><time>2026-03-29T10:09:54.388Z</time></trkpt><trkpt lat="40.4358705" lon="9.7504923"><ele>36.5</ele><time>2026-03-29T10:09:55.382Z</time></trkpt><trkpt lat="40.4358149" lon="9.7506273"><ele>37.0</ele><time>2026-03-29T10:09:56.384Z</time></trkpt><trkpt lat="40.4357615" lon="9.7507788"><ele>37.5</ele><time>2026-03-29T10:09:57.386Z</time></trkpt><trkpt lat="40.4357065" lon="9.7509331"><ele>38.0</ele><time>2026-03-29T10:09:58.39Z</time></trkpt><trkpt lat="40.4356535" lon="9.7510777"><ele>37.8</ele><time>2026-03-29T10:09:59.381Z</time></trkpt><trkpt lat="40.4356059" lon="9.7511958"><ele>37.599999999999994</ele><time>2026-03-29T10:10:00.394Z</time></trkpt><trkpt lat="40.4355577" lon="9.7513089"><ele>37.400000000000006</ele><time>2026-03-29T10:10:01.396Z</time></trkpt><trkpt lat="40.4355197" lon="9.7514177"><ele>37.2</ele><time>2026-03-29T10:10:02.382Z</time></trkpt><trkpt lat="40.4354908" lon="9.7515367"><ele>37.0</ele><time>2026-03-29T10:10:03.383Z</time></trkpt><trkpt lat="40.4354646" lon="9.751654"><ele>37.0</ele><time>2026-03-29T10:10:04.387Z</time></trkpt><trkpt lat="40.4354498" lon="9.7517572"><ele>37.0</ele><time>2026-03-29T10:10:05.39Z</time></trkpt><trkpt lat="40.4354401" lon="9.7518459"><ele>37.0</ele><time>2026-03-29T10:10:06.387Z</time></trkpt><trkpt lat="40.4354181" lon="9.7519531"><ele>37.0</ele><time>2026-03-29T10:10:08.386Z</time></trkpt><trkpt lat="40.4353414" lon="9.7519642"><ele>37.0</ele><time>2026-03-29T10:10:10.401Z</time></trkpt><trkpt lat="40.4352298" lon="9.7518869"><ele>37.0</ele><time>2026-03-29T10:10:12.387Z</time></trkpt><trkpt lat="40.4351585" lon="9.7518251"><ele>37.0</ele><time>2026-03-29T10:10:13.389Z</time></trkpt><trkpt lat="40.4350771" lon="9.7517651"><ele>37.0</ele><time>2026-03-29T10:10:14.383Z</time></trkpt><trkpt lat="40.4349832" lon="9.7517112"><ele>37.0</ele><time>2026-03-29T10:10:15.381Z</time></trkpt><trkpt lat="40.4348795" lon="9.7516601"><ele>37.0</ele><time>2026-03-29T10:10:16.387Z</time></trkpt><trkpt lat="40.4347786" lon="9.7516123"><ele>37.0</ele><time>2026-03-29T10:10:17.39Z</time></trkpt><trkpt lat="40.4346922" lon="9.75157"><ele>36.333333333333336</ele><time>2026-03-29T10:10:18.378Z</time></trkpt><trkpt lat="40.4346211" lon="9.7515213"><ele>35.66666666666667</ele><time>2026-03-29T10:10:19.384Z</time></trkpt><trkpt lat="40.4345483" lon="9.7514707"><ele>35.0</ele><time>2026-03-29T10:10:20.385Z</time></trkpt><trkpt lat="40.4344818" lon="9.7514073"><ele>34.333333333333336</ele><time>2026-03-29T10:10:21.385Z</time></trkpt><trkpt lat="40.4344151" lon="9.7513588"><ele>33.666666666666664</ele><time>2026-03-29T10:10:22.392Z</time></trkpt><trkpt lat="40.4343477" lon="9.751328"><ele>33.0</ele><time>2026-03-29T10:10:23.383Z</time></trkpt><trkpt lat="40.4342421" lon="9.7513021"><ele>33.0</ele><time>2026-03-29T10:10:25.394Z</time></trkpt><trkpt lat="40.4341756" lon="9.7512946"><ele>33.0</ele><time>2026-03-29T10:10:29.389Z</time></trkpt><trkpt lat="40.4340794" lon="9.7513839"><ele>33.0</ele><time>2026-03-29T10:10:33.385Z</time></trkpt><trkpt lat="40.4340294" lon="9.7514613"><ele>33.0</ele><time>2026-03-29T10:10:34.39Z</time></trkpt><trkpt lat="40.4339826" lon="9.7515641"><ele>33.0</ele><time>2026-03-29T10:10:35.387Z</time></trkpt><trkpt lat="40.4339351" lon="9.7516826"><ele>33.0</ele><time>2026-03-29T10:10:36.386Z</time></trkpt><trkpt lat="40.433903" lon="9.7517943"><ele>33.0</ele><time>2026-03-29T10:10:37.392Z</time></trkpt><trkpt lat="40.433891" lon="9.7519021"><ele>33.0</ele><time>2026-03-29T10:10:38.385Z</time></trkpt><trkpt lat="40.4338779" lon="9.7520185"><ele>33.0</ele><time>2026-03-29T10:10:39.383Z</time></trkpt><trkpt lat="40.4338913" lon="9.7521482"><ele>33.0</ele><time>2026-03-29T10:10:40.386Z</time></trkpt><trkpt lat="40.4339063" lon="9.7522884"><ele>34.0</ele><time>2026-03-29T10:10:41.387Z</time></trkpt><trkpt lat="40.4339219" lon="9.7524405"><ele>35.0</ele><time>2026-03-29T10:10:42.385Z</time></trkpt><trkpt lat="40.4339331" lon="9.7525943"><ele>36.0</ele><time>2026-03-29T10:10:43.386Z</time></trkpt><trkpt lat="40.4339478" lon="9.7527475"><ele>37.0</ele><time>2026-03-29T10:10:44.38Z</time></trkpt><trkpt lat="40.433957" lon="9.7528762"><ele>37.5</ele><time>2026-03-29T10:10:45.387Z</time></trkpt><trkpt lat="40.4339419" lon="9.7529706"><ele>38.0</ele><time>2026-03-29T10:10:46.386Z</time></trkpt><trkpt lat="40.4339049" lon="9.7530691"><ele>38.5</ele><time>2026-03-29T10:10:47.386Z</time></trkpt><trkpt lat="40.4338654" lon="9.7531655"><ele>39.0</ele><time>2026-03-29T10:10:48.396Z</time></trkpt><trkpt lat="40.4337924" lon="9.7532564"><ele>39.5</ele><time>2026-03-29T10:10:49.389Z</time></trkpt><trkpt lat="40.4337125" lon="9.7533514"><ele>40.0</ele><time>2026-03-29T10:10:50.387Z</time></trkpt><trkpt lat="40.4336195" lon="9.7534619"><ele>44.0</ele><time>2026-03-29T10:10:51.384Z</time></trkpt><trkpt lat="40.4335187" lon="9.7535803"><ele>48.0</ele><time>2026-03-29T10:10:52.384Z</time></trkpt><trkpt lat="40.4334272" lon="9.7536866"><ele>52.0</ele><time>2026-03-29T10:10:53.385Z</time></trkpt><trkpt lat="40.433349" lon="9.7537769"><ele>56.0</ele><time>2026-03-29T10:10:54.393Z</time></trkpt><trkpt lat="40.4332695" lon="9.7538667"><ele>56.0</ele><time>2026-03-29T10:10:55.387Z</time></trkpt><trkpt lat="40.4331752" lon="9.7539426"><ele>55.99999999999999</ele><time>2026-03-29T10:10:56.389Z</time></trkpt><trkpt lat="40.4330855" lon="9.7540092"><ele>55.99999999999999</ele><time>2026-03-29T10:10:57.391Z</time></trkpt><trkpt lat="40.4330058" lon="9.754092"><ele>56.0</ele><time>2026-03-29T10:10:58.39Z</time></trkpt><trkpt lat="40.4329354" lon="9.754196"><ele>56.0</ele><time>2026-03-29T10:10:59.401Z</time></trkpt><trkpt lat="40.432864" lon="9.7543213"><ele>55.5</ele><time>2026-03-29T10:11:00.386Z</time></trkpt><trkpt lat="40.4327777" lon="9.7544704"><ele>55.0</ele><time>2026-03-29T10:11:01.385Z</time></trkpt><trkpt lat="40.4326861" lon="9.7546168"><ele>54.5</ele><time>2026-03-29T10:11:02.387Z</time></trkpt><trkpt lat="40.4325983" lon="9.7547559"><ele>54.0</ele><time>2026-03-29T10:11:03.382Z</time></trkpt><trkpt lat="40.4325316" lon="9.7548699"><ele>54.0</ele><time>2026-03-29T10:11:04.383Z</time></trkpt><trkpt lat="40.4324886" lon="9.7549543"><ele>54.00000000000001</ele><time>2026-03-29T10:11:05.383Z</time></trkpt><trkpt lat="40.4324777" lon="9.7550748"><ele>54.00000000000001</ele><time>2026-03-29T10:11:07.384Z</time></trkpt><trkpt lat="40.43255" lon="9.7551994"><ele>54.0</ele><time>2026-03-29T10:11:09.391Z</time></trkpt><trkpt lat="40.4326403" lon="9.75526"><ele>54.0</ele><time>2026-03-29T10:11:10.391Z</time></trkpt><trkpt lat="40.43275" lon="9.7553383"><ele>54.0</ele><time>2026-03-29T10:11:11.4Z</time></trkpt><trkpt lat="40.4328483" lon="9.7554112"><ele>54.0</ele><time>2026-03-29T10:11:12.391Z</time></trkpt><trkpt lat="40.4329166" lon="9.7554669"><ele>54.0</ele><time>2026-03-29T10:11:13.384Z</time></trkpt><trkpt lat="40.4329692" lon="9.7555131"><ele>54.0</ele><time>2026-03-29T10:11:14.39Z</time></trkpt><trkpt lat="40.4329885" lon="9.7556267"><ele>54.0</ele><time>2026-03-29T10:11:16.387Z</time></trkpt><trkpt lat="40.4329568" lon="9.7557287"><ele>54.0</ele><time>2026-03-29T10:11:17.398Z</time></trkpt><trkpt lat="40.4329211" lon="9.7558598"><ele>54.0</ele><time>2026-03-29T10:11:18.389Z</time></trkpt><trkpt lat="40.4328661" lon="9.7560146"><ele>54.0</ele><time>2026-03-29T10:11:19.396Z</time></trkpt><trkpt lat="40.4328225" lon="9.7561775"><ele>54.0</ele><time>2026-03-29T10:11:20.39Z</time></trkpt><trkpt lat="40.4327896" lon="9.756347"><ele>54.0</ele><time>2026-03-29T10:11:21.391Z</time></trkpt><trkpt lat="40.4327509" lon="9.7565039"><ele>53.75</ele><time>2026-03-29T10:11:22.382Z</time></trkpt><trkpt lat="40.4326945" lon="9.7566583"><ele>53.5</ele><time>2026-03-29T10:11:23.388Z</time></trkpt><trkpt lat="40.4326159" lon="9.756812"><ele>53.25</ele><time>2026-03-29T10:11:24.388Z</time></trkpt><trkpt lat="40.4325293" lon="9.7569693"><ele>53.0</ele><time>2026-03-29T10:11:25.397Z</time></trkpt><trkpt lat="40.4324459" lon="9.757123"><ele>52.75</ele><time>2026-03-29T10:11:26.394Z</time></trkpt><trkpt lat="40.4323631" lon="9.757269"><ele>52.5</ele><time>2026-03-29T10:11:27.396Z</time></trkpt><trkpt lat="40.4322815" lon="9.7574065"><ele>52.25</ele><time>2026-03-29T10:11:28.396Z</time></trkpt><trkpt lat="40.4322045" lon="9.7575267"><ele>52.0</ele><time>2026-03-29T10:11:29.393Z</time></trkpt><trkpt lat="40.4321441" lon="9.75762"><ele>51.83333333333333</ele><time>2026-03-29T10:11:30.392Z</time></trkpt><trkpt lat="40.4321042" lon="9.7576969"><ele>51.666666666666664</ele><time>2026-03-29T10:11:31.39Z</time></trkpt><trkpt lat="40.4320937" lon="9.7578316"><ele>51.5</ele><time>2026-03-29T10:11:33.391Z</time></trkpt><trkpt lat="40.4321187" lon="9.7579372"><ele>51.33333333333333</ele><time>2026-03-29T10:11:35.387Z</time></trkpt><trkpt lat="40.4321465" lon="9.7580344"><ele>51.166666666666664</ele><time>2026-03-29T10:11:38.383Z</time></trkpt><trkpt lat="40.4321712" lon="9.7581417"><ele>51.0</ele><time>2026-03-29T10:11:41.389Z</time></trkpt><trkpt lat="40.432167" lon="9.7582293"><ele>51.0</ele><time>2026-03-29T10:11:44.386Z</time></trkpt><trkpt lat="40.4321917" lon="9.7581515"><ele>51.0</ele><time>2026-03-29T10:11:50.388Z</time></trkpt><trkpt lat="40.4321482" lon="9.7580125"><ele>51.0</ele><time>2026-03-29T10:11:53.385Z</time></trkpt><trkpt lat="40.4321031" lon="9.757878"><ele>51.0</ele><time>2026-03-29T10:11:55.391Z</time></trkpt><trkpt lat="40.432081" lon="9.7577921"><ele>51.0</ele><time>2026-03-29T10:11:57.392Z</time></trkpt><trkpt lat="40.4320597" lon="9.7577118"><ele>51.0</ele><time>2026-03-29T10:13:40.382Z</time></trkpt><trkpt lat="40.4320557" lon="9.7578076"><ele>51.0</ele><time>2026-03-29T10:13:44.39Z</time></trkpt><trkpt lat="40.4320852" lon="9.7578818"><ele>51.0</ele><time>2026-03-29T10:13:45.398Z</time></trkpt><trkpt lat="40.4321154" lon="9.7579812"><ele>51.0</ele><time>2026-03-29T10:13:46.39Z</time></trkpt><trkpt lat="40.4321552" lon="9.7580971"><ele>51.0</ele><time>2026-03-29T10:13:47.385Z</time></trkpt><trkpt lat="40.4322095" lon="9.758223"><ele>51.0</ele><time>2026-03-29T10:13:48.388Z</time></trkpt><trkpt lat="40.4322744" lon="9.7583444"><ele>51.0</ele><time>2026-03-29T10:13:49.389Z</time></trkpt><trkpt lat="40.4323498" lon="9.7584699"><ele>51.0</ele><time>2026-03-29T10:13:50.395Z</time></trkpt><trkpt lat="40.4324247" lon="9.7585926"><ele>51.0</ele><time>2026-03-29T10:13:51.384Z</time></trkpt><trkpt lat="40.432498" lon="9.7587126"><ele>51.0</ele><time>2026-03-29T10:13:52.389Z</time></trkpt><trkpt lat="40.4325694" lon="9.7588271"><ele>50.666666666666664</ele><time>2026-03-29T10:13:53.395Z</time></trkpt><trkpt lat="40.4326398" lon="9.7589402"><ele>50.33333333333333</ele><time>2026-03-29T10:13:54.391Z</time></trkpt><trkpt lat="40.4326973" lon="9.7590315"><ele>50.0</ele><time>2026-03-29T10:13:55.402Z</time></trkpt><trkpt lat="40.4327475" lon="9.7591149"><ele>49.666666666666664</ele><time>2026-03-29T10:13:56.39Z</time></trkpt><trkpt lat="40.4327912" lon="9.7591994"><ele>49.33333333333333</ele><time>2026-03-29T10:13:57.387Z</time></trkpt><trkpt lat="40.4328296" lon="9.7592898"><ele>49.0</ele><time>2026-03-29T10:13:58.383Z</time></trkpt><trkpt lat="40.4328722" lon="9.759388"><ele>48.800000000000004</ele><time>2026-03-29T10:13:59.385Z</time></trkpt><trkpt lat="40.4329277" lon="9.7594906"><ele>48.6</ele><time>2026-03-29T10:14:00.383Z</time></trkpt><trkpt lat="40.4329988" lon="9.7595908"><ele>48.4</ele><time>2026-03-29T10:14:01.394Z</time></trkpt><trkpt lat="40.4330832" lon="9.7596837"><ele>48.2</ele><time>2026-03-29T10:14:02.39Z</time></trkpt><trkpt lat="40.4331785" lon="9.7597651"><ele>48.0</ele><time>2026-03-29T10:14:03.399Z</time></trkpt><trkpt lat="40.4332793" lon="9.7598376"><ele>47.75</ele><time>2026-03-29T10:14:04.385Z</time></trkpt><trkpt lat="40.4333847" lon="9.7599071"><ele>47.5</ele><time>2026-03-29T10:14:05.388Z</time></trkpt><trkpt lat="40.4334892" lon="9.7599735"><ele>47.25</ele><time>2026-03-29T10:14:06.389Z</time></trkpt><trkpt lat="40.4335921" lon="9.7600386"><ele>47.0</ele><time>2026-03-29T10:14:07.389Z</time></trkpt><trkpt lat="40.4336889" lon="9.760102"><ele>47.0</ele><time>2026-03-29T10:14:08.391Z</time></trkpt><trkpt lat="40.4337751" lon="9.7601614"><ele>47.0</ele><time>2026-03-29T10:14:09.4Z</time></trkpt><trkpt lat="40.433858" lon="9.7602231"><ele>47.0</ele><time>2026-03-29T10:14:10.39Z</time></trkpt><trkpt lat="40.4339394" lon="9.7602833"><ele>47.0</ele><time>2026-03-29T10:14:11.39Z</time></trkpt><trkpt lat="40.4340105" lon="9.7603579"><ele>47.0</ele><time>2026-03-29T10:14:12.391Z</time></trkpt><trkpt lat="40.4340728" lon="9.7604331"><ele>47.2</ele><time>2026-03-29T10:14:13.39Z</time></trkpt><trkpt lat="40.434136" lon="9.7605109"><ele>47.400000000000006</ele><time>2026-03-29T10:14:14.391Z</time></trkpt><trkpt lat="40.434203" lon="9.7605908"><ele>47.599999999999994</ele><time>2026-03-29T10:14:15.387Z</time></trkpt><trkpt lat="40.434267" lon="9.76067"><ele>47.8</ele><time>2026-03-29T10:14:16.387Z</time></trkpt><trkpt lat="40.434335" lon="9.7607482"><ele>48.0</ele><time>2026-03-29T10:14:17.387Z</time></trkpt><trkpt lat="40.4344072" lon="9.7608347"><ele>48.0</ele><time>2026-03-29T10:14:18.405Z</time></trkpt><trkpt lat="40.4344817" lon="9.7609309"><ele>48.0</ele><time>2026-03-29T10:14:19.391Z</time></trkpt><trkpt lat="40.4345535" lon="9.7610385"><ele>48.0</ele><time>2026-03-29T10:14:20.386Z</time></trkpt><trkpt lat="40.434614" lon="9.7611455"><ele>48.0</ele><time>2026-03-29T10:14:21.388Z</time></trkpt><trkpt lat="40.4346632" lon="9.7612386"><ele>48.0</ele><time>2026-03-29T10:14:22.389Z</time></trkpt><trkpt lat="40.4347001" lon="9.7613214"><ele>47.166666666666664</ele><time>2026-03-29T10:14:23.396Z</time></trkpt><trkpt lat="40.4347255" lon="9.7614012"><ele>46.333333333333336</ele><time>2026-03-29T10:14:24.391Z</time></trkpt><trkpt lat="40.4347396" lon="9.7614841"><ele>45.5</ele><time>2026-03-29T10:14:25.394Z</time></trkpt><trkpt lat="40.4347639" lon="9.7615778"><ele>44.66666666666667</ele><time>2026-03-29T10:14:26.394Z</time></trkpt><trkpt lat="40.4347993" lon="9.7616692"><ele>43.833333333333336</ele><time>2026-03-29T10:14:27.388Z</time></trkpt><trkpt lat="40.4348532" lon="9.761759"><ele>43.0</ele><time>2026-03-29T10:14:28.386Z</time></trkpt><trkpt lat="40.4349232" lon="9.7618494"><ele>40.6</ele><time>2026-03-29T10:14:29.391Z</time></trkpt><trkpt lat="40.4349993" lon="9.7619315"><ele>38.199999999999996</ele><time>2026-03-29T10:14:30.389Z</time></trkpt><trkpt lat="40.4350734" lon="9.7620023"><ele>35.8</ele><time>2026-03-29T10:14:31.394Z</time></trkpt><trkpt lat="40.4351404" lon="9.7620715"><ele>33.4</ele><time>2026-03-29T10:14:32.389Z</time></trkpt><trkpt lat="40.4352068" lon="9.7621402"><ele>31.0</ele><time>2026-03-29T10:14:33.39Z</time></trkpt><trkpt lat="40.4352709" lon="9.7622231"><ele>31.0</ele><time>2026-03-29T10:14:34.386Z</time></trkpt><trkpt lat="40.4353184" lon="9.762341"><ele>31.0</ele><time>2026-03-29T10:14:35.383Z</time></trkpt><trkpt lat="40.4353562" lon="9.7624741"><ele>31.0</ele><time>2026-03-29T10:14:36.392Z</time></trkpt><trkpt lat="40.4353942" lon="9.7626177"><ele>31.0</ele><time>2026-03-29T10:14:37.387Z</time></trkpt><trkpt lat="40.4354287" lon="9.7627581"><ele>31.0</ele><time>2026-03-29T10:14:38.386Z</time></trkpt><trkpt lat="40.4354583" lon="9.7628986"><ele>30.0</ele><time>2026-03-29T10:14:39.391Z</time></trkpt><trkpt lat="40.435476" lon="9.7630441"><ele>29.0</ele><time>2026-03-29T10:14:40.392Z</time></trkpt><trkpt lat="40.435488" lon="9.7632019"><ele>28.0</ele><time>2026-03-29T10:14:41.397Z</time></trkpt><trkpt lat="40.4354909" lon="9.763361"><ele>27.0</ele><time>2026-03-29T10:14:42.389Z</time></trkpt><trkpt lat="40.4354889" lon="9.76352"><ele>24.0</ele><time>2026-03-29T10:14:43.387Z</time></trkpt><trkpt lat="40.4354869" lon="9.7636767"><ele>21.0</ele><time>2026-03-29T10:14:44.389Z</time></trkpt><trkpt lat="40.4354799" lon="9.7638392"><ele>18.0</ele><time>2026-03-29T10:14:45.391Z</time></trkpt><trkpt lat="40.4354701" lon="9.7640005"><ele>15.0</ele><time>2026-03-29T10:14:46.383Z</time></trkpt><trkpt lat="40.4354576" lon="9.7641562"><ele>15.0</ele><time>2026-03-29T10:14:47.388Z</time></trkpt><trkpt lat="40.4354436" lon="9.7643064"><ele>15.0</ele><time>2026-03-29T10:14:48.384Z</time></trkpt><trkpt lat="40.4354276" lon="9.7644514"><ele>15.0</ele><time>2026-03-29T10:14:49.391Z</time></trkpt><trkpt lat="40.4354081" lon="9.76459"><ele>15.0</ele><time>2026-03-29T10:14:50.387Z</time></trkpt><trkpt lat="40.435388" lon="9.7647151"><ele>15.0</ele><time>2026-03-29T10:14:51.39Z</time></trkpt><trkpt lat="40.4353629" lon="9.7648127"><ele>14.0</ele><time>2026-03-29T10:14:52.385Z</time></trkpt><trkpt lat="40.4353256" lon="9.7649363"><ele>13.0</ele><time>2026-03-29T10:14:54.383Z</time></trkpt><trkpt lat="40.435308" lon="9.7650428"><ele>12.0</ele><time>2026-03-29T10:14:57.394Z</time></trkpt><trkpt lat="40.4353816" lon="9.7651324"><ele>11.0</ele><time>2026-03-29T10:14:59.385Z</time></trkpt><trkpt lat="40.4354418" lon="9.7651707"><ele>10.0</ele><time>2026-03-29T10:15:00.383Z</time></trkpt><trkpt lat="40.4355419" lon="9.7652169"><ele>9.714285714285714</ele><time>2026-03-29T10:15:02.386Z</time></trkpt><trkpt lat="40.4356114" lon="9.7652351"><ele>9.428571428571429</ele><time>2026-03-29T10:15:04.386Z</time></trkpt><trkpt lat="40.4356767" lon="9.7652192"><ele>9.142857142857142</ele><time>2026-03-29T10:15:07.386Z</time></trkpt><trkpt lat="40.4357678" lon="9.7651524"><ele>8.857142857142858</ele><time>2026-03-29T10:15:09.388Z</time></trkpt><trkpt lat="40.435818" lon="9.7651008"><ele>8.571428571428571</ele><time>2026-03-29T10:15:10.387Z</time></trkpt><trkpt lat="40.4358635" lon="9.7650395"><ele>8.285714285714285</ele><time>2026-03-29T10:15:11.404Z</time></trkpt><trkpt lat="40.4359063" lon="9.764972"><ele>8.0</ele><time>2026-03-29T10:15:12.393Z</time></trkpt><trkpt lat="40.4359481" lon="9.7649011"><ele>7.999999999999999</ele><time>2026-03-29T10:15:13.392Z</time></trkpt><trkpt lat="40.4359901" lon="9.7648248"><ele>8.0</ele><time>2026-03-29T10:15:14.391Z</time></trkpt><trkpt lat="40.4360269" lon="9.764757"><ele>8.0</ele><time>2026-03-29T10:15:15.391Z</time></trkpt><trkpt lat="40.4360901" lon="9.7646396"><ele>8.0</ele><time>2026-03-29T10:15:17.386Z</time></trkpt><trkpt lat="40.4361473" lon="9.764538"><ele>7.999999999999999</ele><time>2026-03-29T10:15:19.39Z</time></trkpt><trkpt lat="40.4361993" lon="9.7644487"><ele>8.0</ele><time>2026-03-29T10:15:21.388Z</time></trkpt><trkpt lat="40.4362538" lon="9.7643783"><ele>7.666666666666666</ele><time>2026-03-29T10:15:23.385Z</time></trkpt><trkpt lat="40.4362981" lon="9.7643128"><ele>7.333333333333333</ele><time>2026-03-29T10:15:25.387Z</time></trkpt><trkpt lat="40.4363519" lon="9.7642117"><ele>7.0</ele><time>2026-03-29T10:16:05.395Z</time></trkpt><trkpt lat="40.4363915" lon="9.7641457"><ele>6.666666666666666</ele><time>2026-03-29T10:16:06.391Z</time></trkpt><trkpt lat="40.4364559" lon="9.7640812"><ele>6.333333333333333</ele><time>2026-03-29T10:16:07.391Z</time></trkpt><trkpt lat="40.4365472" lon="9.7640297"><ele>6.0</ele><time>2026-03-29T10:16:08.395Z</time></trkpt><trkpt lat="40.4366405" lon="9.763979"><ele>6.0</ele><time>2026-03-29T10:16:09.389Z</time></trkpt><trkpt lat="40.4367491" lon="9.7640047"><ele>6.0</ele><time>2026-03-29T10:16:10.384Z</time></trkpt><trkpt lat="40.4368593" lon="9.7640659"><ele>6.0</ele><time>2026-03-29T10:16:11.39Z</time></trkpt><trkpt lat="40.4369694" lon="9.7641417"><ele>6.0</ele><time>2026-03-29T10:16:12.398Z</time></trkpt><trkpt lat="40.4370772" lon="9.7642185"><ele>5.75</ele><time>2026-03-29T10:16:13.39Z</time></trkpt><trkpt lat="40.4371822" lon="9.764292"><ele>5.5</ele><time>2026-03-29T10:16:14.392Z</time></trkpt><trkpt lat="40.4372881" lon="9.7643653"><ele>5.25</ele><time>2026-03-29T10:16:15.393Z</time></trkpt><trkpt lat="40.4373938" lon="9.7644401"><ele>5.0</ele><time>2026-03-29T10:16:16.386Z</time></trkpt><trkpt lat="40.4374959" lon="9.7645117"><ele>5.0</ele><time>2026-03-29T10:16:17.385Z</time></trkpt><trkpt lat="40.4375895" lon="9.7645771"><ele>5.0</ele><time>2026-03-29T10:16:18.385Z</time></trkpt><trkpt lat="40.4376752" lon="9.7646361"><ele>5.0</ele><time>2026-03-29T10:16:19.388Z</time></trkpt><trkpt lat="40.4377541" lon="9.7646897"><ele>5.0</ele><time>2026-03-29T10:16:20.385Z</time></trkpt><trkpt lat="40.4378228" lon="9.7647426"><ele>5.0</ele><time>2026-03-29T10:16:21.397Z</time></trkpt><trkpt lat="40.4378787" lon="9.7647981"><ele>5.0</ele><time>2026-03-29T10:16:22.383Z</time></trkpt><trkpt lat="40.4379405" lon="9.7649054"><ele>5.0</ele><time>2026-03-29T10:16:24.384Z</time></trkpt><trkpt lat="40.4379539" lon="9.7649877"><ele>5.0</ele><time>2026-03-29T10:16:26.389Z</time></trkpt><trkpt lat="40.438039" lon="9.7649498"><ele>5.0</ele><time>2026-03-29T10:32:35.396Z</time></trkpt><trkpt lat="40.4381398" lon="9.7649771"><ele>5.0</ele><time>2026-03-29T10:32:37.39Z</time></trkpt><trkpt lat="40.4381992" lon="9.7650047"><ele>5.0</ele><time>2026-03-29T10:32:38.39Z</time></trkpt><trkpt lat="40.4382762" lon="9.7650612"><ele>5.0</ele><time>2026-03-29T10:32:39.385Z</time></trkpt><trkpt lat="40.4383567" lon="9.7651184"><ele>5.4</ele><time>2026-03-29T10:32:40.389Z</time></trkpt><trkpt lat="40.438444" lon="9.765182"><ele>5.8</ele><time>2026-03-29T10:32:41.385Z</time></trkpt><trkpt lat="40.4385321" lon="9.7652407"><ele>6.199999999999999</ele><time>2026-03-29T10:32:42.391Z</time></trkpt><trkpt lat="40.4386206" lon="9.7653014"><ele>6.6</ele><time>2026-03-29T10:32:43.388Z</time></trkpt><trkpt lat="40.4387148" lon="9.7653642"><ele>7.0</ele><time>2026-03-29T10:32:44.389Z</time></trkpt><trkpt lat="40.4388127" lon="9.7654288"><ele>8.25</ele><time>2026-03-29T10:32:45.39Z</time></trkpt><trkpt lat="40.4389103" lon="9.7654879"><ele>9.5</ele><time>2026-03-29T10:32:46.388Z</time></trkpt><trkpt lat="40.4390171" lon="9.7655445"><ele>10.75</ele><time>2026-03-29T10:32:47.387Z</time></trkpt><trkpt lat="40.4391346" lon="9.7655984"><ele>12.0</ele><time>2026-03-29T10:32:48.389Z</time></trkpt><trkpt lat="40.4392616" lon="9.7656485"><ele>12.0</ele><time>2026-03-29T10:32:49.391Z</time></trkpt><trkpt lat="40.4393909" lon="9.765701"><ele>12.0</ele><time>2026-03-29T10:32:50.388Z</time></trkpt><trkpt lat="40.4395206" lon="9.7657483"><ele>12.0</ele><time>2026-03-29T10:32:51.395Z</time></trkpt><trkpt lat="40.4396497" lon="9.7657963"><ele>12.0</ele><time>2026-03-29T10:32:52.384Z</time></trkpt><trkpt lat="40.4397781" lon="9.7658478"><ele>12.75</ele><time>2026-03-29T10:32:53.39Z</time></trkpt><trkpt lat="40.4399075" lon="9.7658969"><ele>13.5</ele><time>2026-03-29T10:32:54.392Z</time></trkpt><trkpt lat="40.4400366" lon="9.7659463"><ele>14.25</ele><time>2026-03-29T10:32:55.393Z</time></trkpt><trkpt lat="40.4401658" lon="9.765995"><ele>15.0</ele><time>2026-03-29T10:32:56.386Z</time></trkpt><trkpt lat="40.4402984" lon="9.7660471"><ele>15.0</ele><time>2026-03-29T10:32:57.391Z</time></trkpt><trkpt lat="40.4404337" lon="9.7660981"><ele>15.0</ele><time>2026-03-29T10:32:58.39Z</time></trkpt><trkpt lat="40.4405705" lon="9.7661481"><ele>15.0</ele><time>2026-03-29T10:32:59.391Z</time></trkpt><trkpt lat="40.4407062" lon="9.7661996"><ele>15.0</ele><time>2026-03-29T10:33:00.382Z</time></trkpt><trkpt lat="40.4408488" lon="9.7662532"><ele>14.75</ele><time>2026-03-29T10:33:01.386Z</time></trkpt><trkpt lat="40.4409997" lon="9.7663082"><ele>14.5</ele><time>2026-03-29T10:33:02.397Z</time></trkpt><trkpt lat="40.4411406" lon="9.7663602"><ele>14.25</ele><time>2026-03-29T10:33:03.384Z</time></trkpt><trkpt lat="40.4412745" lon="9.7664112"><ele>14.0</ele><time>2026-03-29T10:33:04.405Z</time></trkpt><trkpt lat="40.4414019" lon="9.7664589"><ele>14.75</ele><time>2026-03-29T10:33:05.386Z</time></trkpt><trkpt lat="40.4415271" lon="9.7665042"><ele>15.5</ele><time>2026-03-29T10:33:06.384Z</time></trkpt><trkpt lat="40.4416526" lon="9.7665492"><ele>16.25</ele><time>2026-03-29T10:33:07.392Z</time></trkpt><trkpt lat="40.4417829" lon="9.7665957"><ele>17.0</ele><time>2026-03-29T10:33:08.384Z</time></trkpt><trkpt lat="40.4419154" lon="9.7666455"><ele>17.0</ele><time>2026-03-29T10:33:09.401Z</time></trkpt><trkpt lat="40.4420494" lon="9.7666974"><ele>17.0</ele><time>2026-03-29T10:33:10.396Z</time></trkpt><trkpt lat="40.442185" lon="9.7667488"><ele>17.0</ele><time>2026-03-29T10:33:11.389Z</time></trkpt><trkpt lat="40.4423207" lon="9.7667995"><ele>17.0</ele><time>2026-03-29T10:33:12.4Z</time></trkpt><trkpt lat="40.4424548" lon="9.7668486"><ele>17.5</ele><time>2026-03-29T10:33:13.386Z</time></trkpt><trkpt lat="40.4425893" lon="9.7668989"><ele>18.0</ele><time>2026-03-29T10:33:14.406Z</time></trkpt><trkpt lat="40.4427252" lon="9.7669495"><ele>18.5</ele><time>2026-03-29T10:33:15.388Z</time></trkpt><trkpt lat="40.4428622" lon="9.7669993"><ele>19.0</ele><time>2026-03-29T10:33:16.387Z</time></trkpt><trkpt lat="40.4430006" lon="9.7670497"><ele>19.666666666666664</ele><time>2026-03-29T10:33:17.387Z</time></trkpt><trkpt lat="40.4431426" lon="9.7671028"><ele>20.333333333333332</ele><time>2026-03-29T10:33:18.383Z</time></trkpt><trkpt lat="40.4432936" lon="9.7671574"><ele>21.0</ele><time>2026-03-29T10:33:19.391Z</time></trkpt><trkpt lat="40.4434555" lon="9.7672143"><ele>21.0</ele><time>2026-03-29T10:33:20.387Z</time></trkpt><trkpt lat="40.4436203" lon="9.7672732"><ele>21.0</ele><time>2026-03-29T10:33:21.409Z</time></trkpt><trkpt lat="40.4437986" lon="9.7673379"><ele>21.0</ele><time>2026-03-29T10:33:22.392Z</time></trkpt><trkpt lat="40.4439725" lon="9.767403"><ele>22.666666666666664</ele><time>2026-03-29T10:33:23.388Z</time></trkpt><trkpt lat="40.4441427" lon="9.7674673"><ele>24.333333333333332</ele><time>2026-03-29T10:33:24.386Z</time></trkpt><trkpt lat="40.4443135" lon="9.7675318"><ele>26.0</ele><time>2026-03-29T10:33:25.382Z</time></trkpt><trkpt lat="40.4444797" lon="9.7675939"><ele>26.333333333333332</ele><time>2026-03-29T10:33:26.391Z</time></trkpt><trkpt lat="40.4446463" lon="9.7676569"><ele>26.666666666666664</ele><time>2026-03-29T10:33:27.386Z</time></trkpt><trkpt lat="40.4448119" lon="9.76772"><ele>27.0</ele><time>2026-03-29T10:33:28.384Z</time></trkpt><trkpt lat="40.4449779" lon="9.767786"><ele>26.0</ele><time>2026-03-29T10:33:29.387Z</time></trkpt><trkpt lat="40.445146" lon="9.7678536"><ele>25.0</ele><time>2026-03-29T10:33:30.389Z</time></trkpt><trkpt lat="40.4453191" lon="9.7679237"><ele>24.0</ele><time>2026-03-29T10:33:31.389Z</time></trkpt><trkpt lat="40.4455002" lon="9.767994"><ele>24.0</ele><time>2026-03-29T10:33:32.391Z</time></trkpt><trkpt lat="40.4456839" lon="9.7680676"><ele>24.0</ele><time>2026-03-29T10:33:33.391Z</time></trkpt><trkpt lat="40.4458724" lon="9.7681452"><ele>24.0</ele><time>2026-03-29T10:33:34.388Z</time></trkpt><trkpt lat="40.446061" lon="9.7682236"><ele>24.0</ele><time>2026-03-29T10:33:35.391Z</time></trkpt><trkpt lat="40.4462482" lon="9.7683008"><ele>24.0</ele><time>2026-03-29T10:33:36.382Z</time></trkpt><trkpt lat="40.4464357" lon="9.7683792"><ele>24.0</ele><time>2026-03-29T10:33:37.387Z</time></trkpt><trkpt lat="40.4466252" lon="9.7684598"><ele>23.0</ele><time>2026-03-29T10:33:38.387Z</time></trkpt><trkpt lat="40.4468178" lon="9.7685394"><ele>22.0</ele><time>2026-03-29T10:33:39.386Z</time></trkpt><trkpt lat="40.4470097" lon="9.7686202"><ele>21.0</ele><time>2026-03-29T10:33:40.387Z</time></trkpt><trkpt lat="40.4472012" lon="9.7687018"><ele>21.0</ele><time>2026-03-29T10:33:41.389Z</time></trkpt><trkpt lat="40.4473934" lon="9.7687843"><ele>21.0</ele><time>2026-03-29T10:33:42.381Z</time></trkpt><trkpt lat="40.4475869" lon="9.7688664"><ele>21.0</ele><time>2026-03-29T10:33:43.393Z</time></trkpt><trkpt lat="40.4477818" lon="9.768947"><ele>21.0</ele><time>2026-03-29T10:33:44.382Z</time></trkpt><trkpt lat="40.4479785" lon="9.7690287"><ele>21.0</ele><time>2026-03-29T10:33:45.385Z</time></trkpt><trkpt lat="40.448177" lon="9.7691123"><ele>21.0</ele><time>2026-03-29T10:33:46.389Z</time></trkpt><trkpt lat="40.4483743" lon="9.7691971"><ele>21.0</ele><time>2026-03-29T10:33:47.382Z</time></trkpt><trkpt lat="40.4485701" lon="9.7692806"><ele>21.0</ele><time>2026-03-29T10:33:48.393Z</time></trkpt><trkpt lat="40.4487645" lon="9.7693621"><ele>21.0</ele><time>2026-03-29T10:33:49.386Z</time></trkpt><trkpt lat="40.4489581" lon="9.7694421"><ele>21.0</ele><time>2026-03-29T10:33:50.386Z</time></trkpt><trkpt lat="40.4491501" lon="9.7695204"><ele>21.0</ele><time>2026-03-29T10:33:51.384Z</time></trkpt><trkpt lat="40.4493406" lon="9.7695998"><ele>21.0</ele><time>2026-03-29T10:33:52.384Z</time></trkpt><trkpt lat="40.4495307" lon="9.7696786"><ele>21.333333333333332</ele><time>2026-03-29T10:33:53.381Z</time></trkpt><trkpt lat="40.4497223" lon="9.7697549"><ele>21.666666666666664</ele><time>2026-03-29T10:33:54.388Z</time></trkpt><trkpt lat="40.4499146" lon="9.7698317"><ele>22.0</ele><time>2026-03-29T10:33:55.38Z</time></trkpt><trkpt lat="40.4501004" lon="9.7699093"><ele>22.0</ele><time>2026-03-29T10:33:56.386Z</time></trkpt><trkpt lat="40.4502882" lon="9.769992"><ele>22.0</ele><time>2026-03-29T10:33:57.396Z</time></trkpt><trkpt lat="40.4504757" lon="9.7700732"><ele>22.0</ele><time>2026-03-29T10:33:58.378Z</time></trkpt><trkpt lat="40.4506648" lon="9.7701527"><ele>21.333333333333332</ele><time>2026-03-29T10:33:59.386Z</time></trkpt><trkpt lat="40.450855" lon="9.7702332"><ele>20.666666666666668</ele><time>2026-03-29T10:34:00.387Z</time></trkpt><trkpt lat="40.4510478" lon="9.7703133"><ele>20.0</ele><time>2026-03-29T10:34:01.385Z</time></trkpt><trkpt lat="40.4512442" lon="9.7703933"><ele>20.0</ele><time>2026-03-29T10:34:02.386Z</time></trkpt><trkpt lat="40.4514442" lon="9.7704744"><ele>20.0</ele><time>2026-03-29T10:34:03.389Z</time></trkpt><trkpt lat="40.4516455" lon="9.770557"><ele>20.0</ele><time>2026-03-29T10:34:04.384Z</time></trkpt><trkpt lat="40.4518494" lon="9.77064"><ele>20.0</ele><time>2026-03-29T10:34:05.386Z</time></trkpt><trkpt lat="40.4520543" lon="9.7707242"><ele>20.0</ele><time>2026-03-29T10:34:06.383Z</time></trkpt><trkpt lat="40.4522613" lon="9.7708091"><ele>20.0</ele><time>2026-03-29T10:34:07.383Z</time></trkpt><trkpt lat="40.4524644" lon="9.7708884"><ele>20.333333333333336</ele><time>2026-03-29T10:34:08.383Z</time></trkpt><trkpt lat="40.4526688" lon="9.7709776"><ele>20.666666666666668</ele><time>2026-03-29T10:34:09.383Z</time></trkpt><trkpt lat="40.4528713" lon="9.7710656"><ele>21.0</ele><time>2026-03-29T10:34:10.385Z</time></trkpt><trkpt lat="40.4530765" lon="9.7711524"><ele>22.333333333333336</ele><time>2026-03-29T10:34:11.386Z</time></trkpt><trkpt lat="40.4532818" lon="9.7712394"><ele>23.666666666666668</ele><time>2026-03-29T10:34:12.386Z</time></trkpt><trkpt lat="40.4534844" lon="9.7713245"><ele>25.0</ele><time>2026-03-29T10:34:13.383Z</time></trkpt><trkpt lat="40.4536834" lon="9.7714092"><ele>26.333333333333336</ele><time>2026-03-29T10:34:14.386Z</time></trkpt><trkpt lat="40.4538749" lon="9.7714939"><ele>27.666666666666664</ele><time>2026-03-29T10:34:15.386Z</time></trkpt><trkpt lat="40.4540477" lon="9.7715644"><ele>29.0</ele><time>2026-03-29T10:34:16.383Z</time></trkpt><trkpt lat="40.4542126" lon="9.7716088"><ele>29.0</ele><time>2026-03-29T10:34:17.385Z</time></trkpt><trkpt lat="40.4543786" lon="9.77162"><ele>29.0</ele><time>2026-03-29T10:34:18.386Z</time></trkpt><trkpt lat="40.4545551" lon="9.771603"><ele>29.0</ele><time>2026-03-29T10:34:19.388Z</time></trkpt><trkpt lat="40.4547346" lon="9.771572"><ele>30.0</ele><time>2026-03-29T10:34:20.392Z</time></trkpt><trkpt lat="40.4549055" lon="9.7715431"><ele>31.0</ele><time>2026-03-29T10:34:21.389Z</time></trkpt><trkpt lat="40.4550713" lon="9.7715284"><ele>32.0</ele><time>2026-03-29T10:34:22.384Z</time></trkpt><trkpt lat="40.4552131" lon="9.7715323"><ele>32.0</ele><time>2026-03-29T10:34:23.386Z</time></trkpt><trkpt lat="40.4553554" lon="9.7715717"><ele>32.0</ele><time>2026-03-29T10:34:24.386Z</time></trkpt><trkpt lat="40.4554909" lon="9.7717008"><ele>32.0</ele><time>2026-03-29T10:34:25.39Z</time></trkpt><trkpt lat="40.455614" lon="9.7718493"><ele>31.5</ele><time>2026-03-29T10:34:26.387Z</time></trkpt><trkpt lat="40.4557364" lon="9.7719734"><ele>31.0</ele><time>2026-03-29T10:34:27.382Z</time></trkpt><trkpt lat="40.4558639" lon="9.7720493"><ele>30.5</ele><time>2026-03-29T10:34:28.383Z</time></trkpt><trkpt lat="40.4560018" lon="9.77207"><ele>30.0</ele><time>2026-03-29T10:34:29.382Z</time></trkpt><trkpt lat="40.4561506" lon="9.7720464"><ele>29.666666666666664</ele><time>2026-03-29T10:34:30.387Z</time></trkpt><trkpt lat="40.4563127" lon="9.7719882"><ele>29.333333333333332</ele><time>2026-03-29T10:34:31.384Z</time></trkpt><trkpt lat="40.4564891" lon="9.7719228"><ele>29.0</ele><time>2026-03-29T10:34:32.384Z</time></trkpt><trkpt lat="40.45669" lon="9.7718419"><ele>29.0</ele><time>2026-03-29T10:34:33.388Z</time></trkpt><trkpt lat="40.4569071" lon="9.7717521"><ele>29.0</ele><time>2026-03-29T10:34:34.384Z</time></trkpt><trkpt lat="40.4571291" lon="9.7716611"><ele>28.333333333333332</ele><time>2026-03-29T10:34:35.386Z</time></trkpt><trkpt lat="40.4573448" lon="9.7715665"><ele>27.666666666666664</ele><time>2026-03-29T10:34:36.385Z</time></trkpt><trkpt lat="40.457544" lon="9.7714847"><ele>27.0</ele><time>2026-03-29T10:34:37.382Z</time></trkpt><trkpt lat="40.4577384" lon="9.7714172"><ele>27.0</ele><time>2026-03-29T10:34:38.385Z</time></trkpt><trkpt lat="40.4579297" lon="9.7713608"><ele>27.0</ele><time>2026-03-29T10:34:39.389Z</time></trkpt><trkpt lat="40.4581291" lon="9.7713641"><ele>27.0</ele><time>2026-03-29T10:34:40.384Z</time></trkpt><trkpt lat="40.4583289" lon="9.7714195"><ele>27.0</ele><time>2026-03-29T10:34:41.388Z</time></trkpt><trkpt lat="40.4585358" lon="9.7714998"><ele>27.0</ele><time>2026-03-29T10:34:42.39Z</time></trkpt><trkpt lat="40.4587587" lon="9.771585"><ele>27.0</ele><time>2026-03-29T10:34:43.385Z</time></trkpt><trkpt lat="40.4589819" lon="9.7716764"><ele>27.0</ele><time>2026-03-29T10:34:44.39Z</time></trkpt><trkpt lat="40.4592036" lon="9.7717639"><ele>27.0</ele><time>2026-03-29T10:34:45.386Z</time></trkpt><trkpt lat="40.4594292" lon="9.7718586"><ele>28.5</ele><time>2026-03-29T10:34:46.403Z</time></trkpt><trkpt lat="40.4596612" lon="9.7719519"><ele>30.0</ele><time>2026-03-29T10:34:47.388Z</time></trkpt><trkpt lat="40.4598945" lon="9.772049"><ele>30.0</ele><time>2026-03-29T10:34:48.388Z</time></trkpt><trkpt lat="40.4601255" lon="9.7721457"><ele>30.0</ele><time>2026-03-29T10:34:49.385Z</time></trkpt><trkpt lat="40.460353" lon="9.7722379"><ele>29.0</ele><time>2026-03-29T10:34:50.384Z</time></trkpt><trkpt lat="40.4605697" lon="9.7723231"><ele>28.0</ele><time>2026-03-29T10:34:51.384Z</time></trkpt><trkpt lat="40.4607809" lon="9.7724087"><ele>27.0</ele><time>2026-03-29T10:34:52.387Z</time></trkpt><trkpt lat="40.4609862" lon="9.7724936"><ele>27.0</ele><time>2026-03-29T10:34:53.383Z</time></trkpt><trkpt lat="40.4611858" lon="9.7725769"><ele>27.0</ele><time>2026-03-29T10:34:54.383Z</time></trkpt><trkpt lat="40.4613847" lon="9.772659"><ele>27.0</ele><time>2026-03-29T10:34:55.383Z</time></trkpt><trkpt lat="40.4615843" lon="9.7727398"><ele>28.333333333333336</ele><time>2026-03-29T10:34:56.386Z</time></trkpt><trkpt lat="40.4617847" lon="9.7728187"><ele>29.666666666666668</ele><time>2026-03-29T10:34:57.381Z</time></trkpt><trkpt lat="40.461987" lon="9.7728975"><ele>31.0</ele><time>2026-03-29T10:34:58.384Z</time></trkpt><trkpt lat="40.4621914" lon="9.7729709"><ele>31.0</ele><time>2026-03-29T10:34:59.388Z</time></trkpt><trkpt lat="40.4624007" lon="9.773036"><ele>31.0</ele><time>2026-03-29T10:35:00.382Z</time></trkpt><trkpt lat="40.4626125" lon="9.7730857"><ele>31.0</ele><time>2026-03-29T10:35:01.385Z</time></trkpt><trkpt lat="40.4628242" lon="9.7731224"><ele>31.666666666666668</ele><time>2026-03-29T10:35:02.38Z</time></trkpt><trkpt lat="40.4630294" lon="9.7731484"><ele>32.333333333333336</ele><time>2026-03-29T10:35:03.385Z</time></trkpt><trkpt lat="40.4632236" lon="9.7731757"><ele>33.0</ele><time>2026-03-29T10:35:04.382Z</time></trkpt><trkpt lat="40.4634065" lon="9.7732132"><ele>33.0</ele><time>2026-03-29T10:35:05.387Z</time></trkpt><trkpt lat="40.4635834" lon="9.7732707"><ele>33.0</ele><time>2026-03-29T10:35:06.383Z</time></trkpt><trkpt lat="40.463762" lon="9.7733519"><ele>33.0</ele><time>2026-03-29T10:35:07.379Z</time></trkpt><trkpt lat="40.4639437" lon="9.7734528"><ele>35.333333333333336</ele><time>2026-03-29T10:35:08.378Z</time></trkpt><trkpt lat="40.4641261" lon="9.7735594"><ele>37.66666666666667</ele><time>2026-03-29T10:35:09.375Z</time></trkpt><trkpt lat="40.4643045" lon="9.7736613"><ele>40.0</ele><time>2026-03-29T10:35:10.379Z</time></trkpt><trkpt lat="40.4644806" lon="9.7737614"><ele>40.0</ele><time>2026-03-29T10:35:11.38Z</time></trkpt><trkpt lat="40.4646527" lon="9.7738606"><ele>40.0</ele><time>2026-03-29T10:35:12.382Z</time></trkpt><trkpt lat="40.4648218" lon="9.7739591"><ele>40.0</ele><time>2026-03-29T10:35:13.39Z</time></trkpt><trkpt lat="40.4649847" lon="9.7740532"><ele>40.0</ele><time>2026-03-29T10:35:14.381Z</time></trkpt><trkpt lat="40.4651411" lon="9.7741444"><ele>40.0</ele><time>2026-03-29T10:35:15.381Z</time></trkpt><trkpt lat="40.4652982" lon="9.7742362"><ele>40.0</ele><time>2026-03-29T10:35:16.382Z</time></trkpt><trkpt lat="40.4654564" lon="9.7743279"><ele>43.0</ele><time>2026-03-29T10:35:17.383Z</time></trkpt><trkpt lat="40.4656152" lon="9.7744182"><ele>46.0</ele><time>2026-03-29T10:35:18.384Z</time></trkpt><trkpt lat="40.465774" lon="9.7745093"><ele>49.0</ele><time>2026-03-29T10:35:19.39Z</time></trkpt><trkpt lat="40.4659325" lon="9.7746005"><ele>49.0</ele><time>2026-03-29T10:35:20.381Z</time></trkpt><trkpt lat="40.4660887" lon="9.774689"><ele>49.0</ele><time>2026-03-29T10:35:21.397Z</time></trkpt><trkpt lat="40.4662433" lon="9.7747737"><ele>49.0</ele><time>2026-03-29T10:35:22.384Z</time></trkpt><trkpt lat="40.4663987" lon="9.7748525"><ele>48.75</ele><time>2026-03-29T10:35:23.382Z</time></trkpt><trkpt lat="40.4665494" lon="9.7749177"><ele>48.5</ele><time>2026-03-29T10:35:24.384Z</time></trkpt><trkpt lat="40.466689" lon="9.7749636"><ele>48.25</ele><time>2026-03-29T10:35:25.377Z</time></trkpt><trkpt lat="40.4668217" lon="9.7749967"><ele>48.0</ele><time>2026-03-29T10:35:26.404Z</time></trkpt><trkpt lat="40.4669485" lon="9.7750223"><ele>48.0</ele><time>2026-03-29T10:35:27.382Z</time></trkpt><trkpt lat="40.4670684" lon="9.7750454"><ele>48.0</ele><time>2026-03-29T10:35:28.386Z</time></trkpt><trkpt lat="40.4671878" lon="9.7750687"><ele>48.0</ele><time>2026-03-29T10:35:29.386Z</time></trkpt><trkpt lat="40.4673134" lon="9.7750913"><ele>48.0</ele><time>2026-03-29T10:35:30.388Z</time></trkpt><trkpt lat="40.4674446" lon="9.7751108"><ele>47.75</ele><time>2026-03-29T10:35:31.404Z</time></trkpt><trkpt lat="40.4675768" lon="9.775125"><ele>47.5</ele><time>2026-03-29T10:35:32.395Z</time></trkpt><trkpt lat="40.467707" lon="9.7751364"><ele>47.25</ele><time>2026-03-29T10:35:33.387Z</time></trkpt><trkpt lat="40.4678346" lon="9.7751423"><ele>47.0</ele><time>2026-03-29T10:35:34.389Z</time></trkpt><trkpt lat="40.4679579" lon="9.7751371"><ele>46.0</ele><time>2026-03-29T10:35:35.387Z</time></trkpt><trkpt lat="40.4680788" lon="9.7751219"><ele>45.0</ele><time>2026-03-29T10:35:36.39Z</time></trkpt><trkpt lat="40.4681971" lon="9.7751277"><ele>44.0</ele><time>2026-03-29T10:35:37.393Z</time></trkpt><trkpt lat="40.4683094" lon="9.775175"><ele>43.0</ele><time>2026-03-29T10:35:38.384Z</time></trkpt><trkpt lat="40.4684204" lon="9.7752401"><ele>42.0</ele><time>2026-03-29T10:35:39.392Z</time></trkpt><trkpt lat="40.4685186" lon="9.7753453"><ele>41.0</ele><time>2026-03-29T10:35:40.389Z</time></trkpt><trkpt lat="40.4686256" lon="9.7754243"><ele>40.0</ele><time>2026-03-29T10:35:41.388Z</time></trkpt><trkpt lat="40.4687383" lon="9.7754908"><ele>39.0</ele><time>2026-03-29T10:35:42.384Z</time></trkpt><trkpt lat="40.4688449" lon="9.7755537"><ele>38.0</ele><time>2026-03-29T10:35:43.386Z</time></trkpt><trkpt lat="40.4689453" lon="9.7756117"><ele>37.0</ele><time>2026-03-29T10:35:44.392Z</time></trkpt><trkpt lat="40.4690454" lon="9.775656"><ele>36.0</ele><time>2026-03-29T10:35:45.386Z</time></trkpt><trkpt lat="40.4691478" lon="9.7756717"><ele>35.0</ele><time>2026-03-29T10:35:46.39Z</time></trkpt><trkpt lat="40.4692537" lon="9.7756458"><ele>34.0</ele><time>2026-03-29T10:35:47.388Z</time></trkpt><trkpt lat="40.4693675" lon="9.7756096"><ele>34.0</ele><time>2026-03-29T10:35:48.391Z</time></trkpt><trkpt lat="40.4695045" lon="9.7755623"><ele>34.0</ele><time>2026-03-29T10:35:49.396Z</time></trkpt><trkpt lat="40.4696441" lon="9.7755289"><ele>34.0</ele><time>2026-03-29T10:35:50.384Z</time></trkpt><trkpt lat="40.4697838" lon="9.7755303"><ele>34.0</ele><time>2026-03-29T10:35:51.386Z</time></trkpt><trkpt lat="40.4699256" lon="9.7755847"><ele>33.0</ele><time>2026-03-29T10:35:52.384Z</time></trkpt><trkpt lat="40.4700557" lon="9.7756243"><ele>32.0</ele><time>2026-03-29T10:35:53.386Z</time></trkpt><trkpt lat="40.4701807" lon="9.7756803"><ele>31.0</ele><time>2026-03-29T10:35:54.382Z</time></trkpt><trkpt lat="40.4703041" lon="9.7757383"><ele>30.0</ele><time>2026-03-29T10:35:55.389Z</time></trkpt><trkpt lat="40.4704216" lon="9.7758015"><ele>29.25</ele><time>2026-03-29T10:35:56.389Z</time></trkpt><trkpt lat="40.4705229" lon="9.7758518"><ele>28.5</ele><time>2026-03-29T10:35:57.388Z</time></trkpt><trkpt lat="40.4706196" lon="9.7759137"><ele>27.75</ele><time>2026-03-29T10:35:58.382Z</time></trkpt><trkpt lat="40.4706879" lon="9.7760268"><ele>27.0</ele><time>2026-03-29T10:35:59.387Z</time></trkpt><trkpt lat="40.4707505" lon="9.7761705"><ele>27.0</ele><time>2026-03-29T10:36:00.385Z</time></trkpt><trkpt lat="40.4708158" lon="9.7763201"><ele>27.0</ele><time>2026-03-29T10:36:01.392Z</time></trkpt><trkpt lat="40.4708942" lon="9.7765155"><ele>27.0</ele><time>2026-03-29T10:36:02.383Z</time></trkpt><trkpt lat="40.4709717" lon="9.7767344"><ele>26.333333333333336</ele><time>2026-03-29T10:36:03.388Z</time></trkpt><trkpt lat="40.4710545" lon="9.7769623"><ele>25.666666666666668</ele><time>2026-03-29T10:36:04.389Z</time></trkpt><trkpt lat="40.4711398" lon="9.777194"><ele>25.0</ele><time>2026-03-29T10:36:05.389Z</time></trkpt><trkpt lat="40.4712307" lon="9.777429"><ele>26.0</ele><time>2026-03-29T10:36:06.396Z</time></trkpt><trkpt lat="40.4713217" lon="9.7776598"><ele>27.0</ele><time>2026-03-29T10:36:07.387Z</time></trkpt><trkpt lat="40.471406" lon="9.7778669"><ele>28.0</ele><time>2026-03-29T10:36:08.385Z</time></trkpt><trkpt lat="40.4714852" lon="9.7780534"><ele>28.0</ele><time>2026-03-29T10:36:09.383Z</time></trkpt><trkpt lat="40.471572" lon="9.7782077"><ele>28.0</ele><time>2026-03-29T10:36:10.39Z</time></trkpt><trkpt lat="40.4716635" lon="9.7783393"><ele>28.0</ele><time>2026-03-29T10:36:11.386Z</time></trkpt><trkpt lat="40.4717927" lon="9.7784047"><ele>28.0</ele><time>2026-03-29T10:36:12.39Z</time></trkpt><trkpt lat="40.4719411" lon="9.7784425"><ele>27.333333333333336</ele><time>2026-03-29T10:36:13.388Z</time></trkpt><trkpt lat="40.4721075" lon="9.7784694"><ele>26.666666666666664</ele><time>2026-03-29T10:36:14.393Z</time></trkpt><trkpt lat="40.472287" lon="9.7784917"><ele>26.0</ele><time>2026-03-29T10:36:15.387Z</time></trkpt><trkpt lat="40.4724715" lon="9.7785229"><ele>23.666666666666664</ele><time>2026-03-29T10:36:16.388Z</time></trkpt><trkpt lat="40.4726584" lon="9.7785538"><ele>21.333333333333332</ele><time>2026-03-29T10:36:17.383Z</time></trkpt><trkpt lat="40.4728445" lon="9.7785853"><ele>19.0</ele><time>2026-03-29T10:36:18.388Z</time></trkpt><trkpt lat="40.473032" lon="9.7786153"><ele>19.0</ele><time>2026-03-29T10:36:19.389Z</time></trkpt><trkpt lat="40.4732215" lon="9.7786451"><ele>19.0</ele><time>2026-03-29T10:36:20.384Z</time></trkpt><trkpt lat="40.4734129" lon="9.7786756"><ele>19.0</ele><time>2026-03-29T10:36:21.383Z</time></trkpt><trkpt lat="40.4736026" lon="9.7787127"><ele>19.0</ele><time>2026-03-29T10:36:22.388Z</time></trkpt><trkpt lat="40.4737917" lon="9.7787459"><ele>19.0</ele><time>2026-03-29T10:36:23.388Z</time></trkpt><trkpt lat="40.4739754" lon="9.7787772"><ele>19.0</ele><time>2026-03-29T10:36:24.382Z</time></trkpt><trkpt lat="40.4741623" lon="9.7788078"><ele>19.0</ele><time>2026-03-29T10:36:25.382Z</time></trkpt><trkpt lat="40.4743531" lon="9.7788403"><ele>19.0</ele><time>2026-03-29T10:36:26.383Z</time></trkpt><trkpt lat="40.4745526" lon="9.7788772"><ele>19.0</ele><time>2026-03-29T10:36:27.386Z</time></trkpt><trkpt lat="40.4747557" lon="9.7789112"><ele>19.333333333333332</ele><time>2026-03-29T10:36:28.382Z</time></trkpt><trkpt lat="40.4749586" lon="9.7789321"><ele>19.666666666666668</ele><time>2026-03-29T10:36:29.398Z</time></trkpt><trkpt lat="40.4751638" lon="9.7789404"><ele>20.0</ele><time>2026-03-29T10:36:30.387Z</time></trkpt><trkpt lat="40.4753702" lon="9.7789228"><ele>20.333333333333336</ele><time>2026-03-29T10:36:31.387Z</time></trkpt><trkpt lat="40.4755761" lon="9.7789055"><ele>20.666666666666668</ele><time>2026-03-29T10:36:32.391Z</time></trkpt><trkpt lat="40.475777" lon="9.7788846"><ele>21.0</ele><time>2026-03-29T10:36:33.388Z</time></trkpt><trkpt lat="40.4759779" lon="9.7788648"><ele>21.0</ele><time>2026-03-29T10:36:34.392Z</time></trkpt><trkpt lat="40.4761812" lon="9.7788422"><ele>21.0</ele><time>2026-03-29T10:36:35.385Z</time></trkpt><trkpt lat="40.476385" lon="9.7788183"><ele>21.0</ele><time>2026-03-29T10:36:36.389Z</time></trkpt><trkpt lat="40.4765895" lon="9.7787967"><ele>22.333333333333336</ele><time>2026-03-29T10:36:37.384Z</time></trkpt><trkpt lat="40.4767899" lon="9.7787731"><ele>23.666666666666668</ele><time>2026-03-29T10:36:38.392Z</time></trkpt><trkpt lat="40.4769842" lon="9.7787461"><ele>25.0</ele><time>2026-03-29T10:36:39.39Z</time></trkpt><trkpt lat="40.4771752" lon="9.7787078"><ele>25.666666666666668</ele><time>2026-03-29T10:36:40.392Z</time></trkpt><trkpt lat="40.4773595" lon="9.7786619"><ele>26.333333333333336</ele><time>2026-03-29T10:36:41.394Z</time></trkpt><trkpt lat="40.4775377" lon="9.7786106"><ele>27.0</ele><time>2026-03-29T10:36:42.394Z</time></trkpt><trkpt lat="40.4777215" lon="9.7785559"><ele>28.333333333333336</ele><time>2026-03-29T10:36:43.403Z</time></trkpt><trkpt lat="40.4779087" lon="9.7784998"><ele>29.666666666666668</ele><time>2026-03-29T10:36:44.389Z</time></trkpt><trkpt lat="40.4781011" lon="9.7784427"><ele>31.0</ele><time>2026-03-29T10:36:45.39Z</time></trkpt><trkpt lat="40.4782993" lon="9.778385"><ele>31.0</ele><time>2026-03-29T10:36:46.381Z</time></trkpt><trkpt lat="40.4785006" lon="9.7783259"><ele>31.0</ele><time>2026-03-29T10:36:47.383Z</time></trkpt><trkpt lat="40.4787019" lon="9.7782648"><ele>31.0</ele><time>2026-03-29T10:36:48.386Z</time></trkpt><trkpt lat="40.4789004" lon="9.7782031"><ele>31.0</ele><time>2026-03-29T10:36:49.391Z</time></trkpt><trkpt lat="40.4790926" lon="9.7781429"><ele>31.0</ele><time>2026-03-29T10:36:50.385Z</time></trkpt><trkpt lat="40.4792732" lon="9.7780885"><ele>31.0</ele><time>2026-03-29T10:36:51.4Z</time></trkpt><trkpt lat="40.4794437" lon="9.7780433"><ele>30.333333333333336</ele><time>2026-03-29T10:36:52.384Z</time></trkpt><trkpt lat="40.4796151" lon="9.778007"><ele>29.666666666666664</ele><time>2026-03-29T10:36:53.384Z</time></trkpt><trkpt lat="40.4797942" lon="9.7779776"><ele>29.0</ele><time>2026-03-29T10:36:54.389Z</time></trkpt><trkpt lat="40.479985" lon="9.7779557"><ele>29.0</ele><time>2026-03-29T10:36:55.387Z</time></trkpt><trkpt lat="40.480181" lon="9.7779316"><ele>29.0</ele><time>2026-03-29T10:36:56.385Z</time></trkpt><trkpt lat="40.4803914" lon="9.7779014"><ele>29.0</ele><time>2026-03-29T10:36:57.385Z</time></trkpt><trkpt lat="40.4806041" lon="9.7778607"><ele>28.0</ele><time>2026-03-29T10:36:58.388Z</time></trkpt><trkpt lat="40.4808042" lon="9.7778124"><ele>27.0</ele><time>2026-03-29T10:36:59.384Z</time></trkpt><trkpt lat="40.4810032" lon="9.7777608"><ele>26.0</ele><time>2026-03-29T10:37:00.383Z</time></trkpt><trkpt lat="40.4812009" lon="9.7777107"><ele>26.666666666666664</ele><time>2026-03-29T10:37:01.386Z</time></trkpt><trkpt lat="40.481395" lon="9.7776579"><ele>27.333333333333336</ele><time>2026-03-29T10:37:02.39Z</time></trkpt><trkpt lat="40.4815881" lon="9.7776035"><ele>28.0</ele><time>2026-03-29T10:37:03.391Z</time></trkpt><trkpt lat="40.4817785" lon="9.7775492"><ele>28.0</ele><time>2026-03-29T10:37:04.388Z</time></trkpt><trkpt lat="40.4819684" lon="9.7774945"><ele>28.0</ele><time>2026-03-29T10:37:05.395Z</time></trkpt><trkpt lat="40.4821513" lon="9.7774427"><ele>28.0</ele><time>2026-03-29T10:37:06.388Z</time></trkpt><trkpt lat="40.4823272" lon="9.7773937"><ele>30.0</ele><time>2026-03-29T10:37:07.384Z</time></trkpt><trkpt lat="40.4824995" lon="9.7773454"><ele>32.0</ele><time>2026-03-29T10:37:08.389Z</time></trkpt><trkpt lat="40.4826605" lon="9.7773008"><ele>34.0</ele><time>2026-03-29T10:37:09.391Z</time></trkpt><trkpt lat="40.4828159" lon="9.7772612"><ele>35.333333333333336</ele><time>2026-03-29T10:37:10.389Z</time></trkpt><trkpt lat="40.4829745" lon="9.7772263"><ele>36.666666666666664</ele><time>2026-03-29T10:37:11.385Z</time></trkpt><trkpt lat="40.4831411" lon="9.7772035"><ele>38.0</ele><time>2026-03-29T10:37:12.395Z</time></trkpt><trkpt lat="40.4833026" lon="9.7771874"><ele>38.0</ele><time>2026-03-29T10:37:13.387Z</time></trkpt><trkpt lat="40.4834555" lon="9.7771762"><ele>38.0</ele><time>2026-03-29T10:37:14.387Z</time></trkpt><trkpt lat="40.4836238" lon="9.7771736"><ele>38.0</ele><time>2026-03-29T10:37:15.384Z</time></trkpt><trkpt lat="40.4837891" lon="9.7771665"><ele>38.666666666666664</ele><time>2026-03-29T10:37:16.383Z</time></trkpt><trkpt lat="40.4839534" lon="9.777162"><ele>39.333333333333336</ele><time>2026-03-29T10:37:17.384Z</time></trkpt><trkpt lat="40.484115" lon="9.7771475"><ele>40.0</ele><time>2026-03-29T10:37:18.399Z</time></trkpt><trkpt lat="40.4842747" lon="9.7770825"><ele>40.0</ele><time>2026-03-29T10:37:19.39Z</time></trkpt><trkpt lat="40.4844336" lon="9.7769791"><ele>40.0</ele><time>2026-03-29T10:37:20.385Z</time></trkpt><trkpt lat="40.4846004" lon="9.7768598"><ele>40.0</ele><time>2026-03-29T10:37:21.388Z</time></trkpt><trkpt lat="40.4847698" lon="9.7767562"><ele>39.333333333333336</ele><time>2026-03-29T10:37:22.388Z</time></trkpt><trkpt lat="40.4849456" lon="9.7766859"><ele>38.666666666666664</ele><time>2026-03-29T10:37:23.388Z</time></trkpt><trkpt lat="40.4851322" lon="9.7766494"><ele>38.0</ele><time>2026-03-29T10:37:24.398Z</time></trkpt><trkpt lat="40.4853272" lon="9.7766254"><ele>38.0</ele><time>2026-03-29T10:37:25.394Z</time></trkpt><trkpt lat="40.4855343" lon="9.7766063"><ele>38.0</ele><time>2026-03-29T10:37:26.389Z</time></trkpt><trkpt lat="40.4857472" lon="9.7765876"><ele>38.0</ele><time>2026-03-29T10:37:27.389Z</time></trkpt><trkpt lat="40.4859654" lon="9.7765668"><ele>38.0</ele><time>2026-03-29T10:37:28.386Z</time></trkpt><trkpt lat="40.4861843" lon="9.7765436"><ele>38.0</ele><time>2026-03-29T10:37:29.387Z</time></trkpt><trkpt lat="40.4864033" lon="9.7765207"><ele>38.0</ele><time>2026-03-29T10:37:30.39Z</time></trkpt><trkpt lat="40.4866229" lon="9.7764991"><ele>38.0</ele><time>2026-03-29T10:37:31.385Z</time></trkpt><trkpt lat="40.4868444" lon="9.7764778"><ele>38.0</ele><time>2026-03-29T10:37:32.388Z</time></trkpt><trkpt lat="40.4870645" lon="9.7764578"><ele>38.0</ele><time>2026-03-29T10:37:33.389Z</time></trkpt><trkpt lat="40.4872762" lon="9.7764455"><ele>38.33333333333333</ele><time>2026-03-29T10:37:34.403Z</time></trkpt><trkpt lat="40.4874824" lon="9.7764357"><ele>38.666666666666664</ele><time>2026-03-29T10:37:35.389Z</time></trkpt><trkpt lat="40.487679" lon="9.7764359"><ele>39.0</ele><time>2026-03-29T10:37:36.391Z</time></trkpt><trkpt lat="40.4878718" lon="9.7764367"><ele>40.0</ele><time>2026-03-29T10:37:37.391Z</time></trkpt><trkpt lat="40.488066" lon="9.7764339"><ele>41.0</ele><time>2026-03-29T10:37:38.386Z</time></trkpt><trkpt lat="40.4882555" lon="9.7764295"><ele>42.0</ele><time>2026-03-29T10:37:39.385Z</time></trkpt><trkpt lat="40.4884455" lon="9.7764265"><ele>42.0</ele><time>2026-03-29T10:37:40.383Z</time></trkpt><trkpt lat="40.4886318" lon="9.7764237"><ele>42.0</ele><time>2026-03-29T10:37:41.389Z</time></trkpt><trkpt lat="40.4888178" lon="9.7764226"><ele>42.0</ele><time>2026-03-29T10:37:42.389Z</time></trkpt><trkpt lat="40.4890026" lon="9.7764196"><ele>43.0</ele><time>2026-03-29T10:37:43.388Z</time></trkpt><trkpt lat="40.4891858" lon="9.7764186"><ele>44.0</ele><time>2026-03-29T10:37:44.388Z</time></trkpt><trkpt lat="40.4893703" lon="9.7764236"><ele>45.0</ele><time>2026-03-29T10:37:45.389Z</time></trkpt><trkpt lat="40.4895579" lon="9.776439"><ele>46.0</ele><time>2026-03-29T10:37:46.395Z</time></trkpt><trkpt lat="40.489746" lon="9.7764638"><ele>47.0</ele><time>2026-03-29T10:37:47.385Z</time></trkpt><trkpt lat="40.4899319" lon="9.7764931"><ele>48.0</ele><time>2026-03-29T10:37:48.386Z</time></trkpt><trkpt lat="40.4901139" lon="9.7765217"><ele>48.0</ele><time>2026-03-29T10:37:49.391Z</time></trkpt><trkpt lat="40.4902984" lon="9.7765503"><ele>48.0</ele><time>2026-03-29T10:37:50.391Z</time></trkpt><trkpt lat="40.4904937" lon="9.7765683"><ele>48.0</ele><time>2026-03-29T10:37:51.387Z</time></trkpt><trkpt lat="40.4906824" lon="9.7765998"><ele>47.0</ele><time>2026-03-29T10:37:52.391Z</time></trkpt><trkpt lat="40.490872" lon="9.7766285"><ele>46.0</ele><time>2026-03-29T10:37:53.39Z</time></trkpt><trkpt lat="40.4910632" lon="9.7766597"><ele>45.0</ele><time>2026-03-29T10:37:54.391Z</time></trkpt><trkpt lat="40.4912432" lon="9.776687"><ele>43.666666666666664</ele><time>2026-03-29T10:37:55.387Z</time></trkpt><trkpt lat="40.491419" lon="9.7767153"><ele>42.33333333333333</ele><time>2026-03-29T10:37:56.388Z</time></trkpt><trkpt lat="40.4915901" lon="9.7767372"><ele>41.0</ele><time>2026-03-29T10:37:57.387Z</time></trkpt><trkpt lat="40.4917601" lon="9.7767606"><ele>41.0</ele><time>2026-03-29T10:37:58.383Z</time></trkpt><trkpt lat="40.4919326" lon="9.7767859"><ele>41.0</ele><time>2026-03-29T10:37:59.389Z</time></trkpt><trkpt lat="40.4921093" lon="9.7768113"><ele>41.0</ele><time>2026-03-29T10:38:00.392Z</time></trkpt><trkpt lat="40.4922902" lon="9.776836"><ele>41.33333333333333</ele><time>2026-03-29T10:38:01.384Z</time></trkpt><trkpt lat="40.4924746" lon="9.776861"><ele>41.666666666666664</ele><time>2026-03-29T10:38:02.387Z</time></trkpt><trkpt lat="40.4926616" lon="9.7768866"><ele>42.0</ele><time>2026-03-29T10:38:03.387Z</time></trkpt><trkpt lat="40.4928466" lon="9.7769102"><ele>41.333333333333336</ele><time>2026-03-29T10:38:04.386Z</time></trkpt><trkpt lat="40.4930302" lon="9.7769341"><ele>40.66666666666667</ele><time>2026-03-29T10:38:05.385Z</time></trkpt><trkpt lat="40.4932052" lon="9.7769565"><ele>40.0</ele><time>2026-03-29T10:38:06.382Z</time></trkpt><trkpt lat="40.4933752" lon="9.7769779"><ele>40.0</ele><time>2026-03-29T10:38:07.38Z</time></trkpt><trkpt lat="40.4935436" lon="9.777002"><ele>40.0</ele><time>2026-03-29T10:38:08.386Z</time></trkpt><trkpt lat="40.4937105" lon="9.7770285"><ele>40.0</ele><time>2026-03-29T10:38:09.383Z</time></trkpt><trkpt lat="40.4938755" lon="9.7770621"><ele>38.333333333333336</ele><time>2026-03-29T10:38:10.387Z</time></trkpt><trkpt lat="40.4940393" lon="9.7771043"><ele>36.666666666666664</ele><time>2026-03-29T10:38:11.383Z</time></trkpt><trkpt lat="40.4942091" lon="9.7771512"><ele>35.0</ele><time>2026-03-29T10:38:12.382Z</time></trkpt><trkpt lat="40.4943782" lon="9.7772003"><ele>35.0</ele><time>2026-03-29T10:38:13.385Z</time></trkpt><trkpt lat="40.4945444" lon="9.7772496"><ele>35.0</ele><time>2026-03-29T10:38:14.379Z</time></trkpt><trkpt lat="40.4947111" lon="9.7772973"><ele>35.0</ele><time>2026-03-29T10:38:15.389Z</time></trkpt><trkpt lat="40.4948802" lon="9.777351"><ele>33.666666666666664</ele><time>2026-03-29T10:38:16.386Z</time></trkpt><trkpt lat="40.495049" lon="9.7774251"><ele>32.333333333333336</ele><time>2026-03-29T10:38:17.386Z</time></trkpt><trkpt lat="40.4952176" lon="9.7775275"><ele>31.0</ele><time>2026-03-29T10:38:18.386Z</time></trkpt><trkpt lat="40.4953863" lon="9.777648"><ele>31.0</ele><time>2026-03-29T10:38:19.383Z</time></trkpt><trkpt lat="40.4955564" lon="9.7777771"><ele>31.0</ele><time>2026-03-29T10:38:20.389Z</time></trkpt><trkpt lat="40.4957281" lon="9.777909"><ele>31.0</ele><time>2026-03-29T10:38:21.38Z</time></trkpt><trkpt lat="40.4958975" lon="9.7780383"><ele>31.0</ele><time>2026-03-29T10:38:22.387Z</time></trkpt><trkpt lat="40.4960635" lon="9.7781667"><ele>31.0</ele><time>2026-03-29T10:38:23.386Z</time></trkpt><trkpt lat="40.4962311" lon="9.7782944"><ele>31.0</ele><time>2026-03-29T10:38:24.385Z</time></trkpt><trkpt lat="40.4963926" lon="9.7784226"><ele>29.0</ele><time>2026-03-29T10:38:25.384Z</time></trkpt><trkpt lat="40.4965532" lon="9.7785481"><ele>27.0</ele><time>2026-03-29T10:38:26.383Z</time></trkpt><trkpt lat="40.4967126" lon="9.7786658"><ele>25.0</ele><time>2026-03-29T10:38:27.398Z</time></trkpt><trkpt lat="40.4968737" lon="9.7787703"><ele>25.0</ele><time>2026-03-29T10:38:28.386Z</time></trkpt><trkpt lat="40.4970475" lon="9.7788579"><ele>25.0</ele><time>2026-03-29T10:38:29.378Z</time></trkpt><trkpt lat="40.4972344" lon="9.7789294"><ele>25.0</ele><time>2026-03-29T10:38:30.379Z</time></trkpt><trkpt lat="40.49743" lon="9.7789981"><ele>24.666666666666668</ele><time>2026-03-29T10:38:31.383Z</time></trkpt><trkpt lat="40.497628" lon="9.7790779"><ele>24.333333333333336</ele><time>2026-03-29T10:38:32.379Z</time></trkpt><trkpt lat="40.4978268" lon="9.7791839"><ele>24.0</ele><time>2026-03-29T10:38:33.382Z</time></trkpt><trkpt lat="40.4980269" lon="9.7793099"><ele>23.333333333333332</ele><time>2026-03-29T10:38:34.382Z</time></trkpt><trkpt lat="40.4982261" lon="9.7794452"><ele>22.666666666666664</ele><time>2026-03-29T10:38:35.381Z</time></trkpt><trkpt lat="40.4984191" lon="9.7795808"><ele>22.0</ele><time>2026-03-29T10:38:36.384Z</time></trkpt><trkpt lat="40.4986039" lon="9.7797128"><ele>21.333333333333332</ele><time>2026-03-29T10:38:37.383Z</time></trkpt><trkpt lat="40.4987889" lon="9.7798459"><ele>20.666666666666668</ele><time>2026-03-29T10:38:38.379Z</time></trkpt><trkpt lat="40.4989752" lon="9.7799818"><ele>20.0</ele><time>2026-03-29T10:38:39.402Z</time></trkpt><trkpt lat="40.4991583" lon="9.7801153"><ele>19.333333333333336</ele><time>2026-03-29T10:38:40.384Z</time></trkpt><trkpt lat="40.4993266" lon="9.7802401"><ele>18.666666666666668</ele><time>2026-03-29T10:38:41.382Z</time></trkpt><trkpt lat="40.4994797" lon="9.7803636"><ele>18.0</ele><time>2026-03-29T10:38:42.383Z</time></trkpt><trkpt lat="40.4996171" lon="9.7804886"><ele>18.0</ele><time>2026-03-29T10:38:43.38Z</time></trkpt><trkpt lat="40.4997363" lon="9.7806099"><ele>18.0</ele><time>2026-03-29T10:38:44.395Z</time></trkpt><trkpt lat="40.4998428" lon="9.7807221"><ele>18.0</ele><time>2026-03-29T10:38:45.386Z</time></trkpt><trkpt lat="40.4999386" lon="9.7808321"><ele>18.0</ele><time>2026-03-29T10:38:46.384Z</time></trkpt><trkpt lat="40.5000277" lon="9.7809375"><ele>18.4</ele><time>2026-03-29T10:38:47.386Z</time></trkpt><trkpt lat="40.5001022" lon="9.7810387"><ele>18.8</ele><time>2026-03-29T10:38:48.391Z</time></trkpt><trkpt lat="40.5001558" lon="9.78116"><ele>19.2</ele><time>2026-03-29T10:38:49.389Z</time></trkpt><trkpt lat="40.5001858" lon="9.7812827"><ele>19.6</ele><time>2026-03-29T10:38:50.39Z</time></trkpt><trkpt lat="40.5001968" lon="9.7814047"><ele>20.0</ele><time>2026-03-29T10:38:51.382Z</time></trkpt><trkpt lat="40.5001972" lon="9.7815045"><ele>20.0</ele><time>2026-03-29T10:38:52.389Z</time></trkpt><trkpt lat="40.5001737" lon="9.7816558"><ele>20.0</ele><time>2026-03-29T10:38:54.386Z</time></trkpt><trkpt lat="40.5001599" lon="9.7817413"><ele>20.0</ele><time>2026-03-29T10:38:55.387Z</time></trkpt><trkpt lat="40.5001457" lon="9.781848"><ele>20.0</ele><time>2026-03-29T10:38:56.385Z</time></trkpt><trkpt lat="40.5001302" lon="9.7819723"><ele>20.0</ele><time>2026-03-29T10:38:57.386Z</time></trkpt><trkpt lat="40.5001187" lon="9.7821048"><ele>19.5</ele><time>2026-03-29T10:38:58.405Z</time></trkpt><trkpt lat="40.5001114" lon="9.7822253"><ele>19.0</ele><time>2026-03-29T10:38:59.387Z</time></trkpt><trkpt lat="40.5001045" lon="9.7823237"><ele>18.5</ele><time>2026-03-29T10:39:00.384Z</time></trkpt><trkpt lat="40.5000899" lon="9.7824181"><ele>18.0</ele><time>2026-03-29T10:39:01.389Z</time></trkpt><trkpt lat="40.5000735" lon="9.7825106"><ele>17.5</ele><time>2026-03-29T10:39:02.384Z</time></trkpt><trkpt lat="40.5000609" lon="9.7826183"><ele>17.0</ele><time>2026-03-29T10:39:03.404Z</time></trkpt><trkpt lat="40.5000534" lon="9.7827267"><ele>16.833333333333336</ele><time>2026-03-29T10:39:04.379Z</time></trkpt><trkpt lat="40.5000481" lon="9.7828342"><ele>16.666666666666668</ele><time>2026-03-29T10:39:05.385Z</time></trkpt><trkpt lat="40.5000416" lon="9.7829417"><ele>16.5</ele><time>2026-03-29T10:39:06.383Z</time></trkpt><trkpt lat="40.5000364" lon="9.7830503"><ele>16.333333333333332</ele><time>2026-03-29T10:39:07.387Z</time></trkpt><trkpt lat="40.5000279" lon="9.7831593"><ele>16.166666666666664</ele><time>2026-03-29T10:39:08.391Z</time></trkpt><trkpt lat="40.5000211" lon="9.7832681"><ele>16.0</ele><time>2026-03-29T10:39:09.384Z</time></trkpt><trkpt lat="40.5000149" lon="9.7833792"><ele>15.999999999999998</ele><time>2026-03-29T10:39:10.387Z</time></trkpt><trkpt lat="40.5000096" lon="9.7834907"><ele>16.0</ele><time>2026-03-29T10:39:11.386Z</time></trkpt><trkpt lat="40.5000029" lon="9.7835994"><ele>16.0</ele><time>2026-03-29T10:39:12.386Z</time></trkpt><trkpt lat="40.4999943" lon="9.7837112"><ele>16.0</ele><time>2026-03-29T10:39:13.385Z</time></trkpt><trkpt lat="40.4999864" lon="9.7838265"><ele>15.999999999999998</ele><time>2026-03-29T10:39:14.39Z</time></trkpt><trkpt lat="40.4999795" lon="9.7839417"><ele>16.0</ele><time>2026-03-29T10:39:15.388Z</time></trkpt><trkpt lat="40.4999723" lon="9.784057"><ele>16.5</ele><time>2026-03-29T10:39:16.386Z</time></trkpt><trkpt lat="40.4999629" lon="9.7841754"><ele>17.0</ele><time>2026-03-29T10:39:17.382Z</time></trkpt><trkpt lat="40.4999542" lon="9.7842903"><ele>17.5</ele><time>2026-03-29T10:39:18.384Z</time></trkpt><trkpt lat="40.4999444" lon="9.7844031"><ele>18.0</ele><time>2026-03-29T10:39:19.39Z</time></trkpt><trkpt lat="40.4999333" lon="9.7845117"><ele>18.5</ele><time>2026-03-29T10:39:20.383Z</time></trkpt><trkpt lat="40.4999214" lon="9.7846203"><ele>19.0</ele><time>2026-03-29T10:39:21.383Z</time></trkpt><trkpt lat="40.4999076" lon="9.7847347"><ele>19.166666666666664</ele><time>2026-03-29T10:39:22.383Z</time></trkpt><trkpt lat="40.4998933" lon="9.7848517"><ele>19.333333333333332</ele><time>2026-03-29T10:39:23.384Z</time></trkpt><trkpt lat="40.4998811" lon="9.7849682"><ele>19.5</ele><time>2026-03-29T10:39:24.388Z</time></trkpt><trkpt lat="40.4998692" lon="9.7850799"><ele>19.666666666666668</ele><time>2026-03-29T10:39:25.387Z</time></trkpt><trkpt lat="40.4998536" lon="9.7851907"><ele>19.833333333333336</ele><time>2026-03-29T10:39:26.389Z</time></trkpt><trkpt lat="40.4998375" lon="9.7852943"><ele>20.0</ele><time>2026-03-29T10:39:27.387Z</time></trkpt><trkpt lat="40.4998085" lon="9.7854011"><ele>20.0</ele><time>2026-03-29T10:39:28.388Z</time></trkpt><trkpt lat="40.4997843" lon="9.7855169"><ele>20.0</ele><time>2026-03-29T10:39:29.382Z</time></trkpt><trkpt lat="40.4997602" lon="9.785628"><ele>20.0</ele><time>2026-03-29T10:39:30.385Z</time></trkpt><trkpt lat="40.4997389" lon="9.7857328"><ele>20.0</ele><time>2026-03-29T10:39:31.388Z</time></trkpt><trkpt lat="40.4997172" lon="9.7858323"><ele>20.0</ele><time>2026-03-29T10:39:32.386Z</time></trkpt><trkpt lat="40.4996944" lon="9.7859362"><ele>20.0</ele><time>2026-03-29T10:39:33.4Z</time></trkpt><trkpt lat="40.4996717" lon="9.786041"><ele>20.0</ele><time>2026-03-29T10:39:34.388Z</time></trkpt><trkpt lat="40.4996503" lon="9.7861458"><ele>20.0</ele><time>2026-03-29T10:39:35.388Z</time></trkpt><trkpt lat="40.4996279" lon="9.7862598"><ele>20.0</ele><time>2026-03-29T10:39:36.388Z</time></trkpt><trkpt lat="40.4996039" lon="9.7863818"><ele>20.0</ele><time>2026-03-29T10:39:37.388Z</time></trkpt><trkpt lat="40.4995763" lon="9.7865105"><ele>20.0</ele><time>2026-03-29T10:39:38.386Z</time></trkpt><trkpt lat="40.4995442" lon="9.7866461"><ele>20.0</ele><time>2026-03-29T10:39:39.388Z</time></trkpt><trkpt lat="40.499509" lon="9.7867825"><ele>20.0</ele><time>2026-03-29T10:39:40.383Z</time></trkpt><trkpt lat="40.4994747" lon="9.7869226"><ele>20.0</ele><time>2026-03-29T10:39:41.383Z</time></trkpt><trkpt lat="40.4994403" lon="9.7870651"><ele>20.0</ele><time>2026-03-29T10:39:42.388Z</time></trkpt><trkpt lat="40.4994055" lon="9.78721"><ele>20.0</ele><time>2026-03-29T10:39:43.386Z</time></trkpt><trkpt lat="40.4993713" lon="9.7873559"><ele>20.0</ele><time>2026-03-29T10:39:44.388Z</time></trkpt><trkpt lat="40.4993381" lon="9.7875031"><ele>20.0</ele><time>2026-03-29T10:39:45.394Z</time></trkpt><trkpt lat="40.4993056" lon="9.7876494"><ele>20.0</ele><time>2026-03-29T10:39:46.391Z</time></trkpt><trkpt lat="40.4992715" lon="9.7878012"><ele>20.0</ele><time>2026-03-29T10:39:47.387Z</time></trkpt><trkpt lat="40.499238" lon="9.7879567"><ele>20.0</ele><time>2026-03-29T10:39:48.387Z</time></trkpt><trkpt lat="40.4992061" lon="9.788108"><ele>20.0</ele><time>2026-03-29T10:39:49.39Z</time></trkpt><trkpt lat="40.4991728" lon="9.7882578"><ele>20.0</ele><time>2026-03-29T10:39:50.387Z</time></trkpt><trkpt lat="40.4991378" lon="9.78841"><ele>19.5</ele><time>2026-03-29T10:39:51.392Z</time></trkpt><trkpt lat="40.4991036" lon="9.7885658"><ele>19.0</ele><time>2026-03-29T10:39:52.395Z</time></trkpt><trkpt lat="40.4990683" lon="9.7887213"><ele>18.5</ele><time>2026-03-29T10:39:53.405Z</time></trkpt><trkpt lat="40.4990336" lon="9.7888717"><ele>18.0</ele><time>2026-03-29T10:39:54.397Z</time></trkpt><trkpt lat="40.4989997" lon="9.7890229"><ele>18.0</ele><time>2026-03-29T10:39:55.391Z</time></trkpt><trkpt lat="40.4989668" lon="9.7891748"><ele>18.0</ele><time>2026-03-29T10:39:56.391Z</time></trkpt><trkpt lat="40.4989324" lon="9.7893278"><ele>18.0</ele><time>2026-03-29T10:39:57.4Z</time></trkpt><trkpt lat="40.4988989" lon="9.7894808"><ele>18.0</ele><time>2026-03-29T10:39:58.385Z</time></trkpt><trkpt lat="40.4988644" lon="9.7896357"><ele>17.5</ele><time>2026-03-29T10:39:59.407Z</time></trkpt><trkpt lat="40.4988313" lon="9.7897862"><ele>17.0</ele><time>2026-03-29T10:40:00.389Z</time></trkpt><trkpt lat="40.4988052" lon="9.7899339"><ele>16.5</ele><time>2026-03-29T10:40:01.394Z</time></trkpt><trkpt lat="40.4987843" lon="9.7900846"><ele>16.0</ele><time>2026-03-29T10:40:02.387Z</time></trkpt><trkpt lat="40.4987634" lon="9.7902369"><ele>16.25</ele><time>2026-03-29T10:40:03.391Z</time></trkpt><trkpt lat="40.4987393" lon="9.7903843"><ele>16.5</ele><time>2026-03-29T10:40:04.387Z</time></trkpt><trkpt lat="40.4987132" lon="9.7905317"><ele>16.75</ele><time>2026-03-29T10:40:05.388Z</time></trkpt><trkpt lat="40.4986835" lon="9.7906904"><ele>17.0</ele><time>2026-03-29T10:40:06.387Z</time></trkpt><trkpt lat="40.4986525" lon="9.7908541"><ele>15.75</ele><time>2026-03-29T10:40:07.394Z</time></trkpt><trkpt lat="40.498622" lon="9.7910209"><ele>14.5</ele><time>2026-03-29T10:40:08.384Z</time></trkpt><trkpt lat="40.4985932" lon="9.7911855"><ele>13.25</ele><time>2026-03-29T10:40:09.39Z</time></trkpt><trkpt lat="40.498566" lon="9.7913403"><ele>12.0</ele><time>2026-03-29T10:40:10.39Z</time></trkpt><trkpt lat="40.4985356" lon="9.7914913"><ele>12.0</ele><time>2026-03-29T10:40:11.394Z</time></trkpt><trkpt lat="40.4984968" lon="9.7916348"><ele>12.0</ele><time>2026-03-29T10:40:12.4Z</time></trkpt><trkpt lat="40.4984451" lon="9.7917654"><ele>12.0</ele><time>2026-03-29T10:40:13.387Z</time></trkpt><trkpt lat="40.4983776" lon="9.7918884"><ele>12.0</ele><time>2026-03-29T10:40:14.395Z</time></trkpt><trkpt lat="40.4982968" lon="9.7920066"><ele>11.75</ele><time>2026-03-29T10:40:15.394Z</time></trkpt><trkpt lat="40.4982028" lon="9.7921227"><ele>11.5</ele><time>2026-03-29T10:40:16.39Z</time></trkpt><trkpt lat="40.4980979" lon="9.7922393"><ele>11.25</ele><time>2026-03-29T10:40:17.388Z</time></trkpt><trkpt lat="40.497991" lon="9.7923531"><ele>11.0</ele><time>2026-03-29T10:40:18.388Z</time></trkpt><trkpt lat="40.497888" lon="9.7924601"><ele>11.0</ele><time>2026-03-29T10:40:19.383Z</time></trkpt><trkpt lat="40.49779" lon="9.7925568"><ele>11.0</ele><time>2026-03-29T10:40:20.387Z</time></trkpt><trkpt lat="40.4976908" lon="9.7926569"><ele>11.0</ele><time>2026-03-29T10:40:21.393Z</time></trkpt><trkpt lat="40.4975918" lon="9.7927556"><ele>11.0</ele><time>2026-03-29T10:40:22.39Z</time></trkpt><trkpt lat="40.4974865" lon="9.7928679"><ele>10.25</ele><time>2026-03-29T10:40:23.389Z</time></trkpt><trkpt lat="40.4973913" lon="9.7929844"><ele>9.5</ele><time>2026-03-29T10:40:24.39Z</time></trkpt><trkpt lat="40.4973002" lon="9.7931091"><ele>8.75</ele><time>2026-03-29T10:40:25.386Z</time></trkpt><trkpt lat="40.4972042" lon="9.7932335"><ele>8.0</ele><time>2026-03-29T10:40:26.385Z</time></trkpt><trkpt lat="40.4971104" lon="9.7933519"><ele>7.75</ele><time>2026-03-29T10:40:27.391Z</time></trkpt><trkpt lat="40.4970079" lon="9.7934551"><ele>7.5</ele><time>2026-03-29T10:40:28.396Z</time></trkpt><trkpt lat="40.4969112" lon="9.7935465"><ele>7.25</ele><time>2026-03-29T10:40:29.387Z</time></trkpt><trkpt lat="40.4968118" lon="9.7936325"><ele>7.0</ele><time>2026-03-29T10:40:30.387Z</time></trkpt><trkpt lat="40.4967096" lon="9.7937151"><ele>7.0</ele><time>2026-03-29T10:40:31.386Z</time></trkpt><trkpt lat="40.4966277" lon="9.7937738"><ele>6.999999999999999</ele><time>2026-03-29T10:40:32.393Z</time></trkpt><trkpt lat="40.4965571" lon="9.7937947"><ele>6.999999999999999</ele><time>2026-03-29T10:40:33.39Z</time></trkpt><trkpt lat="40.4964854" lon="9.7937969"><ele>7.0</ele><time>2026-03-29T10:40:34.39Z</time></trkpt><trkpt lat="40.4963756" lon="9.7938669"><ele>7.0</ele><time>2026-03-29T10:40:36.391Z</time></trkpt><trkpt lat="40.4962975" lon="9.7939489"><ele>7.0</ele><time>2026-03-29T10:40:37.386Z</time></trkpt><trkpt lat="40.4962103" lon="9.7940389"><ele>6.999999999999999</ele><time>2026-03-29T10:40:38.393Z</time></trkpt><trkpt lat="40.496142" lon="9.7941245"><ele>6.999999999999999</ele><time>2026-03-29T10:40:39.384Z</time></trkpt><trkpt lat="40.4960923" lon="9.7942119"><ele>7.0</ele><time>2026-03-29T10:40:40.39Z</time></trkpt><trkpt lat="40.4960491" lon="9.7943109"><ele>7.0</ele><time>2026-03-29T10:40:41.39Z</time></trkpt><trkpt lat="40.4960074" lon="9.7944006"><ele>7.0</ele><time>2026-03-29T10:40:42.391Z</time></trkpt><trkpt lat="40.4959614" lon="9.7944744"><ele>6.999999999999999</ele><time>2026-03-29T10:40:43.387Z</time></trkpt><trkpt lat="40.4958817" lon="9.7945298"><ele>6.999999999999999</ele><time>2026-03-29T10:40:44.39Z</time></trkpt><trkpt lat="40.4958094" lon="9.7945822"><ele>7.0</ele><time>2026-03-29T10:40:45.388Z</time></trkpt><trkpt lat="40.4957217" lon="9.7946447"><ele>7.0</ele><time>2026-03-29T10:40:46.39Z</time></trkpt><trkpt lat="40.4956332" lon="9.7947311"><ele>7.0</ele><time>2026-03-29T10:40:47.386Z</time></trkpt><trkpt lat="40.4955478" lon="9.7948348"><ele>6.999999999999999</ele><time>2026-03-29T10:40:48.391Z</time></trkpt><trkpt lat="40.4954797" lon="9.7949293"><ele>6.999999999999999</ele><time>2026-03-29T10:40:49.389Z</time></trkpt><trkpt lat="40.4954119" lon="9.7950114"><ele>7.0</ele><time>2026-03-29T10:40:50.393Z</time></trkpt><trkpt lat="40.4953417" lon="9.7950873"><ele>7.0</ele><time>2026-03-29T10:40:51.391Z</time></trkpt><trkpt lat="40.4952746" lon="9.7951588"><ele>7.0</ele><time>2026-03-29T10:40:52.391Z</time></trkpt><trkpt lat="40.4951975" lon="9.7952259"><ele>6.999999999999999</ele><time>2026-03-29T10:40:53.383Z</time></trkpt><trkpt lat="40.495105" lon="9.7952907"><ele>6.999999999999999</ele><time>2026-03-29T10:40:54.385Z</time></trkpt><trkpt lat="40.4949949" lon="9.7953669"><ele>7.0</ele><time>2026-03-29T10:40:55.379Z</time></trkpt><trkpt lat="40.4948949" lon="9.7954322"><ele>7.0</ele><time>2026-03-29T10:40:56.386Z</time></trkpt><trkpt lat="40.4948034" lon="9.795498"><ele>7.0</ele><time>2026-03-29T10:40:57.383Z</time></trkpt><trkpt lat="40.494722" lon="9.795578"><ele>6.999999999999999</ele><time>2026-03-29T10:40:58.388Z</time></trkpt><trkpt lat="40.4946358" lon="9.7956608"><ele>6.999999999999999</ele><time>2026-03-29T10:40:59.398Z</time></trkpt><trkpt lat="40.4945555" lon="9.7957479"><ele>7.0</ele><time>2026-03-29T10:41:00.385Z</time></trkpt><trkpt lat="40.4944709" lon="9.7958387"><ele>7.0</ele><time>2026-03-29T10:41:01.398Z</time></trkpt><trkpt lat="40.4943877" lon="9.7959202"><ele>7.0</ele><time>2026-03-29T10:41:02.384Z</time></trkpt><trkpt lat="40.4943001" lon="9.7959938"><ele>6.999999999999999</ele><time>2026-03-29T10:41:03.391Z</time></trkpt><trkpt lat="40.4942097" lon="9.7960546"><ele>6.999999999999999</ele><time>2026-03-29T10:41:04.394Z</time></trkpt><trkpt lat="40.4941176" lon="9.7961067"><ele>7.0</ele><time>2026-03-29T10:41:05.394Z</time></trkpt><trkpt lat="40.4940167" lon="9.7961628"><ele>7.0</ele><time>2026-03-29T10:41:06.388Z</time></trkpt><trkpt lat="40.4939041" lon="9.7962201"><ele>7.0</ele><time>2026-03-29T10:41:07.391Z</time></trkpt><trkpt lat="40.4937899" lon="9.7962804"><ele>7.0</ele><time>2026-03-29T10:41:08.39Z</time></trkpt><trkpt lat="40.4936688" lon="9.7963413"><ele>7.0</ele><time>2026-03-29T10:41:09.387Z</time></trkpt><trkpt lat="40.4935416" lon="9.7964026"><ele>7.0</ele><time>2026-03-29T10:41:10.385Z</time></trkpt><trkpt lat="40.4934088" lon="9.796462"><ele>8.0</ele><time>2026-03-29T10:41:11.39Z</time></trkpt><trkpt lat="40.4932747" lon="9.7965234"><ele>9.0</ele><time>2026-03-29T10:41:12.39Z</time></trkpt><trkpt lat="40.4931376" lon="9.79659"><ele>10.0</ele><time>2026-03-29T10:41:13.394Z</time></trkpt><trkpt lat="40.4930003" lon="9.7966573"><ele>11.0</ele><time>2026-03-29T10:41:14.382Z</time></trkpt><trkpt lat="40.4928687" lon="9.7967152"><ele>11.25</ele><time>2026-03-29T10:41:15.408Z</time></trkpt><trkpt lat="40.4927402" lon="9.7967662"><ele>11.5</ele><time>2026-03-29T10:41:16.389Z</time></trkpt><trkpt lat="40.4926191" lon="9.7968082"><ele>11.75</ele><time>2026-03-29T10:41:17.389Z</time></trkpt><trkpt lat="40.4924962" lon="9.7968443"><ele>12.0</ele><time>2026-03-29T10:41:18.388Z</time></trkpt><trkpt lat="40.492371" lon="9.7968819"><ele>11.75</ele><time>2026-03-29T10:41:19.389Z</time></trkpt><trkpt lat="40.492252" lon="9.7969205"><ele>11.5</ele><time>2026-03-29T10:41:20.39Z</time></trkpt><trkpt lat="40.4921335" lon="9.7969684"><ele>11.25</ele><time>2026-03-29T10:41:21.391Z</time></trkpt><trkpt lat="40.492023" lon="9.7970212"><ele>11.0</ele><time>2026-03-29T10:41:22.408Z</time></trkpt><trkpt lat="40.491924" lon="9.7970793"><ele>11.0</ele><time>2026-03-29T10:41:23.39Z</time></trkpt><trkpt lat="40.4918308" lon="9.7971549"><ele>11.0</ele><time>2026-03-29T10:41:24.388Z</time></trkpt><trkpt lat="40.4917414" lon="9.7972486"><ele>11.0</ele><time>2026-03-29T10:41:25.391Z</time></trkpt><trkpt lat="40.4916513" lon="9.7973604"><ele>11.0</ele><time>2026-03-29T10:41:26.389Z</time></trkpt><trkpt lat="40.4915605" lon="9.797495"><ele>11.0</ele><time>2026-03-29T10:41:27.393Z</time></trkpt><trkpt lat="40.4914621" lon="9.7976615"><ele>11.0</ele><time>2026-03-29T10:41:28.39Z</time></trkpt><trkpt lat="40.4913562" lon="9.7978518"><ele>11.0</ele><time>2026-03-29T10:41:29.395Z</time></trkpt><trkpt lat="40.4912584" lon="9.7980288"><ele>10.333333333333332</ele><time>2026-03-29T10:41:30.39Z</time></trkpt><trkpt lat="40.4911628" lon="9.7981947"><ele>9.666666666666666</ele><time>2026-03-29T10:41:31.395Z</time></trkpt><trkpt lat="40.4910621" lon="9.7983586"><ele>9.0</ele><time>2026-03-29T10:41:32.39Z</time></trkpt><trkpt lat="40.4909644" lon="9.79851"><ele>8.75</ele><time>2026-03-29T10:41:33.39Z</time></trkpt><trkpt lat="40.4908628" lon="9.7986618"><ele>8.5</ele><time>2026-03-29T10:41:34.387Z</time></trkpt><trkpt lat="40.4907654" lon="9.7987946"><ele>8.25</ele><time>2026-03-29T10:41:35.386Z</time></trkpt><trkpt lat="40.4906736" lon="9.7989268"><ele>8.0</ele><time>2026-03-29T10:41:36.39Z</time></trkpt><trkpt lat="40.4905836" lon="9.7990549"><ele>8.0</ele><time>2026-03-29T10:41:37.391Z</time></trkpt><trkpt lat="40.4904944" lon="9.7991798"><ele>8.0</ele><time>2026-03-29T10:41:38.395Z</time></trkpt><trkpt lat="40.4904006" lon="9.7992906"><ele>8.0</ele><time>2026-03-29T10:41:39.389Z</time></trkpt><trkpt lat="40.4903224" lon="9.7993761"><ele>8.0</ele><time>2026-03-29T10:41:40.387Z</time></trkpt><trkpt lat="40.4902705" lon="9.7994342"><ele>8.0</ele><time>2026-03-29T10:41:41.393Z</time></trkpt><trkpt lat="40.4902124" lon="9.7994935"><ele>7.999999999999999</ele><time>2026-03-29T10:41:43.392Z</time></trkpt><trkpt lat="40.4902078" lon="9.7996058"><ele>8.0</ele><time>2026-03-29T10:41:52.398Z</time></trkpt><trkpt lat="40.4902782" lon="9.7996496"><ele>8.0</ele><time>2026-03-29T10:41:55.394Z</time></trkpt><trkpt lat="40.4903649" lon="9.7996816"><ele>8.0</ele><time>2026-03-29T10:41:57.392Z</time></trkpt><trkpt lat="40.4904235" lon="9.7997173"><ele>7.999999999999999</ele><time>2026-03-29T10:41:58.387Z</time></trkpt><trkpt lat="40.4905417" lon="9.7997711"><ele>8.0</ele><time>2026-03-29T10:42:00.388Z</time></trkpt><trkpt lat="40.4906131" lon="9.7998026"><ele>7.833333333333333</ele><time>2026-03-29T10:42:01.396Z</time></trkpt><trkpt lat="40.4906876" lon="9.7998315"><ele>7.666666666666666</ele><time>2026-03-29T10:42:02.385Z</time></trkpt><trkpt lat="40.4907663" lon="9.7998653"><ele>7.5</ele><time>2026-03-29T10:42:03.383Z</time></trkpt><trkpt lat="40.4908497" lon="9.7998998"><ele>7.333333333333334</ele><time>2026-03-29T10:42:04.387Z</time></trkpt><trkpt lat="40.4909257" lon="9.7999294"><ele>7.166666666666667</ele><time>2026-03-29T10:42:05.392Z</time></trkpt><trkpt lat="40.4909964" lon="9.7999642"><ele>7.0</ele><time>2026-03-29T10:42:06.389Z</time></trkpt><trkpt lat="40.4910665" lon="9.8000094"><ele>7.0</ele><time>2026-03-29T10:42:07.388Z</time></trkpt><trkpt lat="40.4911416" lon="9.80006"><ele>6.999999999999999</ele><time>2026-03-29T10:42:08.389Z</time></trkpt><trkpt lat="40.4912151" lon="9.800098"><ele>6.999999999999999</ele><time>2026-03-29T10:42:09.389Z</time></trkpt><trkpt lat="40.4912814" lon="9.8001147"><ele>7.0</ele><time>2026-03-29T10:42:10.395Z</time></trkpt><trkpt lat="40.4913884" lon="9.8001349"><ele>7.0</ele><time>2026-03-29T10:42:12.395Z</time></trkpt><trkpt lat="40.4914969" lon="9.8001815"><ele>6.6</ele><time>2026-03-29T10:42:14.389Z</time></trkpt><trkpt lat="40.4915969" lon="9.8001958"><ele>6.199999999999999</ele><time>2026-03-29T10:42:16.383Z</time></trkpt><trkpt lat="40.4916731" lon="9.8001888"><ele>5.8</ele><time>2026-03-29T10:42:17.393Z</time></trkpt><trkpt lat="40.4917478" lon="9.8001818"><ele>5.4</ele><time>2026-03-29T10:42:18.391Z</time></trkpt><trkpt lat="40.4918744" lon="9.8001847"><ele>5.0</ele><time>2026-03-29T10:42:20.393Z</time></trkpt><trkpt lat="40.4919804" lon="9.8001692"><ele>5.4</ele><time>2026-03-29T10:42:22.388Z</time></trkpt><trkpt lat="40.4921036" lon="9.8001506"><ele>5.8</ele><time>2026-03-29T10:42:24.394Z</time></trkpt><trkpt lat="40.4922159" lon="9.8001349"><ele>6.199999999999999</ele><time>2026-03-29T10:42:26.39Z</time></trkpt><trkpt lat="40.4923135" lon="9.8000536"><ele>6.6</ele><time>2026-03-29T10:42:28.388Z</time></trkpt><trkpt lat="40.4923619" lon="9.7999951"><ele>7.0</ele><time>2026-03-29T10:42:29.385Z</time></trkpt><trkpt lat="40.4924293" lon="9.7998963"><ele>7.0</ele><time>2026-03-29T10:42:31.385Z</time></trkpt><trkpt lat="40.4925705" lon="9.7998124"><ele>6.999999999999999</ele><time>2026-03-29T10:42:46.389Z</time></trkpt><trkpt lat="40.4926174" lon="9.7998691"><ele>6.999999999999999</ele><time>2026-03-29T10:42:49.385Z</time></trkpt><trkpt lat="40.4926763" lon="9.799963"><ele>7.0</ele><time>2026-03-29T10:42:52.39Z</time></trkpt><trkpt lat="40.4927242" lon="9.8000726"><ele>7.0</ele><time>2026-03-29T10:42:54.388Z</time></trkpt><trkpt lat="40.4927568" lon="9.8002039"><ele>7.166666666666667</ele><time>2026-03-29T10:42:56.382Z</time></trkpt><trkpt lat="40.492745" lon="9.8003395"><ele>7.333333333333334</ele><time>2026-03-29T10:42:58.394Z</time></trkpt><trkpt lat="40.4926865" lon="9.8004144"><ele>7.5</ele><time>2026-03-29T10:43:00.389Z</time></trkpt><trkpt lat="40.4926148" lon="9.8004661"><ele>7.666666666666666</ele><time>2026-03-29T10:43:01.396Z</time></trkpt><trkpt lat="40.4925399" lon="9.8005036"><ele>7.833333333333333</ele><time>2026-03-29T10:43:02.384Z</time></trkpt><trkpt lat="40.4924566" lon="9.8005432"><ele>8.0</ele><time>2026-03-29T10:43:03.394Z</time></trkpt><trkpt lat="40.4923893" lon="9.8005925"><ele>7.999999999999999</ele><time>2026-03-29T10:43:04.385Z</time></trkpt><trkpt lat="40.4923266" lon="9.8006552"><ele>8.0</ele><time>2026-03-29T10:43:05.395Z</time></trkpt><trkpt lat="40.4922665" lon="9.800719"><ele>8.0</ele><time>2026-03-29T10:43:06.383Z</time></trkpt><trkpt lat="40.4922068" lon="9.800775"><ele>8.0</ele><time>2026-03-29T10:43:07.388Z</time></trkpt><trkpt lat="40.4921444" lon="9.8008152"><ele>7.999999999999999</ele><time>2026-03-29T10:43:08.389Z</time></trkpt><trkpt lat="40.4920759" lon="9.8008531"><ele>8.0</ele><time>2026-03-29T10:43:09.389Z</time></trkpt><trkpt lat="40.4920028" lon="9.8008852"><ele>8.333333333333332</ele><time>2026-03-29T10:43:10.385Z</time></trkpt><trkpt lat="40.4919275" lon="9.8009112"><ele>8.666666666666666</ele><time>2026-03-29T10:43:11.378Z</time></trkpt><trkpt lat="40.4918554" lon="9.8009434"><ele>9.0</ele><time>2026-03-29T10:43:12.385Z</time></trkpt><trkpt lat="40.4917833" lon="9.8009812"><ele>9.333333333333334</ele><time>2026-03-29T10:43:13.384Z</time></trkpt><trkpt lat="40.4917099" lon="9.8010182"><ele>9.666666666666668</ele><time>2026-03-29T10:43:14.383Z</time></trkpt><trkpt lat="40.4916011" lon="9.8010841"><ele>10.0</ele><time>2026-03-29T10:43:16.396Z</time></trkpt><trkpt lat="40.4915475" lon="9.8011389"><ele>10.0</ele><time>2026-03-29T10:43:17.387Z</time></trkpt><trkpt lat="40.4914951" lon="9.8012023"><ele>10.0</ele><time>2026-03-29T10:43:18.386Z</time></trkpt><trkpt lat="40.4914424" lon="9.8012871"><ele>10.0</ele><time>2026-03-29T10:43:19.388Z</time></trkpt><trkpt lat="40.4913743" lon="9.8013777"><ele>10.0</ele><time>2026-03-29T10:43:20.387Z</time></trkpt><trkpt lat="40.491302" lon="9.8014714"><ele>10.0</ele><time>2026-03-29T10:43:21.388Z</time></trkpt><trkpt lat="40.4912338" lon="9.801563"><ele>9.5</ele><time>2026-03-29T10:43:22.388Z</time></trkpt><trkpt lat="40.4911716" lon="9.8016489"><ele>9.0</ele><time>2026-03-29T10:43:23.386Z</time></trkpt><trkpt lat="40.4911181" lon="9.8017283"><ele>8.5</ele><time>2026-03-29T10:43:24.386Z</time></trkpt><trkpt lat="40.4910617" lon="9.8018012"><ele>8.0</ele><time>2026-03-29T10:43:25.39Z</time></trkpt><trkpt lat="40.4909988" lon="9.801864"><ele>7.500000000000001</ele><time>2026-03-29T10:43:26.384Z</time></trkpt><trkpt lat="40.4909391" lon="9.8019252"><ele>7.0</ele><time>2026-03-29T10:43:27.386Z</time></trkpt><trkpt lat="40.4908759" lon="9.8019858"><ele>8.333333333333334</ele><time>2026-03-29T10:43:28.384Z</time></trkpt><trkpt lat="40.4908264" lon="9.8020568"><ele>9.666666666666668</ele><time>2026-03-29T10:43:29.385Z</time></trkpt><trkpt lat="40.4907593" lon="9.8021231"><ele>11.0</ele><time>2026-03-29T10:43:30.389Z</time></trkpt><trkpt lat="40.4906969" lon="9.8021762"><ele>12.333333333333334</ele><time>2026-03-29T10:43:31.387Z</time></trkpt><trkpt lat="40.4906343" lon="9.8022225"><ele>13.666666666666666</ele><time>2026-03-29T10:43:32.392Z</time></trkpt><trkpt lat="40.4905716" lon="9.8022547"><ele>15.0</ele><time>2026-03-29T10:43:33.386Z</time></trkpt><trkpt lat="40.4904519" lon="9.8023331"><ele>13.666666666666666</ele><time>2026-03-29T10:43:35.383Z</time></trkpt><trkpt lat="40.4903857" lon="9.8024067"><ele>12.333333333333334</ele><time>2026-03-29T10:43:36.386Z</time></trkpt><trkpt lat="40.4903227" lon="9.8024746"><ele>11.0</ele><time>2026-03-29T10:43:37.387Z</time></trkpt><trkpt lat="40.4902613" lon="9.8025449"><ele>9.666666666666668</ele><time>2026-03-29T10:43:38.379Z</time></trkpt><trkpt lat="40.4902012" lon="9.802619"><ele>8.333333333333334</ele><time>2026-03-29T10:43:39.387Z</time></trkpt><trkpt lat="40.4901415" lon="9.8026981"><ele>7.0</ele><time>2026-03-29T10:43:40.385Z</time></trkpt><trkpt lat="40.4900696" lon="9.8027913"><ele>7.0</ele><time>2026-03-29T10:43:41.387Z</time></trkpt><trkpt lat="40.4899983" lon="9.8028941"><ele>7.0</ele><time>2026-03-29T10:43:42.382Z</time></trkpt><trkpt lat="40.4899311" lon="9.8030013"><ele>7.0</ele><time>2026-03-29T10:43:43.382Z</time></trkpt><trkpt lat="40.4898523" lon="9.8031205"><ele>7.0</ele><time>2026-03-29T10:43:44.391Z</time></trkpt><trkpt lat="40.4897582" lon="9.8032514"><ele>7.0</ele><time>2026-03-29T10:43:45.384Z</time></trkpt><trkpt lat="40.4896692" lon="9.803373"><ele>7.0</ele><time>2026-03-29T10:43:46.389Z</time></trkpt><trkpt lat="40.48957" lon="9.8034923"><ele>7.0</ele><time>2026-03-29T10:43:47.391Z</time></trkpt><trkpt lat="40.4894746" lon="9.803599"><ele>7.0</ele><time>2026-03-29T10:43:48.392Z</time></trkpt><trkpt lat="40.4893759" lon="9.8036932"><ele>6.6</ele><time>2026-03-29T10:43:49.388Z</time></trkpt><trkpt lat="40.489283" lon="9.8037734"><ele>6.199999999999999</ele><time>2026-03-29T10:43:50.387Z</time></trkpt><trkpt lat="40.4892017" lon="9.8038472"><ele>5.8</ele><time>2026-03-29T10:43:51.387Z</time></trkpt><trkpt lat="40.4891232" lon="9.8039195"><ele>5.4</ele><time>2026-03-29T10:43:52.39Z</time></trkpt><trkpt lat="40.4890489" lon="9.8039848"><ele>5.0</ele><time>2026-03-29T10:43:53.387Z</time></trkpt><trkpt lat="40.4889832" lon="9.804047"><ele>5.0</ele><time>2026-03-29T10:43:54.392Z</time></trkpt><trkpt lat="40.4889261" lon="9.8041121"><ele>5.0</ele><time>2026-03-29T10:43:55.383Z</time></trkpt><trkpt lat="40.4888639" lon="9.8041859"><ele>5.0</ele><time>2026-03-29T10:43:56.388Z</time></trkpt><trkpt lat="40.48879" lon="9.8042656"><ele>5.0</ele><time>2026-03-29T10:43:57.389Z</time></trkpt><trkpt lat="40.4887021" lon="9.804358"><ele>5.0</ele><time>2026-03-29T10:43:58.386Z</time></trkpt><trkpt lat="40.4886128" lon="9.8044526"><ele>4.666666666666667</ele><time>2026-03-29T10:43:59.391Z</time></trkpt><trkpt lat="40.4885303" lon="9.8045427"><ele>4.333333333333334</ele><time>2026-03-29T10:44:00.388Z</time></trkpt><trkpt lat="40.4884606" lon="9.8046152"><ele>4.0</ele><time>2026-03-29T10:44:01.384Z</time></trkpt><trkpt lat="40.4883901" lon="9.8046714"><ele>3.666666666666667</ele><time>2026-03-29T10:44:02.389Z</time></trkpt><trkpt lat="40.48832" lon="9.8047267"><ele>3.3333333333333335</ele><time>2026-03-29T10:44:03.389Z</time></trkpt><trkpt lat="40.4882488" lon="9.8047866"><ele>3.0</ele><time>2026-03-29T10:44:04.385Z</time></trkpt><trkpt lat="40.4881977" lon="9.8048434"><ele>3.0</ele><time>2026-03-29T10:44:05.391Z</time></trkpt><trkpt lat="40.4881354" lon="9.8049737"><ele>3.0</ele><time>2026-03-29T10:44:07.391Z</time></trkpt><trkpt lat="40.4880929" lon="9.8050492"><ele>3.0</ele><time>2026-03-29T10:44:08.389Z</time></trkpt><trkpt lat="40.4880376" lon="9.8051754"><ele>3.0</ele><time>2026-03-29T10:44:10.387Z</time></trkpt><trkpt lat="40.4880225" lon="9.8052869"><ele>3.0</ele><time>2026-03-29T10:44:12.39Z</time></trkpt><trkpt lat="40.4880219" lon="9.8054222"><ele>3.5999999999999996</ele><time>2026-03-29T10:44:14.387Z</time></trkpt><trkpt lat="40.488023" lon="9.8055807"><ele>4.199999999999999</ele><time>2026-03-29T10:44:16.386Z</time></trkpt><trkpt lat="40.4880262" lon="9.8056694"><ele>4.8</ele><time>2026-03-29T10:44:17.384Z</time></trkpt><trkpt lat="40.4880296" lon="9.8057662"><ele>5.3999999999999995</ele><time>2026-03-29T10:44:18.387Z</time></trkpt><trkpt lat="40.4880308" lon="9.8059251"><ele>6.0</ele><time>2026-03-29T10:44:20.396Z</time></trkpt><trkpt lat="40.4880317" lon="9.8060559"><ele>7.8</ele><time>2026-03-29T10:44:22.388Z</time></trkpt><trkpt lat="40.4881193" lon="9.8060983"><ele>9.6</ele><time>2026-03-29T10:44:25.39Z</time></trkpt><trkpt lat="40.4881977" lon="9.8061164"><ele>11.4</ele><time>2026-03-29T10:44:27.39Z</time></trkpt><trkpt lat="40.4882078" lon="9.8062051"><ele>13.2</ele><time>2026-03-29T10:44:29.388Z</time></trkpt><trkpt lat="40.488183" lon="9.8063652"><ele>15.0</ele><time>2026-03-29T10:44:31.395Z</time></trkpt><trkpt lat="40.4881536" lon="9.806471"><ele>15.0</ele><time>2026-03-29T10:44:32.391Z</time></trkpt><trkpt lat="40.4881118" lon="9.8065845"><ele>15.0</ele><time>2026-03-29T10:44:33.396Z</time></trkpt><trkpt lat="40.4880643" lon="9.806701"><ele>15.0</ele><time>2026-03-29T10:44:34.397Z</time></trkpt><trkpt lat="40.4880061" lon="9.8068199"><ele>15.0</ele><time>2026-03-29T10:44:35.397Z</time></trkpt><trkpt lat="40.4879405" lon="9.806936"><ele>15.0</ele><time>2026-03-29T10:44:36.39Z</time></trkpt><trkpt lat="40.4878776" lon="9.8070385"><ele>14.2</ele><time>2026-03-29T10:44:37.39Z</time></trkpt><trkpt lat="40.487815" lon="9.8071272"><ele>13.4</ele><time>2026-03-29T10:44:38.388Z</time></trkpt><trkpt lat="40.4877526" lon="9.8072118"><ele>12.600000000000001</ele><time>2026-03-29T10:44:39.388Z</time></trkpt><trkpt lat="40.4876809" lon="9.8072974"><ele>11.8</ele><time>2026-03-29T10:44:40.389Z</time></trkpt><trkpt lat="40.4875764" lon="9.8073607"><ele>11.0</ele><time>2026-03-29T10:44:41.388Z</time></trkpt><trkpt lat="40.4874791" lon="9.8074303"><ele>11.0</ele><time>2026-03-29T10:44:42.388Z</time></trkpt><trkpt lat="40.4874084" lon="9.8074973"><ele>11.0</ele><time>2026-03-29T10:44:43.386Z</time></trkpt><trkpt lat="40.4873513" lon="9.8075954"><ele>11.0</ele><time>2026-03-29T10:44:44.386Z</time></trkpt><trkpt lat="40.4872868" lon="9.8076834"><ele>11.0</ele><time>2026-03-29T10:44:45.393Z</time></trkpt><trkpt lat="40.487204" lon="9.8077556"><ele>11.0</ele><time>2026-03-29T10:44:46.384Z</time></trkpt><trkpt lat="40.4871105" lon="9.807835"><ele>10.0</ele><time>2026-03-29T10:44:47.394Z</time></trkpt><trkpt lat="40.4870125" lon="9.8079022"><ele>9.0</ele><time>2026-03-29T10:44:48.387Z</time></trkpt><trkpt lat="40.4869249" lon="9.8079929"><ele>8.0</ele><time>2026-03-29T10:44:49.4Z</time></trkpt><trkpt lat="40.4868333" lon="9.8080935"><ele>7.0</ele><time>2026-03-29T10:44:50.391Z</time></trkpt><trkpt lat="40.4867477" lon="9.8081952"><ele>7.000000000000001</ele><time>2026-03-29T10:44:51.389Z</time></trkpt><trkpt lat="40.4866666" lon="9.8082877"><ele>7.0</ele><time>2026-03-29T10:44:52.382Z</time></trkpt><trkpt lat="40.4865907" lon="9.8083669"><ele>7.0</ele><time>2026-03-29T10:44:53.391Z</time></trkpt><trkpt lat="40.4865165" lon="9.8084439"><ele>7.0</ele><time>2026-03-29T10:44:54.39Z</time></trkpt><trkpt lat="40.486463" lon="9.8085133"><ele>7.000000000000001</ele><time>2026-03-29T10:44:55.389Z</time></trkpt><trkpt lat="40.4864135" lon="9.8085859"><ele>7.0</ele><time>2026-03-29T10:44:56.391Z</time></trkpt><trkpt lat="40.4863754" lon="9.808671"><ele>6.833333333333334</ele><time>2026-03-29T10:44:57.392Z</time></trkpt><trkpt lat="40.4863456" lon="9.8087521"><ele>6.666666666666667</ele><time>2026-03-29T10:44:58.384Z</time></trkpt><trkpt lat="40.4863238" lon="9.8088385"><ele>6.5</ele><time>2026-03-29T10:44:59.382Z</time></trkpt><trkpt lat="40.4863022" lon="9.8089387"><ele>6.333333333333334</ele><time>2026-03-29T10:45:00.386Z</time></trkpt><trkpt lat="40.4862791" lon="9.8090511"><ele>6.166666666666667</ele><time>2026-03-29T10:45:01.387Z</time></trkpt><trkpt lat="40.4862507" lon="9.8091781"><ele>6.0</ele><time>2026-03-29T10:45:02.394Z</time></trkpt><trkpt lat="40.4862205" lon="9.8093037"><ele>5.8</ele><time>2026-03-29T10:45:03.388Z</time></trkpt><trkpt lat="40.486186" lon="9.8094238"><ele>5.6</ele><time>2026-03-29T10:45:04.39Z</time></trkpt><trkpt lat="40.4861451" lon="9.8095435"><ele>5.4</ele><time>2026-03-29T10:45:05.386Z</time></trkpt><trkpt lat="40.486105" lon="9.8096622"><ele>5.2</ele><time>2026-03-29T10:45:06.382Z</time></trkpt><trkpt lat="40.4860639" lon="9.809774"><ele>5.0</ele><time>2026-03-29T10:45:07.386Z</time></trkpt><trkpt lat="40.4860123" lon="9.8098818"><ele>5.0</ele><time>2026-03-29T10:45:08.385Z</time></trkpt><trkpt lat="40.4859558" lon="9.8099889"><ele>5.0</ele><time>2026-03-29T10:45:09.388Z</time></trkpt><trkpt lat="40.4859033" lon="9.8100968"><ele>5.0</ele><time>2026-03-29T10:45:10.396Z</time></trkpt><trkpt lat="40.4858577" lon="9.8101998"><ele>5.0</ele><time>2026-03-29T10:45:11.386Z</time></trkpt><trkpt lat="40.4858223" lon="9.8102999"><ele>5.0</ele><time>2026-03-29T10:45:12.39Z</time></trkpt><trkpt lat="40.4858003" lon="9.810397"><ele>5.0</ele><time>2026-03-29T10:45:13.387Z</time></trkpt><trkpt lat="40.4857958" lon="9.8104903"><ele>4.833333333333334</ele><time>2026-03-29T10:45:14.39Z</time></trkpt><trkpt lat="40.4857928" lon="9.8105779"><ele>4.666666666666667</ele><time>2026-03-29T10:45:15.385Z</time></trkpt><trkpt lat="40.4858093" lon="9.8106772"><ele>4.5</ele><time>2026-03-29T10:45:16.386Z</time></trkpt><trkpt lat="40.4858324" lon="9.8107922"><ele>4.333333333333333</ele><time>2026-03-29T10:45:17.39Z</time></trkpt><trkpt lat="40.4858648" lon="9.8109194"><ele>4.166666666666666</ele><time>2026-03-29T10:45:18.388Z</time></trkpt><trkpt lat="40.4859009" lon="9.811058"><ele>4.0</ele><time>2026-03-29T10:45:19.397Z</time></trkpt><trkpt lat="40.4859279" lon="9.8112042"><ele>3.4999999999999996</ele><time>2026-03-29T10:45:20.384Z</time></trkpt><trkpt lat="40.4859519" lon="9.8113336"><ele>3.0</ele><time>2026-03-29T10:45:21.386Z</time></trkpt><trkpt lat="40.4859726" lon="9.8114511"><ele>2.5</ele><time>2026-03-29T10:45:22.39Z</time></trkpt><trkpt lat="40.4859873" lon="9.811558"><ele>2.0</ele><time>2026-03-29T10:45:23.386Z</time></trkpt><trkpt lat="40.486002" lon="9.8116515"><ele>1.5</ele><time>2026-03-29T10:45:24.387Z</time></trkpt><trkpt lat="40.4860201" lon="9.8117336"><ele>1.0</ele><time>2026-03-29T10:45:25.391Z</time></trkpt><trkpt lat="40.4860426" lon="9.8118149"><ele>0.8333333333333333</ele><time>2026-03-29T10:45:26.388Z</time></trkpt><trkpt lat="40.4860695" lon="9.8118997"><ele>0.6666666666666666</ele><time>2026-03-29T10:45:27.393Z</time></trkpt><trkpt lat="40.4860913" lon="9.8119923"><ele>0.5</ele><time>2026-03-29T10:45:28.388Z</time></trkpt><trkpt lat="40.4861007" lon="9.8120942"><ele>0.3333333333333333</ele><time>2026-03-29T10:45:29.384Z</time></trkpt><trkpt lat="40.486109" lon="9.8121984"><ele>0.16666666666666666</ele><time>2026-03-29T10:45:30.39Z</time></trkpt><trkpt lat="40.4861039" lon="9.8123129"><ele>0.0</ele><time>2026-03-29T10:45:31.381Z</time></trkpt><trkpt lat="40.4861091" lon="9.8124355"><ele>0.0</ele><time>2026-03-29T10:45:32.391Z</time></trkpt><trkpt lat="40.4861192" lon="9.8125453"><ele>0.0</ele><time>2026-03-29T10:45:33.383Z</time></trkpt><trkpt lat="40.4861243" lon="9.8126366"><ele>0.0</ele><time>2026-03-29T10:45:34.384Z</time></trkpt><trkpt lat="40.4861286" lon="9.812768"><ele>0.0</ele><time>2026-03-29T10:45:36.388Z</time></trkpt><trkpt lat="40.4861629" lon="9.8128775"><ele>0.0</ele><time>2026-03-29T10:45:38.388Z</time></trkpt><trkpt lat="40.4861908" lon="9.8129671"><ele>0.0</ele><time>2026-03-29T10:45:39.391Z</time></trkpt><trkpt lat="40.4862067" lon="9.8131223"><ele>0.25</ele><time>2026-03-29T10:45:40.385Z</time></trkpt><trkpt lat="40.4862147" lon="9.8133089"><ele>0.5</ele><time>2026-03-29T10:45:41.383Z</time></trkpt><trkpt lat="40.4862219" lon="9.8134748"><ele>0.75</ele><time>2026-03-29T10:45:42.389Z</time></trkpt><trkpt lat="40.4862205" lon="9.8135859"><ele>1.0</ele><time>2026-03-29T10:45:43.388Z</time></trkpt><trkpt lat="40.4861753" lon="9.8137243"><ele>0.9999999999999999</ele><time>2026-03-29T10:45:45.39Z</time></trkpt><trkpt lat="40.4861225" lon="9.8138003"><ele>1.0</ele><time>2026-03-29T10:45:46.388Z</time></trkpt><trkpt lat="40.4860721" lon="9.8138809"><ele>1.0</ele><time>2026-03-29T10:45:47.381Z</time></trkpt><trkpt lat="40.486042" lon="9.8140059"><ele>1.0</ele><time>2026-03-29T10:45:49.386Z</time></trkpt><trkpt lat="40.486087" lon="9.8140787"><ele>0.9999999999999999</ele><time>2026-03-29T10:45:51.389Z</time></trkpt><trkpt lat="40.4861926" lon="9.8141421"><ele>1.0</ele><time>2026-03-29T10:45:53.386Z</time></trkpt><trkpt lat="40.4862524" lon="9.814182"><ele>1.1666666666666665</ele><time>2026-03-29T10:45:54.388Z</time></trkpt><trkpt lat="40.4863272" lon="9.814237"><ele>1.3333333333333333</ele><time>2026-03-29T10:45:56.384Z</time></trkpt><trkpt lat="40.4863904" lon="9.8142904"><ele>1.5</ele><time>2026-03-29T10:45:59.391Z</time></trkpt><trkpt lat="40.4864389" lon="9.8143698"><ele>1.6666666666666665</ele><time>2026-03-29T10:46:01.391Z</time></trkpt><trkpt lat="40.4864971" lon="9.8144529"><ele>1.8333333333333333</ele><time>2026-03-29T10:46:03.386Z</time></trkpt><trkpt lat="40.4865543" lon="9.8145164"><ele>2.0</ele><time>2026-03-29T10:46:05.39Z</time></trkpt><trkpt lat="40.486629" lon="9.8145466"><ele>2.0</ele><time>2026-03-29T10:46:07.391Z</time></trkpt><trkpt lat="40.4866973" lon="9.8145598"><ele>1.9999999999999998</ele><time>2026-03-29T10:46:09.386Z</time></trkpt><trkpt lat="40.4867584" lon="9.8145934"><ele>2.0</ele><time>2026-03-29T10:46:12.395Z</time></trkpt><trkpt lat="40.4867962" lon="9.8146602"><ele>2.0</ele><time>2026-03-29T10:46:18.393Z</time></trkpt><trkpt lat="40.4868259" lon="9.814765"><ele>1.9999999999999998</ele><time>2026-03-29T10:46:22.388Z</time></trkpt><trkpt lat="40.4868993" lon="9.8148381"><ele>2.0</ele><time>2026-03-29T10:46:25.394Z</time></trkpt><trkpt lat="40.4869631" lon="9.814876"><ele>2.0</ele><time>2026-03-29T10:46:27.391Z</time></trkpt><trkpt lat="40.4870746" lon="9.814928"><ele>1.9999999999999998</ele><time>2026-03-29T10:46:29.388Z</time></trkpt><trkpt lat="40.487142" lon="9.8149711"><ele>2.0</ele><time>2026-03-29T10:46:30.389Z</time></trkpt><trkpt lat="40.4872129" lon="9.8150272"><ele>2.0</ele><time>2026-03-29T10:46:31.383Z</time></trkpt><trkpt lat="40.4872844" lon="9.8150936"><ele>2.0</ele><time>2026-03-29T10:46:32.382Z</time></trkpt><trkpt lat="40.4873503" lon="9.8151663"><ele>1.9999999999999998</ele><time>2026-03-29T10:46:33.389Z</time></trkpt><trkpt lat="40.4874157" lon="9.8152503"><ele>2.0</ele><time>2026-03-29T10:46:34.388Z</time></trkpt><trkpt lat="40.4874876" lon="9.8153464"><ele>2.0</ele><time>2026-03-29T10:46:35.389Z</time></trkpt><trkpt lat="40.4875671" lon="9.8154398"><ele>2.0</ele><time>2026-03-29T10:46:36.388Z</time></trkpt><trkpt lat="40.4876489" lon="9.8155251"><ele>2.0</ele><time>2026-03-29T10:46:37.389Z</time></trkpt><trkpt lat="40.4877316" lon="9.8156087"><ele>2.0</ele><time>2026-03-29T10:46:38.389Z</time></trkpt><trkpt lat="40.487815" lon="9.8156893"><ele>2.0</ele><time>2026-03-29T10:46:39.389Z</time></trkpt><trkpt lat="40.4878976" lon="9.815753"><ele>1.9999999999999998</ele><time>2026-03-29T10:46:40.388Z</time></trkpt><trkpt lat="40.4879772" lon="9.8158019"><ele>2.0</ele><time>2026-03-29T10:46:41.388Z</time></trkpt><trkpt lat="40.4880572" lon="9.815842"><ele>2.0</ele><time>2026-03-29T10:46:42.388Z</time></trkpt><trkpt lat="40.4881367" lon="9.8158804"><ele>2.0</ele><time>2026-03-29T10:46:43.386Z</time></trkpt><trkpt lat="40.4882086" lon="9.8159164"><ele>1.9999999999999998</ele><time>2026-03-29T10:46:44.388Z</time></trkpt><trkpt lat="40.488277" lon="9.8159859"><ele>2.0</ele><time>2026-03-29T10:46:46.385Z</time></trkpt><trkpt lat="40.4883285" lon="9.8160541"><ele>1.8333333333333333</ele><time>2026-03-29T10:46:49.386Z</time></trkpt><trkpt lat="40.4883831" lon="9.8161157"><ele>1.6666666666666665</ele><time>2026-03-29T10:46:52.385Z</time></trkpt><trkpt lat="40.4884305" lon="9.8161878"><ele>1.5</ele><time>2026-03-29T10:47:24.388Z</time></trkpt><trkpt lat="40.4885007" lon="9.8162104"><ele>1.3333333333333333</ele><time>2026-03-29T10:47:27.396Z</time></trkpt><trkpt lat="40.4885788" lon="9.8162322"><ele>1.1666666666666665</ele><time>2026-03-29T10:47:30.384Z</time></trkpt><trkpt lat="40.4886545" lon="9.8161909"><ele>1.0</ele><time>2026-03-29T11:21:11.399Z</time></trkpt><trkpt lat="40.4887178" lon="9.8161462"><ele>1.3333333333333333</ele><time>2026-03-29T11:21:14.399Z</time></trkpt><trkpt lat="40.4887789" lon="9.8161116"><ele>1.6666666666666665</ele><time>2026-03-29T11:21:17.397Z</time></trkpt><trkpt lat="40.488839" lon="9.8160836"><ele>2.0</ele><time>2026-03-29T11:21:24.402Z</time></trkpt><trkpt lat="40.4889226" lon="9.8160572"><ele>2.3333333333333335</ele><time>2026-03-29T11:21:36.396Z</time></trkpt><trkpt lat="40.4889997" lon="9.8160675"><ele>2.6666666666666665</ele><time>2026-03-29T11:21:39.391Z</time></trkpt><trkpt lat="40.4890782" lon="9.8161046"><ele>3.0</ele><time>2026-03-29T11:21:42.388Z</time></trkpt><trkpt lat="40.4891806" lon="9.8161662"><ele>2.9999999999999996</ele><time>2026-03-29T11:21:44.391Z</time></trkpt><trkpt lat="40.4892476" lon="9.8161899"><ele>3.0</ele><time>2026-03-29T11:21:45.39Z</time></trkpt><trkpt lat="40.4893246" lon="9.8162132"><ele>3.0</ele><time>2026-03-29T11:21:46.396Z</time></trkpt><trkpt lat="40.4894017" lon="9.8162358"><ele>3.0</ele><time>2026-03-29T11:21:47.4Z</time></trkpt><trkpt lat="40.4894736" lon="9.8162608"><ele>3.0</ele><time>2026-03-29T11:21:48.399Z</time></trkpt><trkpt lat="40.4895391" lon="9.8162979"><ele>2.9999999999999996</ele><time>2026-03-29T11:21:49.391Z</time></trkpt><trkpt lat="40.489598" lon="9.8163434"><ele>3.0</ele><time>2026-03-29T11:21:50.394Z</time></trkpt><trkpt lat="40.4896922" lon="9.8164227"><ele>2.6</ele><time>2026-03-29T11:21:52.39Z</time></trkpt><trkpt lat="40.4897771" lon="9.8164418"><ele>2.1999999999999997</ele><time>2026-03-29T11:21:54.396Z</time></trkpt><trkpt lat="40.4898925" lon="9.8164043"><ele>1.8</ele><time>2026-03-29T11:21:56.395Z</time></trkpt><trkpt lat="40.4899719" lon="9.8163779"><ele>1.4</ele><time>2026-03-29T11:21:57.396Z</time></trkpt><trkpt lat="40.4900554" lon="9.8163455"><ele>1.0</ele><time>2026-03-29T11:21:58.388Z</time></trkpt><trkpt lat="40.4901372" lon="9.8163176"><ele>0.9999999999999999</ele><time>2026-03-29T11:21:59.394Z</time></trkpt><trkpt lat="40.4902213" lon="9.816298"><ele>1.0</ele><time>2026-03-29T11:22:00.39Z</time></trkpt><trkpt lat="40.4903031" lon="9.8162813"><ele>1.0</ele><time>2026-03-29T11:22:01.392Z</time></trkpt><trkpt lat="40.4903842" lon="9.81627"><ele>1.0</ele><time>2026-03-29T11:22:02.391Z</time></trkpt><trkpt lat="40.4904615" lon="9.8162726"><ele>0.9999999999999999</ele><time>2026-03-29T11:22:03.392Z</time></trkpt><trkpt lat="40.490533" lon="9.816284"><ele>1.0</ele><time>2026-03-29T11:22:04.39Z</time></trkpt><trkpt lat="40.4906466" lon="9.8163324"><ele>0.9999999999999999</ele><time>2026-03-29T11:22:06.396Z</time></trkpt><trkpt lat="40.4907349" lon="9.8163865"><ele>1.0</ele><time>2026-03-29T11:22:08.394Z</time></trkpt><trkpt lat="40.4908155" lon="9.8164209"><ele>1.0</ele><time>2026-03-29T11:22:10.389Z</time></trkpt><trkpt lat="40.4908789" lon="9.81647"><ele>1.0</ele><time>2026-03-29T11:22:12.389Z</time></trkpt><trkpt lat="40.4909473" lon="9.8165242"><ele>0.9999999999999999</ele><time>2026-03-29T11:22:15.39Z</time></trkpt><trkpt lat="40.491002" lon="9.8164624"><ele>1.0</ele><time>2026-03-29T11:22:18.389Z</time></trkpt><trkpt lat="40.4910365" lon="9.8163786"><ele>1.0</ele><time>2026-03-29T11:22:21.387Z</time></trkpt><trkpt lat="40.4910613" lon="9.8162816"><ele>0.9999999999999999</ele><time>2026-03-29T11:22:24.393Z</time></trkpt><trkpt lat="40.4910737" lon="9.8161956"><ele>1.0</ele><time>2026-03-29T11:22:26.397Z</time></trkpt><trkpt lat="40.4911158" lon="9.8161251"><ele>1.0</ele><time>2026-03-29T11:22:28.392Z</time></trkpt><trkpt lat="40.4911902" lon="9.8160777"><ele>0.9999999999999999</ele><time>2026-03-29T11:22:30.391Z</time></trkpt><trkpt lat="40.4912549" lon="9.8160565"><ele>1.0</ele><time>2026-03-29T11:22:32.387Z</time></trkpt><trkpt lat="40.4913253" lon="9.8160213"><ele>1.0</ele><time>2026-03-29T11:22:35.397Z</time></trkpt><trkpt lat="40.4913806" lon="9.8159375"><ele>1.3333333333333333</ele><time>2026-03-29T11:22:38.392Z</time></trkpt><trkpt lat="40.4914109" lon="9.8158529"><ele>1.6666666666666665</ele><time>2026-03-29T11:22:40.391Z</time></trkpt><trkpt lat="40.4914949" lon="9.8158483"><ele>2.0</ele><time>2026-03-29T11:22:42.394Z</time></trkpt><trkpt lat="40.4915658" lon="9.8158678"><ele>2.3333333333333335</ele><time>2026-03-29T11:22:43.386Z</time></trkpt><trkpt lat="40.491657" lon="9.8158876"><ele>2.6666666666666665</ele><time>2026-03-29T11:22:44.394Z</time></trkpt><trkpt lat="40.4917542" lon="9.8159236"><ele>3.0</ele><time>2026-03-29T11:22:45.388Z</time></trkpt><trkpt lat="40.4918485" lon="9.8159625"><ele>2.8</ele><time>2026-03-29T11:22:46.391Z</time></trkpt><trkpt lat="40.491938" lon="9.8160187"><ele>2.5999999999999996</ele><time>2026-03-29T11:22:47.395Z</time></trkpt><trkpt lat="40.4920167" lon="9.8160994"><ele>2.4000000000000004</ele><time>2026-03-29T11:22:48.387Z</time></trkpt><trkpt lat="40.4920838" lon="9.8161719"><ele>2.2</ele><time>2026-03-29T11:22:49.391Z</time></trkpt><trkpt lat="40.4921398" lon="9.8162315"><ele>2.0</ele><time>2026-03-29T11:22:50.386Z</time></trkpt><trkpt lat="40.4922307" lon="9.816321"><ele>1.9999999999999998</ele><time>2026-03-29T11:22:52.39Z</time></trkpt><trkpt lat="40.4923126" lon="9.8164068"><ele>2.0</ele><time>2026-03-29T11:22:54.395Z</time></trkpt><trkpt lat="40.4923703" lon="9.8164638"><ele>2.0</ele><time>2026-03-29T11:22:56.388Z</time></trkpt><trkpt lat="40.4924245" lon="9.8165188"><ele>2.0</ele><time>2026-03-29T11:23:00.398Z</time></trkpt><trkpt lat="40.4924818" lon="9.8165886"><ele>1.9999999999999998</ele><time>2026-03-29T11:26:09.394Z</time></trkpt><trkpt lat="40.4924973" lon="9.8166821"><ele>2.0</ele><time>2026-03-29T11:26:13.391Z</time></trkpt><trkpt lat="40.4924634" lon="9.8167528"><ele>2.0</ele><time>2026-03-29T11:26:15.399Z</time></trkpt><trkpt lat="40.4924848" lon="9.8168494"><ele>1.9999999999999998</ele><time>2026-03-29T11:26:18.393Z</time></trkpt><trkpt lat="40.4925461" lon="9.8169103"><ele>2.0</ele><time>2026-03-29T11:26:21.392Z</time></trkpt><trkpt lat="40.4926162" lon="9.8169211"><ele>2.0</ele><time>2026-03-29T11:26:24.396Z</time></trkpt><trkpt lat="40.4926847" lon="9.8168701"><ele>1.9999999999999998</ele><time>2026-03-29T11:26:28.394Z</time></trkpt><trkpt lat="40.4927486" lon="9.816816"><ele>2.0</ele><time>2026-03-29T11:26:32.393Z</time></trkpt><trkpt lat="40.4928154" lon="9.8168271"><ele>2.0</ele><time>2026-03-29T11:26:35.394Z</time></trkpt><trkpt lat="40.4928958" lon="9.8169389"><ele>2.2</ele><time>2026-03-29T11:30:20.391Z</time></trkpt><trkpt lat="40.4929346" lon="9.8170116"><ele>2.4000000000000004</ele><time>2026-03-29T11:30:25.394Z</time></trkpt><trkpt lat="40.4930052" lon="9.8171207"><ele>2.5999999999999996</ele><time>2026-03-29T11:30:32.399Z</time></trkpt><trkpt lat="40.4930862" lon="9.8172212"><ele>2.8</ele><time>2026-03-29T11:30:34.403Z</time></trkpt><trkpt lat="40.4931542" lon="9.8173195"><ele>3.0</ele><time>2026-03-29T11:30:36.393Z</time></trkpt><trkpt lat="40.4932201" lon="9.8174289"><ele>3.0</ele><time>2026-03-29T11:30:38.394Z</time></trkpt><trkpt lat="40.4933041" lon="9.8175486"><ele>3.0</ele><time>2026-03-29T11:30:40.39Z</time></trkpt><trkpt lat="40.4933524" lon="9.8176151"><ele>3.0</ele><time>2026-03-29T11:30:41.393Z</time></trkpt><trkpt lat="40.4934072" lon="9.8176926"><ele>3.0</ele><time>2026-03-29T11:30:42.397Z</time></trkpt><trkpt lat="40.4934624" lon="9.8177705"><ele>3.0</ele><time>2026-03-29T11:30:43.392Z</time></trkpt><trkpt lat="40.4935176" lon="9.8178462"><ele>3.0</ele><time>2026-03-29T11:30:44.399Z</time></trkpt><trkpt lat="40.4935766" lon="9.8179166"><ele>3.0</ele><time>2026-03-29T11:30:45.399Z</time></trkpt><trkpt lat="40.4936355" lon="9.817989"><ele>3.0</ele><time>2026-03-29T11:30:46.398Z</time></trkpt><trkpt lat="40.4936937" lon="9.8180606"><ele>3.0</ele><time>2026-03-29T11:30:47.39Z</time></trkpt><trkpt lat="40.4937462" lon="9.8181276"><ele>3.0</ele><time>2026-03-29T11:30:48.393Z</time></trkpt><trkpt lat="40.4938074" lon="9.8181948"><ele>3.0</ele><time>2026-03-29T11:30:49.39Z</time></trkpt><trkpt lat="40.493878" lon="9.8182667"><ele>3.0</ele><time>2026-03-29T11:30:50.394Z</time></trkpt><trkpt lat="40.4939551" lon="9.8183263"><ele>3.0</ele><time>2026-03-29T11:30:51.387Z</time></trkpt><trkpt lat="40.4940383" lon="9.8183761"><ele>3.0</ele><time>2026-03-29T11:30:52.396Z</time></trkpt><trkpt lat="40.4941285" lon="9.8184251"><ele>3.0</ele><time>2026-03-29T11:30:53.394Z</time></trkpt><trkpt lat="40.494218" lon="9.8184784"><ele>3.0</ele><time>2026-03-29T11:30:54.397Z</time></trkpt><trkpt lat="40.4943075" lon="9.8185271"><ele>3.0</ele><time>2026-03-29T11:30:55.4Z</time></trkpt><trkpt lat="40.4943918" lon="9.8185741"><ele>3.0</ele><time>2026-03-29T11:30:56.395Z</time></trkpt><trkpt lat="40.4944634" lon="9.818616"><ele>3.0</ele><time>2026-03-29T11:30:57.405Z</time></trkpt><trkpt lat="40.4945263" lon="9.8186538"><ele>3.0</ele><time>2026-03-29T11:30:58.39Z</time></trkpt><trkpt lat="40.4946094" lon="9.8187186"><ele>3.0</ele><time>2026-03-29T11:31:00.387Z</time></trkpt><trkpt lat="40.4946649" lon="9.8187639"><ele>3.0</ele><time>2026-03-29T11:31:02.394Z</time></trkpt><trkpt lat="40.4947522" lon="9.8187494"><ele>3.0</ele><time>2026-03-29T11:31:04.392Z</time></trkpt><trkpt lat="40.4948774" lon="9.8187301"><ele>3.3333333333333335</ele><time>2026-03-29T11:31:06.401Z</time></trkpt><trkpt lat="40.4949629" lon="9.8187299"><ele>3.666666666666667</ele><time>2026-03-29T11:31:07.387Z</time></trkpt><trkpt lat="40.4950575" lon="9.8187331"><ele>4.0</ele><time>2026-03-29T11:31:08.389Z</time></trkpt><trkpt lat="40.4951466" lon="9.8187386"><ele>4.333333333333334</ele><time>2026-03-29T11:31:09.392Z</time></trkpt><trkpt lat="40.4952268" lon="9.8187474"><ele>4.666666666666667</ele><time>2026-03-29T11:31:10.39Z</time></trkpt><trkpt lat="40.4953135" lon="9.8187539"><ele>5.0</ele><time>2026-03-29T11:31:11.411Z</time></trkpt><trkpt lat="40.4954028" lon="9.8187608"><ele>5.166666666666667</ele><time>2026-03-29T11:31:12.391Z</time></trkpt><trkpt lat="40.49549" lon="9.8187685"><ele>5.333333333333334</ele><time>2026-03-29T11:31:13.392Z</time></trkpt><trkpt lat="40.4955656" lon="9.8187744"><ele>5.5</ele><time>2026-03-29T11:31:14.391Z</time></trkpt><trkpt lat="40.4956398" lon="9.818778"><ele>5.666666666666667</ele><time>2026-03-29T11:31:15.391Z</time></trkpt><trkpt lat="40.4957142" lon="9.8187817"><ele>5.833333333333333</ele><time>2026-03-29T11:31:16.387Z</time></trkpt><trkpt lat="40.4957891" lon="9.8187841"><ele>6.0</ele><time>2026-03-29T11:31:17.43Z</time></trkpt><trkpt lat="40.4958718" lon="9.8187831"><ele>6.0</ele><time>2026-03-29T11:31:18.39Z</time></trkpt><trkpt lat="40.4959596" lon="9.8187843"><ele>6.0</ele><time>2026-03-29T11:31:19.398Z</time></trkpt><trkpt lat="40.4960453" lon="9.8187868"><ele>6.0</ele><time>2026-03-29T11:31:20.391Z</time></trkpt><trkpt lat="40.4961373" lon="9.8187858"><ele>6.0</ele><time>2026-03-29T11:31:21.395Z</time></trkpt><trkpt lat="40.4962231" lon="9.818789"><ele>6.0</ele><time>2026-03-29T11:31:22.386Z</time></trkpt><trkpt lat="40.4963043" lon="9.8187912"><ele>6.0</ele><time>2026-03-29T11:31:23.393Z</time></trkpt><trkpt lat="40.496383" lon="9.8187942"><ele>5.666666666666667</ele><time>2026-03-29T11:31:24.394Z</time></trkpt><trkpt lat="40.4964657" lon="9.8187921"><ele>5.333333333333333</ele><time>2026-03-29T11:31:25.393Z</time></trkpt><trkpt lat="40.4965353" lon="9.8187947"><ele>5.0</ele><time>2026-03-29T11:31:26.398Z</time></trkpt><trkpt lat="40.4966007" lon="9.8187972"><ele>4.666666666666666</ele><time>2026-03-29T11:31:27.392Z</time></trkpt><trkpt lat="40.4966828" lon="9.8187978"><ele>4.333333333333333</ele><time>2026-03-29T11:31:29.398Z</time></trkpt><trkpt lat="40.4967841" lon="9.8188019"><ele>4.0</ele><time>2026-03-29T11:31:32.392Z</time></trkpt><trkpt lat="40.4968497" lon="9.8188056"><ele>4.0</ele><time>2026-03-29T11:31:35.398Z</time></trkpt><trkpt lat="40.4969293" lon="9.8188625"><ele>4.0</ele><time>2026-03-29T11:31:38.39Z</time></trkpt><trkpt lat="40.4970142" lon="9.8188786"><ele>4.0</ele><time>2026-03-29T11:31:40.394Z</time></trkpt><trkpt lat="40.497126" lon="9.8189071"><ele>4.0</ele><time>2026-03-29T11:31:42.387Z</time></trkpt><trkpt lat="40.4972214" lon="9.8189377"><ele>4.0</ele><time>2026-03-29T11:31:44.388Z</time></trkpt><trkpt lat="40.4972888" lon="9.8189505"><ele>4.333333333333333</ele><time>2026-03-29T11:31:48.393Z</time></trkpt><trkpt lat="40.4973859" lon="9.818972"><ele>4.666666666666666</ele><time>2026-03-29T11:31:51.395Z</time></trkpt><trkpt lat="40.4974896" lon="9.8190154"><ele>5.0</ele><time>2026-03-29T11:31:53.396Z</time></trkpt><trkpt lat="40.4975512" lon="9.8190403"><ele>5.333333333333333</ele><time>2026-03-29T11:31:54.392Z</time></trkpt><trkpt lat="40.4976315" lon="9.819065"><ele>5.666666666666667</ele><time>2026-03-29T11:31:55.394Z</time></trkpt><trkpt lat="40.4977054" lon="9.8190872"><ele>6.0</ele><time>2026-03-29T11:31:56.395Z</time></trkpt><trkpt lat="40.4977789" lon="9.819115"><ele>6.0</ele><time>2026-03-29T11:31:57.394Z</time></trkpt><trkpt lat="40.4978569" lon="9.8191349"><ele>6.0</ele><time>2026-03-29T11:31:58.392Z</time></trkpt><trkpt lat="40.49794" lon="9.8191416"><ele>6.0</ele><time>2026-03-29T11:31:59.407Z</time></trkpt><trkpt lat="40.4980419" lon="9.8191419"><ele>6.0</ele><time>2026-03-29T11:32:00.395Z</time></trkpt><trkpt lat="40.4981443" lon="9.8191525"><ele>6.0</ele><time>2026-03-29T11:32:01.4Z</time></trkpt><trkpt lat="40.4982512" lon="9.8191766"><ele>6.0</ele><time>2026-03-29T11:32:02.399Z</time></trkpt><trkpt lat="40.4983526" lon="9.8192066"><ele>6.0</ele><time>2026-03-29T11:32:03.396Z</time></trkpt><trkpt lat="40.4984588" lon="9.8192358"><ele>6.0</ele><time>2026-03-29T11:32:04.456Z</time></trkpt><trkpt lat="40.4985514" lon="9.8192537"><ele>6.0</ele><time>2026-03-29T11:32:05.391Z</time></trkpt><trkpt lat="40.4986388" lon="9.8192681"><ele>6.0</ele><time>2026-03-29T11:32:06.391Z</time></trkpt><trkpt lat="40.4987076" lon="9.8192776"><ele>6.0</ele><time>2026-03-29T11:32:07.389Z</time></trkpt><trkpt lat="40.4988" lon="9.819285"><ele>6.0</ele><time>2026-03-29T11:32:09.399Z</time></trkpt><trkpt lat="40.4988792" lon="9.8192849"><ele>6.0</ele><time>2026-03-29T11:32:11.407Z</time></trkpt><trkpt lat="40.4989769" lon="9.819263"><ele>6.0</ele><time>2026-03-29T11:32:13.392Z</time></trkpt><trkpt lat="40.4990804" lon="9.8191843"><ele>6.0</ele><time>2026-03-29T11:32:15.39Z</time></trkpt><trkpt lat="40.4992008" lon="9.8191368"><ele>6.0</ele><time>2026-03-29T11:32:17.39Z</time></trkpt><trkpt lat="40.4993176" lon="9.8190853"><ele>6.0</ele><time>2026-03-29T11:32:19.395Z</time></trkpt><trkpt lat="40.4994181" lon="9.8189827"><ele>6.0</ele><time>2026-03-29T11:32:21.39Z</time></trkpt><trkpt lat="40.4994876" lon="9.8189059"><ele>6.0</ele><time>2026-03-29T11:32:23.397Z</time></trkpt><trkpt lat="40.4995636" lon="9.8188852"><ele>6.0</ele><time>2026-03-29T11:32:25.399Z</time></trkpt><trkpt lat="40.4996282" lon="9.8189195"><ele>6.166666666666667</ele><time>2026-03-29T11:32:27.394Z</time></trkpt><trkpt lat="40.4996811" lon="9.8189926"><ele>6.333333333333334</ele><time>2026-03-29T11:32:29.397Z</time></trkpt><trkpt lat="40.4997334" lon="9.8191137"><ele>6.5</ele><time>2026-03-29T11:32:31.394Z</time></trkpt><trkpt lat="40.4997601" lon="9.819189"><ele>6.666666666666667</ele><time>2026-03-29T11:32:32.391Z</time></trkpt><trkpt lat="40.4997937" lon="9.8192685"><ele>6.833333333333334</ele><time>2026-03-29T11:32:33.391Z</time></trkpt><trkpt lat="40.4998474" lon="9.8193419"><ele>7.0</ele><time>2026-03-29T11:32:34.395Z</time></trkpt><trkpt lat="40.4999096" lon="9.819393"><ele>6.3999999999999995</ele><time>2026-03-29T11:32:35.401Z</time></trkpt><trkpt lat="40.4999678" lon="9.819448"><ele>5.799999999999999</ele><time>2026-03-29T11:32:36.398Z</time></trkpt><trkpt lat="40.5000373" lon="9.8195032"><ele>5.2</ele><time>2026-03-29T11:32:37.415Z</time></trkpt><trkpt lat="40.5001249" lon="9.8195562"><ele>4.6</ele><time>2026-03-29T11:32:38.394Z</time></trkpt><trkpt lat="40.5002213" lon="9.8196105"><ele>4.0</ele><time>2026-03-29T11:32:39.395Z</time></trkpt><trkpt lat="40.5003165" lon="9.8196599"><ele>4.0</ele><time>2026-03-29T11:32:40.392Z</time></trkpt><trkpt lat="40.5004076" lon="9.8196921"><ele>4.0</ele><time>2026-03-29T11:32:41.389Z</time></trkpt><trkpt lat="40.5005063" lon="9.8197165"><ele>4.0</ele><time>2026-03-29T11:32:42.395Z</time></trkpt><trkpt lat="40.5006113" lon="9.8197442"><ele>4.0</ele><time>2026-03-29T11:32:43.398Z</time></trkpt><trkpt lat="40.5007182" lon="9.8197632"><ele>4.0</ele><time>2026-03-29T11:32:44.393Z</time></trkpt><trkpt lat="40.5008292" lon="9.8197843"><ele>5.0</ele><time>2026-03-29T11:32:45.387Z</time></trkpt><trkpt lat="40.5009403" lon="9.8198069"><ele>6.0</ele><time>2026-03-29T11:32:46.424Z</time></trkpt><trkpt lat="40.5010503" lon="9.8198264"><ele>7.0</ele><time>2026-03-29T11:32:47.395Z</time></trkpt><trkpt lat="40.5011624" lon="9.8198376"><ele>8.0</ele><time>2026-03-29T11:32:48.392Z</time></trkpt><trkpt lat="40.501275" lon="9.8198546"><ele>9.0</ele><time>2026-03-29T11:32:49.395Z</time></trkpt><trkpt lat="40.5013863" lon="9.8198788"><ele>10.4</ele><time>2026-03-29T11:32:50.392Z</time></trkpt><trkpt lat="40.5014937" lon="9.819905"><ele>11.8</ele><time>2026-03-29T11:32:51.394Z</time></trkpt><trkpt lat="40.5015898" lon="9.8199289"><ele>13.200000000000001</ele><time>2026-03-29T11:32:52.398Z</time></trkpt><trkpt lat="40.5016699" lon="9.8199643"><ele>14.600000000000001</ele><time>2026-03-29T11:32:53.393Z</time></trkpt><trkpt lat="40.5017485" lon="9.8200187"><ele>16.0</ele><time>2026-03-29T11:32:54.396Z</time></trkpt><trkpt lat="40.5018426" lon="9.8200634"><ele>16.0</ele><time>2026-03-29T11:32:55.395Z</time></trkpt><trkpt lat="40.5019335" lon="9.8201044"><ele>16.0</ele><time>2026-03-29T11:32:56.392Z</time></trkpt><trkpt lat="40.5020227" lon="9.8201405"><ele>16.0</ele><time>2026-03-29T11:32:57.413Z</time></trkpt><trkpt lat="40.5021325" lon="9.820177"><ele>16.0</ele><time>2026-03-29T11:32:58.39Z</time></trkpt><trkpt lat="40.5022337" lon="9.8202172"><ele>16.0</ele><time>2026-03-29T11:32:59.394Z</time></trkpt><trkpt lat="40.5023349" lon="9.8202533"><ele>14.8</ele><time>2026-03-29T11:33:00.396Z</time></trkpt><trkpt lat="40.5024406" lon="9.820285"><ele>13.600000000000001</ele><time>2026-03-29T11:33:01.399Z</time></trkpt><trkpt lat="40.5025505" lon="9.8203099"><ele>12.4</ele><time>2026-03-29T11:33:02.392Z</time></trkpt><trkpt lat="40.5026642" lon="9.8203577"><ele>11.2</ele><time>2026-03-29T11:33:03.409Z</time></trkpt><trkpt lat="40.5027665" lon="9.8204059"><ele>10.0</ele><time>2026-03-29T11:33:04.39Z</time></trkpt><trkpt lat="40.5028682" lon="9.8204481"><ele>10.4</ele><time>2026-03-29T11:33:05.392Z</time></trkpt><trkpt lat="40.5029746" lon="9.8204803"><ele>10.8</ele><time>2026-03-29T11:33:06.391Z</time></trkpt><trkpt lat="40.5030787" lon="9.8205125"><ele>11.2</ele><time>2026-03-29T11:33:07.391Z</time></trkpt><trkpt lat="40.503184" lon="9.8205436"><ele>11.6</ele><time>2026-03-29T11:33:08.392Z</time></trkpt><trkpt lat="40.5032956" lon="9.8205818"><ele>12.0</ele><time>2026-03-29T11:33:09.391Z</time></trkpt><trkpt lat="40.5034025" lon="9.8206273"><ele>12.0</ele><time>2026-03-29T11:33:10.39Z</time></trkpt><trkpt lat="40.5035075" lon="9.8206783"><ele>12.0</ele><time>2026-03-29T11:33:11.39Z</time></trkpt><trkpt lat="40.5036039" lon="9.8207246"><ele>12.0</ele><time>2026-03-29T11:33:12.39Z</time></trkpt><trkpt lat="40.5036881" lon="9.8207665"><ele>12.0</ele><time>2026-03-29T11:33:13.387Z</time></trkpt><trkpt lat="40.5037731" lon="9.8208107"><ele>12.0</ele><time>2026-03-29T11:33:14.405Z</time></trkpt><trkpt lat="40.5038622" lon="9.820852"><ele>11.714285714285714</ele><time>2026-03-29T11:33:15.391Z</time></trkpt><trkpt lat="40.5039459" lon="9.8208829"><ele>11.428571428571429</ele><time>2026-03-29T11:33:16.399Z</time></trkpt><trkpt lat="40.5040179" lon="9.820908"><ele>11.142857142857142</ele><time>2026-03-29T11:33:17.393Z</time></trkpt><trkpt lat="40.5040819" lon="9.8209283"><ele>10.857142857142858</ele><time>2026-03-29T11:33:18.394Z</time></trkpt><trkpt lat="40.5041462" lon="9.8209462"><ele>10.571428571428571</ele><time>2026-03-29T11:33:19.393Z</time></trkpt><trkpt lat="40.504212" lon="9.8209654"><ele>10.285714285714285</ele><time>2026-03-29T11:33:20.401Z</time></trkpt><trkpt lat="40.5042897" lon="9.8209941"><ele>10.0</ele><time>2026-03-29T11:33:21.394Z</time></trkpt><trkpt lat="40.5043736" lon="9.821035"><ele>10.0</ele><time>2026-03-29T11:33:22.39Z</time></trkpt><trkpt lat="40.5044525" lon="9.8210749"><ele>10.0</ele><time>2026-03-29T11:33:23.393Z</time></trkpt><trkpt lat="40.5045258" lon="9.8211149"><ele>10.0</ele><time>2026-03-29T11:33:24.399Z</time></trkpt><trkpt lat="40.5045958" lon="9.8211427"><ele>10.0</ele><time>2026-03-29T11:33:25.399Z</time></trkpt><trkpt lat="40.5046599" lon="9.8211647"><ele>10.0</ele><time>2026-03-29T11:33:26.413Z</time></trkpt><trkpt lat="40.5047806" lon="9.8211238"><ele>10.0</ele><time>2026-03-29T11:33:28.399Z</time></trkpt><trkpt lat="40.5048495" lon="9.821084"><ele>10.333333333333334</ele><time>2026-03-29T11:33:29.393Z</time></trkpt><trkpt lat="40.5049238" lon="9.8210357"><ele>10.666666666666668</ele><time>2026-03-29T11:33:30.393Z</time></trkpt><trkpt lat="40.5049988" lon="9.8209921"><ele>11.0</ele><time>2026-03-29T11:33:31.398Z</time></trkpt><trkpt lat="40.5050707" lon="9.820958"><ele>11.333333333333334</ele><time>2026-03-29T11:33:32.395Z</time></trkpt><trkpt lat="40.5051445" lon="9.8209454"><ele>11.666666666666666</ele><time>2026-03-29T11:33:33.402Z</time></trkpt><trkpt lat="40.5052272" lon="9.8209538"><ele>12.0</ele><time>2026-03-29T11:33:34.398Z</time></trkpt><trkpt lat="40.5053257" lon="9.8209738"><ele>11.6</ele><time>2026-03-29T11:33:35.394Z</time></trkpt><trkpt lat="40.5054283" lon="9.8209792"><ele>11.2</ele><time>2026-03-29T11:33:36.398Z</time></trkpt><trkpt lat="40.5055319" lon="9.8209839"><ele>10.8</ele><time>2026-03-29T11:33:37.391Z</time></trkpt><trkpt lat="40.5056243" lon="9.8209815"><ele>10.4</ele><time>2026-03-29T11:33:38.398Z</time></trkpt><trkpt lat="40.5056926" lon="9.8209811"><ele>10.0</ele><time>2026-03-29T11:33:39.399Z</time></trkpt><trkpt lat="40.505779" lon="9.820981"><ele>9.2</ele><time>2026-03-29T11:33:41.396Z</time></trkpt><trkpt lat="40.5058757" lon="9.8209912"><ele>8.4</ele><time>2026-03-29T11:33:43.404Z</time></trkpt><trkpt lat="40.5059835" lon="9.8210063"><ele>7.6</ele><time>2026-03-29T11:33:45.396Z</time></trkpt><trkpt lat="40.5061106" lon="9.8210095"><ele>6.8</ele><time>2026-03-29T11:33:47.395Z</time></trkpt><trkpt lat="40.506187" lon="9.8210022"><ele>6.0</ele><time>2026-03-29T11:33:48.389Z</time></trkpt><trkpt lat="40.5062718" lon="9.8209947"><ele>5.999999999999999</ele><time>2026-03-29T11:33:49.407Z</time></trkpt><trkpt lat="40.5063572" lon="9.8209897"><ele>6.0</ele><time>2026-03-29T11:33:50.394Z</time></trkpt><trkpt lat="40.5064368" lon="9.8209846"><ele>6.0</ele><time>2026-03-29T11:33:51.391Z</time></trkpt><trkpt lat="40.5065102" lon="9.8209854"><ele>6.0</ele><time>2026-03-29T11:33:52.39Z</time></trkpt><trkpt lat="40.5065805" lon="9.8209892"><ele>6.0</ele><time>2026-03-29T11:33:53.39Z</time></trkpt><trkpt lat="40.5066447" lon="9.8209904"><ele>5.999999999999999</ele><time>2026-03-29T11:33:54.395Z</time></trkpt><trkpt lat="40.5067162" lon="9.8209891"><ele>6.0</ele><time>2026-03-29T11:33:55.394Z</time></trkpt><trkpt lat="40.506789" lon="9.8209857"><ele>6.0</ele><time>2026-03-29T11:33:56.397Z</time></trkpt><trkpt lat="40.5068643" lon="9.8209821"><ele>6.0</ele><time>2026-03-29T11:33:57.394Z</time></trkpt><trkpt lat="40.5069457" lon="9.8209826"><ele>6.0</ele><time>2026-03-29T11:33:58.396Z</time></trkpt><trkpt lat="40.5070342" lon="9.8209795"><ele>6.0</ele><time>2026-03-29T11:33:59.398Z</time></trkpt><trkpt lat="40.5071291" lon="9.8209787"><ele>6.0</ele><time>2026-03-29T11:34:00.392Z</time></trkpt><trkpt lat="40.5072299" lon="9.8209726"><ele>6.0</ele><time>2026-03-29T11:34:01.396Z</time></trkpt><trkpt lat="40.5073256" lon="9.8209666"><ele>6.199999999999999</ele><time>2026-03-29T11:34:02.397Z</time></trkpt><trkpt lat="40.5074261" lon="9.8209661"><ele>6.3999999999999995</ele><time>2026-03-29T11:34:03.398Z</time></trkpt><trkpt lat="40.5075185" lon="9.820966"><ele>6.6</ele><time>2026-03-29T11:34:04.391Z</time></trkpt><trkpt lat="40.5076098" lon="9.8209803"><ele>6.8</ele><time>2026-03-29T11:34:05.394Z</time></trkpt><trkpt lat="40.5076924" lon="9.8210077"><ele>7.0</ele><time>2026-03-29T11:34:06.389Z</time></trkpt><trkpt lat="40.507771" lon="9.8210472"><ele>7.000000000000001</ele><time>2026-03-29T11:34:07.42Z</time></trkpt><trkpt lat="40.5078445" lon="9.821109"><ele>7.0</ele><time>2026-03-29T11:34:08.399Z</time></trkpt><trkpt lat="40.5079086" lon="9.8211851"><ele>7.0</ele><time>2026-03-29T11:34:09.395Z</time></trkpt><trkpt lat="40.5079532" lon="9.8212656"><ele>7.0</ele><time>2026-03-29T11:34:10.394Z</time></trkpt><trkpt lat="40.507996" lon="9.821365"><ele>7.000000000000001</ele><time>2026-03-29T11:34:11.397Z</time></trkpt><trkpt lat="40.5080443" lon="9.8214515"><ele>7.0</ele><time>2026-03-29T11:34:12.394Z</time></trkpt><trkpt lat="40.5081063" lon="9.8215443"><ele>7.000000000000001</ele><time>2026-03-29T11:34:13.404Z</time></trkpt><trkpt lat="40.5081675" lon="9.8216395"><ele>7.0</ele><time>2026-03-29T11:34:14.394Z</time></trkpt><trkpt lat="40.5082216" lon="9.821736"><ele>7.0</ele><time>2026-03-29T11:34:15.388Z</time></trkpt><trkpt lat="40.508272" lon="9.8218303"><ele>7.0</ele><time>2026-03-29T11:34:16.39Z</time></trkpt><trkpt lat="40.5083198" lon="9.8219169"><ele>7.000000000000001</ele><time>2026-03-29T11:34:17.394Z</time></trkpt><trkpt lat="40.5083628" lon="9.821998"><ele>7.0</ele><time>2026-03-29T11:34:18.394Z</time></trkpt><trkpt lat="40.5084075" lon="9.8220866"><ele>6.666666666666667</ele><time>2026-03-29T11:34:19.396Z</time></trkpt><trkpt lat="40.5084506" lon="9.8221745"><ele>6.333333333333334</ele><time>2026-03-29T11:34:20.391Z</time></trkpt><trkpt lat="40.5084901" lon="9.8222535"><ele>6.0</ele><time>2026-03-29T11:34:21.401Z</time></trkpt><trkpt lat="40.5085365" lon="9.8223337"><ele>5.666666666666667</ele><time>2026-03-29T11:34:22.392Z</time></trkpt><trkpt lat="40.508592" lon="9.8224131"><ele>5.333333333333334</ele><time>2026-03-29T11:34:23.397Z</time></trkpt><trkpt lat="40.5086544" lon="9.8224912"><ele>5.0</ele><time>2026-03-29T11:34:24.391Z</time></trkpt><trkpt lat="40.5087168" lon="9.8225641"><ele>5.333333333333334</ele><time>2026-03-29T11:34:25.395Z</time></trkpt><trkpt lat="40.5087755" lon="9.8226316"><ele>5.666666666666667</ele><time>2026-03-29T11:34:26.391Z</time></trkpt><trkpt lat="40.5088303" lon="9.8226937"><ele>6.0</ele><time>2026-03-29T11:34:27.392Z</time></trkpt><trkpt lat="40.5088806" lon="9.8227503"><ele>6.333333333333334</ele><time>2026-03-29T11:34:28.393Z</time></trkpt><trkpt lat="40.5089691" lon="9.8228572"><ele>6.666666666666667</ele><time>2026-03-29T11:34:30.394Z</time></trkpt><trkpt lat="40.50902" lon="9.8229098"><ele>7.0</ele><time>2026-03-29T11:34:31.393Z</time></trkpt><trkpt lat="40.5090817" lon="9.8229689"><ele>6.199999999999999</ele><time>2026-03-29T11:34:32.39Z</time></trkpt><trkpt lat="40.5091519" lon="9.8230354"><ele>5.3999999999999995</ele><time>2026-03-29T11:34:33.395Z</time></trkpt><trkpt lat="40.5092235" lon="9.823105"><ele>4.6</ele><time>2026-03-29T11:34:34.398Z</time></trkpt><trkpt lat="40.5092983" lon="9.8231765"><ele>3.8</ele><time>2026-03-29T11:34:35.396Z</time></trkpt><trkpt lat="40.5093813" lon="9.8232451"><ele>3.0</ele><time>2026-03-29T11:34:36.396Z</time></trkpt><trkpt lat="40.5094772" lon="9.8233149"><ele>3.4</ele><time>2026-03-29T11:34:37.398Z</time></trkpt><trkpt lat="40.509578" lon="9.8233817"><ele>3.8</ele><time>2026-03-29T11:34:38.395Z</time></trkpt><trkpt lat="40.5096691" lon="9.8234342"><ele>4.2</ele><time>2026-03-29T11:34:39.399Z</time></trkpt><trkpt lat="40.5097554" lon="9.8234734"><ele>4.6</ele><time>2026-03-29T11:34:40.395Z</time></trkpt><trkpt lat="40.5098403" lon="9.8234952"><ele>5.0</ele><time>2026-03-29T11:34:41.391Z</time></trkpt><trkpt lat="40.5099339" lon="9.823516"><ele>5.0</ele><time>2026-03-29T11:34:42.395Z</time></trkpt><trkpt lat="40.5100364" lon="9.8235078"><ele>5.0</ele><time>2026-03-29T11:34:43.394Z</time></trkpt><trkpt lat="40.5101292" lon="9.8234966"><ele>5.0</ele><time>2026-03-29T11:34:44.415Z</time></trkpt><trkpt lat="40.5102189" lon="9.823481"><ele>5.0</ele><time>2026-03-29T11:34:45.401Z</time></trkpt><trkpt lat="40.5103069" lon="9.8234689"><ele>5.0</ele><time>2026-03-29T11:34:46.403Z</time></trkpt><trkpt lat="40.5104106" lon="9.8234571"><ele>5.2</ele><time>2026-03-29T11:34:47.396Z</time></trkpt><trkpt lat="40.5105095" lon="9.8234445"><ele>5.4</ele><time>2026-03-29T11:34:48.392Z</time></trkpt><trkpt lat="40.5106095" lon="9.823446"><ele>5.6</ele><time>2026-03-29T11:34:49.39Z</time></trkpt><trkpt lat="40.5107053" lon="9.8234604"><ele>5.8</ele><time>2026-03-29T11:34:50.388Z</time></trkpt><trkpt lat="40.5108015" lon="9.8234731"><ele>6.0</ele><time>2026-03-29T11:34:51.39Z</time></trkpt><trkpt lat="40.5108855" lon="9.8234857"><ele>6.0</ele><time>2026-03-29T11:34:52.394Z</time></trkpt><trkpt lat="40.5109546" lon="9.8234858"><ele>6.0</ele><time>2026-03-29T11:34:53.391Z</time></trkpt><trkpt lat="40.5110586" lon="9.8234909"><ele>6.0</ele><time>2026-03-29T11:34:55.393Z</time></trkpt><trkpt lat="40.5111429" lon="9.8235251"><ele>6.0</ele><time>2026-03-29T11:34:57.393Z</time></trkpt><trkpt lat="40.5111749" lon="9.8236373"><ele>6.0</ele><time>2026-03-29T11:34:59.39Z</time></trkpt><trkpt lat="40.5111857" lon="9.8237957"><ele>6.0</ele><time>2026-03-29T11:35:01.404Z</time></trkpt><trkpt lat="40.5111873" lon="9.8238826"><ele>6.0</ele><time>2026-03-29T11:35:02.39Z</time></trkpt><trkpt lat="40.5112199" lon="9.8240269"><ele>6.0</ele><time>2026-03-29T11:35:04.398Z</time></trkpt><trkpt lat="40.5112975" lon="9.8241239"><ele>6.0</ele><time>2026-03-29T11:35:06.399Z</time></trkpt><trkpt lat="40.511382" lon="9.8241806"><ele>6.0</ele><time>2026-03-29T11:35:08.391Z</time></trkpt><trkpt lat="40.5114782" lon="9.8242256"><ele>6.333333333333333</ele><time>2026-03-29T11:35:10.389Z</time></trkpt><trkpt lat="40.5115946" lon="9.8242675"><ele>6.666666666666666</ele><time>2026-03-29T11:35:12.394Z</time></trkpt><trkpt lat="40.51166" lon="9.8242916"><ele>7.0</ele><time>2026-03-29T11:35:13.388Z</time></trkpt><trkpt lat="40.5117271" lon="9.8243153"><ele>7.333333333333333</ele><time>2026-03-29T11:35:14.397Z</time></trkpt><trkpt lat="40.5117973" lon="9.8243352"><ele>7.666666666666666</ele><time>2026-03-29T11:35:15.389Z</time></trkpt><trkpt lat="40.5118685" lon="9.8243458"><ele>8.0</ele><time>2026-03-29T11:35:16.389Z</time></trkpt><trkpt lat="40.5119377" lon="9.8243413"><ele>7.333333333333333</ele><time>2026-03-29T11:35:17.388Z</time></trkpt><trkpt lat="40.5120078" lon="9.8243245"><ele>6.666666666666666</ele><time>2026-03-29T11:35:18.389Z</time></trkpt><trkpt lat="40.5120859" lon="9.8243114"><ele>6.0</ele><time>2026-03-29T11:35:19.392Z</time></trkpt><trkpt lat="40.5121684" lon="9.8243062"><ele>5.333333333333333</ele><time>2026-03-29T11:35:20.391Z</time></trkpt><trkpt lat="40.5122537" lon="9.8243019"><ele>4.666666666666666</ele><time>2026-03-29T11:35:21.388Z</time></trkpt><trkpt lat="40.5123402" lon="9.8242915"><ele>4.0</ele><time>2026-03-29T11:35:22.391Z</time></trkpt><trkpt lat="40.5124133" lon="9.8242809"><ele>5.2</ele><time>2026-03-29T11:35:23.389Z</time></trkpt><trkpt lat="40.5125137" lon="9.8243114"><ele>6.4</ele><time>2026-03-29T11:35:25.398Z</time></trkpt><trkpt lat="40.5125873" lon="9.8244348"><ele>7.6</ele><time>2026-03-29T11:35:27.4Z</time></trkpt><trkpt lat="40.512631" lon="9.8244985"><ele>8.8</ele><time>2026-03-29T11:35:28.402Z</time></trkpt><trkpt lat="40.5126977" lon="9.8245531"><ele>10.0</ele><time>2026-03-29T11:35:29.395Z</time></trkpt><trkpt lat="40.512785" lon="9.8246"><ele>10.0</ele><time>2026-03-29T11:35:30.399Z</time></trkpt><trkpt lat="40.5128751" lon="9.8246366"><ele>10.0</ele><time>2026-03-29T11:35:31.394Z</time></trkpt><trkpt lat="40.5129638" lon="9.8246729"><ele>10.0</ele><time>2026-03-29T11:35:32.39Z</time></trkpt><trkpt lat="40.5130542" lon="9.8247044"><ele>10.0</ele><time>2026-03-29T11:35:33.391Z</time></trkpt><trkpt lat="40.5131417" lon="9.8247344"><ele>10.0</ele><time>2026-03-29T11:35:34.392Z</time></trkpt><trkpt lat="40.5132184" lon="9.8247674"><ele>9.8</ele><time>2026-03-29T11:35:35.391Z</time></trkpt><trkpt lat="40.5132817" lon="9.8248268"><ele>9.6</ele><time>2026-03-29T11:35:36.388Z</time></trkpt><trkpt lat="40.5133508" lon="9.8249547"><ele>9.4</ele><time>2026-03-29T11:35:38.388Z</time></trkpt><trkpt lat="40.513417" lon="9.8250702"><ele>9.2</ele><time>2026-03-29T11:35:40.391Z</time></trkpt><trkpt lat="40.5135141" lon="9.8251474"><ele>9.0</ele><time>2026-03-29T11:35:42.391Z</time></trkpt><trkpt lat="40.5135934" lon="9.8251444"><ele>9.5</ele><time>2026-03-29T11:35:43.399Z</time></trkpt><trkpt lat="40.5136862" lon="9.8251216"><ele>10.0</ele><time>2026-03-29T11:35:44.393Z</time></trkpt><trkpt lat="40.5137689" lon="9.8250978"><ele>10.5</ele><time>2026-03-29T11:35:45.393Z</time></trkpt><trkpt lat="40.5138389" lon="9.8250739"><ele>11.0</ele><time>2026-03-29T11:35:46.392Z</time></trkpt><trkpt lat="40.5139606" lon="9.8250279"><ele>11.5</ele><time>2026-03-29T11:35:48.393Z</time></trkpt><trkpt lat="40.5140216" lon="9.8250073"><ele>12.0</ele><time>2026-03-29T11:35:49.387Z</time></trkpt><trkpt lat="40.5140961" lon="9.8249897"><ele>12.0</ele><time>2026-03-29T11:35:50.39Z</time></trkpt><trkpt lat="40.5141762" lon="9.8249747"><ele>12.0</ele><time>2026-03-29T11:35:51.386Z</time></trkpt><trkpt lat="40.5142568" lon="9.824958"><ele>12.0</ele><time>2026-03-29T11:35:52.388Z</time></trkpt><trkpt lat="40.5143351" lon="9.824944"><ele>12.0</ele><time>2026-03-29T11:35:53.394Z</time></trkpt><trkpt lat="40.51441" lon="9.8249309"><ele>12.0</ele><time>2026-03-29T11:35:54.401Z</time></trkpt><trkpt lat="40.5144778" lon="9.8249221"><ele>12.0</ele><time>2026-03-29T11:35:55.398Z</time></trkpt><trkpt lat="40.5145803" lon="9.8249069"><ele>11.166666666666666</ele><time>2026-03-29T11:35:57.39Z</time></trkpt><trkpt lat="40.5146934" lon="9.8249012"><ele>10.333333333333334</ele><time>2026-03-29T11:35:59.392Z</time></trkpt><trkpt lat="40.5147658" lon="9.8248891"><ele>9.5</ele><time>2026-03-29T11:36:00.391Z</time></trkpt><trkpt lat="40.5148413" lon="9.8248621"><ele>8.666666666666668</ele><time>2026-03-29T11:36:01.391Z</time></trkpt><trkpt lat="40.5149143" lon="9.8248219"><ele>7.833333333333334</ele><time>2026-03-29T11:36:02.389Z</time></trkpt><trkpt lat="40.5149826" lon="9.8247728"><ele>7.0</ele><time>2026-03-29T11:36:03.399Z</time></trkpt><trkpt lat="40.5150507" lon="9.8247115"><ele>7.000000000000001</ele><time>2026-03-29T11:36:04.392Z</time></trkpt><trkpt lat="40.5151245" lon="9.8246498"><ele>7.0</ele><time>2026-03-29T11:36:05.393Z</time></trkpt><trkpt lat="40.5151978" lon="9.8246037"><ele>7.0</ele><time>2026-03-29T11:36:06.397Z</time></trkpt><trkpt lat="40.5152703" lon="9.8245778"><ele>7.0</ele><time>2026-03-29T11:36:07.394Z</time></trkpt><trkpt lat="40.5153407" lon="9.8245679"><ele>7.000000000000001</ele><time>2026-03-29T11:36:08.39Z</time></trkpt><trkpt lat="40.5154519" lon="9.8245618"><ele>7.0</ele><time>2026-03-29T11:36:10.394Z</time></trkpt><trkpt lat="40.5155381" lon="9.8245655"><ele>7.333333333333334</ele><time>2026-03-29T11:36:12.415Z</time></trkpt><trkpt lat="40.5156421" lon="9.8245856"><ele>7.666666666666667</ele><time>2026-03-29T11:36:14.406Z</time></trkpt><trkpt lat="40.5157083" lon="9.8245962"><ele>8.0</ele><time>2026-03-29T11:36:15.394Z</time></trkpt><trkpt lat="40.5157851" lon="9.8246134"><ele>8.333333333333334</ele><time>2026-03-29T11:36:16.394Z</time></trkpt><trkpt lat="40.5158628" lon="9.8246471"><ele>8.666666666666666</ele><time>2026-03-29T11:36:17.387Z</time></trkpt><trkpt lat="40.5159275" lon="9.8246941"><ele>9.0</ele><time>2026-03-29T11:36:18.391Z</time></trkpt><trkpt lat="40.5159836" lon="9.8247468"><ele>9.0</ele><time>2026-03-29T11:36:19.389Z</time></trkpt><trkpt lat="40.5160391" lon="9.8247916"><ele>9.0</ele><time>2026-03-29T11:36:20.393Z</time></trkpt><trkpt lat="40.5161028" lon="9.8248171"><ele>9.0</ele><time>2026-03-29T11:36:21.394Z</time></trkpt><trkpt lat="40.5161678" lon="9.8248228"><ele>9.0</ele><time>2026-03-29T11:36:22.394Z</time></trkpt><trkpt lat="40.5162308" lon="9.8248065"><ele>9.0</ele><time>2026-03-29T11:36:23.392Z</time></trkpt><trkpt lat="40.5163447" lon="9.8247647"><ele>9.0</ele><time>2026-03-29T11:36:25.392Z</time></trkpt><trkpt lat="40.5164277" lon="9.8247259"><ele>8.5</ele><time>2026-03-29T11:36:51.398Z</time></trkpt><trkpt lat="40.5165227" lon="9.8246668"><ele>8.0</ele><time>2026-03-29T11:36:53.401Z</time></trkpt><trkpt lat="40.5166092" lon="9.8246033"><ele>7.5</ele><time>2026-03-29T11:36:54.397Z</time></trkpt><trkpt lat="40.516713" lon="9.8245175"><ele>7.0</ele><time>2026-03-29T11:36:55.422Z</time></trkpt><trkpt lat="40.5168105" lon="9.8243804"><ele>8.0</ele><time>2026-03-29T11:36:56.394Z</time></trkpt><trkpt lat="40.5169065" lon="9.8242406"><ele>9.0</ele><time>2026-03-29T11:36:57.391Z</time></trkpt><trkpt lat="40.5170046" lon="9.8240711"><ele>10.0</ele><time>2026-03-29T11:36:58.391Z</time></trkpt><trkpt lat="40.5170876" lon="9.8239023"><ele>10.0</ele><time>2026-03-29T11:36:59.387Z</time></trkpt><trkpt lat="40.5171601" lon="9.8237448"><ele>10.0</ele><time>2026-03-29T11:37:00.395Z</time></trkpt><trkpt lat="40.5172231" lon="9.8236006"><ele>10.0</ele><time>2026-03-29T11:37:01.396Z</time></trkpt><trkpt lat="40.5172724" lon="9.8234514"><ele>10.0</ele><time>2026-03-29T11:37:02.392Z</time></trkpt><trkpt lat="40.517325" lon="9.8232741"><ele>11.75</ele><time>2026-03-29T11:37:03.388Z</time></trkpt><trkpt lat="40.5173725" lon="9.8230974"><ele>13.5</ele><time>2026-03-29T11:37:04.392Z</time></trkpt><trkpt lat="40.5174148" lon="9.8229262"><ele>15.25</ele><time>2026-03-29T11:37:05.386Z</time></trkpt><trkpt lat="40.51745" lon="9.8227724"><ele>17.0</ele><time>2026-03-29T11:37:06.394Z</time></trkpt><trkpt lat="40.5174863" lon="9.8226537"><ele>19.2</ele><time>2026-03-29T11:37:07.391Z</time></trkpt><trkpt lat="40.5175168" lon="9.822566"><ele>21.4</ele><time>2026-03-29T11:37:08.389Z</time></trkpt><trkpt lat="40.5175549" lon="9.8224997"><ele>23.599999999999998</ele><time>2026-03-29T11:37:09.394Z</time></trkpt><trkpt lat="40.5176288" lon="9.8224539"><ele>25.799999999999997</ele><time>2026-03-29T11:37:10.394Z</time></trkpt><trkpt lat="40.5177463" lon="9.8224254"><ele>28.0</ele><time>2026-03-29T11:37:11.388Z</time></trkpt><trkpt lat="40.5178682" lon="9.8224021"><ele>26.5</ele><time>2026-03-29T11:37:12.385Z</time></trkpt><trkpt lat="40.5179959" lon="9.8224131"><ele>25.0</ele><time>2026-03-29T11:37:13.391Z</time></trkpt><trkpt lat="40.5181285" lon="9.8224349"><ele>23.5</ele><time>2026-03-29T11:37:14.393Z</time></trkpt><trkpt lat="40.5182467" lon="9.8224454"><ele>22.0</ele><time>2026-03-29T11:37:15.392Z</time></trkpt><trkpt lat="40.5183532" lon="9.8224536"><ele>22.0</ele><time>2026-03-29T11:37:16.389Z</time></trkpt><trkpt lat="40.5184616" lon="9.822466"><ele>22.0</ele><time>2026-03-29T11:37:17.389Z</time></trkpt><trkpt lat="40.5185793" lon="9.8224779"><ele>22.0</ele><time>2026-03-29T11:37:18.388Z</time></trkpt><trkpt lat="40.5186924" lon="9.8224881"><ele>22.0</ele><time>2026-03-29T11:37:19.392Z</time></trkpt><trkpt lat="40.5187821" lon="9.8224837"><ele>22.0</ele><time>2026-03-29T11:37:20.392Z</time></trkpt><trkpt lat="40.5188672" lon="9.8224797"><ele>21.8</ele><time>2026-03-29T11:37:21.387Z</time></trkpt><trkpt lat="40.5189555" lon="9.8224528"><ele>21.6</ele><time>2026-03-29T11:37:22.383Z</time></trkpt><trkpt lat="40.5190592" lon="9.8223979"><ele>21.400000000000002</ele><time>2026-03-29T11:37:23.395Z</time></trkpt><trkpt lat="40.5191629" lon="9.8223406"><ele>21.200000000000003</ele><time>2026-03-29T11:37:24.388Z</time></trkpt><trkpt lat="40.5192551" lon="9.8222926"><ele>21.0</ele><time>2026-03-29T11:37:25.393Z</time></trkpt><trkpt lat="40.5193405" lon="9.8222702"><ele>21.0</ele><time>2026-03-29T11:37:26.387Z</time></trkpt><trkpt lat="40.5194134" lon="9.8222508"><ele>21.0</ele><time>2026-03-29T11:37:27.391Z</time></trkpt><trkpt lat="40.5194864" lon="9.8222547"><ele>21.0</ele><time>2026-03-29T11:37:28.397Z</time></trkpt><trkpt lat="40.5195818" lon="9.8222766"><ele>21.0</ele><time>2026-03-29T11:37:29.391Z</time></trkpt><trkpt lat="40.5196911" lon="9.8223165"><ele>21.0</ele><time>2026-03-29T11:37:30.395Z</time></trkpt><trkpt lat="40.5198132" lon="9.8223694"><ele>21.25</ele><time>2026-03-29T11:37:31.387Z</time></trkpt><trkpt lat="40.5199421" lon="9.8224326"><ele>21.5</ele><time>2026-03-29T11:37:32.396Z</time></trkpt><trkpt lat="40.5200765" lon="9.8224978"><ele>21.75</ele><time>2026-03-29T11:37:33.386Z</time></trkpt><trkpt lat="40.5202071" lon="9.822555"><ele>22.0</ele><time>2026-03-29T11:37:34.388Z</time></trkpt><trkpt lat="40.520339" lon="9.8225847"><ele>21.5</ele><time>2026-03-29T11:37:35.388Z</time></trkpt><trkpt lat="40.5204658" lon="9.8226164"><ele>21.0</ele><time>2026-03-29T11:37:36.389Z</time></trkpt><trkpt lat="40.5205954" lon="9.8226319"><ele>20.5</ele><time>2026-03-29T11:37:37.386Z</time></trkpt><trkpt lat="40.5207283" lon="9.8226561"><ele>20.0</ele><time>2026-03-29T11:37:38.392Z</time></trkpt><trkpt lat="40.520853" lon="9.8226732"><ele>18.6</ele><time>2026-03-29T11:37:39.39Z</time></trkpt><trkpt lat="40.5209706" lon="9.8226993"><ele>17.2</ele><time>2026-03-29T11:37:40.387Z</time></trkpt><trkpt lat="40.5210681" lon="9.8227231"><ele>15.8</ele><time>2026-03-29T11:37:41.39Z</time></trkpt><trkpt lat="40.5211544" lon="9.8227467"><ele>14.4</ele><time>2026-03-29T11:37:42.393Z</time></trkpt><trkpt lat="40.5212238" lon="9.8227805"><ele>13.0</ele><time>2026-03-29T11:37:43.394Z</time></trkpt><trkpt lat="40.521278" lon="9.8228474"><ele>13.0</ele><time>2026-03-29T11:37:44.393Z</time></trkpt><trkpt lat="40.5213432" lon="9.8229271"><ele>13.0</ele><time>2026-03-29T11:37:45.397Z</time></trkpt><trkpt lat="40.5214064" lon="9.8230365"><ele>13.0</ele><time>2026-03-29T11:37:46.393Z</time></trkpt><trkpt lat="40.5214749" lon="9.8231687"><ele>13.0</ele><time>2026-03-29T11:37:47.393Z</time></trkpt><trkpt lat="40.5215348" lon="9.8232822"><ele>13.0</ele><time>2026-03-29T11:37:48.392Z</time></trkpt><trkpt lat="40.5215922" lon="9.823372"><ele>12.999999999999998</ele><time>2026-03-29T11:37:49.394Z</time></trkpt><trkpt lat="40.5216517" lon="9.823445"><ele>13.0</ele><time>2026-03-29T11:37:50.394Z</time></trkpt><trkpt lat="40.5217194" lon="9.8235003"><ele>13.0</ele><time>2026-03-29T11:37:51.392Z</time></trkpt><trkpt lat="40.5218334" lon="9.823539"><ele>13.0</ele><time>2026-03-29T11:37:53.394Z</time></trkpt><trkpt lat="40.5218941" lon="9.823516"><ele>12.999999999999998</ele><time>2026-03-29T11:37:54.391Z</time></trkpt><trkpt lat="40.5219808" lon="9.8234565"><ele>13.0</ele><time>2026-03-29T11:37:55.393Z</time></trkpt><trkpt lat="40.5220863" lon="9.8233899"><ele>13.4</ele><time>2026-03-29T11:37:56.391Z</time></trkpt><trkpt lat="40.5221905" lon="9.8233362"><ele>13.8</ele><time>2026-03-29T11:37:57.392Z</time></trkpt><trkpt lat="40.5222892" lon="9.823281"><ele>14.2</ele><time>2026-03-29T11:37:58.395Z</time></trkpt><trkpt lat="40.5223789" lon="9.8232226"><ele>14.6</ele><time>2026-03-29T11:37:59.394Z</time></trkpt><trkpt lat="40.5224715" lon="9.8231616"><ele>15.0</ele><time>2026-03-29T11:38:00.393Z</time></trkpt><trkpt lat="40.522563" lon="9.823096"><ele>15.0</ele><time>2026-03-29T11:38:01.408Z</time></trkpt><trkpt lat="40.5226464" lon="9.8230288"><ele>15.0</ele><time>2026-03-29T11:38:02.389Z</time></trkpt><trkpt lat="40.5227255" lon="9.8229568"><ele>15.0</ele><time>2026-03-29T11:38:03.397Z</time></trkpt><trkpt lat="40.522803" lon="9.8228777"><ele>15.0</ele><time>2026-03-29T11:38:04.398Z</time></trkpt><trkpt lat="40.5228836" lon="9.8228129"><ele>15.0</ele><time>2026-03-29T11:38:05.398Z</time></trkpt><trkpt lat="40.5229655" lon="9.8227588"><ele>15.333333333333334</ele><time>2026-03-29T11:38:06.404Z</time></trkpt><trkpt lat="40.5230332" lon="9.8227156"><ele>15.666666666666668</ele><time>2026-03-29T11:38:07.398Z</time></trkpt><trkpt lat="40.5230987" lon="9.8226798"><ele>16.0</ele><time>2026-03-29T11:38:08.401Z</time></trkpt><trkpt lat="40.5231637" lon="9.8226683"><ele>16.333333333333336</ele><time>2026-03-29T11:38:09.395Z</time></trkpt><trkpt lat="40.5232554" lon="9.8226963"><ele>16.666666666666668</ele><time>2026-03-29T11:38:11.396Z</time></trkpt><trkpt lat="40.5232945" lon="9.822788"><ele>17.0</ele><time>2026-03-29T11:38:13.401Z</time></trkpt><trkpt lat="40.5233128" lon="9.8229054"><ele>17.0</ele><time>2026-03-29T11:38:15.4Z</time></trkpt><trkpt lat="40.5233446" lon="9.8230309"><ele>17.0</ele><time>2026-03-29T11:38:17.394Z</time></trkpt><trkpt lat="40.523394" lon="9.8231867"><ele>17.0</ele><time>2026-03-29T11:38:19.394Z</time></trkpt><trkpt lat="40.5234318" lon="9.8232643"><ele>17.0</ele><time>2026-03-29T11:38:20.396Z</time></trkpt><trkpt lat="40.5234628" lon="9.8233403"><ele>17.0</ele><time>2026-03-29T11:38:21.394Z</time></trkpt><trkpt lat="40.5234906" lon="9.8234159"><ele>17.0</ele><time>2026-03-29T11:38:22.395Z</time></trkpt><trkpt lat="40.523521" lon="9.8235003"><ele>17.166666666666668</ele><time>2026-03-29T11:38:24.393Z</time></trkpt><trkpt lat="40.5235509" lon="9.8236042"><ele>17.333333333333336</ele><time>2026-03-29T11:38:26.404Z</time></trkpt><trkpt lat="40.5235911" lon="9.823766"><ele>17.5</ele><time>2026-03-29T11:38:28.396Z</time></trkpt><trkpt lat="40.523611" lon="9.8238561"><ele>17.666666666666668</ele><time>2026-03-29T11:38:29.406Z</time></trkpt><trkpt lat="40.5236307" lon="9.8239452"><ele>17.833333333333332</ele><time>2026-03-29T11:38:30.39Z</time></trkpt><trkpt lat="40.5236475" lon="9.8240491"><ele>18.0</ele><time>2026-03-29T11:38:31.398Z</time></trkpt><trkpt lat="40.5236602" lon="9.824157"><ele>18.0</ele><time>2026-03-29T11:38:32.388Z</time></trkpt><trkpt lat="40.5236745" lon="9.8242682"><ele>18.0</ele><time>2026-03-29T11:38:33.402Z</time></trkpt><trkpt lat="40.5236914" lon="9.8243751"><ele>18.0</ele><time>2026-03-29T11:38:34.394Z</time></trkpt><trkpt lat="40.5237175" lon="9.8244736"><ele>18.0</ele><time>2026-03-29T11:38:35.393Z</time></trkpt><trkpt lat="40.5237464" lon="9.824573"><ele>18.0</ele><time>2026-03-29T11:38:36.394Z</time></trkpt><trkpt lat="40.5237753" lon="9.8246679"><ele>18.0</ele><time>2026-03-29T11:38:37.393Z</time></trkpt><trkpt lat="40.5238068" lon="9.8247555"><ele>17.28571428571429</ele><time>2026-03-29T11:38:38.4Z</time></trkpt><trkpt lat="40.5238414" lon="9.8248356"><ele>16.571428571428573</ele><time>2026-03-29T11:38:39.393Z</time></trkpt><trkpt lat="40.52388" lon="9.8249127"><ele>15.857142857142858</ele><time>2026-03-29T11:38:40.393Z</time></trkpt><trkpt lat="40.5239248" lon="9.824978"><ele>15.142857142857144</ele><time>2026-03-29T11:38:41.389Z</time></trkpt><trkpt lat="40.5239705" lon="9.825038"><ele>14.42857142857143</ele><time>2026-03-29T11:38:42.399Z</time></trkpt><trkpt lat="40.524044" lon="9.8250769"><ele>13.714285714285714</ele><time>2026-03-29T11:38:43.394Z</time></trkpt><trkpt lat="40.5241361" lon="9.8251167"><ele>13.0</ele><time>2026-03-29T11:38:44.391Z</time></trkpt><trkpt lat="40.5242305" lon="9.8251719"><ele>12.25</ele><time>2026-03-29T11:38:45.394Z</time></trkpt><trkpt lat="40.5243265" lon="9.8252294"><ele>11.5</ele><time>2026-03-29T11:38:46.395Z</time></trkpt><trkpt lat="40.5244254" lon="9.8253203"><ele>10.75</ele><time>2026-03-29T11:38:47.395Z</time></trkpt><trkpt lat="40.5245238" lon="9.8254128"><ele>10.0</ele><time>2026-03-29T11:38:48.392Z</time></trkpt><trkpt lat="40.5246201" lon="9.8255111"><ele>10.0</ele><time>2026-03-29T11:38:49.395Z</time></trkpt><trkpt lat="40.5247145" lon="9.825612"><ele>10.0</ele><time>2026-03-29T11:38:50.394Z</time></trkpt><trkpt lat="40.5248043" lon="9.8257093"><ele>10.0</ele><time>2026-03-29T11:38:51.391Z</time></trkpt><trkpt lat="40.5248991" lon="9.8258028"><ele>10.0</ele><time>2026-03-29T11:38:52.398Z</time></trkpt><trkpt lat="40.5249887" lon="9.8258785"><ele>10.0</ele><time>2026-03-29T11:38:53.398Z</time></trkpt><trkpt lat="40.5250656" lon="9.8259348"><ele>10.0</ele><time>2026-03-29T11:38:54.395Z</time></trkpt><trkpt lat="40.5251267" lon="9.8259687"><ele>10.0</ele><time>2026-03-29T11:38:55.401Z</time></trkpt><trkpt lat="40.5252062" lon="9.8260028"><ele>10.0</ele><time>2026-03-29T11:38:56.389Z</time></trkpt><trkpt lat="40.5253017" lon="9.8260339"><ele>10.0</ele><time>2026-03-29T11:38:57.392Z</time></trkpt><trkpt lat="40.5254111" lon="9.8260562"><ele>10.0</ele><time>2026-03-29T11:38:58.393Z</time></trkpt><trkpt lat="40.5255269" lon="9.8260682"><ele>9.8</ele><time>2026-03-29T11:38:59.391Z</time></trkpt><trkpt lat="40.5256404" lon="9.8260716"><ele>9.6</ele><time>2026-03-29T11:39:00.393Z</time></trkpt><trkpt lat="40.5257465" lon="9.8260726"><ele>9.4</ele><time>2026-03-29T11:39:01.394Z</time></trkpt><trkpt lat="40.5258402" lon="9.8260755"><ele>9.2</ele><time>2026-03-29T11:39:02.394Z</time></trkpt><trkpt lat="40.5259202" lon="9.82608"><ele>9.0</ele><time>2026-03-29T11:39:03.392Z</time></trkpt><trkpt lat="40.5259862" lon="9.8260876"><ele>9.0</ele><time>2026-03-29T11:39:04.396Z</time></trkpt><trkpt lat="40.5261" lon="9.8261314"><ele>9.0</ele><time>2026-03-29T11:39:06.392Z</time></trkpt><trkpt lat="40.5261599" lon="9.8261599"><ele>9.0</ele><time>2026-03-29T11:39:07.399Z</time></trkpt><trkpt lat="40.5262302" lon="9.8261677"><ele>9.0</ele><time>2026-03-29T11:39:08.396Z</time></trkpt><trkpt lat="40.5262943" lon="9.8261601"><ele>9.0</ele><time>2026-03-29T11:39:09.397Z</time></trkpt><trkpt lat="40.5263698" lon="9.826147"><ele>9.0</ele><time>2026-03-29T11:39:10.391Z</time></trkpt><trkpt lat="40.5264483" lon="9.8261369"><ele>9.2</ele><time>2026-03-29T11:39:11.392Z</time></trkpt><trkpt lat="40.5265579" lon="9.8261289"><ele>9.4</ele><time>2026-03-29T11:39:13.39Z</time></trkpt><trkpt lat="40.5266407" lon="9.8260976"><ele>9.6</ele><time>2026-03-29T11:39:15.393Z</time></trkpt><trkpt lat="40.5267318" lon="9.8260363"><ele>9.8</ele><time>2026-03-29T11:39:17.4Z</time></trkpt><trkpt lat="40.526826" lon="9.8260081"><ele>10.0</ele><time>2026-03-29T11:39:19.394Z</time></trkpt><trkpt lat="40.5268886" lon="9.8260702"><ele>10.0</ele><time>2026-03-29T11:39:21.393Z</time></trkpt><trkpt lat="40.5269312" lon="9.8262192"><ele>10.0</ele><time>2026-03-29T11:39:23.39Z</time></trkpt><trkpt lat="40.5269433" lon="9.8263063"><ele>10.0</ele><time>2026-03-29T11:39:24.393Z</time></trkpt><trkpt lat="40.5269556" lon="9.8263938"><ele>10.0</ele><time>2026-03-29T11:39:25.389Z</time></trkpt><trkpt lat="40.5269724" lon="9.8264773"><ele>10.0</ele><time>2026-03-29T11:39:26.395Z</time></trkpt><trkpt lat="40.5270102" lon="9.8266315"><ele>10.0</ele><time>2026-03-29T11:39:28.396Z</time></trkpt><trkpt lat="40.5270574" lon="9.8267735"><ele>9.0</ele><time>2026-03-29T11:39:30.395Z</time></trkpt><trkpt lat="40.5271326" lon="9.8268774"><ele>8.0</ele><time>2026-03-29T11:39:32.393Z</time></trkpt><trkpt lat="40.5272517" lon="9.8269416"><ele>7.0</ele><time>2026-03-29T11:39:34.398Z</time></trkpt><trkpt lat="40.5273225" lon="9.8269688"><ele>6.0</ele><time>2026-03-29T11:39:35.391Z</time></trkpt><trkpt lat="40.5274018" lon="9.8270002"><ele>5.0</ele><time>2026-03-29T11:39:36.411Z</time></trkpt><trkpt lat="40.5274894" lon="9.8270359"><ele>5.0</ele><time>2026-03-29T11:39:37.399Z</time></trkpt><trkpt lat="40.5275834" lon="9.8270714"><ele>5.0</ele><time>2026-03-29T11:39:38.391Z</time></trkpt><trkpt lat="40.5276847" lon="9.8271041"><ele>5.0</ele><time>2026-03-29T11:39:39.393Z</time></trkpt><trkpt lat="40.5277916" lon="9.8271256"><ele>5.0</ele><time>2026-03-29T11:39:40.394Z</time></trkpt><trkpt lat="40.5278975" lon="9.8271463"><ele>5.0</ele><time>2026-03-29T11:39:41.407Z</time></trkpt><trkpt lat="40.527997" lon="9.8271669"><ele>5.666666666666667</ele><time>2026-03-29T11:39:42.395Z</time></trkpt><trkpt lat="40.5280792" lon="9.8272233"><ele>6.333333333333334</ele><time>2026-03-29T11:39:43.395Z</time></trkpt><trkpt lat="40.5281496" lon="9.8272797"><ele>7.0</ele><time>2026-03-29T11:39:44.394Z</time></trkpt><trkpt lat="40.5282071" lon="9.8273226"><ele>7.666666666666667</ele><time>2026-03-29T11:39:45.396Z</time></trkpt><trkpt lat="40.5282959" lon="9.8273322"><ele>8.333333333333334</ele><time>2026-03-29T11:39:47.394Z</time></trkpt><trkpt lat="40.5283887" lon="9.8272475"><ele>9.0</ele><time>2026-03-29T11:39:49.399Z</time></trkpt><trkpt lat="40.5284443" lon="9.8271942"><ele>9.000000000000002</ele><time>2026-03-29T11:39:50.413Z</time></trkpt><trkpt lat="40.5285042" lon="9.8271499"><ele>9.0</ele><time>2026-03-29T11:39:51.391Z</time></trkpt><trkpt lat="40.5285665" lon="9.8271079"><ele>9.0</ele><time>2026-03-29T11:39:52.392Z</time></trkpt><trkpt lat="40.5286331" lon="9.8270632"><ele>9.0</ele><time>2026-03-29T11:39:53.395Z</time></trkpt><trkpt lat="40.5287008" lon="9.8270183"><ele>9.0</ele><time>2026-03-29T11:39:54.393Z</time></trkpt><trkpt lat="40.5287695" lon="9.8269648"><ele>9.000000000000002</ele><time>2026-03-29T11:39:55.411Z</time></trkpt><trkpt lat="40.5288368" lon="9.8269089"><ele>9.0</ele><time>2026-03-29T11:39:56.4Z</time></trkpt><trkpt lat="40.5289021" lon="9.8268539"><ele>8.833333333333334</ele><time>2026-03-29T11:39:57.396Z</time></trkpt><trkpt lat="40.5289656" lon="9.8268058"><ele>8.666666666666666</ele><time>2026-03-29T11:39:58.392Z</time></trkpt><trkpt lat="40.5290362" lon="9.8267542"><ele>8.5</ele><time>2026-03-29T11:39:59.401Z</time></trkpt><trkpt lat="40.5291117" lon="9.8267021"><ele>8.333333333333332</ele><time>2026-03-29T11:40:00.393Z</time></trkpt><trkpt lat="40.5291964" lon="9.8266437"><ele>8.166666666666666</ele><time>2026-03-29T11:40:01.399Z</time></trkpt><trkpt lat="40.52929" lon="9.826577"><ele>8.0</ele><time>2026-03-29T11:40:02.398Z</time></trkpt><trkpt lat="40.5293912" lon="9.8265007"><ele>8.0</ele><time>2026-03-29T11:40:03.397Z</time></trkpt><trkpt lat="40.5294936" lon="9.826413"><ele>8.0</ele><time>2026-03-29T11:40:04.391Z</time></trkpt><trkpt lat="40.5295888" lon="9.826312"><ele>8.0</ele><time>2026-03-29T11:40:05.395Z</time></trkpt><trkpt lat="40.5296776" lon="9.8262037"><ele>8.0</ele><time>2026-03-29T11:40:06.396Z</time></trkpt><trkpt lat="40.529763" lon="9.8260924"><ele>8.0</ele><time>2026-03-29T11:40:07.399Z</time></trkpt><trkpt lat="40.5298474" lon="9.8259778"><ele>8.0</ele><time>2026-03-29T11:40:08.397Z</time></trkpt><trkpt lat="40.5299286" lon="9.8258609"><ele>8.0</ele><time>2026-03-29T11:40:09.418Z</time></trkpt><trkpt lat="40.5300137" lon="9.8257385"><ele>8.0</ele><time>2026-03-29T11:40:10.396Z</time></trkpt><trkpt lat="40.5301024" lon="9.8256125"><ele>8.0</ele><time>2026-03-29T11:40:11.397Z</time></trkpt><trkpt lat="40.5301885" lon="9.8254945"><ele>8.0</ele><time>2026-03-29T11:40:12.399Z</time></trkpt><trkpt lat="40.5302756" lon="9.8253746"><ele>8.0</ele><time>2026-03-29T11:40:13.399Z</time></trkpt><trkpt lat="40.5303599" lon="9.8252532"><ele>8.0</ele><time>2026-03-29T11:40:14.397Z</time></trkpt><trkpt lat="40.5304424" lon="9.8251279"><ele>7.75</ele><time>2026-03-29T11:40:15.394Z</time></trkpt><trkpt lat="40.5305211" lon="9.8250009"><ele>7.5</ele><time>2026-03-29T11:40:16.396Z</time></trkpt><trkpt lat="40.5305953" lon="9.8248743"><ele>7.25</ele><time>2026-03-29T11:40:17.397Z</time></trkpt><trkpt lat="40.53067" lon="9.8247453"><ele>7.0</ele><time>2026-03-29T11:40:18.396Z</time></trkpt><trkpt lat="40.5307429" lon="9.8246131"><ele>7.0</ele><time>2026-03-29T11:40:19.397Z</time></trkpt><trkpt lat="40.5308133" lon="9.8244766"><ele>7.0</ele><time>2026-03-29T11:40:20.397Z</time></trkpt><trkpt lat="40.5308804" lon="9.8243369"><ele>7.0</ele><time>2026-03-29T11:40:21.396Z</time></trkpt><trkpt lat="40.5309457" lon="9.8241952"><ele>7.0</ele><time>2026-03-29T11:40:22.396Z</time></trkpt><trkpt lat="40.531012" lon="9.8240562"><ele>6.75</ele><time>2026-03-29T11:40:23.394Z</time></trkpt><trkpt lat="40.5310774" lon="9.8239163"><ele>6.5</ele><time>2026-03-29T11:40:24.39Z</time></trkpt><trkpt lat="40.5311418" lon="9.8237756"><ele>6.25</ele><time>2026-03-29T11:40:25.395Z</time></trkpt><trkpt lat="40.5312063" lon="9.8236354"><ele>6.0</ele><time>2026-03-29T11:40:26.394Z</time></trkpt><trkpt lat="40.5312699" lon="9.8234952"><ele>6.75</ele><time>2026-03-29T11:40:27.394Z</time></trkpt><trkpt lat="40.5313321" lon="9.8233543"><ele>7.5</ele><time>2026-03-29T11:40:28.394Z</time></trkpt><trkpt lat="40.5313946" lon="9.823211"><ele>8.25</ele><time>2026-03-29T11:40:29.4Z</time></trkpt><trkpt lat="40.5314596" lon="9.8230689"><ele>9.0</ele><time>2026-03-29T11:40:30.391Z</time></trkpt><trkpt lat="40.5315269" lon="9.8229332"><ele>9.0</ele><time>2026-03-29T11:40:31.392Z</time></trkpt><trkpt lat="40.531592" lon="9.8227978"><ele>9.0</ele><time>2026-03-29T11:40:32.394Z</time></trkpt><trkpt lat="40.5316525" lon="9.8226621"><ele>9.0</ele><time>2026-03-29T11:40:33.392Z</time></trkpt><trkpt lat="40.531712" lon="9.8225248"><ele>9.0</ele><time>2026-03-29T11:40:34.401Z</time></trkpt><trkpt lat="40.5317723" lon="9.8223893"><ele>9.75</ele><time>2026-03-29T11:40:35.401Z</time></trkpt><trkpt lat="40.5318333" lon="9.8222543"><ele>10.5</ele><time>2026-03-29T11:40:36.416Z</time></trkpt><trkpt lat="40.5318939" lon="9.8221206"><ele>11.25</ele><time>2026-03-29T11:40:37.401Z</time></trkpt><trkpt lat="40.5319536" lon="9.8219904"><ele>12.0</ele><time>2026-03-29T11:40:38.394Z</time></trkpt><trkpt lat="40.5320132" lon="9.8218623"><ele>10.75</ele><time>2026-03-29T11:40:39.403Z</time></trkpt><trkpt lat="40.5320767" lon="9.8217342"><ele>9.5</ele><time>2026-03-29T11:40:40.401Z</time></trkpt><trkpt lat="40.532138" lon="9.8216079"><ele>8.25</ele><time>2026-03-29T11:40:41.395Z</time></trkpt><trkpt lat="40.5321996" lon="9.8214816"><ele>7.0</ele><time>2026-03-29T11:40:42.395Z</time></trkpt><trkpt lat="40.5322606" lon="9.8213485"><ele>7.0</ele><time>2026-03-29T11:40:43.399Z</time></trkpt><trkpt lat="40.5323243" lon="9.8212086"><ele>7.0</ele><time>2026-03-29T11:40:44.395Z</time></trkpt><trkpt lat="40.5323924" lon="9.8210606"><ele>7.0</ele><time>2026-03-29T11:40:45.397Z</time></trkpt><trkpt lat="40.5324651" lon="9.8209039"><ele>7.0</ele><time>2026-03-29T11:40:46.395Z</time></trkpt><trkpt lat="40.5325405" lon="9.8207374"><ele>8.0</ele><time>2026-03-29T11:40:47.398Z</time></trkpt><trkpt lat="40.53262" lon="9.8205628"><ele>9.0</ele><time>2026-03-29T11:40:48.398Z</time></trkpt><trkpt lat="40.5327026" lon="9.8203823"><ele>10.0</ele><time>2026-03-29T11:40:49.399Z</time></trkpt><trkpt lat="40.5327867" lon="9.8202015"><ele>11.333333333333334</ele><time>2026-03-29T11:40:50.399Z</time></trkpt><trkpt lat="40.5328709" lon="9.8200185"><ele>12.666666666666668</ele><time>2026-03-29T11:40:51.4Z</time></trkpt><trkpt lat="40.5329555" lon="9.8198331"><ele>14.0</ele><time>2026-03-29T11:40:52.393Z</time></trkpt><trkpt lat="40.5330408" lon="9.8196464"><ele>11.0</ele><time>2026-03-29T11:40:53.407Z</time></trkpt><trkpt lat="40.533127" lon="9.8194581"><ele>8.0</ele><time>2026-03-29T11:40:54.393Z</time></trkpt><trkpt lat="40.5332144" lon="9.8192681"><ele>5.0</ele><time>2026-03-29T11:40:55.404Z</time></trkpt><trkpt lat="40.5333022" lon="9.8190783"><ele>5.0</ele><time>2026-03-29T11:40:56.398Z</time></trkpt><trkpt lat="40.53339" lon="9.8188879"><ele>5.0</ele><time>2026-03-29T11:40:57.399Z</time></trkpt><trkpt lat="40.5334771" lon="9.8186968"><ele>5.0</ele><time>2026-03-29T11:40:58.394Z</time></trkpt><trkpt lat="40.5335647" lon="9.8185076"><ele>4.666666666666667</ele><time>2026-03-29T11:40:59.404Z</time></trkpt><trkpt lat="40.5336527" lon="9.8183206"><ele>4.333333333333333</ele><time>2026-03-29T11:41:00.402Z</time></trkpt><trkpt lat="40.5337398" lon="9.8181347"><ele>4.0</ele><time>2026-03-29T11:41:01.4Z</time></trkpt><trkpt lat="40.5338249" lon="9.8179517"><ele>4.0</ele><time>2026-03-29T11:41:02.39Z</time></trkpt><trkpt lat="40.5339054" lon="9.8177792"><ele>4.0</ele><time>2026-03-29T11:41:03.399Z</time></trkpt><trkpt lat="40.5339827" lon="9.8176071"><ele>4.0</ele><time>2026-03-29T11:41:04.398Z</time></trkpt><trkpt lat="40.5340532" lon="9.8174326"><ele>4.25</ele><time>2026-03-29T11:41:05.402Z</time></trkpt><trkpt lat="40.5341108" lon="9.8172576"><ele>4.5</ele><time>2026-03-29T11:41:06.395Z</time></trkpt><trkpt lat="40.5341505" lon="9.8170823"><ele>4.75</ele><time>2026-03-29T11:41:07.393Z</time></trkpt><trkpt lat="40.534173" lon="9.8169025"><ele>5.0</ele><time>2026-03-29T11:41:08.393Z</time></trkpt><trkpt lat="40.5341823" lon="9.8167215"><ele>5.5</ele><time>2026-03-29T11:41:09.396Z</time></trkpt><trkpt lat="40.5341753" lon="9.8165424"><ele>6.0</ele><time>2026-03-29T11:41:10.4Z</time></trkpt><trkpt lat="40.5341505" lon="9.8163656"><ele>6.5</ele><time>2026-03-29T11:41:11.39Z</time></trkpt><trkpt lat="40.5341048" lon="9.8161919"><ele>7.0</ele><time>2026-03-29T11:41:12.392Z</time></trkpt><trkpt lat="40.5340344" lon="9.8160145"><ele>7.0</ele><time>2026-03-29T11:41:13.401Z</time></trkpt><trkpt lat="40.5339468" lon="9.8158283"><ele>7.0</ele><time>2026-03-29T11:41:14.394Z</time></trkpt><trkpt lat="40.5338544" lon="9.8156276"><ele>7.0</ele><time>2026-03-29T11:41:15.395Z</time></trkpt><trkpt lat="40.5337604" lon="9.8154135"><ele>8.333333333333334</ele><time>2026-03-29T11:41:16.398Z</time></trkpt><trkpt lat="40.5336682" lon="9.8151881"><ele>9.666666666666666</ele><time>2026-03-29T11:41:17.395Z</time></trkpt><trkpt lat="40.533575" lon="9.8149525"><ele>11.0</ele><time>2026-03-29T11:41:18.393Z</time></trkpt><trkpt lat="40.5334751" lon="9.8147109"><ele>11.333333333333332</ele><time>2026-03-29T11:41:19.394Z</time></trkpt><trkpt lat="40.5333719" lon="9.8144671"><ele>11.666666666666666</ele><time>2026-03-29T11:41:20.398Z</time></trkpt><trkpt lat="40.5332672" lon="9.8142221"><ele>12.0</ele><time>2026-03-29T11:41:21.395Z</time></trkpt><trkpt lat="40.5331619" lon="9.8139795"><ele>12.0</ele><time>2026-03-29T11:41:22.394Z</time></trkpt><trkpt lat="40.5330549" lon="9.8137373"><ele>12.0</ele><time>2026-03-29T11:41:23.394Z</time></trkpt><trkpt lat="40.5329452" lon="9.8134969"><ele>12.0</ele><time>2026-03-29T11:41:24.4Z</time></trkpt><trkpt lat="40.5328344" lon="9.8132582"><ele>12.666666666666668</ele><time>2026-03-29T11:41:25.393Z</time></trkpt><trkpt lat="40.5327279" lon="9.8130281"><ele>13.333333333333334</ele><time>2026-03-29T11:41:26.398Z</time></trkpt><trkpt lat="40.5326259" lon="9.8128124"><ele>14.0</ele><time>2026-03-29T11:41:27.395Z</time></trkpt><trkpt lat="40.5325428" lon="9.8126173"><ele>14.0</ele><time>2026-03-29T11:41:28.395Z</time></trkpt><trkpt lat="40.5324791" lon="9.812423"><ele>14.0</ele><time>2026-03-29T11:41:29.395Z</time></trkpt><trkpt lat="40.532431" lon="9.8122206"><ele>14.0</ele><time>2026-03-29T11:41:30.395Z</time></trkpt><trkpt lat="40.5324085" lon="9.8120001"><ele>14.0</ele><time>2026-03-29T11:41:31.393Z</time></trkpt><trkpt lat="40.5323965" lon="9.8117676"><ele>14.0</ele><time>2026-03-29T11:41:32.393Z</time></trkpt><trkpt lat="40.5323862" lon="9.8115314"><ele>14.0</ele><time>2026-03-29T11:41:33.391Z</time></trkpt><trkpt lat="40.5323731" lon="9.8112811"><ele>14.0</ele><time>2026-03-29T11:41:34.39Z</time></trkpt><trkpt lat="40.532364" lon="9.8110281"><ele>14.0</ele><time>2026-03-29T11:41:35.394Z</time></trkpt><trkpt lat="40.5323565" lon="9.8107726"><ele>14.0</ele><time>2026-03-29T11:41:36.391Z</time></trkpt><trkpt lat="40.5323476" lon="9.8105135"><ele>13.666666666666668</ele><time>2026-03-29T11:41:37.395Z</time></trkpt><trkpt lat="40.5323423" lon="9.8102504"><ele>13.333333333333332</ele><time>2026-03-29T11:41:38.396Z</time></trkpt><trkpt lat="40.5323348" lon="9.8099896"><ele>13.0</ele><time>2026-03-29T11:41:39.394Z</time></trkpt><trkpt lat="40.5323281" lon="9.8097297"><ele>12.333333333333332</ele><time>2026-03-29T11:41:40.401Z</time></trkpt><trkpt lat="40.5323203" lon="9.8094707"><ele>11.666666666666666</ele><time>2026-03-29T11:41:41.391Z</time></trkpt><trkpt lat="40.5323109" lon="9.8092126"><ele>11.0</ele><time>2026-03-29T11:41:42.396Z</time></trkpt><trkpt lat="40.5323013" lon="9.8089564"><ele>10.666666666666666</ele><time>2026-03-29T11:41:43.391Z</time></trkpt><trkpt lat="40.5322915" lon="9.808704"><ele>10.333333333333334</ele><time>2026-03-29T11:41:44.391Z</time></trkpt><trkpt lat="40.5322815" lon="9.8084567"><ele>10.0</ele><time>2026-03-29T11:41:45.399Z</time></trkpt><trkpt lat="40.5322691" lon="9.8082129"><ele>10.0</ele><time>2026-03-29T11:41:46.395Z</time></trkpt><trkpt lat="40.5322517" lon="9.8079711"><ele>10.0</ele><time>2026-03-29T11:41:47.4Z</time></trkpt><trkpt lat="40.5322287" lon="9.8077305"><ele>10.0</ele><time>2026-03-29T11:41:48.387Z</time></trkpt><trkpt lat="40.5322" lon="9.8074901"><ele>10.0</ele><time>2026-03-29T11:41:49.39Z</time></trkpt><trkpt lat="40.5321702" lon="9.8072505"><ele>10.0</ele><time>2026-03-29T11:41:50.393Z</time></trkpt><trkpt lat="40.532137" lon="9.8070127"><ele>10.0</ele><time>2026-03-29T11:41:51.391Z</time></trkpt><trkpt lat="40.5321031" lon="9.806774"><ele>10.0</ele><time>2026-03-29T11:41:52.41Z</time></trkpt><trkpt lat="40.5320702" lon="9.8065324"><ele>10.0</ele><time>2026-03-29T11:41:53.395Z</time></trkpt><trkpt lat="40.532039" lon="9.8062922"><ele>10.0</ele><time>2026-03-29T11:41:54.399Z</time></trkpt><trkpt lat="40.5320073" lon="9.8060555"><ele>10.666666666666668</ele><time>2026-03-29T11:41:55.392Z</time></trkpt><trkpt lat="40.5319736" lon="9.8058221"><ele>11.333333333333334</ele><time>2026-03-29T11:41:56.395Z</time></trkpt><trkpt lat="40.531941" lon="9.805591"><ele>12.0</ele><time>2026-03-29T11:41:57.398Z</time></trkpt><trkpt lat="40.5319103" lon="9.8053611"><ele>11.333333333333334</ele><time>2026-03-29T11:41:58.398Z</time></trkpt><trkpt lat="40.5318817" lon="9.8051325"><ele>10.666666666666668</ele><time>2026-03-29T11:41:59.397Z</time></trkpt><trkpt lat="40.5318556" lon="9.8049022"><ele>10.0</ele><time>2026-03-29T11:42:00.398Z</time></trkpt><trkpt lat="40.5318333" lon="9.8046719"><ele>10.0</ele><time>2026-03-29T11:42:01.402Z</time></trkpt><trkpt lat="40.5318098" lon="9.8044436"><ele>10.0</ele><time>2026-03-29T11:42:02.39Z</time></trkpt><trkpt lat="40.5317854" lon="9.8042182"><ele>10.0</ele><time>2026-03-29T11:42:03.399Z</time></trkpt><trkpt lat="40.5317605" lon="9.8039976"><ele>9.333333333333334</ele><time>2026-03-29T11:42:04.39Z</time></trkpt><trkpt lat="40.5317358" lon="9.8037785"><ele>8.666666666666666</ele><time>2026-03-29T11:42:05.396Z</time></trkpt><trkpt lat="40.5317113" lon="9.8035608"><ele>8.0</ele><time>2026-03-29T11:42:06.4Z</time></trkpt><trkpt lat="40.5316896" lon="9.8033555"><ele>8.0</ele><time>2026-03-29T11:42:07.401Z</time></trkpt><trkpt lat="40.5316743" lon="9.80317"><ele>8.0</ele><time>2026-03-29T11:42:08.394Z</time></trkpt><trkpt lat="40.5316735" lon="9.8029983"><ele>8.0</ele><time>2026-03-29T11:42:09.397Z</time></trkpt><trkpt lat="40.5316966" lon="9.8028421"><ele>8.0</ele><time>2026-03-29T11:42:10.394Z</time></trkpt><trkpt lat="40.5317447" lon="9.8027064"><ele>8.0</ele><time>2026-03-29T11:42:11.393Z</time></trkpt><trkpt lat="40.5317994" lon="9.8025997"><ele>8.0</ele><time>2026-03-29T11:42:12.398Z</time></trkpt><trkpt lat="40.5318727" lon="9.8025285"><ele>8.0</ele><time>2026-03-29T11:42:13.398Z</time></trkpt><trkpt lat="40.5319632" lon="9.8024622"><ele>8.0</ele><time>2026-03-29T11:42:14.396Z</time></trkpt><trkpt lat="40.5320686" lon="9.802413"><ele>8.0</ele><time>2026-03-29T11:42:15.392Z</time></trkpt><trkpt lat="40.5321793" lon="9.8023636"><ele>7.75</ele><time>2026-03-29T11:42:16.394Z</time></trkpt><trkpt lat="40.5322924" lon="9.8023136"><ele>7.5</ele><time>2026-03-29T11:42:17.394Z</time></trkpt><trkpt lat="40.5324001" lon="9.8022593"><ele>7.25</ele><time>2026-03-29T11:42:18.396Z</time></trkpt><trkpt lat="40.5325082" lon="9.8022051"><ele>7.0</ele><time>2026-03-29T11:42:19.392Z</time></trkpt><trkpt lat="40.5326207" lon="9.8021544"><ele>7.0</ele><time>2026-03-29T11:42:20.394Z</time></trkpt><trkpt lat="40.5327373" lon="9.8021054"><ele>7.0</ele><time>2026-03-29T11:42:21.399Z</time></trkpt><trkpt lat="40.5328463" lon="9.8020577"><ele>7.0</ele><time>2026-03-29T11:42:22.407Z</time></trkpt><trkpt lat="40.5329493" lon="9.802018"><ele>7.0</ele><time>2026-03-29T11:42:23.389Z</time></trkpt><trkpt lat="40.5330491" lon="9.8019705"><ele>7.25</ele><time>2026-03-29T11:42:24.394Z</time></trkpt><trkpt lat="40.5331456" lon="9.801891"><ele>7.5</ele><time>2026-03-29T11:42:25.392Z</time></trkpt><trkpt lat="40.533244" lon="9.8017744"><ele>7.75</ele><time>2026-03-29T11:42:26.402Z</time></trkpt><trkpt lat="40.5333394" lon="9.8016352"><ele>8.0</ele><time>2026-03-29T11:42:27.391Z</time></trkpt><trkpt lat="40.5334488" lon="9.8014795"><ele>8.0</ele><time>2026-03-29T11:42:28.399Z</time></trkpt><trkpt lat="40.5335347" lon="9.8013138"><ele>8.0</ele><time>2026-03-29T11:42:29.391Z</time></trkpt><trkpt lat="40.5336042" lon="9.8011275"><ele>8.0</ele><time>2026-03-29T11:42:30.394Z</time></trkpt><trkpt lat="40.5336794" lon="9.8009376"><ele>9.0</ele><time>2026-03-29T11:42:31.39Z</time></trkpt><trkpt lat="40.5337545" lon="9.8007514"><ele>10.0</ele><time>2026-03-29T11:42:32.395Z</time></trkpt><trkpt lat="40.5338371" lon="9.8005746"><ele>11.0</ele><time>2026-03-29T11:42:33.392Z</time></trkpt><trkpt lat="40.5339166" lon="9.8003871"><ele>11.0</ele><time>2026-03-29T11:42:34.397Z</time></trkpt><trkpt lat="40.5339989" lon="9.8002025"><ele>11.0</ele><time>2026-03-29T11:42:35.398Z</time></trkpt><trkpt lat="40.5340794" lon="9.8000208"><ele>11.0</ele><time>2026-03-29T11:42:36.402Z</time></trkpt><trkpt lat="40.5341683" lon="9.7998324"><ele>11.0</ele><time>2026-03-29T11:42:37.399Z</time></trkpt><trkpt lat="40.5342504" lon="9.799647"><ele>11.0</ele><time>2026-03-29T11:42:38.397Z</time></trkpt><trkpt lat="40.5343383" lon="9.7994605"><ele>11.0</ele><time>2026-03-29T11:42:39.395Z</time></trkpt><trkpt lat="40.5344231" lon="9.7992694"><ele>11.0</ele><time>2026-03-29T11:42:40.396Z</time></trkpt><trkpt lat="40.5345106" lon="9.7990797"><ele>11.0</ele><time>2026-03-29T11:42:41.396Z</time></trkpt><trkpt lat="40.5345926" lon="9.7988952"><ele>11.0</ele><time>2026-03-29T11:42:42.391Z</time></trkpt><trkpt lat="40.5346757" lon="9.798713"><ele>11.0</ele><time>2026-03-29T11:42:43.393Z</time></trkpt><trkpt lat="40.5347559" lon="9.7985308"><ele>11.0</ele><time>2026-03-29T11:42:44.391Z</time></trkpt><trkpt lat="40.5348388" lon="9.7983476"><ele>11.0</ele><time>2026-03-29T11:42:45.395Z</time></trkpt><trkpt lat="40.534921" lon="9.7981607"><ele>10.333333333333332</ele><time>2026-03-29T11:42:46.386Z</time></trkpt><trkpt lat="40.5350032" lon="9.7979726"><ele>9.666666666666666</ele><time>2026-03-29T11:42:47.395Z</time></trkpt><trkpt lat="40.5350854" lon="9.7977912"><ele>9.0</ele><time>2026-03-29T11:42:48.4Z</time></trkpt><trkpt lat="40.5351652" lon="9.7976161"><ele>9.0</ele><time>2026-03-29T11:42:49.395Z</time></trkpt><trkpt lat="40.535242" lon="9.7974444"><ele>9.0</ele><time>2026-03-29T11:42:50.396Z</time></trkpt><trkpt lat="40.5353171" lon="9.7972748"><ele>9.0</ele><time>2026-03-29T11:42:51.397Z</time></trkpt><trkpt lat="40.5353946" lon="9.7971089"><ele>9.0</ele><time>2026-03-29T11:42:52.396Z</time></trkpt><trkpt lat="40.5354724" lon="9.796946"><ele>9.25</ele><time>2026-03-29T11:42:53.396Z</time></trkpt><trkpt lat="40.5355474" lon="9.7967847"><ele>9.5</ele><time>2026-03-29T11:42:54.4Z</time></trkpt><trkpt lat="40.5356112" lon="9.7966275"><ele>9.75</ele><time>2026-03-29T11:42:55.395Z</time></trkpt><trkpt lat="40.5356512" lon="9.7964672"><ele>10.0</ele><time>2026-03-29T11:42:56.4Z</time></trkpt><trkpt lat="40.5356581" lon="9.7963009"><ele>10.0</ele><time>2026-03-29T11:42:57.403Z</time></trkpt><trkpt lat="40.535634" lon="9.7961316"><ele>10.0</ele><time>2026-03-29T11:42:58.404Z</time></trkpt><trkpt lat="40.5355921" lon="9.7959578"><ele>10.0</ele><time>2026-03-29T11:42:59.4Z</time></trkpt><trkpt lat="40.5355396" lon="9.7957708"><ele>10.0</ele><time>2026-03-29T11:43:00.397Z</time></trkpt><trkpt lat="40.5354836" lon="9.7955696"><ele>10.333333333333334</ele><time>2026-03-29T11:43:01.399Z</time></trkpt><trkpt lat="40.5354273" lon="9.7953591"><ele>10.666666666666666</ele><time>2026-03-29T11:43:02.398Z</time></trkpt><trkpt lat="40.5353704" lon="9.7951411"><ele>11.0</ele><time>2026-03-29T11:43:03.401Z</time></trkpt><trkpt lat="40.5353149" lon="9.7949301"><ele>12.0</ele><time>2026-03-29T11:43:04.4Z</time></trkpt><trkpt lat="40.5352526" lon="9.7947178"><ele>13.0</ele><time>2026-03-29T11:43:05.396Z</time></trkpt><trkpt lat="40.5351995" lon="9.7945098"><ele>14.0</ele><time>2026-03-29T11:43:06.394Z</time></trkpt><trkpt lat="40.5351431" lon="9.7943094"><ele>14.0</ele><time>2026-03-29T11:43:07.398Z</time></trkpt><trkpt lat="40.5350877" lon="9.7941062"><ele>14.0</ele><time>2026-03-29T11:43:08.395Z</time></trkpt><trkpt lat="40.5350328" lon="9.7939018"><ele>14.0</ele><time>2026-03-29T11:43:09.401Z</time></trkpt><trkpt lat="40.5349805" lon="9.7937063"><ele>14.0</ele><time>2026-03-29T11:43:10.395Z</time></trkpt><trkpt lat="40.5349273" lon="9.7935083"><ele>14.0</ele><time>2026-03-29T11:43:11.397Z</time></trkpt><trkpt lat="40.5348784" lon="9.7933093"><ele>14.0</ele><time>2026-03-29T11:43:12.391Z</time></trkpt><trkpt lat="40.5348197" lon="9.7931061"><ele>14.333333333333334</ele><time>2026-03-29T11:43:13.393Z</time></trkpt><trkpt lat="40.5347639" lon="9.7929052"><ele>14.666666666666668</ele><time>2026-03-29T11:43:14.399Z</time></trkpt><trkpt lat="40.5347127" lon="9.7926978"><ele>15.0</ele><time>2026-03-29T11:43:15.403Z</time></trkpt><trkpt lat="40.5346658" lon="9.7924997"><ele>15.333333333333332</ele><time>2026-03-29T11:43:16.401Z</time></trkpt><trkpt lat="40.5346076" lon="9.7923133"><ele>15.666666666666666</ele><time>2026-03-29T11:43:17.393Z</time></trkpt><trkpt lat="40.5345447" lon="9.7921178"><ele>16.0</ele><time>2026-03-29T11:43:18.393Z</time></trkpt><trkpt lat="40.5344869" lon="9.7919505"><ele>16.25</ele><time>2026-03-29T11:43:19.394Z</time></trkpt><trkpt lat="40.5344366" lon="9.7917833"><ele>16.5</ele><time>2026-03-29T11:43:20.394Z</time></trkpt><trkpt lat="40.5344069" lon="9.7915977"><ele>16.75</ele><time>2026-03-29T11:43:21.393Z</time></trkpt><trkpt lat="40.5343616" lon="9.7914205"><ele>17.0</ele><time>2026-03-29T11:43:22.399Z</time></trkpt><trkpt lat="40.5343234" lon="9.7912459"><ele>17.0</ele><time>2026-03-29T11:43:23.393Z</time></trkpt><trkpt lat="40.5342812" lon="9.7910839"><ele>17.0</ele><time>2026-03-29T11:43:24.399Z</time></trkpt><trkpt lat="40.5342459" lon="9.7909387"><ele>17.0</ele><time>2026-03-29T11:43:25.397Z</time></trkpt><trkpt lat="40.5342223" lon="9.7908173"><ele>17.0</ele><time>2026-03-29T11:43:26.403Z</time></trkpt><trkpt lat="40.5342117" lon="9.7907079"><ele>17.0</ele><time>2026-03-29T11:43:27.394Z</time></trkpt><trkpt lat="40.5342043" lon="9.7905978"><ele>17.4</ele><time>2026-03-29T11:43:28.393Z</time></trkpt><trkpt lat="40.5342115" lon="9.7905033"><ele>17.799999999999997</ele><time>2026-03-29T11:43:29.39Z</time></trkpt><trkpt lat="40.5342507" lon="9.7903959"><ele>18.2</ele><time>2026-03-29T11:43:31.394Z</time></trkpt><trkpt lat="40.5343246" lon="9.7903049"><ele>18.599999999999998</ele><time>2026-03-29T11:43:35.395Z</time></trkpt><trkpt lat="40.5344297" lon="9.7901954"><ele>19.0</ele><time>2026-03-29T11:43:37.392Z</time></trkpt><trkpt lat="40.5344969" lon="9.7901311"><ele>19.5</ele><time>2026-03-29T11:43:38.396Z</time></trkpt><trkpt lat="40.5345953" lon="9.7900601"><ele>20.0</ele><time>2026-03-29T11:43:39.399Z</time></trkpt><trkpt lat="40.534713" lon="9.7899737"><ele>20.5</ele><time>2026-03-29T11:43:40.393Z</time></trkpt><trkpt lat="40.5348362" lon="9.7898866"><ele>21.0</ele><time>2026-03-29T11:43:41.421Z</time></trkpt><trkpt lat="40.5349606" lon="9.7897909"><ele>21.0</ele><time>2026-03-29T11:43:42.394Z</time></trkpt><trkpt lat="40.5351014" lon="9.7896922"><ele>21.0</ele><time>2026-03-29T11:43:43.392Z</time></trkpt><trkpt lat="40.5352557" lon="9.7895785"><ele>21.0</ele><time>2026-03-29T11:43:44.392Z</time></trkpt><trkpt lat="40.5354147" lon="9.7894693"><ele>19.0</ele><time>2026-03-29T11:43:45.388Z</time></trkpt><trkpt lat="40.5355782" lon="9.7893553"><ele>17.0</ele><time>2026-03-29T11:43:46.397Z</time></trkpt><trkpt lat="40.5357429" lon="9.7892349"><ele>15.0</ele><time>2026-03-29T11:43:47.393Z</time></trkpt><trkpt lat="40.5359159" lon="9.7891129"><ele>14.0</ele><time>2026-03-29T11:43:48.4Z</time></trkpt><trkpt lat="40.5360807" lon="9.7889954"><ele>13.0</ele><time>2026-03-29T11:43:49.394Z</time></trkpt><trkpt lat="40.5362378" lon="9.7888876"><ele>12.0</ele><time>2026-03-29T11:43:50.392Z</time></trkpt><trkpt lat="40.5363879" lon="9.7887837"><ele>11.0</ele><time>2026-03-29T11:43:51.384Z</time></trkpt><trkpt lat="40.5365332" lon="9.788685"><ele>10.0</ele><time>2026-03-29T11:43:52.394Z</time></trkpt><trkpt lat="40.536669" lon="9.7885918"><ele>9.0</ele><time>2026-03-29T11:43:53.398Z</time></trkpt><trkpt lat="40.5367991" lon="9.7885013"><ele>9.0</ele><time>2026-03-29T11:43:54.391Z</time></trkpt><trkpt lat="40.5369258" lon="9.7884139"><ele>9.0</ele><time>2026-03-29T11:43:55.402Z</time></trkpt><trkpt lat="40.537048" lon="9.7883293"><ele>9.0</ele><time>2026-03-29T11:43:56.393Z</time></trkpt><trkpt lat="40.5371672" lon="9.7882484"><ele>9.0</ele><time>2026-03-29T11:43:57.395Z</time></trkpt><trkpt lat="40.5372857" lon="9.7881654"><ele>8.75</ele><time>2026-03-29T11:43:58.393Z</time></trkpt><trkpt lat="40.5374045" lon="9.7880808"><ele>8.5</ele><time>2026-03-29T11:43:59.398Z</time></trkpt><trkpt lat="40.5375259" lon="9.7879953"><ele>8.25</ele><time>2026-03-29T11:44:00.393Z</time></trkpt><trkpt lat="40.5376519" lon="9.7879069"><ele>8.0</ele><time>2026-03-29T11:44:01.413Z</time></trkpt><trkpt lat="40.5377856" lon="9.787815"><ele>7.666666666666666</ele><time>2026-03-29T11:44:02.394Z</time></trkpt><trkpt lat="40.5379253" lon="9.7877195"><ele>7.333333333333334</ele><time>2026-03-29T11:44:03.399Z</time></trkpt><trkpt lat="40.5380634" lon="9.7876235"><ele>7.0</ele><time>2026-03-29T11:44:04.392Z</time></trkpt><trkpt lat="40.5382016" lon="9.7875277"><ele>8.0</ele><time>2026-03-29T11:44:05.395Z</time></trkpt><trkpt lat="40.5383419" lon="9.7874299"><ele>9.0</ele><time>2026-03-29T11:44:06.395Z</time></trkpt><trkpt lat="40.5384847" lon="9.7873321"><ele>10.0</ele><time>2026-03-29T11:44:07.395Z</time></trkpt><trkpt lat="40.5386305" lon="9.787235"><ele>10.333333333333334</ele><time>2026-03-29T11:44:08.394Z</time></trkpt><trkpt lat="40.5387761" lon="9.787135"><ele>10.666666666666666</ele><time>2026-03-29T11:44:09.4Z</time></trkpt><trkpt lat="40.538918" lon="9.7870409"><ele>11.0</ele><time>2026-03-29T11:44:10.391Z</time></trkpt><trkpt lat="40.5390623" lon="9.7869417"><ele>10.333333333333332</ele><time>2026-03-29T11:44:11.397Z</time></trkpt><trkpt lat="40.5392082" lon="9.7868384"><ele>9.666666666666666</ele><time>2026-03-29T11:44:12.394Z</time></trkpt><trkpt lat="40.5393583" lon="9.7867324"><ele>9.0</ele><time>2026-03-29T11:44:13.407Z</time></trkpt><trkpt lat="40.5395032" lon="9.786633"><ele>9.333333333333334</ele><time>2026-03-29T11:44:14.397Z</time></trkpt><trkpt lat="40.5396421" lon="9.7865392"><ele>9.666666666666668</ele><time>2026-03-29T11:44:15.396Z</time></trkpt><trkpt lat="40.5397766" lon="9.7864487"><ele>10.0</ele><time>2026-03-29T11:44:16.393Z</time></trkpt><trkpt lat="40.5399106" lon="9.7863549"><ele>10.0</ele><time>2026-03-29T11:44:17.394Z</time></trkpt><trkpt lat="40.540039" lon="9.7862673"><ele>10.0</ele><time>2026-03-29T11:44:18.394Z</time></trkpt><trkpt lat="40.5401622" lon="9.7861796"><ele>10.0</ele><time>2026-03-29T11:44:19.392Z</time></trkpt><trkpt lat="40.5402776" lon="9.7860926"><ele>10.0</ele><time>2026-03-29T11:44:20.397Z</time></trkpt><trkpt lat="40.540389" lon="9.7860108"><ele>9.75</ele><time>2026-03-29T11:44:21.392Z</time></trkpt><trkpt lat="40.5405016" lon="9.7859294"><ele>9.5</ele><time>2026-03-29T11:44:22.396Z</time></trkpt><trkpt lat="40.5406143" lon="9.7858499"><ele>9.25</ele><time>2026-03-29T11:44:23.397Z</time></trkpt><trkpt lat="40.5407272" lon="9.7857669"><ele>9.0</ele><time>2026-03-29T11:44:24.394Z</time></trkpt><trkpt lat="40.5408442" lon="9.7856828"><ele>9.0</ele><time>2026-03-29T11:44:25.393Z</time></trkpt><trkpt lat="40.5409638" lon="9.785597"><ele>9.0</ele><time>2026-03-29T11:44:26.396Z</time></trkpt><trkpt lat="40.5410871" lon="9.7855117"><ele>9.0</ele><time>2026-03-29T11:44:27.398Z</time></trkpt><trkpt lat="40.5412096" lon="9.7854257"><ele>9.0</ele><time>2026-03-29T11:44:28.4Z</time></trkpt><trkpt lat="40.5413342" lon="9.785341"><ele>9.0</ele><time>2026-03-29T11:44:29.41Z</time></trkpt><trkpt lat="40.5414556" lon="9.7852589"><ele>9.0</ele><time>2026-03-29T11:44:30.391Z</time></trkpt><trkpt lat="40.5415767" lon="9.7851767"><ele>9.0</ele><time>2026-03-29T11:44:31.393Z</time></trkpt><trkpt lat="40.5416973" lon="9.7850938"><ele>9.0</ele><time>2026-03-29T11:44:32.393Z</time></trkpt><trkpt lat="40.5418138" lon="9.7850165"><ele>9.0</ele><time>2026-03-29T11:44:33.396Z</time></trkpt><trkpt lat="40.5419305" lon="9.7849426"><ele>9.0</ele><time>2026-03-29T11:44:34.395Z</time></trkpt><trkpt lat="40.5420527" lon="9.7848666"><ele>9.0</ele><time>2026-03-29T11:44:35.398Z</time></trkpt><trkpt lat="40.5421767" lon="9.7847883"><ele>9.0</ele><time>2026-03-29T11:44:36.397Z</time></trkpt><trkpt lat="40.54231" lon="9.7847042"><ele>8.333333333333334</ele><time>2026-03-29T11:44:37.391Z</time></trkpt><trkpt lat="40.5424528" lon="9.7846146"><ele>7.666666666666667</ele><time>2026-03-29T11:44:38.403Z</time></trkpt><trkpt lat="40.5426047" lon="9.7845202"><ele>7.0</ele><time>2026-03-29T11:44:39.4Z</time></trkpt><trkpt lat="40.542763" lon="9.7844215"><ele>5.666666666666667</ele><time>2026-03-29T11:44:40.395Z</time></trkpt><trkpt lat="40.5429254" lon="9.7843196"><ele>4.333333333333334</ele><time>2026-03-29T11:44:41.397Z</time></trkpt><trkpt lat="40.5430872" lon="9.7842195"><ele>3.0</ele><time>2026-03-29T11:44:42.397Z</time></trkpt><trkpt lat="40.5432486" lon="9.7841199"><ele>3.0</ele><time>2026-03-29T11:44:43.402Z</time></trkpt><trkpt lat="40.54341" lon="9.7840211"><ele>3.0</ele><time>2026-03-29T11:44:44.393Z</time></trkpt><trkpt lat="40.5435707" lon="9.7839189"><ele>3.0</ele><time>2026-03-29T11:44:45.399Z</time></trkpt><trkpt lat="40.543734" lon="9.7838208"><ele>5.0</ele><time>2026-03-29T11:44:46.401Z</time></trkpt><trkpt lat="40.5438949" lon="9.783719"><ele>7.0</ele><time>2026-03-29T11:44:47.391Z</time></trkpt><trkpt lat="40.5440507" lon="9.783618"><ele>9.0</ele><time>2026-03-29T11:44:48.39Z</time></trkpt><trkpt lat="40.544199" lon="9.7835231"><ele>8.666666666666666</ele><time>2026-03-29T11:44:49.399Z</time></trkpt><trkpt lat="40.544343" lon="9.7834372"><ele>8.333333333333332</ele><time>2026-03-29T11:44:50.393Z</time></trkpt><trkpt lat="40.5444868" lon="9.7833659"><ele>8.0</ele><time>2026-03-29T11:44:51.401Z</time></trkpt><trkpt lat="40.5446303" lon="9.7833227"><ele>9.0</ele><time>2026-03-29T11:44:52.4Z</time></trkpt><trkpt lat="40.544776" lon="9.7833093"><ele>10.0</ele><time>2026-03-29T11:44:53.394Z</time></trkpt><trkpt lat="40.5449263" lon="9.7833278"><ele>11.0</ele><time>2026-03-29T11:44:54.395Z</time></trkpt><trkpt lat="40.5450816" lon="9.7833742"><ele>11.0</ele><time>2026-03-29T11:44:55.394Z</time></trkpt><trkpt lat="40.5452412" lon="9.7834461"><ele>11.0</ele><time>2026-03-29T11:44:56.401Z</time></trkpt><trkpt lat="40.5454014" lon="9.7835263"><ele>11.0</ele><time>2026-03-29T11:44:57.402Z</time></trkpt><trkpt lat="40.545561" lon="9.7836047"><ele>11.333333333333332</ele><time>2026-03-29T11:44:58.398Z</time></trkpt><trkpt lat="40.5457228" lon="9.7836845"><ele>11.666666666666666</ele><time>2026-03-29T11:44:59.408Z</time></trkpt><trkpt lat="40.5458888" lon="9.7837679"><ele>12.0</ele><time>2026-03-29T11:45:00.392Z</time></trkpt><trkpt lat="40.5460589" lon="9.7838534"><ele>11.333333333333334</ele><time>2026-03-29T11:45:01.395Z</time></trkpt><trkpt lat="40.5462335" lon="9.7839409"><ele>10.666666666666668</ele><time>2026-03-29T11:45:02.4Z</time></trkpt><trkpt lat="40.5464132" lon="9.7840309"><ele>10.0</ele><time>2026-03-29T11:45:03.401Z</time></trkpt><trkpt lat="40.5465979" lon="9.7841237"><ele>10.0</ele><time>2026-03-29T11:45:04.395Z</time></trkpt><trkpt lat="40.5467859" lon="9.7842164"><ele>10.0</ele><time>2026-03-29T11:45:05.401Z</time></trkpt><trkpt lat="40.5469723" lon="9.7843104"><ele>10.0</ele><time>2026-03-29T11:45:06.397Z</time></trkpt><trkpt lat="40.5471663" lon="9.7844081"><ele>10.0</ele><time>2026-03-29T11:45:07.399Z</time></trkpt><trkpt lat="40.5473553" lon="9.7845065"><ele>10.0</ele><time>2026-03-29T11:45:08.392Z</time></trkpt><trkpt lat="40.5475415" lon="9.7845979"><ele>10.0</ele><time>2026-03-29T11:45:09.39Z</time></trkpt><trkpt lat="40.5477248" lon="9.7846906"><ele>9.0</ele><time>2026-03-29T11:45:10.391Z</time></trkpt><trkpt lat="40.5479032" lon="9.7847835"><ele>8.0</ele><time>2026-03-29T11:45:11.4Z</time></trkpt><trkpt lat="40.5480859" lon="9.7848688"><ele>7.0</ele><time>2026-03-29T11:45:12.39Z</time></trkpt><trkpt lat="40.548266" lon="9.7849544"><ele>7.0</ele><time>2026-03-29T11:45:13.396Z</time></trkpt><trkpt lat="40.5484462" lon="9.7850419"><ele>7.0</ele><time>2026-03-29T11:45:14.399Z</time></trkpt><trkpt lat="40.5486247" lon="9.7851301"><ele>7.0</ele><time>2026-03-29T11:45:15.396Z</time></trkpt><trkpt lat="40.5488033" lon="9.7852203"><ele>6.666666666666667</ele><time>2026-03-29T11:45:16.393Z</time></trkpt><trkpt lat="40.5489833" lon="9.7853107"><ele>6.333333333333334</ele><time>2026-03-29T11:45:17.398Z</time></trkpt><trkpt lat="40.549165" lon="9.7853979"><ele>6.0</ele><time>2026-03-29T11:45:18.39Z</time></trkpt><trkpt lat="40.549352" lon="9.7854878"><ele>6.0</ele><time>2026-03-29T11:45:19.397Z</time></trkpt><trkpt lat="40.5495358" lon="9.7855735"><ele>6.0</ele><time>2026-03-29T11:45:20.398Z</time></trkpt><trkpt lat="40.5497207" lon="9.7856471"><ele>6.0</ele><time>2026-03-29T11:45:21.397Z</time></trkpt><trkpt lat="40.549908" lon="9.7857"><ele>6.0</ele><time>2026-03-29T11:45:22.406Z</time></trkpt><trkpt lat="40.5500993" lon="9.7857443"><ele>6.0</ele><time>2026-03-29T11:45:23.396Z</time></trkpt><trkpt lat="40.5502916" lon="9.7857874"><ele>6.0</ele><time>2026-03-29T11:45:24.395Z</time></trkpt><trkpt lat="40.5504827" lon="9.7858345"><ele>6.0</ele><time>2026-03-29T11:45:25.399Z</time></trkpt><trkpt lat="40.5506706" lon="9.7858961"><ele>6.0</ele><time>2026-03-29T11:45:26.397Z</time></trkpt><trkpt lat="40.5508533" lon="9.7859844"><ele>6.0</ele><time>2026-03-29T11:45:27.395Z</time></trkpt><trkpt lat="40.5510223" lon="9.7861019"><ele>6.333333333333334</ele><time>2026-03-29T11:45:28.396Z</time></trkpt><trkpt lat="40.5511835" lon="9.7862416"><ele>6.666666666666667</ele><time>2026-03-29T11:45:29.394Z</time></trkpt><trkpt lat="40.5513418" lon="9.78639"><ele>7.0</ele><time>2026-03-29T11:45:30.4Z</time></trkpt><trkpt lat="40.5514977" lon="9.7865275"><ele>7.333333333333334</ele><time>2026-03-29T11:45:31.395Z</time></trkpt><trkpt lat="40.5516621" lon="9.7866342"><ele>7.666666666666666</ele><time>2026-03-29T11:45:32.394Z</time></trkpt><trkpt lat="40.5518384" lon="9.786712"><ele>8.0</ele><time>2026-03-29T11:45:33.396Z</time></trkpt><trkpt lat="40.552025" lon="9.7867724"><ele>8.333333333333332</ele><time>2026-03-29T11:45:34.392Z</time></trkpt><trkpt lat="40.5522182" lon="9.7868241"><ele>8.666666666666666</ele><time>2026-03-29T11:45:35.418Z</time></trkpt><trkpt lat="40.5524169" lon="9.78687"><ele>9.0</ele><time>2026-03-29T11:45:36.392Z</time></trkpt><trkpt lat="40.5526143" lon="9.7869161"><ele>8.0</ele><time>2026-03-29T11:45:37.388Z</time></trkpt><trkpt lat="40.5528065" lon="9.7869755"><ele>7.0</ele><time>2026-03-29T11:45:38.391Z</time></trkpt><trkpt lat="40.5529941" lon="9.7870383"><ele>6.0</ele><time>2026-03-29T11:45:39.39Z</time></trkpt><trkpt lat="40.5531742" lon="9.7871492"><ele>6.0</ele><time>2026-03-29T11:45:40.398Z</time></trkpt><trkpt lat="40.5533597" lon="9.7872703"><ele>6.0</ele><time>2026-03-29T11:45:41.384Z</time></trkpt><trkpt lat="40.5535463" lon="9.7873958"><ele>6.0</ele><time>2026-03-29T11:45:42.393Z</time></trkpt><trkpt lat="40.5537322" lon="9.7875193"><ele>6.666666666666666</ele><time>2026-03-29T11:45:43.39Z</time></trkpt><trkpt lat="40.5539198" lon="9.7876488"><ele>7.333333333333333</ele><time>2026-03-29T11:45:44.394Z</time></trkpt><trkpt lat="40.5541109" lon="9.7877747"><ele>8.0</ele><time>2026-03-29T11:45:45.394Z</time></trkpt><trkpt lat="40.5543039" lon="9.7878967"><ele>8.0</ele><time>2026-03-29T11:45:46.388Z</time></trkpt><trkpt lat="40.5544954" lon="9.7880176"><ele>8.0</ele><time>2026-03-29T11:45:47.387Z</time></trkpt><trkpt lat="40.554687" lon="9.7881284"><ele>8.0</ele><time>2026-03-29T11:45:48.388Z</time></trkpt><trkpt lat="40.5548785" lon="9.7882194"><ele>8.333333333333332</ele><time>2026-03-29T11:45:49.392Z</time></trkpt><trkpt lat="40.5550769" lon="9.7882788"><ele>8.666666666666666</ele><time>2026-03-29T11:45:50.387Z</time></trkpt><trkpt lat="40.5552794" lon="9.7883171"><ele>9.0</ele><time>2026-03-29T11:45:51.41Z</time></trkpt><trkpt lat="40.5554861" lon="9.7883491"><ele>9.0</ele><time>2026-03-29T11:45:52.386Z</time></trkpt><trkpt lat="40.5556919" lon="9.7883772"><ele>9.0</ele><time>2026-03-29T11:45:53.389Z</time></trkpt><trkpt lat="40.5558987" lon="9.7884134"><ele>9.0</ele><time>2026-03-29T11:45:54.389Z</time></trkpt><trkpt lat="40.5561019" lon="9.7884419"><ele>9.0</ele><time>2026-03-29T11:45:55.391Z</time></trkpt><trkpt lat="40.5562851" lon="9.7884865"><ele>9.0</ele><time>2026-03-29T11:45:56.39Z</time></trkpt><trkpt lat="40.5564523" lon="9.7885481"><ele>9.0</ele><time>2026-03-29T11:45:57.39Z</time></trkpt><trkpt lat="40.5566015" lon="9.7886103"><ele>8.6</ele><time>2026-03-29T11:45:58.387Z</time></trkpt><trkpt lat="40.5567344" lon="9.7886705"><ele>8.2</ele><time>2026-03-29T11:45:59.388Z</time></trkpt><trkpt lat="40.556848" lon="9.7887208"><ele>7.799999999999999</ele><time>2026-03-29T11:46:00.39Z</time></trkpt><trkpt lat="40.556936" lon="9.7887604"><ele>7.3999999999999995</ele><time>2026-03-29T11:46:01.397Z</time></trkpt><trkpt lat="40.5569991" lon="9.7887929"><ele>7.0</ele><time>2026-03-29T11:46:02.391Z</time></trkpt><trkpt lat="40.5570709" lon="9.7888659"><ele>7.0</ele><time>2026-03-29T11:46:04.399Z</time></trkpt><trkpt lat="40.5570669" lon="9.7889902"><ele>6.999999999999999</ele><time>2026-03-29T11:46:07.401Z</time></trkpt><trkpt lat="40.5570009" lon="9.7890897"><ele>6.999999999999999</ele><time>2026-03-29T11:46:09.395Z</time></trkpt><trkpt lat="40.5569565" lon="9.7891668"><ele>7.0</ele><time>2026-03-29T11:46:10.411Z</time></trkpt><trkpt lat="40.556904" lon="9.7892574"><ele>7.0</ele><time>2026-03-29T11:46:11.395Z</time></trkpt><trkpt lat="40.556836" lon="9.7893619"><ele>7.199999999999999</ele><time>2026-03-29T11:46:12.396Z</time></trkpt><trkpt lat="40.5567626" lon="9.789473"><ele>7.3999999999999995</ele><time>2026-03-29T11:46:13.391Z</time></trkpt><trkpt lat="40.5566896" lon="9.7895781"><ele>7.6000000000000005</ele><time>2026-03-29T11:46:14.401Z</time></trkpt><trkpt lat="40.556614" lon="9.7896786"><ele>7.800000000000001</ele><time>2026-03-29T11:46:15.398Z</time></trkpt><trkpt lat="40.5565397" lon="9.7897871"><ele>8.0</ele><time>2026-03-29T11:46:16.395Z</time></trkpt><trkpt lat="40.5564667" lon="9.7898987"><ele>8.0</ele><time>2026-03-29T11:46:17.392Z</time></trkpt><trkpt lat="40.5563926" lon="9.7900087"><ele>8.0</ele><time>2026-03-29T11:46:18.394Z</time></trkpt><trkpt lat="40.5563166" lon="9.7901197"><ele>8.0</ele><time>2026-03-29T11:46:19.39Z</time></trkpt><trkpt lat="40.5562357" lon="9.7902322"><ele>8.0</ele><time>2026-03-29T11:46:20.405Z</time></trkpt><trkpt lat="40.5561544" lon="9.7903497"><ele>7.800000000000001</ele><time>2026-03-29T11:46:21.393Z</time></trkpt><trkpt lat="40.5560737" lon="9.7904635"><ele>7.6000000000000005</ele><time>2026-03-29T11:46:22.398Z</time></trkpt><trkpt lat="40.5560017" lon="9.7905707"><ele>7.3999999999999995</ele><time>2026-03-29T11:46:23.392Z</time></trkpt><trkpt lat="40.5559318" lon="9.7906793"><ele>7.199999999999999</ele><time>2026-03-29T11:46:24.399Z</time></trkpt><trkpt lat="40.5558584" lon="9.790794"><ele>7.0</ele><time>2026-03-29T11:46:25.395Z</time></trkpt><trkpt lat="40.5557795" lon="9.7909105"><ele>6.5</ele><time>2026-03-29T11:46:26.397Z</time></trkpt><trkpt lat="40.5556979" lon="9.7910277"><ele>6.0</ele><time>2026-03-29T11:46:27.398Z</time></trkpt><trkpt lat="40.5556181" lon="9.7911493"><ele>5.5</ele><time>2026-03-29T11:46:28.399Z</time></trkpt><trkpt lat="40.5555428" lon="9.7912793"><ele>5.0</ele><time>2026-03-29T11:46:29.405Z</time></trkpt><trkpt lat="40.5554708" lon="9.7914214"><ele>5.0</ele><time>2026-03-29T11:46:30.395Z</time></trkpt><trkpt lat="40.5554035" lon="9.7915729"><ele>5.0</ele><time>2026-03-29T11:46:31.394Z</time></trkpt><trkpt lat="40.5553415" lon="9.7917297"><ele>5.0</ele><time>2026-03-29T11:46:32.392Z</time></trkpt><trkpt lat="40.5552842" lon="9.7918928"><ele>5.0</ele><time>2026-03-29T11:46:33.391Z</time></trkpt><trkpt lat="40.555234" lon="9.7920619"><ele>4.75</ele><time>2026-03-29T11:46:34.398Z</time></trkpt><trkpt lat="40.5551927" lon="9.7922338"><ele>4.5</ele><time>2026-03-29T11:46:35.4Z</time></trkpt><trkpt lat="40.555162" lon="9.7923941"><ele>4.25</ele><time>2026-03-29T11:46:36.395Z</time></trkpt><trkpt lat="40.5551312" lon="9.7925433"><ele>4.0</ele><time>2026-03-29T11:46:37.4Z</time></trkpt><trkpt lat="40.5551129" lon="9.7926497"><ele>3.9999999999999996</ele><time>2026-03-29T11:46:38.392Z</time></trkpt><trkpt lat="40.5550973" lon="9.7927341"><ele>4.0</ele><time>2026-03-29T11:46:39.391Z</time></trkpt><trkpt lat="40.5550819" lon="9.7928243"><ele>4.0</ele><time>2026-03-29T11:46:41.392Z</time></trkpt><trkpt lat="40.5550927" lon="9.79292"><ele>4.0</ele><time>2026-03-29T11:58:05.391Z</time></trkpt><trkpt lat="40.5551447" lon="9.7930276"><ele>3.9999999999999996</ele><time>2026-03-29T11:58:07.39Z</time></trkpt><trkpt lat="40.5551625" lon="9.7931179"><ele>4.0</ele><time>2026-03-29T11:58:09.39Z</time></trkpt><trkpt lat="40.555177" lon="9.7932184"><ele>4.0</ele><time>2026-03-29T11:58:12.396Z</time></trkpt><trkpt lat="40.5551735" lon="9.7933029"><ele>4.0</ele><time>2026-03-29T11:58:14.39Z</time></trkpt><trkpt lat="40.5551897" lon="9.7934144"><ele>4.0</ele><time>2026-03-29T11:58:16.399Z</time></trkpt><trkpt lat="40.5552322" lon="9.7935474"><ele>4.0</ele><time>2026-03-29T11:58:18.391Z</time></trkpt><trkpt lat="40.5552709" lon="9.7936579"><ele>4.0</ele><time>2026-03-29T11:58:20.395Z</time></trkpt><trkpt lat="40.5553706" lon="9.7937119"><ele>3.4999999999999996</ele><time>2026-03-29T11:58:22.393Z</time></trkpt><trkpt lat="40.5554407" lon="9.7937259"><ele>3.0</ele><time>2026-03-29T11:58:23.39Z</time></trkpt><trkpt lat="40.5555133" lon="9.7937375"><ele>2.5</ele><time>2026-03-29T11:58:24.391Z</time></trkpt><trkpt lat="40.5555912" lon="9.7937493"><ele>2.0</ele><time>2026-03-29T11:58:25.39Z</time></trkpt><trkpt lat="40.5556676" lon="9.7937627"><ele>1.5</ele><time>2026-03-29T11:58:26.393Z</time></trkpt><trkpt lat="40.5557478" lon="9.7937706"><ele>1.0</ele><time>2026-03-29T11:58:27.394Z</time></trkpt><trkpt lat="40.55583" lon="9.7937761"><ele>1.0</ele><time>2026-03-29T11:58:28.393Z</time></trkpt><trkpt lat="40.5559192" lon="9.7937838"><ele>1.0</ele><time>2026-03-29T11:58:29.393Z</time></trkpt><trkpt lat="40.5560146" lon="9.79378"><ele>1.0</ele><time>2026-03-29T11:58:30.388Z</time></trkpt><trkpt lat="40.5561188" lon="9.7937729"><ele>1.0</ele><time>2026-03-29T11:58:31.392Z</time></trkpt><trkpt lat="40.5562279" lon="9.7937572"><ele>1.0</ele><time>2026-03-29T11:58:32.385Z</time></trkpt><trkpt lat="40.5563352" lon="9.7937422"><ele>0.9999999999999999</ele><time>2026-03-29T11:58:33.396Z</time></trkpt><trkpt lat="40.5564316" lon="9.7937298"><ele>1.0</ele><time>2026-03-29T11:58:34.387Z</time></trkpt><trkpt lat="40.5565195" lon="9.7937196"><ele>1.0</ele><time>2026-03-29T11:58:35.393Z</time></trkpt><trkpt lat="40.5565989" lon="9.7937068"><ele>1.0</ele><time>2026-03-29T11:58:36.393Z</time></trkpt><trkpt lat="40.5566794" lon="9.7936984"><ele>0.9999999999999999</ele><time>2026-03-29T11:58:37.392Z</time></trkpt><trkpt lat="40.5567697" lon="9.7937013"><ele>1.0</ele><time>2026-03-29T11:58:38.389Z</time></trkpt><trkpt lat="40.5568828" lon="9.7937013"><ele>1.0</ele><time>2026-03-29T11:58:39.389Z</time></trkpt><trkpt lat="40.5569935" lon="9.793704"><ele>1.0</ele><time>2026-03-29T11:58:40.39Z</time></trkpt><trkpt lat="40.5570998" lon="9.7937093"><ele>1.0</ele><time>2026-03-29T11:58:41.394Z</time></trkpt><trkpt lat="40.5571949" lon="9.793709"><ele>1.0</ele><time>2026-03-29T11:58:42.392Z</time></trkpt><trkpt lat="40.5572758" lon="9.7937059"><ele>1.0</ele><time>2026-03-29T11:58:43.396Z</time></trkpt><trkpt lat="40.5573487" lon="9.7937039"><ele>0.8333333333333333</ele><time>2026-03-29T11:58:44.394Z</time></trkpt><trkpt lat="40.5574131" lon="9.7936789"><ele>0.6666666666666666</ele><time>2026-03-29T11:58:45.395Z</time></trkpt><trkpt lat="40.5575255" lon="9.7936007"><ele>0.5</ele><time>2026-03-29T11:58:47.401Z</time></trkpt><trkpt lat="40.557572" lon="9.7935252"><ele>0.3333333333333333</ele><time>2026-03-29T11:58:48.405Z</time></trkpt><trkpt lat="40.5576605" lon="9.7934594"><ele>0.16666666666666666</ele><time>2026-03-29T11:58:50.388Z</time></trkpt><trkpt lat="40.5577139" lon="9.7934152"><ele>0.0</ele><time>2026-03-29T11:58:51.393Z</time></trkpt><trkpt lat="40.5577683" lon="9.7933662"><ele>0.0</ele><time>2026-03-29T11:58:52.388Z</time></trkpt><trkpt lat="40.5578346" lon="9.7933343"><ele>0.0</ele><time>2026-03-29T11:58:53.397Z</time></trkpt><trkpt lat="40.5579124" lon="9.7933075"><ele>0.0</ele><time>2026-03-29T11:58:55.392Z</time></trkpt><trkpt lat="40.5579792" lon="9.7932498"><ele>0.0</ele><time>2026-03-29T11:58:57.4Z</time></trkpt><trkpt lat="40.5580314" lon="9.7932001"><ele>0.0</ele><time>2026-03-29T11:58:58.399Z</time></trkpt><trkpt lat="40.558091" lon="9.7931467"><ele>0.0</ele><time>2026-03-29T11:58:59.392Z</time></trkpt><trkpt lat="40.5581734" lon="9.7930941"><ele>0.0</ele><time>2026-03-29T11:59:00.389Z</time></trkpt><trkpt lat="40.5582553" lon="9.7930411"><ele>0.0</ele><time>2026-03-29T11:59:01.393Z</time></trkpt><trkpt lat="40.5583412" lon="9.7929848"><ele>0.0</ele><time>2026-03-29T11:59:02.396Z</time></trkpt><trkpt lat="40.5584265" lon="9.7929223"><ele>0.0</ele><time>2026-03-29T11:59:03.389Z</time></trkpt><trkpt lat="40.5585214" lon="9.7928491"><ele>0.0</ele><time>2026-03-29T11:59:04.396Z</time></trkpt><trkpt lat="40.5586112" lon="9.792794"><ele>0.0</ele><time>2026-03-29T11:59:05.387Z</time></trkpt><trkpt lat="40.558702" lon="9.7927384"><ele>0.0</ele><time>2026-03-29T11:59:06.393Z</time></trkpt><trkpt lat="40.5587996" lon="9.7926686"><ele>0.0</ele><time>2026-03-29T11:59:07.394Z</time></trkpt><trkpt lat="40.5589062" lon="9.7926066"><ele>0.0</ele><time>2026-03-29T11:59:08.388Z</time></trkpt><trkpt lat="40.5590026" lon="9.7925546"><ele>0.0</ele><time>2026-03-29T11:59:09.396Z</time></trkpt><trkpt lat="40.5590768" lon="9.7925115"><ele>0.4</ele><time>2026-03-29T11:59:10.394Z</time></trkpt><trkpt lat="40.559208" lon="9.7924862"><ele>0.8</ele><time>2026-03-29T11:59:12.386Z</time></trkpt><trkpt lat="40.5592919" lon="9.79248"><ele>1.2000000000000002</ele><time>2026-03-29T11:59:13.388Z</time></trkpt><trkpt lat="40.5593662" lon="9.7924729"><ele>1.6</ele><time>2026-03-29T11:59:14.394Z</time></trkpt><trkpt lat="40.5594666" lon="9.7924266"><ele>2.0</ele><time>2026-03-29T11:59:16.393Z</time></trkpt><trkpt lat="40.5595693" lon="9.7924283"><ele>2.2</ele><time>2026-03-29T11:59:18.395Z</time></trkpt><trkpt lat="40.5596583" lon="9.7924451"><ele>2.4000000000000004</ele><time>2026-03-29T11:59:19.399Z</time></trkpt><trkpt lat="40.5597568" lon="9.7924617"><ele>2.5999999999999996</ele><time>2026-03-29T11:59:20.393Z</time></trkpt><trkpt lat="40.5598658" lon="9.792463"><ele>2.8</ele><time>2026-03-29T11:59:21.387Z</time></trkpt><trkpt lat="40.5599643" lon="9.7924679"><ele>3.0</ele><time>2026-03-29T11:59:22.393Z</time></trkpt><trkpt lat="40.5600388" lon="9.792474"><ele>3.0</ele><time>2026-03-29T11:59:23.391Z</time></trkpt><trkpt lat="40.56013" lon="9.792506"><ele>3.0</ele><time>2026-03-29T11:59:25.392Z</time></trkpt><trkpt lat="40.5601998" lon="9.7926224"><ele>3.0</ele><time>2026-03-29T11:59:27.399Z</time></trkpt><trkpt lat="40.5603093" lon="9.7926985"><ele>3.0</ele><time>2026-03-29T11:59:29.391Z</time></trkpt><trkpt lat="40.5603989" lon="9.7927172"><ele>3.0</ele><time>2026-03-29T11:59:30.399Z</time></trkpt><trkpt lat="40.5605084" lon="9.7927568"><ele>2.25</ele><time>2026-03-29T11:59:31.387Z</time></trkpt><trkpt lat="40.5606213" lon="9.7927934"><ele>1.5</ele><time>2026-03-29T11:59:32.393Z</time></trkpt><trkpt lat="40.5607363" lon="9.7928204"><ele>0.75</ele><time>2026-03-29T11:59:33.39Z</time></trkpt><trkpt lat="40.5608477" lon="9.7928478"><ele>0.0</ele><time>2026-03-29T11:59:34.388Z</time></trkpt><trkpt lat="40.560961" lon="9.7928619"><ele>0.0</ele><time>2026-03-29T11:59:35.409Z</time></trkpt><trkpt lat="40.5610656" lon="9.7928747"><ele>0.0</ele><time>2026-03-29T11:59:36.392Z</time></trkpt><trkpt lat="40.561165" lon="9.7928913"><ele>0.0</ele><time>2026-03-29T11:59:37.39Z</time></trkpt><trkpt lat="40.5612554" lon="9.7929084"><ele>0.0</ele><time>2026-03-29T11:59:38.395Z</time></trkpt><trkpt lat="40.5613321" lon="9.7929367"><ele>0.0</ele><time>2026-03-29T11:59:39.389Z</time></trkpt><trkpt lat="40.5614111" lon="9.7929598"><ele>0.16666666666666666</ele><time>2026-03-29T11:59:40.39Z</time></trkpt><trkpt lat="40.5614897" lon="9.7929668"><ele>0.3333333333333333</ele><time>2026-03-29T11:59:41.387Z</time></trkpt><trkpt lat="40.5615605" lon="9.7929702"><ele>0.5</ele><time>2026-03-29T11:59:42.408Z</time></trkpt><trkpt lat="40.5616768" lon="9.7929756"><ele>0.6666666666666666</ele><time>2026-03-29T11:59:44.389Z</time></trkpt><trkpt lat="40.5617657" lon="9.7929511"><ele>0.8333333333333333</ele><time>2026-03-29T11:59:46.393Z</time></trkpt><trkpt lat="40.5618484" lon="9.7929647"><ele>1.0</ele><time>2026-03-29T11:59:48.393Z</time></trkpt><trkpt lat="40.5619225" lon="9.7929751"><ele>0.9999999999999999</ele><time>2026-03-29T11:59:49.387Z</time></trkpt><trkpt lat="40.5620012" lon="9.7929857"><ele>1.0</ele><time>2026-03-29T11:59:50.388Z</time></trkpt><trkpt lat="40.5620823" lon="9.7929969"><ele>1.0</ele><time>2026-03-29T11:59:51.39Z</time></trkpt><trkpt lat="40.5621664" lon="9.7929873"><ele>1.0</ele><time>2026-03-29T11:59:52.39Z</time></trkpt><trkpt lat="40.5622612" lon="9.7929571"><ele>0.9999999999999999</ele><time>2026-03-29T11:59:53.389Z</time></trkpt><trkpt lat="40.5623545" lon="9.7929134"><ele>1.0</ele><time>2026-03-29T11:59:54.392Z</time></trkpt><trkpt lat="40.5624454" lon="9.7928706"><ele>1.0</ele><time>2026-03-29T11:59:55.385Z</time></trkpt><trkpt lat="40.5625234" lon="9.7928246"><ele>1.0</ele><time>2026-03-29T11:59:56.392Z</time></trkpt><trkpt lat="40.5625977" lon="9.7927813"><ele>1.0</ele><time>2026-03-29T11:59:57.387Z</time></trkpt><trkpt lat="40.5627341" lon="9.7927584"><ele>1.0</ele><time>2026-03-29T11:59:59.386Z</time></trkpt><trkpt lat="40.5628192" lon="9.7927631"><ele>1.0</ele><time>2026-03-29T12:00:00.412Z</time></trkpt><trkpt lat="40.5629027" lon="9.792765"><ele>0.8</ele><time>2026-03-29T12:00:01.39Z</time></trkpt><trkpt lat="40.5629969" lon="9.7927363"><ele>0.6000000000000001</ele><time>2026-03-29T12:00:02.389Z</time></trkpt><trkpt lat="40.5631071" lon="9.7926863"><ele>0.4</ele><time>2026-03-29T12:00:03.391Z</time></trkpt><trkpt lat="40.5632091" lon="9.7926269"><ele>0.2</ele><time>2026-03-29T12:00:04.394Z</time></trkpt><trkpt lat="40.5633196" lon="9.7925771"><ele>0.0</ele><time>2026-03-29T12:00:05.394Z</time></trkpt><trkpt lat="40.5634284" lon="9.7925294"><ele>0.2</ele><time>2026-03-29T12:00:06.392Z</time></trkpt><trkpt lat="40.5635262" lon="9.7924633"><ele>0.4</ele><time>2026-03-29T12:00:07.397Z</time></trkpt><trkpt lat="40.5636165" lon="9.7923987"><ele>0.6000000000000001</ele><time>2026-03-29T12:00:08.388Z</time></trkpt><trkpt lat="40.5636932" lon="9.7923428"><ele>0.8</ele><time>2026-03-29T12:00:09.386Z</time></trkpt><trkpt lat="40.5637503" lon="9.7922929"><ele>1.0</ele><time>2026-03-29T12:00:10.386Z</time></trkpt><trkpt lat="40.5638267" lon="9.7922079"><ele>0.9999999999999999</ele><time>2026-03-29T12:00:12.388Z</time></trkpt><trkpt lat="40.5638976" lon="9.7920959"><ele>1.0</ele><time>2026-03-29T12:00:14.395Z</time></trkpt><trkpt lat="40.5639676" lon="9.7920722"><ele>1.0</ele><time>2026-03-29T12:00:15.382Z</time></trkpt><trkpt lat="40.5640279" lon="9.7920457"><ele>1.0</ele><time>2026-03-29T12:00:16.383Z</time></trkpt><trkpt lat="40.5640856" lon="9.7919979"><ele>0.9999999999999999</ele><time>2026-03-29T12:00:17.391Z</time></trkpt><trkpt lat="40.5641503" lon="9.7919507"><ele>1.0</ele><time>2026-03-29T12:00:18.399Z</time></trkpt><trkpt lat="40.5642397" lon="9.7919245"><ele>1.0</ele><time>2026-03-29T12:00:19.386Z</time></trkpt><trkpt lat="40.5643463" lon="9.7918794"><ele>1.0</ele><time>2026-03-29T12:00:20.394Z</time></trkpt><trkpt lat="40.5644604" lon="9.7918268"><ele>1.0</ele><time>2026-03-29T12:00:21.391Z</time></trkpt><trkpt lat="40.5645719" lon="9.7917752"><ele>1.0</ele><time>2026-03-29T12:00:22.39Z</time></trkpt><trkpt lat="40.5646806" lon="9.7917146"><ele>1.5</ele><time>2026-03-29T12:00:23.387Z</time></trkpt><trkpt lat="40.5647904" lon="9.7916564"><ele>2.0</ele><time>2026-03-29T12:00:24.387Z</time></trkpt><trkpt lat="40.5649073" lon="9.7916018"><ele>2.5</ele><time>2026-03-29T12:00:25.389Z</time></trkpt><trkpt lat="40.5650246" lon="9.7915341"><ele>3.0</ele><time>2026-03-29T12:00:26.385Z</time></trkpt><trkpt lat="40.5651317" lon="9.7914637"><ele>3.0</ele><time>2026-03-29T12:00:27.394Z</time></trkpt><trkpt lat="40.5652291" lon="9.7913993"><ele>3.0</ele><time>2026-03-29T12:00:28.39Z</time></trkpt><trkpt lat="40.565315" lon="9.7913472"><ele>3.0</ele><time>2026-03-29T12:00:29.384Z</time></trkpt><trkpt lat="40.5653848" lon="9.7913057"><ele>3.0</ele><time>2026-03-29T12:00:30.385Z</time></trkpt><trkpt lat="40.5654423" lon="9.7912615"><ele>3.0</ele><time>2026-03-29T12:00:31.393Z</time></trkpt><trkpt lat="40.5654832" lon="9.7911747"><ele>3.0</ele><time>2026-03-29T12:00:32.388Z</time></trkpt><trkpt lat="40.5655349" lon="9.7910766"><ele>2.6</ele><time>2026-03-29T12:00:33.389Z</time></trkpt><trkpt lat="40.5656076" lon="9.7909984"><ele>2.1999999999999997</ele><time>2026-03-29T12:00:34.396Z</time></trkpt><trkpt lat="40.5656982" lon="9.7909506"><ele>1.8</ele><time>2026-03-29T12:00:35.404Z</time></trkpt><trkpt lat="40.5657938" lon="9.7909004"><ele>1.4</ele><time>2026-03-29T12:00:36.409Z</time></trkpt><trkpt lat="40.5659101" lon="9.7908935"><ele>1.0</ele><time>2026-03-29T12:00:37.394Z</time></trkpt><trkpt lat="40.5660237" lon="9.790887"><ele>1.0</ele><time>2026-03-29T12:00:38.396Z</time></trkpt><trkpt lat="40.5661297" lon="9.7908818"><ele>1.0</ele><time>2026-03-29T12:00:39.39Z</time></trkpt><trkpt lat="40.5662221" lon="9.7908691"><ele>1.0</ele><time>2026-03-29T12:00:40.386Z</time></trkpt><trkpt lat="40.5663052" lon="9.7908342"><ele>1.0</ele><time>2026-03-29T12:00:41.391Z</time></trkpt><trkpt lat="40.5663856" lon="9.7907789"><ele>1.0</ele><time>2026-03-29T12:00:42.389Z</time></trkpt><trkpt lat="40.5664639" lon="9.7907292"><ele>0.9999999999999999</ele><time>2026-03-29T12:00:43.398Z</time></trkpt><trkpt lat="40.5665412" lon="9.7906641"><ele>1.0</ele><time>2026-03-29T12:00:44.396Z</time></trkpt><trkpt lat="40.5666385" lon="9.7906218"><ele>1.0</ele><time>2026-03-29T12:00:45.397Z</time></trkpt><trkpt lat="40.5667165" lon="9.7905886"><ele>1.0</ele><time>2026-03-29T12:00:46.396Z</time></trkpt><trkpt lat="40.5667869" lon="9.7905608"><ele>0.9999999999999999</ele><time>2026-03-29T12:00:47.391Z</time></trkpt><trkpt lat="40.5668555" lon="9.79056"><ele>1.0</ele><time>2026-03-29T12:00:48.394Z</time></trkpt><trkpt lat="40.5669342" lon="9.7905491"><ele>1.0</ele><time>2026-03-29T12:00:49.389Z</time></trkpt><trkpt lat="40.5670323" lon="9.7904954"><ele>1.0</ele><time>2026-03-29T12:00:50.387Z</time></trkpt><trkpt lat="40.5671381" lon="9.7904686"><ele>1.0</ele><time>2026-03-29T12:00:51.391Z</time></trkpt><trkpt lat="40.5672478" lon="9.7904497"><ele>1.0</ele><time>2026-03-29T12:00:52.393Z</time></trkpt><trkpt lat="40.5673496" lon="9.7904396"><ele>1.0</ele><time>2026-03-29T12:00:53.397Z</time></trkpt><trkpt lat="40.5674435" lon="9.7904205"><ele>1.0</ele><time>2026-03-29T12:00:54.394Z</time></trkpt><trkpt lat="40.5675272" lon="9.7903754"><ele>1.0</ele><time>2026-03-29T12:00:55.39Z</time></trkpt><trkpt lat="40.5676077" lon="9.7903303"><ele>1.0</ele><time>2026-03-29T12:00:56.396Z</time></trkpt><trkpt lat="40.5676868" lon="9.7902705"><ele>1.0</ele><time>2026-03-29T12:00:57.391Z</time></trkpt><trkpt lat="40.5677821" lon="9.7902269"><ele>1.0</ele><time>2026-03-29T12:00:58.398Z</time></trkpt><trkpt lat="40.5678814" lon="9.7901796"><ele>1.2000000000000002</ele><time>2026-03-29T12:00:59.394Z</time></trkpt><trkpt lat="40.5679926" lon="9.7901594"><ele>1.4000000000000001</ele><time>2026-03-29T12:01:00.394Z</time></trkpt><trkpt lat="40.5681143" lon="9.7901251"><ele>1.6</ele><time>2026-03-29T12:01:01.393Z</time></trkpt><trkpt lat="40.5682275" lon="9.7900968"><ele>1.8</ele><time>2026-03-29T12:01:02.39Z</time></trkpt><trkpt lat="40.5683237" lon="9.7900769"><ele>2.0</ele><time>2026-03-29T12:01:03.408Z</time></trkpt><trkpt lat="40.5684229" lon="9.7900552"><ele>2.0</ele><time>2026-03-29T12:01:04.389Z</time></trkpt><trkpt lat="40.5685102" lon="9.7900248"><ele>2.0</ele><time>2026-03-29T12:01:05.392Z</time></trkpt><trkpt lat="40.5685973" lon="9.7900017"><ele>2.0</ele><time>2026-03-29T12:01:06.393Z</time></trkpt><trkpt lat="40.5686871" lon="9.7900054"><ele>2.0</ele><time>2026-03-29T12:01:07.386Z</time></trkpt><trkpt lat="40.5687868" lon="9.7900345"><ele>2.0</ele><time>2026-03-29T12:01:08.389Z</time></trkpt><trkpt lat="40.5688864" lon="9.7900666"><ele>1.8</ele><time>2026-03-29T12:01:09.393Z</time></trkpt><trkpt lat="40.5689917" lon="9.7900878"><ele>1.6</ele><time>2026-03-29T12:01:10.39Z</time></trkpt><trkpt lat="40.5690974" lon="9.7901093"><ele>1.4000000000000001</ele><time>2026-03-29T12:01:11.404Z</time></trkpt><trkpt lat="40.5692084" lon="9.7901431"><ele>1.2000000000000002</ele><time>2026-03-29T12:01:12.388Z</time></trkpt><trkpt lat="40.5693162" lon="9.7901682"><ele>1.0</ele><time>2026-03-29T12:01:13.388Z</time></trkpt><trkpt lat="40.5694272" lon="9.7901928"><ele>0.75</ele><time>2026-03-29T12:01:14.393Z</time></trkpt><trkpt lat="40.5695462" lon="9.7902411"><ele>0.5</ele><time>2026-03-29T12:01:15.387Z</time></trkpt><trkpt lat="40.5696647" lon="9.7903017"><ele>0.25</ele><time>2026-03-29T12:01:16.39Z</time></trkpt><trkpt lat="40.5697752" lon="9.790357"><ele>0.0</ele><time>2026-03-29T12:01:17.392Z</time></trkpt><trkpt lat="40.5698644" lon="9.7903957"><ele>0.0</ele><time>2026-03-29T12:01:18.395Z</time></trkpt><trkpt lat="40.5699454" lon="9.7904053"><ele>0.0</ele><time>2026-03-29T12:01:19.395Z</time></trkpt><trkpt lat="40.5700298" lon="9.7904106"><ele>0.0</ele><time>2026-03-29T12:01:20.392Z</time></trkpt><trkpt lat="40.5701232" lon="9.7903785"><ele>0.0</ele><time>2026-03-29T12:01:21.394Z</time></trkpt><trkpt lat="40.5702277" lon="9.7903387"><ele>0.0</ele><time>2026-03-29T12:01:22.391Z</time></trkpt><trkpt lat="40.5703291" lon="9.7903071"><ele>0.2</ele><time>2026-03-29T12:01:23.388Z</time></trkpt><trkpt lat="40.5704342" lon="9.7902964"><ele>0.4</ele><time>2026-03-29T12:01:24.387Z</time></trkpt><trkpt lat="40.5705308" lon="9.7902952"><ele>0.6000000000000001</ele><time>2026-03-29T12:01:25.389Z</time></trkpt><trkpt lat="40.570625" lon="9.790294"><ele>0.8</ele><time>2026-03-29T12:01:26.386Z</time></trkpt><trkpt lat="40.5707164" lon="9.790282"><ele>1.0</ele><time>2026-03-29T12:01:27.403Z</time></trkpt><trkpt lat="40.5708043" lon="9.7902666"><ele>1.0</ele><time>2026-03-29T12:01:28.387Z</time></trkpt><trkpt lat="40.5709012" lon="9.7902493"><ele>1.0</ele><time>2026-03-29T12:01:29.388Z</time></trkpt><trkpt lat="40.5709933" lon="9.7902245"><ele>1.0</ele><time>2026-03-29T12:01:30.386Z</time></trkpt><trkpt lat="40.5710913" lon="9.7902017"><ele>1.0</ele><time>2026-03-29T12:01:31.395Z</time></trkpt><trkpt lat="40.5711744" lon="9.7901793"><ele>1.0</ele><time>2026-03-29T12:01:32.394Z</time></trkpt><trkpt lat="40.5712405" lon="9.7901199"><ele>1.0</ele><time>2026-03-29T12:01:33.386Z</time></trkpt><trkpt lat="40.5713159" lon="9.7900502"><ele>1.0</ele><time>2026-03-29T12:01:34.401Z</time></trkpt><trkpt lat="40.5714013" lon="9.7899685"><ele>1.0</ele><time>2026-03-29T12:01:35.395Z</time></trkpt><trkpt lat="40.571488" lon="9.789879"><ele>1.0</ele><time>2026-03-29T12:01:36.394Z</time></trkpt><trkpt lat="40.5715815" lon="9.7897801"><ele>1.0</ele><time>2026-03-29T12:01:37.392Z</time></trkpt><trkpt lat="40.5716591" lon="9.7896867"><ele>1.0</ele><time>2026-03-29T12:01:38.394Z</time></trkpt><trkpt lat="40.5717317" lon="9.7895915"><ele>1.0</ele><time>2026-03-29T12:01:39.387Z</time></trkpt><trkpt lat="40.5718093" lon="9.7895004"><ele>1.0</ele><time>2026-03-29T12:01:40.395Z</time></trkpt><trkpt lat="40.5718904" lon="9.7894103"><ele>1.0</ele><time>2026-03-29T12:01:41.437Z</time></trkpt><trkpt lat="40.5719786" lon="9.7893434"><ele>1.0</ele><time>2026-03-29T12:01:42.395Z</time></trkpt><trkpt lat="40.5720536" lon="9.7892817"><ele>1.0</ele><time>2026-03-29T12:01:43.392Z</time></trkpt><trkpt lat="40.5721209" lon="9.789226"><ele>1.0</ele><time>2026-03-29T12:01:44.392Z</time></trkpt><trkpt lat="40.5721735" lon="9.7891373"><ele>1.0</ele><time>2026-03-29T12:01:45.405Z</time></trkpt><trkpt lat="40.572226" lon="9.7890315"><ele>1.0</ele><time>2026-03-29T12:01:46.407Z</time></trkpt><trkpt lat="40.5722799" lon="9.7889116"><ele>1.0</ele><time>2026-03-29T12:01:47.386Z</time></trkpt><trkpt lat="40.5723155" lon="9.7887838"><ele>1.0</ele><time>2026-03-29T12:01:48.398Z</time></trkpt><trkpt lat="40.5723474" lon="9.7886652"><ele>1.0</ele><time>2026-03-29T12:01:49.397Z</time></trkpt><trkpt lat="40.572394" lon="9.788548"><ele>1.0</ele><time>2026-03-29T12:01:50.391Z</time></trkpt><trkpt lat="40.5724412" lon="9.7884143"><ele>1.0</ele><time>2026-03-29T12:01:51.393Z</time></trkpt><trkpt lat="40.5724779" lon="9.7882949"><ele>1.0</ele><time>2026-03-29T12:01:52.39Z</time></trkpt><trkpt lat="40.5725131" lon="9.788191"><ele>1.0</ele><time>2026-03-29T12:01:53.39Z</time></trkpt><trkpt lat="40.5725384" lon="9.7880933"><ele>1.0</ele><time>2026-03-29T12:01:54.392Z</time></trkpt><trkpt lat="40.5725504" lon="9.7879804"><ele>1.0</ele><time>2026-03-29T12:01:55.391Z</time></trkpt><trkpt lat="40.5725625" lon="9.7878561"><ele>1.0</ele><time>2026-03-29T12:01:56.397Z</time></trkpt><trkpt lat="40.5725803" lon="9.7877323"><ele>1.0</ele><time>2026-03-29T12:01:57.388Z</time></trkpt><trkpt lat="40.5725916" lon="9.7876083"><ele>1.0</ele><time>2026-03-29T12:01:58.392Z</time></trkpt><trkpt lat="40.5726015" lon="9.7874712"><ele>1.0</ele><time>2026-03-29T12:01:59.391Z</time></trkpt><trkpt lat="40.5726108" lon="9.7873406"><ele>1.0</ele><time>2026-03-29T12:02:00.386Z</time></trkpt><trkpt lat="40.5726099" lon="9.7872156"><ele>1.0</ele><time>2026-03-29T12:02:01.388Z</time></trkpt><trkpt lat="40.5726093" lon="9.7870961"><ele>1.0</ele><time>2026-03-29T12:02:02.407Z</time></trkpt><trkpt lat="40.5725994" lon="9.786994"><ele>1.0</ele><time>2026-03-29T12:02:03.39Z</time></trkpt><trkpt lat="40.5725819" lon="9.7869117"><ele>0.9999999999999999</ele><time>2026-03-29T12:02:04.422Z</time></trkpt><trkpt lat="40.5725455" lon="9.7868432"><ele>1.0</ele><time>2026-03-29T12:02:05.391Z</time></trkpt><trkpt lat="40.5724982" lon="9.786772"><ele>1.0</ele><time>2026-03-29T12:02:06.393Z</time></trkpt><trkpt lat="40.5724529" lon="9.7866856"><ele>0.9999999999999999</ele><time>2026-03-29T12:02:07.392Z</time></trkpt><trkpt lat="40.5724127" lon="9.7866056"><ele>1.0</ele><time>2026-03-29T12:02:08.391Z</time></trkpt><trkpt lat="40.5724017" lon="9.7864992"><ele>1.0</ele><time>2026-03-29T12:02:10.407Z</time></trkpt><trkpt lat="40.572442" lon="9.7864024"><ele>0.8333333333333333</ele><time>2026-03-29T12:02:12.396Z</time></trkpt><trkpt lat="40.5725035" lon="9.7863803"><ele>0.6666666666666666</ele><time>2026-03-29T12:02:13.39Z</time></trkpt><trkpt lat="40.5725735" lon="9.7863686"><ele>0.5</ele><time>2026-03-29T12:02:14.392Z</time></trkpt><trkpt lat="40.5726615" lon="9.7863649"><ele>0.3333333333333333</ele><time>2026-03-29T12:02:15.387Z</time></trkpt><trkpt lat="40.5727421" lon="9.7863462"><ele>0.16666666666666666</ele><time>2026-03-29T12:02:16.391Z</time></trkpt><trkpt lat="40.5728256" lon="9.7862967"><ele>0.0</ele><time>2026-03-29T12:02:17.395Z</time></trkpt><trkpt lat="40.5729151" lon="9.7862413"><ele>0.0</ele><time>2026-03-29T12:02:18.389Z</time></trkpt><trkpt lat="40.5730038" lon="9.786151"><ele>0.0</ele><time>2026-03-29T12:02:19.416Z</time></trkpt><trkpt lat="40.5731026" lon="9.7860619"><ele>0.0</ele><time>2026-03-29T12:02:20.398Z</time></trkpt><trkpt lat="40.5731975" lon="9.7859736"><ele>0.0</ele><time>2026-03-29T12:02:21.391Z</time></trkpt><trkpt lat="40.5732871" lon="9.7858774"><ele>0.0</ele><time>2026-03-29T12:02:22.393Z</time></trkpt><trkpt lat="40.5733731" lon="9.7857814"><ele>0.0</ele><time>2026-03-29T12:02:23.39Z</time></trkpt><trkpt lat="40.5734597" lon="9.7856979"><ele>0.0</ele><time>2026-03-29T12:02:24.399Z</time></trkpt><trkpt lat="40.5735504" lon="9.7856154"><ele>0.0</ele><time>2026-03-29T12:02:25.389Z</time></trkpt><trkpt lat="40.5736382" lon="9.7855247"><ele>0.0</ele><time>2026-03-29T12:02:26.394Z</time></trkpt><trkpt lat="40.5737168" lon="9.7854238"><ele>0.0</ele><time>2026-03-29T12:02:27.39Z</time></trkpt><trkpt lat="40.5737814" lon="9.7853278"><ele>0.0</ele><time>2026-03-29T12:02:28.391Z</time></trkpt><trkpt lat="40.5738334" lon="9.7852491"><ele>0.0</ele><time>2026-03-29T12:02:29.401Z</time></trkpt><trkpt lat="40.5738716" lon="9.7851813"><ele>0.0</ele><time>2026-03-29T12:02:30.395Z</time></trkpt><trkpt lat="40.5739312" lon="9.7850683"><ele>0.0</ele><time>2026-03-29T12:02:32.393Z</time></trkpt><trkpt lat="40.5739578" lon="9.7849493"><ele>0.0</ele><time>2026-03-29T12:02:34.391Z</time></trkpt><trkpt lat="40.573977" lon="9.7848351"><ele>0.0</ele><time>2026-03-29T12:02:36.391Z</time></trkpt><trkpt lat="40.5740052" lon="9.7847049"><ele>0.0</ele><time>2026-03-29T12:02:38.398Z</time></trkpt><trkpt lat="40.5740311" lon="9.7845605"><ele>0.0</ele><time>2026-03-29T12:02:40.392Z</time></trkpt><trkpt lat="40.5740723" lon="9.7844084"><ele>0.0</ele><time>2026-03-29T12:02:42.392Z</time></trkpt><trkpt lat="40.5741062" lon="9.7843273"><ele>0.0</ele><time>2026-03-29T12:02:43.391Z</time></trkpt><trkpt lat="40.5741431" lon="9.7842424"><ele>0.6</ele><time>2026-03-29T12:02:44.411Z</time></trkpt><trkpt lat="40.5741807" lon="9.7841701"><ele>1.2</ele><time>2026-03-29T12:02:45.391Z</time></trkpt><trkpt lat="40.5742602" lon="9.7840507"><ele>1.7999999999999998</ele><time>2026-03-29T12:02:47.396Z</time></trkpt><trkpt lat="40.5743536" lon="9.7839748"><ele>2.4</ele><time>2026-03-29T12:02:49.413Z</time></trkpt><trkpt lat="40.5744326" lon="9.7839197"><ele>3.0</ele><time>2026-03-29T12:02:51.394Z</time></trkpt><trkpt lat="40.5744995" lon="9.7838746"><ele>2.6666666666666665</ele><time>2026-03-29T12:02:53.405Z</time></trkpt><trkpt lat="40.5745975" lon="9.7838103"><ele>2.3333333333333335</ele><time>2026-03-29T12:02:55.393Z</time></trkpt><trkpt lat="40.5746543" lon="9.7837731"><ele>2.0</ele><time>2026-03-29T12:02:56.391Z</time></trkpt><trkpt lat="40.5747193" lon="9.7837241"><ele>1.6666666666666665</ele><time>2026-03-29T12:02:57.394Z</time></trkpt><trkpt lat="40.5747849" lon="9.7836753"><ele>1.3333333333333333</ele><time>2026-03-29T12:02:58.392Z</time></trkpt><trkpt lat="40.57485" lon="9.7836239"><ele>1.0</ele><time>2026-03-29T12:02:59.392Z</time></trkpt><trkpt lat="40.5749133" lon="9.7835791"><ele>1.0</ele><time>2026-03-29T12:03:00.394Z</time></trkpt><trkpt lat="40.5749813" lon="9.7835491"><ele>0.9999999999999999</ele><time>2026-03-29T12:03:01.399Z</time></trkpt><trkpt lat="40.5750502" lon="9.7835274"><ele>1.0</ele><time>2026-03-29T12:03:02.394Z</time></trkpt><trkpt lat="40.5751232" lon="9.7835187"><ele>1.0</ele><time>2026-03-29T12:03:03.407Z</time></trkpt><trkpt lat="40.5751905" lon="9.783511"><ele>0.9999999999999999</ele><time>2026-03-29T12:03:04.398Z</time></trkpt><trkpt lat="40.5752579" lon="9.7834995"><ele>1.0</ele><time>2026-03-29T12:03:05.398Z</time></trkpt><trkpt lat="40.5753228" lon="9.7834856"><ele>1.0</ele><time>2026-03-29T12:03:06.391Z</time></trkpt><trkpt lat="40.5754405" lon="9.7834632"><ele>0.8</ele><time>2026-03-29T12:03:08.393Z</time></trkpt><trkpt lat="40.5755491" lon="9.7834854"><ele>0.6000000000000001</ele><time>2026-03-29T12:03:10.39Z</time></trkpt><trkpt lat="40.5756649" lon="9.7835267"><ele>0.4</ele><time>2026-03-29T12:03:12.39Z</time></trkpt><trkpt lat="40.5757397" lon="9.7835449"><ele>0.2</ele><time>2026-03-29T12:03:13.403Z</time></trkpt><trkpt lat="40.5758113" lon="9.7835644"><ele>0.0</ele><time>2026-03-29T12:03:14.394Z</time></trkpt><trkpt lat="40.5758899" lon="9.7835882"><ele>0.0</ele><time>2026-03-29T12:03:15.395Z</time></trkpt><trkpt lat="40.5759701" lon="9.7836031"><ele>0.0</ele><time>2026-03-29T12:03:16.388Z</time></trkpt><trkpt lat="40.576052" lon="9.7835976"><ele>0.0</ele><time>2026-03-29T12:03:17.392Z</time></trkpt><trkpt lat="40.576134" lon="9.7835667"><ele>0.0</ele><time>2026-03-29T12:03:18.404Z</time></trkpt><trkpt lat="40.57621" lon="9.7835097"><ele>0.0</ele><time>2026-03-29T12:03:19.386Z</time></trkpt><trkpt lat="40.57629" lon="9.7834511"><ele>0.0</ele><time>2026-03-29T12:03:20.391Z</time></trkpt><trkpt lat="40.5763744" lon="9.7833824"><ele>0.5</ele><time>2026-03-29T12:03:21.397Z</time></trkpt><trkpt lat="40.5764699" lon="9.7833157"><ele>1.0</ele><time>2026-03-29T12:03:22.396Z</time></trkpt><trkpt lat="40.5765772" lon="9.7832429"><ele>1.5</ele><time>2026-03-29T12:03:23.392Z</time></trkpt><trkpt lat="40.5766848" lon="9.7831491"><ele>2.0</ele><time>2026-03-29T12:03:24.391Z</time></trkpt><trkpt lat="40.5767982" lon="9.7830515"><ele>2.0</ele><time>2026-03-29T12:03:25.391Z</time></trkpt><trkpt lat="40.5769179" lon="9.7829582"><ele>2.0</ele><time>2026-03-29T12:03:26.388Z</time></trkpt><trkpt lat="40.5770246" lon="9.7828671"><ele>2.0</ele><time>2026-03-29T12:03:27.393Z</time></trkpt><trkpt lat="40.5771209" lon="9.7827751"><ele>2.0</ele><time>2026-03-29T12:03:28.388Z</time></trkpt><trkpt lat="40.5772093" lon="9.7826876"><ele>3.2</ele><time>2026-03-29T12:03:29.388Z</time></trkpt><trkpt lat="40.5772933" lon="9.7826056"><ele>4.4</ele><time>2026-03-29T12:03:30.395Z</time></trkpt><trkpt lat="40.5773755" lon="9.7825348"><ele>5.6000000000000005</ele><time>2026-03-29T12:03:31.392Z</time></trkpt><trkpt lat="40.5774579" lon="9.7824618"><ele>6.800000000000001</ele><time>2026-03-29T12:03:32.393Z</time></trkpt><trkpt lat="40.5775541" lon="9.7824053"><ele>8.0</ele><time>2026-03-29T12:03:33.387Z</time></trkpt><trkpt lat="40.5776499" lon="9.7823674"><ele>8.0</ele><time>2026-03-29T12:03:34.389Z</time></trkpt><trkpt lat="40.5777475" lon="9.7823391"><ele>8.0</ele><time>2026-03-29T12:03:35.394Z</time></trkpt><trkpt lat="40.5778543" lon="9.7823139"><ele>8.0</ele><time>2026-03-29T12:03:36.399Z</time></trkpt><trkpt lat="40.5779677" lon="9.7822883"><ele>8.0</ele><time>2026-03-29T12:03:37.392Z</time></trkpt><trkpt lat="40.5780861" lon="9.7822654"><ele>8.0</ele><time>2026-03-29T12:03:38.417Z</time></trkpt><trkpt lat="40.5782057" lon="9.7822426"><ele>7.0</ele><time>2026-03-29T12:03:39.39Z</time></trkpt><trkpt lat="40.5783307" lon="9.7822299"><ele>6.0</ele><time>2026-03-29T12:03:40.395Z</time></trkpt><trkpt lat="40.5784591" lon="9.7822243"><ele>5.0</ele><time>2026-03-29T12:03:41.392Z</time></trkpt><trkpt lat="40.5785896" lon="9.7822312"><ele>4.0</ele><time>2026-03-29T12:03:42.394Z</time></trkpt><trkpt lat="40.578723" lon="9.7822366"><ele>3.25</ele><time>2026-03-29T12:03:43.388Z</time></trkpt><trkpt lat="40.578855" lon="9.7822517"><ele>2.5</ele><time>2026-03-29T12:03:44.39Z</time></trkpt><trkpt lat="40.5789842" lon="9.782276"><ele>1.75</ele><time>2026-03-29T12:03:45.389Z</time></trkpt><trkpt lat="40.579107" lon="9.7822997"><ele>1.0</ele><time>2026-03-29T12:03:46.39Z</time></trkpt><trkpt lat="40.5792189" lon="9.782321"><ele>0.9999999999999999</ele><time>2026-03-29T12:03:47.389Z</time></trkpt><trkpt lat="40.5793139" lon="9.7823561"><ele>1.0</ele><time>2026-03-29T12:03:48.396Z</time></trkpt><trkpt lat="40.5794019" lon="9.7823919"><ele>1.0</ele><time>2026-03-29T12:03:49.393Z</time></trkpt><trkpt lat="40.5794826" lon="9.7824101"><ele>1.0</ele><time>2026-03-29T12:03:50.395Z</time></trkpt><trkpt lat="40.5795608" lon="9.7824239"><ele>0.9999999999999999</ele><time>2026-03-29T12:03:51.397Z</time></trkpt><trkpt lat="40.5796279" lon="9.782389"><ele>1.0</ele><time>2026-03-29T12:03:52.391Z</time></trkpt><trkpt lat="40.5796872" lon="9.7823182"><ele>0.8333333333333333</ele><time>2026-03-29T12:03:53.415Z</time></trkpt><trkpt lat="40.5797301" lon="9.7822246"><ele>0.6666666666666666</ele><time>2026-03-29T12:03:54.393Z</time></trkpt><trkpt lat="40.5797714" lon="9.7821319"><ele>0.5</ele><time>2026-03-29T12:03:55.398Z</time></trkpt><trkpt lat="40.5798118" lon="9.7820503"><ele>0.3333333333333333</ele><time>2026-03-29T12:03:56.391Z</time></trkpt><trkpt lat="40.5798671" lon="9.7819822"><ele>0.16666666666666666</ele><time>2026-03-29T12:03:57.395Z</time></trkpt><trkpt lat="40.5799288" lon="9.7819152"><ele>0.0</ele><time>2026-03-29T12:03:58.392Z</time></trkpt><trkpt lat="40.5799908" lon="9.7818221"><ele>1.0</ele><time>2026-03-29T12:03:59.391Z</time></trkpt><trkpt lat="40.5800416" lon="9.7817238"><ele>2.0</ele><time>2026-03-29T12:04:00.395Z</time></trkpt><trkpt lat="40.5800849" lon="9.7816242"><ele>3.0</ele><time>2026-03-29T12:04:01.391Z</time></trkpt><trkpt lat="40.5801291" lon="9.7815125"><ele>4.0</ele><time>2026-03-29T12:04:02.4Z</time></trkpt><trkpt lat="40.5801624" lon="9.7814022"><ele>5.0</ele><time>2026-03-29T12:04:03.391Z</time></trkpt><trkpt lat="40.5801938" lon="9.7812975"><ele>6.0</ele><time>2026-03-29T12:04:04.44Z</time></trkpt><trkpt lat="40.5802328" lon="9.7811948"><ele>6.0</ele><time>2026-03-29T12:04:05.397Z</time></trkpt><trkpt lat="40.5802732" lon="9.7810913"><ele>6.0</ele><time>2026-03-29T12:04:06.396Z</time></trkpt><trkpt lat="40.5803246" lon="9.7810026"><ele>6.0</ele><time>2026-03-29T12:04:07.394Z</time></trkpt><trkpt lat="40.5803839" lon="9.7809307"><ele>6.0</ele><time>2026-03-29T12:04:08.389Z</time></trkpt><trkpt lat="40.5804486" lon="9.7808677"><ele>6.0</ele><time>2026-03-29T12:04:09.409Z</time></trkpt><trkpt lat="40.5805223" lon="9.780795"><ele>6.0</ele><time>2026-03-29T12:04:10.391Z</time></trkpt><trkpt lat="40.5805983" lon="9.7807267"><ele>5.0</ele><time>2026-03-29T12:04:11.391Z</time></trkpt><trkpt lat="40.5806715" lon="9.7806601"><ele>3.9999999999999996</ele><time>2026-03-29T12:04:12.395Z</time></trkpt><trkpt lat="40.5807441" lon="9.7805844"><ele>3.0</ele><time>2026-03-29T12:04:13.397Z</time></trkpt><trkpt lat="40.5808078" lon="9.7804957"><ele>2.0</ele><time>2026-03-29T12:04:14.414Z</time></trkpt><trkpt lat="40.5808662" lon="9.7803837"><ele>1.0</ele><time>2026-03-29T12:04:15.395Z</time></trkpt><trkpt lat="40.5809174" lon="9.7802538"><ele>1.75</ele><time>2026-03-29T12:04:16.391Z</time></trkpt><trkpt lat="40.5809714" lon="9.7801071"><ele>2.5</ele><time>2026-03-29T12:04:17.395Z</time></trkpt><trkpt lat="40.5810315" lon="9.7799455"><ele>3.25</ele><time>2026-03-29T12:04:18.394Z</time></trkpt><trkpt lat="40.5810952" lon="9.7797824"><ele>4.0</ele><time>2026-03-29T12:04:19.397Z</time></trkpt><trkpt lat="40.5811552" lon="9.7796287"><ele>3.5</ele><time>2026-03-29T12:04:20.397Z</time></trkpt><trkpt lat="40.5812168" lon="9.7794747"><ele>3.0</ele><time>2026-03-29T12:04:21.396Z</time></trkpt><trkpt lat="40.5812771" lon="9.7793207"><ele>2.5</ele><time>2026-03-29T12:04:22.397Z</time></trkpt><trkpt lat="40.5813303" lon="9.7791732"><ele>2.0</ele><time>2026-03-29T12:04:23.396Z</time></trkpt><trkpt lat="40.5813769" lon="9.779037"><ele>1.9999999999999998</ele><time>2026-03-29T12:04:24.405Z</time></trkpt><trkpt lat="40.5814166" lon="9.7789158"><ele>2.0</ele><time>2026-03-29T12:04:25.398Z</time></trkpt><trkpt lat="40.5814522" lon="9.7788045"><ele>2.0</ele><time>2026-03-29T12:04:26.391Z</time></trkpt><trkpt lat="40.5814839" lon="9.7787121"><ele>2.0</ele><time>2026-03-29T12:04:27.397Z</time></trkpt><trkpt lat="40.5815129" lon="9.7786303"><ele>1.9999999999999998</ele><time>2026-03-29T12:04:28.393Z</time></trkpt><trkpt lat="40.5815077" lon="9.7785204"><ele>2.0</ele><time>2026-03-29T12:04:30.394Z</time></trkpt><trkpt lat="40.5814378" lon="9.7784428"><ele>2.333333333333333</ele><time>2026-03-29T12:04:32.401Z</time></trkpt><trkpt lat="40.5813808" lon="9.7783793"><ele>2.6666666666666665</ele><time>2026-03-29T12:04:34.399Z</time></trkpt><trkpt lat="40.5813358" lon="9.7783086"><ele>3.0</ele><time>2026-03-29T12:04:38.396Z</time></trkpt><trkpt lat="40.5813031" lon="9.7782092"><ele>3.333333333333333</ele><time>2026-03-29T12:04:42.395Z</time></trkpt><trkpt lat="40.5812752" lon="9.7781246"><ele>3.6666666666666665</ele><time>2026-03-29T12:04:45.395Z</time></trkpt><trkpt lat="40.581238" lon="9.7780415"><ele>4.0</ele><time>2026-03-29T12:04:48.396Z</time></trkpt><trkpt lat="40.5811902" lon="9.7779324"><ele>4.5</ele><time>2026-03-29T12:04:51.406Z</time></trkpt><trkpt lat="40.5811533" lon="9.7778434"><ele>5.0</ele><time>2026-03-29T12:04:54.395Z</time></trkpt><trkpt lat="40.5811705" lon="9.777711"><ele>5.5</ele><time>2026-03-29T12:04:57.399Z</time></trkpt><trkpt lat="40.5812052" lon="9.7776003"><ele>6.0</ele><time>2026-03-29T12:04:59.397Z</time></trkpt><trkpt lat="40.5812422" lon="9.7775198"><ele>6.500000000000001</ele><time>2026-03-29T12:05:01.401Z</time></trkpt><trkpt lat="40.5812536" lon="9.7774157"><ele>7.0</ele><time>2026-03-29T12:05:04.398Z</time></trkpt><trkpt lat="40.5811961" lon="9.7773496"><ele>7.0</ele><time>2026-03-29T12:05:08.397Z</time></trkpt><trkpt lat="40.5811475" lon="9.7772845"><ele>9.0</ele><time>2026-03-29T12:05:12.397Z</time></trkpt><trkpt lat="40.5811546" lon="9.7771754"><ele>9.0</ele><time>2026-03-29T12:05:16.396Z</time></trkpt><trkpt lat="40.5811881" lon="9.7770895"><ele>7.0</ele><time>2026-03-29T12:05:19.393Z</time></trkpt></trkseg><trkseg><trkpt lat="40.5708049" lon="9.7442902"><ele>131.0</ele><time>2026-03-29T13:11:31.244Z</time></trkpt><trkpt lat="40.5708369" lon="9.7441455"><ele>131.0</ele><time>2026-03-29T13:11:33.245Z</time></trkpt><trkpt lat="40.5708667" lon="9.7440227"><ele>131.0</ele><time>2026-03-29T13:11:35.248Z</time></trkpt><trkpt lat="40.5709316" lon="9.7439101"><ele>131.0</ele><time>2026-03-29T13:11:37.252Z</time></trkpt><trkpt lat="40.5710059" lon="9.7438206"><ele>131.0</ele><time>2026-03-29T13:11:39.255Z</time></trkpt><trkpt lat="40.5710616" lon="9.7436999"><ele>131.0</ele><time>2026-03-29T13:11:41.273Z</time></trkpt><trkpt lat="40.5711014" lon="9.7435752"><ele>131.0</ele><time>2026-03-29T13:11:43.254Z</time></trkpt><trkpt lat="40.5711456" lon="9.7434334"><ele>131.0</ele><time>2026-03-29T13:11:45.254Z</time></trkpt><trkpt lat="40.571247" lon="9.7433439"><ele>131.0</ele><time>2026-03-29T13:11:47.258Z</time></trkpt><trkpt lat="40.5713177" lon="9.7433131"><ele>131.0</ele><time>2026-03-29T13:11:48.268Z</time></trkpt><trkpt lat="40.571398" lon="9.7432795"><ele>127.0</ele><time>2026-03-29T13:11:49.261Z</time></trkpt><trkpt lat="40.5714878" lon="9.7432514"><ele>123.0</ele><time>2026-03-29T13:11:50.257Z</time></trkpt><trkpt lat="40.5715966" lon="9.7431946"><ele>119.0</ele><time>2026-03-29T13:11:51.262Z</time></trkpt><trkpt lat="40.5716944" lon="9.7431461"><ele>115.0</ele><time>2026-03-29T13:11:52.26Z</time></trkpt><trkpt lat="40.5717615" lon="9.7431156"><ele>111.0</ele><time>2026-03-29T13:11:53.27Z</time></trkpt><trkpt lat="40.5718486" lon="9.743109"><ele>111.0</ele><time>2026-03-29T13:11:55.264Z</time></trkpt><trkpt lat="40.5719343" lon="9.7431175"><ele>111.0</ele><time>2026-03-29T13:11:57.271Z</time></trkpt><trkpt lat="40.5720415" lon="9.743116"><ele>111.0</ele><time>2026-03-29T13:11:59.268Z</time></trkpt><trkpt lat="40.5721621" lon="9.7430891"><ele>111.0</ele><time>2026-03-29T13:12:01.262Z</time></trkpt><trkpt lat="40.5722731" lon="9.7430482"><ele>111.0</ele><time>2026-03-29T13:12:03.257Z</time></trkpt><trkpt lat="40.5723368" lon="9.7429929"><ele>108.4</ele><time>2026-03-29T13:12:05.273Z</time></trkpt><trkpt lat="40.5723995" lon="9.7429063"><ele>105.8</ele><time>2026-03-29T13:12:07.269Z</time></trkpt><trkpt lat="40.57247" lon="9.7428202"><ele>103.2</ele><time>2026-03-29T13:12:09.263Z</time></trkpt><trkpt lat="40.5725659" lon="9.7427358"><ele>100.60000000000001</ele><time>2026-03-29T13:12:11.265Z</time></trkpt><trkpt lat="40.5726622" lon="9.742657"><ele>98.0</ele><time>2026-03-29T13:12:13.263Z</time></trkpt><trkpt lat="40.572739" lon="9.7425887"><ele>97.2</ele><time>2026-03-29T13:12:15.265Z</time></trkpt><trkpt lat="40.5728164" lon="9.7425151"><ele>96.4</ele><time>2026-03-29T13:12:17.263Z</time></trkpt><trkpt lat="40.5728922" lon="9.7424258"><ele>95.60000000000001</ele><time>2026-03-29T13:12:19.259Z</time></trkpt><trkpt lat="40.5729695" lon="9.7423344"><ele>94.80000000000001</ele><time>2026-03-29T13:12:21.26Z</time></trkpt><trkpt lat="40.5730396" lon="9.7422399"><ele>94.0</ele><time>2026-03-29T13:12:23.264Z</time></trkpt><trkpt lat="40.5730872" lon="9.7421198"><ele>91.80000000000001</ele><time>2026-03-29T13:12:25.266Z</time></trkpt><trkpt lat="40.5730802" lon="9.7420038"><ele>89.60000000000001</ele><time>2026-03-29T13:12:27.263Z</time></trkpt><trkpt lat="40.573044" lon="9.7419125"><ele>87.4</ele><time>2026-03-29T13:12:29.263Z</time></trkpt><trkpt lat="40.5729819" lon="9.7417894"><ele>85.2</ele><time>2026-03-29T13:12:31.254Z</time></trkpt><trkpt lat="40.5728981" lon="9.741704"><ele>83.0</ele><time>2026-03-29T13:12:33.255Z</time></trkpt><trkpt lat="40.5728164" lon="9.7416728"><ele>83.0</ele><time>2026-03-29T13:12:35.257Z</time></trkpt><trkpt lat="40.5727429" lon="9.7416555"><ele>83.0</ele><time>2026-03-29T13:12:37.278Z</time></trkpt><trkpt lat="40.5726566" lon="9.7416347"><ele>83.0</ele><time>2026-03-29T13:12:39.261Z</time></trkpt><trkpt lat="40.572553" lon="9.7416076"><ele>83.0</ele><time>2026-03-29T13:12:41.261Z</time></trkpt><trkpt lat="40.5724719" lon="9.7415746"><ele>83.0</ele><time>2026-03-29T13:12:43.257Z</time></trkpt><trkpt lat="40.5724135" lon="9.7414892"><ele>83.0</ele><time>2026-03-29T13:12:46.262Z</time></trkpt><trkpt lat="40.5724339" lon="9.741395"><ele>83.0</ele><time>2026-03-29T13:13:36.261Z</time></trkpt><trkpt lat="40.5725036" lon="9.7412852"><ele>83.0</ele><time>2026-03-29T13:13:38.275Z</time></trkpt><trkpt lat="40.5725613" lon="9.7411814"><ele>83.0</ele><time>2026-03-29T13:13:39.264Z</time></trkpt><trkpt lat="40.5726166" lon="9.7410723"><ele>83.0</ele><time>2026-03-29T13:13:40.262Z</time></trkpt><trkpt lat="40.5726866" lon="9.7409792"><ele>83.0</ele><time>2026-03-29T13:13:41.265Z</time></trkpt><trkpt lat="40.5727687" lon="9.7408827"><ele>82.80000000000001</ele><time>2026-03-29T13:13:42.264Z</time></trkpt><trkpt lat="40.5728548" lon="9.7408008"><ele>82.6</ele><time>2026-03-29T13:13:43.263Z</time></trkpt><trkpt lat="40.5729442" lon="9.7407411"><ele>82.4</ele><time>2026-03-29T13:13:44.258Z</time></trkpt><trkpt lat="40.5730241" lon="9.7406987"><ele>82.19999999999999</ele><time>2026-03-29T13:13:45.265Z</time></trkpt><trkpt lat="40.5731025" lon="9.7406569"><ele>82.0</ele><time>2026-03-29T13:13:46.266Z</time></trkpt><trkpt lat="40.573169" lon="9.7406033"><ele>81.71428571428571</ele><time>2026-03-29T13:13:47.265Z</time></trkpt><trkpt lat="40.5732279" lon="9.7405491"><ele>81.42857142857143</ele><time>2026-03-29T13:13:48.27Z</time></trkpt><trkpt lat="40.573288" lon="9.7405008"><ele>81.14285714285714</ele><time>2026-03-29T13:13:49.265Z</time></trkpt><trkpt lat="40.5733399" lon="9.7404377"><ele>80.85714285714286</ele><time>2026-03-29T13:13:50.264Z</time></trkpt><trkpt lat="40.5733904" lon="9.740373"><ele>80.57142857142857</ele><time>2026-03-29T13:13:51.269Z</time></trkpt><trkpt lat="40.5734415" lon="9.7402918"><ele>80.28571428571428</ele><time>2026-03-29T13:13:52.262Z</time></trkpt><trkpt lat="40.5734919" lon="9.7402121"><ele>80.0</ele><time>2026-03-29T13:13:53.272Z</time></trkpt><trkpt lat="40.5735429" lon="9.7401297"><ele>80.0</ele><time>2026-03-29T13:13:54.266Z</time></trkpt><trkpt lat="40.5736029" lon="9.740046"><ele>80.0</ele><time>2026-03-29T13:13:55.26Z</time></trkpt><trkpt lat="40.5736797" lon="9.7399602"><ele>80.0</ele><time>2026-03-29T13:13:56.269Z</time></trkpt><trkpt lat="40.573747" lon="9.7398839"><ele>80.0</ele><time>2026-03-29T13:13:57.265Z</time></trkpt><trkpt lat="40.5738078" lon="9.7398132"><ele>80.0</ele><time>2026-03-29T13:13:58.279Z</time></trkpt><trkpt lat="40.5738642" lon="9.7397615"><ele>80.0</ele><time>2026-03-29T13:13:59.261Z</time></trkpt><trkpt lat="40.5739964" lon="9.7397321"><ele>78.6</ele><time>2026-03-29T13:14:01.261Z</time></trkpt><trkpt lat="40.5740979" lon="9.739731"><ele>77.2</ele><time>2026-03-29T13:14:02.264Z</time></trkpt><trkpt lat="40.5742012" lon="9.7397309"><ele>75.8</ele><time>2026-03-29T13:14:03.267Z</time></trkpt><trkpt lat="40.5742999" lon="9.7397297"><ele>74.4</ele><time>2026-03-29T13:14:04.266Z</time></trkpt><trkpt lat="40.5743923" lon="9.7397299"><ele>73.0</ele><time>2026-03-29T13:14:05.266Z</time></trkpt><trkpt lat="40.5744698" lon="9.7397263"><ele>72.16666666666666</ele><time>2026-03-29T13:14:06.265Z</time></trkpt><trkpt lat="40.5745908" lon="9.7397178"><ele>71.33333333333333</ele><time>2026-03-29T13:14:08.264Z</time></trkpt><trkpt lat="40.5747073" lon="9.7396944"><ele>70.5</ele><time>2026-03-29T13:14:10.268Z</time></trkpt><trkpt lat="40.5747725" lon="9.7396669"><ele>69.66666666666667</ele><time>2026-03-29T13:14:11.263Z</time></trkpt><trkpt lat="40.5748295" lon="9.7396285"><ele>68.83333333333334</ele><time>2026-03-29T13:14:12.283Z</time></trkpt><trkpt lat="40.5748839" lon="9.7395752"><ele>68.0</ele><time>2026-03-29T13:14:13.265Z</time></trkpt><trkpt lat="40.574937" lon="9.7395214"><ele>67.99999999999999</ele><time>2026-03-29T13:14:14.265Z</time></trkpt><trkpt lat="40.5749923" lon="9.7394645"><ele>68.0</ele><time>2026-03-29T13:14:15.256Z</time></trkpt><trkpt lat="40.5750487" lon="9.7394028"><ele>68.0</ele><time>2026-03-29T13:14:16.262Z</time></trkpt><trkpt lat="40.5751051" lon="9.7393407"><ele>68.0</ele><time>2026-03-29T13:14:17.261Z</time></trkpt><trkpt lat="40.575161" lon="9.7392765"><ele>68.0</ele><time>2026-03-29T13:14:18.26Z</time></trkpt><trkpt lat="40.5752168" lon="9.7392173"><ele>67.99999999999999</ele><time>2026-03-29T13:14:19.266Z</time></trkpt><trkpt lat="40.575268" lon="9.7391548"><ele>68.0</ele><time>2026-03-29T13:14:20.259Z</time></trkpt><trkpt lat="40.5753158" lon="9.739091"><ele>67.0</ele><time>2026-03-29T13:14:21.258Z</time></trkpt><trkpt lat="40.575398" lon="9.7389491"><ele>66.0</ele><time>2026-03-29T13:14:23.261Z</time></trkpt><trkpt lat="40.5754408" lon="9.7388573"><ele>65.0</ele><time>2026-03-29T13:14:24.277Z</time></trkpt><trkpt lat="40.5754843" lon="9.7387569"><ele>64.0</ele><time>2026-03-29T13:14:25.261Z</time></trkpt><trkpt lat="40.5755215" lon="9.7386487"><ele>63.0</ele><time>2026-03-29T13:14:26.261Z</time></trkpt><trkpt lat="40.5755514" lon="9.738541"><ele>63.0</ele><time>2026-03-29T13:14:27.261Z</time></trkpt><trkpt lat="40.5755781" lon="9.7384423"><ele>63.0</ele><time>2026-03-29T13:14:28.256Z</time></trkpt><trkpt lat="40.5756039" lon="9.7383512"><ele>63.0</ele><time>2026-03-29T13:14:29.262Z</time></trkpt><trkpt lat="40.5756473" lon="9.7382848"><ele>63.0</ele><time>2026-03-29T13:14:30.263Z</time></trkpt><trkpt lat="40.5757074" lon="9.7382407"><ele>63.0</ele><time>2026-03-29T13:14:31.263Z</time></trkpt><trkpt lat="40.5757755" lon="9.7382096"><ele>63.0</ele><time>2026-03-29T13:14:32.279Z</time></trkpt><trkpt lat="40.5758344" lon="9.7381604"><ele>63.0</ele><time>2026-03-29T13:14:33.263Z</time></trkpt><trkpt lat="40.5758816" lon="9.7380957"><ele>63.0</ele><time>2026-03-29T13:14:34.261Z</time></trkpt><trkpt lat="40.5759212" lon="9.7380228"><ele>63.0</ele><time>2026-03-29T13:14:35.263Z</time></trkpt><trkpt lat="40.5759558" lon="9.7379499"><ele>63.0</ele><time>2026-03-29T13:14:36.255Z</time></trkpt><trkpt lat="40.575991" lon="9.7378723"><ele>63.0</ele><time>2026-03-29T13:14:37.264Z</time></trkpt><trkpt lat="40.5760291" lon="9.7377905"><ele>63.0</ele><time>2026-03-29T13:14:38.262Z</time></trkpt><trkpt lat="40.5760686" lon="9.7377055"><ele>63.0</ele><time>2026-03-29T13:14:39.285Z</time></trkpt><trkpt lat="40.5761128" lon="9.7376135"><ele>63.0</ele><time>2026-03-29T13:14:40.26Z</time></trkpt><trkpt lat="40.5761621" lon="9.7375143"><ele>59.2</ele><time>2026-03-29T13:14:41.263Z</time></trkpt><trkpt lat="40.5762138" lon="9.7374143"><ele>55.4</ele><time>2026-03-29T13:14:42.264Z</time></trkpt><trkpt lat="40.5762696" lon="9.7373133"><ele>51.6</ele><time>2026-03-29T13:14:43.262Z</time></trkpt><trkpt lat="40.5763296" lon="9.7372155"><ele>47.800000000000004</ele><time>2026-03-29T13:14:44.282Z</time></trkpt><trkpt lat="40.5763884" lon="9.7371207"><ele>44.0</ele><time>2026-03-29T13:14:45.258Z</time></trkpt><trkpt lat="40.5764628" lon="9.7370517"><ele>44.0</ele><time>2026-03-29T13:14:46.261Z</time></trkpt><trkpt lat="40.5765611" lon="9.7369853"><ele>44.0</ele><time>2026-03-29T13:14:47.267Z</time></trkpt><trkpt lat="40.5766563" lon="9.7369255"><ele>44.0</ele><time>2026-03-29T13:14:48.264Z</time></trkpt><trkpt lat="40.5767447" lon="9.7368698"><ele>44.0</ele><time>2026-03-29T13:14:49.28Z</time></trkpt><trkpt lat="40.5768071" lon="9.7367962"><ele>44.0</ele><time>2026-03-29T13:14:50.259Z</time></trkpt><trkpt lat="40.5768645" lon="9.736713"><ele>44.400000000000006</ele><time>2026-03-29T13:14:51.262Z</time></trkpt><trkpt lat="40.5769244" lon="9.7366211"><ele>44.8</ele><time>2026-03-29T13:14:52.259Z</time></trkpt><trkpt lat="40.5769871" lon="9.7365206"><ele>45.2</ele><time>2026-03-29T13:14:53.264Z</time></trkpt><trkpt lat="40.5770519" lon="9.7364189"><ele>45.599999999999994</ele><time>2026-03-29T13:14:54.259Z</time></trkpt><trkpt lat="40.5771167" lon="9.7363266"><ele>46.0</ele><time>2026-03-29T13:14:55.253Z</time></trkpt><trkpt lat="40.5771851" lon="9.7362416"><ele>43.8</ele><time>2026-03-29T13:14:56.262Z</time></trkpt><trkpt lat="40.5772538" lon="9.7361576"><ele>41.599999999999994</ele><time>2026-03-29T13:14:57.258Z</time></trkpt><trkpt lat="40.5773212" lon="9.7360712"><ele>39.4</ele><time>2026-03-29T13:14:58.27Z</time></trkpt><trkpt lat="40.5773892" lon="9.735983"><ele>37.2</ele><time>2026-03-29T13:14:59.261Z</time></trkpt><trkpt lat="40.5774574" lon="9.7358914"><ele>35.0</ele><time>2026-03-29T13:15:00.257Z</time></trkpt><trkpt lat="40.5775243" lon="9.7358036"><ele>34.83333333333333</ele><time>2026-03-29T13:15:01.253Z</time></trkpt><trkpt lat="40.57759" lon="9.7357216"><ele>34.666666666666664</ele><time>2026-03-29T13:15:02.257Z</time></trkpt><trkpt lat="40.5776563" lon="9.7356433"><ele>34.5</ele><time>2026-03-29T13:15:03.264Z</time></trkpt><trkpt lat="40.5777252" lon="9.7355671"><ele>34.333333333333336</ele><time>2026-03-29T13:15:04.263Z</time></trkpt><trkpt lat="40.5777934" lon="9.7354924"><ele>34.16666666666667</ele><time>2026-03-29T13:15:05.263Z</time></trkpt><trkpt lat="40.5778592" lon="9.7354216"><ele>34.0</ele><time>2026-03-29T13:15:06.257Z</time></trkpt><trkpt lat="40.5779158" lon="9.735361"><ele>32.16666666666667</ele><time>2026-03-29T13:15:07.278Z</time></trkpt><trkpt lat="40.5779958" lon="9.7352765"><ele>30.333333333333336</ele><time>2026-03-29T13:15:09.261Z</time></trkpt><trkpt lat="40.578054" lon="9.7352113"><ele>28.5</ele><time>2026-03-29T13:15:11.265Z</time></trkpt><trkpt lat="40.5780876" lon="9.7351314"><ele>26.666666666666668</ele><time>2026-03-29T13:15:15.267Z</time></trkpt><trkpt lat="40.5780603" lon="9.7350309"><ele>24.833333333333336</ele><time>2026-03-29T13:15:17.281Z</time></trkpt><trkpt lat="40.5780189" lon="9.7349439"><ele>23.0</ele><time>2026-03-29T13:15:18.269Z</time></trkpt><trkpt lat="40.5779596" lon="9.7348404"><ele>23.0</ele><time>2026-03-29T13:15:19.26Z</time></trkpt><trkpt lat="40.5778802" lon="9.7347158"><ele>23.0</ele><time>2026-03-29T13:15:20.261Z</time></trkpt><trkpt lat="40.57779" lon="9.7345782"><ele>23.0</ele><time>2026-03-29T13:15:21.263Z</time></trkpt><trkpt lat="40.5776844" lon="9.7344336"><ele>23.0</ele><time>2026-03-29T13:15:22.272Z</time></trkpt><trkpt lat="40.5775617" lon="9.7342925"><ele>22.333333333333336</ele><time>2026-03-29T13:15:23.263Z</time></trkpt><trkpt lat="40.5774266" lon="9.734171"><ele>21.666666666666668</ele><time>2026-03-29T13:15:24.26Z</time></trkpt><trkpt lat="40.5772856" lon="9.7340586"><ele>21.0</ele><time>2026-03-29T13:15:25.265Z</time></trkpt><trkpt lat="40.5771578" lon="9.7339462"><ele>21.0</ele><time>2026-03-29T13:15:26.259Z</time></trkpt><trkpt lat="40.5770546" lon="9.7338228"><ele>21.0</ele><time>2026-03-29T13:15:27.286Z</time></trkpt><trkpt lat="40.5769636" lon="9.7336903"><ele>21.0</ele><time>2026-03-29T13:15:28.256Z</time></trkpt><trkpt lat="40.5769268" lon="9.7335117"><ele>21.0</ele><time>2026-03-29T13:15:29.268Z</time></trkpt><trkpt lat="40.576896" lon="9.7333214"><ele>21.0</ele><time>2026-03-29T13:15:30.263Z</time></trkpt><trkpt lat="40.5768738" lon="9.7331214"><ele>21.0</ele><time>2026-03-29T13:15:31.261Z</time></trkpt><trkpt lat="40.576846" lon="9.7329091"><ele>21.0</ele><time>2026-03-29T13:15:32.261Z</time></trkpt><trkpt lat="40.5768133" lon="9.7326911"><ele>21.0</ele><time>2026-03-29T13:15:33.26Z</time></trkpt><trkpt lat="40.5767758" lon="9.7324753"><ele>21.0</ele><time>2026-03-29T13:15:34.257Z</time></trkpt><trkpt lat="40.5767328" lon="9.7322574"><ele>21.0</ele><time>2026-03-29T13:15:35.275Z</time></trkpt><trkpt lat="40.5766874" lon="9.7320432"><ele>23.333333333333336</ele><time>2026-03-29T13:15:36.258Z</time></trkpt><trkpt lat="40.5766346" lon="9.7318311"><ele>25.666666666666668</ele><time>2026-03-29T13:15:37.259Z</time></trkpt><trkpt lat="40.576572" lon="9.7316264"><ele>28.0</ele><time>2026-03-29T13:15:38.259Z</time></trkpt><trkpt lat="40.5765008" lon="9.7314256"><ele>28.0</ele><time>2026-03-29T13:15:39.257Z</time></trkpt><trkpt lat="40.576419" lon="9.7312302"><ele>28.0</ele><time>2026-03-29T13:15:40.266Z</time></trkpt><trkpt lat="40.5763343" lon="9.7310342"><ele>28.0</ele><time>2026-03-29T13:15:41.278Z</time></trkpt><trkpt lat="40.5762468" lon="9.7308368"><ele>28.333333333333336</ele><time>2026-03-29T13:15:42.261Z</time></trkpt><trkpt lat="40.5761591" lon="9.7306362"><ele>28.666666666666664</ele><time>2026-03-29T13:15:43.258Z</time></trkpt><trkpt lat="40.5760764" lon="9.7304326"><ele>29.0</ele><time>2026-03-29T13:15:44.253Z</time></trkpt><trkpt lat="40.5760108" lon="9.73022"><ele>27.666666666666664</ele><time>2026-03-29T13:15:45.261Z</time></trkpt><trkpt lat="40.5759639" lon="9.7300011"><ele>26.333333333333336</ele><time>2026-03-29T13:15:46.262Z</time></trkpt><trkpt lat="40.5759335" lon="9.7297762"><ele>25.0</ele><time>2026-03-29T13:15:47.262Z</time></trkpt><trkpt lat="40.5759212" lon="9.7295485"><ele>24.666666666666668</ele><time>2026-03-29T13:15:48.26Z</time></trkpt><trkpt lat="40.5759172" lon="9.7293234"><ele>24.333333333333336</ele><time>2026-03-29T13:15:49.289Z</time></trkpt><trkpt lat="40.5759039" lon="9.7291069"><ele>24.0</ele><time>2026-03-29T13:15:50.258Z</time></trkpt><trkpt lat="40.575876" lon="9.7288941"><ele>24.0</ele><time>2026-03-29T13:15:51.262Z</time></trkpt><trkpt lat="40.5758313" lon="9.728685"><ele>24.0</ele><time>2026-03-29T13:15:52.26Z</time></trkpt><trkpt lat="40.5757805" lon="9.7284816"><ele>24.0</ele><time>2026-03-29T13:15:53.256Z</time></trkpt><trkpt lat="40.5757255" lon="9.7282729"><ele>23.666666666666668</ele><time>2026-03-29T13:15:54.254Z</time></trkpt><trkpt lat="40.5756708" lon="9.7280469"><ele>23.333333333333336</ele><time>2026-03-29T13:15:55.257Z</time></trkpt><trkpt lat="40.5756155" lon="9.7278253"><ele>23.0</ele><time>2026-03-29T13:15:56.26Z</time></trkpt><trkpt lat="40.5755626" lon="9.7276034"><ele>23.0</ele><time>2026-03-29T13:15:57.275Z</time></trkpt><trkpt lat="40.5755073" lon="9.7273744"><ele>23.0</ele><time>2026-03-29T13:15:58.258Z</time></trkpt><trkpt lat="40.5754491" lon="9.7271423"><ele>23.0</ele><time>2026-03-29T13:15:59.254Z</time></trkpt><trkpt lat="40.575389" lon="9.7269129"><ele>24.0</ele><time>2026-03-29T13:16:00.267Z</time></trkpt><trkpt lat="40.5753289" lon="9.726689"><ele>25.0</ele><time>2026-03-29T13:16:01.264Z</time></trkpt><trkpt lat="40.5752678" lon="9.7264719"><ele>26.0</ele><time>2026-03-29T13:16:02.274Z</time></trkpt><trkpt lat="40.5752126" lon="9.7262553"><ele>26.333333333333332</ele><time>2026-03-29T13:16:03.264Z</time></trkpt><trkpt lat="40.5751602" lon="9.7260452"><ele>26.666666666666664</ele><time>2026-03-29T13:16:04.256Z</time></trkpt><trkpt lat="40.5751034" lon="9.7258411"><ele>27.0</ele><time>2026-03-29T13:16:05.26Z</time></trkpt><trkpt lat="40.5750486" lon="9.7256395"><ele>27.0</ele><time>2026-03-29T13:16:06.256Z</time></trkpt><trkpt lat="40.5749975" lon="9.7254381"><ele>27.0</ele><time>2026-03-29T13:16:07.282Z</time></trkpt><trkpt lat="40.5749499" lon="9.7252504"><ele>27.0</ele><time>2026-03-29T13:16:08.255Z</time></trkpt><trkpt lat="40.5748958" lon="9.7250648"><ele>27.5</ele><time>2026-03-29T13:16:09.263Z</time></trkpt><trkpt lat="40.5748521" lon="9.724877"><ele>28.0</ele><time>2026-03-29T13:16:10.265Z</time></trkpt><trkpt lat="40.5748058" lon="9.7246886"><ele>28.5</ele><time>2026-03-29T13:16:11.265Z</time></trkpt><trkpt lat="40.5747707" lon="9.7244993"><ele>29.0</ele><time>2026-03-29T13:16:12.256Z</time></trkpt><trkpt lat="40.5747509" lon="9.724304"><ele>29.333333333333332</ele><time>2026-03-29T13:16:13.284Z</time></trkpt><trkpt lat="40.5747473" lon="9.7240948"><ele>29.666666666666664</ele><time>2026-03-29T13:16:14.263Z</time></trkpt><trkpt lat="40.5747425" lon="9.7238898"><ele>30.0</ele><time>2026-03-29T13:16:15.259Z</time></trkpt><trkpt lat="40.5747228" lon="9.723695"><ele>28.75</ele><time>2026-03-29T13:16:16.256Z</time></trkpt><trkpt lat="40.5746879" lon="9.7235052"><ele>27.5</ele><time>2026-03-29T13:16:17.257Z</time></trkpt><trkpt lat="40.574643" lon="9.7233283"><ele>26.25</ele><time>2026-03-29T13:16:18.258Z</time></trkpt><trkpt lat="40.5745881" lon="9.7231621"><ele>25.0</ele><time>2026-03-29T13:16:19.274Z</time></trkpt><trkpt lat="40.5745361" lon="9.7230024"><ele>24.75</ele><time>2026-03-29T13:16:20.255Z</time></trkpt><trkpt lat="40.5744971" lon="9.7228403"><ele>24.5</ele><time>2026-03-29T13:16:21.259Z</time></trkpt><trkpt lat="40.574481" lon="9.7226621"><ele>24.25</ele><time>2026-03-29T13:16:22.257Z</time></trkpt><trkpt lat="40.5744889" lon="9.7224649"><ele>24.0</ele><time>2026-03-29T13:16:23.262Z</time></trkpt><trkpt lat="40.5744988" lon="9.7222539"><ele>24.0</ele><time>2026-03-29T13:16:24.258Z</time></trkpt><trkpt lat="40.5745017" lon="9.7220193"><ele>24.0</ele><time>2026-03-29T13:16:25.262Z</time></trkpt><trkpt lat="40.5744809" lon="9.7217749"><ele>24.0</ele><time>2026-03-29T13:16:26.269Z</time></trkpt><trkpt lat="40.5744582" lon="9.7215213"><ele>23.333333333333332</ele><time>2026-03-29T13:16:27.262Z</time></trkpt><trkpt lat="40.5744399" lon="9.7212673"><ele>22.666666666666664</ele><time>2026-03-29T13:16:28.26Z</time></trkpt><trkpt lat="40.5744162" lon="9.721021"><ele>22.0</ele><time>2026-03-29T13:16:29.263Z</time></trkpt><trkpt lat="40.5743954" lon="9.7207804"><ele>22.0</ele><time>2026-03-29T13:16:30.259Z</time></trkpt><trkpt lat="40.5743739" lon="9.7205461"><ele>22.0</ele><time>2026-03-29T13:16:31.278Z</time></trkpt><trkpt lat="40.5743528" lon="9.7203167"><ele>22.0</ele><time>2026-03-29T13:16:32.257Z</time></trkpt><trkpt lat="40.5743329" lon="9.7200903"><ele>22.333333333333332</ele><time>2026-03-29T13:16:33.263Z</time></trkpt><trkpt lat="40.5743118" lon="9.7198668"><ele>22.666666666666668</ele><time>2026-03-29T13:16:34.266Z</time></trkpt><trkpt lat="40.5742916" lon="9.7196499"><ele>23.0</ele><time>2026-03-29T13:16:35.257Z</time></trkpt><trkpt lat="40.5742732" lon="9.7194532"><ele>23.75</ele><time>2026-03-29T13:16:36.286Z</time></trkpt><trkpt lat="40.5742545" lon="9.7192756"><ele>24.5</ele><time>2026-03-29T13:16:37.261Z</time></trkpt><trkpt lat="40.5742387" lon="9.7191129"><ele>25.25</ele><time>2026-03-29T13:16:38.256Z</time></trkpt><trkpt lat="40.5742235" lon="9.7189686"><ele>26.0</ele><time>2026-03-29T13:16:39.263Z</time></trkpt><trkpt lat="40.5742105" lon="9.7188551"><ele>26.0</ele><time>2026-03-29T13:16:40.255Z</time></trkpt><trkpt lat="40.5741997" lon="9.7187219"><ele>26.0</ele><time>2026-03-29T13:16:42.259Z</time></trkpt><trkpt lat="40.5741774" lon="9.7186106"><ele>26.0</ele><time>2026-03-29T13:16:58.269Z</time></trkpt><trkpt lat="40.5740921" lon="9.718537"><ele>26.0</ele><time>2026-03-29T13:17:00.257Z</time></trkpt><trkpt lat="40.5739687" lon="9.7185203"><ele>26.0</ele><time>2026-03-29T13:17:02.261Z</time></trkpt><trkpt lat="40.573898" lon="9.7185516"><ele>26.0</ele><time>2026-03-29T13:17:03.264Z</time></trkpt><trkpt lat="40.5738153" lon="9.7185993"><ele>26.0</ele><time>2026-03-29T13:17:04.264Z</time></trkpt><trkpt lat="40.5737416" lon="9.718653"><ele>26.0</ele><time>2026-03-29T13:17:05.278Z</time></trkpt><trkpt lat="40.573655" lon="9.7186807"><ele>26.0</ele><time>2026-03-29T13:17:06.261Z</time></trkpt><trkpt lat="40.5735538" lon="9.7186814"><ele>26.0</ele><time>2026-03-29T13:17:07.263Z</time></trkpt><trkpt lat="40.5734416" lon="9.7186738"><ele>27.5</ele><time>2026-03-29T13:17:08.254Z</time></trkpt><trkpt lat="40.5732991" lon="9.7186732"><ele>29.0</ele><time>2026-03-29T13:17:09.254Z</time></trkpt><trkpt lat="40.5731745" lon="9.7186758"><ele>30.5</ele><time>2026-03-29T13:17:10.26Z</time></trkpt><trkpt lat="40.5730492" lon="9.7186634"><ele>32.0</ele><time>2026-03-29T13:17:11.26Z</time></trkpt><trkpt lat="40.5729301" lon="9.7186605"><ele>32.666666666666664</ele><time>2026-03-29T13:17:12.257Z</time></trkpt><trkpt lat="40.5728224" lon="9.7186561"><ele>33.33333333333333</ele><time>2026-03-29T13:17:13.273Z</time></trkpt><trkpt lat="40.5727526" lon="9.7186516"><ele>34.0</ele><time>2026-03-29T13:17:14.257Z</time></trkpt><trkpt lat="40.5726934" lon="9.7186119"><ele>34.666666666666664</ele><time>2026-03-29T13:17:15.257Z</time></trkpt><trkpt lat="40.572618" lon="9.7185674"><ele>35.333333333333336</ele><time>2026-03-29T13:17:16.262Z</time></trkpt><trkpt lat="40.5725274" lon="9.7185219"><ele>36.0</ele><time>2026-03-29T13:17:17.255Z</time></trkpt><trkpt lat="40.572418" lon="9.7184855"><ele>36.0</ele><time>2026-03-29T13:17:18.286Z</time></trkpt><trkpt lat="40.5723037" lon="9.7184517"><ele>36.0</ele><time>2026-03-29T13:17:19.258Z</time></trkpt><trkpt lat="40.5721755" lon="9.7184352"><ele>36.0</ele><time>2026-03-29T13:17:20.254Z</time></trkpt><trkpt lat="40.5720361" lon="9.7184244"><ele>36.0</ele><time>2026-03-29T13:17:21.258Z</time></trkpt><trkpt lat="40.5718986" lon="9.7184209"><ele>34.75</ele><time>2026-03-29T13:17:22.258Z</time></trkpt><trkpt lat="40.5717622" lon="9.7184153"><ele>33.5</ele><time>2026-03-29T13:17:23.252Z</time></trkpt><trkpt lat="40.5716283" lon="9.7184068"><ele>32.25</ele><time>2026-03-29T13:17:24.262Z</time></trkpt><trkpt lat="40.571492" lon="9.7183873"><ele>31.0</ele><time>2026-03-29T13:17:25.264Z</time></trkpt><trkpt lat="40.5713588" lon="9.7183655"><ele>31.0</ele><time>2026-03-29T13:17:26.258Z</time></trkpt><trkpt lat="40.5712348" lon="9.7183292"><ele>31.0</ele><time>2026-03-29T13:17:27.255Z</time></trkpt><trkpt lat="40.5711053" lon="9.7182819"><ele>31.0</ele><time>2026-03-29T13:17:28.262Z</time></trkpt><trkpt lat="40.5709608" lon="9.718196"><ele>31.0</ele><time>2026-03-29T13:17:29.27Z</time></trkpt><trkpt lat="40.5708272" lon="9.7180982"><ele>30.75</ele><time>2026-03-29T13:17:30.261Z</time></trkpt><trkpt lat="40.5706911" lon="9.717988"><ele>30.5</ele><time>2026-03-29T13:17:31.267Z</time></trkpt><trkpt lat="40.5705604" lon="9.7178962"><ele>30.25</ele><time>2026-03-29T13:17:32.261Z</time></trkpt><trkpt lat="40.5704304" lon="9.7178354"><ele>30.0</ele><time>2026-03-29T13:17:33.258Z</time></trkpt><trkpt lat="40.5702998" lon="9.7177782"><ele>30.25</ele><time>2026-03-29T13:17:34.26Z</time></trkpt><trkpt lat="40.5701647" lon="9.7177387"><ele>30.5</ele><time>2026-03-29T13:17:35.26Z</time></trkpt><trkpt lat="40.5700349" lon="9.7176806"><ele>30.75</ele><time>2026-03-29T13:17:36.256Z</time></trkpt><trkpt lat="40.5699262" lon="9.7176076"><ele>31.0</ele><time>2026-03-29T13:17:37.274Z</time></trkpt><trkpt lat="40.5698152" lon="9.7175084"><ele>31.0</ele><time>2026-03-29T13:17:38.264Z</time></trkpt><trkpt lat="40.5697012" lon="9.7173869"><ele>31.0</ele><time>2026-03-29T13:17:39.253Z</time></trkpt><trkpt lat="40.569578" lon="9.7172457"><ele>31.0</ele><time>2026-03-29T13:17:40.254Z</time></trkpt><trkpt lat="40.5694567" lon="9.717104"><ele>30.666666666666668</ele><time>2026-03-29T13:17:41.255Z</time></trkpt><trkpt lat="40.5693346" lon="9.7169715"><ele>30.333333333333336</ele><time>2026-03-29T13:17:42.264Z</time></trkpt><trkpt lat="40.569211" lon="9.7168485"><ele>30.0</ele><time>2026-03-29T13:17:43.259Z</time></trkpt><trkpt lat="40.5690937" lon="9.7167337"><ele>30.25</ele><time>2026-03-29T13:17:44.266Z</time></trkpt><trkpt lat="40.5689819" lon="9.7166284"><ele>30.5</ele><time>2026-03-29T13:17:45.259Z</time></trkpt><trkpt lat="40.5688747" lon="9.7165185"><ele>30.75</ele><time>2026-03-29T13:17:46.261Z</time></trkpt><trkpt lat="40.5687583" lon="9.7164142"><ele>31.0</ele><time>2026-03-29T13:17:47.261Z</time></trkpt><trkpt lat="40.5686421" lon="9.7163238"><ele>31.0</ele><time>2026-03-29T13:17:48.263Z</time></trkpt><trkpt lat="40.5685283" lon="9.7162416"><ele>31.0</ele><time>2026-03-29T13:17:49.266Z</time></trkpt><trkpt lat="40.5684208" lon="9.7161645"><ele>31.0</ele><time>2026-03-29T13:17:50.261Z</time></trkpt><trkpt lat="40.5683269" lon="9.7160925"><ele>31.0</ele><time>2026-03-29T13:17:51.258Z</time></trkpt><trkpt lat="40.5682395" lon="9.7160013"><ele>31.200000000000003</ele><time>2026-03-29T13:17:52.257Z</time></trkpt><trkpt lat="40.56816" lon="9.7158804"><ele>31.400000000000002</ele><time>2026-03-29T13:17:53.254Z</time></trkpt><trkpt lat="40.568079" lon="9.7157644"><ele>31.6</ele><time>2026-03-29T13:17:54.258Z</time></trkpt><trkpt lat="40.5680114" lon="9.7156687"><ele>31.8</ele><time>2026-03-29T13:17:55.272Z</time></trkpt><trkpt lat="40.5679407" lon="9.7155997"><ele>32.0</ele><time>2026-03-29T13:17:56.254Z</time></trkpt><trkpt lat="40.5678762" lon="9.7155389"><ele>32.2</ele><time>2026-03-29T13:17:57.262Z</time></trkpt><trkpt lat="40.5678021" lon="9.7154777"><ele>32.400000000000006</ele><time>2026-03-29T13:17:58.259Z</time></trkpt><trkpt lat="40.5677285" lon="9.7154175"><ele>32.599999999999994</ele><time>2026-03-29T13:17:59.253Z</time></trkpt><trkpt lat="40.5676477" lon="9.7153531"><ele>32.8</ele><time>2026-03-29T13:18:00.28Z</time></trkpt><trkpt lat="40.5675718" lon="9.7152868"><ele>33.0</ele><time>2026-03-29T13:18:01.253Z</time></trkpt><trkpt lat="40.5675048" lon="9.7151871"><ele>33.0</ele><time>2026-03-29T13:18:02.259Z</time></trkpt><trkpt lat="40.567449" lon="9.71508"><ele>33.0</ele><time>2026-03-29T13:18:03.265Z</time></trkpt><trkpt lat="40.5673886" lon="9.7149771"><ele>33.0</ele><time>2026-03-29T13:18:04.254Z</time></trkpt><trkpt lat="40.567315" lon="9.7148928"><ele>33.0</ele><time>2026-03-29T13:18:05.274Z</time></trkpt><trkpt lat="40.5672451" lon="9.7148144"><ele>33.0</ele><time>2026-03-29T13:18:06.258Z</time></trkpt><trkpt lat="40.5671804" lon="9.7147155"><ele>33.0</ele><time>2026-03-29T13:18:07.26Z</time></trkpt><trkpt lat="40.5671316" lon="9.714604"><ele>33.0</ele><time>2026-03-29T13:18:08.258Z</time></trkpt><trkpt lat="40.5670995" lon="9.7145209"><ele>33.0</ele><time>2026-03-29T13:18:09.26Z</time></trkpt><trkpt lat="40.5670628" lon="9.7144352"><ele>33.0</ele><time>2026-03-29T13:18:10.279Z</time></trkpt><trkpt lat="40.5670268" lon="9.7143589"><ele>33.0</ele><time>2026-03-29T13:18:11.261Z</time></trkpt><trkpt lat="40.5669942" lon="9.714285"><ele>33.0</ele><time>2026-03-29T13:18:12.256Z</time></trkpt><trkpt lat="40.5669473" lon="9.7141995"><ele>31.2</ele><time>2026-03-29T13:18:13.26Z</time></trkpt><trkpt lat="40.5668934" lon="9.7141191"><ele>29.4</ele><time>2026-03-29T13:18:14.259Z</time></trkpt><trkpt lat="40.5668491" lon="9.7140295"><ele>27.599999999999998</ele><time>2026-03-29T13:18:15.258Z</time></trkpt><trkpt lat="40.5668055" lon="9.7139219"><ele>25.799999999999997</ele><time>2026-03-29T13:18:16.259Z</time></trkpt><trkpt lat="40.5667378" lon="9.7138156"><ele>24.0</ele><time>2026-03-29T13:18:17.262Z</time></trkpt><trkpt lat="40.5666712" lon="9.7137142"><ele>24.0</ele><time>2026-03-29T13:18:18.258Z</time></trkpt><trkpt lat="40.5666062" lon="9.7136258"><ele>24.0</ele><time>2026-03-29T13:18:19.256Z</time></trkpt><trkpt lat="40.5665309" lon="9.7135429"><ele>24.0</ele><time>2026-03-29T13:18:20.252Z</time></trkpt><trkpt lat="40.5664692" lon="9.7134903"><ele>24.0</ele><time>2026-03-29T13:18:21.255Z</time></trkpt><trkpt lat="40.5663993" lon="9.7134535"><ele>24.0</ele><time>2026-03-29T13:18:22.254Z</time></trkpt><trkpt lat="40.5663231" lon="9.7134366"><ele>24.0</ele><time>2026-03-29T13:18:23.261Z</time></trkpt><trkpt lat="40.5662399" lon="9.7134277"><ele>25.2</ele><time>2026-03-29T13:18:24.258Z</time></trkpt><trkpt lat="40.5661548" lon="9.7134166"><ele>26.4</ele><time>2026-03-29T13:18:25.262Z</time></trkpt><trkpt lat="40.5660833" lon="9.7134155"><ele>27.6</ele><time>2026-03-29T13:18:26.255Z</time></trkpt><trkpt lat="40.5659922" lon="9.7133569"><ele>28.8</ele><time>2026-03-29T13:18:28.257Z</time></trkpt><trkpt lat="40.565986" lon="9.7131891"><ele>30.0</ele><time>2026-03-29T13:18:30.264Z</time></trkpt><trkpt lat="40.5660127" lon="9.7130908"><ele>30.0</ele><time>2026-03-29T13:18:31.264Z</time></trkpt><trkpt lat="40.5660439" lon="9.7129737"><ele>30.0</ele><time>2026-03-29T13:18:32.258Z</time></trkpt><trkpt lat="40.5660831" lon="9.71285"><ele>30.0</ele><time>2026-03-29T13:18:33.257Z</time></trkpt><trkpt lat="40.5661338" lon="9.7127362"><ele>30.0</ele><time>2026-03-29T13:18:34.262Z</time></trkpt><trkpt lat="40.5661814" lon="9.7126302"><ele>30.0</ele><time>2026-03-29T13:18:35.257Z</time></trkpt><trkpt lat="40.5662064" lon="9.7125332"><ele>29.666666666666668</ele><time>2026-03-29T13:18:36.27Z</time></trkpt><trkpt lat="40.5662043" lon="9.7124392"><ele>29.333333333333336</ele><time>2026-03-29T13:18:37.26Z</time></trkpt><trkpt lat="40.5661884" lon="9.7123366"><ele>29.0</ele><time>2026-03-29T13:18:38.255Z</time></trkpt><trkpt lat="40.5661683" lon="9.7122263"><ele>28.666666666666668</ele><time>2026-03-29T13:18:39.265Z</time></trkpt><trkpt lat="40.5661488" lon="9.7121036"><ele>28.333333333333336</ele><time>2026-03-29T13:18:40.265Z</time></trkpt><trkpt lat="40.5661439" lon="9.7119704"><ele>28.0</ele><time>2026-03-29T13:18:41.269Z</time></trkpt><trkpt lat="40.56615" lon="9.7118201"><ele>28.0</ele><time>2026-03-29T13:18:42.284Z</time></trkpt><trkpt lat="40.5661628" lon="9.7116513"><ele>28.0</ele><time>2026-03-29T13:18:43.262Z</time></trkpt><trkpt lat="40.5661771" lon="9.7114736"><ele>28.0</ele><time>2026-03-29T13:18:44.261Z</time></trkpt><trkpt lat="40.5662005" lon="9.7112879"><ele>28.0</ele><time>2026-03-29T13:18:45.263Z</time></trkpt><trkpt lat="40.5662298" lon="9.7111036"><ele>27.75</ele><time>2026-03-29T13:18:46.26Z</time></trkpt><trkpt lat="40.5662657" lon="9.7109183"><ele>27.5</ele><time>2026-03-29T13:18:47.28Z</time></trkpt><trkpt lat="40.5663075" lon="9.7107458"><ele>27.25</ele><time>2026-03-29T13:18:48.266Z</time></trkpt><trkpt lat="40.5663512" lon="9.7105929"><ele>27.0</ele><time>2026-03-29T13:18:49.261Z</time></trkpt><trkpt lat="40.5663904" lon="9.7104644"><ele>27.0</ele><time>2026-03-29T13:18:50.26Z</time></trkpt><trkpt lat="40.5664245" lon="9.7103603"><ele>27.000000000000004</ele><time>2026-03-29T13:18:51.265Z</time></trkpt><trkpt lat="40.5664536" lon="9.7102821"><ele>27.000000000000004</ele><time>2026-03-29T13:18:52.26Z</time></trkpt><trkpt lat="40.5664859" lon="9.7101949"><ele>27.0</ele><time>2026-03-29T13:18:54.254Z</time></trkpt><trkpt lat="40.5665325" lon="9.7100573"><ele>27.0</ele><time>2026-03-29T13:18:59.255Z</time></trkpt><trkpt lat="40.5665671" lon="9.7098852"><ele>27.0</ele><time>2026-03-29T13:19:01.26Z</time></trkpt><trkpt lat="40.5665903" lon="9.709771"><ele>27.0</ele><time>2026-03-29T13:19:02.253Z</time></trkpt><trkpt lat="40.5666163" lon="9.7096695"><ele>27.0</ele><time>2026-03-29T13:19:03.257Z</time></trkpt><trkpt lat="40.5666402" lon="9.7095691"><ele>27.0</ele><time>2026-03-29T13:19:04.262Z</time></trkpt><trkpt lat="40.5666608" lon="9.7094755"><ele>27.0</ele><time>2026-03-29T13:19:05.257Z</time></trkpt><trkpt lat="40.5666806" lon="9.7093763"><ele>27.0</ele><time>2026-03-29T13:19:06.283Z</time></trkpt><trkpt lat="40.5667055" lon="9.709286"><ele>26.666666666666668</ele><time>2026-03-29T13:19:07.256Z</time></trkpt><trkpt lat="40.5667388" lon="9.7091991"><ele>26.333333333333336</ele><time>2026-03-29T13:19:08.258Z</time></trkpt><trkpt lat="40.5667797" lon="9.7091263"><ele>26.0</ele><time>2026-03-29T13:19:09.264Z</time></trkpt><trkpt lat="40.5668251" lon="9.7090553"><ele>25.666666666666668</ele><time>2026-03-29T13:19:10.263Z</time></trkpt><trkpt lat="40.5668715" lon="9.7089776"><ele>25.333333333333336</ele><time>2026-03-29T13:19:11.263Z</time></trkpt><trkpt lat="40.5669199" lon="9.7088978"><ele>25.0</ele><time>2026-03-29T13:19:12.277Z</time></trkpt><trkpt lat="40.5669734" lon="9.7087987"><ele>25.0</ele><time>2026-03-29T13:19:13.259Z</time></trkpt><trkpt lat="40.567032" lon="9.7086725"><ele>25.0</ele><time>2026-03-29T13:19:14.265Z</time></trkpt><trkpt lat="40.567086" lon="9.7085336"><ele>25.0</ele><time>2026-03-29T13:19:15.256Z</time></trkpt><trkpt lat="40.5671351" lon="9.7083843"><ele>25.0</ele><time>2026-03-29T13:19:16.263Z</time></trkpt><trkpt lat="40.5671879" lon="9.7082255"><ele>25.0</ele><time>2026-03-29T13:19:17.26Z</time></trkpt><trkpt lat="40.5672475" lon="9.7080708"><ele>25.0</ele><time>2026-03-29T13:19:18.254Z</time></trkpt><trkpt lat="40.5673171" lon="9.7079213"><ele>25.0</ele><time>2026-03-29T13:19:19.282Z</time></trkpt><trkpt lat="40.567398" lon="9.7077703"><ele>25.0</ele><time>2026-03-29T13:19:20.258Z</time></trkpt><trkpt lat="40.5674794" lon="9.7076083"><ele>24.333333333333336</ele><time>2026-03-29T13:19:21.257Z</time></trkpt><trkpt lat="40.5675477" lon="9.7074372"><ele>23.666666666666668</ele><time>2026-03-29T13:19:22.26Z</time></trkpt><trkpt lat="40.5676054" lon="9.7072494"><ele>23.0</ele><time>2026-03-29T13:19:23.267Z</time></trkpt><trkpt lat="40.5676611" lon="9.7070501"><ele>23.333333333333336</ele><time>2026-03-29T13:19:24.259Z</time></trkpt><trkpt lat="40.5677147" lon="9.7068559"><ele>23.666666666666668</ele><time>2026-03-29T13:19:25.282Z</time></trkpt><trkpt lat="40.5677667" lon="9.7066657"><ele>24.0</ele><time>2026-03-29T13:19:26.258Z</time></trkpt><trkpt lat="40.5678232" lon="9.7064804"><ele>24.5</ele><time>2026-03-29T13:19:27.257Z</time></trkpt><trkpt lat="40.5678877" lon="9.7063023"><ele>25.0</ele><time>2026-03-29T13:19:28.258Z</time></trkpt><trkpt lat="40.5679596" lon="9.7061425"><ele>25.5</ele><time>2026-03-29T13:19:29.257Z</time></trkpt><trkpt lat="40.5680384" lon="9.7059917"><ele>26.0</ele><time>2026-03-29T13:19:30.258Z</time></trkpt><trkpt lat="40.5681234" lon="9.7058452"><ele>26.0</ele><time>2026-03-29T13:19:31.277Z</time></trkpt><trkpt lat="40.5682117" lon="9.7057043"><ele>26.0</ele><time>2026-03-29T13:19:32.26Z</time></trkpt><trkpt lat="40.5683013" lon="9.7055756"><ele>26.0</ele><time>2026-03-29T13:19:33.258Z</time></trkpt><trkpt lat="40.5683964" lon="9.7054576"><ele>26.0</ele><time>2026-03-29T13:19:34.258Z</time></trkpt><trkpt lat="40.5684997" lon="9.705351"><ele>26.0</ele><time>2026-03-29T13:19:35.261Z</time></trkpt><trkpt lat="40.5686068" lon="9.7052556"><ele>26.0</ele><time>2026-03-29T13:19:36.276Z</time></trkpt><trkpt lat="40.568714" lon="9.7051643"><ele>26.0</ele><time>2026-03-29T13:19:37.253Z</time></trkpt><trkpt lat="40.5688206" lon="9.7050763"><ele>26.0</ele><time>2026-03-29T13:19:38.26Z</time></trkpt><trkpt lat="40.5689279" lon="9.7049908"><ele>25.25</ele><time>2026-03-29T13:19:39.259Z</time></trkpt><trkpt lat="40.5690342" lon="9.7049062"><ele>24.5</ele><time>2026-03-29T13:19:40.264Z</time></trkpt><trkpt lat="40.5691419" lon="9.7048258"><ele>23.75</ele><time>2026-03-29T13:19:41.262Z</time></trkpt><trkpt lat="40.5692436" lon="9.7047478"><ele>23.0</ele><time>2026-03-29T13:19:42.257Z</time></trkpt><trkpt lat="40.5693383" lon="9.7046722"><ele>23.0</ele><time>2026-03-29T13:19:43.266Z</time></trkpt><trkpt lat="40.5694306" lon="9.7046007"><ele>23.0</ele><time>2026-03-29T13:19:44.262Z</time></trkpt><trkpt lat="40.5695201" lon="9.7045265"><ele>23.0</ele><time>2026-03-29T13:19:45.262Z</time></trkpt><trkpt lat="40.5695991" lon="9.7044677"><ele>23.0</ele><time>2026-03-29T13:19:46.262Z</time></trkpt><trkpt lat="40.5696677" lon="9.7044257"><ele>23.0</ele><time>2026-03-29T13:19:47.271Z</time></trkpt><trkpt lat="40.569747" lon="9.7043715"><ele>22.5</ele><time>2026-03-29T13:19:49.26Z</time></trkpt><trkpt lat="40.5698229" lon="9.7042743"><ele>22.0</ele><time>2026-03-29T13:19:55.262Z</time></trkpt><trkpt lat="40.5698018" lon="9.7040779"><ele>21.5</ele><time>2026-03-29T13:19:57.258Z</time></trkpt><trkpt lat="40.5697524" lon="9.7039453"><ele>21.0</ele><time>2026-03-29T13:19:58.261Z</time></trkpt><trkpt lat="40.569688" lon="9.7038068"><ele>21.0</ele><time>2026-03-29T13:19:59.257Z</time></trkpt><trkpt lat="40.5696202" lon="9.7036498"><ele>21.0</ele><time>2026-03-29T13:20:00.257Z</time></trkpt><trkpt lat="40.5695561" lon="9.7034788"><ele>21.0</ele><time>2026-03-29T13:20:01.27Z</time></trkpt><trkpt lat="40.5694985" lon="9.7032956"><ele>21.0</ele><time>2026-03-29T13:20:02.266Z</time></trkpt><trkpt lat="40.5694482" lon="9.7030947"><ele>21.0</ele><time>2026-03-29T13:20:03.26Z</time></trkpt><trkpt lat="40.5694049" lon="9.7028813"><ele>21.0</ele><time>2026-03-29T13:20:04.258Z</time></trkpt><trkpt lat="40.569363" lon="9.7026601"><ele>21.0</ele><time>2026-03-29T13:20:05.261Z</time></trkpt><trkpt lat="40.5693192" lon="9.702432"><ele>19.0</ele><time>2026-03-29T13:20:06.258Z</time></trkpt><trkpt lat="40.5692774" lon="9.7021967"><ele>17.0</ele><time>2026-03-29T13:20:07.257Z</time></trkpt><trkpt lat="40.5692419" lon="9.7019656"><ele>15.0</ele><time>2026-03-29T13:20:08.255Z</time></trkpt><trkpt lat="40.5692068" lon="9.7017447"><ele>14.666666666666668</ele><time>2026-03-29T13:20:09.261Z</time></trkpt><trkpt lat="40.5691963" lon="9.7015332"><ele>14.333333333333334</ele><time>2026-03-29T13:20:10.26Z</time></trkpt><trkpt lat="40.5692004" lon="9.7013316"><ele>14.0</ele><time>2026-03-29T13:20:11.261Z</time></trkpt><trkpt lat="40.5692372" lon="9.7011482"><ele>14.666666666666668</ele><time>2026-03-29T13:20:12.258Z</time></trkpt><trkpt lat="40.5693047" lon="9.7009742"><ele>15.333333333333332</ele><time>2026-03-29T13:20:13.258Z</time></trkpt><trkpt lat="40.5693882" lon="9.7007993"><ele>16.0</ele><time>2026-03-29T13:20:14.256Z</time></trkpt><trkpt lat="40.5694822" lon="9.7006217"><ele>16.0</ele><time>2026-03-29T13:20:15.261Z</time></trkpt><trkpt lat="40.5695777" lon="9.7004388"><ele>16.0</ele><time>2026-03-29T13:20:16.262Z</time></trkpt><trkpt lat="40.5696704" lon="9.7002524"><ele>16.0</ele><time>2026-03-29T13:20:17.272Z</time></trkpt><trkpt lat="40.5697602" lon="9.7000703"><ele>17.0</ele><time>2026-03-29T13:20:18.253Z</time></trkpt><trkpt lat="40.5698498" lon="9.6998942"><ele>18.0</ele><time>2026-03-29T13:20:19.259Z</time></trkpt><trkpt lat="40.5699372" lon="9.699722"><ele>19.0</ele><time>2026-03-29T13:20:20.263Z</time></trkpt><trkpt lat="40.5700236" lon="9.6995539"><ele>19.333333333333332</ele><time>2026-03-29T13:20:21.263Z</time></trkpt><trkpt lat="40.570108" lon="9.6993884"><ele>19.666666666666668</ele><time>2026-03-29T13:20:22.261Z</time></trkpt><trkpt lat="40.5701899" lon="9.6992238"><ele>20.0</ele><time>2026-03-29T13:20:23.275Z</time></trkpt><trkpt lat="40.5702713" lon="9.69906"><ele>20.0</ele><time>2026-03-29T13:20:24.265Z</time></trkpt><trkpt lat="40.5703502" lon="9.6989019"><ele>20.0</ele><time>2026-03-29T13:20:25.261Z</time></trkpt><trkpt lat="40.5704198" lon="9.6987613"><ele>20.0</ele><time>2026-03-29T13:20:26.254Z</time></trkpt><trkpt lat="40.5704837" lon="9.6986366"><ele>20.0</ele><time>2026-03-29T13:20:27.261Z</time></trkpt><trkpt lat="40.5705385" lon="9.6985237"><ele>20.833333333333336</ele><time>2026-03-29T13:20:28.27Z</time></trkpt><trkpt lat="40.5705689" lon="9.698417"><ele>21.666666666666668</ele><time>2026-03-29T13:20:29.262Z</time></trkpt><trkpt lat="40.570567" lon="9.6983139"><ele>22.5</ele><time>2026-03-29T13:20:30.273Z</time></trkpt><trkpt lat="40.5705406" lon="9.6982065"><ele>23.333333333333336</ele><time>2026-03-29T13:20:31.265Z</time></trkpt><trkpt lat="40.570513" lon="9.6980915"><ele>24.166666666666668</ele><time>2026-03-29T13:20:32.262Z</time></trkpt><trkpt lat="40.5704978" lon="9.6979587"><ele>25.0</ele><time>2026-03-29T13:20:33.265Z</time></trkpt><trkpt lat="40.5705018" lon="9.6978148"><ele>25.75</ele><time>2026-03-29T13:20:34.266Z</time></trkpt><trkpt lat="40.5705235" lon="9.6976677"><ele>26.5</ele><time>2026-03-29T13:20:35.279Z</time></trkpt><trkpt lat="40.570554" lon="9.6975163"><ele>27.25</ele><time>2026-03-29T13:20:36.263Z</time></trkpt><trkpt lat="40.5705863" lon="9.6973699"><ele>28.0</ele><time>2026-03-29T13:20:37.267Z</time></trkpt><trkpt lat="40.5706271" lon="9.6972087"><ele>28.0</ele><time>2026-03-29T13:20:38.267Z</time></trkpt><trkpt lat="40.5706586" lon="9.6970499"><ele>28.0</ele><time>2026-03-29T13:20:39.259Z</time></trkpt><trkpt lat="40.5706958" lon="9.6968981"><ele>28.0</ele><time>2026-03-29T13:20:40.272Z</time></trkpt><trkpt lat="40.5707319" lon="9.6967407"><ele>28.0</ele><time>2026-03-29T13:20:41.263Z</time></trkpt><trkpt lat="40.5707619" lon="9.6965764"><ele>28.5</ele><time>2026-03-29T13:20:42.294Z</time></trkpt><trkpt lat="40.5707967" lon="9.6964126"><ele>29.0</ele><time>2026-03-29T13:20:43.267Z</time></trkpt><trkpt lat="40.570832" lon="9.696247"><ele>29.5</ele><time>2026-03-29T13:20:44.265Z</time></trkpt><trkpt lat="40.5708656" lon="9.6960803"><ele>30.0</ele><time>2026-03-29T13:20:45.263Z</time></trkpt><trkpt lat="40.5709049" lon="9.6959044"><ele>30.0</ele><time>2026-03-29T13:20:46.264Z</time></trkpt><trkpt lat="40.5709472" lon="9.6957315"><ele>30.0</ele><time>2026-03-29T13:20:47.265Z</time></trkpt><trkpt lat="40.5709877" lon="9.6955589"><ele>30.0</ele><time>2026-03-29T13:20:48.263Z</time></trkpt><trkpt lat="40.5710302" lon="9.6953917"><ele>30.0</ele><time>2026-03-29T13:20:49.258Z</time></trkpt><trkpt lat="40.5710683" lon="9.6952272"><ele>30.5</ele><time>2026-03-29T13:20:50.261Z</time></trkpt><trkpt lat="40.5711045" lon="9.6950661"><ele>31.0</ele><time>2026-03-29T13:20:51.259Z</time></trkpt><trkpt lat="40.5711417" lon="9.6949009"><ele>31.5</ele><time>2026-03-29T13:20:52.261Z</time></trkpt><trkpt lat="40.5711793" lon="9.6947308"><ele>32.0</ele><time>2026-03-29T13:20:53.263Z</time></trkpt><trkpt lat="40.5712187" lon="9.6945561"><ele>33.5</ele><time>2026-03-29T13:20:54.295Z</time></trkpt><trkpt lat="40.5712577" lon="9.6943786"><ele>35.0</ele><time>2026-03-29T13:20:55.26Z</time></trkpt><trkpt lat="40.5712977" lon="9.6941999"><ele>36.5</ele><time>2026-03-29T13:20:56.264Z</time></trkpt><trkpt lat="40.5713374" lon="9.6940211"><ele>38.0</ele><time>2026-03-29T13:20:57.257Z</time></trkpt><trkpt lat="40.5713781" lon="9.6938448"><ele>38.0</ele><time>2026-03-29T13:20:58.266Z</time></trkpt><trkpt lat="40.57142" lon="9.6936707"><ele>38.0</ele><time>2026-03-29T13:20:59.264Z</time></trkpt><trkpt lat="40.571462" lon="9.6934966"><ele>38.0</ele><time>2026-03-29T13:21:00.257Z</time></trkpt><trkpt lat="40.5715047" lon="9.6933209"><ele>38.0</ele><time>2026-03-29T13:21:01.255Z</time></trkpt><trkpt lat="40.5715456" lon="9.6931435"><ele>38.0</ele><time>2026-03-29T13:21:02.262Z</time></trkpt><trkpt lat="40.571588" lon="9.6929663"><ele>38.0</ele><time>2026-03-29T13:21:03.256Z</time></trkpt><trkpt lat="40.5716287" lon="9.6927892"><ele>38.0</ele><time>2026-03-29T13:21:04.262Z</time></trkpt><trkpt lat="40.571668" lon="9.6926107"><ele>38.0</ele><time>2026-03-29T13:21:05.262Z</time></trkpt><trkpt lat="40.5717087" lon="9.6924312"><ele>38.5</ele><time>2026-03-29T13:21:06.257Z</time></trkpt><trkpt lat="40.5717506" lon="9.69225"><ele>39.0</ele><time>2026-03-29T13:21:07.258Z</time></trkpt><trkpt lat="40.5718069" lon="9.6920971"><ele>39.5</ele><time>2026-03-29T13:21:08.257Z</time></trkpt><trkpt lat="40.5718512" lon="9.6918989"><ele>40.0</ele><time>2026-03-29T13:21:09.264Z</time></trkpt><trkpt lat="40.5718917" lon="9.6917127"><ele>40.0</ele><time>2026-03-29T13:21:10.26Z</time></trkpt><trkpt lat="40.5719329" lon="9.6915222"><ele>40.0</ele><time>2026-03-29T13:21:11.255Z</time></trkpt><trkpt lat="40.5719817" lon="9.6913304"><ele>40.0</ele><time>2026-03-29T13:21:12.261Z</time></trkpt><trkpt lat="40.5720244" lon="9.691134"><ele>43.0</ele><time>2026-03-29T13:21:13.258Z</time></trkpt><trkpt lat="40.5720662" lon="9.6909337"><ele>46.0</ele><time>2026-03-29T13:21:14.258Z</time></trkpt><trkpt lat="40.5721111" lon="9.6907338"><ele>49.0</ele><time>2026-03-29T13:21:15.255Z</time></trkpt><trkpt lat="40.5721516" lon="9.6905309"><ele>49.0</ele><time>2026-03-29T13:21:16.259Z</time></trkpt><trkpt lat="40.5721977" lon="9.6903391"><ele>49.0</ele><time>2026-03-29T13:21:17.262Z</time></trkpt><trkpt lat="40.5722384" lon="9.6901646"><ele>49.0</ele><time>2026-03-29T13:21:18.26Z</time></trkpt><trkpt lat="40.5722758" lon="9.690009"><ele>49.0</ele><time>2026-03-29T13:21:19.279Z</time></trkpt><trkpt lat="40.572314" lon="9.689884"><ele>48.800000000000004</ele><time>2026-03-29T13:21:20.258Z</time></trkpt><trkpt lat="40.5723529" lon="9.6897705"><ele>48.6</ele><time>2026-03-29T13:21:21.258Z</time></trkpt><trkpt lat="40.572394" lon="9.6896758"><ele>48.4</ele><time>2026-03-29T13:21:22.261Z</time></trkpt><trkpt lat="40.5724356" lon="9.6895965"><ele>48.2</ele><time>2026-03-29T13:21:23.257Z</time></trkpt><trkpt lat="40.5724673" lon="9.6894565"><ele>48.0</ele><time>2026-03-29T13:21:25.268Z</time></trkpt><trkpt lat="40.5723814" lon="9.6893038"><ele>48.25</ele><time>2026-03-29T13:21:27.258Z</time></trkpt><trkpt lat="40.5722988" lon="9.6892178"><ele>48.5</ele><time>2026-03-29T13:21:28.256Z</time></trkpt><trkpt lat="40.5721994" lon="9.6891263"><ele>48.75</ele><time>2026-03-29T13:21:29.268Z</time></trkpt><trkpt lat="40.5720991" lon="9.689021"><ele>49.0</ele><time>2026-03-29T13:21:30.262Z</time></trkpt><trkpt lat="40.5720031" lon="9.6889023"><ele>49.0</ele><time>2026-03-29T13:21:31.26Z</time></trkpt><trkpt lat="40.5719188" lon="9.6887736"><ele>49.0</ele><time>2026-03-29T13:21:32.263Z</time></trkpt><trkpt lat="40.5718371" lon="9.6886417"><ele>49.0</ele><time>2026-03-29T13:21:33.257Z</time></trkpt><trkpt lat="40.5717579" lon="9.6885103"><ele>49.0</ele><time>2026-03-29T13:21:34.261Z</time></trkpt><trkpt lat="40.5716886" lon="9.6883889"><ele>50.0</ele><time>2026-03-29T13:21:35.259Z</time></trkpt><trkpt lat="40.5716233" lon="9.6882559"><ele>51.0</ele><time>2026-03-29T13:21:36.269Z</time></trkpt><trkpt lat="40.571544" lon="9.6881324"><ele>52.0</ele><time>2026-03-29T13:21:37.262Z</time></trkpt><trkpt lat="40.5714734" lon="9.6880084"><ele>53.0</ele><time>2026-03-29T13:21:38.257Z</time></trkpt><trkpt lat="40.5714049" lon="9.6878934"><ele>53.0</ele><time>2026-03-29T13:21:39.258Z</time></trkpt><trkpt lat="40.5713379" lon="9.6877753"><ele>53.0</ele><time>2026-03-29T13:21:40.262Z</time></trkpt><trkpt lat="40.5712674" lon="9.6876467"><ele>53.0</ele><time>2026-03-29T13:21:41.263Z</time></trkpt><trkpt lat="40.5711997" lon="9.6875037"><ele>53.0</ele><time>2026-03-29T13:21:42.254Z</time></trkpt><trkpt lat="40.571139" lon="9.687353"><ele>54.75</ele><time>2026-03-29T13:21:43.281Z</time></trkpt><trkpt lat="40.5710859" lon="9.6872113"><ele>56.5</ele><time>2026-03-29T13:21:44.255Z</time></trkpt><trkpt lat="40.5710364" lon="9.6870748"><ele>58.25</ele><time>2026-03-29T13:21:45.257Z</time></trkpt><trkpt lat="40.5709849" lon="9.6869474"><ele>60.0</ele><time>2026-03-29T13:21:46.26Z</time></trkpt><trkpt lat="40.5709395" lon="9.686822"><ele>60.8</ele><time>2026-03-29T13:21:47.258Z</time></trkpt><trkpt lat="40.5708981" lon="9.6867028"><ele>61.6</ele><time>2026-03-29T13:21:48.255Z</time></trkpt><trkpt lat="40.5708735" lon="9.6865751"><ele>62.400000000000006</ele><time>2026-03-29T13:21:49.259Z</time></trkpt><trkpt lat="40.570862" lon="9.6864555"><ele>63.2</ele><time>2026-03-29T13:21:50.255Z</time></trkpt><trkpt lat="40.5708584" lon="9.6863411"><ele>64.0</ele><time>2026-03-29T13:21:51.261Z</time></trkpt><trkpt lat="40.5708632" lon="9.6861987"><ele>65.25</ele><time>2026-03-29T13:21:52.262Z</time></trkpt><trkpt lat="40.5708768" lon="9.686033"><ele>66.5</ele><time>2026-03-29T13:21:53.251Z</time></trkpt><trkpt lat="40.5708912" lon="9.6858501"><ele>67.75</ele><time>2026-03-29T13:21:54.258Z</time></trkpt><trkpt lat="40.5708998" lon="9.6856549"><ele>69.0</ele><time>2026-03-29T13:21:55.262Z</time></trkpt><trkpt lat="40.5709001" lon="9.6854591"><ele>69.0</ele><time>2026-03-29T13:21:56.258Z</time></trkpt><trkpt lat="40.5708841" lon="9.6852811"><ele>69.0</ele><time>2026-03-29T13:21:57.256Z</time></trkpt><trkpt lat="40.5708458" lon="9.6851205"><ele>69.0</ele><time>2026-03-29T13:21:58.262Z</time></trkpt><trkpt lat="40.5707836" lon="9.684977"><ele>69.0</ele><time>2026-03-29T13:21:59.258Z</time></trkpt><trkpt lat="40.5706994" lon="9.6848407"><ele>71.0</ele><time>2026-03-29T13:22:00.255Z</time></trkpt><trkpt lat="40.5705952" lon="9.6847211"><ele>73.0</ele><time>2026-03-29T13:22:01.263Z</time></trkpt><trkpt lat="40.5704751" lon="9.6846254"><ele>75.0</ele><time>2026-03-29T13:22:02.264Z</time></trkpt><trkpt lat="40.5703358" lon="9.6845557"><ele>77.0</ele><time>2026-03-29T13:22:03.257Z</time></trkpt><trkpt lat="40.5701853" lon="9.6845102"><ele>77.0</ele><time>2026-03-29T13:22:04.268Z</time></trkpt><trkpt lat="40.5700303" lon="9.684479"><ele>77.0</ele><time>2026-03-29T13:22:05.263Z</time></trkpt><trkpt lat="40.5698755" lon="9.6844545"><ele>77.0</ele><time>2026-03-29T13:22:06.254Z</time></trkpt><trkpt lat="40.5697243" lon="9.6844267"><ele>78.25</ele><time>2026-03-29T13:22:07.259Z</time></trkpt><trkpt lat="40.5695764" lon="9.6843982"><ele>79.5</ele><time>2026-03-29T13:22:08.262Z</time></trkpt><trkpt lat="40.5694231" lon="9.6843849"><ele>80.75</ele><time>2026-03-29T13:22:09.262Z</time></trkpt><trkpt lat="40.569283" lon="9.6843708"><ele>82.0</ele><time>2026-03-29T13:22:10.278Z</time></trkpt><trkpt lat="40.5691534" lon="9.6843784"><ele>82.0</ele><time>2026-03-29T13:22:11.255Z</time></trkpt><trkpt lat="40.5690341" lon="9.684392"><ele>82.0</ele><time>2026-03-29T13:22:12.257Z</time></trkpt><trkpt lat="40.5689255" lon="9.6844081"><ele>82.0</ele><time>2026-03-29T13:22:13.258Z</time></trkpt><trkpt lat="40.5688315" lon="9.6844273"><ele>82.0</ele><time>2026-03-29T13:22:14.259Z</time></trkpt><trkpt lat="40.5687491" lon="9.6844412"><ele>82.0</ele><time>2026-03-29T13:22:15.258Z</time></trkpt><trkpt lat="40.5686794" lon="9.684445"><ele>81.0</ele><time>2026-03-29T13:22:16.258Z</time></trkpt><trkpt lat="40.5686131" lon="9.6844389"><ele>80.0</ele><time>2026-03-29T13:22:17.261Z</time></trkpt><trkpt lat="40.5685199" lon="9.684394"><ele>79.0</ele><time>2026-03-29T13:22:19.277Z</time></trkpt><trkpt lat="40.5684496" lon="9.6843702"><ele>78.0</ele><time>2026-03-29T13:22:21.26Z</time></trkpt><trkpt lat="40.5683811" lon="9.6843691"><ele>77.0</ele><time>2026-03-29T13:22:23.258Z</time></trkpt><trkpt lat="40.5682813" lon="9.6843631"><ele>76.0</ele><time>2026-03-29T13:22:26.264Z</time></trkpt><trkpt lat="40.5682181" lon="9.6843552"><ele>75.8</ele><time>2026-03-29T13:22:29.261Z</time></trkpt><trkpt lat="40.5682054" lon="9.6845129"><ele>75.6</ele><time>2026-03-29T13:24:55.268Z</time></trkpt><trkpt lat="40.5682576" lon="9.684569"><ele>75.4</ele><time>2026-03-29T13:24:57.266Z</time></trkpt><trkpt lat="40.5683909" lon="9.6845703"><ele>75.2</ele><time>2026-03-29T13:24:59.263Z</time></trkpt><trkpt lat="40.5684934" lon="9.6845506"><ele>75.0</ele><time>2026-03-29T13:25:00.264Z</time></trkpt><trkpt lat="40.5686118" lon="9.6845236"><ele>75.75</ele><time>2026-03-29T13:25:01.269Z</time></trkpt><trkpt lat="40.5687337" lon="9.6844953"><ele>76.5</ele><time>2026-03-29T13:25:02.264Z</time></trkpt><trkpt lat="40.5688697" lon="9.6844667"><ele>77.25</ele><time>2026-03-29T13:25:03.29Z</time></trkpt><trkpt lat="40.5690187" lon="9.6844423"><ele>78.0</ele><time>2026-03-29T13:25:04.258Z</time></trkpt><trkpt lat="40.5691679" lon="9.68442"><ele>77.75</ele><time>2026-03-29T13:25:05.263Z</time></trkpt><trkpt lat="40.5693149" lon="9.6844209"><ele>77.5</ele><time>2026-03-29T13:25:06.257Z</time></trkpt><trkpt lat="40.5694573" lon="9.684427"><ele>77.25</ele><time>2026-03-29T13:25:07.263Z</time></trkpt><trkpt lat="40.5695906" lon="9.6844327"><ele>77.0</ele><time>2026-03-29T13:25:08.269Z</time></trkpt><trkpt lat="40.5697171" lon="9.6844432"><ele>77.0</ele><time>2026-03-29T13:25:09.258Z</time></trkpt><trkpt lat="40.5698425" lon="9.6844531"><ele>77.0</ele><time>2026-03-29T13:25:10.286Z</time></trkpt><trkpt lat="40.5699675" lon="9.6844707"><ele>77.0</ele><time>2026-03-29T13:25:11.261Z</time></trkpt><trkpt lat="40.5700875" lon="9.6844928"><ele>77.0</ele><time>2026-03-29T13:25:12.258Z</time></trkpt><trkpt lat="40.5702012" lon="9.6845207"><ele>77.0</ele><time>2026-03-29T13:25:13.256Z</time></trkpt><trkpt lat="40.570306" lon="9.6845561"><ele>77.0</ele><time>2026-03-29T13:25:14.261Z</time></trkpt><trkpt lat="40.5703923" lon="9.6845975"><ele>77.0</ele><time>2026-03-29T13:25:15.261Z</time></trkpt><trkpt lat="40.5704603" lon="9.6846304"><ele>77.0</ele><time>2026-03-29T13:25:16.27Z</time></trkpt><trkpt lat="40.5705666" lon="9.6846275"><ele>77.0</ele><time>2026-03-29T13:25:18.26Z</time></trkpt><trkpt lat="40.5706231" lon="9.684485"><ele>78.0</ele><time>2026-03-29T13:25:20.265Z</time></trkpt><trkpt lat="40.5706483" lon="9.684373"><ele>79.0</ele><time>2026-03-29T13:25:21.266Z</time></trkpt><trkpt lat="40.570672" lon="9.6842341"><ele>80.0</ele><time>2026-03-29T13:25:22.274Z</time></trkpt><trkpt lat="40.5706989" lon="9.6840771"><ele>81.0</ele><time>2026-03-29T13:25:23.262Z</time></trkpt><trkpt lat="40.5707268" lon="9.6839101"><ele>82.0</ele><time>2026-03-29T13:25:24.262Z</time></trkpt><trkpt lat="40.5707477" lon="9.6837458"><ele>82.75</ele><time>2026-03-29T13:25:25.262Z</time></trkpt><trkpt lat="40.5707478" lon="9.6835846"><ele>83.5</ele><time>2026-03-29T13:25:26.264Z</time></trkpt><trkpt lat="40.5707256" lon="9.6834295"><ele>84.25</ele><time>2026-03-29T13:25:27.285Z</time></trkpt><trkpt lat="40.5706868" lon="9.6832792"><ele>85.0</ele><time>2026-03-29T13:25:28.265Z</time></trkpt><trkpt lat="40.5706394" lon="9.6831358"><ele>85.0</ele><time>2026-03-29T13:25:29.259Z</time></trkpt><trkpt lat="40.5705942" lon="9.6830037"><ele>85.0</ele><time>2026-03-29T13:25:30.261Z</time></trkpt><trkpt lat="40.5705613" lon="9.6828917"><ele>85.0</ele><time>2026-03-29T13:25:31.264Z</time></trkpt><trkpt lat="40.5705723" lon="9.6827755"><ele>85.0</ele><time>2026-03-29T13:25:32.278Z</time></trkpt><trkpt lat="40.5706104" lon="9.6826617"><ele>85.0</ele><time>2026-03-29T13:25:33.269Z</time></trkpt><trkpt lat="40.570664" lon="9.6825398"><ele>86.6</ele><time>2026-03-29T13:25:34.265Z</time></trkpt><trkpt lat="40.5707168" lon="9.6824184"><ele>88.2</ele><time>2026-03-29T13:25:35.263Z</time></trkpt><trkpt lat="40.5707666" lon="9.6823054"><ele>89.80000000000001</ele><time>2026-03-29T13:25:36.256Z</time></trkpt><trkpt lat="40.5708152" lon="9.6821917"><ele>91.4</ele><time>2026-03-29T13:25:37.263Z</time></trkpt><trkpt lat="40.5708565" lon="9.6820781"><ele>93.0</ele><time>2026-03-29T13:25:38.267Z</time></trkpt><trkpt lat="40.5708885" lon="9.6819597"><ele>93.0</ele><time>2026-03-29T13:25:39.268Z</time></trkpt><trkpt lat="40.5709177" lon="9.6818453"><ele>93.0</ele><time>2026-03-29T13:25:40.267Z</time></trkpt><trkpt lat="40.5709318" lon="9.6817136"><ele>93.0</ele><time>2026-03-29T13:25:41.266Z</time></trkpt><trkpt lat="40.5709405" lon="9.6815658"><ele>93.0</ele><time>2026-03-29T13:25:42.255Z</time></trkpt><trkpt lat="40.5709461" lon="9.6814063"><ele>93.0</ele><time>2026-03-29T13:25:43.264Z</time></trkpt><trkpt lat="40.5709558" lon="9.6812244"><ele>91.0</ele><time>2026-03-29T13:25:44.259Z</time></trkpt><trkpt lat="40.5709669" lon="9.6810275"><ele>89.0</ele><time>2026-03-29T13:25:45.259Z</time></trkpt><trkpt lat="40.5710072" lon="9.6808301"><ele>87.0</ele><time>2026-03-29T13:25:46.258Z</time></trkpt><trkpt lat="40.5710649" lon="9.6806352"><ele>87.0</ele><time>2026-03-29T13:25:47.261Z</time></trkpt><trkpt lat="40.5711339" lon="9.6804477"><ele>87.0</ele><time>2026-03-29T13:25:48.266Z</time></trkpt><trkpt lat="40.5712069" lon="9.6802631"><ele>87.0</ele><time>2026-03-29T13:25:49.265Z</time></trkpt><trkpt lat="40.5712819" lon="9.6800797"><ele>98.33333333333334</ele><time>2026-03-29T13:25:50.264Z</time></trkpt><trkpt lat="40.5713573" lon="9.6798989"><ele>109.66666666666667</ele><time>2026-03-29T13:25:51.261Z</time></trkpt><trkpt lat="40.5714318" lon="9.6797184"><ele>121.0</ele><time>2026-03-29T13:25:52.263Z</time></trkpt><trkpt lat="40.5715098" lon="9.6795382"><ele>115.66666666666667</ele><time>2026-03-29T13:25:53.263Z</time></trkpt><trkpt lat="40.5715948" lon="9.6793536"><ele>110.33333333333334</ele><time>2026-03-29T13:25:54.264Z</time></trkpt><trkpt lat="40.571692" lon="9.6791624"><ele>105.0</ele><time>2026-03-29T13:25:55.256Z</time></trkpt><trkpt lat="40.5718007" lon="9.6789636"><ele>105.0</ele><time>2026-03-29T13:25:56.265Z</time></trkpt><trkpt lat="40.5719166" lon="9.6787687"><ele>105.0</ele><time>2026-03-29T13:25:57.256Z</time></trkpt><trkpt lat="40.5720379" lon="9.6785802"><ele>105.0</ele><time>2026-03-29T13:25:58.261Z</time></trkpt><trkpt lat="40.5721644" lon="9.6783901"><ele>111.33333333333334</ele><time>2026-03-29T13:25:59.261Z</time></trkpt><trkpt lat="40.5722933" lon="9.678198"><ele>117.66666666666667</ele><time>2026-03-29T13:26:00.255Z</time></trkpt><trkpt lat="40.5724247" lon="9.6780057"><ele>124.0</ele><time>2026-03-29T13:26:01.261Z</time></trkpt><trkpt lat="40.5725498" lon="9.6778219"><ele>119.66666666666667</ele><time>2026-03-29T13:26:02.262Z</time></trkpt><trkpt lat="40.5726725" lon="9.677646"><ele>115.33333333333334</ele><time>2026-03-29T13:26:03.256Z</time></trkpt><trkpt lat="40.5727986" lon="9.6774788"><ele>111.0</ele><time>2026-03-29T13:26:04.278Z</time></trkpt><trkpt lat="40.5729297" lon="9.6773238"><ele>114.66666666666666</ele><time>2026-03-29T13:26:05.265Z</time></trkpt><trkpt lat="40.573066" lon="9.6771802"><ele>118.33333333333333</ele><time>2026-03-29T13:26:06.261Z</time></trkpt><trkpt lat="40.5732014" lon="9.6770433"><ele>122.0</ele><time>2026-03-29T13:26:07.257Z</time></trkpt><trkpt lat="40.5733372" lon="9.6769085"><ele>122.0</ele><time>2026-03-29T13:26:08.259Z</time></trkpt><trkpt lat="40.5734737" lon="9.6767781"><ele>122.0</ele><time>2026-03-29T13:26:09.259Z</time></trkpt><trkpt lat="40.5736099" lon="9.6766557"><ele>122.0</ele><time>2026-03-29T13:26:10.254Z</time></trkpt><trkpt lat="40.5737539" lon="9.6765304"><ele>130.33333333333331</ele><time>2026-03-29T13:26:11.264Z</time></trkpt><trkpt lat="40.5738877" lon="9.6763948"><ele>138.66666666666666</ele><time>2026-03-29T13:26:12.264Z</time></trkpt><trkpt lat="40.5740189" lon="9.6762604"><ele>147.0</ele><time>2026-03-29T13:26:13.26Z</time></trkpt><trkpt lat="40.5741371" lon="9.6761268"><ele>146.5</ele><time>2026-03-29T13:26:14.259Z</time></trkpt><trkpt lat="40.5742519" lon="9.6760113"><ele>146.0</ele><time>2026-03-29T13:26:15.258Z</time></trkpt><trkpt lat="40.5743715" lon="9.67592"><ele>145.5</ele><time>2026-03-29T13:26:16.258Z</time></trkpt><trkpt lat="40.5745021" lon="9.675864"><ele>145.0</ele><time>2026-03-29T13:26:17.253Z</time></trkpt><trkpt lat="40.5746397" lon="9.6758253"><ele>145.0</ele><time>2026-03-29T13:26:18.256Z</time></trkpt><trkpt lat="40.5748037" lon="9.6758081"><ele>145.0</ele><time>2026-03-29T13:26:19.262Z</time></trkpt><trkpt lat="40.574972" lon="9.6757757"><ele>145.0</ele><time>2026-03-29T13:26:20.266Z</time></trkpt><trkpt lat="40.5751514" lon="9.6757118"><ele>145.0</ele><time>2026-03-29T13:26:21.26Z</time></trkpt><trkpt lat="40.5753217" lon="9.6756169"><ele>145.0</ele><time>2026-03-29T13:26:22.26Z</time></trkpt><trkpt lat="40.5754778" lon="9.67552"><ele>145.0</ele><time>2026-03-29T13:26:23.261Z</time></trkpt><trkpt lat="40.575613" lon="9.6754368"><ele>143.0</ele><time>2026-03-29T13:26:24.256Z</time></trkpt><trkpt lat="40.575743" lon="9.6753704"><ele>141.0</ele><time>2026-03-29T13:26:25.278Z</time></trkpt><trkpt lat="40.5758857" lon="9.675363"><ele>139.0</ele><time>2026-03-29T13:26:26.261Z</time></trkpt><trkpt lat="40.5760247" lon="9.6753161"><ele>137.0</ele><time>2026-03-29T13:26:27.257Z</time></trkpt><trkpt lat="40.5761488" lon="9.6752221"><ele>145.33333333333331</ele><time>2026-03-29T13:26:28.258Z</time></trkpt><trkpt lat="40.5762634" lon="9.6750829"><ele>153.66666666666666</ele><time>2026-03-29T13:26:29.261Z</time></trkpt><trkpt lat="40.5763847" lon="9.6749187"><ele>162.0</ele><time>2026-03-29T13:26:30.259Z</time></trkpt><trkpt lat="40.5764963" lon="9.6747591"><ele>162.0</ele><time>2026-03-29T13:26:31.291Z</time></trkpt><trkpt lat="40.5766068" lon="9.6746124"><ele>162.0</ele><time>2026-03-29T13:26:32.258Z</time></trkpt><trkpt lat="40.5767262" lon="9.6745106"><ele>162.0</ele><time>2026-03-29T13:26:33.254Z</time></trkpt><trkpt lat="40.5768508" lon="9.6744048"><ele>162.0</ele><time>2026-03-29T13:26:34.257Z</time></trkpt><trkpt lat="40.5769989" lon="9.6743607"><ele>165.75</ele><time>2026-03-29T13:26:35.263Z</time></trkpt><trkpt lat="40.5771175" lon="9.6742626"><ele>169.5</ele><time>2026-03-29T13:26:36.26Z</time></trkpt><trkpt lat="40.5772205" lon="9.6741225"><ele>173.25</ele><time>2026-03-29T13:26:37.255Z</time></trkpt><trkpt lat="40.577308" lon="9.6739501"><ele>177.0</ele><time>2026-03-29T13:26:38.258Z</time></trkpt><trkpt lat="40.5773653" lon="9.6737599"><ele>173.0</ele><time>2026-03-29T13:26:39.253Z</time></trkpt><trkpt lat="40.5774172" lon="9.6735537"><ele>169.0</ele><time>2026-03-29T13:26:40.282Z</time></trkpt><trkpt lat="40.577489" lon="9.673354"><ele>165.0</ele><time>2026-03-29T13:26:41.261Z</time></trkpt><trkpt lat="40.577582" lon="9.6731679"><ele>165.0</ele><time>2026-03-29T13:26:42.261Z</time></trkpt><trkpt lat="40.5776863" lon="9.6730033"><ele>165.0</ele><time>2026-03-29T13:26:43.26Z</time></trkpt><trkpt lat="40.5777898" lon="9.6728489"><ele>165.0</ele><time>2026-03-29T13:26:44.257Z</time></trkpt><trkpt lat="40.5779367" lon="9.6727215"><ele>169.66666666666666</ele><time>2026-03-29T13:26:45.26Z</time></trkpt><trkpt lat="40.5780465" lon="9.6725635"><ele>174.33333333333331</ele><time>2026-03-29T13:26:46.256Z</time></trkpt><trkpt lat="40.5781504" lon="9.6724072"><ele>179.0</ele><time>2026-03-29T13:26:47.263Z</time></trkpt><trkpt lat="40.5782516" lon="9.6722797"><ele>179.0</ele><time>2026-03-29T13:26:48.261Z</time></trkpt><trkpt lat="40.5783653" lon="9.6722135"><ele>179.0</ele><time>2026-03-29T13:26:49.283Z</time></trkpt><trkpt lat="40.5784889" lon="9.6721842"><ele>179.0</ele><time>2026-03-29T13:26:50.258Z</time></trkpt><trkpt lat="40.57862" lon="9.6721531"><ele>179.0</ele><time>2026-03-29T13:26:51.261Z</time></trkpt><trkpt lat="40.5787323" lon="9.6720891"><ele>182.0</ele><time>2026-03-29T13:26:52.26Z</time></trkpt><trkpt lat="40.578821" lon="9.6719682"><ele>185.0</ele><time>2026-03-29T13:26:53.258Z</time></trkpt><trkpt lat="40.5788979" lon="9.6718138"><ele>188.0</ele><time>2026-03-29T13:26:54.279Z</time></trkpt><trkpt lat="40.5789901" lon="9.6716571"><ele>191.0</ele><time>2026-03-29T13:26:55.26Z</time></trkpt><trkpt lat="40.5790879" lon="9.6715182"><ele>191.0</ele><time>2026-03-29T13:26:56.26Z</time></trkpt><trkpt lat="40.5791836" lon="9.6714147"><ele>191.0</ele><time>2026-03-29T13:26:57.259Z</time></trkpt><trkpt lat="40.5792594" lon="9.6712845"><ele>191.0</ele><time>2026-03-29T13:26:58.257Z</time></trkpt><trkpt lat="40.5792993" lon="9.6711165"><ele>191.0</ele><time>2026-03-29T13:26:59.255Z</time></trkpt><trkpt lat="40.5793348" lon="9.6709226"><ele>187.33333333333331</ele><time>2026-03-29T13:27:00.254Z</time></trkpt><trkpt lat="40.579387" lon="9.6707266"><ele>183.66666666666666</ele><time>2026-03-29T13:27:01.257Z</time></trkpt><trkpt lat="40.5794563" lon="9.6705407"><ele>180.0</ele><time>2026-03-29T13:27:02.264Z</time></trkpt><trkpt lat="40.5795317" lon="9.6703626"><ele>188.33333333333331</ele><time>2026-03-29T13:27:03.254Z</time></trkpt><trkpt lat="40.5796504" lon="9.6702219"><ele>196.66666666666666</ele><time>2026-03-29T13:27:04.261Z</time></trkpt><trkpt lat="40.5797676" lon="9.6700944"><ele>205.0</ele><time>2026-03-29T13:27:05.254Z</time></trkpt><trkpt lat="40.5798732" lon="9.6699769"><ele>205.0</ele><time>2026-03-29T13:27:06.26Z</time></trkpt><trkpt lat="40.5799696" lon="9.6698561"><ele>205.0</ele><time>2026-03-29T13:27:07.262Z</time></trkpt><trkpt lat="40.5800218" lon="9.6697322"><ele>205.0</ele><time>2026-03-29T13:27:08.26Z</time></trkpt><trkpt lat="40.5800467" lon="9.6696061"><ele>205.0</ele><time>2026-03-29T13:27:09.264Z</time></trkpt><trkpt lat="40.5800122" lon="9.6694848"><ele>205.0</ele><time>2026-03-29T13:27:10.262Z</time></trkpt><trkpt lat="40.5799644" lon="9.6693669"><ele>205.2</ele><time>2026-03-29T13:27:11.26Z</time></trkpt><trkpt lat="40.579878" lon="9.6692637"><ele>205.4</ele><time>2026-03-29T13:27:12.253Z</time></trkpt><trkpt lat="40.5798086" lon="9.6691534"><ele>205.60000000000002</ele><time>2026-03-29T13:27:13.269Z</time></trkpt><trkpt lat="40.5797782" lon="9.6690349"><ele>205.8</ele><time>2026-03-29T13:27:14.257Z</time></trkpt><trkpt lat="40.5797865" lon="9.668907"><ele>206.0</ele><time>2026-03-29T13:27:15.275Z</time></trkpt><trkpt lat="40.5798243" lon="9.6687744"><ele>206.0</ele><time>2026-03-29T13:27:16.261Z</time></trkpt><trkpt lat="40.5798825" lon="9.6686497"><ele>206.0</ele><time>2026-03-29T13:27:17.261Z</time></trkpt><trkpt lat="40.5799583" lon="9.6685453"><ele>206.0</ele><time>2026-03-29T13:27:18.267Z</time></trkpt><trkpt lat="40.5800488" lon="9.6684697"><ele>206.0</ele><time>2026-03-29T13:27:19.263Z</time></trkpt><trkpt lat="40.5801251" lon="9.6683909"><ele>206.0</ele><time>2026-03-29T13:27:20.273Z</time></trkpt><trkpt lat="40.5801691" lon="9.6682839"><ele>205.0</ele><time>2026-03-29T13:27:21.261Z</time></trkpt><trkpt lat="40.5801717" lon="9.6681457"><ele>204.0</ele><time>2026-03-29T13:27:22.261Z</time></trkpt><trkpt lat="40.5801687" lon="9.6679891"><ele>203.0</ele><time>2026-03-29T13:27:23.26Z</time></trkpt><trkpt lat="40.5801594" lon="9.6678041"><ele>202.0</ele><time>2026-03-29T13:27:24.259Z</time></trkpt><trkpt lat="40.5801569" lon="9.6676276"><ele>202.0</ele><time>2026-03-29T13:27:25.259Z</time></trkpt><trkpt lat="40.5801991" lon="9.6674802"><ele>202.0</ele><time>2026-03-29T13:27:26.261Z</time></trkpt><trkpt lat="40.5802994" lon="9.6673828"><ele>202.0</ele><time>2026-03-29T13:27:27.258Z</time></trkpt><trkpt lat="40.5804052" lon="9.6673307"><ele>202.0</ele><time>2026-03-29T13:27:28.257Z</time></trkpt><trkpt lat="40.5805079" lon="9.6672773"><ele>207.6</ele><time>2026-03-29T13:27:29.286Z</time></trkpt><trkpt lat="40.5805863" lon="9.6671704"><ele>213.2</ele><time>2026-03-29T13:27:30.262Z</time></trkpt><trkpt lat="40.5806446" lon="9.6670444"><ele>218.8</ele><time>2026-03-29T13:27:31.257Z</time></trkpt><trkpt lat="40.5806716" lon="9.6669063"><ele>224.4</ele><time>2026-03-29T13:27:32.258Z</time></trkpt><trkpt lat="40.5806962" lon="9.6667594"><ele>230.0</ele><time>2026-03-29T13:27:33.266Z</time></trkpt><trkpt lat="40.5806967" lon="9.6666057"><ele>230.0</ele><time>2026-03-29T13:27:34.254Z</time></trkpt><trkpt lat="40.5806776" lon="9.6664313"><ele>230.0</ele><time>2026-03-29T13:27:35.261Z</time></trkpt><trkpt lat="40.5806568" lon="9.6662413"><ele>230.0</ele><time>2026-03-29T13:27:36.263Z</time></trkpt><trkpt lat="40.5806783" lon="9.6660629"><ele>230.0</ele><time>2026-03-29T13:27:37.269Z</time></trkpt><trkpt lat="40.5807216" lon="9.6658965"><ele>230.25</ele><time>2026-03-29T13:27:38.262Z</time></trkpt><trkpt lat="40.5807589" lon="9.6657317"><ele>230.5</ele><time>2026-03-29T13:27:39.259Z</time></trkpt><trkpt lat="40.580763" lon="9.6655636"><ele>230.75</ele><time>2026-03-29T13:27:40.273Z</time></trkpt><trkpt lat="40.5807386" lon="9.6653928"><ele>231.0</ele><time>2026-03-29T13:27:41.258Z</time></trkpt><trkpt lat="40.5807239" lon="9.6652179"><ele>231.75</ele><time>2026-03-29T13:27:42.258Z</time></trkpt><trkpt lat="40.5807222" lon="9.6650425"><ele>232.5</ele><time>2026-03-29T13:27:43.258Z</time></trkpt><trkpt lat="40.580754" lon="9.6648639"><ele>233.25</ele><time>2026-03-29T13:27:44.258Z</time></trkpt><trkpt lat="40.580812" lon="9.6647033"><ele>234.0</ele><time>2026-03-29T13:27:45.276Z</time></trkpt><trkpt lat="40.5808979" lon="9.6645726"><ele>234.0</ele><time>2026-03-29T13:27:46.265Z</time></trkpt><trkpt lat="40.5810058" lon="9.6644585"><ele>234.0</ele><time>2026-03-29T13:27:47.269Z</time></trkpt><trkpt lat="40.5811198" lon="9.6643418"><ele>234.0</ele><time>2026-03-29T13:27:48.254Z</time></trkpt><trkpt lat="40.581202" lon="9.6642401"><ele>234.0</ele><time>2026-03-29T13:27:49.261Z</time></trkpt><trkpt lat="40.5812354" lon="9.6641308"><ele>235.0</ele><time>2026-03-29T13:27:50.26Z</time></trkpt><trkpt lat="40.5812471" lon="9.6640282"><ele>236.0</ele><time>2026-03-29T13:27:51.254Z</time></trkpt><trkpt lat="40.5811958" lon="9.6638754"><ele>237.0</ele><time>2026-03-29T13:27:52.269Z</time></trkpt><trkpt lat="40.5811442" lon="9.6637129"><ele>238.0</ele><time>2026-03-29T13:27:53.261Z</time></trkpt><trkpt lat="40.5811303" lon="9.6635219"><ele>238.0</ele><time>2026-03-29T13:27:54.258Z</time></trkpt><trkpt lat="40.5811211" lon="9.6633396"><ele>238.0</ele><time>2026-03-29T13:27:55.255Z</time></trkpt><trkpt lat="40.5811102" lon="9.6631962"><ele>238.0</ele><time>2026-03-29T13:27:56.259Z</time></trkpt><trkpt lat="40.5810594" lon="9.6630703"><ele>238.0</ele><time>2026-03-29T13:27:57.273Z</time></trkpt><trkpt lat="40.5809627" lon="9.6629749"><ele>238.0</ele><time>2026-03-29T13:27:58.259Z</time></trkpt><trkpt lat="40.5808429" lon="9.6628806"><ele>238.0</ele><time>2026-03-29T13:27:59.26Z</time></trkpt><trkpt lat="40.5807367" lon="9.6627939"><ele>238.0</ele><time>2026-03-29T13:28:00.255Z</time></trkpt><trkpt lat="40.5806642" lon="9.6627007"><ele>238.0</ele><time>2026-03-29T13:28:01.255Z</time></trkpt><trkpt lat="40.5806245" lon="9.6625924"><ele>239.60000000000002</ele><time>2026-03-29T13:28:02.261Z</time></trkpt><trkpt lat="40.5806505" lon="9.6624787"><ele>241.20000000000002</ele><time>2026-03-29T13:28:03.264Z</time></trkpt><trkpt lat="40.5807174" lon="9.6624161"><ele>242.8</ele><time>2026-03-29T13:28:04.257Z</time></trkpt><trkpt lat="40.5807991" lon="9.6624184"><ele>244.4</ele><time>2026-03-29T13:28:05.297Z</time></trkpt><trkpt lat="40.5808864" lon="9.6624511"><ele>246.0</ele><time>2026-03-29T13:28:06.26Z</time></trkpt><trkpt lat="40.5809791" lon="9.6625245"><ele>246.0</ele><time>2026-03-29T13:28:07.262Z</time></trkpt><trkpt lat="40.5810757" lon="9.6626362"><ele>246.0</ele><time>2026-03-29T13:28:08.255Z</time></trkpt><trkpt lat="40.5811712" lon="9.6627765"><ele>246.0</ele><time>2026-03-29T13:28:09.258Z</time></trkpt><trkpt lat="40.5812517" lon="9.662939"><ele>246.0</ele><time>2026-03-29T13:28:10.258Z</time></trkpt><trkpt lat="40.5813244" lon="9.6631068"><ele>248.75</ele><time>2026-03-29T13:28:11.255Z</time></trkpt><trkpt lat="40.5813819" lon="9.6632944"><ele>251.5</ele><time>2026-03-29T13:28:12.257Z</time></trkpt><trkpt lat="40.581443" lon="9.6634486"><ele>254.25</ele><time>2026-03-29T13:28:13.265Z</time></trkpt><trkpt lat="40.5815281" lon="9.6635621"><ele>257.0</ele><time>2026-03-29T13:28:14.261Z</time></trkpt><trkpt lat="40.581636" lon="9.6636279"><ele>257.0</ele><time>2026-03-29T13:28:15.309Z</time></trkpt><trkpt lat="40.5817617" lon="9.6636703"><ele>257.0</ele><time>2026-03-29T13:28:16.264Z</time></trkpt><trkpt lat="40.5818771" lon="9.6637059"><ele>257.0</ele><time>2026-03-29T13:28:17.264Z</time></trkpt><trkpt lat="40.581953" lon="9.6637919"><ele>257.0</ele><time>2026-03-29T13:28:18.265Z</time></trkpt><trkpt lat="40.581979" lon="9.6639116"><ele>257.0</ele><time>2026-03-29T13:28:19.265Z</time></trkpt><trkpt lat="40.5819772" lon="9.6640525"><ele>257.0</ele><time>2026-03-29T13:28:20.257Z</time></trkpt><trkpt lat="40.5819624" lon="9.6642097"><ele>257.0</ele><time>2026-03-29T13:28:21.261Z</time></trkpt><trkpt lat="40.5819457" lon="9.6643834"><ele>257.0</ele><time>2026-03-29T13:28:22.261Z</time></trkpt><trkpt lat="40.5819295" lon="9.6645618"><ele>257.0</ele><time>2026-03-29T13:28:23.259Z</time></trkpt><trkpt lat="40.5819086" lon="9.6647299"><ele>257.75</ele><time>2026-03-29T13:28:24.259Z</time></trkpt><trkpt lat="40.5818753" lon="9.6648908"><ele>258.5</ele><time>2026-03-29T13:28:25.263Z</time></trkpt><trkpt lat="40.5818352" lon="9.6650439"><ele>259.25</ele><time>2026-03-29T13:28:26.269Z</time></trkpt><trkpt lat="40.5817922" lon="9.6651939"><ele>260.0</ele><time>2026-03-29T13:28:27.267Z</time></trkpt><trkpt lat="40.5817724" lon="9.6653764"><ele>260.25</ele><time>2026-03-29T13:28:28.267Z</time></trkpt><trkpt lat="40.5817667" lon="9.6655681"><ele>260.5</ele><time>2026-03-29T13:28:29.262Z</time></trkpt><trkpt lat="40.5817812" lon="9.6657414"><ele>260.75</ele><time>2026-03-29T13:28:30.261Z</time></trkpt><trkpt lat="40.5818195" lon="9.6658784"><ele>261.0</ele><time>2026-03-29T13:28:31.263Z</time></trkpt><trkpt lat="40.5818814" lon="9.6659596"><ele>261.0</ele><time>2026-03-29T13:28:32.256Z</time></trkpt><trkpt lat="40.5819624" lon="9.6659821"><ele>261.0</ele><time>2026-03-29T13:28:33.284Z</time></trkpt><trkpt lat="40.582048" lon="9.6659512"><ele>261.0</ele><time>2026-03-29T13:28:34.271Z</time></trkpt><trkpt lat="40.5821201" lon="9.6658705"><ele>261.0</ele><time>2026-03-29T13:28:35.261Z</time></trkpt><trkpt lat="40.5821823" lon="9.6657493"><ele>261.0</ele><time>2026-03-29T13:28:36.265Z</time></trkpt><trkpt lat="40.5822342" lon="9.6655855"><ele>261.0</ele><time>2026-03-29T13:28:37.262Z</time></trkpt><trkpt lat="40.5822884" lon="9.6653986"><ele>261.0</ele><time>2026-03-29T13:28:38.28Z</time></trkpt><trkpt lat="40.5823504" lon="9.6651963"><ele>261.0</ele><time>2026-03-29T13:28:39.264Z</time></trkpt><trkpt lat="40.5824089" lon="9.6649931"><ele>262.6666666666667</ele><time>2026-03-29T13:28:40.263Z</time></trkpt><trkpt lat="40.5824702" lon="9.6647797"><ele>264.33333333333337</ele><time>2026-03-29T13:28:41.265Z</time></trkpt><trkpt lat="40.5825345" lon="9.6645544"><ele>266.0</ele><time>2026-03-29T13:28:42.267Z</time></trkpt><trkpt lat="40.5825967" lon="9.6643394"><ele>266.0</ele><time>2026-03-29T13:28:43.263Z</time></trkpt><trkpt lat="40.5826579" lon="9.6641465"><ele>266.0</ele><time>2026-03-29T13:28:44.283Z</time></trkpt><trkpt lat="40.5827248" lon="9.6639751"><ele>266.0</ele><time>2026-03-29T13:28:45.261Z</time></trkpt><trkpt lat="40.5828244" lon="9.6638636"><ele>266.0</ele><time>2026-03-29T13:28:46.267Z</time></trkpt><trkpt lat="40.5829517" lon="9.6637945"><ele>266.0</ele><time>2026-03-29T13:28:47.259Z</time></trkpt><trkpt lat="40.5830928" lon="9.6637381"><ele>266.0</ele><time>2026-03-29T13:28:48.262Z</time></trkpt><trkpt lat="40.5832226" lon="9.6636888"><ele>266.0</ele><time>2026-03-29T13:28:49.265Z</time></trkpt><trkpt lat="40.5833469" lon="9.6636433"><ele>266.0</ele><time>2026-03-29T13:28:50.262Z</time></trkpt><trkpt lat="40.5834612" lon="9.663613"><ele>266.0</ele><time>2026-03-29T13:28:51.281Z</time></trkpt><trkpt lat="40.5835819" lon="9.6636363"><ele>266.0</ele><time>2026-03-29T13:28:52.266Z</time></trkpt><trkpt lat="40.5836833" lon="9.663683"><ele>266.0</ele><time>2026-03-29T13:28:53.266Z</time></trkpt><trkpt lat="40.583782" lon="9.6637496"><ele>266.0</ele><time>2026-03-29T13:28:54.265Z</time></trkpt><trkpt lat="40.5838707" lon="9.6637642"><ele>266.0</ele><time>2026-03-29T13:28:55.261Z</time></trkpt><trkpt lat="40.5839543" lon="9.663725"><ele>265.40000000000003</ele><time>2026-03-29T13:28:56.274Z</time></trkpt><trkpt lat="40.5840304" lon="9.6636715"><ele>264.8</ele><time>2026-03-29T13:28:57.264Z</time></trkpt><trkpt lat="40.5840402" lon="9.663564"><ele>264.20000000000005</ele><time>2026-03-29T13:28:58.262Z</time></trkpt><trkpt lat="40.5840028" lon="9.6634473"><ele>263.6</ele><time>2026-03-29T13:28:59.266Z</time></trkpt><trkpt lat="40.583937" lon="9.6633363"><ele>263.0</ele><time>2026-03-29T13:29:00.256Z</time></trkpt><trkpt lat="40.5838429" lon="9.6632498"><ele>269.75</ele><time>2026-03-29T13:29:01.257Z</time></trkpt><trkpt lat="40.5837245" lon="9.6631839"><ele>276.5</ele><time>2026-03-29T13:29:02.262Z</time></trkpt><trkpt lat="40.5835841" lon="9.6631485"><ele>283.25</ele><time>2026-03-29T13:29:03.271Z</time></trkpt><trkpt lat="40.5834356" lon="9.6631579"><ele>290.0</ele><time>2026-03-29T13:29:04.259Z</time></trkpt><trkpt lat="40.5833041" lon="9.6631934"><ele>290.0</ele><time>2026-03-29T13:29:05.265Z</time></trkpt><trkpt lat="40.583191" lon="9.6632207"><ele>290.0</ele><time>2026-03-29T13:29:06.267Z</time></trkpt><trkpt lat="40.5830926" lon="9.6632174"><ele>290.0</ele><time>2026-03-29T13:29:07.261Z</time></trkpt><trkpt lat="40.5830077" lon="9.6631254"><ele>290.0</ele><time>2026-03-29T13:29:08.257Z</time></trkpt><trkpt lat="40.5829318" lon="9.6630014"><ele>290.0</ele><time>2026-03-29T13:29:09.264Z</time></trkpt><trkpt lat="40.5828469" lon="9.6628291"><ele>291.6666666666667</ele><time>2026-03-29T13:29:10.264Z</time></trkpt><trkpt lat="40.5827613" lon="9.6626623"><ele>293.3333333333333</ele><time>2026-03-29T13:29:11.268Z</time></trkpt><trkpt lat="40.5826905" lon="9.6624756"><ele>295.0</ele><time>2026-03-29T13:29:12.265Z</time></trkpt><trkpt lat="40.582636" lon="9.6622739"><ele>295.0</ele><time>2026-03-29T13:29:13.264Z</time></trkpt><trkpt lat="40.5825891" lon="9.6620729"><ele>295.0</ele><time>2026-03-29T13:29:14.261Z</time></trkpt><trkpt lat="40.5825693" lon="9.6618649"><ele>295.0</ele><time>2026-03-29T13:29:15.267Z</time></trkpt><trkpt lat="40.582529" lon="9.6616935"><ele>298.25</ele><time>2026-03-29T13:29:16.261Z</time></trkpt><trkpt lat="40.5824678" lon="9.6615476"><ele>301.5</ele><time>2026-03-29T13:29:17.261Z</time></trkpt><trkpt lat="40.5824068" lon="9.6614089"><ele>304.75</ele><time>2026-03-29T13:29:18.261Z</time></trkpt><trkpt lat="40.5823655" lon="9.6612734"><ele>308.0</ele><time>2026-03-29T13:29:19.263Z</time></trkpt><trkpt lat="40.5823281" lon="9.6611581"><ele>309.6</ele><time>2026-03-29T13:29:20.257Z</time></trkpt><trkpt lat="40.5823256" lon="9.6610339"><ele>311.20000000000005</ele><time>2026-03-29T13:29:21.282Z</time></trkpt><trkpt lat="40.5823346" lon="9.6609115"><ele>312.8</ele><time>2026-03-29T13:29:22.259Z</time></trkpt><trkpt lat="40.5823515" lon="9.6607909"><ele>314.40000000000003</ele><time>2026-03-29T13:29:23.261Z</time></trkpt><trkpt lat="40.5823545" lon="9.6606678"><ele>316.0</ele><time>2026-03-29T13:29:24.262Z</time></trkpt><trkpt lat="40.5823293" lon="9.6605342"><ele>316.0</ele><time>2026-03-29T13:29:25.266Z</time></trkpt><trkpt lat="40.5823" lon="9.6603915"><ele>316.0</ele><time>2026-03-29T13:29:26.26Z</time></trkpt><trkpt lat="40.5822193" lon="9.6602737"><ele>316.0</ele><time>2026-03-29T13:29:27.264Z</time></trkpt><trkpt lat="40.5821397" lon="9.6601664"><ele>316.0</ele><time>2026-03-29T13:29:28.257Z</time></trkpt><trkpt lat="40.5820987" lon="9.6600904"><ele>316.0</ele><time>2026-03-29T13:29:29.255Z</time></trkpt><trkpt lat="40.5820479" lon="9.6599441"><ele>317.16666666666663</ele><time>2026-03-29T13:29:34.257Z</time></trkpt><trkpt lat="40.5820865" lon="9.6598372"><ele>318.3333333333333</ele><time>2026-03-29T13:29:37.265Z</time></trkpt><trkpt lat="40.582197" lon="9.6598267"><ele>319.5</ele><time>2026-03-29T13:29:39.261Z</time></trkpt><trkpt lat="40.582285" lon="9.6598239"><ele>320.6666666666667</ele><time>2026-03-29T13:29:40.27Z</time></trkpt><trkpt lat="40.5823646" lon="9.6598271"><ele>321.83333333333337</ele><time>2026-03-29T13:29:41.261Z</time></trkpt><trkpt lat="40.5824318" lon="9.6598222"><ele>323.0</ele><time>2026-03-29T13:29:42.259Z</time></trkpt><trkpt lat="40.5825123" lon="9.659747"><ele>323.0</ele><time>2026-03-29T13:29:44.258Z</time></trkpt><trkpt lat="40.5825391" lon="9.6596309"><ele>323.0</ele><time>2026-03-29T13:29:46.257Z</time></trkpt><trkpt lat="40.5825487" lon="9.659548"><ele>323.0</ele><time>2026-03-29T13:29:47.257Z</time></trkpt><trkpt lat="40.5825647" lon="9.6594282"><ele>323.0</ele><time>2026-03-29T13:29:48.255Z</time></trkpt><trkpt lat="40.5825855" lon="9.659314"><ele>323.0</ele><time>2026-03-29T13:29:49.257Z</time></trkpt><trkpt lat="40.5826157" lon="9.65918"><ele>323.0</ele><time>2026-03-29T13:29:50.253Z</time></trkpt><trkpt lat="40.582649" lon="9.6590267"><ele>323.2</ele><time>2026-03-29T13:29:51.255Z</time></trkpt><trkpt lat="40.5826989" lon="9.6588634"><ele>323.4</ele><time>2026-03-29T13:29:52.276Z</time></trkpt><trkpt lat="40.5827621" lon="9.6587266"><ele>323.59999999999997</ele><time>2026-03-29T13:29:53.252Z</time></trkpt><trkpt lat="40.5828028" lon="9.6586216"><ele>323.79999999999995</ele><time>2026-03-29T13:29:54.259Z</time></trkpt><trkpt lat="40.5828452" lon="9.658532"><ele>324.0</ele><time>2026-03-29T13:29:55.259Z</time></trkpt><trkpt lat="40.5828732" lon="9.6584554"><ele>324.0</ele><time>2026-03-29T13:29:56.262Z</time></trkpt><trkpt lat="40.5828955" lon="9.6583721"><ele>324.0</ele><time>2026-03-29T13:29:57.263Z</time></trkpt><trkpt lat="40.5829063" lon="9.6582617"><ele>324.0</ele><time>2026-03-29T13:29:58.256Z</time></trkpt><trkpt lat="40.5829233" lon="9.6581559"><ele>324.0</ele><time>2026-03-29T13:29:59.273Z</time></trkpt><trkpt lat="40.5829488" lon="9.6580443"><ele>324.0</ele><time>2026-03-29T13:30:00.259Z</time></trkpt><trkpt lat="40.5829777" lon="9.6579389"><ele>324.0</ele><time>2026-03-29T13:30:01.262Z</time></trkpt><trkpt lat="40.5830219" lon="9.6578467"><ele>325.8333333333333</ele><time>2026-03-29T13:30:02.253Z</time></trkpt><trkpt lat="40.5830753" lon="9.6577594"><ele>327.6666666666667</ele><time>2026-03-29T13:30:03.257Z</time></trkpt><trkpt lat="40.5831344" lon="9.6576878"><ele>329.5</ele><time>2026-03-29T13:30:04.254Z</time></trkpt><trkpt lat="40.5832017" lon="9.6576378"><ele>331.33333333333337</ele><time>2026-03-29T13:30:05.257Z</time></trkpt><trkpt lat="40.583277" lon="9.6576016"><ele>333.1666666666667</ele><time>2026-03-29T13:30:06.255Z</time></trkpt><trkpt lat="40.5833587" lon="9.6575742"><ele>335.0</ele><time>2026-03-29T13:30:07.255Z</time></trkpt><trkpt lat="40.5834425" lon="9.6575838"><ele>335.0</ele><time>2026-03-29T13:30:08.259Z</time></trkpt><trkpt lat="40.583519" lon="9.6576106"><ele>335.0</ele><time>2026-03-29T13:30:09.259Z</time></trkpt><trkpt lat="40.5835954" lon="9.6576391"><ele>335.0</ele><time>2026-03-29T13:30:10.284Z</time></trkpt><trkpt lat="40.58367" lon="9.6576892"><ele>335.0</ele><time>2026-03-29T13:30:11.262Z</time></trkpt><trkpt lat="40.5837727" lon="9.6577392"><ele>335.0</ele><time>2026-03-29T13:30:12.271Z</time></trkpt><trkpt lat="40.5838404" lon="9.657789"><ele>335.0</ele><time>2026-03-29T13:30:13.263Z</time></trkpt><trkpt lat="40.5839181" lon="9.6578465"><ele>329.0</ele><time>2026-03-29T13:30:14.261Z</time></trkpt><trkpt lat="40.5839844" lon="9.6578987"><ele>323.0</ele><time>2026-03-29T13:30:15.259Z</time></trkpt><trkpt lat="40.5840878" lon="9.6579733"><ele>317.0</ele><time>2026-03-29T13:30:17.29Z</time></trkpt><trkpt lat="40.5841787" lon="9.658036"><ele>311.0</ele><time>2026-03-29T13:30:19.266Z</time></trkpt><trkpt lat="40.5843076" lon="9.6580974"><ele>305.0</ele><time>2026-03-29T13:30:21.259Z</time></trkpt><trkpt lat="40.5843744" lon="9.6581181"><ele>305.0</ele><time>2026-03-29T13:30:22.263Z</time></trkpt><trkpt lat="40.5844902" lon="9.6581343"><ele>305.0</ele><time>2026-03-29T13:30:24.287Z</time></trkpt><trkpt lat="40.5845743" lon="9.6581166"><ele>305.0</ele><time>2026-03-29T13:30:26.268Z</time></trkpt><trkpt lat="40.5846602" lon="9.658071"><ele>305.0</ele><time>2026-03-29T13:30:28.267Z</time></trkpt><trkpt lat="40.5847592" lon="9.6580679"><ele>305.0</ele><time>2026-03-29T13:30:30.265Z</time></trkpt><trkpt lat="40.5848664" lon="9.658145"><ele>304.5</ele><time>2026-03-29T13:30:32.285Z</time></trkpt><trkpt lat="40.5849206" lon="9.6582075"><ele>304.0</ele><time>2026-03-29T13:30:33.266Z</time></trkpt><trkpt lat="40.5849713" lon="9.6582651"><ele>303.5</ele><time>2026-03-29T13:30:34.264Z</time></trkpt><trkpt lat="40.5850316" lon="9.6583318"><ele>303.0</ele><time>2026-03-29T13:30:35.258Z</time></trkpt><trkpt lat="40.5850907" lon="9.6583874"><ele>302.5</ele><time>2026-03-29T13:30:36.265Z</time></trkpt><trkpt lat="40.5851518" lon="9.6584423"><ele>302.0</ele><time>2026-03-29T13:30:37.28Z</time></trkpt><trkpt lat="40.5852278" lon="9.6585005"><ele>302.0</ele><time>2026-03-29T13:30:38.256Z</time></trkpt><trkpt lat="40.5853159" lon="9.6585625"><ele>302.0</ele><time>2026-03-29T13:30:39.26Z</time></trkpt><trkpt lat="40.5854025" lon="9.6586262"><ele>302.0</ele><time>2026-03-29T13:30:40.262Z</time></trkpt><trkpt lat="40.585488" lon="9.6586889"><ele>302.0</ele><time>2026-03-29T13:30:41.264Z</time></trkpt><trkpt lat="40.5855797" lon="9.6587437"><ele>302.0</ele><time>2026-03-29T13:30:42.265Z</time></trkpt><trkpt lat="40.5856832" lon="9.6587962"><ele>298.6</ele><time>2026-03-29T13:30:43.294Z</time></trkpt><trkpt lat="40.5857956" lon="9.6588618"><ele>295.2</ele><time>2026-03-29T13:30:44.264Z</time></trkpt><trkpt lat="40.5858991" lon="9.6589292"><ele>291.8</ele><time>2026-03-29T13:30:45.267Z</time></trkpt><trkpt lat="40.5859815" lon="9.6589799"><ele>288.4</ele><time>2026-03-29T13:30:46.262Z</time></trkpt><trkpt lat="40.5860473" lon="9.6590079"><ele>285.0</ele><time>2026-03-29T13:30:47.267Z</time></trkpt><trkpt lat="40.5861533" lon="9.6589797"><ele>282.2</ele><time>2026-03-29T13:30:49.257Z</time></trkpt><trkpt lat="40.586231" lon="9.6588386"><ele>279.4</ele><time>2026-03-29T13:30:51.263Z</time></trkpt><trkpt lat="40.586254" lon="9.6587326"><ele>276.6</ele><time>2026-03-29T13:30:52.261Z</time></trkpt><trkpt lat="40.5862633" lon="9.6586113"><ele>273.8</ele><time>2026-03-29T13:30:53.261Z</time></trkpt><trkpt lat="40.5862755" lon="9.6584828"><ele>271.0</ele><time>2026-03-29T13:30:54.267Z</time></trkpt><trkpt lat="40.5862978" lon="9.658358"><ele>271.0</ele><time>2026-03-29T13:30:55.266Z</time></trkpt><trkpt lat="40.5863301" lon="9.6582356"><ele>271.0</ele><time>2026-03-29T13:30:56.256Z</time></trkpt><trkpt lat="40.5863704" lon="9.6581125"><ele>271.0</ele><time>2026-03-29T13:30:57.261Z</time></trkpt><trkpt lat="40.5864118" lon="9.6579918"><ele>271.0</ele><time>2026-03-29T13:30:58.262Z</time></trkpt><trkpt lat="40.5864521" lon="9.6578753"><ele>271.0</ele><time>2026-03-29T13:30:59.259Z</time></trkpt><trkpt lat="40.5864917" lon="9.6577627"><ele>272.3333333333333</ele><time>2026-03-29T13:31:00.259Z</time></trkpt><trkpt lat="40.5865282" lon="9.6576632"><ele>273.66666666666663</ele><time>2026-03-29T13:31:01.262Z</time></trkpt><trkpt lat="40.5865616" lon="9.6575733"><ele>275.0</ele><time>2026-03-29T13:31:02.254Z</time></trkpt><trkpt lat="40.5865906" lon="9.6574817"><ele>276.3333333333333</ele><time>2026-03-29T13:31:03.264Z</time></trkpt><trkpt lat="40.586621" lon="9.6573885"><ele>277.6666666666667</ele><time>2026-03-29T13:31:04.262Z</time></trkpt><trkpt lat="40.5866531" lon="9.6573"><ele>279.0</ele><time>2026-03-29T13:31:05.278Z</time></trkpt><trkpt lat="40.5866877" lon="9.6572191"><ele>279.0</ele><time>2026-03-29T13:31:06.267Z</time></trkpt><trkpt lat="40.5867319" lon="9.6571426"><ele>279.0</ele><time>2026-03-29T13:31:07.262Z</time></trkpt><trkpt lat="40.5867894" lon="9.6570756"><ele>279.0</ele><time>2026-03-29T13:31:08.258Z</time></trkpt><trkpt lat="40.5868552" lon="9.6570136"><ele>279.0</ele><time>2026-03-29T13:31:09.265Z</time></trkpt><trkpt lat="40.5869182" lon="9.6569554"><ele>279.0</ele><time>2026-03-29T13:31:10.267Z</time></trkpt><trkpt lat="40.5869731" lon="9.6569089"><ele>279.0</ele><time>2026-03-29T13:31:11.255Z</time></trkpt><trkpt lat="40.5870719" lon="9.6568211"><ele>274.1666666666667</ele><time>2026-03-29T13:31:13.255Z</time></trkpt><trkpt lat="40.5871173" lon="9.6567606"><ele>269.3333333333333</ele><time>2026-03-29T13:31:14.258Z</time></trkpt><trkpt lat="40.5871945" lon="9.6566112"><ele>264.5</ele><time>2026-03-29T13:31:16.255Z</time></trkpt><trkpt lat="40.5872296" lon="9.6565177"><ele>259.66666666666663</ele><time>2026-03-29T13:31:17.271Z</time></trkpt><trkpt lat="40.58728" lon="9.6564298"><ele>254.83333333333331</ele><time>2026-03-29T13:31:18.264Z</time></trkpt><trkpt lat="40.587331" lon="9.6563461"><ele>250.0</ele><time>2026-03-29T13:31:19.26Z</time></trkpt><trkpt lat="40.5873784" lon="9.6562685"><ele>249.99999999999997</ele><time>2026-03-29T13:31:20.263Z</time></trkpt><trkpt lat="40.5874255" lon="9.6561852"><ele>250.0</ele><time>2026-03-29T13:31:21.258Z</time></trkpt><trkpt lat="40.587468" lon="9.656098"><ele>250.0</ele><time>2026-03-29T13:31:22.261Z</time></trkpt><trkpt lat="40.587508" lon="9.6560096"><ele>250.0</ele><time>2026-03-29T13:31:23.254Z</time></trkpt><trkpt lat="40.5875428" lon="9.6559225"><ele>249.99999999999997</ele><time>2026-03-29T13:31:24.298Z</time></trkpt><trkpt lat="40.5875713" lon="9.6558439"><ele>250.0</ele><time>2026-03-29T13:31:25.261Z</time></trkpt><trkpt lat="40.5875825" lon="9.6556915"><ele>250.6</ele><time>2026-03-29T13:31:27.258Z</time></trkpt><trkpt lat="40.5875392" lon="9.6555443"><ele>251.2</ele><time>2026-03-29T13:31:29.264Z</time></trkpt><trkpt lat="40.5874809" lon="9.6554782"><ele>251.8</ele><time>2026-03-29T13:31:30.254Z</time></trkpt><trkpt lat="40.5874023" lon="9.6554145"><ele>252.4</ele><time>2026-03-29T13:31:31.299Z</time></trkpt><trkpt lat="40.5873219" lon="9.6553536"><ele>253.0</ele><time>2026-03-29T13:31:32.265Z</time></trkpt><trkpt lat="40.5872427" lon="9.6552919"><ele>250.49999999999997</ele><time>2026-03-29T13:31:33.26Z</time></trkpt><trkpt lat="40.5871726" lon="9.6552287"><ele>248.0</ele><time>2026-03-29T13:31:34.268Z</time></trkpt><trkpt lat="40.5871169" lon="9.6551638"><ele>245.5</ele><time>2026-03-29T13:31:35.265Z</time></trkpt><trkpt lat="40.5870812" lon="9.6550934"><ele>243.0</ele><time>2026-03-29T13:31:36.266Z</time></trkpt><trkpt lat="40.5870732" lon="9.6549328"><ele>240.49999999999997</ele><time>2026-03-29T13:31:38.262Z</time></trkpt><trkpt lat="40.5871036" lon="9.6548438"><ele>238.0</ele><time>2026-03-29T13:31:39.259Z</time></trkpt><trkpt lat="40.5871383" lon="9.6547572"><ele>237.99999999999997</ele><time>2026-03-29T13:31:40.26Z</time></trkpt><trkpt lat="40.5871607" lon="9.6546729"><ele>238.0</ele><time>2026-03-29T13:31:41.263Z</time></trkpt><trkpt lat="40.5871436" lon="9.6545079"><ele>238.0</ele><time>2026-03-29T13:31:43.256Z</time></trkpt><trkpt lat="40.5871059" lon="9.6544303"><ele>238.0</ele><time>2026-03-29T13:31:44.263Z</time></trkpt><trkpt lat="40.5870507" lon="9.6543592"><ele>237.99999999999997</ele><time>2026-03-29T13:31:45.258Z</time></trkpt><trkpt lat="40.5869915" lon="9.6542849"><ele>238.0</ele><time>2026-03-29T13:31:46.261Z</time></trkpt><trkpt lat="40.5869106" lon="9.6542255"><ele>239.4</ele><time>2026-03-29T13:31:47.274Z</time></trkpt><trkpt lat="40.5868205" lon="9.6541686"><ele>240.8</ele><time>2026-03-29T13:31:48.261Z</time></trkpt><trkpt lat="40.5867264" lon="9.6541174"><ele>242.2</ele><time>2026-03-29T13:31:49.262Z</time></trkpt><trkpt lat="40.5866379" lon="9.6540638"><ele>243.6</ele><time>2026-03-29T13:31:50.256Z</time></trkpt><trkpt lat="40.5865566" lon="9.6540062"><ele>245.0</ele><time>2026-03-29T13:31:51.262Z</time></trkpt><trkpt lat="40.586479" lon="9.6539503"><ele>245.0</ele><time>2026-03-29T13:31:52.262Z</time></trkpt><trkpt lat="40.5864077" lon="9.6539015"><ele>245.0</ele><time>2026-03-29T13:31:53.256Z</time></trkpt><trkpt lat="40.5863462" lon="9.6538587"><ele>245.0</ele><time>2026-03-29T13:31:54.269Z</time></trkpt><trkpt lat="40.5862895" lon="9.6538212"><ele>245.0</ele><time>2026-03-29T13:31:55.261Z</time></trkpt><trkpt lat="40.5861746" lon="9.6537699"><ele>245.0</ele><time>2026-03-29T13:31:57.26Z</time></trkpt><trkpt lat="40.5860523" lon="9.6537344"><ele>245.16666666666669</ele><time>2026-03-29T13:31:59.252Z</time></trkpt><trkpt lat="40.5859872" lon="9.6537227"><ele>245.33333333333334</ele><time>2026-03-29T13:32:00.262Z</time></trkpt><trkpt lat="40.5858885" lon="9.6536643"><ele>245.5</ele><time>2026-03-29T13:32:02.259Z</time></trkpt><trkpt lat="40.5858604" lon="9.6535573"><ele>245.66666666666669</ele><time>2026-03-29T13:32:04.256Z</time></trkpt><trkpt lat="40.585878" lon="9.6534663"><ele>245.83333333333334</ele><time>2026-03-29T13:32:06.265Z</time></trkpt><trkpt lat="40.5859654" lon="9.6534309"><ele>246.0</ele><time>2026-03-29T13:32:08.284Z</time></trkpt><trkpt lat="40.5860282" lon="9.6534087"><ele>246.00000000000003</ele><time>2026-03-29T13:32:09.258Z</time></trkpt><trkpt lat="40.5860975" lon="9.6533999"><ele>246.0</ele><time>2026-03-29T13:32:10.264Z</time></trkpt><trkpt lat="40.586169" lon="9.6533881"><ele>246.00000000000003</ele><time>2026-03-29T13:32:11.263Z</time></trkpt><trkpt lat="40.5862422" lon="9.6533805"><ele>246.00000000000003</ele><time>2026-03-29T13:32:12.26Z</time></trkpt><trkpt lat="40.5863182" lon="9.6533741"><ele>246.0</ele><time>2026-03-29T13:32:13.259Z</time></trkpt><trkpt lat="40.5863927" lon="9.6533693"><ele>246.00000000000003</ele><time>2026-03-29T13:32:14.263Z</time></trkpt><trkpt lat="40.5864663" lon="9.6533891"><ele>246.00000000000003</ele><time>2026-03-29T13:32:15.26Z</time></trkpt><trkpt lat="40.5865366" lon="9.6534201"><ele>243.33333333333334</ele><time>2026-03-29T13:32:16.262Z</time></trkpt><trkpt lat="40.5866063" lon="9.653441"><ele>240.66666666666669</ele><time>2026-03-29T13:32:17.258Z</time></trkpt><trkpt lat="40.5867261" lon="9.6534656"><ele>238.0</ele><time>2026-03-29T13:32:19.263Z</time></trkpt><trkpt lat="40.5868338" lon="9.6534688"><ele>235.33333333333334</ele><time>2026-03-29T13:32:21.262Z</time></trkpt><trkpt lat="40.5868981" lon="9.6534559"><ele>232.66666666666669</ele><time>2026-03-29T13:32:22.257Z</time></trkpt><trkpt lat="40.5869599" lon="9.6534391"><ele>230.0</ele><time>2026-03-29T13:32:23.271Z</time></trkpt><trkpt lat="40.5870276" lon="9.6534171"><ele>227.66666666666669</ele><time>2026-03-29T13:32:24.26Z</time></trkpt><trkpt lat="40.5871015" lon="9.6533921"><ele>225.33333333333334</ele><time>2026-03-29T13:32:25.266Z</time></trkpt><trkpt lat="40.5871868" lon="9.6533606"><ele>223.0</ele><time>2026-03-29T13:32:26.266Z</time></trkpt><trkpt lat="40.5872827" lon="9.6533352"><ele>220.66666666666669</ele><time>2026-03-29T13:32:27.264Z</time></trkpt><trkpt lat="40.5873776" lon="9.6533155"><ele>218.33333333333334</ele><time>2026-03-29T13:32:28.266Z</time></trkpt><trkpt lat="40.5874642" lon="9.6532995"><ele>216.0</ele><time>2026-03-29T13:32:29.26Z</time></trkpt><trkpt lat="40.587549" lon="9.6532773"><ele>216.0</ele><time>2026-03-29T13:32:30.265Z</time></trkpt><trkpt lat="40.5876344" lon="9.6532537"><ele>216.00000000000003</ele><time>2026-03-29T13:32:31.265Z</time></trkpt><trkpt lat="40.5877271" lon="9.6532017"><ele>216.00000000000003</ele><time>2026-03-29T13:32:32.266Z</time></trkpt><trkpt lat="40.5878125" lon="9.6531603"><ele>216.0</ele><time>2026-03-29T13:32:33.261Z</time></trkpt><trkpt lat="40.5879029" lon="9.6531291"><ele>216.0</ele><time>2026-03-29T13:32:34.274Z</time></trkpt><trkpt lat="40.5879956" lon="9.6531076"><ele>213.5</ele><time>2026-03-29T13:32:35.265Z</time></trkpt><trkpt lat="40.5880847" lon="9.6530919"><ele>211.0</ele><time>2026-03-29T13:32:36.267Z</time></trkpt><trkpt lat="40.5881723" lon="9.653067"><ele>208.5</ele><time>2026-03-29T13:32:37.264Z</time></trkpt><trkpt lat="40.5882598" lon="9.653045"><ele>206.0</ele><time>2026-03-29T13:32:38.266Z</time></trkpt><trkpt lat="40.5883435" lon="9.6530232"><ele>203.5</ele><time>2026-03-29T13:32:39.29Z</time></trkpt><trkpt lat="40.5884178" lon="9.6530055"><ele>201.0</ele><time>2026-03-29T13:32:40.269Z</time></trkpt><trkpt lat="40.5884905" lon="9.6529865"><ele>201.0</ele><time>2026-03-29T13:32:41.265Z</time></trkpt><trkpt lat="40.5886038" lon="9.6529779"><ele>201.0</ele><time>2026-03-29T13:32:43.265Z</time></trkpt><trkpt lat="40.5886692" lon="9.6530645"><ele>201.0</ele><time>2026-03-29T13:32:45.279Z</time></trkpt><trkpt lat="40.588698" lon="9.653145"><ele>201.0</ele><time>2026-03-29T13:32:46.268Z</time></trkpt><trkpt lat="40.5887357" lon="9.6532308"><ele>201.0</ele><time>2026-03-29T13:32:47.266Z</time></trkpt><trkpt lat="40.5887742" lon="9.6532987"><ele>201.0</ele><time>2026-03-29T13:32:48.258Z</time></trkpt><trkpt lat="40.588839" lon="9.6533598"><ele>199.16666666666666</ele><time>2026-03-29T13:32:50.264Z</time></trkpt><trkpt lat="40.5888805" lon="9.6532707"><ele>197.33333333333334</ele><time>2026-03-29T13:32:54.268Z</time></trkpt><trkpt lat="40.5888442" lon="9.6531705"><ele>195.5</ele><time>2026-03-29T13:32:56.267Z</time></trkpt><trkpt lat="40.5888077" lon="9.6530978"><ele>193.66666666666669</ele><time>2026-03-29T13:32:57.269Z</time></trkpt><trkpt lat="40.5887768" lon="9.6530016"><ele>191.83333333333334</ele><time>2026-03-29T13:32:58.29Z</time></trkpt><trkpt lat="40.5887612" lon="9.6528964"><ele>190.0</ele><time>2026-03-29T13:32:59.269Z</time></trkpt><trkpt lat="40.5887462" lon="9.6528117"><ele>189.4</ele><time>2026-03-29T13:33:00.265Z</time></trkpt><trkpt lat="40.588728" lon="9.6526827"><ele>188.8</ele><time>2026-03-29T13:33:02.264Z</time></trkpt><trkpt lat="40.588673" lon="9.6525247"><ele>188.2</ele><time>2026-03-29T13:33:04.256Z</time></trkpt><trkpt lat="40.5886329" lon="9.6524104"><ele>187.6</ele><time>2026-03-29T13:33:05.266Z</time></trkpt><trkpt lat="40.5885898" lon="9.6522842"><ele>187.0</ele><time>2026-03-29T13:33:06.266Z</time></trkpt><trkpt lat="40.5885453" lon="9.6521667"><ele>188.83333333333334</ele><time>2026-03-29T13:33:07.264Z</time></trkpt><trkpt lat="40.5885082" lon="9.6520746"><ele>190.66666666666669</ele><time>2026-03-29T13:33:08.259Z</time></trkpt><trkpt lat="40.5884661" lon="9.6519789"><ele>192.5</ele><time>2026-03-29T13:33:10.287Z</time></trkpt><trkpt lat="40.5884896" lon="9.6518958"><ele>194.33333333333334</ele><time>2026-03-29T13:33:14.266Z</time></trkpt><trkpt lat="40.5885932" lon="9.6519017"><ele>196.16666666666666</ele><time>2026-03-29T13:33:16.261Z</time></trkpt><trkpt lat="40.5886778" lon="9.6519221"><ele>198.0</ele><time>2026-03-29T13:33:17.261Z</time></trkpt><trkpt lat="40.5887664" lon="9.6519236"><ele>198.0</ele><time>2026-03-29T13:33:18.262Z</time></trkpt><trkpt lat="40.5888474" lon="9.6519287"><ele>198.0</ele><time>2026-03-29T13:33:19.266Z</time></trkpt><trkpt lat="40.5889124" lon="9.6519087"><ele>198.0</ele><time>2026-03-29T13:33:20.266Z</time></trkpt><trkpt lat="40.5889748" lon="9.651848"><ele>198.0</ele><time>2026-03-29T13:33:22.283Z</time></trkpt><trkpt lat="40.5890276" lon="9.6517469"><ele>198.0</ele><time>2026-03-29T13:33:24.278Z</time></trkpt><trkpt lat="40.5890962" lon="9.6516281"><ele>198.0</ele><time>2026-03-29T13:33:26.269Z</time></trkpt><trkpt lat="40.5891434" lon="9.6515619"><ele>198.0</ele><time>2026-03-29T13:33:27.266Z</time></trkpt><trkpt lat="40.5892062" lon="9.6514446"><ele>198.0</ele><time>2026-03-29T13:33:29.268Z</time></trkpt><trkpt lat="40.5891599" lon="9.6513534"><ele>198.0</ele><time>2026-03-29T13:33:32.265Z</time></trkpt><trkpt lat="40.589065" lon="9.651295"><ele>198.0</ele><time>2026-03-29T13:33:34.265Z</time></trkpt><trkpt lat="40.5889791" lon="9.6512019"><ele>198.0</ele><time>2026-03-29T13:33:36.267Z</time></trkpt><trkpt lat="40.5889376" lon="9.651131"><ele>201.0</ele><time>2026-03-29T13:33:37.264Z</time></trkpt><trkpt lat="40.5889065" lon="9.6510478"><ele>204.0</ele><time>2026-03-29T13:33:38.259Z</time></trkpt><trkpt lat="40.5888737" lon="9.650902"><ele>207.0</ele><time>2026-03-29T13:33:40.266Z</time></trkpt><trkpt lat="40.5888876" lon="9.6507645"><ele>210.0</ele><time>2026-03-29T13:33:42.281Z</time></trkpt><trkpt lat="40.5889121" lon="9.6506096"><ele>213.0</ele><time>2026-03-29T13:33:44.265Z</time></trkpt><trkpt lat="40.5888789" lon="9.6504512"><ele>212.99999999999997</ele><time>2026-03-29T13:33:46.258Z</time></trkpt><trkpt lat="40.588854" lon="9.6503656"><ele>213.0</ele><time>2026-03-29T13:33:47.288Z</time></trkpt><trkpt lat="40.5888279" lon="9.6502717"><ele>213.0</ele><time>2026-03-29T13:33:48.263Z</time></trkpt><trkpt lat="40.5888031" lon="9.6501774"><ele>213.0</ele><time>2026-03-29T13:33:49.266Z</time></trkpt><trkpt lat="40.5887823" lon="9.650085"><ele>213.0</ele><time>2026-03-29T13:33:50.265Z</time></trkpt><trkpt lat="40.5887586" lon="9.6499982"><ele>212.99999999999997</ele><time>2026-03-29T13:33:51.263Z</time></trkpt><trkpt lat="40.5887361" lon="9.649902"><ele>213.0</ele><time>2026-03-29T13:33:52.273Z</time></trkpt><trkpt lat="40.5887124" lon="9.6498137"><ele>213.83333333333334</ele><time>2026-03-29T13:33:53.269Z</time></trkpt><trkpt lat="40.5886835" lon="9.6497389"><ele>214.66666666666669</ele><time>2026-03-29T13:33:54.266Z</time></trkpt><trkpt lat="40.5886378" lon="9.6496638"><ele>215.5</ele><time>2026-03-29T13:33:55.266Z</time></trkpt><trkpt lat="40.5885843" lon="9.6495927"><ele>216.33333333333334</ele><time>2026-03-29T13:33:56.257Z</time></trkpt><trkpt lat="40.5885219" lon="9.6495132"><ele>217.16666666666669</ele><time>2026-03-29T13:33:57.265Z</time></trkpt><trkpt lat="40.5884682" lon="9.6494387"><ele>218.0</ele><time>2026-03-29T13:33:58.257Z</time></trkpt><trkpt lat="40.5884315" lon="9.6493516"><ele>220.66666666666669</ele><time>2026-03-29T13:33:59.255Z</time></trkpt><trkpt lat="40.5884042" lon="9.6492583"><ele>223.33333333333334</ele><time>2026-03-29T13:34:00.265Z</time></trkpt><trkpt lat="40.5883801" lon="9.6491625"><ele>226.0</ele><time>2026-03-29T13:34:01.265Z</time></trkpt><trkpt lat="40.5883702" lon="9.6490675"><ele>228.66666666666669</ele><time>2026-03-29T13:34:02.266Z</time></trkpt><trkpt lat="40.5883746" lon="9.6489257"><ele>231.33333333333334</ele><time>2026-03-29T13:34:04.28Z</time></trkpt><trkpt lat="40.5883949" lon="9.6488404"><ele>234.0</ele><time>2026-03-29T13:34:05.266Z</time></trkpt><trkpt lat="40.5883991" lon="9.6487385"><ele>234.0</ele><time>2026-03-29T13:34:06.266Z</time></trkpt><trkpt lat="40.5884006" lon="9.6486341"><ele>234.0</ele><time>2026-03-29T13:34:07.262Z</time></trkpt><trkpt lat="40.5883989" lon="9.6485297"><ele>234.0</ele><time>2026-03-29T13:34:08.257Z</time></trkpt><trkpt lat="40.588408" lon="9.6484356"><ele>234.0</ele><time>2026-03-29T13:34:09.283Z</time></trkpt><trkpt lat="40.5884146" lon="9.6483309"><ele>234.0</ele><time>2026-03-29T13:34:10.264Z</time></trkpt><trkpt lat="40.5884052" lon="9.648227"><ele>234.0</ele><time>2026-03-29T13:34:11.264Z</time></trkpt><trkpt lat="40.5883834" lon="9.6481233"><ele>236.14285714285717</ele><time>2026-03-29T13:34:12.261Z</time></trkpt><trkpt lat="40.5883546" lon="9.6480312"><ele>238.2857142857143</ele><time>2026-03-29T13:34:13.261Z</time></trkpt><trkpt lat="40.5883268" lon="9.6479424"><ele>240.42857142857144</ele><time>2026-03-29T13:34:14.26Z</time></trkpt><trkpt lat="40.5883055" lon="9.6478612"><ele>242.57142857142856</ele><time>2026-03-29T13:34:15.258Z</time></trkpt><trkpt lat="40.5882994" lon="9.6477695"><ele>244.7142857142857</ele><time>2026-03-29T13:34:16.282Z</time></trkpt><trkpt lat="40.5883033" lon="9.6476739"><ele>246.85714285714283</ele><time>2026-03-29T13:34:17.267Z</time></trkpt><trkpt lat="40.5883082" lon="9.6475781"><ele>249.0</ele><time>2026-03-29T13:34:18.264Z</time></trkpt><trkpt lat="40.5883207" lon="9.6474796"><ele>252.39999999999998</ele><time>2026-03-29T13:34:19.264Z</time></trkpt><trkpt lat="40.5883063" lon="9.6473303"><ele>255.79999999999998</ele><time>2026-03-29T13:34:21.283Z</time></trkpt><trkpt lat="40.588243" lon="9.6471802"><ele>259.20000000000005</ele><time>2026-03-29T13:34:23.263Z</time></trkpt><trkpt lat="40.5882059" lon="9.6471064"><ele>262.6</ele><time>2026-03-29T13:34:24.26Z</time></trkpt><trkpt lat="40.5881797" lon="9.6469813"><ele>266.0</ele><time>2026-03-29T13:34:26.264Z</time></trkpt><trkpt lat="40.5882093" lon="9.6468399"><ele>267.0</ele><time>2026-03-29T13:34:28.262Z</time></trkpt><trkpt lat="40.5882394" lon="9.6467507"><ele>268.0</ele><time>2026-03-29T13:34:29.286Z</time></trkpt><trkpt lat="40.5882799" lon="9.6466598"><ele>269.0</ele><time>2026-03-29T13:34:30.262Z</time></trkpt><trkpt lat="40.5883282" lon="9.6465669"><ele>270.0</ele><time>2026-03-29T13:34:31.268Z</time></trkpt><trkpt lat="40.5883764" lon="9.6464711"><ele>271.0</ele><time>2026-03-29T13:34:32.261Z</time></trkpt><trkpt lat="40.5884116" lon="9.64637"><ele>272.0</ele><time>2026-03-29T13:34:33.263Z</time></trkpt><trkpt lat="40.5884268" lon="9.6462708"><ele>272.0</ele><time>2026-03-29T13:34:34.263Z</time></trkpt><trkpt lat="40.5884244" lon="9.6461714"><ele>272.0</ele><time>2026-03-29T13:34:35.257Z</time></trkpt><trkpt lat="40.5884184" lon="9.6460774"><ele>272.0</ele><time>2026-03-29T13:34:36.263Z</time></trkpt><trkpt lat="40.5884271" lon="9.6459135"><ele>272.0</ele><time>2026-03-29T13:34:38.289Z</time></trkpt><trkpt lat="40.5884503" lon="9.6458253"><ele>272.0</ele><time>2026-03-29T13:34:39.266Z</time></trkpt><trkpt lat="40.5884819" lon="9.6457327"><ele>272.0</ele><time>2026-03-29T13:34:40.262Z</time></trkpt><trkpt lat="40.5885149" lon="9.6456411"><ele>272.83333333333337</ele><time>2026-03-29T13:34:41.268Z</time></trkpt><trkpt lat="40.5885373" lon="9.6455474"><ele>273.6666666666667</ele><time>2026-03-29T13:34:42.26Z</time></trkpt><trkpt lat="40.5885579" lon="9.6454557"><ele>274.5</ele><time>2026-03-29T13:34:43.29Z</time></trkpt><trkpt lat="40.5885497" lon="9.6453486"><ele>275.3333333333333</ele><time>2026-03-29T13:34:44.264Z</time></trkpt><trkpt lat="40.5885297" lon="9.645239"><ele>276.16666666666663</ele><time>2026-03-29T13:34:45.265Z</time></trkpt><trkpt lat="40.5885068" lon="9.6451354"><ele>277.0</ele><time>2026-03-29T13:34:46.262Z</time></trkpt><trkpt lat="40.5884923" lon="9.6450487"><ele>277.8333333333333</ele><time>2026-03-29T13:34:47.264Z</time></trkpt><trkpt lat="40.5884911" lon="9.6449071"><ele>278.66666666666663</ele><time>2026-03-29T13:34:49.263Z</time></trkpt><trkpt lat="40.588521" lon="9.6448311"><ele>279.5</ele><time>2026-03-29T13:34:50.262Z</time></trkpt><trkpt lat="40.5885513" lon="9.6447477"><ele>280.3333333333333</ele><time>2026-03-29T13:34:51.261Z</time></trkpt><trkpt lat="40.5885676" lon="9.6446598"><ele>281.1666666666667</ele><time>2026-03-29T13:34:52.265Z</time></trkpt><trkpt lat="40.5885647" lon="9.6445659"><ele>282.0</ele><time>2026-03-29T13:34:53.261Z</time></trkpt><trkpt lat="40.5885502" lon="9.644461"><ele>282.7142857142857</ele><time>2026-03-29T13:34:54.277Z</time></trkpt><trkpt lat="40.5885362" lon="9.6443559"><ele>283.42857142857144</ele><time>2026-03-29T13:34:55.263Z</time></trkpt><trkpt lat="40.5885285" lon="9.6442696"><ele>284.1428571428571</ele><time>2026-03-29T13:34:56.261Z</time></trkpt><trkpt lat="40.5885331" lon="9.6441869"><ele>284.8571428571429</ele><time>2026-03-29T13:34:57.268Z</time></trkpt><trkpt lat="40.5885481" lon="9.6441027"><ele>285.57142857142856</ele><time>2026-03-29T13:34:58.263Z</time></trkpt><trkpt lat="40.5885726" lon="9.6440087"><ele>286.2857142857143</ele><time>2026-03-29T13:34:59.289Z</time></trkpt><trkpt lat="40.5886027" lon="9.643913"><ele>287.0</ele><time>2026-03-29T13:35:00.267Z</time></trkpt><trkpt lat="40.5886356" lon="9.6438089"><ele>287.0</ele><time>2026-03-29T13:35:01.262Z</time></trkpt><trkpt lat="40.5886704" lon="9.6437105"><ele>287.0</ele><time>2026-03-29T13:35:02.261Z</time></trkpt><trkpt lat="40.5887092" lon="9.6436144"><ele>287.0</ele><time>2026-03-29T13:35:03.258Z</time></trkpt><trkpt lat="40.5887508" lon="9.6435229"><ele>287.0</ele><time>2026-03-29T13:35:04.296Z</time></trkpt><trkpt lat="40.5887889" lon="9.6434316"><ele>287.0</ele><time>2026-03-29T13:35:05.258Z</time></trkpt><trkpt lat="40.5888256" lon="9.6433369"><ele>287.0</ele><time>2026-03-29T13:35:06.263Z</time></trkpt><trkpt lat="40.588862" lon="9.6432428"><ele>294.33333333333337</ele><time>2026-03-29T13:35:07.26Z</time></trkpt><trkpt lat="40.5889077" lon="9.6431624"><ele>301.6666666666667</ele><time>2026-03-29T13:35:08.257Z</time></trkpt><trkpt lat="40.5889509" lon="9.643089"><ele>309.0</ele><time>2026-03-29T13:35:09.263Z</time></trkpt><trkpt lat="40.589005" lon="9.6430459"><ele>316.3333333333333</ele><time>2026-03-29T13:35:10.261Z</time></trkpt><trkpt lat="40.5890785" lon="9.6429458"><ele>323.66666666666663</ele><time>2026-03-29T13:35:12.264Z</time></trkpt><trkpt lat="40.5890939" lon="9.642813"><ele>331.0</ele><time>2026-03-29T13:35:14.261Z</time></trkpt><trkpt lat="40.5890644" lon="9.6427334"><ele>331.0</ele><time>2026-03-29T13:35:15.262Z</time></trkpt><trkpt lat="40.589058" lon="9.6426253"><ele>331.0</ele><time>2026-03-29T13:35:16.257Z</time></trkpt><trkpt lat="40.58905" lon="9.6425183"><ele>331.0</ele><time>2026-03-29T13:35:17.259Z</time></trkpt><trkpt lat="40.5890524" lon="9.6424069"><ele>331.0</ele><time>2026-03-29T13:35:18.263Z</time></trkpt><trkpt lat="40.5890501" lon="9.6422971"><ele>331.0</ele><time>2026-03-29T13:35:19.261Z</time></trkpt><trkpt lat="40.5890541" lon="9.6422108"><ele>331.0</ele><time>2026-03-29T13:35:20.282Z</time></trkpt><trkpt lat="40.5890975" lon="9.642065"><ele>331.0</ele><time>2026-03-29T13:35:22.264Z</time></trkpt><trkpt lat="40.5891324" lon="9.6419907"><ele>331.0</ele><time>2026-03-29T13:35:23.264Z</time></trkpt><trkpt lat="40.5891716" lon="9.6419093"><ele>331.0</ele><time>2026-03-29T13:35:24.267Z</time></trkpt><trkpt lat="40.5892115" lon="9.6418203"><ele>331.0</ele><time>2026-03-29T13:35:25.265Z</time></trkpt><trkpt lat="40.5892481" lon="9.6417143"><ele>331.0</ele><time>2026-03-29T13:35:26.29Z</time></trkpt><trkpt lat="40.5892872" lon="9.6416213"><ele>331.0</ele><time>2026-03-29T13:35:27.267Z</time></trkpt><trkpt lat="40.5893287" lon="9.6415526"><ele>331.5</ele><time>2026-03-29T13:35:28.265Z</time></trkpt><trkpt lat="40.589377" lon="9.6414918"><ele>332.0</ele><time>2026-03-29T13:35:29.263Z</time></trkpt><trkpt lat="40.5894271" lon="9.6414253"><ele>332.5</ele><time>2026-03-29T13:35:30.263Z</time></trkpt><trkpt lat="40.5894845" lon="9.6413562"><ele>333.0</ele><time>2026-03-29T13:35:31.316Z</time></trkpt><trkpt lat="40.5895418" lon="9.6412715"><ele>333.5</ele><time>2026-03-29T13:35:32.269Z</time></trkpt><trkpt lat="40.5895817" lon="9.6411818"><ele>334.0</ele><time>2026-03-29T13:35:33.265Z</time></trkpt><trkpt lat="40.5896069" lon="9.6410963"><ele>343.0</ele><time>2026-03-29T13:35:34.268Z</time></trkpt><trkpt lat="40.589645" lon="9.6409841"><ele>352.0</ele><time>2026-03-29T13:35:36.259Z</time></trkpt><trkpt lat="40.5897349" lon="9.6408861"><ele>361.0</ele><time>2026-03-29T13:35:38.262Z</time></trkpt><trkpt lat="40.5897847" lon="9.6408275"><ele>370.0</ele><time>2026-03-29T13:35:39.265Z</time></trkpt><trkpt lat="40.5898508" lon="9.6407134"><ele>379.0</ele><time>2026-03-29T13:35:41.27Z</time></trkpt><trkpt lat="40.5898343" lon="9.6405912"><ele>379.0</ele><time>2026-03-29T13:35:43.263Z</time></trkpt><trkpt lat="40.5897966" lon="9.6405185"><ele>379.0</ele><time>2026-03-29T13:35:44.258Z</time></trkpt><trkpt lat="40.5897528" lon="9.6404375"><ele>379.0</ele><time>2026-03-29T13:35:45.263Z</time></trkpt><trkpt lat="40.5896943" lon="9.6403423"><ele>379.0</ele><time>2026-03-29T13:35:46.262Z</time></trkpt><trkpt lat="40.5896375" lon="9.6402638"><ele>379.0</ele><time>2026-03-29T13:35:47.304Z</time></trkpt><trkpt lat="40.5895907" lon="9.6401959"><ele>379.0</ele><time>2026-03-29T13:35:48.262Z</time></trkpt><trkpt lat="40.5895178" lon="9.6401079"><ele>379.0</ele><time>2026-03-29T13:35:50.258Z</time></trkpt><trkpt lat="40.5894594" lon="9.6400274"><ele>379.0</ele><time>2026-03-29T13:35:52.261Z</time></trkpt><trkpt lat="40.5894461" lon="9.6399387"><ele>379.0</ele><time>2026-03-29T13:35:54.271Z</time></trkpt><trkpt lat="40.589519" lon="9.6399136"><ele>379.0</ele><time>2026-03-29T13:35:56.259Z</time></trkpt><trkpt lat="40.5896046" lon="9.6399785"><ele>379.0</ele><time>2026-03-29T13:35:58.266Z</time></trkpt><trkpt lat="40.5896964" lon="9.6401015"><ele>379.0</ele><time>2026-03-29T13:36:00.265Z</time></trkpt><trkpt lat="40.589759" lon="9.640155"><ele>379.0</ele><time>2026-03-29T13:36:01.272Z</time></trkpt><trkpt lat="40.589827" lon="9.6401778"><ele>379.0</ele><time>2026-03-29T13:36:02.265Z</time></trkpt><trkpt lat="40.5899464" lon="9.6402446"><ele>379.0</ele><time>2026-03-29T13:36:04.273Z</time></trkpt><trkpt lat="40.5900285" lon="9.6402976"><ele>379.0</ele><time>2026-03-29T13:36:05.274Z</time></trkpt><trkpt lat="40.5900937" lon="9.6403439"><ele>379.0</ele><time>2026-03-29T13:36:06.267Z</time></trkpt><trkpt lat="40.5901756" lon="9.6404301"><ele>379.0</ele><time>2026-03-29T13:36:08.269Z</time></trkpt><trkpt lat="40.5902011" lon="9.6405786"><ele>379.0</ele><time>2026-03-29T13:36:10.265Z</time></trkpt><trkpt lat="40.5902106" lon="9.6406785"><ele>379.0</ele><time>2026-03-29T13:36:11.261Z</time></trkpt><trkpt lat="40.5902144" lon="9.6407864"><ele>379.0</ele><time>2026-03-29T13:36:12.264Z</time></trkpt><trkpt lat="40.5902082" lon="9.6408877"><ele>379.0</ele><time>2026-03-29T13:36:13.263Z</time></trkpt><trkpt lat="40.590195" lon="9.640997"><ele>379.0</ele><time>2026-03-29T13:36:14.266Z</time></trkpt><trkpt lat="40.590184" lon="9.6411082"><ele>378.66666666666663</ele><time>2026-03-29T13:36:15.265Z</time></trkpt><trkpt lat="40.5901733" lon="9.6412208"><ele>378.3333333333333</ele><time>2026-03-29T13:36:16.271Z</time></trkpt><trkpt lat="40.5901818" lon="9.6413369"><ele>378.0</ele><time>2026-03-29T13:36:17.258Z</time></trkpt><trkpt lat="40.5901919" lon="9.6414518"><ele>377.6666666666667</ele><time>2026-03-29T13:36:18.271Z</time></trkpt><trkpt lat="40.5901826" lon="9.6415632"><ele>377.33333333333337</ele><time>2026-03-29T13:36:19.27Z</time></trkpt><trkpt lat="40.5901625" lon="9.6416795"><ele>377.0</ele><time>2026-03-29T13:36:20.266Z</time></trkpt><trkpt lat="40.5901445" lon="9.6417931"><ele>377.0</ele><time>2026-03-29T13:36:21.278Z</time></trkpt><trkpt lat="40.5901368" lon="9.6419013"><ele>377.0</ele><time>2026-03-29T13:36:22.264Z</time></trkpt><trkpt lat="40.5901313" lon="9.6420117"><ele>377.0</ele><time>2026-03-29T13:36:23.266Z</time></trkpt><trkpt lat="40.5901442" lon="9.6421258"><ele>377.0</ele><time>2026-03-29T13:36:24.269Z</time></trkpt><trkpt lat="40.5901561" lon="9.642238"><ele>377.0</ele><time>2026-03-29T13:36:25.27Z</time></trkpt><trkpt lat="40.5901678" lon="9.6423485"><ele>377.0</ele><time>2026-03-29T13:36:26.263Z</time></trkpt><trkpt lat="40.590182" lon="9.6424608"><ele>376.83333333333337</ele><time>2026-03-29T13:36:27.28Z</time></trkpt><trkpt lat="40.5902048" lon="9.6425701"><ele>376.6666666666667</ele><time>2026-03-29T13:36:28.264Z</time></trkpt><trkpt lat="40.590239" lon="9.6426623"><ele>376.5</ele><time>2026-03-29T13:36:29.268Z</time></trkpt><trkpt lat="40.5902755" lon="9.6427538"><ele>376.3333333333333</ele><time>2026-03-29T13:36:30.263Z</time></trkpt><trkpt lat="40.5903307" lon="9.6428158"><ele>376.16666666666663</ele><time>2026-03-29T13:36:31.269Z</time></trkpt><trkpt lat="40.5904444" lon="9.6428465"><ele>376.0</ele><time>2026-03-29T13:36:33.269Z</time></trkpt><trkpt lat="40.5905156" lon="9.6428331"><ele>375.0</ele><time>2026-03-29T13:36:34.27Z</time></trkpt><trkpt lat="40.590595" lon="9.642807"><ele>374.0</ele><time>2026-03-29T13:36:35.268Z</time></trkpt><trkpt lat="40.5906644" lon="9.6427806"><ele>373.0</ele><time>2026-03-29T13:36:36.262Z</time></trkpt><trkpt lat="40.5907758" lon="9.6427249"><ele>372.0</ele><time>2026-03-29T13:36:38.271Z</time></trkpt><trkpt lat="40.5908294" lon="9.6426773"><ele>371.0</ele><time>2026-03-29T13:36:39.265Z</time></trkpt><trkpt lat="40.5908947" lon="9.6426155"><ele>370.0</ele><time>2026-03-29T13:36:40.284Z</time></trkpt><trkpt lat="40.5909696" lon="9.6425397"><ele>376.0</ele><time>2026-03-29T13:36:41.264Z</time></trkpt><trkpt lat="40.5910504" lon="9.6424605"><ele>382.0</ele><time>2026-03-29T13:36:42.27Z</time></trkpt><trkpt lat="40.5911383" lon="9.6423769"><ele>388.0</ele><time>2026-03-29T13:36:43.273Z</time></trkpt><trkpt lat="40.5912226" lon="9.642304"><ele>394.0</ele><time>2026-03-29T13:36:44.265Z</time></trkpt><trkpt lat="40.5913039" lon="9.6422346"><ele>400.0</ele><time>2026-03-29T13:36:45.282Z</time></trkpt><trkpt lat="40.5913776" lon="9.6421816"><ele>400.0</ele><time>2026-03-29T13:36:46.262Z</time></trkpt><trkpt lat="40.5914404" lon="9.6421083"><ele>400.0</ele><time>2026-03-29T13:36:47.269Z</time></trkpt><trkpt lat="40.591494" lon="9.6420313"><ele>400.0</ele><time>2026-03-29T13:36:48.261Z</time></trkpt><trkpt lat="40.5915776" lon="9.6419571"><ele>400.0</ele><time>2026-03-29T13:36:50.266Z</time></trkpt><trkpt lat="40.5917142" lon="9.6419375"><ele>400.0</ele><time>2026-03-29T13:36:52.279Z</time></trkpt><trkpt lat="40.5918062" lon="9.6419451"><ele>400.0</ele><time>2026-03-29T13:36:53.271Z</time></trkpt><trkpt lat="40.5919059" lon="9.6419753"><ele>400.0</ele><time>2026-03-29T13:36:54.27Z</time></trkpt><trkpt lat="40.5920076" lon="9.6420218"><ele>400.0</ele><time>2026-03-29T13:36:55.267Z</time></trkpt><trkpt lat="40.5921113" lon="9.6420843"><ele>400.0</ele><time>2026-03-29T13:36:56.264Z</time></trkpt><trkpt lat="40.5922067" lon="9.6421527"><ele>400.0</ele><time>2026-03-29T13:36:57.27Z</time></trkpt><trkpt lat="40.5922869" lon="9.6422073"><ele>402.50000000000006</ele><time>2026-03-29T13:36:58.268Z</time></trkpt><trkpt lat="40.59236" lon="9.6422407"><ele>405.0</ele><time>2026-03-29T13:36:59.286Z</time></trkpt><trkpt lat="40.5924339" lon="9.6422548"><ele>407.5</ele><time>2026-03-29T13:37:00.262Z</time></trkpt><trkpt lat="40.5925244" lon="9.6422622"><ele>410.0</ele><time>2026-03-29T13:37:01.266Z</time></trkpt><trkpt lat="40.592626" lon="9.6422589"><ele>412.50000000000006</ele><time>2026-03-29T13:37:02.268Z</time></trkpt><trkpt lat="40.5927198" lon="9.6422493"><ele>415.0</ele><time>2026-03-29T13:37:03.261Z</time></trkpt><trkpt lat="40.5927903" lon="9.6422343"><ele>418.6</ele><time>2026-03-29T13:37:04.265Z</time></trkpt><trkpt lat="40.5928631" lon="9.6421749"><ele>422.2</ele><time>2026-03-29T13:37:06.265Z</time></trkpt><trkpt lat="40.5929225" lon="9.6420738"><ele>425.79999999999995</ele><time>2026-03-29T13:37:08.278Z</time></trkpt><trkpt lat="40.5929446" lon="9.6419328"><ele>429.4</ele><time>2026-03-29T13:37:10.263Z</time></trkpt><trkpt lat="40.5929364" lon="9.6418345"><ele>433.0</ele><time>2026-03-29T13:37:11.262Z</time></trkpt><trkpt lat="40.592942" lon="9.6416897"><ele>437.4</ele><time>2026-03-29T13:37:13.264Z</time></trkpt><trkpt lat="40.5930167" lon="9.6416501"><ele>441.79999999999995</ele><time>2026-03-29T13:37:15.267Z</time></trkpt><trkpt lat="40.5931431" lon="9.6416853"><ele>446.2</ele><time>2026-03-29T13:37:17.274Z</time></trkpt><trkpt lat="40.5932218" lon="9.6417321"><ele>450.6</ele><time>2026-03-29T13:37:18.269Z</time></trkpt><trkpt lat="40.5932938" lon="9.6418197"><ele>455.0</ele><time>2026-03-29T13:37:19.266Z</time></trkpt><trkpt lat="40.593359" lon="9.6419255"><ele>453.8</ele><time>2026-03-29T13:37:20.262Z</time></trkpt><trkpt lat="40.5934273" lon="9.6420268"><ele>452.6</ele><time>2026-03-29T13:37:21.273Z</time></trkpt><trkpt lat="40.5935025" lon="9.6421189"><ele>451.4</ele><time>2026-03-29T13:37:22.265Z</time></trkpt><trkpt lat="40.5935776" lon="9.6422093"><ele>450.2</ele><time>2026-03-29T13:37:23.265Z</time></trkpt><trkpt lat="40.5936473" lon="9.6422826"><ele>449.0</ele><time>2026-03-29T13:37:24.261Z</time></trkpt><trkpt lat="40.5937113" lon="9.6423475"><ele>448.99999999999994</ele><time>2026-03-29T13:37:25.271Z</time></trkpt><trkpt lat="40.5938225" lon="9.6423486"><ele>449.0</ele><time>2026-03-29T13:37:27.257Z</time></trkpt><trkpt lat="40.5938887" lon="9.6423291"><ele>449.0</ele><time>2026-03-29T13:37:28.266Z</time></trkpt><trkpt lat="40.5939569" lon="9.642292"><ele>449.0</ele><time>2026-03-29T13:37:29.271Z</time></trkpt><trkpt lat="40.5940293" lon="9.6422511"><ele>448.99999999999994</ele><time>2026-03-29T13:37:30.265Z</time></trkpt><trkpt lat="40.5941076" lon="9.6421966"><ele>449.0</ele><time>2026-03-29T13:37:31.288Z</time></trkpt><trkpt lat="40.5941795" lon="9.6421552"><ele>449.0</ele><time>2026-03-29T13:37:32.267Z</time></trkpt><trkpt lat="40.5942571" lon="9.6421389"><ele>449.0</ele><time>2026-03-29T13:37:33.266Z</time></trkpt><trkpt lat="40.5943414" lon="9.6421507"><ele>449.0</ele><time>2026-03-29T13:37:34.275Z</time></trkpt><trkpt lat="40.5944351" lon="9.6421661"><ele>449.0</ele><time>2026-03-29T13:37:35.27Z</time></trkpt><trkpt lat="40.5945388" lon="9.6421813"><ele>449.0</ele><time>2026-03-29T13:37:36.267Z</time></trkpt><trkpt lat="40.5946531" lon="9.6421857"><ele>451.79999999999995</ele><time>2026-03-29T13:37:37.281Z</time></trkpt><trkpt lat="40.5947752" lon="9.6422"><ele>454.59999999999997</ele><time>2026-03-29T13:37:38.265Z</time></trkpt><trkpt lat="40.5948853" lon="9.6422078"><ele>457.4</ele><time>2026-03-29T13:37:39.257Z</time></trkpt><trkpt lat="40.594973" lon="9.6422021"><ele>460.2</ele><time>2026-03-29T13:37:40.264Z</time></trkpt><trkpt lat="40.5950358" lon="9.6421792"><ele>463.0</ele><time>2026-03-29T13:37:41.267Z</time></trkpt><trkpt lat="40.5950978" lon="9.6421564"><ele>463.0</ele><time>2026-03-29T13:37:42.27Z</time></trkpt><trkpt lat="40.5951881" lon="9.6420644"><ele>462.99999999999994</ele><time>2026-03-29T13:37:44.28Z</time></trkpt><trkpt lat="40.5952296" lon="9.6419471"><ele>462.99999999999994</ele><time>2026-03-29T13:37:46.273Z</time></trkpt><trkpt lat="40.5952534" lon="9.6418257"><ele>463.0</ele><time>2026-03-29T13:37:48.266Z</time></trkpt><trkpt lat="40.5952781" lon="9.6417434"><ele>463.0</ele><time>2026-03-29T13:37:49.267Z</time></trkpt><trkpt lat="40.5953124" lon="9.641646"><ele>467.1666666666667</ele><time>2026-03-29T13:37:50.289Z</time></trkpt><trkpt lat="40.5953495" lon="9.6415433"><ele>471.33333333333337</ele><time>2026-03-29T13:37:51.268Z</time></trkpt><trkpt lat="40.5953815" lon="9.6414343"><ele>475.5</ele><time>2026-03-29T13:37:52.263Z</time></trkpt><trkpt lat="40.5954015" lon="9.6413259"><ele>479.66666666666663</ele><time>2026-03-29T13:37:53.27Z</time></trkpt><trkpt lat="40.595423" lon="9.6412155"><ele>483.8333333333333</ele><time>2026-03-29T13:37:54.265Z</time></trkpt><trkpt lat="40.5954398" lon="9.6411096"><ele>488.0</ele><time>2026-03-29T13:37:55.27Z</time></trkpt><trkpt lat="40.5954486" lon="9.6409949"><ele>488.16666666666663</ele><time>2026-03-29T13:37:56.267Z</time></trkpt><trkpt lat="40.5954564" lon="9.6408908"><ele>488.3333333333333</ele><time>2026-03-29T13:37:57.269Z</time></trkpt><trkpt lat="40.5954711" lon="9.6408096"><ele>488.5</ele><time>2026-03-29T13:37:58.312Z</time></trkpt><trkpt lat="40.5954784" lon="9.6407071"><ele>488.66666666666663</ele><time>2026-03-29T13:39:32.271Z</time></trkpt><trkpt lat="40.5954228" lon="9.640574"><ele>488.8333333333333</ele><time>2026-03-29T13:39:34.264Z</time></trkpt><trkpt lat="40.5953665" lon="9.6404926"><ele>489.0</ele><time>2026-03-29T13:39:35.268Z</time></trkpt><trkpt lat="40.5952992" lon="9.6404212"><ele>490.1666666666667</ele><time>2026-03-29T13:39:36.265Z</time></trkpt><trkpt lat="40.5952196" lon="9.6403566"><ele>491.33333333333337</ele><time>2026-03-29T13:39:37.266Z</time></trkpt><trkpt lat="40.5951307" lon="9.6402942"><ele>492.5</ele><time>2026-03-29T13:39:38.273Z</time></trkpt><trkpt lat="40.5950494" lon="9.6402422"><ele>493.6666666666667</ele><time>2026-03-29T13:39:39.265Z</time></trkpt><trkpt lat="40.5949741" lon="9.6401983"><ele>494.83333333333337</ele><time>2026-03-29T13:39:40.272Z</time></trkpt><trkpt lat="40.5949031" lon="9.6401565"><ele>496.0</ele><time>2026-03-29T13:39:41.271Z</time></trkpt><trkpt lat="40.5948324" lon="9.6400536"><ele>496.0</ele><time>2026-03-29T13:39:43.265Z</time></trkpt><trkpt lat="40.5948212" lon="9.639897"><ele>496.0</ele><time>2026-03-29T13:39:45.27Z</time></trkpt><trkpt lat="40.5948088" lon="9.6397921"><ele>496.0</ele><time>2026-03-29T13:39:46.268Z</time></trkpt><trkpt lat="40.5947854" lon="9.6396886"><ele>496.0</ele><time>2026-03-29T13:39:47.265Z</time></trkpt><trkpt lat="40.5947504" lon="9.6395808"><ele>496.0</ele><time>2026-03-29T13:39:48.264Z</time></trkpt><trkpt lat="40.5947065" lon="9.6394884"><ele>496.4</ele><time>2026-03-29T13:39:49.269Z</time></trkpt><trkpt lat="40.5946504" lon="9.6393832"><ele>496.8</ele><time>2026-03-29T13:39:50.265Z</time></trkpt><trkpt lat="40.5945894" lon="9.6392746"><ele>497.19999999999993</ele><time>2026-03-29T13:39:51.265Z</time></trkpt><trkpt lat="40.5945198" lon="9.639164"><ele>497.59999999999997</ele><time>2026-03-29T13:39:52.287Z</time></trkpt><trkpt lat="40.5944567" lon="9.639075"><ele>498.0</ele><time>2026-03-29T13:39:53.262Z</time></trkpt><trkpt lat="40.5944017" lon="9.6389974"><ele>500.79999999999995</ele><time>2026-03-29T13:39:54.257Z</time></trkpt><trkpt lat="40.5942949" lon="9.6389945"><ele>503.59999999999997</ele><time>2026-03-29T13:39:56.274Z</time></trkpt><trkpt lat="40.5942201" lon="9.639038"><ele>506.40000000000003</ele><time>2026-03-29T13:39:57.261Z</time></trkpt><trkpt lat="40.594147" lon="9.6390686"><ele>509.20000000000005</ele><time>2026-03-29T13:39:58.258Z</time></trkpt><trkpt lat="40.5940818" lon="9.6390715"><ele>512.0</ele><time>2026-03-29T13:39:59.265Z</time></trkpt><trkpt lat="40.5939665" lon="9.6389803"><ele>511.99999999999994</ele><time>2026-03-29T13:40:01.267Z</time></trkpt><trkpt lat="40.5939059" lon="9.6388933"><ele>512.0</ele><time>2026-03-29T13:40:02.292Z</time></trkpt><trkpt lat="40.5938455" lon="9.6388085"><ele>512.0</ele><time>2026-03-29T13:40:03.269Z</time></trkpt><trkpt lat="40.5937859" lon="9.6387234"><ele>512.0</ele><time>2026-03-29T13:40:04.266Z</time></trkpt><trkpt lat="40.593725" lon="9.6386404"><ele>511.99999999999994</ele><time>2026-03-29T13:40:05.264Z</time></trkpt><trkpt lat="40.5936612" lon="9.6385728"><ele>512.0</ele><time>2026-03-29T13:40:06.266Z</time></trkpt><trkpt lat="40.5935963" lon="9.6385297"><ele>511.66666666666663</ele><time>2026-03-29T13:40:07.268Z</time></trkpt><trkpt lat="40.5935299" lon="9.6385053"><ele>511.3333333333333</ele><time>2026-03-29T13:40:08.261Z</time></trkpt><trkpt lat="40.5934505" lon="9.6384873"><ele>511.0</ele><time>2026-03-29T13:40:09.273Z</time></trkpt><trkpt lat="40.5933671" lon="9.6384692"><ele>510.66666666666663</ele><time>2026-03-29T13:40:10.26Z</time></trkpt><trkpt lat="40.5932801" lon="9.6384419"><ele>510.3333333333333</ele><time>2026-03-29T13:40:11.257Z</time></trkpt><trkpt lat="40.5931997" lon="9.6383827"><ele>510.0</ele><time>2026-03-29T13:40:12.266Z</time></trkpt><trkpt lat="40.5931225" lon="9.6383256"><ele>510.0</ele><time>2026-03-29T13:40:13.266Z</time></trkpt><trkpt lat="40.5930589" lon="9.6382626"><ele>510.0</ele><time>2026-03-29T13:40:14.287Z</time></trkpt><trkpt lat="40.5929983" lon="9.6382051"><ele>510.0</ele><time>2026-03-29T13:40:15.264Z</time></trkpt><trkpt lat="40.5929364" lon="9.6381612"><ele>510.0</ele><time>2026-03-29T13:40:16.263Z</time></trkpt><trkpt lat="40.5928397" lon="9.6381033"><ele>510.0</ele><time>2026-03-29T13:40:18.263Z</time></trkpt><trkpt lat="40.5927652" lon="9.6380163"><ele>510.0</ele><time>2026-03-29T13:40:20.258Z</time></trkpt><trkpt lat="40.5927324" lon="9.6379452"><ele>507.5</ele><time>2026-03-29T13:40:21.274Z</time></trkpt><trkpt lat="40.5926664" lon="9.6378106"><ele>505.0</ele><time>2026-03-29T13:40:23.276Z</time></trkpt><trkpt lat="40.5925702" lon="9.6377206"><ele>502.5</ele><time>2026-03-29T13:40:25.272Z</time></trkpt><trkpt lat="40.5924346" lon="9.6376586"><ele>500.0</ele><time>2026-03-29T13:40:27.26Z</time></trkpt><trkpt lat="40.5923315" lon="9.6376244"><ele>499.5</ele><time>2026-03-29T13:40:28.266Z</time></trkpt><trkpt lat="40.5922293" lon="9.6375824"><ele>499.0</ele><time>2026-03-29T13:40:29.27Z</time></trkpt><trkpt lat="40.5921245" lon="9.637539"><ele>498.5</ele><time>2026-03-29T13:40:30.267Z</time></trkpt><trkpt lat="40.5920148" lon="9.6374896"><ele>498.0</ele><time>2026-03-29T13:40:31.279Z</time></trkpt><trkpt lat="40.5919002" lon="9.6374346"><ele>499.25</ele><time>2026-03-29T13:40:32.261Z</time></trkpt><trkpt lat="40.5917822" lon="9.6373819"><ele>500.5</ele><time>2026-03-29T13:40:33.258Z</time></trkpt><trkpt lat="40.5916685" lon="9.6373232"><ele>501.75</ele><time>2026-03-29T13:40:34.26Z</time></trkpt><trkpt lat="40.5915583" lon="9.6372484"><ele>503.0</ele><time>2026-03-29T13:40:35.273Z</time></trkpt><trkpt lat="40.5914473" lon="9.6371786"><ele>503.0</ele><time>2026-03-29T13:40:36.271Z</time></trkpt><trkpt lat="40.5913418" lon="9.6371081"><ele>502.99999999999994</ele><time>2026-03-29T13:40:37.269Z</time></trkpt><trkpt lat="40.5912365" lon="9.6370436"><ele>502.99999999999994</ele><time>2026-03-29T13:40:38.276Z</time></trkpt><trkpt lat="40.5911361" lon="9.6369935"><ele>503.0</ele><time>2026-03-29T13:40:39.265Z</time></trkpt><trkpt lat="40.591032" lon="9.636958"><ele>503.0</ele><time>2026-03-29T13:40:40.269Z</time></trkpt><trkpt lat="40.5909208" lon="9.6369307"><ele>503.2</ele><time>2026-03-29T13:40:41.27Z</time></trkpt><trkpt lat="40.5908116" lon="9.6368998"><ele>503.4</ele><time>2026-03-29T13:40:42.271Z</time></trkpt><trkpt lat="40.5907074" lon="9.636869"><ele>503.59999999999997</ele><time>2026-03-29T13:40:43.266Z</time></trkpt><trkpt lat="40.5906286" lon="9.6368025"><ele>503.79999999999995</ele><time>2026-03-29T13:40:44.269Z</time></trkpt><trkpt lat="40.5905685" lon="9.6367132"><ele>504.0</ele><time>2026-03-29T13:40:45.272Z</time></trkpt><trkpt lat="40.5905187" lon="9.6366174"><ele>504.0</ele><time>2026-03-29T13:40:46.266Z</time></trkpt><trkpt lat="40.5904579" lon="9.6365369"><ele>504.0</ele><time>2026-03-29T13:40:47.262Z</time></trkpt><trkpt lat="40.5903843" lon="9.6364675"><ele>504.0</ele><time>2026-03-29T13:40:48.265Z</time></trkpt><trkpt lat="40.5903138" lon="9.6364032"><ele>504.0</ele><time>2026-03-29T13:40:49.265Z</time></trkpt><trkpt lat="40.590236" lon="9.6363583"><ele>504.0</ele><time>2026-03-29T13:40:50.308Z</time></trkpt><trkpt lat="40.5901616" lon="9.6363203"><ele>504.0</ele><time>2026-03-29T13:40:51.27Z</time></trkpt><trkpt lat="40.5900857" lon="9.6362848"><ele>504.0</ele><time>2026-03-29T13:40:52.266Z</time></trkpt><trkpt lat="40.5900129" lon="9.6362494"><ele>504.0</ele><time>2026-03-29T13:40:53.276Z</time></trkpt><trkpt lat="40.5899405" lon="9.6362135"><ele>504.0</ele><time>2026-03-29T13:40:54.261Z</time></trkpt><trkpt lat="40.5898621" lon="9.6361728"><ele>504.0</ele><time>2026-03-29T13:40:55.279Z</time></trkpt><trkpt lat="40.5897808" lon="9.6361346"><ele>504.0</ele><time>2026-03-29T13:40:56.269Z</time></trkpt><trkpt lat="40.5896943" lon="9.6360885"><ele>504.0</ele><time>2026-03-29T13:40:57.27Z</time></trkpt><trkpt lat="40.5895992" lon="9.6360226"><ele>504.4</ele><time>2026-03-29T13:40:58.264Z</time></trkpt><trkpt lat="40.5895047" lon="9.6359556"><ele>504.79999999999995</ele><time>2026-03-29T13:40:59.268Z</time></trkpt><trkpt lat="40.5894173" lon="9.6358685"><ele>505.20000000000005</ele><time>2026-03-29T13:41:00.272Z</time></trkpt><trkpt lat="40.5893389" lon="9.6357659"><ele>505.6</ele><time>2026-03-29T13:41:01.265Z</time></trkpt><trkpt lat="40.5892586" lon="9.6356544"><ele>506.0</ele><time>2026-03-29T13:41:02.288Z</time></trkpt><trkpt lat="40.5891814" lon="9.6355371"><ele>506.0</ele><time>2026-03-29T13:41:03.264Z</time></trkpt><trkpt lat="40.5891121" lon="9.6354311"><ele>506.0</ele><time>2026-03-29T13:41:04.269Z</time></trkpt><trkpt lat="40.5890371" lon="9.6353434"><ele>506.0</ele><time>2026-03-29T13:41:05.265Z</time></trkpt><trkpt lat="40.5889609" lon="9.6352547"><ele>506.0</ele><time>2026-03-29T13:41:06.27Z</time></trkpt><trkpt lat="40.5888783" lon="9.6351799"><ele>506.0</ele><time>2026-03-29T13:41:07.265Z</time></trkpt><trkpt lat="40.5887911" lon="9.6350836"><ele>506.20000000000005</ele><time>2026-03-29T13:41:08.268Z</time></trkpt><trkpt lat="40.5887051" lon="9.6349829"><ele>506.40000000000003</ele><time>2026-03-29T13:41:09.283Z</time></trkpt><trkpt lat="40.5886201" lon="9.6348779"><ele>506.6</ele><time>2026-03-29T13:41:10.263Z</time></trkpt><trkpt lat="40.5885477" lon="9.6347948"><ele>506.8</ele><time>2026-03-29T13:41:11.264Z</time></trkpt><trkpt lat="40.5884991" lon="9.6347367"><ele>507.0</ele><time>2026-03-29T13:41:12.264Z</time></trkpt><trkpt lat="40.5884542" lon="9.6346216"><ele>507.0</ele><time>2026-03-29T13:41:14.264Z</time></trkpt><trkpt lat="40.5885386" lon="9.634529"><ele>507.0</ele><time>2026-03-29T13:41:17.291Z</time></trkpt><trkpt lat="40.5886194" lon="9.6345414"><ele>507.0</ele><time>2026-03-29T13:41:18.269Z</time></trkpt><trkpt lat="40.5886941" lon="9.6345367"><ele>507.0</ele><time>2026-03-29T13:41:19.261Z</time></trkpt><trkpt lat="40.5887557" lon="9.6345092"><ele>507.0</ele><time>2026-03-29T13:41:20.261Z</time></trkpt><trkpt lat="40.5888475" lon="9.6344139"><ele>507.0</ele><time>2026-03-29T13:41:22.268Z</time></trkpt><trkpt lat="40.5888686" lon="9.6343313"><ele>510.6</ele><time>2026-03-29T13:41:23.273Z</time></trkpt><trkpt lat="40.5888889" lon="9.6342276"><ele>514.2</ele><time>2026-03-29T13:41:24.271Z</time></trkpt><trkpt lat="40.5889113" lon="9.6341086"><ele>517.8</ele><time>2026-03-29T13:41:25.272Z</time></trkpt><trkpt lat="40.5889387" lon="9.6339856"><ele>521.4</ele><time>2026-03-29T13:41:26.266Z</time></trkpt><trkpt lat="40.5889801" lon="9.6338637"><ele>525.0</ele><time>2026-03-29T13:41:27.267Z</time></trkpt><trkpt lat="40.5890322" lon="9.6337426"><ele>528.6</ele><time>2026-03-29T13:41:28.269Z</time></trkpt><trkpt lat="40.5890866" lon="9.6336216"><ele>532.2</ele><time>2026-03-29T13:41:29.273Z</time></trkpt><trkpt lat="40.5891445" lon="9.6334927"><ele>535.8</ele><time>2026-03-29T13:41:30.27Z</time></trkpt><trkpt lat="40.5892013" lon="9.6333689"><ele>539.4</ele><time>2026-03-29T13:41:31.281Z</time></trkpt><trkpt lat="40.5892525" lon="9.6332468"><ele>543.0</ele><time>2026-03-29T13:41:32.268Z</time></trkpt><trkpt lat="40.5893032" lon="9.6331263"><ele>543.0</ele><time>2026-03-29T13:41:33.274Z</time></trkpt><trkpt lat="40.5893403" lon="9.6329924"><ele>543.0</ele><time>2026-03-29T13:41:34.265Z</time></trkpt><trkpt lat="40.589378" lon="9.6328569"><ele>543.0</ele><time>2026-03-29T13:41:35.262Z</time></trkpt><trkpt lat="40.5894155" lon="9.6327202"><ele>543.0</ele><time>2026-03-29T13:41:36.261Z</time></trkpt><trkpt lat="40.5894559" lon="9.6325989"><ele>543.0</ele><time>2026-03-29T13:41:37.268Z</time></trkpt><trkpt lat="40.5895038" lon="9.6325"><ele>541.8333333333334</ele><time>2026-03-29T13:41:38.264Z</time></trkpt><trkpt lat="40.5895558" lon="9.6324301"><ele>540.6666666666666</ele><time>2026-03-29T13:41:39.262Z</time></trkpt><trkpt lat="40.5896192" lon="9.6323795"><ele>539.5</ele><time>2026-03-29T13:41:40.261Z</time></trkpt><trkpt lat="40.5896939" lon="9.6323238"><ele>538.3333333333333</ele><time>2026-03-29T13:41:41.268Z</time></trkpt><trkpt lat="40.5897638" lon="9.6322578"><ele>537.1666666666666</ele><time>2026-03-29T13:41:42.264Z</time></trkpt><trkpt lat="40.5898347" lon="9.6321904"><ele>536.0</ele><time>2026-03-29T13:41:43.257Z</time></trkpt><trkpt lat="40.5899022" lon="9.6321092"><ele>536.0</ele><time>2026-03-29T13:41:44.269Z</time></trkpt><trkpt lat="40.5899798" lon="9.6320313"><ele>536.0</ele><time>2026-03-29T13:41:45.267Z</time></trkpt><trkpt lat="40.5900592" lon="9.6319692"><ele>536.0</ele><time>2026-03-29T13:41:46.29Z</time></trkpt><trkpt lat="40.5901423" lon="9.6319051"><ele>536.0</ele><time>2026-03-29T13:41:47.269Z</time></trkpt><trkpt lat="40.5902503" lon="9.6318654"><ele>536.0</ele><time>2026-03-29T13:41:48.265Z</time></trkpt><trkpt lat="40.5903624" lon="9.6318239"><ele>540.4</ele><time>2026-03-29T13:41:49.267Z</time></trkpt><trkpt lat="40.5904647" lon="9.631787"><ele>544.8</ele><time>2026-03-29T13:41:50.261Z</time></trkpt><trkpt lat="40.5905566" lon="9.6317531"><ele>549.1999999999999</ele><time>2026-03-29T13:41:51.277Z</time></trkpt><trkpt lat="40.5906288" lon="9.631701"><ele>553.6</ele><time>2026-03-29T13:41:52.268Z</time></trkpt><trkpt lat="40.5907019" lon="9.6316421"><ele>558.0</ele><time>2026-03-29T13:41:53.267Z</time></trkpt><trkpt lat="40.5907795" lon="9.6315799"><ele>558.0</ele><time>2026-03-29T13:41:54.268Z</time></trkpt><trkpt lat="40.5908663" lon="9.6315295"><ele>558.0</ele><time>2026-03-29T13:41:55.261Z</time></trkpt><trkpt lat="40.5909499" lon="9.6314789"><ele>558.0</ele><time>2026-03-29T13:41:56.285Z</time></trkpt><trkpt lat="40.5910295" lon="9.6314189"><ele>558.0</ele><time>2026-03-29T13:41:57.269Z</time></trkpt><trkpt lat="40.5910975" lon="9.6313326"><ele>558.0</ele><time>2026-03-29T13:41:58.269Z</time></trkpt><trkpt lat="40.5911494" lon="9.6312438"><ele>559.7142857142857</ele><time>2026-03-29T13:41:59.267Z</time></trkpt><trkpt lat="40.5911839" lon="9.6311537"><ele>561.4285714285714</ele><time>2026-03-29T13:42:00.272Z</time></trkpt><trkpt lat="40.5912001" lon="9.6310615"><ele>563.1428571428571</ele><time>2026-03-29T13:42:01.27Z</time></trkpt><trkpt lat="40.5912004" lon="9.6309728"><ele>564.8571428571429</ele><time>2026-03-29T13:42:02.273Z</time></trkpt><trkpt lat="40.5911843" lon="9.6308867"><ele>566.5714285714286</ele><time>2026-03-29T13:42:03.266Z</time></trkpt><trkpt lat="40.5911611" lon="9.6308077"><ele>568.2857142857142</ele><time>2026-03-29T13:42:04.279Z</time></trkpt><trkpt lat="40.5910906" lon="9.630711"><ele>570.0</ele><time>2026-03-29T13:42:06.27Z</time></trkpt><trkpt lat="40.5909553" lon="9.6306641"><ele>570.0</ele><time>2026-03-29T13:42:08.27Z</time></trkpt><trkpt lat="40.5908658" lon="9.6306623"><ele>570.0</ele><time>2026-03-29T13:42:09.267Z</time></trkpt><trkpt lat="40.5907608" lon="9.6306451"><ele>570.0</ele><time>2026-03-29T13:42:10.272Z</time></trkpt><trkpt lat="40.5906634" lon="9.6306112"><ele>570.0</ele><time>2026-03-29T13:42:11.262Z</time></trkpt><trkpt lat="40.5905716" lon="9.6305564"><ele>570.0</ele><time>2026-03-29T13:42:12.269Z</time></trkpt><trkpt lat="40.5904856" lon="9.6304944"><ele>570.0</ele><time>2026-03-29T13:42:13.265Z</time></trkpt><trkpt lat="40.5904114" lon="9.6304498"><ele>570.0</ele><time>2026-03-29T13:42:14.264Z</time></trkpt><trkpt lat="40.590344" lon="9.6304325"><ele>570.0</ele><time>2026-03-29T13:42:15.266Z</time></trkpt><trkpt lat="40.5902698" lon="9.6304337"><ele>570.0</ele><time>2026-03-29T13:42:16.262Z</time></trkpt><trkpt lat="40.5901863" lon="9.6304487"><ele>570.0</ele><time>2026-03-29T13:42:17.266Z</time></trkpt><trkpt lat="40.5900938" lon="9.6304688"><ele>570.0</ele><time>2026-03-29T13:42:18.258Z</time></trkpt><trkpt lat="40.5899971" lon="9.6304917"><ele>572.2</ele><time>2026-03-29T13:42:19.286Z</time></trkpt><trkpt lat="40.5899008" lon="9.6305016"><ele>574.4</ele><time>2026-03-29T13:42:20.265Z</time></trkpt><trkpt lat="40.5898055" lon="9.6304907"><ele>576.6</ele><time>2026-03-29T13:42:21.262Z</time></trkpt><trkpt lat="40.589707" lon="9.6304559"><ele>578.8</ele><time>2026-03-29T13:42:22.261Z</time></trkpt><trkpt lat="40.5896102" lon="9.6304175"><ele>581.0</ele><time>2026-03-29T13:42:23.263Z</time></trkpt><trkpt lat="40.5895175" lon="9.6303866"><ele>581.2</ele><time>2026-03-29T13:42:24.258Z</time></trkpt><trkpt lat="40.5894239" lon="9.6303552"><ele>581.4000000000001</ele><time>2026-03-29T13:42:25.282Z</time></trkpt><trkpt lat="40.589325" lon="9.6303349"><ele>581.6</ele><time>2026-03-29T13:42:26.264Z</time></trkpt><trkpt lat="40.5892246" lon="9.6303014"><ele>581.8000000000001</ele><time>2026-03-29T13:42:27.257Z</time></trkpt><trkpt lat="40.5891271" lon="9.6302678"><ele>582.0</ele><time>2026-03-29T13:42:28.27Z</time></trkpt><trkpt lat="40.5890452" lon="9.630213"><ele>582.0</ele><time>2026-03-29T13:42:29.254Z</time></trkpt><trkpt lat="40.5889593" lon="9.6301805"><ele>582.0</ele><time>2026-03-29T13:42:30.285Z</time></trkpt><trkpt lat="40.5888849" lon="9.6301728"><ele>582.0</ele><time>2026-03-29T13:42:31.267Z</time></trkpt><trkpt lat="40.5888099" lon="9.6301923"><ele>582.0</ele><time>2026-03-29T13:42:32.266Z</time></trkpt><trkpt lat="40.5887176" lon="9.6302278"><ele>582.0</ele><time>2026-03-29T13:42:33.269Z</time></trkpt><trkpt lat="40.5886129" lon="9.6302793"><ele>582.0</ele><time>2026-03-29T13:42:34.266Z</time></trkpt><trkpt lat="40.5885157" lon="9.6303366"><ele>584.5</ele><time>2026-03-29T13:42:35.27Z</time></trkpt><trkpt lat="40.5884304" lon="9.6303933"><ele>587.0</ele><time>2026-03-29T13:42:36.271Z</time></trkpt><trkpt lat="40.58837" lon="9.6304503"><ele>589.5</ele><time>2026-03-29T13:42:37.278Z</time></trkpt><trkpt lat="40.5882799" lon="9.6305151"><ele>592.0</ele><time>2026-03-29T13:42:39.264Z</time></trkpt><trkpt lat="40.5882152" lon="9.630508"><ele>594.5</ele><time>2026-03-29T13:42:49.27Z</time></trkpt><trkpt lat="40.5881422" lon="9.6304085"><ele>597.0</ele><time>2026-03-29T13:42:52.272Z</time></trkpt><trkpt lat="40.5880983" lon="9.6303343"><ele>595.6</ele><time>2026-03-29T13:42:53.261Z</time></trkpt><trkpt lat="40.5880395" lon="9.6302306"><ele>594.2</ele><time>2026-03-29T13:42:54.276Z</time></trkpt><trkpt lat="40.5879751" lon="9.6301183"><ele>592.8</ele><time>2026-03-29T13:42:55.262Z</time></trkpt><trkpt lat="40.5879352" lon="9.6299875"><ele>591.4</ele><time>2026-03-29T13:42:56.261Z</time></trkpt><trkpt lat="40.5878925" lon="9.6298445"><ele>590.0</ele><time>2026-03-29T13:42:57.268Z</time></trkpt><trkpt lat="40.5878537" lon="9.6297206"><ele>592.6666666666666</ele><time>2026-03-29T13:42:58.27Z</time></trkpt><trkpt lat="40.5878227" lon="9.6296096"><ele>595.3333333333333</ele><time>2026-03-29T13:42:59.258Z</time></trkpt><trkpt lat="40.5877956" lon="9.6295081"><ele>598.0</ele><time>2026-03-29T13:43:00.297Z</time></trkpt><trkpt lat="40.5877705" lon="9.6294183"><ele>600.6666666666666</ele><time>2026-03-29T13:43:01.262Z</time></trkpt><trkpt lat="40.5877296" lon="9.6293453"><ele>603.3333333333334</ele><time>2026-03-29T13:43:02.263Z</time></trkpt><trkpt lat="40.5876621" lon="9.6292165"><ele>606.0</ele><time>2026-03-29T13:43:04.261Z</time></trkpt><trkpt lat="40.5876416" lon="9.6291375"><ele>606.0</ele><time>2026-03-29T13:43:05.261Z</time></trkpt><trkpt lat="40.587636" lon="9.629042"><ele>606.0</ele><time>2026-03-29T13:43:06.284Z</time></trkpt><trkpt lat="40.5876308" lon="9.6289182"><ele>606.0</ele><time>2026-03-29T13:43:07.267Z</time></trkpt><trkpt lat="40.587624" lon="9.6288053"><ele>606.0</ele><time>2026-03-29T13:43:08.262Z</time></trkpt><trkpt lat="40.5876155" lon="9.6286937"><ele>606.0</ele><time>2026-03-29T13:43:09.266Z</time></trkpt><trkpt lat="40.5876188" lon="9.6285888"><ele>606.0</ele><time>2026-03-29T13:43:10.26Z</time></trkpt><trkpt lat="40.5876111" lon="9.6284894"><ele>603.0</ele><time>2026-03-29T13:43:11.264Z</time></trkpt><trkpt lat="40.5875916" lon="9.6284073"><ele>600.0</ele><time>2026-03-29T13:43:12.261Z</time></trkpt><trkpt lat="40.5875248" lon="9.6283045"><ele>597.0</ele><time>2026-03-29T13:43:14.261Z</time></trkpt><trkpt lat="40.5874554" lon="9.6282047"><ele>594.0</ele><time>2026-03-29T13:43:16.262Z</time></trkpt><trkpt lat="40.5874227" lon="9.628053"><ele>591.0</ele><time>2026-03-29T13:43:18.267Z</time></trkpt><trkpt lat="40.5874292" lon="9.6279609"><ele>591.0</ele><time>2026-03-29T13:43:19.263Z</time></trkpt><trkpt lat="40.5874764" lon="9.6278668"><ele>591.0</ele><time>2026-03-29T13:43:20.294Z</time></trkpt><trkpt lat="40.5875256" lon="9.627792"><ele>591.0</ele><time>2026-03-29T13:43:21.253Z</time></trkpt><trkpt lat="40.5875679" lon="9.6277112"><ele>591.0</ele><time>2026-03-29T13:43:22.266Z</time></trkpt><trkpt lat="40.587612" lon="9.627627"><ele>591.0</ele><time>2026-03-29T13:43:23.265Z</time></trkpt><trkpt lat="40.5876501" lon="9.6275527"><ele>591.0</ele><time>2026-03-29T13:43:24.268Z</time></trkpt><trkpt lat="40.5876929" lon="9.6274341"><ele>589.2</ele><time>2026-03-29T13:43:26.262Z</time></trkpt><trkpt lat="40.5877336" lon="9.627317"><ele>587.4000000000001</ele><time>2026-03-29T13:43:28.276Z</time></trkpt><trkpt lat="40.5877478" lon="9.6271753"><ele>585.6</ele><time>2026-03-29T13:43:30.292Z</time></trkpt><trkpt lat="40.5877376" lon="9.6270471"><ele>583.8000000000001</ele><time>2026-03-29T13:43:32.263Z</time></trkpt><trkpt lat="40.5876957" lon="9.6268763"><ele>582.0</ele><time>2026-03-29T13:43:34.267Z</time></trkpt><trkpt lat="40.5876499" lon="9.6267801"><ele>581.0</ele><time>2026-03-29T13:43:35.295Z</time></trkpt><trkpt lat="40.5876102" lon="9.6266937"><ele>580.0</ele><time>2026-03-29T13:43:36.262Z</time></trkpt><trkpt lat="40.5875542" lon="9.6265862"><ele>579.0</ele><time>2026-03-29T13:43:38.262Z</time></trkpt><trkpt lat="40.587592" lon="9.6264692"><ele>578.0</ele><time>2026-03-29T13:43:41.269Z</time></trkpt><trkpt lat="40.587648" lon="9.6263816"><ele>577.0</ele><time>2026-03-29T13:43:42.266Z</time></trkpt><trkpt lat="40.5876867" lon="9.6262672"><ele>577.0</ele><time>2026-03-29T13:43:43.261Z</time></trkpt><trkpt lat="40.5877211" lon="9.6261633"><ele>577.0</ele><time>2026-03-29T13:43:44.26Z</time></trkpt><trkpt lat="40.5877473" lon="9.6260619"><ele>577.0</ele><time>2026-03-29T13:43:45.261Z</time></trkpt><trkpt lat="40.5877693" lon="9.6259633"><ele>577.0</ele><time>2026-03-29T13:43:46.263Z</time></trkpt><trkpt lat="40.5877715" lon="9.625869"><ele>577.0</ele><time>2026-03-29T13:43:47.261Z</time></trkpt><trkpt lat="40.5877593" lon="9.6257736"><ele>577.0</ele><time>2026-03-29T13:43:48.261Z</time></trkpt><trkpt lat="40.5877456" lon="9.6256798"><ele>577.0</ele><time>2026-03-29T13:43:49.278Z</time></trkpt><trkpt lat="40.587733" lon="9.6255857"><ele>577.0</ele><time>2026-03-29T13:43:50.261Z</time></trkpt><trkpt lat="40.5877242" lon="9.6254466"><ele>577.0</ele><time>2026-03-29T13:43:52.265Z</time></trkpt><trkpt lat="40.5877622" lon="9.6253397"><ele>577.0</ele><time>2026-03-29T13:43:54.26Z</time></trkpt><trkpt lat="40.5878001" lon="9.625259"><ele>577.0</ele><time>2026-03-29T13:43:55.27Z</time></trkpt><trkpt lat="40.5878355" lon="9.625179"><ele>577.0</ele><time>2026-03-29T13:43:56.269Z</time></trkpt><trkpt lat="40.587948" lon="9.625089"><ele>570.5</ele><time>2026-03-29T13:43:58.268Z</time></trkpt><trkpt lat="40.5880314" lon="9.625061"><ele>564.0</ele><time>2026-03-29T13:43:59.262Z</time></trkpt><trkpt lat="40.5881063" lon="9.6250307"><ele>557.5</ele><time>2026-03-29T13:44:00.266Z</time></trkpt><trkpt lat="40.5881679" lon="9.6249983"><ele>551.0</ele><time>2026-03-29T13:44:01.262Z</time></trkpt><trkpt lat="40.5882513" lon="9.624864"><ele>544.5</ele><time>2026-03-29T13:44:03.28Z</time></trkpt><trkpt lat="40.5882803" lon="9.6247606"><ele>538.0</ele><time>2026-03-29T13:44:04.264Z</time></trkpt><trkpt lat="40.5883171" lon="9.6246562"><ele>538.0</ele><time>2026-03-29T13:44:05.27Z</time></trkpt><trkpt lat="40.5883507" lon="9.6245433"><ele>538.0</ele><time>2026-03-29T13:44:06.264Z</time></trkpt><trkpt lat="40.5883799" lon="9.6244279"><ele>538.0</ele><time>2026-03-29T13:44:07.265Z</time></trkpt><trkpt lat="40.5883976" lon="9.6243099"><ele>538.0</ele><time>2026-03-29T13:44:08.265Z</time></trkpt><trkpt lat="40.5884128" lon="9.6241968"><ele>538.0</ele><time>2026-03-29T13:44:09.264Z</time></trkpt><trkpt lat="40.5884442" lon="9.6240931"><ele>538.0</ele><time>2026-03-29T13:44:10.266Z</time></trkpt><trkpt lat="40.5884906" lon="9.6239962"><ele>540.5</ele><time>2026-03-29T13:44:11.262Z</time></trkpt><trkpt lat="40.5885316" lon="9.6239004"><ele>543.0</ele><time>2026-03-29T13:44:12.263Z</time></trkpt><trkpt lat="40.5885616" lon="9.6237966"><ele>545.5</ele><time>2026-03-29T13:44:13.265Z</time></trkpt><trkpt lat="40.588584" lon="9.6236791"><ele>548.0</ele><time>2026-03-29T13:44:14.257Z</time></trkpt><trkpt lat="40.5886074" lon="9.6235674"><ele>550.5</ele><time>2026-03-29T13:44:15.269Z</time></trkpt><trkpt lat="40.5886457" lon="9.6234689"><ele>553.0</ele><time>2026-03-29T13:44:16.262Z</time></trkpt><trkpt lat="40.5886806" lon="9.6233728"><ele>551.8571428571429</ele><time>2026-03-29T13:44:17.269Z</time></trkpt><trkpt lat="40.5887098" lon="9.6232763"><ele>550.7142857142858</ele><time>2026-03-29T13:44:18.267Z</time></trkpt><trkpt lat="40.5887429" lon="9.6231807"><ele>549.5714285714286</ele><time>2026-03-29T13:44:19.267Z</time></trkpt><trkpt lat="40.5887586" lon="9.6230786"><ele>548.4285714285714</ele><time>2026-03-29T13:44:20.28Z</time></trkpt><trkpt lat="40.5887821" lon="9.6229995"><ele>547.2857142857143</ele><time>2026-03-29T13:44:21.266Z</time></trkpt><trkpt lat="40.5888073" lon="9.622918"><ele>546.1428571428571</ele><time>2026-03-29T13:44:22.263Z</time></trkpt><trkpt lat="40.5888607" lon="9.6228436"><ele>545.0</ele><time>2026-03-29T13:44:23.269Z</time></trkpt><trkpt lat="40.5889364" lon="9.6227824"><ele>545.0</ele><time>2026-03-29T13:44:24.265Z</time></trkpt><trkpt lat="40.5890079" lon="9.6227156"><ele>545.0</ele><time>2026-03-29T13:44:25.269Z</time></trkpt><trkpt lat="40.5890708" lon="9.6226584"><ele>545.0</ele><time>2026-03-29T13:44:26.266Z</time></trkpt><trkpt lat="40.5891247" lon="9.622602"><ele>545.0</ele><time>2026-03-29T13:44:27.267Z</time></trkpt><trkpt lat="40.5891823" lon="9.6225456"><ele>545.0</ele><time>2026-03-29T13:44:28.264Z</time></trkpt><trkpt lat="40.5892495" lon="9.6225037"><ele>545.0</ele><time>2026-03-29T13:44:29.269Z</time></trkpt><trkpt lat="40.5893336" lon="9.6224739"><ele>545.0</ele><time>2026-03-29T13:44:30.262Z</time></trkpt><trkpt lat="40.5894322" lon="9.62245"><ele>545.0</ele><time>2026-03-29T13:44:31.272Z</time></trkpt><trkpt lat="40.5895299" lon="9.6224249"><ele>545.0</ele><time>2026-03-29T13:44:32.267Z</time></trkpt><trkpt lat="40.5896357" lon="9.6224294"><ele>545.0</ele><time>2026-03-29T13:44:33.267Z</time></trkpt><trkpt lat="40.5897359" lon="9.6224341"><ele>545.0</ele><time>2026-03-29T13:44:34.279Z</time></trkpt><trkpt lat="40.5898376" lon="9.6224361"><ele>540.6</ele><time>2026-03-29T13:44:35.266Z</time></trkpt><trkpt lat="40.5899259" lon="9.6223866"><ele>536.2</ele><time>2026-03-29T13:44:36.274Z</time></trkpt><trkpt lat="40.5900133" lon="9.6223227"><ele>531.8</ele><time>2026-03-29T13:44:37.26Z</time></trkpt><trkpt lat="40.5901018" lon="9.6222573"><ele>527.4</ele><time>2026-03-29T13:44:38.259Z</time></trkpt><trkpt lat="40.5901874" lon="9.6221926"><ele>523.0</ele><time>2026-03-29T13:44:39.257Z</time></trkpt><trkpt lat="40.5902705" lon="9.6221287"><ele>520.3333333333334</ele><time>2026-03-29T13:44:40.268Z</time></trkpt><trkpt lat="40.5903424" lon="9.6220649"><ele>517.6666666666667</ele><time>2026-03-29T13:44:41.269Z</time></trkpt><trkpt lat="40.5904155" lon="9.6220123"><ele>515.0</ele><time>2026-03-29T13:44:42.269Z</time></trkpt><trkpt lat="40.5904848" lon="9.62198"><ele>512.3333333333334</ele><time>2026-03-29T13:44:43.268Z</time></trkpt><trkpt lat="40.5905463" lon="9.6219462"><ele>509.6666666666667</ele><time>2026-03-29T13:44:44.262Z</time></trkpt><trkpt lat="40.5906194" lon="9.6218656"><ele>507.0</ele><time>2026-03-29T13:44:46.264Z</time></trkpt><trkpt lat="40.5906435" lon="9.621962"><ele>505.6666666666667</ele><time>2026-03-29T13:44:50.282Z</time></trkpt><trkpt lat="40.5905335" lon="9.6220421"><ele>504.33333333333337</ele><time>2026-03-29T13:44:52.266Z</time></trkpt><trkpt lat="40.590465" lon="9.6221041"><ele>503.0</ele><time>2026-03-29T13:44:53.269Z</time></trkpt><trkpt lat="40.5904015" lon="9.6221752"><ele>501.6666666666667</ele><time>2026-03-29T13:44:54.261Z</time></trkpt><trkpt lat="40.5903438" lon="9.6222492"><ele>500.33333333333337</ele><time>2026-03-29T13:44:55.269Z</time></trkpt><trkpt lat="40.5902893" lon="9.6223178"><ele>499.0</ele><time>2026-03-29T13:44:56.268Z</time></trkpt><trkpt lat="40.5902335" lon="9.6223882"><ele>503.00000000000006</ele><time>2026-03-29T13:44:57.268Z</time></trkpt><trkpt lat="40.5901812" lon="9.6224642"><ele>507.0</ele><time>2026-03-29T13:44:58.26Z</time></trkpt><trkpt lat="40.5901313" lon="9.6225499"><ele>511.0</ele><time>2026-03-29T13:44:59.265Z</time></trkpt><trkpt lat="40.5900783" lon="9.6226357"><ele>515.0</ele><time>2026-03-29T13:45:00.263Z</time></trkpt><trkpt lat="40.5900232" lon="9.6227077"><ele>519.0</ele><time>2026-03-29T13:45:01.28Z</time></trkpt><trkpt lat="40.5899602" lon="9.6227432"><ele>523.0</ele><time>2026-03-29T13:45:02.259Z</time></trkpt><trkpt lat="40.5898919" lon="9.6227579"><ele>523.0</ele><time>2026-03-29T13:45:03.266Z</time></trkpt><trkpt lat="40.589792" lon="9.622761"><ele>523.0</ele><time>2026-03-29T13:45:04.257Z</time></trkpt><trkpt lat="40.589689" lon="9.622755"><ele>523.0</ele><time>2026-03-29T13:45:05.266Z</time></trkpt><trkpt lat="40.5896069" lon="9.6227763"><ele>523.0</ele><time>2026-03-29T13:45:06.26Z</time></trkpt><trkpt lat="40.5895345" lon="9.622807"><ele>523.0</ele><time>2026-03-29T13:45:07.267Z</time></trkpt><trkpt lat="40.5894713" lon="9.622845"><ele>523.0</ele><time>2026-03-29T13:45:08.261Z</time></trkpt><trkpt lat="40.5894112" lon="9.6228858"><ele>521.8333333333334</ele><time>2026-03-29T13:45:09.264Z</time></trkpt><trkpt lat="40.58936" lon="9.6229612"><ele>520.6666666666667</ele><time>2026-03-29T13:45:10.264Z</time></trkpt><trkpt lat="40.589318" lon="9.6230506"><ele>519.5</ele><time>2026-03-29T13:45:11.258Z</time></trkpt><trkpt lat="40.5892799" lon="9.6231305"><ele>518.3333333333334</ele><time>2026-03-29T13:45:12.29Z</time></trkpt><trkpt lat="40.5892427" lon="9.6232151"><ele>517.1666666666666</ele><time>2026-03-29T13:45:13.263Z</time></trkpt><trkpt lat="40.5892188" lon="9.6233045"><ele>516.0</ele><time>2026-03-29T13:45:14.265Z</time></trkpt><trkpt lat="40.5892074" lon="9.6234174"><ele>516.0</ele><time>2026-03-29T13:45:15.261Z</time></trkpt><trkpt lat="40.5891901" lon="9.6235376"><ele>516.0</ele><time>2026-03-29T13:45:16.261Z</time></trkpt><trkpt lat="40.5891715" lon="9.6236601"><ele>516.0</ele><time>2026-03-29T13:45:17.262Z</time></trkpt><trkpt lat="40.589154" lon="9.6237808"><ele>516.0</ele><time>2026-03-29T13:45:18.282Z</time></trkpt><trkpt lat="40.5891378" lon="9.6239113"><ele>516.0</ele><time>2026-03-29T13:45:19.268Z</time></trkpt><trkpt lat="40.5891231" lon="9.6240366"><ele>512.8</ele><time>2026-03-29T13:45:20.265Z</time></trkpt><trkpt lat="40.589099" lon="9.6241593"><ele>509.6</ele><time>2026-03-29T13:45:21.265Z</time></trkpt><trkpt lat="40.5890731" lon="9.6242989"><ele>506.4</ele><time>2026-03-29T13:45:22.265Z</time></trkpt><trkpt lat="40.5890444" lon="9.6244455"><ele>503.2</ele><time>2026-03-29T13:45:23.262Z</time></trkpt><trkpt lat="40.5890216" lon="9.6245885"><ele>500.0</ele><time>2026-03-29T13:45:24.266Z</time></trkpt><trkpt lat="40.5890197" lon="9.6247121"><ele>497.5</ele><time>2026-03-29T13:45:25.259Z</time></trkpt><trkpt lat="40.5890376" lon="9.6248537"><ele>495.0</ele><time>2026-03-29T13:45:26.277Z</time></trkpt><trkpt lat="40.5890709" lon="9.6250297"><ele>492.5</ele><time>2026-03-29T13:45:27.263Z</time></trkpt><trkpt lat="40.5891008" lon="9.6251958"><ele>490.0</ele><time>2026-03-29T13:45:28.265Z</time></trkpt><trkpt lat="40.5891294" lon="9.6253719"><ele>488.6</ele><time>2026-03-29T13:45:29.259Z</time></trkpt><trkpt lat="40.5891536" lon="9.6255419"><ele>487.2</ele><time>2026-03-29T13:45:30.263Z</time></trkpt><trkpt lat="40.5891696" lon="9.625686"><ele>485.79999999999995</ele><time>2026-03-29T13:45:31.265Z</time></trkpt><trkpt lat="40.5891619" lon="9.625795"><ele>484.4</ele><time>2026-03-29T13:45:32.262Z</time></trkpt><trkpt lat="40.5891584" lon="9.6259251"><ele>483.0</ele><time>2026-03-29T13:45:34.265Z</time></trkpt><trkpt lat="40.5892184" lon="9.6258753"><ele>483.0</ele><time>2026-03-29T13:45:37.265Z</time></trkpt><trkpt lat="40.5892367" lon="9.6257705"><ele>483.0</ele><time>2026-03-29T13:45:38.263Z</time></trkpt><trkpt lat="40.5892506" lon="9.6256078"><ele>483.0</ele><time>2026-03-29T13:45:39.276Z</time></trkpt><trkpt lat="40.5892746" lon="9.6254123"><ele>483.0</ele><time>2026-03-29T13:45:40.264Z</time></trkpt><trkpt lat="40.5893233" lon="9.6252303"><ele>484.4</ele><time>2026-03-29T13:45:41.259Z</time></trkpt><trkpt lat="40.5893489" lon="9.6250742"><ele>485.79999999999995</ele><time>2026-03-29T13:45:42.261Z</time></trkpt><trkpt lat="40.5893554" lon="9.6249437"><ele>487.2</ele><time>2026-03-29T13:45:43.258Z</time></trkpt><trkpt lat="40.5893286" lon="9.6248093"><ele>488.6</ele><time>2026-03-29T13:45:44.277Z</time></trkpt><trkpt lat="40.5892932" lon="9.6246793"><ele>490.0</ele><time>2026-03-29T13:45:45.261Z</time></trkpt><trkpt lat="40.5892709" lon="9.6245734"><ele>490.0</ele><time>2026-03-29T13:45:46.261Z</time></trkpt><trkpt lat="40.5892911" lon="9.6244829"><ele>490.0</ele><time>2026-03-29T13:45:47.261Z</time></trkpt><trkpt lat="40.5893193" lon="9.6244001"><ele>490.0</ele><time>2026-03-29T13:45:48.261Z</time></trkpt><trkpt lat="40.58938" lon="9.6243754"><ele>490.0</ele><time>2026-03-29T13:45:50.261Z</time></trkpt><trkpt lat="40.5893757" lon="9.6244692"><ele>490.0</ele><time>2026-03-29T13:45:52.261Z</time></trkpt><trkpt lat="40.589318" lon="9.6245231"><ele>490.0</ele><time>2026-03-29T13:45:53.261Z</time></trkpt><trkpt lat="40.5892828" lon="9.6246055"><ele>490.0</ele><time>2026-03-29T13:45:54.26Z</time></trkpt><trkpt lat="40.5893023" lon="9.6246966"><ele>490.0</ele><time>2026-03-29T13:45:55.262Z</time></trkpt><trkpt lat="40.589361" lon="9.624816"><ele>490.0</ele><time>2026-03-29T13:45:56.291Z</time></trkpt><trkpt lat="40.5894205" lon="9.6249321"><ele>490.0</ele><time>2026-03-29T13:45:57.267Z</time></trkpt><trkpt lat="40.58947" lon="9.6250398"><ele>490.0</ele><time>2026-03-29T13:45:58.259Z</time></trkpt><trkpt lat="40.5895125" lon="9.6251615"><ele>490.0</ele><time>2026-03-29T13:45:59.262Z</time></trkpt><trkpt lat="40.5895347" lon="9.6253189"><ele>479.0</ele><time>2026-03-29T13:46:00.254Z</time></trkpt><trkpt lat="40.5895619" lon="9.6254843"><ele>468.0</ele><time>2026-03-29T13:46:01.259Z</time></trkpt><trkpt lat="40.589609" lon="9.6256388"><ele>457.0</ele><time>2026-03-29T13:46:02.26Z</time></trkpt><trkpt lat="40.5896498" lon="9.6257781"><ele>446.0</ele><time>2026-03-29T13:46:03.278Z</time></trkpt><trkpt lat="40.5896963" lon="9.6259001"><ele>445.99999999999994</ele><time>2026-03-29T13:46:04.258Z</time></trkpt><trkpt lat="40.5897215" lon="9.6260143"><ele>446.0</ele><time>2026-03-29T13:46:05.264Z</time></trkpt><trkpt lat="40.5897259" lon="9.6261137"><ele>446.0</ele><time>2026-03-29T13:46:06.256Z</time></trkpt><trkpt lat="40.5897469" lon="9.6262385"><ele>446.0</ele><time>2026-03-29T13:46:08.261Z</time></trkpt><trkpt lat="40.589817" lon="9.6262611"><ele>445.99999999999994</ele><time>2026-03-29T13:46:09.265Z</time></trkpt><trkpt lat="40.589896" lon="9.6262837"><ele>446.0</ele><time>2026-03-29T13:46:10.27Z</time></trkpt><trkpt lat="40.5899756" lon="9.6262793"><ele>445.99999999999994</ele><time>2026-03-29T13:46:11.26Z</time></trkpt><trkpt lat="40.5900427" lon="9.6262577"><ele>446.0</ele><time>2026-03-29T13:46:12.268Z</time></trkpt><trkpt lat="40.5900986" lon="9.6262081"><ele>446.0</ele><time>2026-03-29T13:46:13.265Z</time></trkpt><trkpt lat="40.5901607" lon="9.6261541"><ele>446.0</ele><time>2026-03-29T13:46:14.261Z</time></trkpt><trkpt lat="40.5902029" lon="9.6260624"><ele>445.99999999999994</ele><time>2026-03-29T13:46:15.264Z</time></trkpt><trkpt lat="40.5902387" lon="9.6259631"><ele>446.0</ele><time>2026-03-29T13:46:16.261Z</time></trkpt><trkpt lat="40.5902509" lon="9.6258621"><ele>446.0</ele><time>2026-03-29T13:46:17.259Z</time></trkpt><trkpt lat="40.5902598" lon="9.625762"><ele>446.0</ele><time>2026-03-29T13:46:18.257Z</time></trkpt><trkpt lat="40.5902302" lon="9.6256473"><ele>446.0</ele><time>2026-03-29T13:46:19.263Z</time></trkpt><trkpt lat="40.5901843" lon="9.625516"><ele>446.0</ele><time>2026-03-29T13:46:20.262Z</time></trkpt><trkpt lat="40.5901412" lon="9.625359"><ele>446.0</ele><time>2026-03-29T13:46:21.264Z</time></trkpt><trkpt lat="40.5901152" lon="9.6252118"><ele>445.66666666666663</ele><time>2026-03-29T13:46:22.284Z</time></trkpt><trkpt lat="40.5900984" lon="9.6250748"><ele>445.3333333333333</ele><time>2026-03-29T13:46:23.263Z</time></trkpt><trkpt lat="40.5900911" lon="9.6249556"><ele>445.0</ele><time>2026-03-29T13:46:24.262Z</time></trkpt><trkpt lat="40.5901013" lon="9.624848"><ele>444.66666666666663</ele><time>2026-03-29T13:46:25.264Z</time></trkpt><trkpt lat="40.5901196" lon="9.6247435"><ele>444.3333333333333</ele><time>2026-03-29T13:46:26.256Z</time></trkpt><trkpt lat="40.590158" lon="9.6246431"><ele>444.0</ele><time>2026-03-29T13:46:27.271Z</time></trkpt><trkpt lat="40.5902111" lon="9.624578"><ele>444.0</ele><time>2026-03-29T13:46:28.258Z</time></trkpt><trkpt lat="40.590281" lon="9.6245394"><ele>444.0</ele><time>2026-03-29T13:46:29.263Z</time></trkpt><trkpt lat="40.5903688" lon="9.6245282"><ele>444.0</ele><time>2026-03-29T13:46:30.256Z</time></trkpt><trkpt lat="40.5904836" lon="9.6245637"><ele>444.0</ele><time>2026-03-29T13:46:31.265Z</time></trkpt><trkpt lat="40.5905911" lon="9.6245939"><ele>444.0</ele><time>2026-03-29T13:46:32.261Z</time></trkpt><trkpt lat="40.5906747" lon="9.6246307"><ele>440.79999999999995</ele><time>2026-03-29T13:46:33.257Z</time></trkpt><trkpt lat="40.5907706" lon="9.6246777"><ele>437.59999999999997</ele><time>2026-03-29T13:46:35.262Z</time></trkpt><trkpt lat="40.5908365" lon="9.6246692"><ele>434.4</ele><time>2026-03-29T13:46:36.261Z</time></trkpt><trkpt lat="40.5909133" lon="9.6246049"><ele>431.2</ele><time>2026-03-29T13:46:37.265Z</time></trkpt><trkpt lat="40.5909903" lon="9.6245222"><ele>428.0</ele><time>2026-03-29T13:46:38.279Z</time></trkpt><trkpt lat="40.5910596" lon="9.6244221"><ele>428.0</ele><time>2026-03-29T13:46:39.261Z</time></trkpt><trkpt lat="40.5911258" lon="9.6243205"><ele>427.99999999999994</ele><time>2026-03-29T13:46:40.262Z</time></trkpt><trkpt lat="40.5911834" lon="9.6242285"><ele>427.99999999999994</ele><time>2026-03-29T13:46:41.258Z</time></trkpt><trkpt lat="40.5912665" lon="9.6241551"><ele>428.0</ele><time>2026-03-29T13:46:42.261Z</time></trkpt><trkpt lat="40.5913999" lon="9.6241251"><ele>428.0</ele><time>2026-03-29T13:46:43.26Z</time></trkpt><trkpt lat="40.5915557" lon="9.6241154"><ele>421.0</ele><time>2026-03-29T13:46:44.257Z</time></trkpt><trkpt lat="40.591716" lon="9.6240954"><ele>414.0</ele><time>2026-03-29T13:46:45.271Z</time></trkpt><trkpt lat="40.5918563" lon="9.6240769"><ele>407.0</ele><time>2026-03-29T13:46:46.264Z</time></trkpt><trkpt lat="40.5920019" lon="9.6240275"><ele>404.75</ele><time>2026-03-29T13:46:47.263Z</time></trkpt><trkpt lat="40.5921489" lon="9.6239782"><ele>402.5</ele><time>2026-03-29T13:46:48.256Z</time></trkpt><trkpt lat="40.5922791" lon="9.6239617"><ele>400.25</ele><time>2026-03-29T13:46:49.258Z</time></trkpt><trkpt lat="40.5924061" lon="9.623953"><ele>398.0</ele><time>2026-03-29T13:46:50.263Z</time></trkpt><trkpt lat="40.5925224" lon="9.6239575"><ele>397.99999999999994</ele><time>2026-03-29T13:46:51.264Z</time></trkpt><trkpt lat="40.5926363" lon="9.6239614"><ele>398.0</ele><time>2026-03-29T13:46:52.284Z</time></trkpt><trkpt lat="40.5927293" lon="9.6240206"><ele>398.0</ele><time>2026-03-29T13:46:53.263Z</time></trkpt><trkpt lat="40.5927973" lon="9.6240833"><ele>398.0</ele><time>2026-03-29T13:46:54.263Z</time></trkpt><trkpt lat="40.5928646" lon="9.6241415"><ele>397.99999999999994</ele><time>2026-03-29T13:46:55.26Z</time></trkpt><trkpt lat="40.5929325" lon="9.6241334"><ele>398.0</ele><time>2026-03-29T13:46:56.265Z</time></trkpt><trkpt lat="40.5930022" lon="9.6240895"><ele>395.59999999999997</ele><time>2026-03-29T13:46:57.266Z</time></trkpt><trkpt lat="40.5930776" lon="9.6240327"><ele>393.2</ele><time>2026-03-29T13:46:58.264Z</time></trkpt><trkpt lat="40.5931564" lon="9.6239388"><ele>390.8</ele><time>2026-03-29T13:46:59.257Z</time></trkpt><trkpt lat="40.5932272" lon="9.6238206"><ele>388.4</ele><time>2026-03-29T13:47:00.266Z</time></trkpt><trkpt lat="40.5932958" lon="9.6237038"><ele>386.0</ele><time>2026-03-29T13:47:01.265Z</time></trkpt><trkpt lat="40.5933553" lon="9.6235833"><ele>386.0</ele><time>2026-03-29T13:47:02.26Z</time></trkpt><trkpt lat="40.5934011" lon="9.6234586"><ele>386.0</ele><time>2026-03-29T13:47:03.278Z</time></trkpt><trkpt lat="40.5934438" lon="9.6233302"><ele>386.0</ele><time>2026-03-29T13:47:04.261Z</time></trkpt><trkpt lat="40.5934512" lon="9.6231795"><ele>386.0</ele><time>2026-03-29T13:47:05.26Z</time></trkpt><trkpt lat="40.5934395" lon="9.6230123"><ele>386.0</ele><time>2026-03-29T13:47:06.267Z</time></trkpt><trkpt lat="40.593423" lon="9.6228365"><ele>386.0</ele><time>2026-03-29T13:47:07.26Z</time></trkpt><trkpt lat="40.5933702" lon="9.6226698"><ele>386.0</ele><time>2026-03-29T13:47:08.259Z</time></trkpt><trkpt lat="40.5933291" lon="9.6225286"><ele>386.0</ele><time>2026-03-29T13:47:09.254Z</time></trkpt><trkpt lat="40.5933012" lon="9.6224316"><ele>385.20000000000005</ele><time>2026-03-29T13:47:10.263Z</time></trkpt><trkpt lat="40.5932802" lon="9.6223223"><ele>384.40000000000003</ele><time>2026-03-29T13:47:12.274Z</time></trkpt><trkpt lat="40.5933551" lon="9.6223603"><ele>383.6</ele><time>2026-03-29T13:47:15.258Z</time></trkpt><trkpt lat="40.5933815" lon="9.6224743"><ele>382.8</ele><time>2026-03-29T13:47:16.261Z</time></trkpt><trkpt lat="40.59344" lon="9.6226136"><ele>382.0</ele><time>2026-03-29T13:47:17.261Z</time></trkpt><trkpt lat="40.5935263" lon="9.6227423"><ele>383.0</ele><time>2026-03-29T13:47:18.282Z</time></trkpt><trkpt lat="40.5936253" lon="9.6229206"><ele>384.0</ele><time>2026-03-29T13:47:19.259Z</time></trkpt><trkpt lat="40.5937047" lon="9.6230688"><ele>385.0</ele><time>2026-03-29T13:47:20.253Z</time></trkpt><trkpt lat="40.5937708" lon="9.6232071"><ele>386.0</ele><time>2026-03-29T13:47:21.256Z</time></trkpt><trkpt lat="40.5938208" lon="9.6233375"><ele>378.0</ele><time>2026-03-29T13:47:22.258Z</time></trkpt><trkpt lat="40.593852" lon="9.6234596"><ele>370.0</ele><time>2026-03-29T13:47:23.268Z</time></trkpt><trkpt lat="40.5938631" lon="9.6235953"><ele>362.0</ele><time>2026-03-29T13:47:24.269Z</time></trkpt><trkpt lat="40.5938628" lon="9.6237372"><ele>354.0</ele><time>2026-03-29T13:47:25.281Z</time></trkpt><trkpt lat="40.5938562" lon="9.6238857"><ele>346.0</ele><time>2026-03-29T13:47:26.262Z</time></trkpt><trkpt lat="40.5938501" lon="9.6240245"><ele>345.8</ele><time>2026-03-29T13:47:27.258Z</time></trkpt><trkpt lat="40.5938337" lon="9.624161"><ele>345.6</ele><time>2026-03-29T13:47:28.259Z</time></trkpt><trkpt lat="40.5938081" lon="9.6242971"><ele>345.4</ele><time>2026-03-29T13:47:29.257Z</time></trkpt><trkpt lat="40.5937655" lon="9.6244274"><ele>345.2</ele><time>2026-03-29T13:47:30.262Z</time></trkpt><trkpt lat="40.5937124" lon="9.6245425"><ele>345.0</ele><time>2026-03-29T13:47:31.256Z</time></trkpt><trkpt lat="40.5936589" lon="9.6246426"><ele>346.5</ele><time>2026-03-29T13:47:32.274Z</time></trkpt><trkpt lat="40.5936045" lon="9.6247142"><ele>348.0</ele><time>2026-03-29T13:47:33.26Z</time></trkpt><trkpt lat="40.5935751" lon="9.6247909"><ele>349.5</ele><time>2026-03-29T13:47:35.259Z</time></trkpt><trkpt lat="40.5936467" lon="9.6247929"><ele>351.0</ele><time>2026-03-29T13:47:37.284Z</time></trkpt><trkpt lat="40.5937119" lon="9.6247499"><ele>352.5</ele><time>2026-03-29T13:47:38.257Z</time></trkpt><trkpt lat="40.593796" lon="9.6246567"><ele>354.0</ele><time>2026-03-29T13:47:39.263Z</time></trkpt><trkpt lat="40.5939039" lon="9.6245846"><ele>351.75</ele><time>2026-03-29T13:47:40.261Z</time></trkpt><trkpt lat="40.5940007" lon="9.6245195"><ele>349.5</ele><time>2026-03-29T13:47:41.265Z</time></trkpt><trkpt lat="40.5940821" lon="9.6244504"><ele>347.25</ele><time>2026-03-29T13:47:42.259Z</time></trkpt><trkpt lat="40.5941493" lon="9.6243284"><ele>345.0</ele><time>2026-03-29T13:47:43.267Z</time></trkpt><trkpt lat="40.5942156" lon="9.6241702"><ele>345.0</ele><time>2026-03-29T13:47:44.262Z</time></trkpt><trkpt lat="40.5942758" lon="9.6240168"><ele>345.0</ele><time>2026-03-29T13:47:45.263Z</time></trkpt><trkpt lat="40.5943237" lon="9.623859"><ele>345.0</ele><time>2026-03-29T13:47:46.256Z</time></trkpt><trkpt lat="40.5943703" lon="9.6237026"><ele>345.0</ele><time>2026-03-29T13:47:47.263Z</time></trkpt><trkpt lat="40.5944" lon="9.623552"><ele>345.25</ele><time>2026-03-29T13:47:48.29Z</time></trkpt><trkpt lat="40.5944088" lon="9.6233841"><ele>345.5</ele><time>2026-03-29T13:47:49.264Z</time></trkpt><trkpt lat="40.5944009" lon="9.6232224"><ele>345.75</ele><time>2026-03-29T13:47:50.259Z</time></trkpt><trkpt lat="40.5943817" lon="9.6230522"><ele>346.0</ele><time>2026-03-29T13:47:51.261Z</time></trkpt><trkpt lat="40.5943562" lon="9.6228748"><ele>344.75</ele><time>2026-03-29T13:47:52.261Z</time></trkpt><trkpt lat="40.594326" lon="9.6226876"><ele>343.5</ele><time>2026-03-29T13:47:53.259Z</time></trkpt><trkpt lat="40.5942982" lon="9.6225024"><ele>342.25</ele><time>2026-03-29T13:47:54.26Z</time></trkpt><trkpt lat="40.5942696" lon="9.6223307"><ele>341.0</ele><time>2026-03-29T13:47:55.26Z</time></trkpt><trkpt lat="40.594225" lon="9.62218"><ele>341.0</ele><time>2026-03-29T13:47:56.258Z</time></trkpt><trkpt lat="40.5941636" lon="9.6220244"><ele>341.0</ele><time>2026-03-29T13:47:57.283Z</time></trkpt><trkpt lat="40.5940882" lon="9.6218645"><ele>341.0</ele><time>2026-03-29T13:47:58.263Z</time></trkpt><trkpt lat="40.5940148" lon="9.6217118"><ele>341.0</ele><time>2026-03-29T13:47:59.26Z</time></trkpt><trkpt lat="40.5939522" lon="9.6215513"><ele>339.8</ele><time>2026-03-29T13:48:00.265Z</time></trkpt><trkpt lat="40.5938857" lon="9.6213899"><ele>338.6</ele><time>2026-03-29T13:48:01.265Z</time></trkpt><trkpt lat="40.5938317" lon="9.6212404"><ele>337.4</ele><time>2026-03-29T13:48:02.277Z</time></trkpt><trkpt lat="40.5937925" lon="9.6211306"><ele>336.2</ele><time>2026-03-29T13:48:03.261Z</time></trkpt><trkpt lat="40.5937768" lon="9.6210283"><ele>335.0</ele><time>2026-03-29T13:48:04.255Z</time></trkpt><trkpt lat="40.5937802" lon="9.6209367"><ele>335.0</ele><time>2026-03-29T13:48:05.259Z</time></trkpt><trkpt lat="40.5938134" lon="9.6208584"><ele>335.0</ele><time>2026-03-29T13:48:06.257Z</time></trkpt><trkpt lat="40.5938685" lon="9.6208075"><ele>335.0</ele><time>2026-03-29T13:48:07.261Z</time></trkpt><trkpt lat="40.5939417" lon="9.6207844"><ele>335.0</ele><time>2026-03-29T13:48:08.259Z</time></trkpt><trkpt lat="40.5940346" lon="9.6207987"><ele>335.0</ele><time>2026-03-29T13:48:09.269Z</time></trkpt><trkpt lat="40.5941523" lon="9.6208465"><ele>335.0</ele><time>2026-03-29T13:48:10.256Z</time></trkpt><trkpt lat="40.5943023" lon="9.6208651"><ele>335.0</ele><time>2026-03-29T13:48:11.263Z</time></trkpt><trkpt lat="40.5944546" lon="9.6208619"><ele>335.0</ele><time>2026-03-29T13:48:12.259Z</time></trkpt><trkpt lat="40.5946095" lon="9.6208689"><ele>335.0</ele><time>2026-03-29T13:48:13.259Z</time></trkpt><trkpt lat="40.5947437" lon="9.6208872"><ele>335.0</ele><time>2026-03-29T13:48:14.258Z</time></trkpt><trkpt lat="40.5948606" lon="9.6209029"><ele>336.0</ele><time>2026-03-29T13:48:15.266Z</time></trkpt><trkpt lat="40.5949653" lon="9.6209153"><ele>337.0</ele><time>2026-03-29T13:48:16.257Z</time></trkpt><trkpt lat="40.5950696" lon="9.620971"><ele>338.0</ele><time>2026-03-29T13:48:17.269Z</time></trkpt><trkpt lat="40.5951816" lon="9.6210686"><ele>339.0</ele><time>2026-03-29T13:48:18.265Z</time></trkpt><trkpt lat="40.595304" lon="9.6211662"><ele>335.75</ele><time>2026-03-29T13:48:19.259Z</time></trkpt><trkpt lat="40.5954151" lon="9.6212406"><ele>332.5</ele><time>2026-03-29T13:48:20.264Z</time></trkpt><trkpt lat="40.5955293" lon="9.6212982"><ele>329.25</ele><time>2026-03-29T13:48:21.267Z</time></trkpt><trkpt lat="40.5956532" lon="9.6213257"><ele>326.0</ele><time>2026-03-29T13:48:22.276Z</time></trkpt><trkpt lat="40.5957765" lon="9.6213761"><ele>326.0</ele><time>2026-03-29T13:48:23.261Z</time></trkpt><trkpt lat="40.5958775" lon="9.6214155"><ele>326.0</ele><time>2026-03-29T13:48:24.266Z</time></trkpt><trkpt lat="40.595959" lon="9.6214264"><ele>326.0</ele><time>2026-03-29T13:48:25.26Z</time></trkpt><trkpt lat="40.5960235" lon="9.6214175"><ele>326.0</ele><time>2026-03-29T13:48:26.266Z</time></trkpt><trkpt lat="40.5960845" lon="9.6213931"><ele>326.0</ele><time>2026-03-29T13:48:27.27Z</time></trkpt><trkpt lat="40.5961401" lon="9.6213371"><ele>326.0</ele><time>2026-03-29T13:48:28.266Z</time></trkpt><trkpt lat="40.596214" lon="9.6212782"><ele>328.33333333333337</ele><time>2026-03-29T13:48:29.257Z</time></trkpt><trkpt lat="40.5962922" lon="9.6212509"><ele>330.6666666666667</ele><time>2026-03-29T13:48:30.268Z</time></trkpt><trkpt lat="40.5963591" lon="9.6212821"><ele>333.0</ele><time>2026-03-29T13:48:31.262Z</time></trkpt><trkpt lat="40.5964333" lon="9.6213371"><ele>335.3333333333333</ele><time>2026-03-29T13:48:32.278Z</time></trkpt><trkpt lat="40.5965134" lon="9.6213718"><ele>337.66666666666663</ele><time>2026-03-29T13:48:33.26Z</time></trkpt><trkpt lat="40.5965967" lon="9.6213777"><ele>340.0</ele><time>2026-03-29T13:48:34.267Z</time></trkpt><trkpt lat="40.5966924" lon="9.6213839"><ele>340.0</ele><time>2026-03-29T13:48:35.261Z</time></trkpt><trkpt lat="40.5967662" lon="9.6214434"><ele>340.0</ele><time>2026-03-29T13:48:36.267Z</time></trkpt><trkpt lat="40.5968461" lon="9.6215092"><ele>340.0</ele><time>2026-03-29T13:48:37.261Z</time></trkpt><trkpt lat="40.5969142" lon="9.6216201"><ele>340.0</ele><time>2026-03-29T13:48:38.266Z</time></trkpt><trkpt lat="40.5969907" lon="9.6217069"><ele>340.0</ele><time>2026-03-29T13:48:39.273Z</time></trkpt><trkpt lat="40.5970684" lon="9.6217595"><ele>341.5</ele><time>2026-03-29T13:48:40.265Z</time></trkpt><trkpt lat="40.5971508" lon="9.621809"><ele>343.0</ele><time>2026-03-29T13:48:41.311Z</time></trkpt><trkpt lat="40.5972586" lon="9.6218107"><ele>344.5</ele><time>2026-03-29T13:48:42.258Z</time></trkpt><trkpt lat="40.5973597" lon="9.6218102"><ele>346.0</ele><time>2026-03-29T13:48:43.264Z</time></trkpt><trkpt lat="40.5974313" lon="9.6218025"><ele>347.5</ele><time>2026-03-29T13:48:44.264Z</time></trkpt><trkpt lat="40.5974846" lon="9.6217401"><ele>349.0</ele><time>2026-03-29T13:48:45.263Z</time></trkpt><trkpt lat="40.5975383" lon="9.6216641"><ele>349.0</ele><time>2026-03-29T13:48:46.26Z</time></trkpt><trkpt lat="40.597601" lon="9.6215473"><ele>349.0</ele><time>2026-03-29T13:48:47.261Z</time></trkpt><trkpt lat="40.5976817" lon="9.6214422"><ele>349.0</ele><time>2026-03-29T13:48:48.263Z</time></trkpt><trkpt lat="40.5977955" lon="9.6213722"><ele>349.0</ele><time>2026-03-29T13:48:49.26Z</time></trkpt><trkpt lat="40.5979307" lon="9.621315"><ele>348.5</ele><time>2026-03-29T13:48:50.262Z</time></trkpt><trkpt lat="40.5980587" lon="9.6212607"><ele>348.0</ele><time>2026-03-29T13:48:51.259Z</time></trkpt><trkpt lat="40.5981891" lon="9.6212305"><ele>347.5</ele><time>2026-03-29T13:48:52.277Z</time></trkpt><trkpt lat="40.5983139" lon="9.6212192"><ele>347.0</ele><time>2026-03-29T13:48:53.26Z</time></trkpt><trkpt lat="40.59843" lon="9.6212107"><ele>347.0</ele><time>2026-03-29T13:48:54.269Z</time></trkpt><trkpt lat="40.5985282" lon="9.6212379"><ele>347.0</ele><time>2026-03-29T13:48:55.266Z</time></trkpt><trkpt lat="40.59862" lon="9.6212646"><ele>347.0</ele><time>2026-03-29T13:48:56.264Z</time></trkpt><trkpt lat="40.5987077" lon="9.621366"><ele>347.0</ele><time>2026-03-29T13:48:57.26Z</time></trkpt><trkpt lat="40.5987993" lon="9.621477"><ele>347.0</ele><time>2026-03-29T13:48:58.264Z</time></trkpt><trkpt lat="40.5988886" lon="9.6215904"><ele>347.83333333333337</ele><time>2026-03-29T13:48:59.299Z</time></trkpt><trkpt lat="40.59898" lon="9.6216709"><ele>348.6666666666667</ele><time>2026-03-29T13:49:00.262Z</time></trkpt><trkpt lat="40.5990676" lon="9.6217189"><ele>349.5</ele><time>2026-03-29T13:49:01.258Z</time></trkpt><trkpt lat="40.5991436" lon="9.6217275"><ele>350.3333333333333</ele><time>2026-03-29T13:49:02.262Z</time></trkpt><trkpt lat="40.5992118" lon="9.6217327"><ele>351.16666666666663</ele><time>2026-03-29T13:49:03.265Z</time></trkpt><trkpt lat="40.5992664" lon="9.6216613"><ele>352.0</ele><time>2026-03-29T13:49:04.264Z</time></trkpt><trkpt lat="40.5993217" lon="9.6215843"><ele>352.0</ele><time>2026-03-29T13:49:05.258Z</time></trkpt><trkpt lat="40.5993646" lon="9.6214419"><ele>352.0</ele><time>2026-03-29T13:49:06.262Z</time></trkpt><trkpt lat="40.5993971" lon="9.6212683"><ele>352.0</ele><time>2026-03-29T13:49:07.265Z</time></trkpt><trkpt lat="40.5994313" lon="9.6210776"><ele>352.0</ele><time>2026-03-29T13:49:08.285Z</time></trkpt><trkpt lat="40.5994724" lon="9.620902"><ele>350.0</ele><time>2026-03-29T13:49:09.259Z</time></trkpt><trkpt lat="40.5995295" lon="9.6207253"><ele>348.0</ele><time>2026-03-29T13:49:10.261Z</time></trkpt><trkpt lat="40.5995835" lon="9.6205636"><ele>346.0</ele><time>2026-03-29T13:49:11.265Z</time></trkpt><trkpt lat="40.5996477" lon="9.6204089"><ele>344.0</ele><time>2026-03-29T13:49:12.264Z</time></trkpt><trkpt lat="40.5997132" lon="9.6202645"><ele>344.0</ele><time>2026-03-29T13:49:13.262Z</time></trkpt><trkpt lat="40.5997901" lon="9.6201207"><ele>344.0</ele><time>2026-03-29T13:49:14.264Z</time></trkpt><trkpt lat="40.59986" lon="9.6199762"><ele>344.0</ele><time>2026-03-29T13:49:15.268Z</time></trkpt><trkpt lat="40.5999282" lon="9.6198372"><ele>344.0</ele><time>2026-03-29T13:49:16.261Z</time></trkpt><trkpt lat="40.5999878" lon="9.6197183"><ele>344.0</ele><time>2026-03-29T13:49:17.275Z</time></trkpt><trkpt lat="40.6000563" lon="9.6195931"><ele>344.0</ele><time>2026-03-29T13:49:18.261Z</time></trkpt><trkpt lat="40.6001277" lon="9.6194858"><ele>344.0</ele><time>2026-03-29T13:49:19.264Z</time></trkpt><trkpt lat="40.6002139" lon="9.6193783"><ele>344.0</ele><time>2026-03-29T13:49:20.26Z</time></trkpt><trkpt lat="40.6002982" lon="9.6192777"><ele>342.2</ele><time>2026-03-29T13:49:21.267Z</time></trkpt><trkpt lat="40.6003955" lon="9.6191941"><ele>340.4</ele><time>2026-03-29T13:49:22.274Z</time></trkpt><trkpt lat="40.6004939" lon="9.6191226"><ele>338.6</ele><time>2026-03-29T13:49:23.264Z</time></trkpt><trkpt lat="40.6005905" lon="9.6190632"><ele>336.8</ele><time>2026-03-29T13:49:24.266Z</time></trkpt><trkpt lat="40.6006862" lon="9.6190254"><ele>335.0</ele><time>2026-03-29T13:49:25.26Z</time></trkpt><trkpt lat="40.6007767" lon="9.6189995"><ele>335.0</ele><time>2026-03-29T13:49:26.26Z</time></trkpt><trkpt lat="40.6008549" lon="9.618965"><ele>335.0</ele><time>2026-03-29T13:49:27.264Z</time></trkpt><trkpt lat="40.6009185" lon="9.6189106"><ele>335.0</ele><time>2026-03-29T13:49:28.268Z</time></trkpt><trkpt lat="40.6009873" lon="9.6188528"><ele>335.0</ele><time>2026-03-29T13:49:29.258Z</time></trkpt><trkpt lat="40.6010546" lon="9.6187675"><ele>335.0</ele><time>2026-03-29T13:49:30.258Z</time></trkpt><trkpt lat="40.6011084" lon="9.6186585"><ele>335.0</ele><time>2026-03-29T13:49:31.259Z</time></trkpt><trkpt lat="40.6011512" lon="9.6185394"><ele>331.2</ele><time>2026-03-29T13:49:32.258Z</time></trkpt><trkpt lat="40.6011882" lon="9.61841"><ele>327.4</ele><time>2026-03-29T13:49:33.266Z</time></trkpt><trkpt lat="40.6012187" lon="9.6182817"><ele>323.6</ele><time>2026-03-29T13:49:34.273Z</time></trkpt><trkpt lat="40.601238" lon="9.6181464"><ele>319.8</ele><time>2026-03-29T13:49:35.258Z</time></trkpt><trkpt lat="40.6012446" lon="9.6180108"><ele>316.0</ele><time>2026-03-29T13:49:36.257Z</time></trkpt><trkpt lat="40.6012594" lon="9.6178872"><ele>315.3333333333333</ele><time>2026-03-29T13:49:37.261Z</time></trkpt><trkpt lat="40.6012572" lon="9.6177804"><ele>314.66666666666663</ele><time>2026-03-29T13:49:38.256Z</time></trkpt><trkpt lat="40.6012377" lon="9.6176809"><ele>314.0</ele><time>2026-03-29T13:49:39.289Z</time></trkpt><trkpt lat="40.6012002" lon="9.6175963"><ele>313.3333333333333</ele><time>2026-03-29T13:49:40.263Z</time></trkpt><trkpt lat="40.6011584" lon="9.6175047"><ele>312.6666666666667</ele><time>2026-03-29T13:49:41.257Z</time></trkpt><trkpt lat="40.6011165" lon="9.617401"><ele>312.0</ele><time>2026-03-29T13:49:42.259Z</time></trkpt><trkpt lat="40.6010861" lon="9.6172952"><ele>312.0</ele><time>2026-03-29T13:49:43.257Z</time></trkpt><trkpt lat="40.6010701" lon="9.6172045"><ele>312.0</ele><time>2026-03-29T13:49:44.264Z</time></trkpt><trkpt lat="40.6010399" lon="9.6170685"><ele>312.0</ele><time>2026-03-29T13:49:46.262Z</time></trkpt><trkpt lat="40.6010505" lon="9.6169854"><ele>312.0</ele><time>2026-03-29T13:49:48.261Z</time></trkpt><trkpt lat="40.6011172" lon="9.6170242"><ele>312.0</ele><time>2026-03-29T13:49:50.259Z</time></trkpt><trkpt lat="40.6011627" lon="9.6170869"><ele>312.0</ele><time>2026-03-29T13:49:53.262Z</time></trkpt><trkpt lat="40.6012389" lon="9.6171453"><ele>312.0</ele><time>2026-03-29T13:50:22.258Z</time></trkpt><trkpt lat="40.6013502" lon="9.6171869"><ele>312.0</ele><time>2026-03-29T13:50:24.261Z</time></trkpt><trkpt lat="40.6014343" lon="9.6171497"><ele>312.0</ele><time>2026-03-29T13:50:25.254Z</time></trkpt><trkpt lat="40.6015284" lon="9.6171102"><ele>312.0</ele><time>2026-03-29T13:50:26.257Z</time></trkpt><trkpt lat="40.6016206" lon="9.6170494"><ele>312.0</ele><time>2026-03-29T13:50:27.258Z</time></trkpt><trkpt lat="40.601688" lon="9.6170162"><ele>312.0</ele><time>2026-03-29T13:50:28.263Z</time></trkpt><trkpt lat="40.6017814" lon="9.6170308"><ele>312.0</ele><time>2026-03-29T13:50:30.276Z</time></trkpt><trkpt lat="40.6018186" lon="9.6171051"><ele>312.0</ele><time>2026-03-29T13:50:31.264Z</time></trkpt><trkpt lat="40.6018469" lon="9.6172118"><ele>312.0</ele><time>2026-03-29T13:50:32.262Z</time></trkpt><trkpt lat="40.6018607" lon="9.617359"><ele>312.0</ele><time>2026-03-29T13:50:33.257Z</time></trkpt><trkpt lat="40.6018595" lon="9.6175433"><ele>312.0</ele><time>2026-03-29T13:50:34.261Z</time></trkpt><trkpt lat="40.6018601" lon="9.6177206"><ele>312.0</ele><time>2026-03-29T13:50:35.274Z</time></trkpt><trkpt lat="40.6018634" lon="9.617895"><ele>312.0</ele><time>2026-03-29T13:50:36.256Z</time></trkpt><trkpt lat="40.6018917" lon="9.6180576"><ele>312.0</ele><time>2026-03-29T13:50:37.262Z</time></trkpt><trkpt lat="40.6019237" lon="9.6182086"><ele>313.0</ele><time>2026-03-29T13:50:38.257Z</time></trkpt><trkpt lat="40.6019767" lon="9.6183693"><ele>314.0</ele><time>2026-03-29T13:50:39.263Z</time></trkpt><trkpt lat="40.6020453" lon="9.618521"><ele>315.0</ele><time>2026-03-29T13:50:40.261Z</time></trkpt><trkpt lat="40.6021224" lon="9.6186953"><ele>316.0</ele><time>2026-03-29T13:50:41.263Z</time></trkpt><trkpt lat="40.6021896" lon="9.6188746"><ele>308.0</ele><time>2026-03-29T13:50:42.265Z</time></trkpt><trkpt lat="40.602252" lon="9.6190477"><ele>300.0</ele><time>2026-03-29T13:50:43.262Z</time></trkpt><trkpt lat="40.6023062" lon="9.6192092"><ele>292.0</ele><time>2026-03-29T13:50:44.271Z</time></trkpt><trkpt lat="40.6023598" lon="9.6193645"><ele>284.0</ele><time>2026-03-29T13:50:45.261Z</time></trkpt><trkpt lat="40.6024046" lon="9.6195222"><ele>283.59999999999997</ele><time>2026-03-29T13:50:46.272Z</time></trkpt><trkpt lat="40.6024389" lon="9.6196727"><ele>283.2</ele><time>2026-03-29T13:50:47.27Z</time></trkpt><trkpt lat="40.6024602" lon="9.6198323"><ele>282.79999999999995</ele><time>2026-03-29T13:50:48.268Z</time></trkpt><trkpt lat="40.6024732" lon="9.6199757"><ele>282.4</ele><time>2026-03-29T13:50:49.259Z</time></trkpt><trkpt lat="40.6024712" lon="9.6200868"><ele>282.0</ele><time>2026-03-29T13:50:50.257Z</time></trkpt><trkpt lat="40.602455" lon="9.6201767"><ele>282.0</ele><time>2026-03-29T13:50:51.261Z</time></trkpt><trkpt lat="40.6024132" lon="9.6202664"><ele>282.0</ele><time>2026-03-29T13:50:52.264Z</time></trkpt><trkpt lat="40.6023527" lon="9.6203721"><ele>282.0</ele><time>2026-03-29T13:50:53.257Z</time></trkpt><trkpt lat="40.6022993" lon="9.6204547"><ele>282.0</ele><time>2026-03-29T13:50:54.278Z</time></trkpt><trkpt lat="40.6022587" lon="9.6205379"><ele>282.0</ele><time>2026-03-29T13:50:55.266Z</time></trkpt><trkpt lat="40.6023207" lon="9.6206121"><ele>282.0</ele><time>2026-03-29T13:50:58.265Z</time></trkpt><trkpt lat="40.6024264" lon="9.6204869"><ele>282.0</ele><time>2026-03-29T13:51:00.26Z</time></trkpt><trkpt lat="40.6024845" lon="9.6204072"><ele>282.0</ele><time>2026-03-29T13:51:01.256Z</time></trkpt><trkpt lat="40.6025546" lon="9.6202948"><ele>282.0</ele><time>2026-03-29T13:51:02.266Z</time></trkpt><trkpt lat="40.6026332" lon="9.6201662"><ele>282.0</ele><time>2026-03-29T13:51:03.255Z</time></trkpt><trkpt lat="40.6027121" lon="9.6200595"><ele>282.0</ele><time>2026-03-29T13:51:04.263Z</time></trkpt><trkpt lat="40.6027677" lon="9.6199528"><ele>282.0</ele><time>2026-03-29T13:51:05.258Z</time></trkpt><trkpt lat="40.6028076" lon="9.6198302"><ele>282.0</ele><time>2026-03-29T13:51:06.258Z</time></trkpt><trkpt lat="40.6028417" lon="9.6196892"><ele>282.0</ele><time>2026-03-29T13:51:07.261Z</time></trkpt><trkpt lat="40.6028615" lon="9.6195432"><ele>282.0</ele><time>2026-03-29T13:51:08.262Z</time></trkpt><trkpt lat="40.6028753" lon="9.6193902"><ele>282.0</ele><time>2026-03-29T13:51:09.267Z</time></trkpt><trkpt lat="40.602873" lon="9.6192674"><ele>276.6666666666667</ele><time>2026-03-29T13:51:10.261Z</time></trkpt><trkpt lat="40.6028647" lon="9.6191722"><ele>271.3333333333333</ele><time>2026-03-29T13:51:11.257Z</time></trkpt><trkpt lat="40.6028672" lon="9.6190749"><ele>266.0</ele><time>2026-03-29T13:51:13.255Z</time></trkpt><trkpt lat="40.6028502" lon="9.6192431"><ele>260.66666666666663</ele><time>2026-03-29T13:51:17.264Z</time></trkpt><trkpt lat="40.6028864" lon="9.6193266"><ele>255.33333333333331</ele><time>2026-03-29T13:51:18.261Z</time></trkpt><trkpt lat="40.6029439" lon="9.6193713"><ele>250.0</ele><time>2026-03-29T13:51:19.255Z</time></trkpt><trkpt lat="40.6029557" lon="9.6194846"><ele>248.8</ele><time>2026-03-29T13:51:20.255Z</time></trkpt><trkpt lat="40.6029807" lon="9.6196472"><ele>247.6</ele><time>2026-03-29T13:51:21.263Z</time></trkpt><trkpt lat="40.6030065" lon="9.6197565"><ele>246.39999999999998</ele><time>2026-03-29T13:51:22.263Z</time></trkpt><trkpt lat="40.6031189" lon="9.6197838"><ele>245.2</ele><time>2026-03-29T13:51:23.274Z</time></trkpt><trkpt lat="40.6032178" lon="9.6197585"><ele>244.0</ele><time>2026-03-29T13:51:25.266Z</time></trkpt><trkpt lat="40.6032738" lon="9.6197102"><ele>244.0</ele><time>2026-03-29T13:51:26.259Z</time></trkpt><trkpt lat="40.6033281" lon="9.6195687"><ele>243.99999999999997</ele><time>2026-03-29T13:51:27.26Z</time></trkpt><trkpt lat="40.6033573" lon="9.6194311"><ele>243.99999999999997</ele><time>2026-03-29T13:51:28.262Z</time></trkpt><trkpt lat="40.6033676" lon="9.6192822"><ele>244.0</ele><time>2026-03-29T13:51:29.258Z</time></trkpt><trkpt lat="40.6033602" lon="9.619146"><ele>244.0</ele><time>2026-03-29T13:51:30.261Z</time></trkpt><trkpt lat="40.6033556" lon="9.6190154"><ele>243.6</ele><time>2026-03-29T13:51:31.26Z</time></trkpt><trkpt lat="40.6033238" lon="9.6188934"><ele>243.2</ele><time>2026-03-29T13:51:32.267Z</time></trkpt><trkpt lat="40.6032834" lon="9.6187743"><ele>242.79999999999998</ele><time>2026-03-29T13:51:33.261Z</time></trkpt><trkpt lat="40.6032346" lon="9.618657"><ele>242.39999999999998</ele><time>2026-03-29T13:51:34.281Z</time></trkpt><trkpt lat="40.6031749" lon="9.6185443"><ele>242.0</ele><time>2026-03-29T13:51:35.267Z</time></trkpt><trkpt lat="40.6031139" lon="9.6184321"><ele>242.0</ele><time>2026-03-29T13:51:36.266Z</time></trkpt><trkpt lat="40.6030679" lon="9.6183379"><ele>242.0</ele><time>2026-03-29T13:51:37.263Z</time></trkpt><trkpt lat="40.6030637" lon="9.6182406"><ele>242.0</ele><time>2026-03-29T13:51:38.258Z</time></trkpt><trkpt lat="40.6030968" lon="9.6181574"><ele>242.0</ele><time>2026-03-29T13:51:39.258Z</time></trkpt><trkpt lat="40.6031746" lon="9.6180681"><ele>242.0</ele><time>2026-03-29T13:51:40.264Z</time></trkpt><trkpt lat="40.603275" lon="9.6179703"><ele>242.0</ele><time>2026-03-29T13:51:41.262Z</time></trkpt><trkpt lat="40.603354" lon="9.617819"><ele>242.0</ele><time>2026-03-29T13:51:42.286Z</time></trkpt><trkpt lat="40.6034385" lon="9.6176594"><ele>242.0</ele><time>2026-03-29T13:51:43.268Z</time></trkpt><trkpt lat="40.6035038" lon="9.6174656"><ele>242.0</ele><time>2026-03-29T13:51:44.266Z</time></trkpt><trkpt lat="40.6035667" lon="9.6172691"><ele>242.0</ele><time>2026-03-29T13:51:45.26Z</time></trkpt><trkpt lat="40.6036163" lon="9.6171102"><ele>242.0</ele><time>2026-03-29T13:51:46.264Z</time></trkpt><trkpt lat="40.6036551" lon="9.6169807"><ele>242.0</ele><time>2026-03-29T13:51:47.267Z</time></trkpt><trkpt lat="40.6036757" lon="9.6168897"><ele>242.0</ele><time>2026-03-29T13:51:48.263Z</time></trkpt><trkpt lat="40.6037288" lon="9.6168113"><ele>242.0</ele><time>2026-03-29T13:51:49.259Z</time></trkpt><trkpt lat="40.6038045" lon="9.6167606"><ele>237.0</ele><time>2026-03-29T13:51:50.26Z</time></trkpt><trkpt lat="40.6039068" lon="9.6167326"><ele>232.0</ele><time>2026-03-29T13:51:51.259Z</time></trkpt><trkpt lat="40.604013" lon="9.6167245"><ele>227.0</ele><time>2026-03-29T13:51:52.266Z</time></trkpt><trkpt lat="40.6041034" lon="9.6167358"><ele>222.0</ele><time>2026-03-29T13:51:53.261Z</time></trkpt><trkpt lat="40.6041959" lon="9.6167386"><ele>217.0</ele><time>2026-03-29T13:51:54.265Z</time></trkpt><trkpt lat="40.6042822" lon="9.6167632"><ele>217.0</ele><time>2026-03-29T13:51:55.257Z</time></trkpt><trkpt lat="40.6043592" lon="9.6168235"><ele>217.0</ele><time>2026-03-29T13:51:56.259Z</time></trkpt><trkpt lat="40.6044477" lon="9.6168992"><ele>217.0</ele><time>2026-03-29T13:51:57.265Z</time></trkpt><trkpt lat="40.6045191" lon="9.6169804"><ele>217.0</ele><time>2026-03-29T13:51:58.26Z</time></trkpt><trkpt lat="40.6045774" lon="9.6170575"><ele>217.0</ele><time>2026-03-29T13:51:59.281Z</time></trkpt><trkpt lat="40.604635" lon="9.6171402"><ele>214.33333333333331</ele><time>2026-03-29T13:52:00.265Z</time></trkpt><trkpt lat="40.6046806" lon="9.6172144"><ele>211.66666666666666</ele><time>2026-03-29T13:52:01.268Z</time></trkpt><trkpt lat="40.6047267" lon="9.6172887"><ele>209.0</ele><time>2026-03-29T13:52:02.264Z</time></trkpt><trkpt lat="40.6047746" lon="9.6173581"><ele>206.33333333333331</ele><time>2026-03-29T13:52:03.267Z</time></trkpt><trkpt lat="40.6048429" lon="9.6174617"><ele>203.66666666666666</ele><time>2026-03-29T13:52:05.273Z</time></trkpt><trkpt lat="40.6049053" lon="9.6175341"><ele>201.0</ele><time>2026-03-29T13:52:08.271Z</time></trkpt><trkpt lat="40.6049749" lon="9.6175839"><ele>201.0</ele><time>2026-03-29T13:53:16.263Z</time></trkpt><trkpt lat="40.6050781" lon="9.6176498"><ele>201.0</ele><time>2026-03-29T13:53:18.264Z</time></trkpt><trkpt lat="40.605135" lon="9.6176918"><ele>201.0</ele><time>2026-03-29T13:53:19.262Z</time></trkpt><trkpt lat="40.6052501" lon="9.6178089"><ele>201.0</ele><time>2026-03-29T13:53:21.268Z</time></trkpt><trkpt lat="40.6053046" lon="9.6178996"><ele>201.0</ele><time>2026-03-29T13:53:22.26Z</time></trkpt><trkpt lat="40.6053614" lon="9.6179929"><ele>197.66666666666666</ele><time>2026-03-29T13:53:23.263Z</time></trkpt><trkpt lat="40.6054107" lon="9.6180741"><ele>194.33333333333334</ele><time>2026-03-29T13:53:24.26Z</time></trkpt><trkpt lat="40.605449" lon="9.6181426"><ele>191.0</ele><time>2026-03-29T13:53:25.262Z</time></trkpt><trkpt lat="40.6055219" lon="9.6182668"><ele>187.66666666666669</ele><time>2026-03-29T13:53:27.264Z</time></trkpt><trkpt lat="40.6055884" lon="9.618271"><ele>184.33333333333334</ele><time>2026-03-29T13:53:29.269Z</time></trkpt><trkpt lat="40.6056263" lon="9.6181798"><ele>181.0</ele><time>2026-03-29T13:53:31.26Z</time></trkpt><trkpt lat="40.6056218" lon="9.618074"><ele>181.0</ele><time>2026-03-29T13:53:32.261Z</time></trkpt><trkpt lat="40.6056132" lon="9.6179483"><ele>181.0</ele><time>2026-03-29T13:53:33.262Z</time></trkpt><trkpt lat="40.6055996" lon="9.6178149"><ele>181.0</ele><time>2026-03-29T13:53:34.258Z</time></trkpt><trkpt lat="40.6055868" lon="9.6176675"><ele>181.0</ele><time>2026-03-29T13:53:35.26Z</time></trkpt><trkpt lat="40.6055743" lon="9.6175274"><ele>181.0</ele><time>2026-03-29T13:53:36.267Z</time></trkpt><trkpt lat="40.6055604" lon="9.6173965"><ele>180.20000000000002</ele><time>2026-03-29T13:53:37.259Z</time></trkpt><trkpt lat="40.6055464" lon="9.6172707"><ele>179.4</ele><time>2026-03-29T13:53:38.275Z</time></trkpt><trkpt lat="40.6055285" lon="9.6171591"><ele>178.6</ele><time>2026-03-29T13:53:39.262Z</time></trkpt><trkpt lat="40.6054868" lon="9.6170542"><ele>177.8</ele><time>2026-03-29T13:53:40.261Z</time></trkpt><trkpt lat="40.6054443" lon="9.6169475"><ele>177.0</ele><time>2026-03-29T13:53:41.261Z</time></trkpt><trkpt lat="40.6054066" lon="9.6168248"><ele>174.0</ele><time>2026-03-29T13:53:42.257Z</time></trkpt><trkpt lat="40.6053687" lon="9.6167152"><ele>171.0</ele><time>2026-03-29T13:53:43.261Z</time></trkpt><trkpt lat="40.6053479" lon="9.6165837"><ele>168.0</ele><time>2026-03-29T13:53:44.261Z</time></trkpt><trkpt lat="40.6053272" lon="9.6164402"><ele>165.0</ele><time>2026-03-29T13:53:45.259Z</time></trkpt><trkpt lat="40.605318" lon="9.6162985"><ele>162.0</ele><time>2026-03-29T13:53:46.276Z</time></trkpt><trkpt lat="40.6053113" lon="9.616174"><ele>159.66666666666666</ele><time>2026-03-29T13:53:47.259Z</time></trkpt><trkpt lat="40.6053" lon="9.6160624"><ele>157.33333333333334</ele><time>2026-03-29T13:53:48.259Z</time></trkpt><trkpt lat="40.6052777" lon="9.6159495"><ele>155.0</ele><time>2026-03-29T13:53:49.264Z</time></trkpt><trkpt lat="40.6052565" lon="9.6158239"><ele>152.66666666666669</ele><time>2026-03-29T13:53:51.263Z</time></trkpt><trkpt lat="40.6053114" lon="9.6157755"><ele>150.33333333333334</ele><time>2026-03-29T13:53:55.262Z</time></trkpt><trkpt lat="40.6053711" lon="9.6158218"><ele>148.0</ele><time>2026-03-29T13:54:17.264Z</time></trkpt><trkpt lat="40.6054048" lon="9.6158952"><ele>148.0</ele><time>2026-03-29T13:54:18.262Z</time></trkpt><trkpt lat="40.6054508" lon="9.6160254"><ele>148.0</ele><time>2026-03-29T13:54:19.258Z</time></trkpt><trkpt lat="40.6054984" lon="9.6161511"><ele>148.0</ele><time>2026-03-29T13:54:20.261Z</time></trkpt><trkpt lat="40.6055386" lon="9.6162696"><ele>148.0</ele><time>2026-03-29T13:54:21.265Z</time></trkpt><trkpt lat="40.605598" lon="9.6163749"><ele>148.0</ele><time>2026-03-29T13:54:22.263Z</time></trkpt><trkpt lat="40.6056708" lon="9.6164808"><ele>151.5</ele><time>2026-03-29T13:54:23.267Z</time></trkpt><trkpt lat="40.6057564" lon="9.6165877"><ele>155.0</ele><time>2026-03-29T13:54:24.259Z</time></trkpt><trkpt lat="40.6058492" lon="9.6166855"><ele>158.5</ele><time>2026-03-29T13:54:25.265Z</time></trkpt><trkpt lat="40.6059377" lon="9.6167842"><ele>162.0</ele><time>2026-03-29T13:54:26.258Z</time></trkpt><trkpt lat="40.60602" lon="9.6168923"><ele>165.75</ele><time>2026-03-29T13:54:27.259Z</time></trkpt><trkpt lat="40.606092" lon="9.6170158"><ele>169.5</ele><time>2026-03-29T13:54:28.255Z</time></trkpt><trkpt lat="40.6061574" lon="9.6171538"><ele>173.25</ele><time>2026-03-29T13:54:29.259Z</time></trkpt><trkpt lat="40.6062138" lon="9.6172919"><ele>177.0</ele><time>2026-03-29T13:54:30.265Z</time></trkpt><trkpt lat="40.6062577" lon="9.6174163"><ele>172.0</ele><time>2026-03-29T13:54:31.261Z</time></trkpt><trkpt lat="40.6062871" lon="9.6175625"><ele>167.0</ele><time>2026-03-29T13:54:32.26Z</time></trkpt><trkpt lat="40.6062926" lon="9.6177347"><ele>162.0</ele><time>2026-03-29T13:54:33.262Z</time></trkpt><trkpt lat="40.6063232" lon="9.6178948"><ele>157.0</ele><time>2026-03-29T13:54:34.262Z</time></trkpt><trkpt lat="40.606369" lon="9.6180876"><ele>157.0</ele><time>2026-03-29T13:54:35.267Z</time></trkpt><trkpt lat="40.6064259" lon="9.6182652"><ele>157.0</ele><time>2026-03-29T13:54:36.262Z</time></trkpt><trkpt lat="40.6064721" lon="9.6184363"><ele>157.0</ele><time>2026-03-29T13:54:37.275Z</time></trkpt><trkpt lat="40.6065046" lon="9.6186191"><ele>157.0</ele><time>2026-03-29T13:54:38.253Z</time></trkpt><trkpt lat="40.6065245" lon="9.6187677"><ele>158.0</ele><time>2026-03-29T13:54:39.26Z</time></trkpt><trkpt lat="40.606504" lon="9.6189074"><ele>159.0</ele><time>2026-03-29T13:54:41.257Z</time></trkpt><trkpt lat="40.6063943" lon="9.6189489"><ele>160.0</ele><time>2026-03-29T13:54:43.266Z</time></trkpt><trkpt lat="40.6063132" lon="9.6189543"><ele>161.0</ele><time>2026-03-29T13:54:44.265Z</time></trkpt><trkpt lat="40.6062396" lon="9.6189754"><ele>162.0</ele><time>2026-03-29T13:54:45.257Z</time></trkpt><trkpt lat="40.6061594" lon="9.6190079"><ele>164.8</ele><time>2026-03-29T13:54:47.26Z</time></trkpt><trkpt lat="40.6060953" lon="9.6190343"><ele>167.6</ele><time>2026-03-29T13:54:55.265Z</time></trkpt><trkpt lat="40.6059951" lon="9.6190887"><ele>170.4</ele><time>2026-03-29T13:54:57.265Z</time></trkpt><trkpt lat="40.605931" lon="9.6191539"><ele>173.20000000000002</ele><time>2026-03-29T13:54:59.256Z</time></trkpt><trkpt lat="40.6060142" lon="9.6193017"><ele>176.0</ele><time>2026-03-29T13:55:01.271Z</time></trkpt><trkpt lat="40.606081" lon="9.6193838"><ele>173.66666666666666</ele><time>2026-03-29T13:55:02.27Z</time></trkpt><trkpt lat="40.6061693" lon="9.6194382"><ele>171.33333333333331</ele><time>2026-03-29T13:55:03.296Z</time></trkpt><trkpt lat="40.6062501" lon="9.6194705"><ele>169.0</ele><time>2026-03-29T13:55:04.26Z</time></trkpt><trkpt lat="40.6063154" lon="9.6195001"><ele>166.66666666666666</ele><time>2026-03-29T13:55:05.264Z</time></trkpt><trkpt lat="40.6063711" lon="9.619559"><ele>164.33333333333334</ele><time>2026-03-29T13:55:06.261Z</time></trkpt><trkpt lat="40.6064156" lon="9.6196368"><ele>162.0</ele><time>2026-03-29T13:55:07.258Z</time></trkpt><trkpt lat="40.6064418" lon="9.6197499"><ele>161.75</ele><time>2026-03-29T13:55:08.263Z</time></trkpt><trkpt lat="40.60646" lon="9.6198865"><ele>161.5</ele><time>2026-03-29T13:55:09.258Z</time></trkpt><trkpt lat="40.606483" lon="9.6200304"><ele>161.25</ele><time>2026-03-29T13:55:10.278Z</time></trkpt><trkpt lat="40.6065289" lon="9.6201671"><ele>161.0</ele><time>2026-03-29T13:55:11.269Z</time></trkpt><trkpt lat="40.606589" lon="9.6203042"><ele>159.4</ele><time>2026-03-29T13:55:12.257Z</time></trkpt><trkpt lat="40.6066442" lon="9.6204308"><ele>157.8</ele><time>2026-03-29T13:55:13.259Z</time></trkpt><trkpt lat="40.6066997" lon="9.6205365"><ele>156.20000000000002</ele><time>2026-03-29T13:55:14.259Z</time></trkpt><trkpt lat="40.6067684" lon="9.6206385"><ele>154.60000000000002</ele><time>2026-03-29T13:55:15.263Z</time></trkpt><trkpt lat="40.6068546" lon="9.6207218"><ele>153.0</ele><time>2026-03-29T13:55:16.258Z</time></trkpt><trkpt lat="40.606936" lon="9.6208011"><ele>150.83333333333334</ele><time>2026-03-29T13:55:17.274Z</time></trkpt><trkpt lat="40.6070033" lon="9.6208846"><ele>148.66666666666666</ele><time>2026-03-29T13:55:18.258Z</time></trkpt><trkpt lat="40.6070517" lon="9.6209885"><ele>146.5</ele><time>2026-03-29T13:55:19.257Z</time></trkpt><trkpt lat="40.6070959" lon="9.6210977"><ele>144.33333333333331</ele><time>2026-03-29T13:55:20.26Z</time></trkpt><trkpt lat="40.6071276" lon="9.6211903"><ele>142.16666666666666</ele><time>2026-03-29T13:55:21.263Z</time></trkpt><trkpt lat="40.6071457" lon="9.6212992"><ele>140.0</ele><time>2026-03-29T13:55:23.261Z</time></trkpt><trkpt lat="40.6070898" lon="9.6213648"><ele>140.6</ele><time>2026-03-29T13:55:25.274Z</time></trkpt><trkpt lat="40.6070135" lon="9.6213576"><ele>141.2</ele><time>2026-03-29T13:55:26.267Z</time></trkpt><trkpt lat="40.6069158" lon="9.6213336"><ele>141.8</ele><time>2026-03-29T13:55:27.257Z</time></trkpt><trkpt lat="40.6067901" lon="9.6213065"><ele>142.4</ele><time>2026-03-29T13:55:28.256Z</time></trkpt><trkpt lat="40.6066697" lon="9.6212976"><ele>143.0</ele><time>2026-03-29T13:55:29.259Z</time></trkpt><trkpt lat="40.6065519" lon="9.6212907"><ele>143.0</ele><time>2026-03-29T13:55:30.258Z</time></trkpt><trkpt lat="40.606462" lon="9.6212804"><ele>143.0</ele><time>2026-03-29T13:55:31.257Z</time></trkpt><trkpt lat="40.6063585" lon="9.6212802"><ele>143.0</ele><time>2026-03-29T13:55:33.261Z</time></trkpt><trkpt lat="40.6063256" lon="9.6214273"><ele>143.0</ele><time>2026-03-29T13:55:35.263Z</time></trkpt><trkpt lat="40.6063456" lon="9.6215228"><ele>143.0</ele><time>2026-03-29T13:55:36.264Z</time></trkpt><trkpt lat="40.6063676" lon="9.6216218"><ele>143.0</ele><time>2026-03-29T13:55:37.283Z</time></trkpt><trkpt lat="40.6064072" lon="9.621705"><ele>143.0</ele><time>2026-03-29T13:55:38.267Z</time></trkpt><trkpt lat="40.6064346" lon="9.6218166"><ele>143.0</ele><time>2026-03-29T13:55:40.255Z</time></trkpt><trkpt lat="40.6064968" lon="9.6218475"><ele>143.0</ele><time>2026-03-29T13:55:41.26Z</time></trkpt><trkpt lat="40.6065903" lon="9.6218563"><ele>143.0</ele><time>2026-03-29T13:55:42.288Z</time></trkpt><trkpt lat="40.6066793" lon="9.6218425"><ele>143.0</ele><time>2026-03-29T13:55:43.261Z</time></trkpt><trkpt lat="40.6067669" lon="9.6218231"><ele>143.0</ele><time>2026-03-29T13:55:44.266Z</time></trkpt><trkpt lat="40.6068547" lon="9.6218082"><ele>143.0</ele><time>2026-03-29T13:55:45.263Z</time></trkpt><trkpt lat="40.6069441" lon="9.6217954"><ele>143.0</ele><time>2026-03-29T13:55:46.26Z</time></trkpt><trkpt lat="40.6070566" lon="9.6218299"><ele>143.0</ele><time>2026-03-29T13:55:47.275Z</time></trkpt><trkpt lat="40.607176" lon="9.6218925"><ele>143.0</ele><time>2026-03-29T13:55:48.26Z</time></trkpt><trkpt lat="40.6072857" lon="9.6219476"><ele>141.0</ele><time>2026-03-29T13:55:49.255Z</time></trkpt><trkpt lat="40.6073857" lon="9.6220114"><ele>139.0</ele><time>2026-03-29T13:55:50.259Z</time></trkpt><trkpt lat="40.6074782" lon="9.6220812"><ele>137.0</ele><time>2026-03-29T13:55:51.258Z</time></trkpt><trkpt lat="40.6075658" lon="9.6221492"><ele>135.0</ele><time>2026-03-29T13:55:52.257Z</time></trkpt><trkpt lat="40.6076418" lon="9.6222127"><ele>133.0</ele><time>2026-03-29T13:55:53.272Z</time></trkpt><trkpt lat="40.6076884" lon="9.6222705"><ele>133.0</ele><time>2026-03-29T13:55:54.258Z</time></trkpt><trkpt lat="40.6077153" lon="9.6223976"><ele>133.0</ele><time>2026-03-29T13:55:56.26Z</time></trkpt><trkpt lat="40.607698" lon="9.6224919"><ele>133.0</ele><time>2026-03-29T13:55:57.259Z</time></trkpt><trkpt lat="40.6076824" lon="9.6226184"><ele>133.0</ele><time>2026-03-29T13:55:58.266Z</time></trkpt><trkpt lat="40.6076688" lon="9.6227186"><ele>133.0</ele><time>2026-03-29T13:55:59.266Z</time></trkpt><trkpt lat="40.6076233" lon="9.6228115"><ele>133.0</ele><time>2026-03-29T13:56:01.258Z</time></trkpt><trkpt lat="40.6075408" lon="9.6228318"><ele>133.0</ele><time>2026-03-29T13:56:03.264Z</time></trkpt><trkpt lat="40.6074123" lon="9.6227539"><ele>133.0</ele><time>2026-03-29T13:56:05.264Z</time></trkpt><trkpt lat="40.6073292" lon="9.6226919"><ele>133.0</ele><time>2026-03-29T13:56:06.258Z</time></trkpt><trkpt lat="40.6072262" lon="9.6226404"><ele>133.0</ele><time>2026-03-29T13:56:07.266Z</time></trkpt><trkpt lat="40.6071287" lon="9.6226291"><ele>133.0</ele><time>2026-03-29T13:56:08.261Z</time></trkpt><trkpt lat="40.6070698" lon="9.6226639"><ele>133.0</ele><time>2026-03-29T13:56:09.264Z</time></trkpt><trkpt lat="40.6070202" lon="9.6227325"><ele>133.0</ele><time>2026-03-29T13:56:11.263Z</time></trkpt><trkpt lat="40.6070614" lon="9.6228179"><ele>133.0</ele><time>2026-03-29T13:56:14.265Z</time></trkpt><trkpt lat="40.6071683" lon="9.6228645"><ele>133.0</ele><time>2026-03-29T13:56:16.266Z</time></trkpt><trkpt lat="40.6072749" lon="9.6229511"><ele>133.0</ele><time>2026-03-29T13:56:18.26Z</time></trkpt><trkpt lat="40.6073227" lon="9.6230431"><ele>136.20000000000002</ele><time>2026-03-29T13:56:19.26Z</time></trkpt><trkpt lat="40.6073675" lon="9.6231714"><ele>139.4</ele><time>2026-03-29T13:56:20.273Z</time></trkpt><trkpt lat="40.6074116" lon="9.6233034"><ele>142.60000000000002</ele><time>2026-03-29T13:56:21.263Z</time></trkpt><trkpt lat="40.6074518" lon="9.6234052"><ele>145.8</ele><time>2026-03-29T13:56:22.26Z</time></trkpt><trkpt lat="40.6075022" lon="9.6234823"><ele>149.0</ele><time>2026-03-29T13:56:23.264Z</time></trkpt><trkpt lat="40.6075731" lon="9.6235088"><ele>149.0</ele><time>2026-03-29T13:56:24.255Z</time></trkpt><trkpt lat="40.6076544" lon="9.6235437"><ele>149.0</ele><time>2026-03-29T13:56:25.27Z</time></trkpt><trkpt lat="40.607738" lon="9.6235633"><ele>149.0</ele><time>2026-03-29T13:56:26.261Z</time></trkpt><trkpt lat="40.6078024" lon="9.6235956"><ele>149.0</ele><time>2026-03-29T13:56:27.262Z</time></trkpt><trkpt lat="40.6078618" lon="9.6236797"><ele>149.0</ele><time>2026-03-29T13:56:28.266Z</time></trkpt><trkpt lat="40.6079086" lon="9.6238219"><ele>149.0</ele><time>2026-03-29T13:56:29.264Z</time></trkpt><trkpt lat="40.6079633" lon="9.6239807"><ele>150.2</ele><time>2026-03-29T13:56:30.275Z</time></trkpt><trkpt lat="40.6080113" lon="9.6241016"><ele>151.4</ele><time>2026-03-29T13:56:31.259Z</time></trkpt><trkpt lat="40.6080511" lon="9.6242028"><ele>152.6</ele><time>2026-03-29T13:56:32.262Z</time></trkpt><trkpt lat="40.6080811" lon="9.6242927"><ele>153.8</ele><time>2026-03-29T13:56:33.265Z</time></trkpt><trkpt lat="40.6081051" lon="9.6244484"><ele>155.0</ele><time>2026-03-29T13:56:35.267Z</time></trkpt><trkpt lat="40.6082101" lon="9.6245122"><ele>155.0</ele><time>2026-03-29T13:56:37.278Z</time></trkpt><trkpt lat="40.6082815" lon="9.6244803"><ele>155.0</ele><time>2026-03-29T13:56:38.26Z</time></trkpt><trkpt lat="40.6083588" lon="9.624447"><ele>155.0</ele><time>2026-03-29T13:56:39.264Z</time></trkpt><trkpt lat="40.6084271" lon="9.6244007"><ele>155.0</ele><time>2026-03-29T13:56:40.264Z</time></trkpt><trkpt lat="40.6084703" lon="9.6243395"><ele>155.0</ele><time>2026-03-29T13:56:41.26Z</time></trkpt><trkpt lat="40.6085173" lon="9.6241823"><ele>155.0</ele><time>2026-03-29T13:56:43.264Z</time></trkpt><trkpt lat="40.6085046" lon="9.6240583"><ele>155.0</ele><time>2026-03-29T13:56:44.28Z</time></trkpt><trkpt lat="40.6084858" lon="9.6239299"><ele>155.0</ele><time>2026-03-29T13:56:45.259Z</time></trkpt><trkpt lat="40.6084701" lon="9.6238078"><ele>155.0</ele><time>2026-03-29T13:56:46.266Z</time></trkpt><trkpt lat="40.6084697" lon="9.6236828"><ele>155.0</ele><time>2026-03-29T13:56:47.265Z</time></trkpt><trkpt lat="40.6084784" lon="9.6235787"><ele>155.0</ele><time>2026-03-29T13:56:48.264Z</time></trkpt><trkpt lat="40.6084922" lon="9.6234859"><ele>155.0</ele><time>2026-03-29T13:56:49.291Z</time></trkpt><trkpt lat="40.6085141" lon="9.6233927"><ele>154.0</ele><time>2026-03-29T13:56:50.263Z</time></trkpt><trkpt lat="40.6084868" lon="9.6232415"><ele>153.0</ele><time>2026-03-29T13:56:52.26Z</time></trkpt><trkpt lat="40.6084296" lon="9.6231695"><ele>152.0</ele><time>2026-03-29T13:56:53.266Z</time></trkpt><trkpt lat="40.6083789" lon="9.6230745"><ele>151.0</ele><time>2026-03-29T13:56:54.263Z</time></trkpt><trkpt lat="40.6083464" lon="9.6229842"><ele>150.0</ele><time>2026-03-29T13:56:55.282Z</time></trkpt><trkpt lat="40.6083398" lon="9.6228847"><ele>149.0</ele><time>2026-03-29T13:56:56.261Z</time></trkpt><trkpt lat="40.6083754" lon="9.6227823"><ele>147.4</ele><time>2026-03-29T13:56:57.259Z</time></trkpt><trkpt lat="40.6084216" lon="9.6226852"><ele>145.8</ele><time>2026-03-29T13:56:58.263Z</time></trkpt><trkpt lat="40.6084599" lon="9.6225841"><ele>144.2</ele><time>2026-03-29T13:56:59.258Z</time></trkpt><trkpt lat="40.608482" lon="9.6224647"><ele>142.6</ele><time>2026-03-29T13:57:00.316Z</time></trkpt><trkpt lat="40.6084977" lon="9.6222985"><ele>141.0</ele><time>2026-03-29T13:57:01.262Z</time></trkpt><trkpt lat="40.6085056" lon="9.6221242"><ele>138.75</ele><time>2026-03-29T13:57:02.264Z</time></trkpt><trkpt lat="40.6085049" lon="9.6219502"><ele>136.5</ele><time>2026-03-29T13:57:03.266Z</time></trkpt><trkpt lat="40.6085028" lon="9.621801"><ele>134.25</ele><time>2026-03-29T13:57:04.263Z</time></trkpt><trkpt lat="40.6085018" lon="9.6216528"><ele>132.0</ele><time>2026-03-29T13:57:05.274Z</time></trkpt><trkpt lat="40.6084966" lon="9.6215129"><ele>132.0</ele><time>2026-03-29T13:57:06.264Z</time></trkpt><trkpt lat="40.6084929" lon="9.6213818"><ele>132.0</ele><time>2026-03-29T13:57:07.258Z</time></trkpt><trkpt lat="40.6084919" lon="9.6212491"><ele>132.0</ele><time>2026-03-29T13:57:08.265Z</time></trkpt><trkpt lat="40.6084951" lon="9.6211294"><ele>132.0</ele><time>2026-03-29T13:57:09.261Z</time></trkpt><trkpt lat="40.6085156" lon="9.6210268"><ele>132.0</ele><time>2026-03-29T13:57:10.267Z</time></trkpt><trkpt lat="40.6085464" lon="9.6209455"><ele>132.0</ele><time>2026-03-29T13:57:11.271Z</time></trkpt><trkpt lat="40.6086043" lon="9.6208994"><ele>131.4</ele><time>2026-03-29T13:57:12.265Z</time></trkpt><trkpt lat="40.6086783" lon="9.6207944"><ele>130.79999999999998</ele><time>2026-03-29T13:57:14.274Z</time></trkpt><trkpt lat="40.6086585" lon="9.6206417"><ele>130.2</ele><time>2026-03-29T13:57:16.261Z</time></trkpt><trkpt lat="40.6086207" lon="9.6205423"><ele>129.6</ele><time>2026-03-29T13:57:17.256Z</time></trkpt><trkpt lat="40.6085901" lon="9.6204317"><ele>129.0</ele><time>2026-03-29T13:57:18.257Z</time></trkpt><trkpt lat="40.6085972" lon="9.6203007"><ele>128.5</ele><time>2026-03-29T13:57:19.26Z</time></trkpt><trkpt lat="40.6086367" lon="9.6201351"><ele>128.0</ele><time>2026-03-29T13:57:20.259Z</time></trkpt><trkpt lat="40.6086803" lon="9.6199598"><ele>127.5</ele><time>2026-03-29T13:57:21.278Z</time></trkpt><trkpt lat="40.6087322" lon="9.6197726"><ele>127.0</ele><time>2026-03-29T13:57:22.254Z</time></trkpt><trkpt lat="40.608784" lon="9.619594"><ele>129.25</ele><time>2026-03-29T13:57:23.257Z</time></trkpt><trkpt lat="40.6088337" lon="9.6194253"><ele>131.5</ele><time>2026-03-29T13:57:24.262Z</time></trkpt><trkpt lat="40.6088878" lon="9.6192566"><ele>133.75</ele><time>2026-03-29T13:57:25.264Z</time></trkpt><trkpt lat="40.6089419" lon="9.6191057"><ele>136.0</ele><time>2026-03-29T13:57:26.261Z</time></trkpt><trkpt lat="40.6089942" lon="9.6189752"><ele>136.0</ele><time>2026-03-29T13:57:27.283Z</time></trkpt><trkpt lat="40.6090422" lon="9.6188865"><ele>136.0</ele><time>2026-03-29T13:57:28.256Z</time></trkpt><trkpt lat="40.6091489" lon="9.6187817"><ele>136.0</ele><time>2026-03-29T13:57:30.263Z</time></trkpt><trkpt lat="40.6092342" lon="9.6187486"><ele>136.0</ele><time>2026-03-29T13:57:31.274Z</time></trkpt><trkpt lat="40.6093481" lon="9.6187005"><ele>136.0</ele><time>2026-03-29T13:57:32.263Z</time></trkpt><trkpt lat="40.609461" lon="9.6186503"><ele>136.6</ele><time>2026-03-29T13:57:33.267Z</time></trkpt><trkpt lat="40.6095663" lon="9.6186031"><ele>137.2</ele><time>2026-03-29T13:57:34.264Z</time></trkpt><trkpt lat="40.6096643" lon="9.6185758"><ele>137.8</ele><time>2026-03-29T13:57:35.27Z</time></trkpt><trkpt lat="40.6097551" lon="9.6185948"><ele>138.4</ele><time>2026-03-29T13:57:36.276Z</time></trkpt><trkpt lat="40.6098465" lon="9.6186453"><ele>139.0</ele><time>2026-03-29T13:57:37.265Z</time></trkpt><trkpt lat="40.6099373" lon="9.6187015"><ele>139.0</ele><time>2026-03-29T13:57:38.264Z</time></trkpt><trkpt lat="40.6100146" lon="9.6187887"><ele>139.0</ele><time>2026-03-29T13:57:39.266Z</time></trkpt><trkpt lat="40.6100898" lon="9.6188704"><ele>139.0</ele><time>2026-03-29T13:57:40.265Z</time></trkpt><trkpt lat="40.6101761" lon="9.618891"><ele>139.0</ele><time>2026-03-29T13:57:41.266Z</time></trkpt><trkpt lat="40.6102576" lon="9.6188697"><ele>139.0</ele><time>2026-03-29T13:57:42.28Z</time></trkpt><trkpt lat="40.6103445" lon="9.6188122"><ele>139.5</ele><time>2026-03-29T13:57:43.26Z</time></trkpt><trkpt lat="40.610446" lon="9.61872"><ele>140.0</ele><time>2026-03-29T13:57:44.261Z</time></trkpt><trkpt lat="40.6105549" lon="9.618628"><ele>140.5</ele><time>2026-03-29T13:57:45.263Z</time></trkpt><trkpt lat="40.6106697" lon="9.6185484"><ele>141.0</ele><time>2026-03-29T13:57:46.257Z</time></trkpt><trkpt lat="40.610793" lon="9.6184773"><ele>138.33333333333334</ele><time>2026-03-29T13:57:47.278Z</time></trkpt><trkpt lat="40.610886" lon="9.6184076"><ele>135.66666666666666</ele><time>2026-03-29T13:57:48.259Z</time></trkpt><trkpt lat="40.6109559" lon="9.6183247"><ele>133.0</ele><time>2026-03-29T13:57:49.258Z</time></trkpt><trkpt lat="40.6110252" lon="9.6182408"><ele>130.33333333333331</ele><time>2026-03-29T13:57:50.259Z</time></trkpt><trkpt lat="40.611072" lon="9.6181509"><ele>127.66666666666666</ele><time>2026-03-29T13:57:51.262Z</time></trkpt><trkpt lat="40.6111" lon="9.6180705"><ele>125.0</ele><time>2026-03-29T13:57:52.291Z</time></trkpt><trkpt lat="40.6111053" lon="9.6179769"><ele>125.0</ele><time>2026-03-29T13:57:53.259Z</time></trkpt><trkpt lat="40.6110899" lon="9.6178915"><ele>125.0</ele><time>2026-03-29T13:57:54.255Z</time></trkpt><trkpt lat="40.611049" lon="9.6177921"><ele>125.0</ele><time>2026-03-29T13:57:55.261Z</time></trkpt><trkpt lat="40.610997" lon="9.617678"><ele>125.0</ele><time>2026-03-29T13:57:56.258Z</time></trkpt><trkpt lat="40.6109468" lon="9.6175634"><ele>125.0</ele><time>2026-03-29T13:57:57.273Z</time></trkpt><trkpt lat="40.6108967" lon="9.6174525"><ele>123.33333333333333</ele><time>2026-03-29T13:57:58.262Z</time></trkpt><trkpt lat="40.6108549" lon="9.6173559"><ele>121.66666666666666</ele><time>2026-03-29T13:57:59.265Z</time></trkpt><trkpt lat="40.6108131" lon="9.6172555"><ele>120.0</ele><time>2026-03-29T13:58:00.26Z</time></trkpt><trkpt lat="40.6107822" lon="9.6171555"><ele>118.33333333333334</ele><time>2026-03-29T13:58:01.264Z</time></trkpt><trkpt lat="40.6107642" lon="9.6170369"><ele>116.66666666666667</ele><time>2026-03-29T13:58:02.26Z</time></trkpt><trkpt lat="40.6107558" lon="9.616934"><ele>115.0</ele><time>2026-03-29T13:58:03.27Z</time></trkpt><trkpt lat="40.6107496" lon="9.6168441"><ele>113.0</ele><time>2026-03-29T13:58:04.261Z</time></trkpt><trkpt lat="40.6107644" lon="9.6167402"><ele>111.0</ele><time>2026-03-29T13:58:06.261Z</time></trkpt><trkpt lat="40.6108811" lon="9.6166782"><ele>109.0</ele><time>2026-03-29T13:58:08.27Z</time></trkpt><trkpt lat="40.6109749" lon="9.6166571"><ele>107.0</ele><time>2026-03-29T13:58:09.262Z</time></trkpt><trkpt lat="40.6110777" lon="9.6166325"><ele>105.0</ele><time>2026-03-29T13:58:10.267Z</time></trkpt><trkpt lat="40.6111799" lon="9.6166041"><ele>104.33333333333333</ele><time>2026-03-29T13:58:11.262Z</time></trkpt><trkpt lat="40.6112793" lon="9.6165742"><ele>103.66666666666666</ele><time>2026-03-29T13:58:12.256Z</time></trkpt><trkpt lat="40.6113737" lon="9.6165459"><ele>103.0</ele><time>2026-03-29T13:58:13.264Z</time></trkpt><trkpt lat="40.6114583" lon="9.6165301"><ele>102.33333333333333</ele><time>2026-03-29T13:58:14.258Z</time></trkpt><trkpt lat="40.6115306" lon="9.6165143"><ele>101.66666666666666</ele><time>2026-03-29T13:58:15.273Z</time></trkpt><trkpt lat="40.6116036" lon="9.6165113"><ele>101.0</ele><time>2026-03-29T13:58:16.259Z</time></trkpt><trkpt lat="40.6116879" lon="9.6165433"><ele>101.0</ele><time>2026-03-29T13:58:17.264Z</time></trkpt><trkpt lat="40.6117713" lon="9.6166011"><ele>101.0</ele><time>2026-03-29T13:58:18.257Z</time></trkpt><trkpt lat="40.6118515" lon="9.6166706"><ele>101.0</ele><time>2026-03-29T13:58:19.265Z</time></trkpt><trkpt lat="40.6119228" lon="9.6167622"><ele>101.0</ele><time>2026-03-29T13:58:20.262Z</time></trkpt><trkpt lat="40.6119812" lon="9.6168539"><ele>101.0</ele><time>2026-03-29T13:58:21.262Z</time></trkpt><trkpt lat="40.6120348" lon="9.6169219"><ele>101.8</ele><time>2026-03-29T13:58:22.262Z</time></trkpt><trkpt lat="40.6121235" lon="9.6169037"><ele>102.6</ele><time>2026-03-29T13:58:24.274Z</time></trkpt><trkpt lat="40.6121989" lon="9.6168038"><ele>103.4</ele><time>2026-03-29T13:58:26.291Z</time></trkpt><trkpt lat="40.6122215" lon="9.6167041"><ele>104.2</ele><time>2026-03-29T13:58:27.277Z</time></trkpt><trkpt lat="40.6122204" lon="9.6165809"><ele>105.0</ele><time>2026-03-29T13:58:28.268Z</time></trkpt><trkpt lat="40.6122228" lon="9.6164506"><ele>105.0</ele><time>2026-03-29T13:58:29.269Z</time></trkpt><trkpt lat="40.6122477" lon="9.6163044"><ele>105.0</ele><time>2026-03-29T13:58:30.27Z</time></trkpt><trkpt lat="40.6122788" lon="9.6161462"><ele>105.0</ele><time>2026-03-29T13:58:31.261Z</time></trkpt><trkpt lat="40.6123198" lon="9.6159824"><ele>105.0</ele><time>2026-03-29T13:58:32.262Z</time></trkpt><trkpt lat="40.6123544" lon="9.6158248"><ele>104.0</ele><time>2026-03-29T13:58:33.26Z</time></trkpt><trkpt lat="40.6123859" lon="9.6156787"><ele>103.0</ele><time>2026-03-29T13:58:34.263Z</time></trkpt><trkpt lat="40.6124141" lon="9.6155309"><ele>102.0</ele><time>2026-03-29T13:58:35.259Z</time></trkpt><trkpt lat="40.6124518" lon="9.6153962"><ele>101.0</ele><time>2026-03-29T13:58:36.267Z</time></trkpt><trkpt lat="40.6124954" lon="9.6152846"><ele>100.0</ele><time>2026-03-29T13:58:37.258Z</time></trkpt><trkpt lat="40.6125522" lon="9.6151863"><ele>98.33333333333334</ele><time>2026-03-29T13:58:38.262Z</time></trkpt><trkpt lat="40.6126143" lon="9.6151058"><ele>96.66666666666667</ele><time>2026-03-29T13:58:39.263Z</time></trkpt><trkpt lat="40.6126838" lon="9.6150496"><ele>95.0</ele><time>2026-03-29T13:58:40.26Z</time></trkpt><trkpt lat="40.6127643" lon="9.6150231"><ele>93.33333333333334</ele><time>2026-03-29T13:58:41.271Z</time></trkpt><trkpt lat="40.6128432" lon="9.6150049"><ele>91.66666666666667</ele><time>2026-03-29T13:58:42.266Z</time></trkpt><trkpt lat="40.6129387" lon="9.6150121"><ele>90.0</ele><time>2026-03-29T13:58:43.261Z</time></trkpt><trkpt lat="40.6130509" lon="9.6150457"><ele>90.0</ele><time>2026-03-29T13:58:44.26Z</time></trkpt><trkpt lat="40.6131624" lon="9.615089"><ele>90.0</ele><time>2026-03-29T13:58:45.259Z</time></trkpt><trkpt lat="40.6132664" lon="9.6151426"><ele>90.0</ele><time>2026-03-29T13:58:46.261Z</time></trkpt><trkpt lat="40.6133447" lon="9.615186"><ele>90.0</ele><time>2026-03-29T13:58:47.261Z</time></trkpt><trkpt lat="40.6134246" lon="9.6152315"><ele>90.0</ele><time>2026-03-29T13:58:48.259Z</time></trkpt><trkpt lat="40.6135162" lon="9.6152441"><ele>90.0</ele><time>2026-03-29T13:58:49.261Z</time></trkpt><trkpt lat="40.6136116" lon="9.6152282"><ele>90.0</ele><time>2026-03-29T13:58:50.272Z</time></trkpt><trkpt lat="40.6137218" lon="9.6151985"><ele>90.0</ele><time>2026-03-29T13:58:51.256Z</time></trkpt><trkpt lat="40.6138153" lon="9.6151449"><ele>90.0</ele><time>2026-03-29T13:58:52.263Z</time></trkpt><trkpt lat="40.6138933" lon="9.615093"><ele>90.0</ele><time>2026-03-29T13:58:53.26Z</time></trkpt><trkpt lat="40.6139533" lon="9.6149941"><ele>89.4</ele><time>2026-03-29T13:58:54.263Z</time></trkpt><trkpt lat="40.6140003" lon="9.6148871"><ele>88.8</ele><time>2026-03-29T13:58:55.268Z</time></trkpt><trkpt lat="40.6140386" lon="9.6147508"><ele>88.19999999999999</ele><time>2026-03-29T13:58:56.257Z</time></trkpt><trkpt lat="40.6140857" lon="9.6146253"><ele>87.6</ele><time>2026-03-29T13:58:57.266Z</time></trkpt><trkpt lat="40.614134" lon="9.6145185"><ele>87.0</ele><time>2026-03-29T13:58:58.259Z</time></trkpt><trkpt lat="40.6141763" lon="9.6144336"><ele>87.0</ele><time>2026-03-29T13:58:59.27Z</time></trkpt><trkpt lat="40.6142461" lon="9.6143328"><ele>87.0</ele><time>2026-03-29T13:59:01.258Z</time></trkpt><trkpt lat="40.6143797" lon="9.6143638"><ele>87.0</ele><time>2026-03-29T13:59:03.26Z</time></trkpt><trkpt lat="40.6144737" lon="9.6144279"><ele>87.0</ele><time>2026-03-29T13:59:04.266Z</time></trkpt><trkpt lat="40.6145815" lon="9.614496"><ele>91.0</ele><time>2026-03-29T13:59:05.258Z</time></trkpt><trkpt lat="40.6146981" lon="9.6145369"><ele>95.0</ele><time>2026-03-29T13:59:06.266Z</time></trkpt><trkpt lat="40.6148133" lon="9.6145837"><ele>99.0</ele><time>2026-03-29T13:59:07.265Z</time></trkpt><trkpt lat="40.6149324" lon="9.6146304"><ele>103.0</ele><time>2026-03-29T13:59:08.259Z</time></trkpt><trkpt lat="40.6150561" lon="9.614676"><ele>103.0</ele><time>2026-03-29T13:59:09.262Z</time></trkpt><trkpt lat="40.6151855" lon="9.614707"><ele>103.0</ele><time>2026-03-29T13:59:10.261Z</time></trkpt><trkpt lat="40.615313" lon="9.614735"><ele>103.0</ele><time>2026-03-29T13:59:11.279Z</time></trkpt><trkpt lat="40.6154541" lon="9.6147994"><ele>103.0</ele><time>2026-03-29T13:59:12.266Z</time></trkpt><trkpt lat="40.6155804" lon="9.6148775"><ele>100.0</ele><time>2026-03-29T13:59:13.262Z</time></trkpt><trkpt lat="40.6157037" lon="9.6149585"><ele>97.0</ele><time>2026-03-29T13:59:14.262Z</time></trkpt><trkpt lat="40.615797" lon="9.6150245"><ele>94.0</ele><time>2026-03-29T13:59:15.262Z</time></trkpt><trkpt lat="40.6158679" lon="9.6150653"><ele>91.0</ele><time>2026-03-29T13:59:16.263Z</time></trkpt><trkpt lat="40.6159519" lon="9.6150504"><ele>88.0</ele><time>2026-03-29T13:59:17.265Z</time></trkpt><trkpt lat="40.6160508" lon="9.6150319"><ele>85.0</ele><time>2026-03-29T13:59:18.269Z</time></trkpt><trkpt lat="40.6161627" lon="9.6150119"><ele>82.0</ele><time>2026-03-29T13:59:19.264Z</time></trkpt><trkpt lat="40.616287" lon="9.6150114"><ele>79.0</ele><time>2026-03-29T13:59:20.264Z</time></trkpt><trkpt lat="40.6164271" lon="9.6150362"><ele>76.0</ele><time>2026-03-29T13:59:21.261Z</time></trkpt><trkpt lat="40.6165615" lon="9.6150507"><ele>76.0</ele><time>2026-03-29T13:59:22.257Z</time></trkpt><trkpt lat="40.6166905" lon="9.6150353"><ele>76.0</ele><time>2026-03-29T13:59:23.26Z</time></trkpt><trkpt lat="40.6168215" lon="9.6150036"><ele>76.0</ele><time>2026-03-29T13:59:24.26Z</time></trkpt><trkpt lat="40.6169557" lon="9.6149723"><ele>76.0</ele><time>2026-03-29T13:59:25.261Z</time></trkpt><trkpt lat="40.6170647" lon="9.6149275"><ele>74.0</ele><time>2026-03-29T13:59:26.257Z</time></trkpt><trkpt lat="40.6171622" lon="9.6148694"><ele>72.0</ele><time>2026-03-29T13:59:27.293Z</time></trkpt><trkpt lat="40.6172389" lon="9.6147763"><ele>70.0</ele><time>2026-03-29T13:59:28.265Z</time></trkpt><trkpt lat="40.6173082" lon="9.6146409"><ele>68.0</ele><time>2026-03-29T13:59:29.258Z</time></trkpt><trkpt lat="40.6173938" lon="9.6144801"><ele>68.0</ele><time>2026-03-29T13:59:30.26Z</time></trkpt><trkpt lat="40.6174903" lon="9.6143088"><ele>68.0</ele><time>2026-03-29T13:59:31.265Z</time></trkpt><trkpt lat="40.6175811" lon="9.6141495"><ele>68.0</ele><time>2026-03-29T13:59:32.267Z</time></trkpt><trkpt lat="40.6176652" lon="9.6140072"><ele>68.0</ele><time>2026-03-29T13:59:33.265Z</time></trkpt><trkpt lat="40.6177433" lon="9.6138693"><ele>68.0</ele><time>2026-03-29T13:59:34.29Z</time></trkpt><trkpt lat="40.617814" lon="9.6137408"><ele>68.0</ele><time>2026-03-29T13:59:35.262Z</time></trkpt><trkpt lat="40.6178785" lon="9.6136375"><ele>68.0</ele><time>2026-03-29T13:59:36.267Z</time></trkpt><trkpt lat="40.61795" lon="9.6135469"><ele>67.2</ele><time>2026-03-29T13:59:37.274Z</time></trkpt><trkpt lat="40.6180181" lon="9.6134647"><ele>66.4</ele><time>2026-03-29T13:59:38.267Z</time></trkpt><trkpt lat="40.6180806" lon="9.6133851"><ele>65.60000000000001</ele><time>2026-03-29T13:59:39.292Z</time></trkpt><trkpt lat="40.6181414" lon="9.6133033"><ele>64.8</ele><time>2026-03-29T13:59:40.269Z</time></trkpt><trkpt lat="40.6182046" lon="9.6132063"><ele>64.0</ele><time>2026-03-29T13:59:41.265Z</time></trkpt><trkpt lat="40.6182715" lon="9.6131091"><ele>64.0</ele><time>2026-03-29T13:59:42.256Z</time></trkpt><trkpt lat="40.6183382" lon="9.6130171"><ele>64.0</ele><time>2026-03-29T13:59:43.268Z</time></trkpt><trkpt lat="40.6184182" lon="9.6129498"><ele>64.0</ele><time>2026-03-29T13:59:44.263Z</time></trkpt><trkpt lat="40.6185177" lon="9.6128919"><ele>64.0</ele><time>2026-03-29T13:59:45.266Z</time></trkpt><trkpt lat="40.6186396" lon="9.6128321"><ele>64.0</ele><time>2026-03-29T13:59:46.266Z</time></trkpt><trkpt lat="40.6187688" lon="9.6127715"><ele>63.33333333333333</ele><time>2026-03-29T13:59:47.264Z</time></trkpt><trkpt lat="40.6188786" lon="9.6127298"><ele>62.666666666666664</ele><time>2026-03-29T13:59:48.265Z</time></trkpt><trkpt lat="40.6189743" lon="9.6126921"><ele>62.0</ele><time>2026-03-29T13:59:49.26Z</time></trkpt><trkpt lat="40.619046" lon="9.6126881"><ele>61.33333333333333</ele><time>2026-03-29T13:59:50.263Z</time></trkpt><trkpt lat="40.6191284" lon="9.6127188"><ele>60.666666666666664</ele><time>2026-03-29T13:59:51.26Z</time></trkpt><trkpt lat="40.6192007" lon="9.61275"><ele>60.0</ele><time>2026-03-29T13:59:52.261Z</time></trkpt><trkpt lat="40.6192804" lon="9.6127986"><ele>61.5</ele><time>2026-03-29T13:59:54.264Z</time></trkpt><trkpt lat="40.6193302" lon="9.6128531"><ele>63.0</ele><time>2026-03-29T14:00:23.268Z</time></trkpt><trkpt lat="40.6193359" lon="9.6129962"><ele>64.5</ele><time>2026-03-29T14:00:26.265Z</time></trkpt><trkpt lat="40.6193253" lon="9.6130888"><ele>66.0</ele><time>2026-03-29T14:00:27.258Z</time></trkpt><trkpt lat="40.6193217" lon="9.6132047"><ele>67.5</ele><time>2026-03-29T14:00:28.266Z</time></trkpt><trkpt lat="40.6193339" lon="9.6133387"><ele>69.0</ele><time>2026-03-29T14:00:29.263Z</time></trkpt><trkpt lat="40.6193475" lon="9.6134731"><ele>69.0</ele><time>2026-03-29T14:00:30.262Z</time></trkpt><trkpt lat="40.6193872" lon="9.6136398"><ele>69.0</ele><time>2026-03-29T14:00:31.267Z</time></trkpt><trkpt lat="40.6194338" lon="9.6138253"><ele>69.0</ele><time>2026-03-29T14:00:32.262Z</time></trkpt><trkpt lat="40.6194792" lon="9.613993"><ele>69.0</ele><time>2026-03-29T14:00:33.263Z</time></trkpt><trkpt lat="40.61952" lon="9.6141461"><ele>70.0</ele><time>2026-03-29T14:00:34.258Z</time></trkpt><trkpt lat="40.6195501" lon="9.6142805"><ele>71.0</ele><time>2026-03-29T14:00:35.264Z</time></trkpt><trkpt lat="40.6195822" lon="9.6144124"><ele>72.0</ele><time>2026-03-29T14:00:36.259Z</time></trkpt><trkpt lat="40.6196319" lon="9.6145385"><ele>73.0</ele><time>2026-03-29T14:00:37.261Z</time></trkpt><trkpt lat="40.6196877" lon="9.6146339"><ele>74.0</ele><time>2026-03-29T14:00:38.264Z</time></trkpt><trkpt lat="40.6197566" lon="9.6147017"><ele>76.0</ele><time>2026-03-29T14:00:39.266Z</time></trkpt><trkpt lat="40.6198467" lon="9.6147762"><ele>78.0</ele><time>2026-03-29T14:00:40.26Z</time></trkpt><trkpt lat="40.6199444" lon="9.614854"><ele>80.0</ele><time>2026-03-29T14:00:41.274Z</time></trkpt><trkpt lat="40.6200438" lon="9.6149295"><ele>82.0</ele><time>2026-03-29T14:00:42.261Z</time></trkpt><trkpt lat="40.6201683" lon="9.6149752"><ele>82.0</ele><time>2026-03-29T14:00:43.264Z</time></trkpt><trkpt lat="40.620285" lon="9.6150167"><ele>82.0</ele><time>2026-03-29T14:00:44.266Z</time></trkpt><trkpt lat="40.6203721" lon="9.6150175"><ele>82.0</ele><time>2026-03-29T14:00:45.262Z</time></trkpt><trkpt lat="40.6204395" lon="9.6149993"><ele>82.0</ele><time>2026-03-29T14:00:46.281Z</time></trkpt><trkpt lat="40.6205074" lon="9.6149505"><ele>82.0</ele><time>2026-03-29T14:00:47.261Z</time></trkpt><trkpt lat="40.6205959" lon="9.6148808"><ele>83.8</ele><time>2026-03-29T14:00:48.263Z</time></trkpt><trkpt lat="40.6206944" lon="9.614793"><ele>85.6</ele><time>2026-03-29T14:00:49.263Z</time></trkpt><trkpt lat="40.6207829" lon="9.6147208"><ele>87.39999999999999</ele><time>2026-03-29T14:00:50.263Z</time></trkpt><trkpt lat="40.6208677" lon="9.6146703"><ele>89.19999999999999</ele><time>2026-03-29T14:00:51.283Z</time></trkpt><trkpt lat="40.6209426" lon="9.6146393"><ele>91.0</ele><time>2026-03-29T14:00:52.262Z</time></trkpt><trkpt lat="40.6210111" lon="9.6146239"><ele>91.0</ele><time>2026-03-29T14:00:53.262Z</time></trkpt><trkpt lat="40.6211097" lon="9.6146573"><ele>91.0</ele><time>2026-03-29T14:00:55.259Z</time></trkpt><trkpt lat="40.6211966" lon="9.6147547"><ele>91.0</ele><time>2026-03-29T14:00:57.263Z</time></trkpt><trkpt lat="40.6212865" lon="9.6148405"><ele>91.0</ele><time>2026-03-29T14:00:59.264Z</time></trkpt><trkpt lat="40.6213779" lon="9.6149184"><ele>91.0</ele><time>2026-03-29T14:01:01.26Z</time></trkpt><trkpt lat="40.621434" lon="9.6149573"><ele>91.19999999999999</ele><time>2026-03-29T14:01:02.269Z</time></trkpt><trkpt lat="40.6215066" lon="9.6150132"><ele>91.39999999999999</ele><time>2026-03-29T14:01:03.264Z</time></trkpt><trkpt lat="40.6215932" lon="9.6150842"><ele>91.6</ele><time>2026-03-29T14:01:04.268Z</time></trkpt><trkpt lat="40.6216818" lon="9.6151669"><ele>91.8</ele><time>2026-03-29T14:01:05.265Z</time></trkpt><trkpt lat="40.6217758" lon="9.6152555"><ele>92.0</ele><time>2026-03-29T14:01:06.273Z</time></trkpt><trkpt lat="40.6218712" lon="9.6153505"><ele>93.5</ele><time>2026-03-29T14:01:07.267Z</time></trkpt><trkpt lat="40.6219613" lon="9.6154523"><ele>95.0</ele><time>2026-03-29T14:01:08.263Z</time></trkpt><trkpt lat="40.6220469" lon="9.615563"><ele>96.5</ele><time>2026-03-29T14:01:09.264Z</time></trkpt><trkpt lat="40.6221216" lon="9.6156805"><ele>98.0</ele><time>2026-03-29T14:01:10.266Z</time></trkpt><trkpt lat="40.6221823" lon="9.6158081"><ele>98.0</ele><time>2026-03-29T14:01:11.264Z</time></trkpt><trkpt lat="40.6222265" lon="9.6159456"><ele>98.0</ele><time>2026-03-29T14:01:12.268Z</time></trkpt><trkpt lat="40.6222543" lon="9.616089"><ele>98.0</ele><time>2026-03-29T14:01:13.277Z</time></trkpt><trkpt lat="40.6222668" lon="9.6162361"><ele>98.0</ele><time>2026-03-29T14:01:14.265Z</time></trkpt><trkpt lat="40.622268" lon="9.616388"><ele>97.5</ele><time>2026-03-29T14:01:15.27Z</time></trkpt><trkpt lat="40.622259" lon="9.6165424"><ele>97.0</ele><time>2026-03-29T14:01:16.268Z</time></trkpt><trkpt lat="40.6222427" lon="9.6167018"><ele>96.5</ele><time>2026-03-29T14:01:17.266Z</time></trkpt><trkpt lat="40.6222256" lon="9.6168582"><ele>96.0</ele><time>2026-03-29T14:01:18.267Z</time></trkpt><trkpt lat="40.622208" lon="9.6170375"><ele>94.0</ele><time>2026-03-29T14:01:19.268Z</time></trkpt><trkpt lat="40.6221892" lon="9.6172188"><ele>92.0</ele><time>2026-03-29T14:01:20.27Z</time></trkpt><trkpt lat="40.6221702" lon="9.6174031"><ele>90.0</ele><time>2026-03-29T14:01:21.268Z</time></trkpt><trkpt lat="40.6221537" lon="9.6175986"><ele>88.0</ele><time>2026-03-29T14:01:22.264Z</time></trkpt><trkpt lat="40.6221382" lon="9.6178038"><ele>87.5</ele><time>2026-03-29T14:01:23.272Z</time></trkpt><trkpt lat="40.6221227" lon="9.6180029"><ele>87.0</ele><time>2026-03-29T14:01:24.269Z</time></trkpt><trkpt lat="40.6221056" lon="9.618193"><ele>86.5</ele><time>2026-03-29T14:01:25.27Z</time></trkpt><trkpt lat="40.6220914" lon="9.6183812"><ele>86.0</ele><time>2026-03-29T14:01:26.269Z</time></trkpt><trkpt lat="40.622077" lon="9.6185685"><ele>85.0</ele><time>2026-03-29T14:01:27.264Z</time></trkpt><trkpt lat="40.6220666" lon="9.618743"><ele>84.0</ele><time>2026-03-29T14:01:28.262Z</time></trkpt><trkpt lat="40.6220623" lon="9.6189084"><ele>83.0</ele><time>2026-03-29T14:01:29.26Z</time></trkpt><trkpt lat="40.622059" lon="9.6190666"><ele>82.0</ele><time>2026-03-29T14:01:30.269Z</time></trkpt><trkpt lat="40.6220761" lon="9.6192104"><ele>82.0</ele><time>2026-03-29T14:01:31.261Z</time></trkpt><trkpt lat="40.6221048" lon="9.6193417"><ele>82.0</ele><time>2026-03-29T14:01:32.285Z</time></trkpt><trkpt lat="40.6221412" lon="9.6194518"><ele>82.0</ele><time>2026-03-29T14:01:33.269Z</time></trkpt><trkpt lat="40.6221744" lon="9.6195347"><ele>82.0</ele><time>2026-03-29T14:01:34.261Z</time></trkpt><trkpt lat="40.6222108" lon="9.6196516"><ele>82.0</ele><time>2026-03-29T14:01:36.263Z</time></trkpt><trkpt lat="40.6221438" lon="9.6197006"><ele>82.0</ele><time>2026-03-29T14:01:38.274Z</time></trkpt><trkpt lat="40.6220289" lon="9.6196886"><ele>83.0</ele><time>2026-03-29T14:01:40.267Z</time></trkpt><trkpt lat="40.6219547" lon="9.6196333"><ele>84.0</ele><time>2026-03-29T14:01:41.26Z</time></trkpt><trkpt lat="40.6218885" lon="9.6195751"><ele>85.0</ele><time>2026-03-29T14:01:42.268Z</time></trkpt><trkpt lat="40.6218297" lon="9.6195105"><ele>86.0</ele><time>2026-03-29T14:01:43.266Z</time></trkpt><trkpt lat="40.6217714" lon="9.6194434"><ele>87.0</ele><time>2026-03-29T14:01:44.291Z</time></trkpt><trkpt lat="40.6217269" lon="9.6193479"><ele>88.0</ele><time>2026-03-29T14:01:45.267Z</time></trkpt><trkpt lat="40.6216719" lon="9.6192255"><ele>88.25</ele><time>2026-03-29T14:01:46.266Z</time></trkpt><trkpt lat="40.6216014" lon="9.6190961"><ele>88.5</ele><time>2026-03-29T14:01:47.269Z</time></trkpt><trkpt lat="40.62153" lon="9.6189722"><ele>88.75</ele><time>2026-03-29T14:01:48.267Z</time></trkpt><trkpt lat="40.6214532" lon="9.6188726"><ele>89.0</ele><time>2026-03-29T14:01:49.268Z</time></trkpt><trkpt lat="40.6213759" lon="9.6187776"><ele>89.0</ele><time>2026-03-29T14:01:50.261Z</time></trkpt><trkpt lat="40.6212921" lon="9.6186956"><ele>89.0</ele><time>2026-03-29T14:01:51.267Z</time></trkpt><trkpt lat="40.6211994" lon="9.6185974"><ele>89.0</ele><time>2026-03-29T14:01:52.262Z</time></trkpt><trkpt lat="40.6210962" lon="9.6184878"><ele>89.0</ele><time>2026-03-29T14:01:53.269Z</time></trkpt><trkpt lat="40.6209982" lon="9.6183648"><ele>91.25</ele><time>2026-03-29T14:01:54.264Z</time></trkpt><trkpt lat="40.620901" lon="9.6182411"><ele>93.5</ele><time>2026-03-29T14:01:55.298Z</time></trkpt><trkpt lat="40.6207943" lon="9.6181194"><ele>95.75</ele><time>2026-03-29T14:01:56.266Z</time></trkpt><trkpt lat="40.6206895" lon="9.6180033"><ele>98.0</ele><time>2026-03-29T14:01:57.272Z</time></trkpt><trkpt lat="40.6205852" lon="9.6179252"><ele>98.0</ele><time>2026-03-29T14:01:58.269Z</time></trkpt><trkpt lat="40.6204933" lon="9.6178499"><ele>98.0</ele><time>2026-03-29T14:01:59.262Z</time></trkpt><trkpt lat="40.6204073" lon="9.6177675"><ele>98.0</ele><time>2026-03-29T14:02:00.265Z</time></trkpt><trkpt lat="40.6203256" lon="9.6176736"><ele>98.0</ele><time>2026-03-29T14:02:01.269Z</time></trkpt><trkpt lat="40.6202563" lon="9.6175781"><ele>98.0</ele><time>2026-03-29T14:02:02.261Z</time></trkpt><trkpt lat="40.6201904" lon="9.6174692"><ele>98.66666666666666</ele><time>2026-03-29T14:02:03.283Z</time></trkpt><trkpt lat="40.6201192" lon="9.6173996"><ele>99.33333333333333</ele><time>2026-03-29T14:02:04.26Z</time></trkpt><trkpt lat="40.6200541" lon="9.6173381"><ele>100.0</ele><time>2026-03-29T14:02:05.261Z</time></trkpt><trkpt lat="40.6199794" lon="9.6172918"><ele>100.66666666666666</ele><time>2026-03-29T14:02:06.267Z</time></trkpt><trkpt lat="40.6199035" lon="9.6172854"><ele>101.33333333333333</ele><time>2026-03-29T14:02:07.263Z</time></trkpt><trkpt lat="40.6198341" lon="9.6173156"><ele>102.0</ele><time>2026-03-29T14:02:08.288Z</time></trkpt><trkpt lat="40.6197649" lon="9.6173739"><ele>102.0</ele><time>2026-03-29T14:02:09.256Z</time></trkpt><trkpt lat="40.6196886" lon="9.6174463"><ele>102.0</ele><time>2026-03-29T14:02:10.254Z</time></trkpt><trkpt lat="40.6196254" lon="9.6175522"><ele>102.0</ele><time>2026-03-29T14:02:11.259Z</time></trkpt><trkpt lat="40.619559" lon="9.6176479"><ele>102.0</ele><time>2026-03-29T14:02:12.259Z</time></trkpt><trkpt lat="40.6194686" lon="9.6177201"><ele>102.0</ele><time>2026-03-29T14:02:13.295Z</time></trkpt><trkpt lat="40.6193712" lon="9.6177808"><ele>103.39999999999999</ele><time>2026-03-29T14:02:14.256Z</time></trkpt><trkpt lat="40.6192814" lon="9.6178461"><ele>104.8</ele><time>2026-03-29T14:02:15.262Z</time></trkpt><trkpt lat="40.6192096" lon="9.6179009"><ele>106.2</ele><time>2026-03-29T14:02:16.269Z</time></trkpt><trkpt lat="40.6191512" lon="9.6180299"><ele>107.6</ele><time>2026-03-29T14:02:18.29Z</time></trkpt><trkpt lat="40.6191849" lon="9.6181654"><ele>109.0</ele><time>2026-03-29T14:02:20.261Z</time></trkpt><trkpt lat="40.6192445" lon="9.6181999"><ele>109.0</ele><time>2026-03-29T14:02:21.269Z</time></trkpt><trkpt lat="40.6193185" lon="9.6182243"><ele>109.0</ele><time>2026-03-29T14:02:22.26Z</time></trkpt><trkpt lat="40.6193911" lon="9.6182507"><ele>109.0</ele><time>2026-03-29T14:02:23.274Z</time></trkpt><trkpt lat="40.6194501" lon="9.6182897"><ele>109.0</ele><time>2026-03-29T14:02:24.261Z</time></trkpt><trkpt lat="40.6194995" lon="9.6183497"><ele>109.0</ele><time>2026-03-29T14:02:25.264Z</time></trkpt><trkpt lat="40.6195082" lon="9.6184409"><ele>109.0</ele><time>2026-03-29T14:02:26.261Z</time></trkpt><trkpt lat="40.619496" lon="9.6185491"><ele>109.0</ele><time>2026-03-29T14:02:27.262Z</time></trkpt><trkpt lat="40.6194763" lon="9.6186812"><ele>110.0</ele><time>2026-03-29T14:02:28.261Z</time></trkpt><trkpt lat="40.6194591" lon="9.618836"><ele>111.0</ele><time>2026-03-29T14:02:29.258Z</time></trkpt><trkpt lat="40.6194441" lon="9.6189809"><ele>112.0</ele><time>2026-03-29T14:02:30.275Z</time></trkpt><trkpt lat="40.6193993" lon="9.6191272"><ele>113.0</ele><time>2026-03-29T14:02:31.266Z</time></trkpt><trkpt lat="40.619344" lon="9.6192599"><ele>113.0</ele><time>2026-03-29T14:02:32.257Z</time></trkpt><trkpt lat="40.619269" lon="9.6193795"><ele>113.0</ele><time>2026-03-29T14:02:33.256Z</time></trkpt><trkpt lat="40.6191614" lon="9.6194903"><ele>113.0</ele><time>2026-03-29T14:02:34.263Z</time></trkpt><trkpt lat="40.6190504" lon="9.6196219"><ele>113.0</ele><time>2026-03-29T14:02:35.266Z</time></trkpt><trkpt lat="40.6189441" lon="9.6197504"><ele>112.25</ele><time>2026-03-29T14:02:36.267Z</time></trkpt><trkpt lat="40.6188382" lon="9.6198745"><ele>111.5</ele><time>2026-03-29T14:02:37.262Z</time></trkpt><trkpt lat="40.6187397" lon="9.6199662"><ele>110.75</ele><time>2026-03-29T14:02:38.276Z</time></trkpt><trkpt lat="40.6186322" lon="9.6200508"><ele>110.0</ele><time>2026-03-29T14:02:39.264Z</time></trkpt><trkpt lat="40.6185177" lon="9.6201462"><ele>112.5</ele><time>2026-03-29T14:02:40.257Z</time></trkpt><trkpt lat="40.6184052" lon="9.6202477"><ele>115.0</ele><time>2026-03-29T14:02:41.265Z</time></trkpt><trkpt lat="40.618308" lon="9.6203543"><ele>117.5</ele><time>2026-03-29T14:02:42.264Z</time></trkpt><trkpt lat="40.6182158" lon="9.6204559"><ele>120.0</ele><time>2026-03-29T14:02:43.279Z</time></trkpt><trkpt lat="40.6181257" lon="9.6205707"><ele>120.0</ele><time>2026-03-29T14:02:44.264Z</time></trkpt><trkpt lat="40.6180432" lon="9.6207307"><ele>120.0</ele><time>2026-03-29T14:02:45.258Z</time></trkpt><trkpt lat="40.6179758" lon="9.6208842"><ele>120.0</ele><time>2026-03-29T14:02:46.264Z</time></trkpt><trkpt lat="40.6179101" lon="9.6210159"><ele>120.0</ele><time>2026-03-29T14:02:47.265Z</time></trkpt><trkpt lat="40.6178427" lon="9.6211193"><ele>121.2</ele><time>2026-03-29T14:02:48.267Z</time></trkpt><trkpt lat="40.61779" lon="9.6211945"><ele>122.4</ele><time>2026-03-29T14:02:49.263Z</time></trkpt><trkpt lat="40.6176918" lon="9.6212269"><ele>123.6</ele><time>2026-03-29T14:02:51.27Z</time></trkpt><trkpt lat="40.6176079" lon="9.621185"><ele>124.8</ele><time>2026-03-29T14:02:52.267Z</time></trkpt><trkpt lat="40.6175103" lon="9.6211549"><ele>126.0</ele><time>2026-03-29T14:02:53.264Z</time></trkpt><trkpt lat="40.6174192" lon="9.6211516"><ele>126.0</ele><time>2026-03-29T14:02:54.27Z</time></trkpt><trkpt lat="40.6173422" lon="9.6211757"><ele>126.0</ele><time>2026-03-29T14:02:55.264Z</time></trkpt><trkpt lat="40.6172533" lon="9.6212585"><ele>126.0</ele><time>2026-03-29T14:02:56.264Z</time></trkpt><trkpt lat="40.6172076" lon="9.6213676"><ele>126.0</ele><time>2026-03-29T14:02:57.262Z</time></trkpt><trkpt lat="40.6171592" lon="9.6214439"><ele>126.0</ele><time>2026-03-29T14:02:58.266Z</time></trkpt><trkpt lat="40.6170886" lon="9.6214724"><ele>126.0</ele><time>2026-03-29T14:02:59.261Z</time></trkpt><trkpt lat="40.617" lon="9.6214678"><ele>128.2</ele><time>2026-03-29T14:03:00.282Z</time></trkpt><trkpt lat="40.6169131" lon="9.6215"><ele>130.39999999999998</ele><time>2026-03-29T14:03:01.261Z</time></trkpt><trkpt lat="40.6168433" lon="9.6215752"><ele>132.6</ele><time>2026-03-29T14:03:02.263Z</time></trkpt><trkpt lat="40.6168093" lon="9.6216676"><ele>134.79999999999998</ele><time>2026-03-29T14:03:03.262Z</time></trkpt><trkpt lat="40.6168051" lon="9.6217912"><ele>137.0</ele><time>2026-03-29T14:03:04.268Z</time></trkpt><trkpt lat="40.6167982" lon="9.6219198"><ele>137.0</ele><time>2026-03-29T14:03:05.265Z</time></trkpt><trkpt lat="40.6168106" lon="9.6220707"><ele>137.0</ele><time>2026-03-29T14:03:06.263Z</time></trkpt><trkpt lat="40.6168375" lon="9.6222485"><ele>137.0</ele><time>2026-03-29T14:03:07.274Z</time></trkpt><trkpt lat="40.6168525" lon="9.6224288"><ele>137.0</ele><time>2026-03-29T14:03:08.263Z</time></trkpt><trkpt lat="40.6168639" lon="9.6226038"><ele>137.0</ele><time>2026-03-29T14:03:09.269Z</time></trkpt><trkpt lat="40.6168607" lon="9.6227843"><ele>137.0</ele><time>2026-03-29T14:03:10.267Z</time></trkpt><trkpt lat="40.616842" lon="9.6229765"><ele>137.0</ele><time>2026-03-29T14:03:11.261Z</time></trkpt><trkpt lat="40.6168214" lon="9.6231582"><ele>137.0</ele><time>2026-03-29T14:03:12.264Z</time></trkpt><trkpt lat="40.61681" lon="9.6233307"><ele>136.5</ele><time>2026-03-29T14:03:13.265Z</time></trkpt><trkpt lat="40.6168149" lon="9.6235103"><ele>136.0</ele><time>2026-03-29T14:03:14.279Z</time></trkpt><trkpt lat="40.6168123" lon="9.6236977"><ele>135.5</ele><time>2026-03-29T14:03:15.266Z</time></trkpt><trkpt lat="40.6167965" lon="9.6238807"><ele>135.0</ele><time>2026-03-29T14:03:16.263Z</time></trkpt><trkpt lat="40.6167838" lon="9.6240648"><ele>134.5</ele><time>2026-03-29T14:03:17.273Z</time></trkpt><trkpt lat="40.6167826" lon="9.624233"><ele>134.0</ele><time>2026-03-29T14:03:18.263Z</time></trkpt><trkpt lat="40.616801" lon="9.624402"><ele>133.5</ele><time>2026-03-29T14:03:19.278Z</time></trkpt><trkpt lat="40.6168277" lon="9.6245772"><ele>133.0</ele><time>2026-03-29T14:03:20.261Z</time></trkpt><trkpt lat="40.6168471" lon="9.6247535"><ele>134.0</ele><time>2026-03-29T14:03:21.258Z</time></trkpt><trkpt lat="40.6168645" lon="9.6249269"><ele>135.0</ele><time>2026-03-29T14:03:22.262Z</time></trkpt><trkpt lat="40.6168683" lon="9.6251049"><ele>136.0</ele><time>2026-03-29T14:03:23.263Z</time></trkpt><trkpt lat="40.6168626" lon="9.6252632"><ele>137.0</ele><time>2026-03-29T14:03:24.28Z</time></trkpt><trkpt lat="40.6168543" lon="9.625411"><ele>137.75</ele><time>2026-03-29T14:03:25.303Z</time></trkpt><trkpt lat="40.6168613" lon="9.6255521"><ele>138.5</ele><time>2026-03-29T14:03:26.264Z</time></trkpt><trkpt lat="40.6168762" lon="9.6257084"><ele>139.25</ele><time>2026-03-29T14:03:27.262Z</time></trkpt><trkpt lat="40.6169132" lon="9.6258583"><ele>140.0</ele><time>2026-03-29T14:03:28.257Z</time></trkpt><trkpt lat="40.6169413" lon="9.6260075"><ele>142.25</ele><time>2026-03-29T14:03:29.261Z</time></trkpt><trkpt lat="40.6169396" lon="9.6261536"><ele>144.5</ele><time>2026-03-29T14:03:30.268Z</time></trkpt><trkpt lat="40.61694" lon="9.6263161"><ele>146.75</ele><time>2026-03-29T14:03:31.262Z</time></trkpt><trkpt lat="40.6169436" lon="9.6264938"><ele>149.0</ele><time>2026-03-29T14:03:32.266Z</time></trkpt><trkpt lat="40.6169542" lon="9.626686"><ele>149.0</ele><time>2026-03-29T14:03:33.261Z</time></trkpt><trkpt lat="40.6169484" lon="9.6268785"><ele>149.0</ele><time>2026-03-29T14:03:34.264Z</time></trkpt><trkpt lat="40.6169329" lon="9.6270432"><ele>149.0</ele><time>2026-03-29T14:03:35.271Z</time></trkpt><trkpt lat="40.6169258" lon="9.6271909"><ele>149.0</ele><time>2026-03-29T14:03:36.262Z</time></trkpt><trkpt lat="40.6169269" lon="9.6273284"><ele>149.6</ele><time>2026-03-29T14:03:37.266Z</time></trkpt><trkpt lat="40.616951" lon="9.6274467"><ele>150.2</ele><time>2026-03-29T14:03:38.271Z</time></trkpt><trkpt lat="40.6169745" lon="9.6275633"><ele>150.79999999999998</ele><time>2026-03-29T14:03:39.258Z</time></trkpt><trkpt lat="40.6170109" lon="9.6276847"><ele>151.4</ele><time>2026-03-29T14:03:40.258Z</time></trkpt><trkpt lat="40.6170852" lon="9.6278172"><ele>152.0</ele><time>2026-03-29T14:03:41.26Z</time></trkpt><trkpt lat="40.617169" lon="9.6279548"><ele>152.25</ele><time>2026-03-29T14:03:42.263Z</time></trkpt><trkpt lat="40.6172387" lon="9.6281205"><ele>152.5</ele><time>2026-03-29T14:03:43.267Z</time></trkpt><trkpt lat="40.6173034" lon="9.6282679"><ele>152.75</ele><time>2026-03-29T14:03:44.26Z</time></trkpt><trkpt lat="40.6173558" lon="9.6283853"><ele>153.0</ele><time>2026-03-29T14:03:45.273Z</time></trkpt><trkpt lat="40.6173951" lon="9.6284802"><ele>153.0</ele><time>2026-03-29T14:03:46.257Z</time></trkpt><trkpt lat="40.6174244" lon="9.6285888"><ele>153.0</ele><time>2026-03-29T14:03:48.265Z</time></trkpt><trkpt lat="40.6173723" lon="9.6284295"><ele>153.0</ele><time>2026-03-29T14:03:53.263Z</time></trkpt><trkpt lat="40.617321" lon="9.6283166"><ele>153.0</ele><time>2026-03-29T14:03:54.268Z</time></trkpt><trkpt lat="40.6172474" lon="9.6281948"><ele>153.0</ele><time>2026-03-29T14:03:55.272Z</time></trkpt><trkpt lat="40.6171449" lon="9.6281011"><ele>153.0</ele><time>2026-03-29T14:03:56.262Z</time></trkpt><trkpt lat="40.6170289" lon="9.6280213"><ele>153.0</ele><time>2026-03-29T14:03:57.263Z</time></trkpt><trkpt lat="40.6169085" lon="9.6279769"><ele>153.0</ele><time>2026-03-29T14:03:58.263Z</time></trkpt><trkpt lat="40.6167895" lon="9.6279926"><ele>153.0</ele><time>2026-03-29T14:03:59.267Z</time></trkpt><trkpt lat="40.6166757" lon="9.6280243"><ele>153.0</ele><time>2026-03-29T14:04:00.258Z</time></trkpt><trkpt lat="40.6165655" lon="9.6280483"><ele>153.0</ele><time>2026-03-29T14:04:01.27Z</time></trkpt><trkpt lat="40.6164828" lon="9.6280515"><ele>153.0</ele><time>2026-03-29T14:04:02.257Z</time></trkpt><trkpt lat="40.6164236" lon="9.6280036"><ele>153.0</ele><time>2026-03-29T14:04:03.258Z</time></trkpt><trkpt lat="40.6163638" lon="9.6279218"><ele>153.0</ele><time>2026-03-29T14:04:04.256Z</time></trkpt><trkpt lat="40.6163328" lon="9.6277935"><ele>153.0</ele><time>2026-03-29T14:04:05.264Z</time></trkpt><trkpt lat="40.6162937" lon="9.6276293"><ele>153.0</ele><time>2026-03-29T14:04:06.269Z</time></trkpt><trkpt lat="40.6162427" lon="9.6274591"><ele>153.0</ele><time>2026-03-29T14:04:07.261Z</time></trkpt><trkpt lat="40.6161928" lon="9.6273178"><ele>153.0</ele><time>2026-03-29T14:04:08.277Z</time></trkpt><trkpt lat="40.6161583" lon="9.6272088"><ele>154.5</ele><time>2026-03-29T14:04:09.265Z</time></trkpt><trkpt lat="40.6161208" lon="9.6271104"><ele>156.0</ele><time>2026-03-29T14:04:10.266Z</time></trkpt><trkpt lat="40.6160615" lon="9.6270126"><ele>157.5</ele><time>2026-03-29T14:04:11.264Z</time></trkpt><trkpt lat="40.6160015" lon="9.6269503"><ele>159.0</ele><time>2026-03-29T14:04:12.26Z</time></trkpt><trkpt lat="40.6159354" lon="9.6269146"><ele>160.5</ele><time>2026-03-29T14:04:13.262Z</time></trkpt><trkpt lat="40.6158637" lon="9.6268883"><ele>162.0</ele><time>2026-03-29T14:04:14.272Z</time></trkpt><trkpt lat="40.6157784" lon="9.626922"><ele>162.0</ele><time>2026-03-29T14:04:15.265Z</time></trkpt><trkpt lat="40.6156902" lon="9.6269453"><ele>162.0</ele><time>2026-03-29T14:04:16.285Z</time></trkpt><trkpt lat="40.6156171" lon="9.6270238"><ele>162.0</ele><time>2026-03-29T14:04:17.264Z</time></trkpt><trkpt lat="40.615564" lon="9.627124"><ele>162.0</ele><time>2026-03-29T14:04:18.263Z</time></trkpt><trkpt lat="40.6155061" lon="9.627234"><ele>162.0</ele><time>2026-03-29T14:04:19.261Z</time></trkpt><trkpt lat="40.6154638" lon="9.6273674"><ele>165.0</ele><time>2026-03-29T14:04:20.268Z</time></trkpt><trkpt lat="40.6154081" lon="9.6274809"><ele>168.0</ele><time>2026-03-29T14:04:21.271Z</time></trkpt><trkpt lat="40.6153351" lon="9.6275642"><ele>171.0</ele><time>2026-03-29T14:04:22.295Z</time></trkpt><trkpt lat="40.6152478" lon="9.6276544"><ele>174.0</ele><time>2026-03-29T14:04:23.26Z</time></trkpt><trkpt lat="40.615163" lon="9.6277525"><ele>177.0</ele><time>2026-03-29T14:04:24.268Z</time></trkpt><trkpt lat="40.6150883" lon="9.6278364"><ele>183.5</ele><time>2026-03-29T14:04:25.268Z</time></trkpt><trkpt lat="40.614995" lon="9.6279108"><ele>190.0</ele><time>2026-03-29T14:04:26.26Z</time></trkpt><trkpt lat="40.6148818" lon="9.6279594"><ele>196.5</ele><time>2026-03-29T14:04:27.278Z</time></trkpt><trkpt lat="40.614758" lon="9.627984"><ele>203.0</ele><time>2026-03-29T14:04:28.26Z</time></trkpt><trkpt lat="40.6146327" lon="9.6280065"><ele>203.0</ele><time>2026-03-29T14:04:29.268Z</time></trkpt><trkpt lat="40.6145322" lon="9.6280204"><ele>203.0</ele><time>2026-03-29T14:04:30.265Z</time></trkpt><trkpt lat="40.6144379" lon="9.6280402"><ele>203.0</ele><time>2026-03-29T14:04:31.27Z</time></trkpt><trkpt lat="40.6143424" lon="9.6280596"><ele>203.0</ele><time>2026-03-29T14:04:32.257Z</time></trkpt><trkpt lat="40.6142489" lon="9.6280966"><ele>203.0</ele><time>2026-03-29T14:04:33.265Z</time></trkpt><trkpt lat="40.6141651" lon="9.6281405"><ele>203.57142857142858</ele><time>2026-03-29T14:04:34.267Z</time></trkpt><trkpt lat="40.6141093" lon="9.6281965"><ele>204.14285714285714</ele><time>2026-03-29T14:04:35.285Z</time></trkpt><trkpt lat="40.6140541" lon="9.6282422"><ele>204.71428571428572</ele><time>2026-03-29T14:04:36.298Z</time></trkpt><trkpt lat="40.6140299" lon="9.6283278"><ele>205.28571428571428</ele><time>2026-03-29T14:04:37.273Z</time></trkpt><trkpt lat="40.6140074" lon="9.6284175"><ele>205.85714285714286</ele><time>2026-03-29T14:04:38.271Z</time></trkpt><trkpt lat="40.6140129" lon="9.6285169"><ele>206.42857142857144</ele><time>2026-03-29T14:04:39.265Z</time></trkpt><trkpt lat="40.6140278" lon="9.6286268"><ele>207.0</ele><time>2026-03-29T14:04:40.263Z</time></trkpt><trkpt lat="40.6140473" lon="9.6287456"><ele>207.0</ele><time>2026-03-29T14:04:41.257Z</time></trkpt><trkpt lat="40.6140896" lon="9.6288714"><ele>207.0</ele><time>2026-03-29T14:04:42.262Z</time></trkpt><trkpt lat="40.6141268" lon="9.6290118"><ele>207.0</ele><time>2026-03-29T14:04:43.268Z</time></trkpt><trkpt lat="40.6141561" lon="9.6291519"><ele>207.0</ele><time>2026-03-29T14:04:44.267Z</time></trkpt><trkpt lat="40.6141732" lon="9.6292691"><ele>207.0</ele><time>2026-03-29T14:04:45.269Z</time></trkpt><trkpt lat="40.6141833" lon="9.6293901"><ele>209.0</ele><time>2026-03-29T14:04:46.262Z</time></trkpt><trkpt lat="40.614166" lon="9.629519"><ele>211.0</ele><time>2026-03-29T14:04:47.258Z</time></trkpt><trkpt lat="40.6141298" lon="9.6296439"><ele>213.0</ele><time>2026-03-29T14:04:48.262Z</time></trkpt><trkpt lat="40.6140793" lon="9.6297768"><ele>215.0</ele><time>2026-03-29T14:04:49.255Z</time></trkpt><trkpt lat="40.6140264" lon="9.6298795"><ele>217.0</ele><time>2026-03-29T14:04:50.278Z</time></trkpt><trkpt lat="40.6139632" lon="9.6299733"><ele>216.99999999999997</ele><time>2026-03-29T14:04:52.265Z</time></trkpt><trkpt lat="40.613896" lon="9.6299549"><ele>217.0</ele><time>2026-03-29T14:04:54.272Z</time></trkpt><trkpt lat="40.6138502" lon="9.6298264"><ele>217.0</ele><time>2026-03-29T14:04:56.258Z</time></trkpt><trkpt lat="40.6138379" lon="9.6297162"><ele>217.0</ele><time>2026-03-29T14:04:57.259Z</time></trkpt><trkpt lat="40.6138141" lon="9.6296035"><ele>216.99999999999997</ele><time>2026-03-29T14:04:58.258Z</time></trkpt><trkpt lat="40.6137874" lon="9.6295177"><ele>217.0</ele><time>2026-03-29T14:04:59.258Z</time></trkpt><trkpt lat="40.6137268" lon="9.6294396"><ele>217.5</ele><time>2026-03-29T14:05:00.258Z</time></trkpt><trkpt lat="40.6136486" lon="9.6293523"><ele>218.0</ele><time>2026-03-29T14:05:01.276Z</time></trkpt><trkpt lat="40.6135578" lon="9.629249"><ele>218.5</ele><time>2026-03-29T14:05:02.262Z</time></trkpt><trkpt lat="40.6134562" lon="9.6291679"><ele>219.0</ele><time>2026-03-29T14:05:03.262Z</time></trkpt><trkpt lat="40.613336" lon="9.6290979"><ele>219.0</ele><time>2026-03-29T14:05:04.259Z</time></trkpt><trkpt lat="40.613223" lon="9.6290336"><ele>219.0</ele><time>2026-03-29T14:05:05.261Z</time></trkpt><trkpt lat="40.613111" lon="9.6289661"><ele>219.0</ele><time>2026-03-29T14:05:06.263Z</time></trkpt><trkpt lat="40.6130139" lon="9.6288634"><ele>219.0</ele><time>2026-03-29T14:05:07.254Z</time></trkpt><trkpt lat="40.6129124" lon="9.6287607"><ele>221.2</ele><time>2026-03-29T14:05:08.287Z</time></trkpt><trkpt lat="40.6128194" lon="9.6286673"><ele>223.39999999999998</ele><time>2026-03-29T14:05:09.254Z</time></trkpt><trkpt lat="40.6127541" lon="9.6285798"><ele>225.6</ele><time>2026-03-29T14:05:10.263Z</time></trkpt><trkpt lat="40.6127048" lon="9.6284579"><ele>227.8</ele><time>2026-03-29T14:05:11.258Z</time></trkpt><trkpt lat="40.6126959" lon="9.6283595"><ele>230.0</ele><time>2026-03-29T14:05:12.26Z</time></trkpt><trkpt lat="40.6126465" lon="9.6282247"><ele>230.0</ele><time>2026-03-29T14:05:13.263Z</time></trkpt><trkpt lat="40.6125905" lon="9.6281039"><ele>230.0</ele><time>2026-03-29T14:05:14.265Z</time></trkpt><trkpt lat="40.61253" lon="9.6279934"><ele>230.0</ele><time>2026-03-29T14:05:15.276Z</time></trkpt><trkpt lat="40.6124546" lon="9.6278922"><ele>230.0</ele><time>2026-03-29T14:05:16.261Z</time></trkpt><trkpt lat="40.6123786" lon="9.6278007"><ele>230.0</ele><time>2026-03-29T14:05:17.258Z</time></trkpt><trkpt lat="40.6123162" lon="9.6277039"><ele>228.2</ele><time>2026-03-29T14:05:18.262Z</time></trkpt><trkpt lat="40.6122818" lon="9.6275853"><ele>226.4</ele><time>2026-03-29T14:05:19.262Z</time></trkpt><trkpt lat="40.6122641" lon="9.6274421"><ele>224.60000000000002</ele><time>2026-03-29T14:05:20.259Z</time></trkpt><trkpt lat="40.6122416" lon="9.627296"><ele>222.8</ele><time>2026-03-29T14:05:21.265Z</time></trkpt><trkpt lat="40.6122463" lon="9.627155"><ele>221.0</ele><time>2026-03-29T14:05:22.26Z</time></trkpt><trkpt lat="40.6122948" lon="9.6270214"><ele>224.75</ele><time>2026-03-29T14:05:23.263Z</time></trkpt><trkpt lat="40.6123553" lon="9.6268874"><ele>228.5</ele><time>2026-03-29T14:05:24.257Z</time></trkpt><trkpt lat="40.6124272" lon="9.6267526"><ele>232.25</ele><time>2026-03-29T14:05:25.265Z</time></trkpt><trkpt lat="40.6125108" lon="9.6265961"><ele>236.0</ele><time>2026-03-29T14:05:26.262Z</time></trkpt><trkpt lat="40.6125932" lon="9.6264716"><ele>236.00000000000003</ele><time>2026-03-29T14:05:27.264Z</time></trkpt><trkpt lat="40.612662" lon="9.626393"><ele>236.0</ele><time>2026-03-29T14:05:28.257Z</time></trkpt><trkpt lat="40.612718" lon="9.6263326"><ele>236.0</ele><time>2026-03-29T14:05:29.262Z</time></trkpt><trkpt lat="40.612743" lon="9.6262478"><ele>236.0</ele><time>2026-03-29T14:05:30.258Z</time></trkpt><trkpt lat="40.6127474" lon="9.6261302"><ele>236.00000000000003</ele><time>2026-03-29T14:05:31.261Z</time></trkpt><trkpt lat="40.6127318" lon="9.6259912"><ele>236.0</ele><time>2026-03-29T14:05:32.269Z</time></trkpt><trkpt lat="40.6127157" lon="9.6258467"><ele>238.75</ele><time>2026-03-29T14:05:33.284Z</time></trkpt><trkpt lat="40.6126717" lon="9.6257044"><ele>241.5</ele><time>2026-03-29T14:05:34.261Z</time></trkpt><trkpt lat="40.6126272" lon="9.6255576"><ele>244.25</ele><time>2026-03-29T14:05:35.266Z</time></trkpt><trkpt lat="40.6125878" lon="9.6253995"><ele>247.0</ele><time>2026-03-29T14:05:36.267Z</time></trkpt><trkpt lat="40.6125628" lon="9.6252398"><ele>247.0</ele><time>2026-03-29T14:05:37.261Z</time></trkpt><trkpt lat="40.6125337" lon="9.6250978"><ele>247.0</ele><time>2026-03-29T14:05:38.268Z</time></trkpt><trkpt lat="40.6124871" lon="9.6249668"><ele>247.0</ele><time>2026-03-29T14:05:39.259Z</time></trkpt><trkpt lat="40.612439" lon="9.6248301"><ele>247.0</ele><time>2026-03-29T14:05:40.287Z</time></trkpt><trkpt lat="40.61239" lon="9.6246849"><ele>247.0</ele><time>2026-03-29T14:05:41.263Z</time></trkpt><trkpt lat="40.6123557" lon="9.6245313"><ele>247.0</ele><time>2026-03-29T14:05:42.268Z</time></trkpt><trkpt lat="40.6123233" lon="9.6243759"><ele>247.0</ele><time>2026-03-29T14:05:43.261Z</time></trkpt><trkpt lat="40.6122888" lon="9.6242139"><ele>247.0</ele><time>2026-03-29T14:05:44.267Z</time></trkpt><trkpt lat="40.612263" lon="9.6240466"><ele>246.6</ele><time>2026-03-29T14:05:45.267Z</time></trkpt><trkpt lat="40.61224" lon="9.6238938"><ele>246.2</ele><time>2026-03-29T14:05:46.261Z</time></trkpt><trkpt lat="40.6122076" lon="9.6237513"><ele>245.8</ele><time>2026-03-29T14:05:47.271Z</time></trkpt><trkpt lat="40.6121759" lon="9.6236202"><ele>245.4</ele><time>2026-03-29T14:05:48.26Z</time></trkpt><trkpt lat="40.6121463" lon="9.6235057"><ele>245.0</ele><time>2026-03-29T14:05:49.26Z</time></trkpt><trkpt lat="40.612108" lon="9.6234148"><ele>244.2</ele><time>2026-03-29T14:05:50.266Z</time></trkpt><trkpt lat="40.6120464" lon="9.6233198"><ele>243.4</ele><time>2026-03-29T14:05:51.263Z</time></trkpt><trkpt lat="40.6119681" lon="9.6232334"><ele>242.60000000000002</ele><time>2026-03-29T14:05:52.264Z</time></trkpt><trkpt lat="40.6118858" lon="9.6231663"><ele>241.8</ele><time>2026-03-29T14:05:53.26Z</time></trkpt><trkpt lat="40.6117974" lon="9.6231078"><ele>241.0</ele><time>2026-03-29T14:05:54.263Z</time></trkpt><trkpt lat="40.6117123" lon="9.6230564"><ele>246.4</ele><time>2026-03-29T14:05:55.262Z</time></trkpt><trkpt lat="40.6116369" lon="9.623023"><ele>251.8</ele><time>2026-03-29T14:05:56.266Z</time></trkpt><trkpt lat="40.6115747" lon="9.6230068"><ele>257.20000000000005</ele><time>2026-03-29T14:05:57.258Z</time></trkpt><trkpt lat="40.6114651" lon="9.6230592"><ele>262.6</ele><time>2026-03-29T14:05:59.266Z</time></trkpt><trkpt lat="40.611368" lon="9.6231706"><ele>268.0</ele><time>2026-03-29T14:06:01.274Z</time></trkpt><trkpt lat="40.6113214" lon="9.6232334"><ele>268.0</ele><time>2026-03-29T14:06:02.266Z</time></trkpt><trkpt lat="40.6112727" lon="9.6233126"><ele>268.0</ele><time>2026-03-29T14:06:03.261Z</time></trkpt><trkpt lat="40.6112179" lon="9.6234153"><ele>268.0</ele><time>2026-03-29T14:06:04.267Z</time></trkpt><trkpt lat="40.6111887" lon="9.6235164"><ele>268.0</ele><time>2026-03-29T14:06:05.258Z</time></trkpt><trkpt lat="40.6111714" lon="9.6235981"><ele>268.0</ele><time>2026-03-29T14:06:06.284Z</time></trkpt><trkpt lat="40.6111784" lon="9.6237104"><ele>268.0</ele><time>2026-03-29T14:06:08.263Z</time></trkpt><trkpt lat="40.6112457" lon="9.623808"><ele>270.0</ele><time>2026-03-29T14:06:10.269Z</time></trkpt><trkpt lat="40.6113279" lon="9.623903"><ele>272.0</ele><time>2026-03-29T14:06:12.261Z</time></trkpt><trkpt lat="40.6114068" lon="9.6240223"><ele>274.0</ele><time>2026-03-29T14:06:14.258Z</time></trkpt><trkpt lat="40.6114514" lon="9.6241811"><ele>276.0</ele><time>2026-03-29T14:06:16.258Z</time></trkpt><trkpt lat="40.6114641" lon="9.6242659"><ele>278.0</ele><time>2026-03-29T14:06:17.26Z</time></trkpt><trkpt lat="40.6114876" lon="9.6244261"><ele>278.0</ele><time>2026-03-29T14:06:19.269Z</time></trkpt><trkpt lat="40.611515" lon="9.6245936"><ele>278.0</ele><time>2026-03-29T14:06:21.258Z</time></trkpt><trkpt lat="40.61153" lon="9.6246904"><ele>278.0</ele><time>2026-03-29T14:06:22.262Z</time></trkpt><trkpt lat="40.6115425" lon="9.6247906"><ele>278.0</ele><time>2026-03-29T14:06:23.262Z</time></trkpt><trkpt lat="40.6115469" lon="9.6248832"><ele>278.0</ele><time>2026-03-29T14:06:24.258Z</time></trkpt><trkpt lat="40.6115433" lon="9.6249745"><ele>278.0</ele><time>2026-03-29T14:06:25.266Z</time></trkpt><trkpt lat="40.6115325" lon="9.6250689"><ele>278.0</ele><time>2026-03-29T14:06:26.265Z</time></trkpt><trkpt lat="40.6115168" lon="9.6251562"><ele>278.0</ele><time>2026-03-29T14:06:27.257Z</time></trkpt><trkpt lat="40.6114938" lon="9.625273"><ele>278.0</ele><time>2026-03-29T14:06:28.261Z</time></trkpt><trkpt lat="40.6114708" lon="9.6253826"><ele>278.0</ele><time>2026-03-29T14:06:29.258Z</time></trkpt><trkpt lat="40.6114414" lon="9.6255093"><ele>278.0</ele><time>2026-03-29T14:06:30.261Z</time></trkpt><trkpt lat="40.6114048" lon="9.6256353"><ele>278.0</ele><time>2026-03-29T14:06:31.265Z</time></trkpt><trkpt lat="40.6113715" lon="9.625757"><ele>278.0</ele><time>2026-03-29T14:06:32.261Z</time></trkpt><trkpt lat="40.6113451" lon="9.6258733"><ele>278.0</ele><time>2026-03-29T14:06:33.286Z</time></trkpt><trkpt lat="40.6113227" lon="9.6259761"><ele>278.0</ele><time>2026-03-29T14:06:34.264Z</time></trkpt><trkpt lat="40.6113242" lon="9.626071"><ele>278.0</ele><time>2026-03-29T14:06:35.268Z</time></trkpt><trkpt lat="40.6113331" lon="9.6261651"><ele>278.0</ele><time>2026-03-29T14:06:36.258Z</time></trkpt><trkpt lat="40.6113732" lon="9.6262467"><ele>278.0</ele><time>2026-03-29T14:06:37.259Z</time></trkpt><trkpt lat="40.61142" lon="9.6263303"><ele>276.6666666666667</ele><time>2026-03-29T14:06:38.259Z</time></trkpt><trkpt lat="40.6114433" lon="9.6264105"><ele>275.33333333333337</ele><time>2026-03-29T14:06:39.269Z</time></trkpt><trkpt lat="40.6114667" lon="9.6264888"><ele>274.0</ele><time>2026-03-29T14:06:40.272Z</time></trkpt><trkpt lat="40.6114771" lon="9.6265781"><ele>272.6666666666667</ele><time>2026-03-29T14:06:41.261Z</time></trkpt><trkpt lat="40.6114697" lon="9.6266884"><ele>271.3333333333333</ele><time>2026-03-29T14:06:42.265Z</time></trkpt><trkpt lat="40.6114576" lon="9.6268079"><ele>270.0</ele><time>2026-03-29T14:06:43.265Z</time></trkpt><trkpt lat="40.611431" lon="9.626914"><ele>269.0</ele><time>2026-03-29T14:06:44.273Z</time></trkpt><trkpt lat="40.6113955" lon="9.6270155"><ele>268.0</ele><time>2026-03-29T14:06:45.268Z</time></trkpt><trkpt lat="40.6113401" lon="9.6271259"><ele>267.0</ele><time>2026-03-29T14:06:46.285Z</time></trkpt><trkpt lat="40.6112901" lon="9.6272528"><ele>266.0</ele><time>2026-03-29T14:06:47.262Z</time></trkpt><trkpt lat="40.611262" lon="9.6274077"><ele>265.0</ele><time>2026-03-29T14:06:48.266Z</time></trkpt><trkpt lat="40.6112357" lon="9.6275706"><ele>265.0</ele><time>2026-03-29T14:06:49.264Z</time></trkpt><trkpt lat="40.6112048" lon="9.6277265"><ele>265.0</ele><time>2026-03-29T14:06:50.265Z</time></trkpt><trkpt lat="40.6111784" lon="9.6278775"><ele>265.0</ele><time>2026-03-29T14:06:51.281Z</time></trkpt><trkpt lat="40.6111625" lon="9.6280008"><ele>265.0</ele><time>2026-03-29T14:06:52.263Z</time></trkpt><trkpt lat="40.6111468" lon="9.6281045"><ele>265.0</ele><time>2026-03-29T14:06:53.264Z</time></trkpt><trkpt lat="40.6111165" lon="9.6282152"><ele>268.6</ele><time>2026-03-29T14:06:54.264Z</time></trkpt><trkpt lat="40.6110762" lon="9.6283266"><ele>272.2</ele><time>2026-03-29T14:06:55.26Z</time></trkpt><trkpt lat="40.6110343" lon="9.6284442"><ele>275.8</ele><time>2026-03-29T14:06:56.277Z</time></trkpt><trkpt lat="40.6109889" lon="9.6285578"><ele>279.4</ele><time>2026-03-29T14:06:57.268Z</time></trkpt><trkpt lat="40.6109468" lon="9.6286706"><ele>283.0</ele><time>2026-03-29T14:06:58.264Z</time></trkpt><trkpt lat="40.6108986" lon="9.6287973"><ele>287.25</ele><time>2026-03-29T14:06:59.263Z</time></trkpt><trkpt lat="40.6108533" lon="9.62893"><ele>291.5</ele><time>2026-03-29T14:07:00.258Z</time></trkpt><trkpt lat="40.6108141" lon="9.6290835"><ele>295.75</ele><time>2026-03-29T14:07:01.256Z</time></trkpt><trkpt lat="40.6107765" lon="9.6292423"><ele>300.0</ele><time>2026-03-29T14:07:02.265Z</time></trkpt><trkpt lat="40.6107381" lon="9.6293889"><ele>302.4</ele><time>2026-03-29T14:07:03.262Z</time></trkpt><trkpt lat="40.6106967" lon="9.6295191"><ele>304.8</ele><time>2026-03-29T14:07:04.265Z</time></trkpt><trkpt lat="40.6106254" lon="9.6296173"><ele>307.2</ele><time>2026-03-29T14:07:05.262Z</time></trkpt><trkpt lat="40.6105577" lon="9.6297239"><ele>309.6</ele><time>2026-03-29T14:07:06.266Z</time></trkpt><trkpt lat="40.6104937" lon="9.6298287"><ele>312.0</ele><time>2026-03-29T14:07:07.261Z</time></trkpt><trkpt lat="40.6104592" lon="9.6299595"><ele>312.0</ele><time>2026-03-29T14:07:08.267Z</time></trkpt><trkpt lat="40.610431" lon="9.630086"><ele>312.0</ele><time>2026-03-29T14:07:09.263Z</time></trkpt><trkpt lat="40.6104283" lon="9.6302233"><ele>312.0</ele><time>2026-03-29T14:07:10.261Z</time></trkpt><trkpt lat="40.6104254" lon="9.6303704"><ele>312.0</ele><time>2026-03-29T14:07:11.254Z</time></trkpt><trkpt lat="40.6104312" lon="9.6304977"><ele>312.0</ele><time>2026-03-29T14:07:12.26Z</time></trkpt><trkpt lat="40.6104369" lon="9.6305903"><ele>310.4</ele><time>2026-03-29T14:07:13.262Z</time></trkpt><trkpt lat="40.6104459" lon="9.6306803"><ele>308.79999999999995</ele><time>2026-03-29T14:07:15.261Z</time></trkpt><trkpt lat="40.610447" lon="9.6308207"><ele>307.2</ele><time>2026-03-29T14:18:44.264Z</time></trkpt><trkpt lat="40.6104379" lon="9.6309894"><ele>305.59999999999997</ele><time>2026-03-29T14:18:46.261Z</time></trkpt><trkpt lat="40.6104243" lon="9.6310987"><ele>304.0</ele><time>2026-03-29T14:18:47.262Z</time></trkpt><trkpt lat="40.6104039" lon="9.6312293"><ele>301.5</ele><time>2026-03-29T14:18:48.264Z</time></trkpt><trkpt lat="40.6103858" lon="9.631376"><ele>299.0</ele><time>2026-03-29T14:18:49.261Z</time></trkpt><trkpt lat="40.6103676" lon="9.6315219"><ele>296.5</ele><time>2026-03-29T14:18:50.261Z</time></trkpt><trkpt lat="40.6103507" lon="9.631677"><ele>294.0</ele><time>2026-03-29T14:18:51.259Z</time></trkpt><trkpt lat="40.6103399" lon="9.6318298"><ele>294.0</ele><time>2026-03-29T14:18:52.259Z</time></trkpt><trkpt lat="40.6103291" lon="9.6319702"><ele>294.0</ele><time>2026-03-29T14:18:53.266Z</time></trkpt><trkpt lat="40.6103204" lon="9.6321046"><ele>294.0</ele><time>2026-03-29T14:18:54.26Z</time></trkpt><trkpt lat="40.6103069" lon="9.6322328"><ele>294.0</ele><time>2026-03-29T14:18:55.264Z</time></trkpt><trkpt lat="40.6103013" lon="9.6323525"><ele>294.0</ele><time>2026-03-29T14:18:56.259Z</time></trkpt><trkpt lat="40.6102957" lon="9.6324621"><ele>294.6666666666667</ele><time>2026-03-29T14:18:57.261Z</time></trkpt><trkpt lat="40.6102908" lon="9.6325626"><ele>295.3333333333333</ele><time>2026-03-29T14:18:58.262Z</time></trkpt><trkpt lat="40.6102778" lon="9.6326536"><ele>296.0</ele><time>2026-03-29T14:18:59.274Z</time></trkpt><trkpt lat="40.6102067" lon="9.6327616"><ele>296.66666666666663</ele><time>2026-03-29T14:19:01.258Z</time></trkpt><trkpt lat="40.6101398" lon="9.6328248"><ele>297.3333333333333</ele><time>2026-03-29T14:19:02.261Z</time></trkpt><trkpt lat="40.6100672" lon="9.6329164"><ele>298.0</ele><time>2026-03-29T14:19:03.266Z</time></trkpt><trkpt lat="40.6099845" lon="9.6330517"><ele>298.0</ele><time>2026-03-29T14:19:04.285Z</time></trkpt><trkpt lat="40.6099184" lon="9.6331966"><ele>298.0</ele><time>2026-03-29T14:19:05.268Z</time></trkpt><trkpt lat="40.6098625" lon="9.6333419"><ele>298.0</ele><time>2026-03-29T14:19:06.263Z</time></trkpt><trkpt lat="40.6098173" lon="9.6334647"><ele>298.0</ele><time>2026-03-29T14:19:07.26Z</time></trkpt><trkpt lat="40.6097822" lon="9.6335617"><ele>298.0</ele><time>2026-03-29T14:19:08.263Z</time></trkpt><trkpt lat="40.6097473" lon="9.6336371"><ele>298.8</ele><time>2026-03-29T14:19:09.27Z</time></trkpt><trkpt lat="40.6096333" lon="9.6337398"><ele>299.6</ele><time>2026-03-29T14:19:11.268Z</time></trkpt><trkpt lat="40.6095562" lon="9.6337586"><ele>300.4</ele><time>2026-03-29T14:19:12.262Z</time></trkpt><trkpt lat="40.6094727" lon="9.6337521"><ele>301.2</ele><time>2026-03-29T14:19:13.268Z</time></trkpt><trkpt lat="40.6093798" lon="9.6337253"><ele>302.0</ele><time>2026-03-29T14:19:14.265Z</time></trkpt><trkpt lat="40.6092819" lon="9.6336751"><ele>303.6</ele><time>2026-03-29T14:19:15.264Z</time></trkpt><trkpt lat="40.6091714" lon="9.633616"><ele>305.2</ele><time>2026-03-29T14:19:16.27Z</time></trkpt><trkpt lat="40.6090637" lon="9.6335374"><ele>306.8</ele><time>2026-03-29T14:19:17.263Z</time></trkpt><trkpt lat="40.6089807" lon="9.633474"><ele>308.4</ele><time>2026-03-29T14:19:18.266Z</time></trkpt><trkpt lat="40.6089229" lon="9.6334262"><ele>310.0</ele><time>2026-03-29T14:19:19.268Z</time></trkpt><trkpt lat="40.6088183" lon="9.6334423"><ele>310.0</ele><time>2026-03-29T14:19:21.268Z</time></trkpt><trkpt lat="40.6087663" lon="9.6335474"><ele>310.0</ele><time>2026-03-29T14:19:23.272Z</time></trkpt><trkpt lat="40.6087867" lon="9.6336467"><ele>310.0</ele><time>2026-03-29T14:19:24.27Z</time></trkpt><trkpt lat="40.6088104" lon="9.6337599"><ele>310.0</ele><time>2026-03-29T14:19:25.269Z</time></trkpt><trkpt lat="40.6088602" lon="9.6339071"><ele>310.0</ele><time>2026-03-29T14:19:26.263Z</time></trkpt><trkpt lat="40.6088997" lon="9.6340623"><ele>308.8333333333333</ele><time>2026-03-29T14:19:27.266Z</time></trkpt><trkpt lat="40.6089227" lon="9.6341917"><ele>307.66666666666663</ele><time>2026-03-29T14:19:28.268Z</time></trkpt><trkpt lat="40.608955" lon="9.6342828"><ele>306.5</ele><time>2026-03-29T14:19:29.267Z</time></trkpt><trkpt lat="40.6090042" lon="9.6343446"><ele>305.3333333333333</ele><time>2026-03-29T14:19:30.262Z</time></trkpt><trkpt lat="40.6090667" lon="9.6344214"><ele>304.1666666666667</ele><time>2026-03-29T14:19:31.266Z</time></trkpt><trkpt lat="40.6091395" lon="9.6345009"><ele>303.0</ele><time>2026-03-29T14:19:32.268Z</time></trkpt><trkpt lat="40.6092028" lon="9.6345927"><ele>303.0</ele><time>2026-03-29T14:19:33.263Z</time></trkpt><trkpt lat="40.609259" lon="9.6347307"><ele>303.0</ele><time>2026-03-29T14:19:34.279Z</time></trkpt><trkpt lat="40.6093242" lon="9.6348535"><ele>303.0</ele><time>2026-03-29T14:19:35.266Z</time></trkpt><trkpt lat="40.6093945" lon="9.6349839"><ele>303.0</ele><time>2026-03-29T14:19:36.277Z</time></trkpt><trkpt lat="40.6094921" lon="9.6351057"><ele>302.0</ele><time>2026-03-29T14:19:37.266Z</time></trkpt><trkpt lat="40.6096002" lon="9.6352182"><ele>301.0</ele><time>2026-03-29T14:19:38.265Z</time></trkpt><trkpt lat="40.60972" lon="9.6353223"><ele>300.0</ele><time>2026-03-29T14:19:39.268Z</time></trkpt><trkpt lat="40.609846" lon="9.6354312"><ele>299.0</ele><time>2026-03-29T14:19:40.26Z</time></trkpt><trkpt lat="40.609979" lon="9.63554"><ele>299.0</ele><time>2026-03-29T14:19:41.266Z</time></trkpt><trkpt lat="40.6100992" lon="9.6356359"><ele>299.0</ele><time>2026-03-29T14:19:42.256Z</time></trkpt><trkpt lat="40.6101876" lon="9.6356983"><ele>299.0</ele><time>2026-03-29T14:19:43.27Z</time></trkpt><trkpt lat="40.6102478" lon="9.6357358"><ele>299.0</ele><time>2026-03-29T14:19:44.266Z</time></trkpt><trkpt lat="40.6103019" lon="9.6358261"><ele>299.0</ele><time>2026-03-29T14:19:46.264Z</time></trkpt><trkpt lat="40.6102721" lon="9.6359829"><ele>299.0</ele><time>2026-03-29T14:19:48.262Z</time></trkpt><trkpt lat="40.610204" lon="9.6361049"><ele>299.0</ele><time>2026-03-29T14:19:49.283Z</time></trkpt><trkpt lat="40.6101418" lon="9.6362178"><ele>299.0</ele><time>2026-03-29T14:19:50.267Z</time></trkpt><trkpt lat="40.6100839" lon="9.6362979"><ele>299.0</ele><time>2026-03-29T14:19:51.266Z</time></trkpt><trkpt lat="40.6100108" lon="9.6363297"><ele>299.0</ele><time>2026-03-29T14:19:52.266Z</time></trkpt><trkpt lat="40.6099246" lon="9.6363621"><ele>298.25</ele><time>2026-03-29T14:19:53.268Z</time></trkpt><trkpt lat="40.6098014" lon="9.6363547"><ele>297.5</ele><time>2026-03-29T14:19:54.278Z</time></trkpt><trkpt lat="40.6096721" lon="9.6363472"><ele>296.75</ele><time>2026-03-29T14:19:55.26Z</time></trkpt><trkpt lat="40.6095257" lon="9.6363389"><ele>296.0</ele><time>2026-03-29T14:19:56.268Z</time></trkpt><trkpt lat="40.6093806" lon="9.6363279"><ele>298.2</ele><time>2026-03-29T14:19:57.264Z</time></trkpt><trkpt lat="40.6092539" lon="9.6363155"><ele>300.40000000000003</ele><time>2026-03-29T14:19:58.257Z</time></trkpt><trkpt lat="40.6091568" lon="9.636306"><ele>302.6</ele><time>2026-03-29T14:19:59.268Z</time></trkpt><trkpt lat="40.6090803" lon="9.6362974"><ele>304.8</ele><time>2026-03-29T14:20:00.267Z</time></trkpt><trkpt lat="40.6090075" lon="9.6362942"><ele>307.0</ele><time>2026-03-29T14:20:01.27Z</time></trkpt><trkpt lat="40.6089309" lon="9.6363085"><ele>307.0</ele><time>2026-03-29T14:20:03.265Z</time></trkpt><trkpt lat="40.6089188" lon="9.636411"><ele>307.0</ele><time>2026-03-29T14:20:05.278Z</time></trkpt><trkpt lat="40.6089246" lon="9.636522"><ele>307.0</ele><time>2026-03-29T14:20:32.275Z</time></trkpt><trkpt lat="40.6089457" lon="9.6366135"><ele>307.0</ele><time>2026-03-29T14:20:34.267Z</time></trkpt><trkpt lat="40.6089617" lon="9.6367769"><ele>307.0</ele><time>2026-03-29T14:20:36.262Z</time></trkpt><trkpt lat="40.6089663" lon="9.6368599"><ele>307.0</ele><time>2026-03-29T14:20:37.264Z</time></trkpt><trkpt lat="40.6089594" lon="9.6369459"><ele>304.8333333333333</ele><time>2026-03-29T14:20:38.266Z</time></trkpt><trkpt lat="40.6089342" lon="9.6370319"><ele>302.66666666666663</ele><time>2026-03-29T14:20:39.263Z</time></trkpt><trkpt lat="40.608903" lon="9.6371177"><ele>300.5</ele><time>2026-03-29T14:20:40.266Z</time></trkpt><trkpt lat="40.6088714" lon="9.6371935"><ele>298.3333333333333</ele><time>2026-03-29T14:20:41.267Z</time></trkpt><trkpt lat="40.6088135" lon="9.6372821"><ele>296.1666666666667</ele><time>2026-03-29T14:20:43.259Z</time></trkpt><trkpt lat="40.6087213" lon="9.6372662"><ele>294.0</ele><time>2026-03-29T14:20:45.27Z</time></trkpt><trkpt lat="40.6085914" lon="9.6372028"><ele>294.0</ele><time>2026-03-29T14:20:47.257Z</time></trkpt><trkpt lat="40.6085058" lon="9.6371985"><ele>294.0</ele><time>2026-03-29T14:20:48.258Z</time></trkpt><trkpt lat="40.6084194" lon="9.6372353"><ele>294.0</ele><time>2026-03-29T14:20:49.261Z</time></trkpt><trkpt lat="40.6083259" lon="9.6372973"><ele>294.0</ele><time>2026-03-29T14:20:50.258Z</time></trkpt><trkpt lat="40.6082273" lon="9.6373617"><ele>294.0</ele><time>2026-03-29T14:20:51.273Z</time></trkpt><trkpt lat="40.6081353" lon="9.6374344"><ele>294.0</ele><time>2026-03-29T14:20:52.263Z</time></trkpt><trkpt lat="40.6080589" lon="9.6374921"><ele>294.0</ele><time>2026-03-29T14:20:53.271Z</time></trkpt><trkpt lat="40.607993" lon="9.6375423"><ele>294.0</ele><time>2026-03-29T14:20:54.261Z</time></trkpt><trkpt lat="40.6079295" lon="9.6375688"><ele>294.0</ele><time>2026-03-29T14:20:55.272Z</time></trkpt><trkpt lat="40.6078619" lon="9.6375876"><ele>294.0</ele><time>2026-03-29T14:20:56.268Z</time></trkpt><trkpt lat="40.6077782" lon="9.6375821"><ele>294.0</ele><time>2026-03-29T14:20:57.261Z</time></trkpt><trkpt lat="40.6076759" lon="9.6375616"><ele>294.4</ele><time>2026-03-29T14:20:58.256Z</time></trkpt><trkpt lat="40.6075815" lon="9.6375496"><ele>294.79999999999995</ele><time>2026-03-29T14:20:59.262Z</time></trkpt><trkpt lat="40.6074795" lon="9.6375679"><ele>295.20000000000005</ele><time>2026-03-29T14:21:00.259Z</time></trkpt><trkpt lat="40.6073656" lon="9.6376141"><ele>295.6</ele><time>2026-03-29T14:21:01.257Z</time></trkpt><trkpt lat="40.6072546" lon="9.637666"><ele>296.0</ele><time>2026-03-29T14:21:02.266Z</time></trkpt><trkpt lat="40.6071694" lon="9.6377204"><ele>296.0</ele><time>2026-03-29T14:21:03.265Z</time></trkpt><trkpt lat="40.6070969" lon="9.6377666"><ele>296.0</ele><time>2026-03-29T14:21:04.26Z</time></trkpt><trkpt lat="40.6070423" lon="9.6378445"><ele>296.0</ele><time>2026-03-29T14:21:05.276Z</time></trkpt><trkpt lat="40.6069916" lon="9.6379175"><ele>296.0</ele><time>2026-03-29T14:21:06.271Z</time></trkpt><trkpt lat="40.6069292" lon="9.637967"><ele>296.0</ele><time>2026-03-29T14:21:07.261Z</time></trkpt><trkpt lat="40.6068624" lon="9.6379786"><ele>296.0</ele><time>2026-03-29T14:21:08.271Z</time></trkpt><trkpt lat="40.6067811" lon="9.6380072"><ele>291.6</ele><time>2026-03-29T14:21:09.261Z</time></trkpt><trkpt lat="40.6066998" lon="9.6380779"><ele>287.20000000000005</ele><time>2026-03-29T14:21:10.257Z</time></trkpt><trkpt lat="40.6066372" lon="9.638159"><ele>282.79999999999995</ele><time>2026-03-29T14:21:11.271Z</time></trkpt><trkpt lat="40.6065789" lon="9.6382145"><ele>278.4</ele><time>2026-03-29T14:21:12.267Z</time></trkpt><trkpt lat="40.6064567" lon="9.6382716"><ele>274.0</ele><time>2026-03-29T14:21:14.265Z</time></trkpt><trkpt lat="40.6063811" lon="9.6383188"><ele>274.0</ele><time>2026-03-29T14:21:15.263Z</time></trkpt><trkpt lat="40.6063232" lon="9.6384267"><ele>274.0</ele><time>2026-03-29T14:21:16.263Z</time></trkpt><trkpt lat="40.6062654" lon="9.6385443"><ele>274.0</ele><time>2026-03-29T14:21:17.267Z</time></trkpt><trkpt lat="40.606203" lon="9.6386652"><ele>274.0</ele><time>2026-03-29T14:21:18.26Z</time></trkpt><trkpt lat="40.6061236" lon="9.6387736"><ele>274.0</ele><time>2026-03-29T14:21:19.261Z</time></trkpt><trkpt lat="40.6060344" lon="9.6388673"><ele>274.2</ele><time>2026-03-29T14:21:20.262Z</time></trkpt><trkpt lat="40.605956" lon="9.6389501"><ele>274.4</ele><time>2026-03-29T14:21:21.263Z</time></trkpt><trkpt lat="40.6058765" lon="9.6390337"><ele>274.6</ele><time>2026-03-29T14:21:22.261Z</time></trkpt><trkpt lat="40.6057985" lon="9.6391023"><ele>274.8</ele><time>2026-03-29T14:21:23.262Z</time></trkpt><trkpt lat="40.6057239" lon="9.6391714"><ele>275.0</ele><time>2026-03-29T14:21:24.262Z</time></trkpt><trkpt lat="40.605652" lon="9.6392394"><ele>275.0</ele><time>2026-03-29T14:21:25.264Z</time></trkpt><trkpt lat="40.6055799" lon="9.6393245"><ele>275.0</ele><time>2026-03-29T14:21:26.28Z</time></trkpt><trkpt lat="40.6055347" lon="9.639397"><ele>275.0</ele><time>2026-03-29T14:21:27.26Z</time></trkpt><trkpt lat="40.6055096" lon="9.6395314"><ele>275.0</ele><time>2026-03-29T14:21:29.264Z</time></trkpt><trkpt lat="40.6055718" lon="9.6396522"><ele>275.0</ele><time>2026-03-29T14:21:31.273Z</time></trkpt><trkpt lat="40.6056555" lon="9.639691"><ele>273.25</ele><time>2026-03-29T14:21:32.263Z</time></trkpt><trkpt lat="40.605754" lon="9.6397381"><ele>271.5</ele><time>2026-03-29T14:21:33.263Z</time></trkpt><trkpt lat="40.6058549" lon="9.6398215"><ele>269.75</ele><time>2026-03-29T14:21:34.262Z</time></trkpt><trkpt lat="40.6059649" lon="9.639938"><ele>268.0</ele><time>2026-03-29T14:21:35.263Z</time></trkpt><trkpt lat="40.6060608" lon="9.6400469"><ele>268.0</ele><time>2026-03-29T14:21:36.279Z</time></trkpt><trkpt lat="40.6061431" lon="9.6401123"><ele>268.0</ele><time>2026-03-29T14:21:37.258Z</time></trkpt><trkpt lat="40.606207" lon="9.6401451"><ele>268.0</ele><time>2026-03-29T14:21:38.263Z</time></trkpt><trkpt lat="40.606307" lon="9.640241"><ele>268.0</ele><time>2026-03-29T14:21:40.262Z</time></trkpt><trkpt lat="40.6063382" lon="9.6403436"><ele>268.0</ele><time>2026-03-29T14:21:41.255Z</time></trkpt><trkpt lat="40.6063668" lon="9.6404711"><ele>261.4</ele><time>2026-03-29T14:21:42.265Z</time></trkpt><trkpt lat="40.6064094" lon="9.6405912"><ele>254.8</ele><time>2026-03-29T14:21:43.261Z</time></trkpt><trkpt lat="40.6064441" lon="9.6406919"><ele>248.2</ele><time>2026-03-29T14:21:44.263Z</time></trkpt><trkpt lat="40.6064904" lon="9.6407986"><ele>241.6</ele><time>2026-03-29T14:21:45.267Z</time></trkpt><trkpt lat="40.6065592" lon="9.6408935"><ele>235.0</ele><time>2026-03-29T14:21:46.264Z</time></trkpt><trkpt lat="40.6066369" lon="9.6409733"><ele>234.99999999999997</ele><time>2026-03-29T14:21:47.269Z</time></trkpt><trkpt lat="40.6067054" lon="9.6410278"><ele>235.0</ele><time>2026-03-29T14:21:48.262Z</time></trkpt><trkpt lat="40.6067632" lon="9.641069"><ele>235.0</ele><time>2026-03-29T14:21:49.267Z</time></trkpt><trkpt lat="40.6067692" lon="9.6411592"><ele>235.0</ele><time>2026-03-29T14:21:52.273Z</time></trkpt><trkpt lat="40.6066689" lon="9.641201"><ele>234.99999999999997</ele><time>2026-03-29T14:21:54.262Z</time></trkpt><trkpt lat="40.6065936" lon="9.6412074"><ele>235.0</ele><time>2026-03-29T14:21:55.263Z</time></trkpt><trkpt lat="40.6065182" lon="9.6411951"><ele>234.99999999999997</ele><time>2026-03-29T14:21:56.273Z</time></trkpt><trkpt lat="40.6064429" lon="9.6411802"><ele>235.0</ele><time>2026-03-29T14:21:57.257Z</time></trkpt><trkpt lat="40.6063709" lon="9.6411345"><ele>235.0</ele><time>2026-03-29T14:21:58.263Z</time></trkpt><trkpt lat="40.6062971" lon="9.6410689"><ele>235.0</ele><time>2026-03-29T14:21:59.257Z</time></trkpt><trkpt lat="40.6062321" lon="9.6410214"><ele>234.99999999999997</ele><time>2026-03-29T14:22:00.262Z</time></trkpt><trkpt lat="40.6061624" lon="9.6410063"><ele>235.0</ele><time>2026-03-29T14:22:01.257Z</time></trkpt><trkpt lat="40.6060861" lon="9.6410333"><ele>237.0</ele><time>2026-03-29T14:22:02.26Z</time></trkpt><trkpt lat="40.6059998" lon="9.6410821"><ele>239.0</ele><time>2026-03-29T14:22:03.285Z</time></trkpt><trkpt lat="40.6059169" lon="9.641162"><ele>241.0</ele><time>2026-03-29T14:22:04.257Z</time></trkpt><trkpt lat="40.6058391" lon="9.6412345"><ele>243.0</ele><time>2026-03-29T14:22:05.263Z</time></trkpt><trkpt lat="40.6057937" lon="9.6413027"><ele>245.0</ele><time>2026-03-29T14:22:06.261Z</time></trkpt><trkpt lat="40.6057367" lon="9.6414383"><ele>245.0</ele><time>2026-03-29T14:22:08.259Z</time></trkpt><trkpt lat="40.6057801" lon="9.6415249"><ele>245.0</ele><time>2026-03-29T14:22:10.263Z</time></trkpt><trkpt lat="40.6058887" lon="9.641521"><ele>245.0</ele><time>2026-03-29T14:22:12.257Z</time></trkpt><trkpt lat="40.6059977" lon="9.6415837"><ele>245.0</ele><time>2026-03-29T14:22:14.274Z</time></trkpt><trkpt lat="40.6060455" lon="9.6416648"><ele>245.0</ele><time>2026-03-29T14:22:15.266Z</time></trkpt><trkpt lat="40.6060882" lon="9.6417622"><ele>245.0</ele><time>2026-03-29T14:22:16.258Z</time></trkpt><trkpt lat="40.6061554" lon="9.6418584"><ele>245.0</ele><time>2026-03-29T14:22:17.262Z</time></trkpt><trkpt lat="40.6062535" lon="9.6419316"><ele>245.0</ele><time>2026-03-29T14:22:18.259Z</time></trkpt><trkpt lat="40.6063424" lon="9.6420089"><ele>245.0</ele><time>2026-03-29T14:22:19.267Z</time></trkpt><trkpt lat="40.6064385" lon="9.6420896"><ele>245.0</ele><time>2026-03-29T14:22:20.264Z</time></trkpt><trkpt lat="40.6065417" lon="9.642137"><ele>241.2</ele><time>2026-03-29T14:22:21.282Z</time></trkpt><trkpt lat="40.6066493" lon="9.6421566"><ele>237.4</ele><time>2026-03-29T14:22:22.262Z</time></trkpt><trkpt lat="40.6067491" lon="9.6421824"><ele>233.60000000000002</ele><time>2026-03-29T14:22:23.27Z</time></trkpt><trkpt lat="40.6068331" lon="9.642244"><ele>229.8</ele><time>2026-03-29T14:22:24.26Z</time></trkpt><trkpt lat="40.6069004" lon="9.6423099"><ele>226.0</ele><time>2026-03-29T14:22:25.258Z</time></trkpt><trkpt lat="40.6069714" lon="9.6423731"><ele>223.66666666666666</ele><time>2026-03-29T14:22:26.26Z</time></trkpt><trkpt lat="40.6070332" lon="9.642452"><ele>221.33333333333331</ele><time>2026-03-29T14:22:27.262Z</time></trkpt><trkpt lat="40.6070862" lon="9.6425454"><ele>219.0</ele><time>2026-03-29T14:22:28.279Z</time></trkpt><trkpt lat="40.6071238" lon="9.6426343"><ele>216.66666666666669</ele><time>2026-03-29T14:22:29.262Z</time></trkpt><trkpt lat="40.6071496" lon="9.6427284"><ele>214.33333333333334</ele><time>2026-03-29T14:22:30.261Z</time></trkpt><trkpt lat="40.6071613" lon="9.6428285"><ele>212.0</ele><time>2026-03-29T14:22:31.263Z</time></trkpt><trkpt lat="40.6071534" lon="9.6429367"><ele>209.83333333333334</ele><time>2026-03-29T14:22:32.267Z</time></trkpt><trkpt lat="40.6071212" lon="9.6430372"><ele>207.66666666666669</ele><time>2026-03-29T14:22:33.258Z</time></trkpt><trkpt lat="40.6070669" lon="9.6431184"><ele>205.5</ele><time>2026-03-29T14:22:34.281Z</time></trkpt><trkpt lat="40.6070057" lon="9.6432028"><ele>203.33333333333331</ele><time>2026-03-29T14:22:35.261Z</time></trkpt><trkpt lat="40.6069238" lon="9.6432804"><ele>201.16666666666666</ele><time>2026-03-29T14:22:36.257Z</time></trkpt><trkpt lat="40.6068699" lon="9.6433641"><ele>199.0</ele><time>2026-03-29T14:22:37.261Z</time></trkpt><trkpt lat="40.6068224" lon="9.6434451"><ele>197.83333333333331</ele><time>2026-03-29T14:22:38.265Z</time></trkpt><trkpt lat="40.6068227" lon="9.6435383"><ele>196.66666666666666</ele><time>2026-03-29T14:22:39.266Z</time></trkpt><trkpt lat="40.6068475" lon="9.6436334"><ele>195.5</ele><time>2026-03-29T14:22:40.266Z</time></trkpt><trkpt lat="40.606883" lon="9.6437374"><ele>194.33333333333331</ele><time>2026-03-29T14:22:41.258Z</time></trkpt><trkpt lat="40.6069423" lon="9.6438421"><ele>193.16666666666666</ele><time>2026-03-29T14:22:42.265Z</time></trkpt><trkpt lat="40.6069994" lon="9.6439588"><ele>192.0</ele><time>2026-03-29T14:22:43.26Z</time></trkpt><trkpt lat="40.607049" lon="9.6440642"><ele>192.0</ele><time>2026-03-29T14:22:44.258Z</time></trkpt><trkpt lat="40.6070803" lon="9.6441455"><ele>192.0</ele><time>2026-03-29T14:22:45.265Z</time></trkpt><trkpt lat="40.6070962" lon="9.6442946"><ele>192.0</ele><time>2026-03-29T14:22:47.284Z</time></trkpt><trkpt lat="40.6070982" lon="9.644403"><ele>192.0</ele><time>2026-03-29T14:22:48.262Z</time></trkpt><trkpt lat="40.6071125" lon="9.6445235"><ele>192.0</ele><time>2026-03-29T14:22:49.26Z</time></trkpt><trkpt lat="40.6071506" lon="9.6446621"><ele>194.16666666666666</ele><time>2026-03-29T14:22:50.258Z</time></trkpt><trkpt lat="40.6072051" lon="9.6447687"><ele>196.33333333333331</ele><time>2026-03-29T14:22:51.259Z</time></trkpt><trkpt lat="40.6072473" lon="9.6448494"><ele>198.5</ele><time>2026-03-29T14:22:52.266Z</time></trkpt><trkpt lat="40.6072753" lon="9.6449321"><ele>200.66666666666666</ele><time>2026-03-29T14:22:53.263Z</time></trkpt><trkpt lat="40.6072951" lon="9.6450342"><ele>202.83333333333331</ele><time>2026-03-29T14:22:54.286Z</time></trkpt><trkpt lat="40.6073093" lon="9.645161"><ele>205.0</ele><time>2026-03-29T14:22:55.27Z</time></trkpt><trkpt lat="40.6073172" lon="9.6452837"><ele>208.6</ele><time>2026-03-29T14:22:56.275Z</time></trkpt><trkpt lat="40.6073348" lon="9.6454257"><ele>212.2</ele><time>2026-03-29T14:22:57.264Z</time></trkpt><trkpt lat="40.6073468" lon="9.6455587"><ele>215.8</ele><time>2026-03-29T14:22:58.268Z</time></trkpt><trkpt lat="40.607359" lon="9.6457"><ele>219.4</ele><time>2026-03-29T14:22:59.261Z</time></trkpt><trkpt lat="40.6073732" lon="9.6458406"><ele>223.0</ele><time>2026-03-29T14:23:00.262Z</time></trkpt><trkpt lat="40.6074112" lon="9.6459928"><ele>223.16666666666666</ele><time>2026-03-29T14:23:01.27Z</time></trkpt><trkpt lat="40.6074522" lon="9.6461327"><ele>223.33333333333331</ele><time>2026-03-29T14:23:02.265Z</time></trkpt><trkpt lat="40.6074883" lon="9.6462615"><ele>223.5</ele><time>2026-03-29T14:23:03.264Z</time></trkpt><trkpt lat="40.6074792" lon="9.6463605"><ele>223.66666666666669</ele><time>2026-03-29T14:23:04.278Z</time></trkpt><trkpt lat="40.6074675" lon="9.6464613"><ele>223.83333333333334</ele><time>2026-03-29T14:23:05.264Z</time></trkpt><trkpt lat="40.6074381" lon="9.6465433"><ele>224.0</ele><time>2026-03-29T14:23:06.264Z</time></trkpt><trkpt lat="40.6073823" lon="9.6466062"><ele>224.0</ele><time>2026-03-29T14:23:07.266Z</time></trkpt><trkpt lat="40.6073084" lon="9.6466385"><ele>223.99999999999997</ele><time>2026-03-29T14:23:08.258Z</time></trkpt><trkpt lat="40.6072206" lon="9.6466552"><ele>223.99999999999997</ele><time>2026-03-29T14:23:09.274Z</time></trkpt><trkpt lat="40.6071187" lon="9.6466714"><ele>224.0</ele><time>2026-03-29T14:23:10.266Z</time></trkpt><trkpt lat="40.6070017" lon="9.6467099"><ele>224.0</ele><time>2026-03-29T14:23:11.261Z</time></trkpt><trkpt lat="40.6068906" lon="9.6467435"><ele>224.2</ele><time>2026-03-29T14:23:12.262Z</time></trkpt><trkpt lat="40.6067871" lon="9.6467667"><ele>224.39999999999998</ele><time>2026-03-29T14:23:13.266Z</time></trkpt><trkpt lat="40.6067039" lon="9.6468087"><ele>224.6</ele><time>2026-03-29T14:23:14.26Z</time></trkpt><trkpt lat="40.6066352" lon="9.6468893"><ele>224.8</ele><time>2026-03-29T14:23:15.29Z</time></trkpt><trkpt lat="40.606556" lon="9.6469839"><ele>225.0</ele><time>2026-03-29T14:23:16.261Z</time></trkpt><trkpt lat="40.6064796" lon="9.6470616"><ele>225.0</ele><time>2026-03-29T14:23:17.27Z</time></trkpt><trkpt lat="40.6064023" lon="9.6471231"><ele>225.0</ele><time>2026-03-29T14:23:18.264Z</time></trkpt><trkpt lat="40.606312" lon="9.6471948"><ele>225.0</ele><time>2026-03-29T14:23:19.266Z</time></trkpt><trkpt lat="40.606225" lon="9.6472566"><ele>225.0</ele><time>2026-03-29T14:23:20.264Z</time></trkpt><trkpt lat="40.606143" lon="9.6472698"><ele>225.0</ele><time>2026-03-29T14:23:21.263Z</time></trkpt><trkpt lat="40.6060116" lon="9.6472367"><ele>230.6</ele><time>2026-03-29T14:23:23.266Z</time></trkpt><trkpt lat="40.6059124" lon="9.6471936"><ele>236.2</ele><time>2026-03-29T14:23:24.258Z</time></trkpt><trkpt lat="40.6058065" lon="9.6471586"><ele>241.8</ele><time>2026-03-29T14:23:25.266Z</time></trkpt><trkpt lat="40.6057153" lon="9.6471542"><ele>247.4</ele><time>2026-03-29T14:23:26.262Z</time></trkpt><trkpt lat="40.6056227" lon="9.6472087"><ele>253.0</ele><time>2026-03-29T14:23:28.26Z</time></trkpt><trkpt lat="40.6055861" lon="9.6473354"><ele>253.0</ele><time>2026-03-29T14:23:30.266Z</time></trkpt><trkpt lat="40.6056056" lon="9.6474324"><ele>253.0</ele><time>2026-03-29T14:23:31.27Z</time></trkpt><trkpt lat="40.6056405" lon="9.6475701"><ele>253.0</ele><time>2026-03-29T14:23:32.262Z</time></trkpt><trkpt lat="40.6056612" lon="9.6477234"><ele>253.0</ele><time>2026-03-29T14:23:33.269Z</time></trkpt><trkpt lat="40.6056888" lon="9.6478853"><ele>253.0</ele><time>2026-03-29T14:23:34.269Z</time></trkpt><trkpt lat="40.6057169" lon="9.6480315"><ele>252.4</ele><time>2026-03-29T14:23:35.265Z</time></trkpt><trkpt lat="40.6057362" lon="9.6481286"><ele>251.8</ele><time>2026-03-29T14:23:36.265Z</time></trkpt><trkpt lat="40.6057371" lon="9.6482589"><ele>251.2</ele><time>2026-03-29T14:23:37.271Z</time></trkpt><trkpt lat="40.6057309" lon="9.6484088"><ele>250.6</ele><time>2026-03-29T14:23:38.264Z</time></trkpt><trkpt lat="40.6057261" lon="9.6485666"><ele>250.0</ele><time>2026-03-29T14:23:39.268Z</time></trkpt><trkpt lat="40.6057305" lon="9.6487095"><ele>249.25</ele><time>2026-03-29T14:23:40.26Z</time></trkpt><trkpt lat="40.6057309" lon="9.6488582"><ele>248.5</ele><time>2026-03-29T14:23:41.266Z</time></trkpt><trkpt lat="40.6057333" lon="9.6490275"><ele>247.75</ele><time>2026-03-29T14:23:42.27Z</time></trkpt><trkpt lat="40.6057267" lon="9.6492064"><ele>247.0</ele><time>2026-03-29T14:23:43.266Z</time></trkpt><trkpt lat="40.6057162" lon="9.6493667"><ele>246.0</ele><time>2026-03-29T14:23:44.285Z</time></trkpt><trkpt lat="40.6057046" lon="9.6494739"><ele>245.0</ele><time>2026-03-29T14:23:45.272Z</time></trkpt><trkpt lat="40.6056532" lon="9.649595"><ele>244.0</ele><time>2026-03-29T14:23:47.272Z</time></trkpt><trkpt lat="40.6055851" lon="9.6496612"><ele>243.0</ele><time>2026-03-29T14:23:48.261Z</time></trkpt><trkpt lat="40.6055187" lon="9.6497083"><ele>242.0</ele><time>2026-03-29T14:23:49.299Z</time></trkpt><trkpt lat="40.6054127" lon="9.6497144"><ele>242.0</ele><time>2026-03-29T14:23:51.262Z</time></trkpt><trkpt lat="40.6053396" lon="9.649676"><ele>242.0</ele><time>2026-03-29T14:23:52.268Z</time></trkpt><trkpt lat="40.6052653" lon="9.6496173"><ele>242.0</ele><time>2026-03-29T14:23:53.262Z</time></trkpt><trkpt lat="40.6051962" lon="9.6495276"><ele>242.0</ele><time>2026-03-29T14:23:54.283Z</time></trkpt><trkpt lat="40.6051205" lon="9.6494147"><ele>242.0</ele><time>2026-03-29T14:23:55.26Z</time></trkpt><trkpt lat="40.6050454" lon="9.6493201"><ele>245.6</ele><time>2026-03-29T14:23:56.269Z</time></trkpt><trkpt lat="40.6049747" lon="9.64926"><ele>249.2</ele><time>2026-03-29T14:23:57.263Z</time></trkpt><trkpt lat="40.6048722" lon="9.6492198"><ele>252.8</ele><time>2026-03-29T14:23:58.262Z</time></trkpt><trkpt lat="40.6047497" lon="9.6491709"><ele>256.4</ele><time>2026-03-29T14:23:59.277Z</time></trkpt><trkpt lat="40.6046223" lon="9.6491375"><ele>260.0</ele><time>2026-03-29T14:24:00.262Z</time></trkpt><trkpt lat="40.6044933" lon="9.6491184"><ele>260.4</ele><time>2026-03-29T14:24:01.261Z</time></trkpt><trkpt lat="40.6043933" lon="9.6491059"><ele>260.8</ele><time>2026-03-29T14:24:02.257Z</time></trkpt><trkpt lat="40.6042628" lon="9.6491383"><ele>261.2</ele><time>2026-03-29T14:24:04.259Z</time></trkpt><trkpt lat="40.6042155" lon="9.6492179"><ele>261.6</ele><time>2026-03-29T14:24:05.256Z</time></trkpt><trkpt lat="40.6041606" lon="9.6493168"><ele>262.0</ele><time>2026-03-29T14:24:06.261Z</time></trkpt><trkpt lat="40.6041328" lon="9.6494084"><ele>262.5</ele><time>2026-03-29T14:24:07.262Z</time></trkpt><trkpt lat="40.6041369" lon="9.6495113"><ele>263.0</ele><time>2026-03-29T14:24:08.258Z</time></trkpt><trkpt lat="40.6041914" lon="9.6495934"><ele>263.5</ele><time>2026-03-29T14:24:09.264Z</time></trkpt><trkpt lat="40.6042657" lon="9.6496476"><ele>264.0</ele><time>2026-03-29T14:24:10.256Z</time></trkpt><trkpt lat="40.604352" lon="9.64967"><ele>264.5</ele><time>2026-03-29T14:24:11.256Z</time></trkpt><trkpt lat="40.604448" lon="9.6497458"><ele>265.0</ele><time>2026-03-29T14:24:12.26Z</time></trkpt><trkpt lat="40.6045242" lon="9.6498429"><ele>263.75</ele><time>2026-03-29T14:24:13.266Z</time></trkpt><trkpt lat="40.6045846" lon="9.6499837"><ele>262.5</ele><time>2026-03-29T14:24:14.261Z</time></trkpt><trkpt lat="40.6046407" lon="9.6501452"><ele>261.25</ele><time>2026-03-29T14:24:15.274Z</time></trkpt><trkpt lat="40.6046937" lon="9.6503117"><ele>260.0</ele><time>2026-03-29T14:24:16.257Z</time></trkpt><trkpt lat="40.6047355" lon="9.650479"><ele>260.0</ele><time>2026-03-29T14:24:17.265Z</time></trkpt><trkpt lat="40.6047751" lon="9.6506366"><ele>260.0</ele><time>2026-03-29T14:24:18.264Z</time></trkpt><trkpt lat="40.6048276" lon="9.6507984"><ele>260.0</ele><time>2026-03-29T14:24:19.259Z</time></trkpt><trkpt lat="40.6048845" lon="9.650944"><ele>260.0</ele><time>2026-03-29T14:24:20.266Z</time></trkpt><trkpt lat="40.6049506" lon="9.6510563"><ele>265.75</ele><time>2026-03-29T14:24:21.258Z</time></trkpt><trkpt lat="40.6050374" lon="9.651162"><ele>271.5</ele><time>2026-03-29T14:24:22.262Z</time></trkpt><trkpt lat="40.6051373" lon="9.6512744"><ele>277.25</ele><time>2026-03-29T14:24:23.257Z</time></trkpt><trkpt lat="40.6052331" lon="9.6513665"><ele>283.0</ele><time>2026-03-29T14:24:24.267Z</time></trkpt><trkpt lat="40.6053195" lon="9.6514181"><ele>277.2</ele><time>2026-03-29T14:24:25.259Z</time></trkpt><trkpt lat="40.6054268" lon="9.6514357"><ele>271.4</ele><time>2026-03-29T14:24:26.271Z</time></trkpt><trkpt lat="40.6055149" lon="9.6514171"><ele>265.59999999999997</ele><time>2026-03-29T14:24:27.258Z</time></trkpt><trkpt lat="40.6056059" lon="9.651393"><ele>259.8</ele><time>2026-03-29T14:24:28.267Z</time></trkpt><trkpt lat="40.6056969" lon="9.6513572"><ele>254.0</ele><time>2026-03-29T14:24:29.268Z</time></trkpt><trkpt lat="40.6057674" lon="9.6513357"><ele>254.0</ele><time>2026-03-29T14:24:30.267Z</time></trkpt><trkpt lat="40.6058564" lon="9.651397"><ele>253.99999999999997</ele><time>2026-03-29T14:24:32.275Z</time></trkpt><trkpt lat="40.605871" lon="9.6515722"><ele>253.99999999999997</ele><time>2026-03-29T14:24:34.266Z</time></trkpt><trkpt lat="40.6058703" lon="9.651682"><ele>254.0</ele><time>2026-03-29T14:24:35.27Z</time></trkpt><trkpt lat="40.6058673" lon="9.6518145"><ele>254.0</ele><time>2026-03-29T14:24:36.262Z</time></trkpt><trkpt lat="40.6058781" lon="9.6519852"><ele>252.25</ele><time>2026-03-29T14:24:37.284Z</time></trkpt><trkpt lat="40.6058922" lon="9.6521829"><ele>250.5</ele><time>2026-03-29T14:24:38.268Z</time></trkpt><trkpt lat="40.6059015" lon="9.6523741"><ele>248.75</ele><time>2026-03-29T14:24:39.268Z</time></trkpt><trkpt lat="40.6059088" lon="9.6525251"><ele>247.0</ele><time>2026-03-29T14:24:40.266Z</time></trkpt><trkpt lat="40.6059082" lon="9.6526344"><ele>246.99999999999997</ele><time>2026-03-29T14:24:41.257Z</time></trkpt><trkpt lat="40.6058991" lon="9.652725"><ele>247.0</ele><time>2026-03-29T14:24:42.257Z</time></trkpt><trkpt lat="40.6058885" lon="9.6528083"><ele>247.0</ele><time>2026-03-29T14:24:43.259Z</time></trkpt><trkpt lat="40.6058654" lon="9.6529027"><ele>247.0</ele><time>2026-03-29T14:24:46.278Z</time></trkpt><trkpt lat="40.605791" lon="9.6529508"><ele>246.99999999999997</ele><time>2026-03-29T14:26:08.276Z</time></trkpt><trkpt lat="40.6057075" lon="9.6530662"><ele>247.0</ele><time>2026-03-29T14:26:10.263Z</time></trkpt><trkpt lat="40.6056746" lon="9.6531476"><ele>245.6</ele><time>2026-03-29T14:26:11.273Z</time></trkpt><trkpt lat="40.6056649" lon="9.6532664"><ele>244.2</ele><time>2026-03-29T14:26:12.26Z</time></trkpt><trkpt lat="40.6056787" lon="9.6533933"><ele>242.8</ele><time>2026-03-29T14:26:13.255Z</time></trkpt><trkpt lat="40.6056862" lon="9.6535185"><ele>241.4</ele><time>2026-03-29T14:26:14.257Z</time></trkpt><trkpt lat="40.6056955" lon="9.6536405"><ele>240.0</ele><time>2026-03-29T14:26:15.255Z</time></trkpt><trkpt lat="40.6056939" lon="9.6537568"><ele>238.71428571428572</ele><time>2026-03-29T14:26:16.257Z</time></trkpt><trkpt lat="40.6056849" lon="9.6538653"><ele>237.42857142857142</ele><time>2026-03-29T14:26:17.258Z</time></trkpt><trkpt lat="40.6056591" lon="9.6539561"><ele>236.14285714285714</ele><time>2026-03-29T14:26:18.256Z</time></trkpt><trkpt lat="40.6056305" lon="9.6540364"><ele>234.85714285714286</ele><time>2026-03-29T14:26:19.282Z</time></trkpt><trkpt lat="40.6055753" lon="9.6540872"><ele>233.57142857142856</ele><time>2026-03-29T14:26:20.263Z</time></trkpt><trkpt lat="40.6055233" lon="9.6541353"><ele>232.28571428571428</ele><time>2026-03-29T14:26:21.259Z</time></trkpt><trkpt lat="40.6054356" lon="9.6541496"><ele>231.0</ele><time>2026-03-29T14:26:22.26Z</time></trkpt><trkpt lat="40.6053351" lon="9.6541636"><ele>237.5</ele><time>2026-03-29T14:26:23.266Z</time></trkpt><trkpt lat="40.6052283" lon="9.6541756"><ele>244.0</ele><time>2026-03-29T14:26:24.261Z</time></trkpt><trkpt lat="40.6051246" lon="9.6542054"><ele>250.5</ele><time>2026-03-29T14:26:25.263Z</time></trkpt><trkpt lat="40.6050126" lon="9.6542538"><ele>257.0</ele><time>2026-03-29T14:26:26.259Z</time></trkpt><trkpt lat="40.6048958" lon="9.6543332"><ele>257.0</ele><time>2026-03-29T14:26:27.261Z</time></trkpt><trkpt lat="40.6047847" lon="9.6544115"><ele>257.0</ele><time>2026-03-29T14:26:28.258Z</time></trkpt><trkpt lat="40.6046957" lon="9.654493"><ele>257.0</ele><time>2026-03-29T14:26:29.258Z</time></trkpt><trkpt lat="40.6046095" lon="9.6545645"><ele>257.0</ele><time>2026-03-29T14:26:30.259Z</time></trkpt><trkpt lat="40.6045163" lon="9.6546183"><ele>257.0</ele><time>2026-03-29T14:26:31.259Z</time></trkpt><trkpt lat="40.6044347" lon="9.65466"><ele>259.2</ele><time>2026-03-29T14:26:32.258Z</time></trkpt><trkpt lat="40.6043682" lon="9.6546912"><ele>261.4</ele><time>2026-03-29T14:26:33.262Z</time></trkpt><trkpt lat="40.6043076" lon="9.6547367"><ele>263.6</ele><time>2026-03-29T14:26:34.258Z</time></trkpt><trkpt lat="40.604251" lon="9.6548553"><ele>265.8</ele><time>2026-03-29T14:26:36.264Z</time></trkpt><trkpt lat="40.6043161" lon="9.6550466"><ele>268.0</ele><time>2026-03-29T14:26:38.261Z</time></trkpt><trkpt lat="40.6043935" lon="9.655171"><ele>267.6</ele><time>2026-03-29T14:26:39.261Z</time></trkpt><trkpt lat="40.6044722" lon="9.6552907"><ele>267.20000000000005</ele><time>2026-03-29T14:26:40.261Z</time></trkpt><trkpt lat="40.6045364" lon="9.6553935"><ele>266.8</ele><time>2026-03-29T14:26:41.278Z</time></trkpt><trkpt lat="40.604606" lon="9.6555002"><ele>266.40000000000003</ele><time>2026-03-29T14:26:42.271Z</time></trkpt><trkpt lat="40.6046329" lon="9.655596"><ele>266.0</ele><time>2026-03-29T14:26:43.26Z</time></trkpt><trkpt lat="40.6046298" lon="9.6557106"><ele>265.8</ele><time>2026-03-29T14:26:44.269Z</time></trkpt><trkpt lat="40.6046199" lon="9.6558318"><ele>265.6</ele><time>2026-03-29T14:26:45.266Z</time></trkpt><trkpt lat="40.6045781" lon="9.6559712"><ele>265.4</ele><time>2026-03-29T14:26:46.273Z</time></trkpt><trkpt lat="40.604536" lon="9.6560922"><ele>265.2</ele><time>2026-03-29T14:26:47.266Z</time></trkpt><trkpt lat="40.6044801" lon="9.656168"><ele>265.0</ele><time>2026-03-29T14:26:48.275Z</time></trkpt><trkpt lat="40.6044203" lon="9.6562306"><ele>265.0</ele><time>2026-03-29T14:26:49.266Z</time></trkpt><trkpt lat="40.6043459" lon="9.6563517"><ele>265.0</ele><time>2026-03-29T14:26:51.263Z</time></trkpt><trkpt lat="40.6043513" lon="9.6565228"><ele>265.0</ele><time>2026-03-29T14:26:53.264Z</time></trkpt><trkpt lat="40.6043942" lon="9.6566071"><ele>265.0</ele><time>2026-03-29T14:26:54.269Z</time></trkpt><trkpt lat="40.6044411" lon="9.6566898"><ele>265.0</ele><time>2026-03-29T14:26:55.263Z</time></trkpt><trkpt lat="40.6045193" lon="9.656735"><ele>265.66666666666663</ele><time>2026-03-29T14:26:56.263Z</time></trkpt><trkpt lat="40.604584" lon="9.6567873"><ele>266.3333333333333</ele><time>2026-03-29T14:26:57.275Z</time></trkpt><trkpt lat="40.6046397" lon="9.6568628"><ele>267.0</ele><time>2026-03-29T14:26:58.264Z</time></trkpt><trkpt lat="40.6046897" lon="9.6569321"><ele>267.6666666666667</ele><time>2026-03-29T14:26:59.257Z</time></trkpt><trkpt lat="40.604761" lon="9.6569565"><ele>268.33333333333337</ele><time>2026-03-29T14:27:00.26Z</time></trkpt><trkpt lat="40.604847" lon="9.6569407"><ele>269.0</ele><time>2026-03-29T14:27:01.264Z</time></trkpt><trkpt lat="40.6049411" lon="9.6569189"><ele>263.59999999999997</ele><time>2026-03-29T14:27:02.271Z</time></trkpt><trkpt lat="40.605036" lon="9.6568646"><ele>258.2</ele><time>2026-03-29T14:27:03.26Z</time></trkpt><trkpt lat="40.6051189" lon="9.6568493"><ele>252.79999999999998</ele><time>2026-03-29T14:27:04.269Z</time></trkpt><trkpt lat="40.6051904" lon="9.6568383"><ele>247.39999999999998</ele><time>2026-03-29T14:27:05.265Z</time></trkpt><trkpt lat="40.6052693" lon="9.6568693"><ele>242.0</ele><time>2026-03-29T14:27:06.267Z</time></trkpt><trkpt lat="40.6053794" lon="9.6569156"><ele>242.33333333333334</ele><time>2026-03-29T14:27:07.262Z</time></trkpt><trkpt lat="40.6054812" lon="9.6569557"><ele>242.66666666666669</ele><time>2026-03-29T14:27:08.267Z</time></trkpt><trkpt lat="40.6055661" lon="9.6570014"><ele>243.0</ele><time>2026-03-29T14:27:09.268Z</time></trkpt><trkpt lat="40.6056347" lon="9.6570462"><ele>243.33333333333331</ele><time>2026-03-29T14:27:10.271Z</time></trkpt><trkpt lat="40.6056762" lon="9.6571231"><ele>243.66666666666666</ele><time>2026-03-29T14:27:11.266Z</time></trkpt><trkpt lat="40.6057125" lon="9.6572372"><ele>244.0</ele><time>2026-03-29T14:27:12.279Z</time></trkpt><trkpt lat="40.6057432" lon="9.6573686"><ele>244.0</ele><time>2026-03-29T14:27:13.265Z</time></trkpt><trkpt lat="40.6057739" lon="9.657505"><ele>244.0</ele><time>2026-03-29T14:27:14.258Z</time></trkpt><trkpt lat="40.6057907" lon="9.6576544"><ele>244.0</ele><time>2026-03-29T14:27:15.265Z</time></trkpt><trkpt lat="40.6057941" lon="9.6578086"><ele>244.0</ele><time>2026-03-29T14:27:16.256Z</time></trkpt><trkpt lat="40.6058136" lon="9.6579715"><ele>245.0</ele><time>2026-03-29T14:27:17.276Z</time></trkpt><trkpt lat="40.6058396" lon="9.6581156"><ele>245.99999999999997</ele><time>2026-03-29T14:27:18.265Z</time></trkpt><trkpt lat="40.6058569" lon="9.6582597"><ele>246.99999999999997</ele><time>2026-03-29T14:27:19.258Z</time></trkpt><trkpt lat="40.605862" lon="9.6583857"><ele>248.0</ele><time>2026-03-29T14:27:20.26Z</time></trkpt><trkpt lat="40.6058644" lon="9.6584963"><ele>249.0</ele><time>2026-03-29T14:27:21.258Z</time></trkpt><trkpt lat="40.6058496" lon="9.6586008"><ele>252.2</ele><time>2026-03-29T14:27:22.293Z</time></trkpt><trkpt lat="40.6058086" lon="9.6587148"><ele>255.39999999999998</ele><time>2026-03-29T14:27:23.262Z</time></trkpt><trkpt lat="40.6057862" lon="9.6588111"><ele>258.6</ele><time>2026-03-29T14:27:24.26Z</time></trkpt><trkpt lat="40.6057911" lon="9.6589438"><ele>261.8</ele><time>2026-03-29T14:27:26.265Z</time></trkpt><trkpt lat="40.6058868" lon="9.6590459"><ele>265.0</ele><time>2026-03-29T14:27:28.269Z</time></trkpt><trkpt lat="40.6059744" lon="9.6590533"><ele>265.0</ele><time>2026-03-29T14:27:29.269Z</time></trkpt><trkpt lat="40.6060827" lon="9.6590404"><ele>265.0</ele><time>2026-03-29T14:27:30.262Z</time></trkpt><trkpt lat="40.6061793" lon="9.658983"><ele>265.0</ele><time>2026-03-29T14:27:31.258Z</time></trkpt><trkpt lat="40.6062864" lon="9.6589184"><ele>265.0</ele><time>2026-03-29T14:27:32.264Z</time></trkpt><trkpt lat="40.6064034" lon="9.6588385"><ele>265.0</ele><time>2026-03-29T14:27:33.261Z</time></trkpt><trkpt lat="40.6065194" lon="9.6587535"><ele>265.0</ele><time>2026-03-29T14:27:34.274Z</time></trkpt><trkpt lat="40.60662" lon="9.6586714"><ele>265.0</ele><time>2026-03-29T14:27:35.262Z</time></trkpt><trkpt lat="40.6066979" lon="9.658577"><ele>265.0</ele><time>2026-03-29T14:27:36.262Z</time></trkpt><trkpt lat="40.6067536" lon="9.6585184"><ele>265.0</ele><time>2026-03-29T14:27:37.261Z</time></trkpt><trkpt lat="40.6068077" lon="9.6584727"><ele>260.8</ele><time>2026-03-29T14:27:38.261Z</time></trkpt><trkpt lat="40.6068919" lon="9.6584414"><ele>256.6</ele><time>2026-03-29T14:27:39.256Z</time></trkpt><trkpt lat="40.6069806" lon="9.6583523"><ele>252.39999999999998</ele><time>2026-03-29T14:27:40.272Z</time></trkpt><trkpt lat="40.6070726" lon="9.6582385"><ele>248.2</ele><time>2026-03-29T14:27:41.26Z</time></trkpt><trkpt lat="40.6071575" lon="9.6581599"><ele>244.0</ele><time>2026-03-29T14:27:42.258Z</time></trkpt><trkpt lat="40.6072368" lon="9.6580952"><ele>244.0</ele><time>2026-03-29T14:27:43.264Z</time></trkpt><trkpt lat="40.6073005" lon="9.6580532"><ele>243.99999999999997</ele><time>2026-03-29T14:27:44.264Z</time></trkpt><trkpt lat="40.6073724" lon="9.6580214"><ele>243.99999999999997</ele><time>2026-03-29T14:27:45.293Z</time></trkpt><trkpt lat="40.6074757" lon="9.6580258"><ele>244.0</ele><time>2026-03-29T14:27:46.261Z</time></trkpt><trkpt lat="40.6075861" lon="9.6580442"><ele>244.0</ele><time>2026-03-29T14:27:47.264Z</time></trkpt><trkpt lat="40.6076828" lon="9.6580107"><ele>244.0</ele><time>2026-03-29T14:27:48.264Z</time></trkpt><trkpt lat="40.6077816" lon="9.6579726"><ele>243.99999999999997</ele><time>2026-03-29T14:27:49.257Z</time></trkpt><trkpt lat="40.6078851" lon="9.6579164"><ele>243.99999999999997</ele><time>2026-03-29T14:27:50.301Z</time></trkpt><trkpt lat="40.6079746" lon="9.6578923"><ele>244.0</ele><time>2026-03-29T14:27:51.262Z</time></trkpt><trkpt lat="40.6080412" lon="9.657907"><ele>244.0</ele><time>2026-03-29T14:27:52.257Z</time></trkpt><trkpt lat="40.6081153" lon="9.6579414"><ele>243.39999999999998</ele><time>2026-03-29T14:27:53.26Z</time></trkpt><trkpt lat="40.6081904" lon="9.6580318"><ele>242.79999999999998</ele><time>2026-03-29T14:27:54.265Z</time></trkpt><trkpt lat="40.6082695" lon="9.6581205"><ele>242.20000000000002</ele><time>2026-03-29T14:27:55.266Z</time></trkpt><trkpt lat="40.6083577" lon="9.6581703"><ele>241.60000000000002</ele><time>2026-03-29T14:27:56.257Z</time></trkpt><trkpt lat="40.6084664" lon="9.6581957"><ele>241.0</ele><time>2026-03-29T14:27:57.277Z</time></trkpt><trkpt lat="40.6085628" lon="9.6581874"><ele>241.0</ele><time>2026-03-29T14:27:58.262Z</time></trkpt><trkpt lat="40.6086367" lon="9.6581482"><ele>241.00000000000003</ele><time>2026-03-29T14:27:59.264Z</time></trkpt><trkpt lat="40.6087075" lon="9.6580764"><ele>241.00000000000003</ele><time>2026-03-29T14:28:00.258Z</time></trkpt><trkpt lat="40.6087761" lon="9.6579886"><ele>241.0</ele><time>2026-03-29T14:28:01.261Z</time></trkpt><trkpt lat="40.6088571" lon="9.6578825"><ele>241.0</ele><time>2026-03-29T14:28:02.261Z</time></trkpt><trkpt lat="40.6089277" lon="9.657795"><ele>239.33333333333331</ele><time>2026-03-29T14:28:03.266Z</time></trkpt><trkpt lat="40.608991" lon="9.6577515"><ele>237.66666666666666</ele><time>2026-03-29T14:28:04.261Z</time></trkpt><trkpt lat="40.6090544" lon="9.6577427"><ele>236.0</ele><time>2026-03-29T14:28:05.26Z</time></trkpt><trkpt lat="40.6091128" lon="9.6577783"><ele>234.33333333333331</ele><time>2026-03-29T14:28:06.263Z</time></trkpt><trkpt lat="40.6091871" lon="9.6578504"><ele>232.66666666666666</ele><time>2026-03-29T14:28:07.259Z</time></trkpt><trkpt lat="40.6092426" lon="9.6579654"><ele>231.0</ele><time>2026-03-29T14:28:08.276Z</time></trkpt><trkpt lat="40.6092748" lon="9.6580906"><ele>231.0</ele><time>2026-03-29T14:28:09.263Z</time></trkpt><trkpt lat="40.6093065" lon="9.658185"><ele>231.00000000000003</ele><time>2026-03-29T14:28:10.261Z</time></trkpt><trkpt lat="40.6093963" lon="9.6582719"><ele>231.00000000000003</ele><time>2026-03-29T14:28:12.257Z</time></trkpt><trkpt lat="40.609507" lon="9.6581788"><ele>231.0</ele><time>2026-03-29T14:28:14.26Z</time></trkpt><trkpt lat="40.6095784" lon="9.6581552"><ele>231.0</ele><time>2026-03-29T14:28:15.262Z</time></trkpt><trkpt lat="40.6096475" lon="9.6581386"><ele>228.33333333333334</ele><time>2026-03-29T14:28:16.266Z</time></trkpt><trkpt lat="40.6097368" lon="9.6581712"><ele>225.66666666666669</ele><time>2026-03-29T14:28:17.253Z</time></trkpt><trkpt lat="40.6098086" lon="9.6582152"><ele>223.0</ele><time>2026-03-29T14:28:18.26Z</time></trkpt><trkpt lat="40.6098738" lon="9.6582552"><ele>220.33333333333334</ele><time>2026-03-29T14:28:19.261Z</time></trkpt><trkpt lat="40.6099357" lon="9.6583385"><ele>217.66666666666669</ele><time>2026-03-29T14:28:20.259Z</time></trkpt><trkpt lat="40.6099787" lon="9.6584492"><ele>215.0</ele><time>2026-03-29T14:28:21.262Z</time></trkpt><trkpt lat="40.6100423" lon="9.6585862"><ele>216.4</ele><time>2026-03-29T14:28:22.269Z</time></trkpt><trkpt lat="40.6101146" lon="9.6587015"><ele>217.8</ele><time>2026-03-29T14:28:23.261Z</time></trkpt><trkpt lat="40.6101773" lon="9.6587998"><ele>219.2</ele><time>2026-03-29T14:28:24.27Z</time></trkpt><trkpt lat="40.6102421" lon="9.6588631"><ele>220.6</ele><time>2026-03-29T14:28:25.258Z</time></trkpt><trkpt lat="40.6103163" lon="9.6588991"><ele>222.0</ele><time>2026-03-29T14:28:26.264Z</time></trkpt><trkpt lat="40.6103969" lon="9.6588939"><ele>222.0</ele><time>2026-03-29T14:28:27.262Z</time></trkpt><trkpt lat="40.6104799" lon="9.6588591"><ele>222.0</ele><time>2026-03-29T14:28:28.264Z</time></trkpt><trkpt lat="40.6105679" lon="9.6588066"><ele>222.0</ele><time>2026-03-29T14:28:29.256Z</time></trkpt><trkpt lat="40.6106553" lon="9.6587529"><ele>222.0</ele><time>2026-03-29T14:28:30.256Z</time></trkpt><trkpt lat="40.6107398" lon="9.6587336"><ele>222.0</ele><time>2026-03-29T14:28:31.257Z</time></trkpt><trkpt lat="40.6108442" lon="9.6587466"><ele>222.0</ele><time>2026-03-29T14:28:32.263Z</time></trkpt><trkpt lat="40.6109522" lon="9.6587439"><ele>222.0</ele><time>2026-03-29T14:28:33.262Z</time></trkpt><trkpt lat="40.6110511" lon="9.658737"><ele>222.0</ele><time>2026-03-29T14:28:34.262Z</time></trkpt><trkpt lat="40.6111311" lon="9.6587156"><ele>222.0</ele><time>2026-03-29T14:28:35.276Z</time></trkpt><trkpt lat="40.6111984" lon="9.6586525"><ele>222.0</ele><time>2026-03-29T14:28:36.26Z</time></trkpt><trkpt lat="40.6112527" lon="9.6586055"><ele>222.0</ele><time>2026-03-29T14:28:37.264Z</time></trkpt><trkpt lat="40.6113663" lon="9.6586544"><ele>219.5</ele><time>2026-03-29T14:28:39.259Z</time></trkpt><trkpt lat="40.6114214" lon="9.6587113"><ele>217.0</ele><time>2026-03-29T14:28:40.271Z</time></trkpt><trkpt lat="40.6114705" lon="9.65883"><ele>214.5</ele><time>2026-03-29T14:28:41.263Z</time></trkpt><trkpt lat="40.6115178" lon="9.658999"><ele>212.0</ele><time>2026-03-29T14:28:42.276Z</time></trkpt><trkpt lat="40.6115707" lon="9.6591766"><ele>212.0</ele><time>2026-03-29T14:28:43.258Z</time></trkpt><trkpt lat="40.6116347" lon="9.6593301"><ele>212.0</ele><time>2026-03-29T14:28:44.266Z</time></trkpt><trkpt lat="40.6116844" lon="9.6594473"><ele>212.0</ele><time>2026-03-29T14:28:45.261Z</time></trkpt><trkpt lat="40.6117379" lon="9.6595434"><ele>212.0</ele><time>2026-03-29T14:28:46.264Z</time></trkpt><trkpt lat="40.6117807" lon="9.6596219"><ele>212.0</ele><time>2026-03-29T14:28:47.265Z</time></trkpt><trkpt lat="40.6118278" lon="9.6597006"><ele>211.6</ele><time>2026-03-29T14:28:49.261Z</time></trkpt><trkpt lat="40.6118323" lon="9.659798"><ele>211.2</ele><time>2026-03-29T14:29:13.269Z</time></trkpt><trkpt lat="40.6117523" lon="9.659903"><ele>210.8</ele><time>2026-03-29T14:29:15.262Z</time></trkpt><trkpt lat="40.6116718" lon="9.6599537"><ele>210.4</ele><time>2026-03-29T14:29:16.26Z</time></trkpt><trkpt lat="40.6115702" lon="9.660006"><ele>210.0</ele><time>2026-03-29T14:29:17.265Z</time></trkpt><trkpt lat="40.6114722" lon="9.6600649"><ele>210.0</ele><time>2026-03-29T14:29:18.265Z</time></trkpt><trkpt lat="40.6113763" lon="9.6601209"><ele>210.0</ele><time>2026-03-29T14:29:19.262Z</time></trkpt><trkpt lat="40.6112728" lon="9.6601706"><ele>210.0</ele><time>2026-03-29T14:29:20.263Z</time></trkpt><trkpt lat="40.6111722" lon="9.6602139"><ele>210.0</ele><time>2026-03-29T14:29:21.263Z</time></trkpt><trkpt lat="40.61109" lon="9.6602424"><ele>210.0</ele><time>2026-03-29T14:29:22.269Z</time></trkpt><trkpt lat="40.6110169" lon="9.6602618"><ele>210.0</ele><time>2026-03-29T14:29:23.263Z</time></trkpt><trkpt lat="40.6109382" lon="9.6602677"><ele>210.0</ele><time>2026-03-29T14:29:24.262Z</time></trkpt><trkpt lat="40.610855" lon="9.6602713"><ele>210.0</ele><time>2026-03-29T14:29:25.282Z</time></trkpt><trkpt lat="40.6107568" lon="9.6602356"><ele>210.0</ele><time>2026-03-29T14:29:26.265Z</time></trkpt><trkpt lat="40.6106683" lon="9.6601968"><ele>210.0</ele><time>2026-03-29T14:29:27.259Z</time></trkpt><trkpt lat="40.6105703" lon="9.6601415"><ele>210.0</ele><time>2026-03-29T14:29:28.262Z</time></trkpt><trkpt lat="40.6104723" lon="9.6600819"><ele>210.0</ele><time>2026-03-29T14:29:29.265Z</time></trkpt><trkpt lat="40.6103804" lon="9.6600152"><ele>210.0</ele><time>2026-03-29T14:29:30.26Z</time></trkpt><trkpt lat="40.6103005" lon="9.6599664"><ele>210.0</ele><time>2026-03-29T14:29:31.26Z</time></trkpt><trkpt lat="40.6102212" lon="9.6599441"><ele>210.0</ele><time>2026-03-29T14:29:32.264Z</time></trkpt><trkpt lat="40.6101426" lon="9.6599239"><ele>209.8</ele><time>2026-03-29T14:29:33.258Z</time></trkpt><trkpt lat="40.610064" lon="9.6599818"><ele>209.6</ele><time>2026-03-29T14:29:34.274Z</time></trkpt><trkpt lat="40.6099801" lon="9.6600713"><ele>209.39999999999998</ele><time>2026-03-29T14:29:35.265Z</time></trkpt><trkpt lat="40.6099065" lon="9.6601741"><ele>209.2</ele><time>2026-03-29T14:29:36.259Z</time></trkpt><trkpt lat="40.6098522" lon="9.6602751"><ele>209.0</ele><time>2026-03-29T14:29:37.267Z</time></trkpt><trkpt lat="40.6098037" lon="9.660375"><ele>207.83333333333334</ele><time>2026-03-29T14:29:38.261Z</time></trkpt><trkpt lat="40.6097778" lon="9.6604814"><ele>206.66666666666669</ele><time>2026-03-29T14:29:39.279Z</time></trkpt><trkpt lat="40.6097547" lon="9.6605706"><ele>205.5</ele><time>2026-03-29T14:29:40.27Z</time></trkpt><trkpt lat="40.6096835" lon="9.6606806"><ele>204.33333333333331</ele><time>2026-03-29T14:29:42.257Z</time></trkpt><trkpt lat="40.6096" lon="9.6607168"><ele>203.16666666666666</ele><time>2026-03-29T14:29:44.265Z</time></trkpt><trkpt lat="40.6095055" lon="9.660717"><ele>202.0</ele><time>2026-03-29T14:29:46.282Z</time></trkpt><trkpt lat="40.6094013" lon="9.6607279"><ele>201.99999999999997</ele><time>2026-03-29T14:29:48.265Z</time></trkpt><trkpt lat="40.6093136" lon="9.6607706"><ele>202.0</ele><time>2026-03-29T14:29:50.258Z</time></trkpt><trkpt lat="40.60926" lon="9.6608465"><ele>202.0</ele><time>2026-03-29T14:29:52.275Z</time></trkpt><trkpt lat="40.609227" lon="9.6609308"><ele>202.0</ele><time>2026-03-29T14:29:54.258Z</time></trkpt><trkpt lat="40.6092083" lon="9.6610176"><ele>201.99999999999997</ele><time>2026-03-29T14:29:56.261Z</time></trkpt><trkpt lat="40.6092088" lon="9.6611976"><ele>202.0</ele><time>2026-03-29T14:29:58.271Z</time></trkpt><trkpt lat="40.609209" lon="9.6613065"><ele>200.2</ele><time>2026-03-29T14:29:59.264Z</time></trkpt><trkpt lat="40.6091919" lon="9.6614405"><ele>198.39999999999998</ele><time>2026-03-29T14:30:00.27Z</time></trkpt><trkpt lat="40.6091719" lon="9.6615843"><ele>196.60000000000002</ele><time>2026-03-29T14:30:01.268Z</time></trkpt><trkpt lat="40.609141" lon="9.6617392"><ele>194.8</ele><time>2026-03-29T14:30:02.273Z</time></trkpt><trkpt lat="40.6091152" lon="9.6618723"><ele>193.0</ele><time>2026-03-29T14:30:03.264Z</time></trkpt><trkpt lat="40.6090928" lon="9.6619835"><ele>191.0</ele><time>2026-03-29T14:30:04.267Z</time></trkpt><trkpt lat="40.6090653" lon="9.6620659"><ele>189.0</ele><time>2026-03-29T14:30:05.269Z</time></trkpt><trkpt lat="40.6089541" lon="9.6621545"><ele>187.0</ele><time>2026-03-29T14:30:07.269Z</time></trkpt><trkpt lat="40.6088799" lon="9.6621809"><ele>185.0</ele><time>2026-03-29T14:30:08.271Z</time></trkpt><trkpt lat="40.6087754" lon="9.6621799"><ele>183.0</ele><time>2026-03-29T14:30:09.261Z</time></trkpt><trkpt lat="40.6086631" lon="9.6621802"><ele>187.0</ele><time>2026-03-29T14:30:10.271Z</time></trkpt><trkpt lat="40.6085504" lon="9.6622103"><ele>191.0</ele><time>2026-03-29T14:30:11.268Z</time></trkpt><trkpt lat="40.6084274" lon="9.6622414"><ele>195.0</ele><time>2026-03-29T14:30:12.263Z</time></trkpt><trkpt lat="40.6083059" lon="9.6622736"><ele>199.0</ele><time>2026-03-29T14:30:13.268Z</time></trkpt><trkpt lat="40.6081944" lon="9.6622942"><ele>199.0</ele><time>2026-03-29T14:30:14.262Z</time></trkpt><trkpt lat="40.6080776" lon="9.6622699"><ele>199.0</ele><time>2026-03-29T14:30:15.261Z</time></trkpt><trkpt lat="40.6079814" lon="9.6622427"><ele>199.0</ele><time>2026-03-29T14:30:16.266Z</time></trkpt><trkpt lat="40.607912" lon="9.6622164"><ele>199.0</ele><time>2026-03-29T14:30:17.261Z</time></trkpt><trkpt lat="40.6078088" lon="9.6622838"><ele>199.0</ele><time>2026-03-29T14:30:19.262Z</time></trkpt><trkpt lat="40.6077428" lon="9.6623638"><ele>201.25</ele><time>2026-03-29T14:30:20.264Z</time></trkpt><trkpt lat="40.6076776" lon="9.6624787"><ele>203.5</ele><time>2026-03-29T14:30:21.266Z</time></trkpt><trkpt lat="40.6075928" lon="9.6626"><ele>205.75</ele><time>2026-03-29T14:30:22.258Z</time></trkpt><trkpt lat="40.6074941" lon="9.6627066"><ele>208.0</ele><time>2026-03-29T14:30:23.262Z</time></trkpt><trkpt lat="40.6074027" lon="9.6627912"><ele>207.99999999999997</ele><time>2026-03-29T14:30:24.261Z</time></trkpt><trkpt lat="40.6073156" lon="9.6628635"><ele>208.0</ele><time>2026-03-29T14:30:25.267Z</time></trkpt><trkpt lat="40.6072356" lon="9.6629163"><ele>208.0</ele><time>2026-03-29T14:30:26.266Z</time></trkpt><trkpt lat="40.6071567" lon="9.6629501"><ele>208.0</ele><time>2026-03-29T14:30:27.266Z</time></trkpt><trkpt lat="40.6070812" lon="9.6629761"><ele>207.99999999999997</ele><time>2026-03-29T14:30:28.262Z</time></trkpt><trkpt lat="40.6069883" lon="9.662967"><ele>208.0</ele><time>2026-03-29T14:30:29.261Z</time></trkpt><trkpt lat="40.6068967" lon="9.6629815"><ele>212.99999999999997</ele><time>2026-03-29T14:30:30.26Z</time></trkpt><trkpt lat="40.6068345" lon="9.6630044"><ele>218.0</ele><time>2026-03-29T14:30:31.258Z</time></trkpt><trkpt lat="40.6068024" lon="9.6630845"><ele>223.0</ele><time>2026-03-29T14:30:32.263Z</time></trkpt><trkpt lat="40.6068084" lon="9.6631784"><ele>228.0</ele><time>2026-03-29T14:30:33.269Z</time></trkpt><trkpt lat="40.6068175" lon="9.663281"><ele>232.99999999999997</ele><time>2026-03-29T14:30:34.275Z</time></trkpt><trkpt lat="40.6068908" lon="9.663388"><ele>238.0</ele><time>2026-03-29T14:30:35.261Z</time></trkpt><trkpt lat="40.606983" lon="9.6635026"><ele>235.75</ele><time>2026-03-29T14:30:36.263Z</time></trkpt><trkpt lat="40.6070769" lon="9.6636165"><ele>233.5</ele><time>2026-03-29T14:30:37.262Z</time></trkpt><trkpt lat="40.6071698" lon="9.6637332"><ele>231.25</ele><time>2026-03-29T14:30:38.257Z</time></trkpt><trkpt lat="40.6072458" lon="9.6638442"><ele>229.0</ele><time>2026-03-29T14:30:39.274Z</time></trkpt><trkpt lat="40.6072986" lon="9.6639478"><ele>229.0</ele><time>2026-03-29T14:30:40.262Z</time></trkpt><trkpt lat="40.6073788" lon="9.6640257"><ele>228.99999999999997</ele><time>2026-03-29T14:30:42.261Z</time></trkpt><trkpt lat="40.6074483" lon="9.6640033"><ele>228.99999999999997</ele><time>2026-03-29T14:30:43.268Z</time></trkpt><trkpt lat="40.6075444" lon="9.6639729"><ele>229.0</ele><time>2026-03-29T14:30:44.261Z</time></trkpt><trkpt lat="40.6076416" lon="9.6639414"><ele>229.0</ele><time>2026-03-29T14:30:45.262Z</time></trkpt><trkpt lat="40.6077267" lon="9.6639262"><ele>229.0</ele><time>2026-03-29T14:30:46.261Z</time></trkpt><trkpt lat="40.6078053" lon="9.6639132"><ele>228.99999999999997</ele><time>2026-03-29T14:30:47.262Z</time></trkpt><trkpt lat="40.6078881" lon="9.6639355"><ele>228.99999999999997</ele><time>2026-03-29T14:30:48.28Z</time></trkpt><trkpt lat="40.6079858" lon="9.6640249"><ele>229.0</ele><time>2026-03-29T14:30:49.267Z</time></trkpt><trkpt lat="40.6080797" lon="9.6641171"><ele>229.0</ele><time>2026-03-29T14:30:50.265Z</time></trkpt><trkpt lat="40.60816" lon="9.6642412"><ele>228.6</ele><time>2026-03-29T14:30:51.269Z</time></trkpt><trkpt lat="40.6082346" lon="9.6643657"><ele>228.2</ele><time>2026-03-29T14:30:52.271Z</time></trkpt><trkpt lat="40.6082984" lon="9.6644755"><ele>227.79999999999998</ele><time>2026-03-29T14:30:53.28Z</time></trkpt><trkpt lat="40.6083729" lon="9.6645598"><ele>227.39999999999998</ele><time>2026-03-29T14:30:54.262Z</time></trkpt><trkpt lat="40.6084489" lon="9.664644"><ele>227.0</ele><time>2026-03-29T14:30:55.26Z</time></trkpt><trkpt lat="40.6085456" lon="9.664703"><ele>227.0</ele><time>2026-03-29T14:30:56.26Z</time></trkpt><trkpt lat="40.6086384" lon="9.6647632"><ele>227.0</ele><time>2026-03-29T14:30:57.261Z</time></trkpt><trkpt lat="40.6087193" lon="9.6648501"><ele>227.0</ele><time>2026-03-29T14:30:58.263Z</time></trkpt><trkpt lat="40.6087945" lon="9.6649391"><ele>227.0</ele><time>2026-03-29T14:30:59.27Z</time></trkpt><trkpt lat="40.6088484" lon="9.6650659"><ele>227.0</ele><time>2026-03-29T14:31:00.268Z</time></trkpt><trkpt lat="40.608899" lon="9.6651968"><ele>223.2</ele><time>2026-03-29T14:31:01.265Z</time></trkpt><trkpt lat="40.6089186" lon="9.6653575"><ele>219.39999999999998</ele><time>2026-03-29T14:31:02.273Z</time></trkpt><trkpt lat="40.6089361" lon="9.6655124"><ele>215.60000000000002</ele><time>2026-03-29T14:31:03.264Z</time></trkpt><trkpt lat="40.6089519" lon="9.6656489"><ele>211.8</ele><time>2026-03-29T14:31:04.284Z</time></trkpt><trkpt lat="40.6089544" lon="9.6657642"><ele>208.0</ele><time>2026-03-29T14:31:05.263Z</time></trkpt><trkpt lat="40.608913" lon="9.6658609"><ele>208.0</ele><time>2026-03-29T14:31:06.269Z</time></trkpt><trkpt lat="40.6088709" lon="9.6659477"><ele>208.0</ele><time>2026-03-29T14:31:07.265Z</time></trkpt><trkpt lat="40.6087894" lon="9.6659997"><ele>208.0</ele><time>2026-03-29T14:31:08.271Z</time></trkpt><trkpt lat="40.6086986" lon="9.6660579"><ele>208.0</ele><time>2026-03-29T14:31:09.285Z</time></trkpt><trkpt lat="40.6085922" lon="9.6660939"><ele>208.0</ele><time>2026-03-29T14:31:10.267Z</time></trkpt><trkpt lat="40.6084818" lon="9.6661346"><ele>209.8</ele><time>2026-03-29T14:31:11.26Z</time></trkpt><trkpt lat="40.6083875" lon="9.6661925"><ele>211.60000000000002</ele><time>2026-03-29T14:31:12.268Z</time></trkpt><trkpt lat="40.6083166" lon="9.6662923"><ele>213.39999999999998</ele><time>2026-03-29T14:31:13.264Z</time></trkpt><trkpt lat="40.6082625" lon="9.6664018"><ele>215.2</ele><time>2026-03-29T14:31:14.287Z</time></trkpt><trkpt lat="40.6082157" lon="9.6664828"><ele>217.0</ele><time>2026-03-29T14:31:15.265Z</time></trkpt><trkpt lat="40.6081415" lon="9.6665292"><ele>217.0</ele><time>2026-03-29T14:31:16.265Z</time></trkpt><trkpt lat="40.6080615" lon="9.666561"><ele>217.0</ele><time>2026-03-29T14:31:17.268Z</time></trkpt><trkpt lat="40.6079658" lon="9.6666051"><ele>217.0</ele><time>2026-03-29T14:31:18.266Z</time></trkpt><trkpt lat="40.607879" lon="9.6666713"><ele>217.0</ele><time>2026-03-29T14:31:19.284Z</time></trkpt><trkpt lat="40.6077982" lon="9.6667536"><ele>217.0</ele><time>2026-03-29T14:31:20.264Z</time></trkpt><trkpt lat="40.6077276" lon="9.6668273"><ele>221.0</ele><time>2026-03-29T14:31:21.259Z</time></trkpt><trkpt lat="40.6076643" lon="9.6668871"><ele>225.0</ele><time>2026-03-29T14:31:22.259Z</time></trkpt><trkpt lat="40.6075847" lon="9.6669392"><ele>229.0</ele><time>2026-03-29T14:31:23.261Z</time></trkpt><trkpt lat="40.6074848" lon="9.6669808"><ele>233.0</ele><time>2026-03-29T14:31:24.278Z</time></trkpt><trkpt lat="40.6073813" lon="9.6670352"><ele>237.0</ele><time>2026-03-29T14:31:25.265Z</time></trkpt><trkpt lat="40.6073195" lon="9.667125"><ele>237.0</ele><time>2026-03-29T14:31:26.268Z</time></trkpt><trkpt lat="40.607259" lon="9.6672194"><ele>237.0</ele><time>2026-03-29T14:31:27.266Z</time></trkpt><trkpt lat="40.6072026" lon="9.6673286"><ele>237.0</ele><time>2026-03-29T14:31:28.258Z</time></trkpt><trkpt lat="40.6071848" lon="9.6674473"><ele>237.0</ele><time>2026-03-29T14:31:29.277Z</time></trkpt><trkpt lat="40.6071717" lon="9.6675623"><ele>237.0</ele><time>2026-03-29T14:31:30.258Z</time></trkpt><trkpt lat="40.6071545" lon="9.6676592"><ele>237.0</ele><time>2026-03-29T14:31:31.266Z</time></trkpt><trkpt lat="40.607104" lon="9.6677278"><ele>237.0</ele><time>2026-03-29T14:31:33.266Z</time></trkpt><trkpt lat="40.6070463" lon="9.6677883"><ele>237.0</ele><time>2026-03-29T14:31:47.265Z</time></trkpt><trkpt lat="40.6069429" lon="9.6679042"><ele>237.0</ele><time>2026-03-29T14:31:49.262Z</time></trkpt><trkpt lat="40.6068788" lon="9.66797"><ele>237.0</ele><time>2026-03-29T14:31:50.268Z</time></trkpt><trkpt lat="40.6068142" lon="9.6680413"><ele>237.0</ele><time>2026-03-29T14:31:51.27Z</time></trkpt><trkpt lat="40.6067465" lon="9.668119"><ele>244.2</ele><time>2026-03-29T14:31:52.264Z</time></trkpt><trkpt lat="40.6066839" lon="9.6682189"><ele>251.39999999999998</ele><time>2026-03-29T14:31:53.288Z</time></trkpt><trkpt lat="40.6066198" lon="9.6683203"><ele>258.6</ele><time>2026-03-29T14:31:54.261Z</time></trkpt><trkpt lat="40.6065538" lon="9.6684143"><ele>265.8</ele><time>2026-03-29T14:31:55.264Z</time></trkpt><trkpt lat="40.6065125" lon="9.6684772"><ele>273.0</ele><time>2026-03-29T14:31:56.264Z</time></trkpt><trkpt lat="40.6064784" lon="9.6686376"><ele>274.3333333333333</ele><time>2026-03-29T14:31:58.264Z</time></trkpt><trkpt lat="40.6064656" lon="9.6687441"><ele>275.6666666666667</ele><time>2026-03-29T14:31:59.265Z</time></trkpt><trkpt lat="40.6064551" lon="9.6688429"><ele>277.0</ele><time>2026-03-29T14:32:00.266Z</time></trkpt><trkpt lat="40.6064388" lon="9.6689442"><ele>278.33333333333337</ele><time>2026-03-29T14:32:01.267Z</time></trkpt><trkpt lat="40.6064268" lon="9.669051"><ele>279.6666666666667</ele><time>2026-03-29T14:32:02.292Z</time></trkpt><trkpt lat="40.6064233" lon="9.6691349"><ele>281.0</ele><time>2026-03-29T14:32:03.267Z</time></trkpt><trkpt lat="40.606432" lon="9.6692372"><ele>281.0</ele><time>2026-03-29T14:32:05.271Z</time></trkpt><trkpt lat="40.6064554" lon="9.6693422"><ele>281.0</ele><time>2026-03-29T14:33:11.27Z</time></trkpt><trkpt lat="40.6064958" lon="9.6694129"><ele>281.0</ele><time>2026-03-29T14:33:13.261Z</time></trkpt><trkpt lat="40.6065637" lon="9.669571"><ele>281.0</ele><time>2026-03-29T14:33:15.261Z</time></trkpt><trkpt lat="40.6066055" lon="9.6696754"><ele>281.0</ele><time>2026-03-29T14:33:16.265Z</time></trkpt><trkpt lat="40.6066459" lon="9.6697814"><ele>282.2</ele><time>2026-03-29T14:33:17.267Z</time></trkpt><trkpt lat="40.6066828" lon="9.6698781"><ele>283.40000000000003</ele><time>2026-03-29T14:33:18.266Z</time></trkpt><trkpt lat="40.6067135" lon="9.6699607"><ele>284.6</ele><time>2026-03-29T14:33:19.285Z</time></trkpt><trkpt lat="40.6067773" lon="9.6700733"><ele>285.8</ele><time>2026-03-29T14:33:21.269Z</time></trkpt><trkpt lat="40.6068675" lon="9.6701775"><ele>287.0</ele><time>2026-03-29T14:33:23.271Z</time></trkpt><trkpt lat="40.6069259" lon="9.6702447"><ele>285.5</ele><time>2026-03-29T14:33:24.265Z</time></trkpt><trkpt lat="40.6069834" lon="9.6703141"><ele>284.0</ele><time>2026-03-29T14:33:25.268Z</time></trkpt><trkpt lat="40.6070256" lon="9.6703908"><ele>282.5</ele><time>2026-03-29T14:33:26.268Z</time></trkpt><trkpt lat="40.6070664" lon="9.670471"><ele>281.0</ele><time>2026-03-29T14:33:27.266Z</time></trkpt><trkpt lat="40.6070947" lon="9.6705803"><ele>279.5</ele><time>2026-03-29T14:33:28.285Z</time></trkpt><trkpt lat="40.6071189" lon="9.6706848"><ele>278.0</ele><time>2026-03-29T14:33:29.267Z</time></trkpt><trkpt lat="40.6071276" lon="9.6707981"><ele>278.0</ele><time>2026-03-29T14:33:30.28Z</time></trkpt><trkpt lat="40.6071332" lon="9.6709192"><ele>278.0</ele><time>2026-03-29T14:33:31.271Z</time></trkpt><trkpt lat="40.6071425" lon="9.67104"><ele>278.0</ele><time>2026-03-29T14:33:32.27Z</time></trkpt><trkpt lat="40.6071488" lon="9.6711493"><ele>278.0</ele><time>2026-03-29T14:33:33.27Z</time></trkpt><trkpt lat="40.607153" lon="9.6712519"><ele>278.0</ele><time>2026-03-29T14:33:34.273Z</time></trkpt><trkpt lat="40.6071556" lon="9.6713415"><ele>278.0</ele><time>2026-03-29T14:33:35.272Z</time></trkpt><trkpt lat="40.6071527" lon="9.671488"><ele>280.42857142857144</ele><time>2026-03-29T14:33:37.27Z</time></trkpt><trkpt lat="40.6071577" lon="9.6715707"><ele>282.8571428571429</ele><time>2026-03-29T14:33:38.269Z</time></trkpt><trkpt lat="40.6071766" lon="9.6716702"><ele>285.28571428571433</ele><time>2026-03-29T14:33:39.269Z</time></trkpt><trkpt lat="40.6072013" lon="9.6717553"><ele>287.7142857142857</ele><time>2026-03-29T14:33:40.269Z</time></trkpt><trkpt lat="40.6072346" lon="9.6718257"><ele>290.14285714285717</ele><time>2026-03-29T14:33:41.278Z</time></trkpt><trkpt lat="40.607285" lon="9.6719011"><ele>292.5714285714286</ele><time>2026-03-29T14:33:42.276Z</time></trkpt><trkpt lat="40.6073401" lon="9.6719775"><ele>295.0</ele><time>2026-03-29T14:33:43.267Z</time></trkpt><trkpt lat="40.6073989" lon="9.6720282"><ele>296.2</ele><time>2026-03-29T14:33:44.274Z</time></trkpt><trkpt lat="40.6074706" lon="9.6720897"><ele>297.4</ele><time>2026-03-29T14:33:46.275Z</time></trkpt><trkpt lat="40.6075062" lon="9.6721708"><ele>298.6</ele><time>2026-03-29T14:33:53.272Z</time></trkpt><trkpt lat="40.6075217" lon="9.6722897"><ele>299.8</ele><time>2026-03-29T14:33:55.286Z</time></trkpt><trkpt lat="40.6075595" lon="9.6724251"><ele>301.0</ele><time>2026-03-29T14:33:57.267Z</time></trkpt><trkpt lat="40.6075985" lon="9.672536"><ele>301.0</ele><time>2026-03-29T14:33:59.265Z</time></trkpt><trkpt lat="40.6076188" lon="9.672646"><ele>301.0</ele><time>2026-03-29T14:34:01.274Z</time></trkpt><trkpt lat="40.6076206" lon="9.6727437"><ele>301.0</ele><time>2026-03-29T14:34:03.265Z</time></trkpt><trkpt lat="40.6076546" lon="9.6728612"><ele>301.0</ele><time>2026-03-29T14:37:51.268Z</time></trkpt><trkpt lat="40.6076654" lon="9.6729721"><ele>301.0</ele><time>2026-03-29T14:37:55.26Z</time></trkpt><trkpt lat="40.6076623" lon="9.6730731"><ele>301.0</ele><time>2026-03-29T14:37:57.269Z</time></trkpt><trkpt lat="40.6076508" lon="9.6731866"><ele>301.40000000000003</ele><time>2026-03-29T14:37:59.268Z</time></trkpt><trkpt lat="40.6075886" lon="9.6732614"><ele>301.8</ele><time>2026-03-29T14:38:03.265Z</time></trkpt><trkpt lat="40.6075101" lon="9.6732996"><ele>302.20000000000005</ele><time>2026-03-29T14:39:34.265Z</time></trkpt><trkpt lat="40.6074556" lon="9.6734067"><ele>302.6</ele><time>2026-03-29T14:39:36.264Z</time></trkpt><trkpt lat="40.6073949" lon="9.6735623"><ele>303.0</ele><time>2026-03-29T14:39:38.26Z</time></trkpt><trkpt lat="40.6073615" lon="9.6736574"><ele>303.0</ele><time>2026-03-29T14:39:39.263Z</time></trkpt><trkpt lat="40.6073502" lon="9.673773"><ele>303.0</ele><time>2026-03-29T14:39:40.263Z</time></trkpt><trkpt lat="40.6073402" lon="9.6738872"><ele>303.0</ele><time>2026-03-29T14:39:41.262Z</time></trkpt><trkpt lat="40.6073506" lon="9.6740049"><ele>303.0</ele><time>2026-03-29T14:39:42.267Z</time></trkpt><trkpt lat="40.6073648" lon="9.674114"><ele>303.0</ele><time>2026-03-29T14:39:43.266Z</time></trkpt><trkpt lat="40.6073876" lon="9.6742004"><ele>303.0</ele><time>2026-03-29T14:39:44.281Z</time></trkpt><trkpt lat="40.6074104" lon="9.6742871"><ele>303.0</ele><time>2026-03-29T14:39:45.265Z</time></trkpt><trkpt lat="40.6074415" lon="9.6743698"><ele>303.0</ele><time>2026-03-29T14:39:46.264Z</time></trkpt><trkpt lat="40.6075095" lon="9.6745056"><ele>303.0</ele><time>2026-03-29T14:39:48.258Z</time></trkpt><trkpt lat="40.607541" lon="9.6745785"><ele>303.0</ele><time>2026-03-29T14:39:49.263Z</time></trkpt><trkpt lat="40.607595" lon="9.6747145"><ele>303.0</ele><time>2026-03-29T14:39:51.282Z</time></trkpt><trkpt lat="40.6076234" lon="9.6748094"><ele>303.6666666666667</ele><time>2026-03-29T14:39:53.266Z</time></trkpt><trkpt lat="40.6076394" lon="9.6749551"><ele>304.3333333333333</ele><time>2026-03-29T14:39:55.27Z</time></trkpt><trkpt lat="40.6076471" lon="9.6750435"><ele>305.0</ele><time>2026-03-29T14:39:56.266Z</time></trkpt><trkpt lat="40.6076603" lon="9.6751264"><ele>305.66666666666663</ele><time>2026-03-29T14:39:57.278Z</time></trkpt><trkpt lat="40.6076837" lon="9.6752119"><ele>306.3333333333333</ele><time>2026-03-29T14:39:58.265Z</time></trkpt><trkpt lat="40.6077142" lon="9.6753047"><ele>307.0</ele><time>2026-03-29T14:39:59.268Z</time></trkpt><trkpt lat="40.6077564" lon="9.6754027"><ele>307.16666666666663</ele><time>2026-03-29T14:40:00.27Z</time></trkpt><trkpt lat="40.6077972" lon="9.6754907"><ele>307.3333333333333</ele><time>2026-03-29T14:40:01.272Z</time></trkpt><trkpt lat="40.6078371" lon="9.6755715"><ele>307.5</ele><time>2026-03-29T14:40:02.27Z</time></trkpt><trkpt lat="40.6078752" lon="9.6756397"><ele>307.6666666666667</ele><time>2026-03-29T14:40:03.267Z</time></trkpt><trkpt lat="40.6079382" lon="9.6757455"><ele>307.83333333333337</ele><time>2026-03-29T14:40:05.263Z</time></trkpt><trkpt lat="40.6079979" lon="9.6758346"><ele>308.0</ele><time>2026-03-29T14:40:07.261Z</time></trkpt><trkpt lat="40.6080312" lon="9.6759257"><ele>308.1666666666667</ele><time>2026-03-29T14:40:09.289Z</time></trkpt><trkpt lat="40.608068" lon="9.6760571"><ele>308.33333333333337</ele><time>2026-03-29T14:40:11.271Z</time></trkpt><trkpt lat="40.6080918" lon="9.6761597"><ele>308.5</ele><time>2026-03-29T14:40:12.266Z</time></trkpt><trkpt lat="40.6081202" lon="9.6762637"><ele>308.6666666666667</ele><time>2026-03-29T14:40:13.272Z</time></trkpt><trkpt lat="40.6081495" lon="9.6763651"><ele>308.8333333333333</ele><time>2026-03-29T14:40:14.259Z</time></trkpt><trkpt lat="40.6081881" lon="9.6764579"><ele>309.0</ele><time>2026-03-29T14:40:15.264Z</time></trkpt><trkpt lat="40.6082362" lon="9.6765489"><ele>309.0</ele><time>2026-03-29T14:40:16.269Z</time></trkpt><trkpt lat="40.6082743" lon="9.6766212"><ele>309.0</ele><time>2026-03-29T14:40:17.259Z</time></trkpt><trkpt lat="40.6083369" lon="9.6767321"><ele>309.0</ele><time>2026-03-29T14:40:19.269Z</time></trkpt><trkpt lat="40.6084137" lon="9.6768605"><ele>309.0</ele><time>2026-03-29T14:40:21.268Z</time></trkpt><trkpt lat="40.6084757" lon="9.6769721"><ele>309.0</ele><time>2026-03-29T14:40:23.263Z</time></trkpt><trkpt lat="40.6085206" lon="9.6770738"><ele>308.6666666666667</ele><time>2026-03-29T14:40:25.263Z</time></trkpt><trkpt lat="40.6086043" lon="9.6771457"><ele>308.3333333333333</ele><time>2026-03-29T14:40:28.265Z</time></trkpt><trkpt lat="40.6086822" lon="9.6771625"><ele>308.0</ele><time>2026-03-29T14:40:30.273Z</time></trkpt><trkpt lat="40.6087469" lon="9.6771603"><ele>307.66666666666663</ele><time>2026-03-29T14:40:32.269Z</time></trkpt><trkpt lat="40.6088335" lon="9.6771747"><ele>307.3333333333333</ele><time>2026-03-29T14:40:35.271Z</time></trkpt><trkpt lat="40.6089285" lon="9.6771726"><ele>307.0</ele><time>2026-03-29T14:40:37.272Z</time></trkpt><trkpt lat="40.6090272" lon="9.6771675"><ele>305.66666666666663</ele><time>2026-03-29T14:40:39.28Z</time></trkpt><trkpt lat="40.6091166" lon="9.6771643"><ele>304.3333333333333</ele><time>2026-03-29T14:40:41.273Z</time></trkpt><trkpt lat="40.6091956" lon="9.6771589"><ele>303.0</ele><time>2026-03-29T14:40:43.273Z</time></trkpt><trkpt lat="40.6092847" lon="9.6771553"><ele>301.6666666666667</ele><time>2026-03-29T14:40:46.268Z</time></trkpt><trkpt lat="40.6093574" lon="9.6771375"><ele>300.33333333333337</ele><time>2026-03-29T14:40:48.262Z</time></trkpt><trkpt lat="40.6094564" lon="9.6771279"><ele>299.0</ele><time>2026-03-29T14:40:50.272Z</time></trkpt><trkpt lat="40.6095196" lon="9.677125"><ele>295.59999999999997</ele><time>2026-03-29T14:40:51.266Z</time></trkpt><trkpt lat="40.6095892" lon="9.6771243"><ele>292.2</ele><time>2026-03-29T14:40:52.266Z</time></trkpt><trkpt lat="40.6096768" lon="9.6771263"><ele>288.79999999999995</ele><time>2026-03-29T14:40:53.268Z</time></trkpt><trkpt lat="40.6097766" lon="9.677116"><ele>285.4</ele><time>2026-03-29T14:40:54.288Z</time></trkpt><trkpt lat="40.60988" lon="9.6771074"><ele>282.0</ele><time>2026-03-29T14:40:55.271Z</time></trkpt><trkpt lat="40.6099845" lon="9.6771002"><ele>282.0</ele><time>2026-03-29T14:40:56.272Z</time></trkpt><trkpt lat="40.6101007" lon="9.6770887"><ele>282.0</ele><time>2026-03-29T14:40:57.269Z</time></trkpt><trkpt lat="40.6102113" lon="9.6770824"><ele>282.0</ele><time>2026-03-29T14:40:58.272Z</time></trkpt><trkpt lat="40.6103208" lon="9.6770759"><ele>282.0</ele><time>2026-03-29T14:40:59.273Z</time></trkpt><trkpt lat="40.6104319" lon="9.6770658"><ele>282.0</ele><time>2026-03-29T14:41:00.272Z</time></trkpt><trkpt lat="40.6105222" lon="9.6770553"><ele>282.8333333333333</ele><time>2026-03-29T14:41:01.269Z</time></trkpt><trkpt lat="40.6105899" lon="9.6770447"><ele>283.6666666666667</ele><time>2026-03-29T14:41:02.269Z</time></trkpt><trkpt lat="40.6106738" lon="9.6770543"><ele>284.5</ele><time>2026-03-29T14:41:04.27Z</time></trkpt><trkpt lat="40.6107344" lon="9.677171"><ele>285.33333333333337</ele><time>2026-03-29T14:41:07.268Z</time></trkpt><trkpt lat="40.6107592" lon="9.6772487"><ele>286.1666666666667</ele><time>2026-03-29T14:41:08.264Z</time></trkpt><trkpt lat="40.6107795" lon="9.6773354"><ele>287.0</ele><time>2026-03-29T14:41:09.268Z</time></trkpt><trkpt lat="40.6107963" lon="9.6774171"><ele>287.0</ele><time>2026-03-29T14:41:10.278Z</time></trkpt><trkpt lat="40.6107958" lon="9.6775008"><ele>287.0</ele><time>2026-03-29T14:41:11.273Z</time></trkpt><trkpt lat="40.6107899" lon="9.6776079"><ele>287.0</ele><time>2026-03-29T14:41:12.266Z</time></trkpt><trkpt lat="40.6107802" lon="9.6777181"><ele>287.0</ele><time>2026-03-29T14:41:13.266Z</time></trkpt><trkpt lat="40.6107703" lon="9.6778262"><ele>287.0</ele><time>2026-03-29T14:41:14.264Z</time></trkpt><trkpt lat="40.610762" lon="9.6779295"><ele>287.0</ele><time>2026-03-29T14:41:15.261Z</time></trkpt><trkpt lat="40.6107624" lon="9.6780388"><ele>287.83333333333337</ele><time>2026-03-29T14:41:16.29Z</time></trkpt><trkpt lat="40.6107698" lon="9.6781484"><ele>288.6666666666667</ele><time>2026-03-29T14:41:17.267Z</time></trkpt><trkpt lat="40.610783" lon="9.6782459"><ele>289.5</ele><time>2026-03-29T14:41:18.264Z</time></trkpt><trkpt lat="40.6108011" lon="9.6783337"><ele>290.3333333333333</ele><time>2026-03-29T14:41:19.262Z</time></trkpt><trkpt lat="40.6108191" lon="9.6784183"><ele>291.16666666666663</ele><time>2026-03-29T14:41:20.27Z</time></trkpt><trkpt lat="40.6108554" lon="9.6785007"><ele>292.0</ele><time>2026-03-29T14:41:21.266Z</time></trkpt><trkpt lat="40.6109132" lon="9.6785932"><ele>291.6</ele><time>2026-03-29T14:41:22.266Z</time></trkpt><trkpt lat="40.6109917" lon="9.6786846"><ele>291.2</ele><time>2026-03-29T14:41:23.266Z</time></trkpt><trkpt lat="40.6110624" lon="9.6787845"><ele>290.8</ele><time>2026-03-29T14:41:24.263Z</time></trkpt><trkpt lat="40.611133" lon="9.6788835"><ele>290.4</ele><time>2026-03-29T14:41:25.266Z</time></trkpt><trkpt lat="40.6111979" lon="9.6789717"><ele>290.0</ele><time>2026-03-29T14:41:26.288Z</time></trkpt><trkpt lat="40.6112588" lon="9.6790529"><ele>291.0</ele><time>2026-03-29T14:41:27.262Z</time></trkpt><trkpt lat="40.6113088" lon="9.6791162"><ele>292.0</ele><time>2026-03-29T14:41:28.269Z</time></trkpt><trkpt lat="40.6113548" lon="9.679187"><ele>293.0</ele><time>2026-03-29T14:41:29.268Z</time></trkpt><trkpt lat="40.6114052" lon="9.6792665"><ele>294.0</ele><time>2026-03-29T14:41:30.263Z</time></trkpt><trkpt lat="40.6114563" lon="9.6793524"><ele>295.0</ele><time>2026-03-29T14:41:31.286Z</time></trkpt><trkpt lat="40.6115021" lon="9.6794473"><ele>296.0</ele><time>2026-03-29T14:41:32.267Z</time></trkpt><trkpt lat="40.6115388" lon="9.6795553"><ele>298.2</ele><time>2026-03-29T14:41:33.262Z</time></trkpt><trkpt lat="40.6115829" lon="9.6796613"><ele>300.40000000000003</ele><time>2026-03-29T14:41:34.259Z</time></trkpt><trkpt lat="40.6116177" lon="9.6797774"><ele>302.6</ele><time>2026-03-29T14:41:35.267Z</time></trkpt><trkpt lat="40.6116507" lon="9.6798933"><ele>304.8</ele><time>2026-03-29T14:41:36.265Z</time></trkpt><trkpt lat="40.6116803" lon="9.6800038"><ele>307.0</ele><time>2026-03-29T14:41:37.266Z</time></trkpt><trkpt lat="40.6117126" lon="9.6801007"><ele>307.0</ele><time>2026-03-29T14:41:38.267Z</time></trkpt><trkpt lat="40.6117416" lon="9.6801899"><ele>307.0</ele><time>2026-03-29T14:41:39.267Z</time></trkpt><trkpt lat="40.611772" lon="9.6802945"><ele>307.0</ele><time>2026-03-29T14:41:40.265Z</time></trkpt><trkpt lat="40.6118038" lon="9.6803967"><ele>307.0</ele><time>2026-03-29T14:41:41.258Z</time></trkpt><trkpt lat="40.6118382" lon="9.6804881"><ele>307.0</ele><time>2026-03-29T14:41:42.264Z</time></trkpt><trkpt lat="40.6118686" lon="9.6805719"><ele>307.0</ele><time>2026-03-29T14:41:43.261Z</time></trkpt><trkpt lat="40.6119125" lon="9.6806477"><ele>307.6</ele><time>2026-03-29T14:41:44.269Z</time></trkpt><trkpt lat="40.6119651" lon="9.6807304"><ele>308.2</ele><time>2026-03-29T14:41:45.265Z</time></trkpt><trkpt lat="40.6120378" lon="9.6808082"><ele>308.8</ele><time>2026-03-29T14:41:46.29Z</time></trkpt><trkpt lat="40.6121136" lon="9.6808849"><ele>309.4</ele><time>2026-03-29T14:41:47.259Z</time></trkpt><trkpt lat="40.6121982" lon="9.680948"><ele>310.0</ele><time>2026-03-29T14:41:48.266Z</time></trkpt><trkpt lat="40.6122821" lon="9.6810103"><ele>310.6</ele><time>2026-03-29T14:41:49.267Z</time></trkpt><trkpt lat="40.6123566" lon="9.6810698"><ele>311.2</ele><time>2026-03-29T14:41:50.272Z</time></trkpt><trkpt lat="40.6124095" lon="9.6811195"><ele>311.8</ele><time>2026-03-29T14:41:51.29Z</time></trkpt><trkpt lat="40.6125223" lon="9.6811986"><ele>312.4</ele><time>2026-03-29T14:41:53.27Z</time></trkpt><trkpt lat="40.6126012" lon="9.6812171"><ele>313.0</ele><time>2026-03-29T14:41:54.264Z</time></trkpt><trkpt lat="40.6126966" lon="9.6812465"><ele>314.8</ele><time>2026-03-29T14:41:56.262Z</time></trkpt><trkpt lat="40.6127191" lon="9.681333"><ele>316.6</ele><time>2026-03-29T14:42:13.268Z</time></trkpt><trkpt lat="40.6127272" lon="9.6814858"><ele>318.40000000000003</ele><time>2026-03-29T14:42:15.267Z</time></trkpt><trkpt lat="40.6127255" lon="9.6816052"><ele>320.20000000000005</ele><time>2026-03-29T14:42:16.262Z</time></trkpt><trkpt lat="40.6127233" lon="9.681724"><ele>322.0</ele><time>2026-03-29T14:42:17.268Z</time></trkpt><trkpt lat="40.6127163" lon="9.6818443"><ele>323.16666666666663</ele><time>2026-03-29T14:42:18.263Z</time></trkpt><trkpt lat="40.6127161" lon="9.6819449"><ele>324.3333333333333</ele><time>2026-03-29T14:42:19.284Z</time></trkpt><trkpt lat="40.6127436" lon="9.6820606"><ele>325.5</ele><time>2026-03-29T14:42:21.266Z</time></trkpt><trkpt lat="40.6127945" lon="9.6821098"><ele>326.6666666666667</ele><time>2026-03-29T14:42:23.265Z</time></trkpt><trkpt lat="40.6128632" lon="9.6821303"><ele>327.83333333333337</ele><time>2026-03-29T14:42:25.272Z</time></trkpt><trkpt lat="40.6129114" lon="9.6822411"><ele>329.0</ele><time>2026-03-29T14:42:27.267Z</time></trkpt><trkpt lat="40.6129473" lon="9.6823376"><ele>325.33333333333337</ele><time>2026-03-29T14:42:28.26Z</time></trkpt><trkpt lat="40.6129859" lon="9.6824447"><ele>321.6666666666667</ele><time>2026-03-29T14:42:29.272Z</time></trkpt><trkpt lat="40.6130252" lon="9.6825517"><ele>318.0</ele><time>2026-03-29T14:42:30.261Z</time></trkpt><trkpt lat="40.6130581" lon="9.6826534"><ele>314.3333333333333</ele><time>2026-03-29T14:42:31.263Z</time></trkpt><trkpt lat="40.6130671" lon="9.6827496"><ele>310.66666666666663</ele><time>2026-03-29T14:42:32.259Z</time></trkpt><trkpt lat="40.6130555" lon="9.682837"><ele>307.0</ele><time>2026-03-29T14:42:33.259Z</time></trkpt><trkpt lat="40.6130437" lon="9.6829245"><ele>304.8</ele><time>2026-03-29T14:42:34.265Z</time></trkpt><trkpt lat="40.6129941" lon="9.6830205"><ele>302.6</ele><time>2026-03-29T14:42:35.263Z</time></trkpt><trkpt lat="40.6129331" lon="9.6831375"><ele>300.40000000000003</ele><time>2026-03-29T14:42:36.269Z</time></trkpt><trkpt lat="40.612875" lon="9.6832546"><ele>298.2</ele><time>2026-03-29T14:42:37.26Z</time></trkpt><trkpt lat="40.6128221" lon="9.6833639"><ele>296.0</ele><time>2026-03-29T14:42:38.258Z</time></trkpt><trkpt lat="40.6127724" lon="9.6834748"><ele>302.0</ele><time>2026-03-29T14:42:39.269Z</time></trkpt><trkpt lat="40.6127309" lon="9.68358"><ele>308.0</ele><time>2026-03-29T14:42:40.262Z</time></trkpt><trkpt lat="40.6127011" lon="9.6836912"><ele>314.0</ele><time>2026-03-29T14:42:41.284Z</time></trkpt><trkpt lat="40.612694" lon="9.6838055"><ele>320.0</ele><time>2026-03-29T14:42:42.268Z</time></trkpt><trkpt lat="40.6126966" lon="9.6839064"><ele>326.0</ele><time>2026-03-29T14:42:43.266Z</time></trkpt><trkpt lat="40.6127127" lon="9.6839889"><ele>332.0</ele><time>2026-03-29T14:42:44.259Z</time></trkpt><trkpt lat="40.6127491" lon="9.6840617"><ele>334.0</ele><time>2026-03-29T14:42:45.269Z</time></trkpt><trkpt lat="40.6128163" lon="9.684139"><ele>336.0</ele><time>2026-03-29T14:42:46.268Z</time></trkpt><trkpt lat="40.612904" lon="9.6842232"><ele>338.0</ele><time>2026-03-29T14:42:47.263Z</time></trkpt><trkpt lat="40.6129951" lon="9.68429"><ele>340.0</ele><time>2026-03-29T14:42:48.275Z</time></trkpt><trkpt lat="40.6130519" lon="9.6843424"><ele>342.0</ele><time>2026-03-29T14:42:49.259Z</time></trkpt><trkpt lat="40.6131068" lon="9.6844631"><ele>334.8</ele><time>2026-03-29T14:42:51.26Z</time></trkpt><trkpt lat="40.6130852" lon="9.6845609"><ele>327.6</ele><time>2026-03-29T14:42:52.259Z</time></trkpt><trkpt lat="40.6130555" lon="9.6846779"><ele>320.40000000000003</ele><time>2026-03-29T14:42:53.261Z</time></trkpt><trkpt lat="40.6130491" lon="9.6847707"><ele>313.20000000000005</ele><time>2026-03-29T14:42:54.266Z</time></trkpt><trkpt lat="40.6130801" lon="9.6849552"><ele>306.0</ele><time>2026-03-29T14:42:56.256Z</time></trkpt><trkpt lat="40.6131604" lon="9.6850309"><ele>306.0</ele><time>2026-03-29T14:42:57.26Z</time></trkpt><trkpt lat="40.6132296" lon="9.6850783"><ele>306.0</ele><time>2026-03-29T14:42:58.269Z</time></trkpt><trkpt lat="40.6132947" lon="9.6851172"><ele>306.0</ele><time>2026-03-29T14:42:59.264Z</time></trkpt><trkpt lat="40.6133847" lon="9.6851152"><ele>306.0</ele><time>2026-03-29T14:43:00.283Z</time></trkpt><trkpt lat="40.6134989" lon="9.6850731"><ele>306.0</ele><time>2026-03-29T14:43:01.266Z</time></trkpt><trkpt lat="40.6136071" lon="9.6850408"><ele>303.40000000000003</ele><time>2026-03-29T14:43:02.266Z</time></trkpt><trkpt lat="40.6136913" lon="9.68502"><ele>300.8</ele><time>2026-03-29T14:43:03.256Z</time></trkpt><trkpt lat="40.61377" lon="9.6850373"><ele>298.20000000000005</ele><time>2026-03-29T14:43:04.265Z</time></trkpt><trkpt lat="40.6138523" lon="9.6851222"><ele>295.6</ele><time>2026-03-29T14:43:06.259Z</time></trkpt><trkpt lat="40.6138807" lon="9.6852576"><ele>293.0</ele><time>2026-03-29T14:43:08.261Z</time></trkpt><trkpt lat="40.6138734" lon="9.6853577"><ele>293.0</ele><time>2026-03-29T14:43:09.257Z</time></trkpt><trkpt lat="40.6138877" lon="9.6854602"><ele>293.0</ele><time>2026-03-29T14:43:10.275Z</time></trkpt><trkpt lat="40.6139163" lon="9.6855495"><ele>293.0</ele><time>2026-03-29T14:43:11.267Z</time></trkpt><trkpt lat="40.6139775" lon="9.6856513"><ele>293.0</ele><time>2026-03-29T14:43:12.265Z</time></trkpt><trkpt lat="40.6140417" lon="9.6857275"><ele>293.0</ele><time>2026-03-29T14:43:13.257Z</time></trkpt><trkpt lat="40.6140845" lon="9.6858058"><ele>293.0</ele><time>2026-03-29T14:43:14.263Z</time></trkpt><trkpt lat="40.6141297" lon="9.6858784"><ele>293.0</ele><time>2026-03-29T14:43:15.267Z</time></trkpt><trkpt lat="40.6142469" lon="9.6859188"><ele>293.0</ele><time>2026-03-29T14:43:17.275Z</time></trkpt><trkpt lat="40.614338" lon="9.6859088"><ele>293.0</ele><time>2026-03-29T14:43:18.264Z</time></trkpt><trkpt lat="40.6144264" lon="9.6858813"><ele>293.0</ele><time>2026-03-29T14:43:19.266Z</time></trkpt><trkpt lat="40.6144984" lon="9.6858654"><ele>293.0</ele><time>2026-03-29T14:43:20.266Z</time></trkpt><trkpt lat="40.6145777" lon="9.6859012"><ele>292.5</ele><time>2026-03-29T14:43:22.269Z</time></trkpt><trkpt lat="40.6146105" lon="9.6860152"><ele>292.0</ele><time>2026-03-29T14:43:24.28Z</time></trkpt><trkpt lat="40.6146376" lon="9.6861003"><ele>291.5</ele><time>2026-03-29T14:43:25.26Z</time></trkpt><trkpt lat="40.6146768" lon="9.6861704"><ele>291.0</ele><time>2026-03-29T14:43:26.265Z</time></trkpt><trkpt lat="40.6147506" lon="9.6862024"><ele>290.5</ele><time>2026-03-29T14:43:27.257Z</time></trkpt><trkpt lat="40.6148483" lon="9.6862029"><ele>290.0</ele><time>2026-03-29T14:43:28.258Z</time></trkpt><trkpt lat="40.6149417" lon="9.6861838"><ele>290.0</ele><time>2026-03-29T14:43:29.26Z</time></trkpt><trkpt lat="40.6150253" lon="9.6861701"><ele>290.0</ele><time>2026-03-29T14:43:30.26Z</time></trkpt><trkpt lat="40.6150892" lon="9.6861879"><ele>290.0</ele><time>2026-03-29T14:43:31.258Z</time></trkpt><trkpt lat="40.6151626" lon="9.6862889"><ele>290.0</ele><time>2026-03-29T14:43:33.268Z</time></trkpt><trkpt lat="40.6151738" lon="9.686461"><ele>290.0</ele><time>2026-03-29T14:43:35.265Z</time></trkpt><trkpt lat="40.6151558" lon="9.6865452"><ele>290.0</ele><time>2026-03-29T14:43:36.285Z</time></trkpt><trkpt lat="40.6151707" lon="9.6866428"><ele>290.0</ele><time>2026-03-29T14:43:38.256Z</time></trkpt><trkpt lat="40.6152975" lon="9.6866882"><ele>290.0</ele><time>2026-03-29T14:43:40.258Z</time></trkpt><trkpt lat="40.6154092" lon="9.6866944"><ele>290.0</ele><time>2026-03-29T14:43:41.265Z</time></trkpt><trkpt lat="40.6155088" lon="9.6867283"><ele>290.0</ele><time>2026-03-29T14:43:42.277Z</time></trkpt><trkpt lat="40.6155738" lon="9.6867854"><ele>289.0</ele><time>2026-03-29T14:43:43.268Z</time></trkpt><trkpt lat="40.6156389" lon="9.6868473"><ele>288.0</ele><time>2026-03-29T14:43:44.265Z</time></trkpt><trkpt lat="40.6156821" lon="9.6869374"><ele>287.0</ele><time>2026-03-29T14:43:45.266Z</time></trkpt><trkpt lat="40.6157013" lon="9.687052"><ele>286.0</ele><time>2026-03-29T14:43:46.263Z</time></trkpt><trkpt lat="40.6157041" lon="9.6871679"><ele>285.0</ele><time>2026-03-29T14:43:47.266Z</time></trkpt><trkpt lat="40.6157288" lon="9.6872457"><ele>284.0</ele><time>2026-03-29T14:43:48.261Z</time></trkpt><trkpt lat="40.6158231" lon="9.6872551"><ele>284.0</ele><time>2026-03-29T14:43:50.262Z</time></trkpt><trkpt lat="40.6158782" lon="9.6871949"><ele>284.0</ele><time>2026-03-29T14:43:51.269Z</time></trkpt><trkpt lat="40.615952" lon="9.6871113"><ele>284.0</ele><time>2026-03-29T14:43:52.264Z</time></trkpt><trkpt lat="40.6160521" lon="9.6870226"><ele>284.0</ele><time>2026-03-29T14:43:53.264Z</time></trkpt><trkpt lat="40.6161467" lon="9.6869402"><ele>284.0</ele><time>2026-03-29T14:43:54.261Z</time></trkpt><trkpt lat="40.6162348" lon="9.6868604"><ele>278.6666666666667</ele><time>2026-03-29T14:43:55.257Z</time></trkpt><trkpt lat="40.6163133" lon="9.6867682"><ele>273.33333333333337</ele><time>2026-03-29T14:43:56.268Z</time></trkpt><trkpt lat="40.6163727" lon="9.6866785"><ele>268.0</ele><time>2026-03-29T14:43:57.267Z</time></trkpt><trkpt lat="40.6164154" lon="9.6865961"><ele>262.6666666666667</ele><time>2026-03-29T14:43:58.257Z</time></trkpt><trkpt lat="40.6164478" lon="9.6865239"><ele>257.3333333333333</ele><time>2026-03-29T14:43:59.265Z</time></trkpt><trkpt lat="40.6164886" lon="9.6864389"><ele>252.0</ele><time>2026-03-29T14:44:01.285Z</time></trkpt><trkpt lat="40.6165525" lon="9.6864631"><ele>252.0</ele><time>2026-03-29T14:44:04.26Z</time></trkpt><trkpt lat="40.6165617" lon="9.6865723"><ele>252.0</ele><time>2026-03-29T14:44:06.263Z</time></trkpt><trkpt lat="40.6165726" lon="9.6866712"><ele>252.0</ele><time>2026-03-29T14:44:07.256Z</time></trkpt><trkpt lat="40.6166118" lon="9.6867954"><ele>252.0</ele><time>2026-03-29T14:44:08.273Z</time></trkpt><trkpt lat="40.6166487" lon="9.6869326"><ele>252.0</ele><time>2026-03-29T14:44:09.262Z</time></trkpt><trkpt lat="40.6166783" lon="9.687056"><ele>255.2</ele><time>2026-03-29T14:44:10.262Z</time></trkpt><trkpt lat="40.6167165" lon="9.6871783"><ele>258.4</ele><time>2026-03-29T14:44:11.26Z</time></trkpt><trkpt lat="40.6167571" lon="9.6873031"><ele>261.6</ele><time>2026-03-29T14:44:12.259Z</time></trkpt><trkpt lat="40.6168093" lon="9.6874065"><ele>264.8</ele><time>2026-03-29T14:44:13.267Z</time></trkpt><trkpt lat="40.6168569" lon="9.6874979"><ele>268.0</ele><time>2026-03-29T14:44:14.259Z</time></trkpt><trkpt lat="40.6169427" lon="9.6875868"><ele>265.16666666666663</ele><time>2026-03-29T14:44:16.264Z</time></trkpt><trkpt lat="40.6170082" lon="9.6875737"><ele>262.3333333333333</ele><time>2026-03-29T14:44:17.268Z</time></trkpt><trkpt lat="40.617067" lon="9.6874883"><ele>259.5</ele><time>2026-03-29T14:44:18.261Z</time></trkpt><trkpt lat="40.6171419" lon="9.6874023"><ele>256.6666666666667</ele><time>2026-03-29T14:44:19.258Z</time></trkpt><trkpt lat="40.6172145" lon="9.6873523"><ele>253.83333333333334</ele><time>2026-03-29T14:44:20.262Z</time></trkpt><trkpt lat="40.6173021" lon="9.6873522"><ele>251.0</ele><time>2026-03-29T14:44:21.262Z</time></trkpt><trkpt lat="40.6173881" lon="9.6873543"><ele>251.0</ele><time>2026-03-29T14:44:22.268Z</time></trkpt><trkpt lat="40.6174785" lon="9.6873925"><ele>251.00000000000003</ele><time>2026-03-29T14:44:23.263Z</time></trkpt><trkpt lat="40.6175673" lon="9.6874344"><ele>251.00000000000003</ele><time>2026-03-29T14:44:24.268Z</time></trkpt><trkpt lat="40.6176582" lon="9.6874501"><ele>251.0</ele><time>2026-03-29T14:44:25.263Z</time></trkpt><trkpt lat="40.6177529" lon="9.6874063"><ele>251.0</ele><time>2026-03-29T14:44:26.268Z</time></trkpt><trkpt lat="40.6178318" lon="9.6873359"><ele>246.0</ele><time>2026-03-29T14:44:27.263Z</time></trkpt><trkpt lat="40.6178939" lon="9.6872863"><ele>241.00000000000003</ele><time>2026-03-29T14:44:28.267Z</time></trkpt><trkpt lat="40.6179823" lon="9.6872928"><ele>236.00000000000003</ele><time>2026-03-29T14:44:30.263Z</time></trkpt><trkpt lat="40.6180623" lon="9.6873757"><ele>231.0</ele><time>2026-03-29T14:44:31.264Z</time></trkpt><trkpt lat="40.6181429" lon="9.6874651"><ele>226.0</ele><time>2026-03-29T14:44:32.263Z</time></trkpt><trkpt lat="40.6182114" lon="9.6875326"><ele>226.0</ele><time>2026-03-29T14:44:33.272Z</time></trkpt><trkpt lat="40.618279" lon="9.6876735"><ele>226.00000000000003</ele><time>2026-03-29T14:44:35.269Z</time></trkpt><trkpt lat="40.6182484" lon="9.6877722"><ele>226.00000000000003</ele><time>2026-03-29T14:44:36.269Z</time></trkpt><trkpt lat="40.6181998" lon="9.6878719"><ele>226.0</ele><time>2026-03-29T14:44:37.269Z</time></trkpt><trkpt lat="40.6181394" lon="9.6879646"><ele>226.0</ele><time>2026-03-29T14:44:38.272Z</time></trkpt><trkpt lat="40.6180666" lon="9.688049"><ele>223.66666666666666</ele><time>2026-03-29T14:44:39.279Z</time></trkpt><trkpt lat="40.6179805" lon="9.6881065"><ele>221.33333333333331</ele><time>2026-03-29T14:44:40.259Z</time></trkpt><trkpt lat="40.6179207" lon="9.6881773"><ele>219.0</ele><time>2026-03-29T14:44:41.271Z</time></trkpt><trkpt lat="40.6178644" lon="9.6882463"><ele>216.66666666666669</ele><time>2026-03-29T14:44:42.267Z</time></trkpt><trkpt lat="40.6178244" lon="9.6883397"><ele>214.33333333333334</ele><time>2026-03-29T14:44:43.267Z</time></trkpt><trkpt lat="40.6178011" lon="9.6884671"><ele>212.0</ele><time>2026-03-29T14:44:44.265Z</time></trkpt><trkpt lat="40.6177759" lon="9.6886162"><ele>218.8</ele><time>2026-03-29T14:44:45.262Z</time></trkpt><trkpt lat="40.6177487" lon="9.6887501"><ele>225.6</ele><time>2026-03-29T14:44:46.264Z</time></trkpt><trkpt lat="40.6177249" lon="9.6888659"><ele>232.40000000000003</ele><time>2026-03-29T14:44:47.263Z</time></trkpt><trkpt lat="40.6177048" lon="9.6889766"><ele>239.20000000000002</ele><time>2026-03-29T14:44:48.265Z</time></trkpt><trkpt lat="40.6176941" lon="9.6890872"><ele>246.0</ele><time>2026-03-29T14:44:49.266Z</time></trkpt><trkpt lat="40.6177338" lon="9.6892492"><ele>246.0</ele><time>2026-03-29T14:44:51.268Z</time></trkpt><trkpt lat="40.6177944" lon="9.6893199"><ele>246.0</ele><time>2026-03-29T14:44:52.267Z</time></trkpt><trkpt lat="40.617868" lon="9.6893474"><ele>246.0</ele><time>2026-03-29T14:44:53.264Z</time></trkpt><trkpt lat="40.6179476" lon="9.689326"><ele>246.0</ele><time>2026-03-29T14:44:54.263Z</time></trkpt><trkpt lat="40.618022" lon="9.6892885"><ele>246.0</ele><time>2026-03-29T14:44:55.265Z</time></trkpt><trkpt lat="40.6181121" lon="9.6892596"><ele>246.0</ele><time>2026-03-29T14:44:56.264Z</time></trkpt><trkpt lat="40.6181974" lon="9.6892578"><ele>242.16666666666666</ele><time>2026-03-29T14:44:57.26Z</time></trkpt><trkpt lat="40.6182737" lon="9.6892679"><ele>238.33333333333331</ele><time>2026-03-29T14:44:58.272Z</time></trkpt><trkpt lat="40.6183508" lon="9.6892819"><ele>234.5</ele><time>2026-03-29T14:44:59.268Z</time></trkpt><trkpt lat="40.6184188" lon="9.6892966"><ele>230.66666666666666</ele><time>2026-03-29T14:45:00.262Z</time></trkpt><trkpt lat="40.618531" lon="9.6893868"><ele>226.83333333333331</ele><time>2026-03-29T14:45:02.269Z</time></trkpt><trkpt lat="40.6185746" lon="9.6894763"><ele>223.0</ele><time>2026-03-29T14:45:03.279Z</time></trkpt><trkpt lat="40.618605" lon="9.6895944"><ele>223.0</ele><time>2026-03-29T14:45:04.267Z</time></trkpt><trkpt lat="40.6186373" lon="9.6897444"><ele>223.0</ele><time>2026-03-29T14:45:05.26Z</time></trkpt><trkpt lat="40.6186694" lon="9.6899009"><ele>223.0</ele><time>2026-03-29T14:45:06.26Z</time></trkpt><trkpt lat="40.6186987" lon="9.6900243"><ele>223.0</ele><time>2026-03-29T14:45:07.26Z</time></trkpt><trkpt lat="40.6187243" lon="9.6901319"><ele>223.0</ele><time>2026-03-29T14:45:08.271Z</time></trkpt><trkpt lat="40.6187483" lon="9.6902258"><ele>223.0</ele><time>2026-03-29T14:45:09.257Z</time></trkpt><trkpt lat="40.6188145" lon="9.6903198"><ele>223.0</ele><time>2026-03-29T14:45:11.264Z</time></trkpt><trkpt lat="40.6188842" lon="9.690284"><ele>223.0</ele><time>2026-03-29T14:45:13.273Z</time></trkpt><trkpt lat="40.6188784" lon="9.6901758"><ele>223.0</ele><time>2026-03-29T14:45:15.263Z</time></trkpt><trkpt lat="40.6188093" lon="9.6900877"><ele>223.0</ele><time>2026-03-29T14:45:17.267Z</time></trkpt><trkpt lat="40.6187904" lon="9.6899373"><ele>218.16666666666666</ele><time>2026-03-29T14:45:19.264Z</time></trkpt><trkpt lat="40.6187969" lon="9.6898483"><ele>213.33333333333331</ele><time>2026-03-29T14:45:20.258Z</time></trkpt><trkpt lat="40.6188305" lon="9.6897088"><ele>208.5</ele><time>2026-03-29T14:45:22.261Z</time></trkpt><trkpt lat="40.6188718" lon="9.6896315"><ele>203.66666666666669</ele><time>2026-03-29T14:45:24.276Z</time></trkpt><trkpt lat="40.6189304" lon="9.6896918"><ele>198.83333333333334</ele><time>2026-03-29T14:45:26.258Z</time></trkpt><trkpt lat="40.6190264" lon="9.6897658"><ele>194.0</ele><time>2026-03-29T14:45:28.261Z</time></trkpt><trkpt lat="40.6190938" lon="9.6897657"><ele>194.0</ele><time>2026-03-29T14:45:29.265Z</time></trkpt><trkpt lat="40.6191751" lon="9.6897"><ele>194.0</ele><time>2026-03-29T14:45:30.259Z</time></trkpt><trkpt lat="40.6192685" lon="9.6896344"><ele>194.0</ele><time>2026-03-29T14:45:31.268Z</time></trkpt><trkpt lat="40.619351" lon="9.6895832"><ele>194.0</ele><time>2026-03-29T14:45:32.264Z</time></trkpt><trkpt lat="40.6194199" lon="9.6895109"><ele>194.0</ele><time>2026-03-29T14:45:33.257Z</time></trkpt><trkpt lat="40.6194809" lon="9.6894418"><ele>192.6</ele><time>2026-03-29T14:45:34.264Z</time></trkpt><trkpt lat="40.6195786" lon="9.689396"><ele>191.2</ele><time>2026-03-29T14:45:36.282Z</time></trkpt><trkpt lat="40.6196633" lon="9.6894288"><ele>189.79999999999998</ele><time>2026-03-29T14:45:37.255Z</time></trkpt><trkpt lat="40.6197684" lon="9.6894605"><ele>188.39999999999998</ele><time>2026-03-29T14:45:38.268Z</time></trkpt><trkpt lat="40.6198767" lon="9.689502"><ele>187.0</ele><time>2026-03-29T14:45:39.261Z</time></trkpt><trkpt lat="40.6199749" lon="9.6895363"><ele>187.0</ele><time>2026-03-29T14:45:40.262Z</time></trkpt><trkpt lat="40.6200714" lon="9.6895626"><ele>187.0</ele><time>2026-03-29T14:45:41.264Z</time></trkpt><trkpt lat="40.6201904" lon="9.689576"><ele>187.0</ele><time>2026-03-29T14:45:42.27Z</time></trkpt><trkpt lat="40.6203268" lon="9.6895743"><ele>187.0</ele><time>2026-03-29T14:45:43.267Z</time></trkpt><trkpt lat="40.6204621" lon="9.6895562"><ele>180.75</ele><time>2026-03-29T14:45:44.261Z</time></trkpt><trkpt lat="40.620599" lon="9.6895286"><ele>174.5</ele><time>2026-03-29T14:45:45.277Z</time></trkpt><trkpt lat="40.6207223" lon="9.6894967"><ele>168.25</ele><time>2026-03-29T14:45:46.266Z</time></trkpt><trkpt lat="40.6208383" lon="9.6894466"><ele>162.0</ele><time>2026-03-29T14:45:47.264Z</time></trkpt><trkpt lat="40.6209432" lon="9.6893821"><ele>156.79999999999998</ele><time>2026-03-29T14:45:48.265Z</time></trkpt><trkpt lat="40.6210461" lon="9.6893239"><ele>151.6</ele><time>2026-03-29T14:45:49.265Z</time></trkpt><trkpt lat="40.6211416" lon="9.6892754"><ele>146.39999999999998</ele><time>2026-03-29T14:45:50.286Z</time></trkpt><trkpt lat="40.6212359" lon="9.6892222"><ele>141.2</ele><time>2026-03-29T14:45:51.262Z</time></trkpt><trkpt lat="40.6213201" lon="9.6891818"><ele>136.0</ele><time>2026-03-29T14:45:52.263Z</time></trkpt><trkpt lat="40.6213946" lon="9.6891482"><ele>134.0</ele><time>2026-03-29T14:45:53.268Z</time></trkpt><trkpt lat="40.6214543" lon="9.6891191"><ele>132.0</ele><time>2026-03-29T14:45:54.263Z</time></trkpt><trkpt lat="40.6215394" lon="9.6890885"><ele>130.0</ele><time>2026-03-29T14:45:56.267Z</time></trkpt><trkpt lat="40.6216163" lon="9.6891212"><ele>128.0</ele><time>2026-03-29T14:45:58.265Z</time></trkpt><trkpt lat="40.6216549" lon="9.6892296"><ele>126.00000000000001</ele><time>2026-03-29T14:46:00.266Z</time></trkpt><trkpt lat="40.6216429" lon="9.6893179"><ele>124.0</ele><time>2026-03-29T14:46:01.269Z</time></trkpt><trkpt lat="40.6216316" lon="9.6894163"><ele>124.0</ele><time>2026-03-29T14:46:02.26Z</time></trkpt><trkpt lat="40.6215966" lon="9.6895294"><ele>124.0</ele><time>2026-03-29T14:46:03.261Z</time></trkpt><trkpt lat="40.6215629" lon="9.6896586"><ele>124.0</ele><time>2026-03-29T14:46:04.26Z</time></trkpt><trkpt lat="40.6215443" lon="9.6897969"><ele>124.0</ele><time>2026-03-29T14:46:05.267Z</time></trkpt><trkpt lat="40.6215474" lon="9.689942"><ele>124.0</ele><time>2026-03-29T14:46:06.288Z</time></trkpt><trkpt lat="40.6215573" lon="9.6900648"><ele>124.00000000000001</ele><time>2026-03-29T14:46:07.263Z</time></trkpt><trkpt lat="40.6215604" lon="9.6901761"><ele>124.0</ele><time>2026-03-29T14:46:08.268Z</time></trkpt><trkpt lat="40.6215512" lon="9.6902732"><ele>124.0</ele><time>2026-03-29T14:46:09.259Z</time></trkpt><trkpt lat="40.6215262" lon="9.6904028"><ele>124.0</ele><time>2026-03-29T14:46:11.262Z</time></trkpt><trkpt lat="40.621608" lon="9.6904338"><ele>124.00000000000001</ele><time>2026-03-29T14:46:15.264Z</time></trkpt><trkpt lat="40.6216455" lon="9.6903061"><ele>124.0</ele><time>2026-03-29T14:46:17.258Z</time></trkpt><trkpt lat="40.6216723" lon="9.6901914"><ele>124.0</ele><time>2026-03-29T14:46:18.268Z</time></trkpt><trkpt lat="40.621707" lon="9.6900577"><ele>124.0</ele><time>2026-03-29T14:46:19.28Z</time></trkpt><trkpt lat="40.6217363" lon="9.6899228"><ele>124.0</ele><time>2026-03-29T14:46:20.264Z</time></trkpt><trkpt lat="40.6217707" lon="9.6897966"><ele>124.0</ele><time>2026-03-29T14:46:21.266Z</time></trkpt><trkpt lat="40.6218316" lon="9.6896828"><ele>124.0</ele><time>2026-03-29T14:46:22.262Z</time></trkpt><trkpt lat="40.6218992" lon="9.6895602"><ele>124.0</ele><time>2026-03-29T14:46:23.263Z</time></trkpt><trkpt lat="40.6219668" lon="9.6894429"><ele>124.0</ele><time>2026-03-29T14:46:24.264Z</time></trkpt><trkpt lat="40.6220416" lon="9.6893237"><ele>124.0</ele><time>2026-03-29T14:46:25.258Z</time></trkpt><trkpt lat="40.6221159" lon="9.6892035"><ele>124.0</ele><time>2026-03-29T14:46:26.265Z</time></trkpt><trkpt lat="40.6221775" lon="9.6890882"><ele>119.50000000000001</ele><time>2026-03-29T14:46:27.265Z</time></trkpt><trkpt lat="40.6222329" lon="9.6889848"><ele>115.0</ele><time>2026-03-29T14:46:28.262Z</time></trkpt><trkpt lat="40.6222646" lon="9.6888981"><ele>110.5</ele><time>2026-03-29T14:46:29.273Z</time></trkpt><trkpt lat="40.6222594" lon="9.6888074"><ele>106.0</ele><time>2026-03-29T14:46:30.262Z</time></trkpt><trkpt lat="40.6222441" lon="9.6887074"><ele>101.50000000000001</ele><time>2026-03-29T14:46:31.267Z</time></trkpt><trkpt lat="40.6222134" lon="9.6886276"><ele>97.0</ele><time>2026-03-29T14:46:32.308Z</time></trkpt><trkpt lat="40.6221647" lon="9.688563"><ele>96.8</ele><time>2026-03-29T14:46:33.263Z</time></trkpt><trkpt lat="40.6220984" lon="9.6885113"><ele>96.6</ele><time>2026-03-29T14:46:34.27Z</time></trkpt><trkpt lat="40.6220296" lon="9.6884559"><ele>96.39999999999999</ele><time>2026-03-29T14:46:35.269Z</time></trkpt><trkpt lat="40.6219349" lon="9.6884286"><ele>96.19999999999999</ele><time>2026-03-29T14:46:36.267Z</time></trkpt><trkpt lat="40.6218325" lon="9.6884117"><ele>96.0</ele><time>2026-03-29T14:46:37.265Z</time></trkpt><trkpt lat="40.6217351" lon="9.6884012"><ele>98.4</ele><time>2026-03-29T14:46:38.262Z</time></trkpt><trkpt lat="40.6216516" lon="9.6884009"><ele>100.8</ele><time>2026-03-29T14:46:39.27Z</time></trkpt><trkpt lat="40.621585" lon="9.6883845"><ele>103.20000000000002</ele><time>2026-03-29T14:46:40.273Z</time></trkpt><trkpt lat="40.6214899" lon="9.68831"><ele>105.60000000000001</ele><time>2026-03-29T14:46:42.258Z</time></trkpt><trkpt lat="40.6214857" lon="9.6881791"><ele>108.0</ele><time>2026-03-29T14:46:44.263Z</time></trkpt><trkpt lat="40.6215484" lon="9.6880927"><ele>108.0</ele><time>2026-03-29T14:46:45.264Z</time></trkpt><trkpt lat="40.6216115" lon="9.6880095"><ele>108.00000000000001</ele><time>2026-03-29T14:46:46.257Z</time></trkpt><trkpt lat="40.6216814" lon="9.6879272"><ele>108.00000000000001</ele><time>2026-03-29T14:46:47.265Z</time></trkpt><trkpt lat="40.6217592" lon="9.6878399"><ele>108.0</ele><time>2026-03-29T14:46:48.263Z</time></trkpt><trkpt lat="40.6218378" lon="9.6877405"><ele>108.0</ele><time>2026-03-29T14:46:49.265Z</time></trkpt><trkpt lat="40.6219175" lon="9.6876471"><ele>102.80000000000001</ele><time>2026-03-29T14:46:50.266Z</time></trkpt><trkpt lat="40.621996" lon="9.6875623"><ele>97.60000000000001</ele><time>2026-03-29T14:46:51.264Z</time></trkpt><trkpt lat="40.6220725" lon="9.6874674"><ele>92.4</ele><time>2026-03-29T14:46:52.259Z</time></trkpt><trkpt lat="40.6221523" lon="9.6873718"><ele>87.19999999999999</ele><time>2026-03-29T14:46:53.263Z</time></trkpt><trkpt lat="40.6222386" lon="9.6872839"><ele>82.0</ele><time>2026-03-29T14:46:54.264Z</time></trkpt><trkpt lat="40.6223153" lon="9.6872101"><ele>82.0</ele><time>2026-03-29T14:46:55.268Z</time></trkpt><trkpt lat="40.6223869" lon="9.6871461"><ele>82.0</ele><time>2026-03-29T14:46:56.275Z</time></trkpt><trkpt lat="40.6224505" lon="9.6870831"><ele>82.0</ele><time>2026-03-29T14:46:57.268Z</time></trkpt><trkpt lat="40.6225103" lon="9.6870252"><ele>82.0</ele><time>2026-03-29T14:46:58.271Z</time></trkpt><trkpt lat="40.6225639" lon="9.6869773"><ele>82.0</ele><time>2026-03-29T14:46:59.264Z</time></trkpt><trkpt lat="40.622619" lon="9.686929"><ele>82.0</ele><time>2026-03-29T14:47:00.261Z</time></trkpt><trkpt lat="40.6227167" lon="9.6868201"><ele>82.57142857142857</ele><time>2026-03-29T14:47:02.265Z</time></trkpt><trkpt lat="40.6227704" lon="9.6867311"><ele>83.14285714285714</ele><time>2026-03-29T14:47:03.282Z</time></trkpt><trkpt lat="40.6228307" lon="9.6866482"><ele>83.71428571428572</ele><time>2026-03-29T14:47:04.267Z</time></trkpt><trkpt lat="40.6228693" lon="9.6865809"><ele>84.28571428571428</ele><time>2026-03-29T14:47:05.263Z</time></trkpt><trkpt lat="40.622916" lon="9.6865168"><ele>84.85714285714286</ele><time>2026-03-29T14:47:06.257Z</time></trkpt><trkpt lat="40.6229646" lon="9.6864604"><ele>85.42857142857143</ele><time>2026-03-29T14:47:07.268Z</time></trkpt><trkpt lat="40.6230082" lon="9.6863984"><ele>86.0</ele><time>2026-03-29T14:47:08.258Z</time></trkpt><trkpt lat="40.6230502" lon="9.6863361"><ele>82.2</ele><time>2026-03-29T14:47:09.264Z</time></trkpt><trkpt lat="40.6230868" lon="9.6862453"><ele>78.39999999999999</ele><time>2026-03-29T14:47:10.272Z</time></trkpt><trkpt lat="40.6231254" lon="9.6861314"><ele>74.6</ele><time>2026-03-29T14:47:11.264Z</time></trkpt><trkpt lat="40.6231535" lon="9.6860042"><ele>70.8</ele><time>2026-03-29T14:47:12.269Z</time></trkpt><trkpt lat="40.6231932" lon="9.685873"><ele>67.0</ele><time>2026-03-29T14:47:13.262Z</time></trkpt><trkpt lat="40.6232324" lon="9.685746"><ele>65.4</ele><time>2026-03-29T14:47:14.265Z</time></trkpt><trkpt lat="40.6232709" lon="9.6856266"><ele>63.800000000000004</ele><time>2026-03-29T14:47:15.261Z</time></trkpt><trkpt lat="40.6233101" lon="9.6855108"><ele>62.2</ele><time>2026-03-29T14:47:16.265Z</time></trkpt><trkpt lat="40.6233526" lon="9.6853999"><ele>60.6</ele><time>2026-03-29T14:47:17.262Z</time></trkpt><trkpt lat="40.6233923" lon="9.68529"><ele>59.0</ele><time>2026-03-29T14:47:18.266Z</time></trkpt><trkpt lat="40.6234333" lon="9.6851872"><ele>57.66666666666667</ele><time>2026-03-29T14:47:19.273Z</time></trkpt><trkpt lat="40.6234718" lon="9.6850877"><ele>56.333333333333336</ele><time>2026-03-29T14:47:20.266Z</time></trkpt><trkpt lat="40.6235124" lon="9.6849859"><ele>55.0</ele><time>2026-03-29T14:47:21.276Z</time></trkpt><trkpt lat="40.6235604" lon="9.6848802"><ele>53.66666666666667</ele><time>2026-03-29T14:47:22.269Z</time></trkpt><trkpt lat="40.6236098" lon="9.6847815"><ele>52.333333333333336</ele><time>2026-03-29T14:47:23.276Z</time></trkpt><trkpt lat="40.6236624" lon="9.6846982"><ele>51.0</ele><time>2026-03-29T14:47:24.261Z</time></trkpt><trkpt lat="40.6237058" lon="9.6846325"><ele>50.0</ele><time>2026-03-29T14:47:25.259Z</time></trkpt><trkpt lat="40.6237793" lon="9.6845382"><ele>49.0</ele><time>2026-03-29T14:47:27.268Z</time></trkpt><trkpt lat="40.6238356" lon="9.6844765"><ele>48.0</ele><time>2026-03-29T14:47:29.264Z</time></trkpt><trkpt lat="40.6238736" lon="9.6844091"><ele>47.0</ele><time>2026-03-29T14:52:59.244Z</time></trkpt><trkpt lat="40.6238924" lon="9.6843073"><ele>46.0</ele><time>2026-03-29T14:53:01.263Z</time></trkpt><trkpt lat="40.6239264" lon="9.6842232"><ele>45.0</ele><time>2026-03-29T14:53:03.272Z</time></trkpt><trkpt lat="40.6239677" lon="9.684143"><ele>43.8</ele><time>2026-03-29T14:53:05.26Z</time></trkpt><trkpt lat="40.6240317" lon="9.6840673"><ele>42.6</ele><time>2026-03-29T14:53:07.265Z</time></trkpt><trkpt lat="40.6241159" lon="9.6840001"><ele>41.4</ele><time>2026-03-29T14:53:09.265Z</time></trkpt><trkpt lat="40.6242059" lon="9.6839487"><ele>40.2</ele><time>2026-03-29T14:53:11.27Z</time></trkpt><trkpt lat="40.6242831" lon="9.6839053"><ele>39.0</ele><time>2026-03-29T14:53:13.262Z</time></trkpt><trkpt lat="40.6243685" lon="9.6838573"><ele>39.0</ele><time>2026-03-29T14:53:15.264Z</time></trkpt><trkpt lat="40.6244303" lon="9.6838218"><ele>39.0</ele><time>2026-03-29T14:53:16.27Z</time></trkpt><trkpt lat="40.6245034" lon="9.6837817"><ele>39.0</ele><time>2026-03-29T14:53:17.267Z</time></trkpt><trkpt lat="40.6245858" lon="9.6837321"><ele>39.0</ele><time>2026-03-29T14:53:18.261Z</time></trkpt><trkpt lat="40.6246734" lon="9.6836762"><ele>39.0</ele><time>2026-03-29T14:53:19.268Z</time></trkpt><trkpt lat="40.6247573" lon="9.6836241"><ele>39.0</ele><time>2026-03-29T14:53:20.263Z</time></trkpt><trkpt lat="40.6248328" lon="9.6835732"><ele>38.166666666666664</ele><time>2026-03-29T14:53:21.261Z</time></trkpt><trkpt lat="40.6248917" lon="9.6835264"><ele>37.333333333333336</ele><time>2026-03-29T14:53:22.265Z</time></trkpt><trkpt lat="40.6249418" lon="9.683471"><ele>36.5</ele><time>2026-03-29T14:53:23.266Z</time></trkpt><trkpt lat="40.6249843" lon="9.6833902"><ele>35.66666666666667</ele><time>2026-03-29T14:53:24.268Z</time></trkpt><trkpt lat="40.6250194" lon="9.6832868"><ele>34.833333333333336</ele><time>2026-03-29T14:53:25.291Z</time></trkpt><trkpt lat="40.6250506" lon="9.6831792"><ele>34.0</ele><time>2026-03-29T14:53:26.265Z</time></trkpt><trkpt lat="40.6250829" lon="9.6830829"><ele>34.0</ele><time>2026-03-29T14:53:27.266Z</time></trkpt><trkpt lat="40.6251259" lon="9.6830061"><ele>34.0</ele><time>2026-03-29T14:53:28.266Z</time></trkpt><trkpt lat="40.6251926" lon="9.6829314"><ele>34.0</ele><time>2026-03-29T14:53:29.269Z</time></trkpt><trkpt lat="40.62527" lon="9.6828419"><ele>34.0</ele><time>2026-03-29T14:53:30.282Z</time></trkpt><trkpt lat="40.6253405" lon="9.6827411"><ele>34.0</ele><time>2026-03-29T14:53:31.267Z</time></trkpt><trkpt lat="40.6254116" lon="9.6826334"><ele>32.16666666666667</ele><time>2026-03-29T14:53:32.265Z</time></trkpt><trkpt lat="40.6254761" lon="9.6825367"><ele>30.333333333333336</ele><time>2026-03-29T14:53:33.264Z</time></trkpt><trkpt lat="40.6255244" lon="9.6824484"><ele>28.5</ele><time>2026-03-29T14:53:34.265Z</time></trkpt><trkpt lat="40.6255549" lon="9.6823622"><ele>26.666666666666668</ele><time>2026-03-29T14:53:35.261Z</time></trkpt><trkpt lat="40.6255677" lon="9.6822645"><ele>24.833333333333336</ele><time>2026-03-29T14:53:36.268Z</time></trkpt><trkpt lat="40.6255606" lon="9.6821513"><ele>23.0</ele><time>2026-03-29T14:53:37.268Z</time></trkpt><trkpt lat="40.6255482" lon="9.6820397"><ele>22.599999999999998</ele><time>2026-03-29T14:53:38.262Z</time></trkpt><trkpt lat="40.6255349" lon="9.6819307"><ele>22.2</ele><time>2026-03-29T14:53:39.259Z</time></trkpt><trkpt lat="40.6255315" lon="9.6817969"><ele>21.8</ele><time>2026-03-29T14:53:40.262Z</time></trkpt><trkpt lat="40.6255384" lon="9.6816501"><ele>21.4</ele><time>2026-03-29T14:53:41.258Z</time></trkpt><trkpt lat="40.6255459" lon="9.6814921"><ele>21.0</ele><time>2026-03-29T14:53:42.262Z</time></trkpt><trkpt lat="40.6255579" lon="9.6813441"><ele>21.0</ele><time>2026-03-29T14:53:43.261Z</time></trkpt><trkpt lat="40.6255755" lon="9.6812228"><ele>21.0</ele><time>2026-03-29T14:53:44.282Z</time></trkpt><trkpt lat="40.6256052" lon="9.6811385"><ele>21.0</ele><time>2026-03-29T14:53:45.268Z</time></trkpt><trkpt lat="40.6256354" lon="9.6810551"><ele>21.0</ele><time>2026-03-29T14:53:46.262Z</time></trkpt><trkpt lat="40.6256987" lon="9.6810079"><ele>21.0</ele><time>2026-03-29T14:53:47.267Z</time></trkpt><trkpt lat="40.6257618" lon="9.6809442"><ele>21.0</ele><time>2026-03-29T14:53:48.264Z</time></trkpt><trkpt lat="40.6258197" lon="9.6808808"><ele>21.0</ele><time>2026-03-29T14:53:49.267Z</time></trkpt><trkpt lat="40.6258374" lon="9.6807733"><ele>21.0</ele><time>2026-03-29T14:53:50.267Z</time></trkpt><trkpt lat="40.6258562" lon="9.6806872"><ele>21.0</ele><time>2026-03-29T14:53:51.269Z</time></trkpt><trkpt lat="40.6258764" lon="9.6806011"><ele>21.0</ele><time>2026-03-29T14:53:52.261Z</time></trkpt><trkpt lat="40.6259414" lon="9.6805555"><ele>21.0</ele><time>2026-03-29T14:53:53.265Z</time></trkpt><trkpt lat="40.6260371" lon="9.6805145"><ele>21.0</ele><time>2026-03-29T14:53:54.263Z</time></trkpt><trkpt lat="40.6261479" lon="9.6804916"><ele>19.75</ele><time>2026-03-29T14:53:55.268Z</time></trkpt><trkpt lat="40.6262735" lon="9.6804776"><ele>18.5</ele><time>2026-03-29T14:53:56.264Z</time></trkpt><trkpt lat="40.6263929" lon="9.6804694"><ele>17.25</ele><time>2026-03-29T14:53:57.27Z</time></trkpt><trkpt lat="40.626503" lon="9.6804631"><ele>16.0</ele><time>2026-03-29T14:53:58.266Z</time></trkpt><trkpt lat="40.6266032" lon="9.6804672"><ele>16.0</ele><time>2026-03-29T14:53:59.263Z</time></trkpt><trkpt lat="40.6267025" lon="9.680486"><ele>16.0</ele><time>2026-03-29T14:54:00.27Z</time></trkpt><trkpt lat="40.6268043" lon="9.680507"><ele>16.0</ele><time>2026-03-29T14:54:01.263Z</time></trkpt><trkpt lat="40.6269078" lon="9.6805542"><ele>16.0</ele><time>2026-03-29T14:54:02.274Z</time></trkpt><trkpt lat="40.6270149" lon="9.6805993"><ele>16.0</ele><time>2026-03-29T14:54:03.271Z</time></trkpt><trkpt lat="40.6271232" lon="9.6806449"><ele>15.75</ele><time>2026-03-29T14:54:04.27Z</time></trkpt><trkpt lat="40.6272316" lon="9.680681"><ele>15.5</ele><time>2026-03-29T14:54:05.269Z</time></trkpt><trkpt lat="40.6273529" lon="9.6807312"><ele>15.25</ele><time>2026-03-29T14:54:06.272Z</time></trkpt><trkpt lat="40.6274759" lon="9.6807806"><ele>15.0</ele><time>2026-03-29T14:54:07.273Z</time></trkpt><trkpt lat="40.6276004" lon="9.680824"><ele>15.0</ele><time>2026-03-29T14:54:08.259Z</time></trkpt><trkpt lat="40.6277188" lon="9.6808588"><ele>15.0</ele><time>2026-03-29T14:54:09.268Z</time></trkpt><trkpt lat="40.6278362" lon="9.6808845"><ele>15.0</ele><time>2026-03-29T14:54:10.272Z</time></trkpt><trkpt lat="40.6279536" lon="9.6808903"><ele>15.0</ele><time>2026-03-29T14:54:11.266Z</time></trkpt><trkpt lat="40.6280734" lon="9.6808746"><ele>14.4</ele><time>2026-03-29T14:54:12.274Z</time></trkpt><trkpt lat="40.6281948" lon="9.6808451"><ele>13.8</ele><time>2026-03-29T14:54:13.265Z</time></trkpt><trkpt lat="40.6283086" lon="9.6808159"><ele>13.2</ele><time>2026-03-29T14:54:14.264Z</time></trkpt><trkpt lat="40.6284047" lon="9.6807833"><ele>12.6</ele><time>2026-03-29T14:54:15.261Z</time></trkpt><trkpt lat="40.6284835" lon="9.6807498"><ele>12.0</ele><time>2026-03-29T14:54:16.267Z</time></trkpt><trkpt lat="40.6285779" lon="9.6807298"><ele>11.8</ele><time>2026-03-29T14:54:18.283Z</time></trkpt><trkpt lat="40.6286663" lon="9.6807432"><ele>11.6</ele><time>2026-03-29T14:54:20.263Z</time></trkpt><trkpt lat="40.6287509" lon="9.6808443"><ele>11.4</ele><time>2026-03-29T14:54:21.271Z</time></trkpt><trkpt lat="40.628829" lon="9.6809435"><ele>11.200000000000001</ele><time>2026-03-29T14:54:22.263Z</time></trkpt><trkpt lat="40.6289033" lon="9.6810554"><ele>11.0</ele><time>2026-03-29T14:54:23.284Z</time></trkpt><trkpt lat="40.6289565" lon="9.6812084"><ele>11.0</ele><time>2026-03-29T14:54:24.262Z</time></trkpt><trkpt lat="40.6290137" lon="9.6813727"><ele>11.0</ele><time>2026-03-29T14:54:25.261Z</time></trkpt><trkpt lat="40.6290688" lon="9.6815405"><ele>11.0</ele><time>2026-03-29T14:54:26.267Z</time></trkpt><trkpt lat="40.6291228" lon="9.6817085"><ele>11.0</ele><time>2026-03-29T14:54:27.259Z</time></trkpt><trkpt lat="40.6291763" lon="9.6818701"><ele>11.0</ele><time>2026-03-29T14:54:28.287Z</time></trkpt><trkpt lat="40.6292271" lon="9.6820196"><ele>11.0</ele><time>2026-03-29T14:54:29.261Z</time></trkpt><trkpt lat="40.6292712" lon="9.6821552"><ele>11.0</ele><time>2026-03-29T14:54:30.266Z</time></trkpt><trkpt lat="40.6293099" lon="9.6822802"><ele>11.0</ele><time>2026-03-29T14:54:31.261Z</time></trkpt><trkpt lat="40.6293517" lon="9.6823752"><ele>11.0</ele><time>2026-03-29T14:54:32.268Z</time></trkpt><trkpt lat="40.6294036" lon="9.682429"><ele>10.600000000000001</ele><time>2026-03-29T14:54:33.263Z</time></trkpt><trkpt lat="40.6295227" lon="9.6824398"><ele>10.200000000000001</ele><time>2026-03-29T14:54:35.26Z</time></trkpt><trkpt lat="40.6296201" lon="9.682419"><ele>9.8</ele><time>2026-03-29T14:54:37.258Z</time></trkpt><trkpt lat="40.6297008" lon="9.6824673"><ele>9.4</ele><time>2026-03-29T14:54:40.287Z</time></trkpt><trkpt lat="40.6297168" lon="9.6825577"><ele>9.0</ele><time>2026-03-29T14:54:41.261Z</time></trkpt><trkpt lat="40.6297222" lon="9.6826729"><ele>8.5</ele><time>2026-03-29T14:54:42.269Z</time></trkpt><trkpt lat="40.6297278" lon="9.6828066"><ele>8.0</ele><time>2026-03-29T14:54:43.264Z</time></trkpt><trkpt lat="40.6297313" lon="9.6829727"><ele>7.5</ele><time>2026-03-29T14:54:44.259Z</time></trkpt><trkpt lat="40.629737" lon="9.6831451"><ele>7.0</ele><time>2026-03-29T14:54:45.27Z</time></trkpt><trkpt lat="40.6297399" lon="9.6833173"><ele>7.0</ele><time>2026-03-29T14:54:46.265Z</time></trkpt><trkpt lat="40.6297404" lon="9.6834946"><ele>7.0</ele><time>2026-03-29T14:54:47.267Z</time></trkpt><trkpt lat="40.6297437" lon="9.6836786"><ele>7.0</ele><time>2026-03-29T14:54:48.271Z</time></trkpt><trkpt lat="40.6297469" lon="9.6838733"><ele>7.0</ele><time>2026-03-29T14:54:49.264Z</time></trkpt><trkpt lat="40.6297485" lon="9.6840721"><ele>7.0</ele><time>2026-03-29T14:54:50.267Z</time></trkpt><trkpt lat="40.6297485" lon="9.6842707"><ele>7.0</ele><time>2026-03-29T14:54:51.261Z</time></trkpt><trkpt lat="40.6297506" lon="9.6844764"><ele>7.0</ele><time>2026-03-29T14:54:52.281Z</time></trkpt><trkpt lat="40.629754" lon="9.6846904"><ele>6.666666666666667</ele><time>2026-03-29T14:54:53.264Z</time></trkpt><trkpt lat="40.6297564" lon="9.6849105"><ele>6.333333333333334</ele><time>2026-03-29T14:54:54.27Z</time></trkpt><trkpt lat="40.62976" lon="9.6851404"><ele>6.0</ele><time>2026-03-29T14:54:55.266Z</time></trkpt><trkpt lat="40.6297653" lon="9.6853776"><ele>6.0</ele><time>2026-03-29T14:54:56.261Z</time></trkpt><trkpt lat="40.6297691" lon="9.6856175"><ele>6.0</ele><time>2026-03-29T14:54:57.283Z</time></trkpt><trkpt lat="40.6297762" lon="9.6858691"><ele>6.0</ele><time>2026-03-29T14:54:58.268Z</time></trkpt><trkpt lat="40.6297838" lon="9.686115"><ele>6.0</ele><time>2026-03-29T14:54:59.262Z</time></trkpt><trkpt lat="40.6297903" lon="9.6863568"><ele>6.0</ele><time>2026-03-29T14:55:00.266Z</time></trkpt><trkpt lat="40.6297968" lon="9.6865912"><ele>6.0</ele><time>2026-03-29T14:55:01.268Z</time></trkpt><trkpt lat="40.6298056" lon="9.6868194"><ele>6.666666666666666</ele><time>2026-03-29T14:55:02.267Z</time></trkpt><trkpt lat="40.6298186" lon="9.6870378"><ele>7.333333333333333</ele><time>2026-03-29T14:55:03.263Z</time></trkpt><trkpt lat="40.62984" lon="9.6872467"><ele>8.0</ele><time>2026-03-29T14:55:04.265Z</time></trkpt><trkpt lat="40.6298711" lon="9.6874528"><ele>8.0</ele><time>2026-03-29T14:55:05.258Z</time></trkpt><trkpt lat="40.6299096" lon="9.6876575"><ele>8.0</ele><time>2026-03-29T14:55:06.259Z</time></trkpt><trkpt lat="40.629953" lon="9.6878637"><ele>8.0</ele><time>2026-03-29T14:55:07.262Z</time></trkpt><trkpt lat="40.6299982" lon="9.6880734"><ele>7.333333333333333</ele><time>2026-03-29T14:55:08.26Z</time></trkpt><trkpt lat="40.6300462" lon="9.6882891"><ele>6.666666666666666</ele><time>2026-03-29T14:55:09.262Z</time></trkpt><trkpt lat="40.6300957" lon="9.6885085"><ele>6.0</ele><time>2026-03-29T14:55:10.262Z</time></trkpt><trkpt lat="40.6301452" lon="9.6887323"><ele>6.0</ele><time>2026-03-29T14:55:11.264Z</time></trkpt><trkpt lat="40.630193" lon="9.6889553"><ele>6.0</ele><time>2026-03-29T14:55:12.261Z</time></trkpt><trkpt lat="40.6302491" lon="9.6891885"><ele>6.0</ele><time>2026-03-29T14:55:13.261Z</time></trkpt><trkpt lat="40.6303034" lon="9.6894315"><ele>5.333333333333333</ele><time>2026-03-29T14:55:14.26Z</time></trkpt><trkpt lat="40.6303553" lon="9.6896769"><ele>4.666666666666666</ele><time>2026-03-29T14:55:15.284Z</time></trkpt><trkpt lat="40.6304073" lon="9.6899117"><ele>4.0</ele><time>2026-03-29T14:55:16.26Z</time></trkpt><trkpt lat="40.6304619" lon="9.6901419"><ele>3.6666666666666665</ele><time>2026-03-29T14:55:17.263Z</time></trkpt><trkpt lat="40.6305134" lon="9.6903692"><ele>3.333333333333333</ele><time>2026-03-29T14:55:18.259Z</time></trkpt><trkpt lat="40.6305639" lon="9.6905973"><ele>3.0</ele><time>2026-03-29T14:55:19.264Z</time></trkpt><trkpt lat="40.630617" lon="9.6908211"><ele>3.0</ele><time>2026-03-29T14:55:20.262Z</time></trkpt><trkpt lat="40.6306654" lon="9.6910406"><ele>3.0</ele><time>2026-03-29T14:55:21.279Z</time></trkpt><trkpt lat="40.630712" lon="9.6912489"><ele>3.0</ele><time>2026-03-29T14:55:22.264Z</time></trkpt><trkpt lat="40.6307576" lon="9.6914535"><ele>3.0</ele><time>2026-03-29T14:55:23.262Z</time></trkpt><trkpt lat="40.6308021" lon="9.6916497"><ele>3.0</ele><time>2026-03-29T14:55:24.266Z</time></trkpt><trkpt lat="40.6308446" lon="9.6918366"><ele>3.0</ele><time>2026-03-29T14:55:25.264Z</time></trkpt><trkpt lat="40.6308865" lon="9.6920244"><ele>3.333333333333333</ele><time>2026-03-29T14:55:26.268Z</time></trkpt><trkpt lat="40.6309284" lon="9.6922163"><ele>3.6666666666666665</ele><time>2026-03-29T14:55:27.266Z</time></trkpt><trkpt lat="40.6309673" lon="9.692414"><ele>4.0</ele><time>2026-03-29T14:55:28.271Z</time></trkpt><trkpt lat="40.6310035" lon="9.6926215"><ele>5.0</ele><time>2026-03-29T14:55:29.269Z</time></trkpt><trkpt lat="40.6310287" lon="9.6928383"><ele>6.0</ele><time>2026-03-29T14:55:30.284Z</time></trkpt><trkpt lat="40.6310387" lon="9.6930627"><ele>7.0</ele><time>2026-03-29T14:55:31.267Z</time></trkpt><trkpt lat="40.6310361" lon="9.6932928"><ele>7.0</ele><time>2026-03-29T14:55:32.263Z</time></trkpt><trkpt lat="40.6310223" lon="9.6935214"><ele>7.0</ele><time>2026-03-29T14:55:33.264Z</time></trkpt><trkpt lat="40.6310043" lon="9.6937482"><ele>7.0</ele><time>2026-03-29T14:55:34.266Z</time></trkpt><trkpt lat="40.6309856" lon="9.6939749"><ele>6.666666666666667</ele><time>2026-03-29T14:55:35.268Z</time></trkpt><trkpt lat="40.6309667" lon="9.6941995"><ele>6.333333333333334</ele><time>2026-03-29T14:55:36.263Z</time></trkpt><trkpt lat="40.6309483" lon="9.6944234"><ele>6.0</ele><time>2026-03-29T14:55:37.288Z</time></trkpt><trkpt lat="40.6309306" lon="9.6946484"><ele>6.0</ele><time>2026-03-29T14:55:38.267Z</time></trkpt><trkpt lat="40.6309132" lon="9.6948766"><ele>6.0</ele><time>2026-03-29T14:55:39.263Z</time></trkpt><trkpt lat="40.6308953" lon="9.6951068"><ele>6.0</ele><time>2026-03-29T14:55:40.269Z</time></trkpt><trkpt lat="40.6308758" lon="9.6953385"><ele>6.0</ele><time>2026-03-29T14:55:41.265Z</time></trkpt><trkpt lat="40.6308549" lon="9.6955716"><ele>6.0</ele><time>2026-03-29T14:55:42.288Z</time></trkpt><trkpt lat="40.630829" lon="9.6958022"><ele>6.0</ele><time>2026-03-29T14:55:43.265Z</time></trkpt><trkpt lat="40.63079" lon="9.6960293"><ele>6.333333333333334</ele><time>2026-03-29T14:55:44.259Z</time></trkpt><trkpt lat="40.6307381" lon="9.6962528"><ele>6.666666666666667</ele><time>2026-03-29T14:55:45.264Z</time></trkpt><trkpt lat="40.6306799" lon="9.6964738"><ele>7.0</ele><time>2026-03-29T14:55:46.262Z</time></trkpt><trkpt lat="40.6306207" lon="9.6966928"><ele>7.0</ele><time>2026-03-29T14:55:47.289Z</time></trkpt><trkpt lat="40.6305608" lon="9.6969094"><ele>7.0</ele><time>2026-03-29T14:55:48.257Z</time></trkpt><trkpt lat="40.6305013" lon="9.6971255"><ele>7.0</ele><time>2026-03-29T14:55:49.262Z</time></trkpt><trkpt lat="40.6304431" lon="9.6973378"><ele>7.25</ele><time>2026-03-29T14:55:50.265Z</time></trkpt><trkpt lat="40.6303898" lon="9.6975338"><ele>7.5</ele><time>2026-03-29T14:55:51.258Z</time></trkpt><trkpt lat="40.6303426" lon="9.6977152"><ele>7.75</ele><time>2026-03-29T14:55:52.281Z</time></trkpt><trkpt lat="40.6302969" lon="9.6978906"><ele>8.0</ele><time>2026-03-29T14:55:53.259Z</time></trkpt><trkpt lat="40.6302509" lon="9.698064"><ele>9.0</ele><time>2026-03-29T14:55:54.264Z</time></trkpt><trkpt lat="40.6302043" lon="9.6982392"><ele>10.0</ele><time>2026-03-29T14:55:55.265Z</time></trkpt><trkpt lat="40.6301595" lon="9.6984078"><ele>11.0</ele><time>2026-03-29T14:55:56.26Z</time></trkpt><trkpt lat="40.6301139" lon="9.6985792"><ele>12.0</ele><time>2026-03-29T14:55:57.278Z</time></trkpt><trkpt lat="40.6300655" lon="9.6987564"><ele>12.0</ele><time>2026-03-29T14:55:58.265Z</time></trkpt><trkpt lat="40.6300148" lon="9.6989417"><ele>12.0</ele><time>2026-03-29T14:55:59.263Z</time></trkpt><trkpt lat="40.6299625" lon="9.699135"><ele>12.0</ele><time>2026-03-29T14:56:00.263Z</time></trkpt><trkpt lat="40.6299095" lon="9.699336"><ele>11.666666666666666</ele><time>2026-03-29T14:56:01.262Z</time></trkpt><trkpt lat="40.6298568" lon="9.6995437"><ele>11.333333333333332</ele><time>2026-03-29T14:56:02.269Z</time></trkpt><trkpt lat="40.6298065" lon="9.699758"><ele>11.0</ele><time>2026-03-29T14:56:03.261Z</time></trkpt><trkpt lat="40.6297562" lon="9.6999794"><ele>11.0</ele><time>2026-03-29T14:56:04.27Z</time></trkpt><trkpt lat="40.6297043" lon="9.7002058"><ele>11.0</ele><time>2026-03-29T14:56:05.26Z</time></trkpt><trkpt lat="40.6296515" lon="9.7004353"><ele>11.0</ele><time>2026-03-29T14:56:06.26Z</time></trkpt><trkpt lat="40.6295984" lon="9.7006683"><ele>10.666666666666666</ele><time>2026-03-29T14:56:07.258Z</time></trkpt><trkpt lat="40.629546" lon="9.7009067"><ele>10.333333333333334</ele><time>2026-03-29T14:56:08.265Z</time></trkpt><trkpt lat="40.629494" lon="9.7011505"><ele>10.0</ele><time>2026-03-29T14:56:09.262Z</time></trkpt><trkpt lat="40.6294423" lon="9.7013996"><ele>10.0</ele><time>2026-03-29T14:56:10.278Z</time></trkpt><trkpt lat="40.6293923" lon="9.7016528"><ele>10.0</ele><time>2026-03-29T14:56:11.262Z</time></trkpt><trkpt lat="40.6293437" lon="9.7019132"><ele>10.0</ele><time>2026-03-29T14:56:12.265Z</time></trkpt><trkpt lat="40.629295" lon="9.7021773"><ele>10.666666666666668</ele><time>2026-03-29T14:56:13.275Z</time></trkpt><trkpt lat="40.6292489" lon="9.7024384"><ele>11.333333333333334</ele><time>2026-03-29T14:56:14.266Z</time></trkpt><trkpt lat="40.6292018" lon="9.7026967"><ele>12.0</ele><time>2026-03-29T14:56:15.285Z</time></trkpt><trkpt lat="40.6291498" lon="9.7029509"><ele>12.666666666666668</ele><time>2026-03-29T14:56:16.262Z</time></trkpt><trkpt lat="40.6291282" lon="9.7032135"><ele>13.333333333333334</ele><time>2026-03-29T14:56:17.263Z</time></trkpt><trkpt lat="40.629109" lon="9.7034727"><ele>14.0</ele><time>2026-03-29T14:56:18.266Z</time></trkpt><trkpt lat="40.6290846" lon="9.7037511"><ele>14.0</ele><time>2026-03-29T14:56:19.27Z</time></trkpt><trkpt lat="40.6290571" lon="9.7040318"><ele>14.0</ele><time>2026-03-29T14:56:20.266Z</time></trkpt><trkpt lat="40.629037" lon="9.7043152"><ele>14.0</ele><time>2026-03-29T14:56:21.285Z</time></trkpt><trkpt lat="40.6290183" lon="9.7045932"><ele>14.0</ele><time>2026-03-29T14:56:22.264Z</time></trkpt><trkpt lat="40.6290033" lon="9.7048707"><ele>14.0</ele><time>2026-03-29T14:56:23.267Z</time></trkpt><trkpt lat="40.6289883" lon="9.7051369"><ele>14.0</ele><time>2026-03-29T14:56:24.264Z</time></trkpt><trkpt lat="40.6289743" lon="9.7054033"><ele>14.0</ele><time>2026-03-29T14:56:25.264Z</time></trkpt><trkpt lat="40.6289603" lon="9.7056637"><ele>14.0</ele><time>2026-03-29T14:56:26.263Z</time></trkpt><trkpt lat="40.6289477" lon="9.7059212"><ele>14.0</ele><time>2026-03-29T14:56:27.274Z</time></trkpt><trkpt lat="40.6289349" lon="9.7061748"><ele>14.0</ele><time>2026-03-29T14:56:28.266Z</time></trkpt><trkpt lat="40.6289228" lon="9.7064282"><ele>14.0</ele><time>2026-03-29T14:56:29.287Z</time></trkpt><trkpt lat="40.6289171" lon="9.7066759"><ele>14.0</ele><time>2026-03-29T14:56:30.272Z</time></trkpt><trkpt lat="40.6289299" lon="9.7069175"><ele>14.333333333333334</ele><time>2026-03-29T14:56:31.264Z</time></trkpt><trkpt lat="40.6289654" lon="9.7071542"><ele>14.666666666666668</ele><time>2026-03-29T14:56:32.263Z</time></trkpt><trkpt lat="40.6290303" lon="9.7073787"><ele>15.0</ele><time>2026-03-29T14:56:33.263Z</time></trkpt><trkpt lat="40.6291238" lon="9.707587"><ele>14.666666666666668</ele><time>2026-03-29T14:56:34.302Z</time></trkpt><trkpt lat="40.6292407" lon="9.7077843"><ele>14.333333333333334</ele><time>2026-03-29T14:56:35.268Z</time></trkpt><trkpt lat="40.6293644" lon="9.7079865"><ele>14.0</ele><time>2026-03-29T14:56:36.263Z</time></trkpt><trkpt lat="40.6294803" lon="9.7081974"><ele>14.0</ele><time>2026-03-29T14:56:37.269Z</time></trkpt><trkpt lat="40.6295889" lon="9.708411"><ele>14.0</ele><time>2026-03-29T14:56:38.259Z</time></trkpt><trkpt lat="40.6296931" lon="9.708628"><ele>14.0</ele><time>2026-03-29T14:56:39.284Z</time></trkpt><trkpt lat="40.6297931" lon="9.7088464"><ele>14.666666666666668</ele><time>2026-03-29T14:56:40.261Z</time></trkpt><trkpt lat="40.6298822" lon="9.7090629"><ele>15.333333333333332</ele><time>2026-03-29T14:56:41.267Z</time></trkpt><trkpt lat="40.629954" lon="9.7092776"><ele>16.0</ele><time>2026-03-29T14:56:42.264Z</time></trkpt><trkpt lat="40.6300094" lon="9.7094991"><ele>16.0</ele><time>2026-03-29T14:56:43.265Z</time></trkpt><trkpt lat="40.6300473" lon="9.7097309"><ele>16.0</ele><time>2026-03-29T14:56:44.262Z</time></trkpt><trkpt lat="40.6300698" lon="9.7099695"><ele>16.0</ele><time>2026-03-29T14:56:45.261Z</time></trkpt><trkpt lat="40.6300843" lon="9.7102121"><ele>16.0</ele><time>2026-03-29T14:56:46.26Z</time></trkpt><trkpt lat="40.6300951" lon="9.710443"><ele>16.0</ele><time>2026-03-29T14:56:47.265Z</time></trkpt><trkpt lat="40.6301042" lon="9.7106591"><ele>16.0</ele><time>2026-03-29T14:56:48.301Z</time></trkpt><trkpt lat="40.6301128" lon="9.710862"><ele>16.0</ele><time>2026-03-29T14:56:49.269Z</time></trkpt><trkpt lat="40.6301217" lon="9.7110573"><ele>16.0</ele><time>2026-03-29T14:56:50.267Z</time></trkpt><trkpt lat="40.6301295" lon="9.711253"><ele>16.0</ele><time>2026-03-29T14:56:51.267Z</time></trkpt><trkpt lat="40.6301351" lon="9.7114517"><ele>16.0</ele><time>2026-03-29T14:56:52.264Z</time></trkpt><trkpt lat="40.6301442" lon="9.7116512"><ele>15.666666666666666</ele><time>2026-03-29T14:56:53.262Z</time></trkpt><trkpt lat="40.6301543" lon="9.711863"><ele>15.333333333333332</ele><time>2026-03-29T14:56:54.265Z</time></trkpt><trkpt lat="40.6301609" lon="9.712079"><ele>15.0</ele><time>2026-03-29T14:56:55.276Z</time></trkpt><trkpt lat="40.6301712" lon="9.7123023"><ele>15.0</ele><time>2026-03-29T14:56:56.261Z</time></trkpt><trkpt lat="40.6301828" lon="9.7125292"><ele>15.0</ele><time>2026-03-29T14:56:57.264Z</time></trkpt><trkpt lat="40.6301935" lon="9.7127493"><ele>15.0</ele><time>2026-03-29T14:56:58.266Z</time></trkpt><trkpt lat="40.6302045" lon="9.7129631"><ele>15.0</ele><time>2026-03-29T14:56:59.264Z</time></trkpt><trkpt lat="40.630214" lon="9.7131727"><ele>15.0</ele><time>2026-03-29T14:57:00.261Z</time></trkpt><trkpt lat="40.6302236" lon="9.7133739"><ele>15.0</ele><time>2026-03-29T14:57:01.286Z</time></trkpt><trkpt lat="40.6302302" lon="9.7135601"><ele>14.5</ele><time>2026-03-29T14:57:02.262Z</time></trkpt><trkpt lat="40.6302373" lon="9.7137408"><ele>14.0</ele><time>2026-03-29T14:57:03.265Z</time></trkpt><trkpt lat="40.6302451" lon="9.7139169"><ele>13.5</ele><time>2026-03-29T14:57:04.262Z</time></trkpt><trkpt lat="40.6302525" lon="9.7140944"><ele>13.0</ele><time>2026-03-29T14:57:05.265Z</time></trkpt><trkpt lat="40.6302616" lon="9.7142716"><ele>12.600000000000001</ele><time>2026-03-29T14:57:06.265Z</time></trkpt><trkpt lat="40.6302683" lon="9.7144318"><ele>12.200000000000001</ele><time>2026-03-29T14:57:07.263Z</time></trkpt><trkpt lat="40.6302839" lon="9.7145527"><ele>11.8</ele><time>2026-03-29T14:57:08.266Z</time></trkpt><trkpt lat="40.6302859" lon="9.7146524"><ele>11.4</ele><time>2026-03-29T14:57:09.274Z</time></trkpt><trkpt lat="40.6302964" lon="9.7147895"><ele>11.0</ele><time>2026-03-29T14:57:11.263Z</time></trkpt><trkpt lat="40.6303451" lon="9.7148892"><ele>11.0</ele><time>2026-03-29T14:57:14.27Z</time></trkpt><trkpt lat="40.6304756" lon="9.7149449"><ele>11.0</ele><time>2026-03-29T14:57:16.275Z</time></trkpt><trkpt lat="40.6305674" lon="9.7149493"><ele>11.0</ele><time>2026-03-29T14:57:17.287Z</time></trkpt><trkpt lat="40.6306688" lon="9.7149428"><ele>11.0</ele><time>2026-03-29T14:57:18.27Z</time></trkpt><trkpt lat="40.6307776" lon="9.7149351"><ele>11.0</ele><time>2026-03-29T14:57:19.27Z</time></trkpt><trkpt lat="40.6309161" lon="9.7149149"><ele>11.0</ele><time>2026-03-29T14:57:20.266Z</time></trkpt><trkpt lat="40.6310524" lon="9.7149047"><ele>11.0</ele><time>2026-03-29T14:57:21.266Z</time></trkpt><trkpt lat="40.6311954" lon="9.7148978"><ele>11.0</ele><time>2026-03-29T14:57:22.268Z</time></trkpt><trkpt lat="40.6313303" lon="9.7148868"><ele>11.0</ele><time>2026-03-29T14:57:23.269Z</time></trkpt><trkpt lat="40.6314592" lon="9.7148743"><ele>11.25</ele><time>2026-03-29T14:57:24.266Z</time></trkpt><trkpt lat="40.6315896" lon="9.7148837"><ele>11.5</ele><time>2026-03-29T14:57:25.276Z</time></trkpt><trkpt lat="40.6317096" lon="9.7148786"><ele>11.75</ele><time>2026-03-29T14:57:26.273Z</time></trkpt><trkpt lat="40.6318367" lon="9.7148751"><ele>12.0</ele><time>2026-03-29T14:57:27.296Z</time></trkpt><trkpt lat="40.6319713" lon="9.714877"><ele>12.5</ele><time>2026-03-29T14:57:28.273Z</time></trkpt><trkpt lat="40.6321101" lon="9.7148661"><ele>13.0</ele><time>2026-03-29T14:57:29.268Z</time></trkpt><trkpt lat="40.6322516" lon="9.7148566"><ele>13.5</ele><time>2026-03-29T14:57:30.269Z</time></trkpt><trkpt lat="40.6323991" lon="9.7148494"><ele>14.0</ele><time>2026-03-29T14:57:31.269Z</time></trkpt><trkpt lat="40.6325471" lon="9.7148417"><ele>14.0</ele><time>2026-03-29T14:57:32.267Z</time></trkpt><trkpt lat="40.6327001" lon="9.7148382"><ele>14.0</ele><time>2026-03-29T14:57:33.267Z</time></trkpt><trkpt lat="40.6328555" lon="9.7148352"><ele>14.0</ele><time>2026-03-29T14:57:34.271Z</time></trkpt><trkpt lat="40.6330155" lon="9.714828"><ele>14.333333333333334</ele><time>2026-03-29T14:57:35.269Z</time></trkpt><trkpt lat="40.6331825" lon="9.7148132"><ele>14.666666666666668</ele><time>2026-03-29T14:57:36.267Z</time></trkpt><trkpt lat="40.6333613" lon="9.7147913"><ele>15.0</ele><time>2026-03-29T14:57:37.28Z</time></trkpt><trkpt lat="40.6335426" lon="9.7147525"><ele>13.333333333333334</ele><time>2026-03-29T14:57:38.268Z</time></trkpt><trkpt lat="40.6337266" lon="9.7147049"><ele>11.666666666666668</ele><time>2026-03-29T14:57:39.272Z</time></trkpt><trkpt lat="40.6339135" lon="9.7146513"><ele>10.0</ele><time>2026-03-29T14:57:40.266Z</time></trkpt><trkpt lat="40.6340985" lon="9.7145961"><ele>10.0</ele><time>2026-03-29T14:57:41.272Z</time></trkpt><trkpt lat="40.6342827" lon="9.7145365"><ele>10.0</ele><time>2026-03-29T14:57:42.263Z</time></trkpt><trkpt lat="40.6344702" lon="9.7144772"><ele>10.0</ele><time>2026-03-29T14:57:43.267Z</time></trkpt><trkpt lat="40.6346607" lon="9.7144192"><ele>8.0</ele><time>2026-03-29T14:57:44.27Z</time></trkpt><trkpt lat="40.6348506" lon="9.7143617"><ele>6.0</ele><time>2026-03-29T14:57:45.265Z</time></trkpt><trkpt lat="40.6350392" lon="9.7143031"><ele>4.0</ele><time>2026-03-29T14:57:46.28Z</time></trkpt><trkpt lat="40.6352274" lon="9.7142412"><ele>3.333333333333333</ele><time>2026-03-29T14:57:47.267Z</time></trkpt><trkpt lat="40.6354159" lon="9.7141788"><ele>2.6666666666666665</ele><time>2026-03-29T14:57:48.267Z</time></trkpt><trkpt lat="40.6356043" lon="9.7141175"><ele>2.0</ele><time>2026-03-29T14:57:49.269Z</time></trkpt><trkpt lat="40.6357888" lon="9.7140604"><ele>2.0</ele><time>2026-03-29T14:57:50.266Z</time></trkpt><trkpt lat="40.6359683" lon="9.7140051"><ele>2.0</ele><time>2026-03-29T14:57:51.275Z</time></trkpt><trkpt lat="40.6361473" lon="9.7139517"><ele>2.0</ele><time>2026-03-29T14:57:52.266Z</time></trkpt><trkpt lat="40.6363272" lon="9.7138968"><ele>2.0</ele><time>2026-03-29T14:57:53.27Z</time></trkpt><trkpt lat="40.6365001" lon="9.7138477"><ele>2.0</ele><time>2026-03-29T14:57:54.269Z</time></trkpt><trkpt lat="40.6366715" lon="9.7137979"><ele>2.0</ele><time>2026-03-29T14:57:55.264Z</time></trkpt><trkpt lat="40.6368374" lon="9.7137414"><ele>2.0</ele><time>2026-03-29T14:57:56.268Z</time></trkpt><trkpt lat="40.6370028" lon="9.7136758"><ele>2.0</ele><time>2026-03-29T14:57:57.266Z</time></trkpt><trkpt lat="40.6371665" lon="9.7136192"><ele>2.0</ele><time>2026-03-29T14:57:58.294Z</time></trkpt><trkpt lat="40.6373367" lon="9.7135626"><ele>2.0</ele><time>2026-03-29T14:57:59.268Z</time></trkpt><trkpt lat="40.6375181" lon="9.7135067"><ele>2.0</ele><time>2026-03-29T14:58:00.266Z</time></trkpt><trkpt lat="40.6377101" lon="9.7134454"><ele>2.0</ele><time>2026-03-29T14:58:01.273Z</time></trkpt><trkpt lat="40.637916" lon="9.7133779"><ele>1.6666666666666665</ele><time>2026-03-29T14:58:02.27Z</time></trkpt><trkpt lat="40.6381305" lon="9.7133033"><ele>1.3333333333333333</ele><time>2026-03-29T14:58:03.267Z</time></trkpt><trkpt lat="40.6383471" lon="9.7132293"><ele>1.0</ele><time>2026-03-29T14:58:04.285Z</time></trkpt><trkpt lat="40.6385649" lon="9.7131594"><ele>0.6666666666666666</ele><time>2026-03-29T14:58:05.267Z</time></trkpt><trkpt lat="40.6387862" lon="9.7130968"><ele>0.3333333333333333</ele><time>2026-03-29T14:58:06.264Z</time></trkpt><trkpt lat="40.6390003" lon="9.7130391"><ele>0.0</ele><time>2026-03-29T14:58:07.269Z</time></trkpt><trkpt lat="40.6392065" lon="9.7129806"><ele>0.0</ele><time>2026-03-29T14:58:08.265Z</time></trkpt><trkpt lat="40.639407" lon="9.7129203"><ele>0.0</ele><time>2026-03-29T14:58:09.285Z</time></trkpt><trkpt lat="40.6395985" lon="9.7128615"><ele>0.0</ele><time>2026-03-29T14:58:10.271Z</time></trkpt><trkpt lat="40.6397849" lon="9.7128035"><ele>0.0</ele><time>2026-03-29T14:58:11.261Z</time></trkpt><trkpt lat="40.639971" lon="9.7127438"><ele>0.0</ele><time>2026-03-29T14:58:12.264Z</time></trkpt><trkpt lat="40.6401567" lon="9.7126865"><ele>0.0</ele><time>2026-03-29T14:58:13.267Z</time></trkpt><trkpt lat="40.6403411" lon="9.7126249"><ele>1.3333333333333333</ele><time>2026-03-29T14:58:14.297Z</time></trkpt><trkpt lat="40.6405293" lon="9.712565"><ele>2.6666666666666665</ele><time>2026-03-29T14:58:15.267Z</time></trkpt><trkpt lat="40.6407191" lon="9.712504"><ele>4.0</ele><time>2026-03-29T14:58:16.264Z</time></trkpt><trkpt lat="40.6409094" lon="9.7124449"><ele>4.0</ele><time>2026-03-29T14:58:17.268Z</time></trkpt><trkpt lat="40.6410955" lon="9.7123855"><ele>4.0</ele><time>2026-03-29T14:58:18.272Z</time></trkpt><trkpt lat="40.6412757" lon="9.712329"><ele>4.0</ele><time>2026-03-29T14:58:19.286Z</time></trkpt><trkpt lat="40.6414534" lon="9.712273"><ele>3.0</ele><time>2026-03-29T14:58:20.265Z</time></trkpt><trkpt lat="40.6416306" lon="9.7122162"><ele>2.0</ele><time>2026-03-29T14:58:21.263Z</time></trkpt><trkpt lat="40.6418104" lon="9.7121586"><ele>1.0</ele><time>2026-03-29T14:58:22.262Z</time></trkpt><trkpt lat="40.6419943" lon="9.7121"><ele>0.6666666666666666</ele><time>2026-03-29T14:58:23.265Z</time></trkpt><trkpt lat="40.6421839" lon="9.7120407"><ele>0.3333333333333333</ele><time>2026-03-29T14:58:24.269Z</time></trkpt><trkpt lat="40.6423742" lon="9.7119872"><ele>0.0</ele><time>2026-03-29T14:58:25.267Z</time></trkpt><trkpt lat="40.642559" lon="9.7119205"><ele>0.0</ele><time>2026-03-29T14:58:26.268Z</time></trkpt><trkpt lat="40.6427472" lon="9.7118598"><ele>0.0</ele><time>2026-03-29T14:58:27.263Z</time></trkpt><trkpt lat="40.6429334" lon="9.7118006"><ele>0.0</ele><time>2026-03-29T14:58:28.284Z</time></trkpt><trkpt lat="40.6431189" lon="9.7117438"><ele>0.6666666666666666</ele><time>2026-03-29T14:58:29.265Z</time></trkpt><trkpt lat="40.6433017" lon="9.7116848"><ele>1.3333333333333333</ele><time>2026-03-29T14:58:30.267Z</time></trkpt><trkpt lat="40.6434782" lon="9.7116284"><ele>2.0</ele><time>2026-03-29T14:58:31.266Z</time></trkpt><trkpt lat="40.6436475" lon="9.7115739"><ele>2.333333333333333</ele><time>2026-03-29T14:58:32.266Z</time></trkpt><trkpt lat="40.6438162" lon="9.7115268"><ele>2.6666666666666665</ele><time>2026-03-29T14:58:33.29Z</time></trkpt><trkpt lat="40.6439847" lon="9.7114885"><ele>3.0</ele><time>2026-03-29T14:58:34.266Z</time></trkpt><trkpt lat="40.6441501" lon="9.7114598"><ele>3.0</ele><time>2026-03-29T14:58:35.264Z</time></trkpt><trkpt lat="40.6443071" lon="9.7114405"><ele>3.0</ele><time>2026-03-29T14:58:36.261Z</time></trkpt><trkpt lat="40.6444557" lon="9.7114608"><ele>3.0</ele><time>2026-03-29T14:58:37.272Z</time></trkpt><trkpt lat="40.644598" lon="9.7115186"><ele>3.666666666666667</ele><time>2026-03-29T14:58:38.265Z</time></trkpt><trkpt lat="40.6447332" lon="9.7116195"><ele>4.333333333333334</ele><time>2026-03-29T14:58:39.264Z</time></trkpt><trkpt lat="40.6448605" lon="9.7117595"><ele>5.0</ele><time>2026-03-29T14:58:40.291Z</time></trkpt><trkpt lat="40.6449848" lon="9.7119266"><ele>5.0</ele><time>2026-03-29T14:58:41.265Z</time></trkpt><trkpt lat="40.6451125" lon="9.7121027"><ele>5.0</ele><time>2026-03-29T14:58:42.27Z</time></trkpt><trkpt lat="40.6452436" lon="9.7122764"><ele>5.0</ele><time>2026-03-29T14:58:43.268Z</time></trkpt><trkpt lat="40.6453777" lon="9.7124568"><ele>4.666666666666667</ele><time>2026-03-29T14:58:44.268Z</time></trkpt><trkpt lat="40.6455098" lon="9.7126381"><ele>4.333333333333333</ele><time>2026-03-29T14:58:45.262Z</time></trkpt><trkpt lat="40.6456479" lon="9.7128228"><ele>4.0</ele><time>2026-03-29T14:58:46.26Z</time></trkpt><trkpt lat="40.6457864" lon="9.7130078"><ele>4.0</ele><time>2026-03-29T14:58:47.262Z</time></trkpt><trkpt lat="40.6459266" lon="9.7131925"><ele>4.0</ele><time>2026-03-29T14:58:48.268Z</time></trkpt><trkpt lat="40.6460646" lon="9.7133809"><ele>4.0</ele><time>2026-03-29T14:58:49.272Z</time></trkpt><trkpt lat="40.6461996" lon="9.7135775"><ele>4.666666666666666</ele><time>2026-03-29T14:58:50.269Z</time></trkpt><trkpt lat="40.6463238" lon="9.7137859"><ele>5.333333333333333</ele><time>2026-03-29T14:58:51.277Z</time></trkpt><trkpt lat="40.6464393" lon="9.7140139"><ele>6.0</ele><time>2026-03-29T14:58:52.266Z</time></trkpt><trkpt lat="40.6465475" lon="9.7142574"><ele>4.5</ele><time>2026-03-29T14:58:53.264Z</time></trkpt><trkpt lat="40.6466698" lon="9.7145192"><ele>3.0</ele><time>2026-03-29T14:58:54.262Z</time></trkpt><trkpt lat="40.6467782" lon="9.7147699"><ele>3.0</ele><time>2026-03-29T14:58:55.264Z</time></trkpt><trkpt lat="40.6468891" lon="9.7150174"><ele>3.0</ele><time>2026-03-29T14:58:56.287Z</time></trkpt><trkpt lat="40.6469934" lon="9.7152577"><ele>3.0</ele><time>2026-03-29T14:58:57.261Z</time></trkpt><trkpt lat="40.6470889" lon="9.7154919"><ele>3.0</ele><time>2026-03-29T14:58:58.27Z</time></trkpt><trkpt lat="40.6471737" lon="9.7157267"><ele>3.0</ele><time>2026-03-29T14:58:59.266Z</time></trkpt><trkpt lat="40.6472669" lon="9.7159555"><ele>3.0</ele><time>2026-03-29T14:59:00.266Z</time></trkpt><trkpt lat="40.6473662" lon="9.7161795"><ele>3.0</ele><time>2026-03-29T14:59:01.261Z</time></trkpt><trkpt lat="40.6474589" lon="9.7163991"><ele>3.0</ele><time>2026-03-29T14:59:02.27Z</time></trkpt><trkpt lat="40.6475513" lon="9.7166248"><ele>3.0</ele><time>2026-03-29T14:59:03.276Z</time></trkpt><trkpt lat="40.6476459" lon="9.7168464"><ele>3.0</ele><time>2026-03-29T14:59:04.266Z</time></trkpt><trkpt lat="40.6477414" lon="9.7170663"><ele>3.0</ele><time>2026-03-29T14:59:05.265Z</time></trkpt><trkpt lat="40.6478376" lon="9.7172861"><ele>3.0</ele><time>2026-03-29T14:59:06.265Z</time></trkpt><trkpt lat="40.6479311" lon="9.7175146"><ele>4.0</ele><time>2026-03-29T14:59:07.271Z</time></trkpt><trkpt lat="40.6480257" lon="9.7177426"><ele>5.0</ele><time>2026-03-29T14:59:08.261Z</time></trkpt><trkpt lat="40.6481252" lon="9.7179691"><ele>6.0</ele><time>2026-03-29T14:59:09.267Z</time></trkpt><trkpt lat="40.6482256" lon="9.7182042"><ele>6.0</ele><time>2026-03-29T14:59:10.271Z</time></trkpt><trkpt lat="40.6483235" lon="9.7184355"><ele>6.0</ele><time>2026-03-29T14:59:11.264Z</time></trkpt><trkpt lat="40.6484231" lon="9.7186668"><ele>6.0</ele><time>2026-03-29T14:59:12.297Z</time></trkpt><trkpt lat="40.648521" lon="9.7188976"><ele>6.0</ele><time>2026-03-29T14:59:13.264Z</time></trkpt><trkpt lat="40.6486184" lon="9.7191264"><ele>6.0</ele><time>2026-03-29T14:59:14.265Z</time></trkpt><trkpt lat="40.6487179" lon="9.7193539"><ele>6.0</ele><time>2026-03-29T14:59:15.263Z</time></trkpt><trkpt lat="40.648818" lon="9.7195794"><ele>6.0</ele><time>2026-03-29T14:59:16.263Z</time></trkpt><trkpt lat="40.6489211" lon="9.7198031"><ele>6.0</ele><time>2026-03-29T14:59:17.268Z</time></trkpt><trkpt lat="40.6490259" lon="9.7200275"><ele>6.0</ele><time>2026-03-29T14:59:18.263Z</time></trkpt><trkpt lat="40.6491304" lon="9.7202547"><ele>5.0</ele><time>2026-03-29T14:59:19.265Z</time></trkpt><trkpt lat="40.6492366" lon="9.7204847"><ele>4.0</ele><time>2026-03-29T14:59:20.268Z</time></trkpt><trkpt lat="40.6493426" lon="9.720716"><ele>3.0</ele><time>2026-03-29T14:59:21.266Z</time></trkpt><trkpt lat="40.6494516" lon="9.7209503"><ele>4.0</ele><time>2026-03-29T14:59:22.265Z</time></trkpt><trkpt lat="40.6495594" lon="9.7211859"><ele>5.0</ele><time>2026-03-29T14:59:23.265Z</time></trkpt><trkpt lat="40.6496678" lon="9.7214223"><ele>6.0</ele><time>2026-03-29T14:59:24.259Z</time></trkpt><trkpt lat="40.6497779" lon="9.7216608"><ele>5.666666666666667</ele><time>2026-03-29T14:59:25.288Z</time></trkpt><trkpt lat="40.6498892" lon="9.721901"><ele>5.333333333333334</ele><time>2026-03-29T14:59:26.259Z</time></trkpt><trkpt lat="40.6499999" lon="9.7221394"><ele>5.0</ele><time>2026-03-29T14:59:27.268Z</time></trkpt><trkpt lat="40.6501102" lon="9.7223761"><ele>5.0</ele><time>2026-03-29T14:59:28.268Z</time></trkpt><trkpt lat="40.6502184" lon="9.7226112"><ele>5.0</ele><time>2026-03-29T14:59:29.265Z</time></trkpt><trkpt lat="40.6503263" lon="9.7228439"><ele>5.0</ele><time>2026-03-29T14:59:30.268Z</time></trkpt><trkpt lat="40.6504331" lon="9.7230754"><ele>5.0</ele><time>2026-03-29T14:59:31.265Z</time></trkpt><trkpt lat="40.6505359" lon="9.7232997"><ele>5.0</ele><time>2026-03-29T14:59:32.261Z</time></trkpt><trkpt lat="40.6506318" lon="9.7235083"><ele>5.0</ele><time>2026-03-29T14:59:33.28Z</time></trkpt><trkpt lat="40.6507247" lon="9.7236989"><ele>4.333333333333334</ele><time>2026-03-29T14:59:34.261Z</time></trkpt><trkpt lat="40.6508345" lon="9.7238814"><ele>3.666666666666667</ele><time>2026-03-29T14:59:35.264Z</time></trkpt><trkpt lat="40.650967" lon="9.7240224"><ele>3.0</ele><time>2026-03-29T14:59:36.266Z</time></trkpt><trkpt lat="40.6511012" lon="9.7241636"><ele>2.6666666666666665</ele><time>2026-03-29T14:59:37.26Z</time></trkpt><trkpt lat="40.6512764" lon="9.7242377"><ele>2.333333333333333</ele><time>2026-03-29T14:59:38.267Z</time></trkpt><trkpt lat="40.6514582" lon="9.7243069"><ele>2.0</ele><time>2026-03-29T14:59:39.266Z</time></trkpt><trkpt lat="40.6516486" lon="9.7243725"><ele>1.3333333333333333</ele><time>2026-03-29T14:59:40.26Z</time></trkpt><trkpt lat="40.6518478" lon="9.7244426"><ele>0.6666666666666666</ele><time>2026-03-29T14:59:41.302Z</time></trkpt><trkpt lat="40.6520482" lon="9.7245148"><ele>0.0</ele><time>2026-03-29T14:59:42.259Z</time></trkpt><trkpt lat="40.6522501" lon="9.7245841"><ele>0.0</ele><time>2026-03-29T14:59:43.261Z</time></trkpt><trkpt lat="40.6524529" lon="9.72465"><ele>0.0</ele><time>2026-03-29T14:59:44.264Z</time></trkpt><trkpt lat="40.6526512" lon="9.7247208"><ele>0.0</ele><time>2026-03-29T14:59:45.268Z</time></trkpt><trkpt lat="40.6528383" lon="9.7247973"><ele>1.0</ele><time>2026-03-29T14:59:46.261Z</time></trkpt><trkpt lat="40.6530142" lon="9.7248737"><ele>2.0</ele><time>2026-03-29T14:59:47.283Z</time></trkpt><trkpt lat="40.6531732" lon="9.7249384"><ele>3.0</ele><time>2026-03-29T14:59:48.266Z</time></trkpt><trkpt lat="40.6533203" lon="9.724997"><ele>3.0</ele><time>2026-03-29T14:59:49.269Z</time></trkpt><trkpt lat="40.6534593" lon="9.7250512"><ele>3.0</ele><time>2026-03-29T14:59:50.263Z</time></trkpt><trkpt lat="40.6536005" lon="9.7251062"><ele>3.0</ele><time>2026-03-29T14:59:51.266Z</time></trkpt><trkpt lat="40.6537468" lon="9.7251664"><ele>3.0</ele><time>2026-03-29T14:59:52.266Z</time></trkpt><trkpt lat="40.6538865" lon="9.7252426"><ele>2.6666666666666665</ele><time>2026-03-29T14:59:53.271Z</time></trkpt><trkpt lat="40.6540104" lon="9.7253449"><ele>2.333333333333333</ele><time>2026-03-29T14:59:54.266Z</time></trkpt><trkpt lat="40.6541279" lon="9.7254487"><ele>2.0</ele><time>2026-03-29T14:59:55.263Z</time></trkpt><trkpt lat="40.6542284" lon="9.7256193"><ele>2.0</ele><time>2026-03-29T14:59:56.26Z</time></trkpt><trkpt lat="40.6543236" lon="9.7258097"><ele>2.0</ele><time>2026-03-29T14:59:57.266Z</time></trkpt><trkpt lat="40.6544127" lon="9.726011"><ele>2.0</ele><time>2026-03-29T14:59:58.265Z</time></trkpt><trkpt lat="40.6545099" lon="9.7262073"><ele>1.6666666666666665</ele><time>2026-03-29T14:59:59.266Z</time></trkpt><trkpt lat="40.6546066" lon="9.7264144"><ele>1.3333333333333333</ele><time>2026-03-29T15:00:00.283Z</time></trkpt><trkpt lat="40.6547086" lon="9.7266362"><ele>1.0</ele><time>2026-03-29T15:00:01.263Z</time></trkpt><trkpt lat="40.6548151" lon="9.7268575"><ele>1.0</ele><time>2026-03-29T15:00:02.266Z</time></trkpt><trkpt lat="40.6549243" lon="9.7270774"><ele>1.0</ele><time>2026-03-29T15:00:03.264Z</time></trkpt><trkpt lat="40.6550366" lon="9.7273109"><ele>1.0</ele><time>2026-03-29T15:00:04.264Z</time></trkpt><trkpt lat="40.6551502" lon="9.7275462"><ele>1.0</ele><time>2026-03-29T15:00:05.285Z</time></trkpt><trkpt lat="40.6552676" lon="9.7277828"><ele>1.0</ele><time>2026-03-29T15:00:06.266Z</time></trkpt><trkpt lat="40.6553801" lon="9.7280171"><ele>1.0</ele><time>2026-03-29T15:00:07.264Z</time></trkpt><trkpt lat="40.6554887" lon="9.7282472"><ele>1.0</ele><time>2026-03-29T15:00:08.261Z</time></trkpt><trkpt lat="40.6555961" lon="9.7284731"><ele>1.0</ele><time>2026-03-29T15:00:09.268Z</time></trkpt><trkpt lat="40.6557028" lon="9.7286975"><ele>1.0</ele><time>2026-03-29T15:00:10.272Z</time></trkpt><trkpt lat="40.6558071" lon="9.728918"><ele>1.0</ele><time>2026-03-29T15:00:11.265Z</time></trkpt><trkpt lat="40.6559099" lon="9.7291328"><ele>1.0</ele><time>2026-03-29T15:00:12.267Z</time></trkpt><trkpt lat="40.6560084" lon="9.7293403"><ele>1.0</ele><time>2026-03-29T15:00:13.268Z</time></trkpt><trkpt lat="40.6561032" lon="9.7295363"><ele>1.0</ele><time>2026-03-29T15:00:14.265Z</time></trkpt><trkpt lat="40.6561959" lon="9.7297285"><ele>1.0</ele><time>2026-03-29T15:00:15.267Z</time></trkpt><trkpt lat="40.6562877" lon="9.7299168"><ele>1.0</ele><time>2026-03-29T15:00:16.267Z</time></trkpt><trkpt lat="40.6563784" lon="9.7301037"><ele>1.0</ele><time>2026-03-29T15:00:17.264Z</time></trkpt><trkpt lat="40.6564712" lon="9.7302957"><ele>1.0</ele><time>2026-03-29T15:00:18.267Z</time></trkpt><trkpt lat="40.6565691" lon="9.7304974"><ele>1.0</ele><time>2026-03-29T15:00:19.266Z</time></trkpt><trkpt lat="40.6566691" lon="9.7307047"><ele>1.0</ele><time>2026-03-29T15:00:20.279Z</time></trkpt><trkpt lat="40.6567699" lon="9.7309156"><ele>1.0</ele><time>2026-03-29T15:00:21.265Z</time></trkpt><trkpt lat="40.656865" lon="9.7311153"><ele>1.0</ele><time>2026-03-29T15:00:22.268Z</time></trkpt><trkpt lat="40.6569542" lon="9.731303"><ele>2.0</ele><time>2026-03-29T15:00:23.269Z</time></trkpt><trkpt lat="40.6570424" lon="9.73149"><ele>3.0</ele><time>2026-03-29T15:00:24.262Z</time></trkpt><trkpt lat="40.6571299" lon="9.7316771"><ele>4.0</ele><time>2026-03-29T15:00:25.286Z</time></trkpt><trkpt lat="40.6572176" lon="9.7318641"><ele>4.5</ele><time>2026-03-29T15:00:26.265Z</time></trkpt><trkpt lat="40.657302" lon="9.7320383"><ele>5.0</ele><time>2026-03-29T15:00:27.264Z</time></trkpt><trkpt lat="40.6573794" lon="9.7321985"><ele>5.5</ele><time>2026-03-29T15:00:28.263Z</time></trkpt><trkpt lat="40.6574449" lon="9.732339"><ele>6.0</ele><time>2026-03-29T15:00:29.266Z</time></trkpt><trkpt lat="40.6574971" lon="9.7324535"><ele>6.0</ele><time>2026-03-29T15:00:30.265Z</time></trkpt><trkpt lat="40.6575389" lon="9.732549"><ele>6.0</ele><time>2026-03-29T15:00:31.269Z</time></trkpt><trkpt lat="40.6575563" lon="9.732632"><ele>6.0</ele><time>2026-03-29T15:00:32.266Z</time></trkpt><trkpt lat="40.6575179" lon="9.7327487"><ele>6.0</ele><time>2026-03-29T15:00:33.268Z</time></trkpt><trkpt lat="40.6574785" lon="9.7328931"><ele>6.0</ele><time>2026-03-29T15:00:34.282Z</time></trkpt><trkpt lat="40.6574154" lon="9.7330634"><ele>5.75</ele><time>2026-03-29T15:00:35.271Z</time></trkpt><trkpt lat="40.6573575" lon="9.7332282"><ele>5.5</ele><time>2026-03-29T15:00:36.268Z</time></trkpt><trkpt lat="40.6572996" lon="9.7333889"><ele>5.25</ele><time>2026-03-29T15:00:37.263Z</time></trkpt><trkpt lat="40.6572352" lon="9.7335489"><ele>5.0</ele><time>2026-03-29T15:00:38.265Z</time></trkpt><trkpt lat="40.6571544" lon="9.733698"><ele>4.666666666666667</ele><time>2026-03-29T15:00:39.282Z</time></trkpt><trkpt lat="40.6570538" lon="9.7338372"><ele>4.333333333333333</ele><time>2026-03-29T15:00:40.269Z</time></trkpt><trkpt lat="40.6569318" lon="9.73397"><ele>4.0</ele><time>2026-03-29T15:00:41.27Z</time></trkpt><trkpt lat="40.6567956" lon="9.7341014"><ele>4.0</ele><time>2026-03-29T15:00:42.271Z</time></trkpt><trkpt lat="40.656643" lon="9.7342508"><ele>4.0</ele><time>2026-03-29T15:00:43.272Z</time></trkpt><trkpt lat="40.6564716" lon="9.7344218"><ele>4.0</ele><time>2026-03-29T15:00:44.262Z</time></trkpt><trkpt lat="40.6562796" lon="9.7346129"><ele>2.0</ele><time>2026-03-29T15:00:45.284Z</time></trkpt><trkpt lat="40.6560716" lon="9.7348206"><ele>0.0</ele><time>2026-03-29T15:00:46.266Z</time></trkpt><trkpt lat="40.6558746" lon="9.7350169"><ele>0.0</ele><time>2026-03-29T15:00:47.271Z</time></trkpt><trkpt lat="40.6556936" lon="9.7351955"><ele>0.0</ele><time>2026-03-29T15:00:48.268Z</time></trkpt><trkpt lat="40.6555278" lon="9.735357"><ele>0.0</ele><time>2026-03-29T15:00:49.265Z</time></trkpt><trkpt lat="40.6553755" lon="9.7355065"><ele>-0.3333333333333333</ele><time>2026-03-29T15:00:50.266Z</time></trkpt><trkpt lat="40.6552364" lon="9.7356441"><ele>-0.6666666666666666</ele><time>2026-03-29T15:00:51.27Z</time></trkpt><trkpt lat="40.6551012" lon="9.7357738"><ele>-1.0</ele><time>2026-03-29T15:00:52.265Z</time></trkpt><trkpt lat="40.6549616" lon="9.7359042"><ele>-1.0</ele><time>2026-03-29T15:00:53.319Z</time></trkpt><trkpt lat="40.6548199" lon="9.7360206"><ele>-1.0</ele><time>2026-03-29T15:00:54.262Z</time></trkpt><trkpt lat="40.6546736" lon="9.7361122"><ele>-1.0</ele><time>2026-03-29T15:00:55.267Z</time></trkpt><trkpt lat="40.6545307" lon="9.7361818"><ele>-0.6666666666666666</ele><time>2026-03-29T15:00:56.269Z</time></trkpt><trkpt lat="40.6543802" lon="9.7362496"><ele>-0.3333333333333333</ele><time>2026-03-29T15:00:57.27Z</time></trkpt><trkpt lat="40.6542322" lon="9.736316"><ele>0.0</ele><time>2026-03-29T15:00:58.265Z</time></trkpt><trkpt lat="40.6540987" lon="9.7363755"><ele>0.0</ele><time>2026-03-29T15:00:59.27Z</time></trkpt><trkpt lat="40.653972" lon="9.7364254"><ele>0.0</ele><time>2026-03-29T15:01:00.261Z</time></trkpt><trkpt lat="40.6538592" lon="9.7364814"><ele>0.0</ele><time>2026-03-29T15:01:01.268Z</time></trkpt><trkpt lat="40.6537685" lon="9.7365474"><ele>0.0</ele><time>2026-03-29T15:01:02.272Z</time></trkpt><trkpt lat="40.6536907" lon="9.7366321"><ele>0.0</ele><time>2026-03-29T15:01:03.267Z</time></trkpt><trkpt lat="40.6536172" lon="9.7367279"><ele>0.0</ele><time>2026-03-29T15:01:04.275Z</time></trkpt><trkpt lat="40.6535558" lon="9.7368319"><ele>0.0</ele><time>2026-03-29T15:01:05.294Z</time></trkpt><trkpt lat="40.6534991" lon="9.7369471"><ele>0.0</ele><time>2026-03-29T15:01:06.265Z</time></trkpt><trkpt lat="40.6534372" lon="9.7370847"><ele>0.0</ele><time>2026-03-29T15:01:07.266Z</time></trkpt><trkpt lat="40.6533629" lon="9.7372477"><ele>0.0</ele><time>2026-03-29T15:01:08.267Z</time></trkpt><trkpt lat="40.6532827" lon="9.7374304"><ele>0.0</ele><time>2026-03-29T15:01:09.276Z</time></trkpt><trkpt lat="40.6531994" lon="9.7376257"><ele>0.0</ele><time>2026-03-29T15:01:10.268Z</time></trkpt><trkpt lat="40.6531169" lon="9.7378324"><ele>0.3333333333333333</ele><time>2026-03-29T15:01:11.267Z</time></trkpt><trkpt lat="40.6530345" lon="9.7380459"><ele>0.6666666666666666</ele><time>2026-03-29T15:01:12.29Z</time></trkpt><trkpt lat="40.6529544" lon="9.7382649"><ele>1.0</ele><time>2026-03-29T15:01:13.277Z</time></trkpt><trkpt lat="40.6528783" lon="9.7384919"><ele>1.0</ele><time>2026-03-29T15:01:14.272Z</time></trkpt><trkpt lat="40.6528043" lon="9.7387215"><ele>1.0</ele><time>2026-03-29T15:01:15.269Z</time></trkpt><trkpt lat="40.6527312" lon="9.7389489"><ele>1.0</ele><time>2026-03-29T15:01:16.272Z</time></trkpt><trkpt lat="40.6526569" lon="9.7391755"><ele>1.0</ele><time>2026-03-29T15:01:17.265Z</time></trkpt><trkpt lat="40.6525813" lon="9.7393996"><ele>1.0</ele><time>2026-03-29T15:01:18.271Z</time></trkpt><trkpt lat="40.6525102" lon="9.7396118"><ele>1.0</ele><time>2026-03-29T15:01:19.266Z</time></trkpt><trkpt lat="40.6524468" lon="9.7398126"><ele>1.0</ele><time>2026-03-29T15:01:20.262Z</time></trkpt><trkpt lat="40.6523932" lon="9.7399961"><ele>1.0</ele><time>2026-03-29T15:01:21.263Z</time></trkpt><trkpt lat="40.6523474" lon="9.7401639"><ele>1.0</ele><time>2026-03-29T15:01:22.263Z</time></trkpt><trkpt lat="40.6523092" lon="9.740311"><ele>1.0</ele><time>2026-03-29T15:01:23.266Z</time></trkpt><trkpt lat="40.6522805" lon="9.7404335"><ele>1.3333333333333333</ele><time>2026-03-29T15:01:24.271Z</time></trkpt><trkpt lat="40.6522571" lon="9.7405296"><ele>1.6666666666666665</ele><time>2026-03-29T15:01:25.288Z</time></trkpt><trkpt lat="40.652238" lon="9.7406655"><ele>2.0</ele><time>2026-03-29T15:01:27.275Z</time></trkpt><trkpt lat="40.6522829" lon="9.7407752"><ele>2.3333333333333335</ele><time>2026-03-29T15:01:29.267Z</time></trkpt><trkpt lat="40.6523415" lon="9.7408259"><ele>2.6666666666666665</ele><time>2026-03-29T15:01:30.265Z</time></trkpt><trkpt lat="40.6524174" lon="9.7408644"><ele>3.0</ele><time>2026-03-29T15:01:31.267Z</time></trkpt><trkpt lat="40.6525068" lon="9.7408808"><ele>3.0</ele><time>2026-03-29T15:01:32.292Z</time></trkpt><trkpt lat="40.6526045" lon="9.7409051"><ele>3.0</ele><time>2026-03-29T15:01:33.274Z</time></trkpt><trkpt lat="40.6527092" lon="9.7409235"><ele>3.0</ele><time>2026-03-29T15:01:34.268Z</time></trkpt><trkpt lat="40.6528299" lon="9.7409691"><ele>3.0</ele><time>2026-03-29T15:01:35.271Z</time></trkpt><trkpt lat="40.6529476" lon="9.741005"><ele>4.0</ele><time>2026-03-29T15:01:36.27Z</time></trkpt><trkpt lat="40.653069" lon="9.7410574"><ele>5.0</ele><time>2026-03-29T15:01:37.269Z</time></trkpt><trkpt lat="40.6532002" lon="9.7410978"><ele>6.0</ele><time>2026-03-29T15:01:38.274Z</time></trkpt><trkpt lat="40.6533482" lon="9.7411479"><ele>7.0</ele><time>2026-03-29T15:01:39.269Z</time></trkpt><trkpt lat="40.6534966" lon="9.7411755"><ele>9.5</ele><time>2026-03-29T15:01:40.269Z</time></trkpt><trkpt lat="40.6536374" lon="9.7412147"><ele>12.0</ele><time>2026-03-29T15:01:41.265Z</time></trkpt><trkpt lat="40.6537637" lon="9.7412453"><ele>14.5</ele><time>2026-03-29T15:01:42.268Z</time></trkpt><trkpt lat="40.6538932" lon="9.7412679"><ele>17.0</ele><time>2026-03-29T15:01:43.291Z</time></trkpt><trkpt lat="40.6540004" lon="9.7412879"><ele>17.0</ele><time>2026-03-29T15:01:44.271Z</time></trkpt><trkpt lat="40.6540894" lon="9.7413184"><ele>17.0</ele><time>2026-03-29T15:01:45.268Z</time></trkpt><trkpt lat="40.6541683" lon="9.7413426"><ele>17.0</ele><time>2026-03-29T15:01:46.263Z</time></trkpt><trkpt lat="40.6542395" lon="9.7413899"><ele>17.0</ele><time>2026-03-29T15:01:47.263Z</time></trkpt><trkpt lat="40.6543203" lon="9.7414102"><ele>17.0</ele><time>2026-03-29T15:01:48.301Z</time></trkpt><trkpt lat="40.6544499" lon="9.7414389"><ele>20.4</ele><time>2026-03-29T15:01:50.269Z</time></trkpt><trkpt lat="40.6544968" lon="9.7414994"><ele>23.799999999999997</ele><time>2026-03-29T15:01:51.266Z</time></trkpt><trkpt lat="40.6545257" lon="9.7415806"><ele>27.2</ele><time>2026-03-29T15:01:52.266Z</time></trkpt><trkpt lat="40.6545239" lon="9.7417026"><ele>30.599999999999998</ele><time>2026-03-29T15:01:53.266Z</time></trkpt><trkpt lat="40.6545235" lon="9.7418595"><ele>34.0</ele><time>2026-03-29T15:01:54.265Z</time></trkpt><trkpt lat="40.6545365" lon="9.7420219"><ele>34.0</ele><time>2026-03-29T15:01:55.269Z</time></trkpt><trkpt lat="40.654542" lon="9.742179"><ele>34.0</ele><time>2026-03-29T15:01:56.265Z</time></trkpt><trkpt lat="40.6545597" lon="9.7423358"><ele>34.0</ele><time>2026-03-29T15:01:57.262Z</time></trkpt><trkpt lat="40.6545803" lon="9.7424842"><ele>34.0</ele><time>2026-03-29T15:01:58.264Z</time></trkpt><trkpt lat="40.6546002" lon="9.7426281"><ele>32.6</ele><time>2026-03-29T15:01:59.265Z</time></trkpt><trkpt lat="40.6546174" lon="9.7427701"><ele>31.2</ele><time>2026-03-29T15:02:00.258Z</time></trkpt><trkpt lat="40.6546427" lon="9.7429025"><ele>29.800000000000004</ele><time>2026-03-29T15:02:01.278Z</time></trkpt><trkpt lat="40.6546789" lon="9.7430388"><ele>28.400000000000002</ele><time>2026-03-29T15:02:02.266Z</time></trkpt><trkpt lat="40.6547274" lon="9.7431788"><ele>27.0</ele><time>2026-03-29T15:02:03.265Z</time></trkpt><trkpt lat="40.6547803" lon="9.743313"><ele>27.0</ele><time>2026-03-29T15:02:04.257Z</time></trkpt><trkpt lat="40.6548303" lon="9.7434429"><ele>27.0</ele><time>2026-03-29T15:02:05.258Z</time></trkpt><trkpt lat="40.6548795" lon="9.7435765"><ele>27.0</ele><time>2026-03-29T15:02:06.263Z</time></trkpt><trkpt lat="40.6549253" lon="9.7437216"><ele>27.0</ele><time>2026-03-29T15:02:07.264Z</time></trkpt><trkpt lat="40.6549774" lon="9.743871"><ele>25.5</ele><time>2026-03-29T15:02:08.277Z</time></trkpt><trkpt lat="40.6550262" lon="9.7440169"><ele>24.0</ele><time>2026-03-29T15:02:09.261Z</time></trkpt><trkpt lat="40.6550695" lon="9.7441543"><ele>22.5</ele><time>2026-03-29T15:02:10.259Z</time></trkpt><trkpt lat="40.6551022" lon="9.7443043"><ele>21.0</ele><time>2026-03-29T15:02:11.265Z</time></trkpt><trkpt lat="40.6551225" lon="9.7444532"><ele>20.0</ele><time>2026-03-29T15:02:12.258Z</time></trkpt><trkpt lat="40.6551335" lon="9.7446043"><ele>19.0</ele><time>2026-03-29T15:02:13.262Z</time></trkpt><trkpt lat="40.6551397" lon="9.7447628"><ele>18.0</ele><time>2026-03-29T15:02:14.27Z</time></trkpt><trkpt lat="40.6551436" lon="9.7449131"><ele>17.0</ele><time>2026-03-29T15:02:15.262Z</time></trkpt><trkpt lat="40.6551448" lon="9.7450604"><ele>17.0</ele><time>2026-03-29T15:02:16.283Z</time></trkpt><trkpt lat="40.6551463" lon="9.7452055"><ele>17.0</ele><time>2026-03-29T15:02:17.26Z</time></trkpt><trkpt lat="40.6551515" lon="9.7453434"><ele>17.0</ele><time>2026-03-29T15:02:18.259Z</time></trkpt><trkpt lat="40.6551747" lon="9.7454707"><ele>17.0</ele><time>2026-03-29T15:02:19.268Z</time></trkpt><trkpt lat="40.6552178" lon="9.7455919"><ele>17.0</ele><time>2026-03-29T15:02:20.26Z</time></trkpt><trkpt lat="40.6552723" lon="9.7457193"><ele>16.6</ele><time>2026-03-29T15:02:21.261Z</time></trkpt><trkpt lat="40.6553348" lon="9.7458425"><ele>16.2</ele><time>2026-03-29T15:02:22.259Z</time></trkpt><trkpt lat="40.6553976" lon="9.7459488"><ele>15.8</ele><time>2026-03-29T15:02:23.266Z</time></trkpt><trkpt lat="40.655464" lon="9.746046"><ele>15.4</ele><time>2026-03-29T15:02:24.269Z</time></trkpt><trkpt lat="40.6555199" lon="9.7461534"><ele>15.0</ele><time>2026-03-29T15:02:25.268Z</time></trkpt><trkpt lat="40.6555667" lon="9.7462636"><ele>15.0</ele><time>2026-03-29T15:02:26.286Z</time></trkpt><trkpt lat="40.6556183" lon="9.7463618"><ele>15.0</ele><time>2026-03-29T15:02:27.266Z</time></trkpt><trkpt lat="40.6556771" lon="9.7464572"><ele>15.0</ele><time>2026-03-29T15:02:28.269Z</time></trkpt><trkpt lat="40.6557472" lon="9.7465486"><ele>15.0</ele><time>2026-03-29T15:02:29.261Z</time></trkpt><trkpt lat="40.6558239" lon="9.7465993"><ele>15.0</ele><time>2026-03-29T15:02:30.263Z</time></trkpt><trkpt lat="40.655921" lon="9.7466571"><ele>15.0</ele><time>2026-03-29T15:02:32.262Z</time></trkpt><trkpt lat="40.6558911" lon="9.7467765"><ele>15.0</ele><time>2026-03-29T15:02:35.267Z</time></trkpt><trkpt lat="40.6558302" lon="9.7468089"><ele>15.0</ele><time>2026-03-29T15:02:36.266Z</time></trkpt><trkpt lat="40.6557422" lon="9.7468425"><ele>15.0</ele><time>2026-03-29T15:02:37.269Z</time></trkpt><trkpt lat="40.6556379" lon="9.7468849"><ele>15.0</ele><time>2026-03-29T15:02:38.264Z</time></trkpt><trkpt lat="40.6555579" lon="9.7469547"><ele>13.8</ele><time>2026-03-29T15:02:39.267Z</time></trkpt><trkpt lat="40.6554856" lon="9.7470168"><ele>12.6</ele><time>2026-03-29T15:02:40.261Z</time></trkpt><trkpt lat="40.6554139" lon="9.7470731"><ele>11.4</ele><time>2026-03-29T15:02:41.269Z</time></trkpt><trkpt lat="40.6553424" lon="9.7471331"><ele>10.2</ele><time>2026-03-29T15:02:42.267Z</time></trkpt><trkpt lat="40.6552581" lon="9.7471952"><ele>9.0</ele><time>2026-03-29T15:02:43.287Z</time></trkpt><trkpt lat="40.6551709" lon="9.747261"><ele>8.5</ele><time>2026-03-29T15:02:44.262Z</time></trkpt><trkpt lat="40.655094" lon="9.7473304"><ele>8.0</ele><time>2026-03-29T15:02:45.261Z</time></trkpt><trkpt lat="40.6550389" lon="9.7473907"><ele>7.5</ele><time>2026-03-29T15:02:46.261Z</time></trkpt><trkpt lat="40.6549833" lon="9.7474562"><ele>7.0</ele><time>2026-03-29T15:02:47.261Z</time></trkpt><trkpt lat="40.6549283" lon="9.7475235"><ele>6.5</ele><time>2026-03-29T15:02:48.276Z</time></trkpt><trkpt lat="40.6548733" lon="9.7475874"><ele>6.0</ele><time>2026-03-29T15:02:49.263Z</time></trkpt><trkpt lat="40.6548113" lon="9.7476459"><ele>6.0</ele><time>2026-03-29T15:02:50.297Z</time></trkpt><trkpt lat="40.6547401" lon="9.7476943"><ele>6.0</ele><time>2026-03-29T15:02:51.266Z</time></trkpt><trkpt lat="40.6546875" lon="9.7477648"><ele>6.0</ele><time>2026-03-29T15:02:52.267Z</time></trkpt><trkpt lat="40.6546393" lon="9.7478298"><ele>6.0</ele><time>2026-03-29T15:02:53.273Z</time></trkpt><trkpt lat="40.6545911" lon="9.7479018"><ele>6.0</ele><time>2026-03-29T15:02:55.268Z</time></trkpt><trkpt lat="40.6546257" lon="9.7478198"><ele>6.0</ele><time>2026-03-29T15:03:04.262Z</time></trkpt><trkpt lat="40.6547217" lon="9.747922"><ele>5.5</ele><time>2026-03-29T15:03:06.263Z</time></trkpt><trkpt lat="40.6547746" lon="9.7480133"><ele>5.0</ele><time>2026-03-29T15:03:07.264Z</time></trkpt><trkpt lat="40.6548136" lon="9.7481068"><ele>4.5</ele><time>2026-03-29T15:03:08.268Z</time></trkpt><trkpt lat="40.6548227" lon="9.7481953"><ele>4.0</ele><time>2026-03-29T15:03:09.263Z</time></trkpt><trkpt lat="40.6548286" lon="9.7482873"><ele>3.5</ele><time>2026-03-29T15:03:10.275Z</time></trkpt><trkpt lat="40.6548749" lon="9.7484101"><ele>3.0</ele><time>2026-03-29T15:03:12.266Z</time></trkpt><trkpt lat="40.6550246" lon="9.7484454"><ele>2.9999999999999996</ele><time>2026-03-29T15:03:14.265Z</time></trkpt><trkpt lat="40.6551226" lon="9.7484708"><ele>3.0</ele><time>2026-03-29T15:03:15.284Z</time></trkpt><trkpt lat="40.6552012" lon="9.748509"><ele>3.0</ele><time>2026-03-29T15:03:16.265Z</time></trkpt><trkpt lat="40.6552527" lon="9.7485621"><ele>3.0</ele><time>2026-03-29T15:03:17.268Z</time></trkpt><trkpt lat="40.65529" lon="9.7486304"><ele>3.0</ele><time>2026-03-29T15:03:18.263Z</time></trkpt><trkpt lat="40.6553279" lon="9.7487005"><ele>2.9999999999999996</ele><time>2026-03-29T15:03:19.263Z</time></trkpt><trkpt lat="40.6553709" lon="9.7487682"><ele>3.0</ele><time>2026-03-29T15:03:20.268Z</time></trkpt><trkpt lat="40.655394" lon="9.748887"><ele>3.0</ele><time>2026-03-29T15:03:22.268Z</time></trkpt><trkpt lat="40.655326" lon="9.7490401"><ele>3.0</ele><time>2026-03-29T15:03:24.267Z</time></trkpt><trkpt lat="40.6552737" lon="9.7491564"><ele>3.0</ele><time>2026-03-29T15:03:25.268Z</time></trkpt><trkpt lat="40.6552269" lon="9.7492561"><ele>3.0</ele><time>2026-03-29T15:03:26.273Z</time></trkpt><trkpt lat="40.6551943" lon="9.7493337"><ele>3.0</ele><time>2026-03-29T15:03:27.284Z</time></trkpt><trkpt lat="40.6551909" lon="9.7494274"><ele>2.6666666666666665</ele><time>2026-03-29T15:03:29.264Z</time></trkpt><trkpt lat="40.6552801" lon="9.7494922"><ele>2.3333333333333335</ele><time>2026-03-29T15:03:31.27Z</time></trkpt><trkpt lat="40.6553584" lon="9.7495188"><ele>2.0</ele><time>2026-03-29T15:03:32.269Z</time></trkpt><trkpt lat="40.6554416" lon="9.7495613"><ele>1.6666666666666665</ele><time>2026-03-29T15:03:33.269Z</time></trkpt><trkpt lat="40.655513" lon="9.7495965"><ele>1.3333333333333333</ele><time>2026-03-29T15:03:34.263Z</time></trkpt><trkpt lat="40.6555811" lon="9.7496346"><ele>1.0</ele><time>2026-03-29T15:03:35.269Z</time></trkpt><trkpt lat="40.6556395" lon="9.7496973"><ele>1.0</ele><time>2026-03-29T15:03:36.265Z</time></trkpt><trkpt lat="40.6556951" lon="9.7497582"><ele>1.0</ele><time>2026-03-29T15:03:37.269Z</time></trkpt><trkpt lat="40.6557528" lon="9.7497988"><ele>1.0</ele><time>2026-03-29T15:03:38.262Z</time></trkpt><trkpt lat="40.6558725" lon="9.7497672"><ele>1.0</ele><time>2026-03-29T15:03:40.262Z</time></trkpt><trkpt lat="40.6559306" lon="9.7497232"><ele>1.0</ele><time>2026-03-29T15:03:41.263Z</time></trkpt><trkpt lat="40.6560058" lon="9.7495906"><ele>0.9999999999999999</ele><time>2026-03-29T15:03:43.265Z</time></trkpt><trkpt lat="40.6560182" lon="9.7494992"><ele>1.0</ele><time>2026-03-29T15:03:44.267Z</time></trkpt><trkpt lat="40.65605" lon="9.7494244"><ele>1.0</ele><time>2026-03-29T15:03:45.264Z</time></trkpt><trkpt lat="40.6561522" lon="9.7493765"><ele>1.0</ele><time>2026-03-29T15:03:47.266Z</time></trkpt><trkpt lat="40.6562271" lon="9.7493919"><ele>0.9999999999999999</ele><time>2026-03-29T15:03:48.264Z</time></trkpt><trkpt lat="40.6563159" lon="9.7494124"><ele>1.0</ele><time>2026-03-29T15:03:49.268Z</time></trkpt><trkpt lat="40.6564269" lon="9.7494567"><ele>0.8</ele><time>2026-03-29T15:03:50.273Z</time></trkpt><trkpt lat="40.6565479" lon="9.7494838"><ele>0.6000000000000001</ele><time>2026-03-29T15:03:51.263Z</time></trkpt><trkpt lat="40.656663" lon="9.749492"><ele>0.4</ele><time>2026-03-29T15:03:52.27Z</time></trkpt><trkpt lat="40.656764" lon="9.7494893"><ele>0.2</ele><time>2026-03-29T15:03:53.266Z</time></trkpt><trkpt lat="40.6568423" lon="9.7494808"><ele>0.0</ele><time>2026-03-29T15:03:54.267Z</time></trkpt><trkpt lat="40.6569089" lon="9.7494718"><ele>0.0</ele><time>2026-03-29T15:03:55.266Z</time></trkpt><trkpt lat="40.6570059" lon="9.749378"><ele>0.0</ele><time>2026-03-29T15:03:57.27Z</time></trkpt><trkpt lat="40.6570602" lon="9.7493042"><ele>0.0</ele><time>2026-03-29T15:03:58.262Z</time></trkpt><trkpt lat="40.6571106" lon="9.7492229"><ele>0.0</ele><time>2026-03-29T15:03:59.267Z</time></trkpt><trkpt lat="40.6571527" lon="9.7491352"><ele>0.0</ele><time>2026-03-29T15:04:00.271Z</time></trkpt><trkpt lat="40.6571916" lon="9.7490526"><ele>0.0</ele><time>2026-03-29T15:04:01.269Z</time></trkpt><trkpt lat="40.6572661" lon="9.7489531"><ele>0.6</ele><time>2026-03-29T15:04:03.264Z</time></trkpt><trkpt lat="40.6573213" lon="9.7489127"><ele>1.2</ele><time>2026-03-29T15:04:04.265Z</time></trkpt><trkpt lat="40.6574058" lon="9.7488283"><ele>1.7999999999999998</ele><time>2026-03-29T15:04:06.262Z</time></trkpt><trkpt lat="40.6574585" lon="9.7486774"><ele>2.4</ele><time>2026-03-29T15:04:08.27Z</time></trkpt><trkpt lat="40.6574636" lon="9.7485746"><ele>3.0</ele><time>2026-03-29T15:04:09.266Z</time></trkpt><trkpt lat="40.657464" lon="9.74847"><ele>3.5</ele><time>2026-03-29T15:04:10.263Z</time></trkpt><trkpt lat="40.6574668" lon="9.7483721"><ele>4.0</ele><time>2026-03-29T15:04:11.262Z</time></trkpt><trkpt lat="40.6574866" lon="9.7482724"><ele>4.5</ele><time>2026-03-29T15:04:12.283Z</time></trkpt><trkpt lat="40.6575048" lon="9.748165"><ele>5.0</ele><time>2026-03-29T15:04:13.265Z</time></trkpt><trkpt lat="40.6575253" lon="9.7480525"><ele>5.5</ele><time>2026-03-29T15:04:14.264Z</time></trkpt><trkpt lat="40.6575428" lon="9.7479556"><ele>6.0</ele><time>2026-03-29T15:04:15.265Z</time></trkpt><trkpt lat="40.6575716" lon="9.7478573"><ele>6.0</ele><time>2026-03-29T15:04:17.265Z</time></trkpt><trkpt lat="40.6576335" lon="9.7478366"><ele>6.0</ele><time>2026-03-29T15:04:18.303Z</time></trkpt><trkpt lat="40.6577085" lon="9.7478076"><ele>6.0</ele><time>2026-03-29T15:04:19.263Z</time></trkpt><trkpt lat="40.6578063" lon="9.7477677"><ele>6.0</ele><time>2026-03-29T15:04:20.261Z</time></trkpt><trkpt lat="40.6579164" lon="9.747712"><ele>6.0</ele><time>2026-03-29T15:04:21.264Z</time></trkpt><trkpt lat="40.6580351" lon="9.7476523"><ele>7.25</ele><time>2026-03-29T15:04:22.266Z</time></trkpt><trkpt lat="40.6581616" lon="9.7475882"><ele>8.5</ele><time>2026-03-29T15:04:23.28Z</time></trkpt><trkpt lat="40.658291" lon="9.7475229"><ele>9.75</ele><time>2026-03-29T15:04:24.27Z</time></trkpt><trkpt lat="40.6584151" lon="9.747461"><ele>11.0</ele><time>2026-03-29T15:04:25.269Z</time></trkpt><trkpt lat="40.6585267" lon="9.7473905"><ele>10.4</ele><time>2026-03-29T15:04:26.267Z</time></trkpt><trkpt lat="40.658622" lon="9.7473257"><ele>9.8</ele><time>2026-03-29T15:04:27.277Z</time></trkpt><trkpt lat="40.6586884" lon="9.7472756"><ele>9.200000000000001</ele><time>2026-03-29T15:04:28.267Z</time></trkpt><trkpt lat="40.6587957" lon="9.7472508"><ele>8.600000000000001</ele><time>2026-03-29T15:04:30.258Z</time></trkpt><trkpt lat="40.658905" lon="9.7472481"><ele>8.0</ele><time>2026-03-29T15:04:32.267Z</time></trkpt><trkpt lat="40.6589739" lon="9.7471401"><ele>7.999999999999999</ele><time>2026-03-29T15:04:34.285Z</time></trkpt><trkpt lat="40.659017" lon="9.7470609"><ele>8.0</ele><time>2026-03-29T15:04:35.267Z</time></trkpt><trkpt lat="40.6590811" lon="9.7469739"><ele>8.0</ele><time>2026-03-29T15:04:36.258Z</time></trkpt><trkpt lat="40.6591478" lon="9.7468803"><ele>8.0</ele><time>2026-03-29T15:04:37.264Z</time></trkpt><trkpt lat="40.6592055" lon="9.7467942"><ele>7.999999999999999</ele><time>2026-03-29T15:04:38.263Z</time></trkpt><trkpt lat="40.6592649" lon="9.7467083"><ele>8.0</ele><time>2026-03-29T15:04:39.263Z</time></trkpt><trkpt lat="40.659317" lon="9.7466331"><ele>8.166666666666666</ele><time>2026-03-29T15:04:40.284Z</time></trkpt><trkpt lat="40.6593679" lon="9.7465559"><ele>8.333333333333332</ele><time>2026-03-29T15:04:41.261Z</time></trkpt><trkpt lat="40.6594236" lon="9.746479"><ele>8.5</ele><time>2026-03-29T15:04:42.267Z</time></trkpt><trkpt lat="40.6594795" lon="9.7464009"><ele>8.666666666666666</ele><time>2026-03-29T15:04:43.267Z</time></trkpt><trkpt lat="40.6595351" lon="9.7463227"><ele>8.833333333333334</ele><time>2026-03-29T15:04:44.269Z</time></trkpt><trkpt lat="40.6595878" lon="9.7462485"><ele>9.0</ele><time>2026-03-29T15:04:45.26Z</time></trkpt><trkpt lat="40.6596356" lon="9.7461814"><ele>8.4</ele><time>2026-03-29T15:04:46.283Z</time></trkpt><trkpt lat="40.6597441" lon="9.7461234"><ele>7.800000000000001</ele><time>2026-03-29T15:04:48.272Z</time></trkpt><trkpt lat="40.6598176" lon="9.746156"><ele>7.199999999999999</ele><time>2026-03-29T15:04:49.267Z</time></trkpt><trkpt lat="40.6598981" lon="9.7462088"><ele>6.6</ele><time>2026-03-29T15:04:50.262Z</time></trkpt><trkpt lat="40.6599896" lon="9.7462508"><ele>6.0</ele><time>2026-03-29T15:04:51.258Z</time></trkpt><trkpt lat="40.6600796" lon="9.7462922"><ele>6.0</ele><time>2026-03-29T15:04:52.262Z</time></trkpt><trkpt lat="40.6601677" lon="9.7463254"><ele>6.0</ele><time>2026-03-29T15:04:53.265Z</time></trkpt><trkpt lat="40.6602632" lon="9.7463661"><ele>6.0</ele><time>2026-03-29T15:04:54.297Z</time></trkpt><trkpt lat="40.6603602" lon="9.7464174"><ele>6.0</ele><time>2026-03-29T15:04:55.264Z</time></trkpt><trkpt lat="40.6604308" lon="9.7464509"><ele>6.0</ele><time>2026-03-29T15:04:56.265Z</time></trkpt><trkpt lat="40.6605351" lon="9.7464456"><ele>6.0</ele><time>2026-03-29T15:04:58.265Z</time></trkpt><trkpt lat="40.6606458" lon="9.7463804"><ele>6.0</ele><time>2026-03-29T15:05:00.262Z</time></trkpt><trkpt lat="40.6607237" lon="9.7463756"><ele>6.0</ele><time>2026-03-29T15:05:01.267Z</time></trkpt><trkpt lat="40.660808" lon="9.7463718"><ele>6.0</ele><time>2026-03-29T15:05:02.265Z</time></trkpt><trkpt lat="40.6609187" lon="9.7463894"><ele>6.0</ele><time>2026-03-29T15:05:03.268Z</time></trkpt><trkpt lat="40.6610369" lon="9.7464007"><ele>6.0</ele><time>2026-03-29T15:05:04.265Z</time></trkpt><trkpt lat="40.6611506" lon="9.7464081"><ele>6.0</ele><time>2026-03-29T15:05:05.267Z</time></trkpt><trkpt lat="40.6612547" lon="9.746414"><ele>6.0</ele><time>2026-03-29T15:05:06.267Z</time></trkpt><trkpt lat="40.6613594" lon="9.7464205"><ele>6.0</ele><time>2026-03-29T15:05:07.268Z</time></trkpt><trkpt lat="40.6614601" lon="9.7464249"><ele>6.0</ele><time>2026-03-29T15:05:08.264Z</time></trkpt><trkpt lat="40.6615616" lon="9.7464299"><ele>6.0</ele><time>2026-03-29T15:05:09.277Z</time></trkpt><trkpt lat="40.6616585" lon="9.7464307"><ele>6.0</ele><time>2026-03-29T15:05:10.27Z</time></trkpt><trkpt lat="40.6617458" lon="9.7464259"><ele>6.0</ele><time>2026-03-29T15:05:11.263Z</time></trkpt><trkpt lat="40.6618211" lon="9.7464114"><ele>6.0</ele><time>2026-03-29T15:05:12.269Z</time></trkpt><trkpt lat="40.661926" lon="9.7463545"><ele>6.0</ele><time>2026-03-29T15:05:14.288Z</time></trkpt><trkpt lat="40.662003" lon="9.7462611"><ele>5.8</ele><time>2026-03-29T15:05:16.267Z</time></trkpt><trkpt lat="40.6620577" lon="9.7461081"><ele>5.6</ele><time>2026-03-29T15:05:18.258Z</time></trkpt><trkpt lat="40.6620804" lon="9.7460124"><ele>5.4</ele><time>2026-03-29T15:05:19.261Z</time></trkpt><trkpt lat="40.6621038" lon="9.7458989"><ele>5.2</ele><time>2026-03-29T15:05:20.263Z</time></trkpt><trkpt lat="40.6621272" lon="9.7457746"><ele>5.0</ele><time>2026-03-29T15:05:21.267Z</time></trkpt><trkpt lat="40.6621532" lon="9.7456424"><ele>5.4</ele><time>2026-03-29T15:05:22.268Z</time></trkpt><trkpt lat="40.6621785" lon="9.7455047"><ele>5.8</ele><time>2026-03-29T15:05:23.268Z</time></trkpt><trkpt lat="40.6622037" lon="9.7453649"><ele>6.199999999999999</ele><time>2026-03-29T15:05:24.263Z</time></trkpt><trkpt lat="40.6622308" lon="9.745222"><ele>6.6</ele><time>2026-03-29T15:05:25.278Z</time></trkpt><trkpt lat="40.6622634" lon="9.7450712"><ele>7.0</ele><time>2026-03-29T15:05:26.263Z</time></trkpt><trkpt lat="40.6623042" lon="9.7449045"><ele>7.333333333333334</ele><time>2026-03-29T15:05:27.27Z</time></trkpt><trkpt lat="40.6623531" lon="9.7447197"><ele>7.666666666666666</ele><time>2026-03-29T15:05:28.264Z</time></trkpt><trkpt lat="40.6624078" lon="9.7445212"><ele>8.0</ele><time>2026-03-29T15:05:29.265Z</time></trkpt><trkpt lat="40.6624675" lon="9.7443143"><ele>8.666666666666666</ele><time>2026-03-29T15:05:30.265Z</time></trkpt><trkpt lat="40.6625258" lon="9.7441181"><ele>9.333333333333334</ele><time>2026-03-29T15:05:31.264Z</time></trkpt><trkpt lat="40.6625814" lon="9.7439339"><ele>10.0</ele><time>2026-03-29T15:05:32.261Z</time></trkpt><trkpt lat="40.6626368" lon="9.7437606"><ele>10.0</ele><time>2026-03-29T15:05:33.266Z</time></trkpt><trkpt lat="40.6626891" lon="9.7435914"><ele>10.0</ele><time>2026-03-29T15:05:34.259Z</time></trkpt><trkpt lat="40.6627385" lon="9.7434303"><ele>10.0</ele><time>2026-03-29T15:05:35.264Z</time></trkpt><trkpt lat="40.6627829" lon="9.7432868"><ele>10.0</ele><time>2026-03-29T15:05:36.265Z</time></trkpt><trkpt lat="40.6628263" lon="9.7431669"><ele>10.166666666666668</ele><time>2026-03-29T15:05:37.259Z</time></trkpt><trkpt lat="40.6628598" lon="9.7430825"><ele>10.333333333333334</ele><time>2026-03-29T15:05:38.291Z</time></trkpt><trkpt lat="40.6628911" lon="9.7430098"><ele>10.5</ele><time>2026-03-29T15:05:39.261Z</time></trkpt><trkpt lat="40.6629435" lon="9.7429404"><ele>10.666666666666666</ele><time>2026-03-29T15:05:41.261Z</time></trkpt><trkpt lat="40.6630535" lon="9.7429718"><ele>10.833333333333332</ele><time>2026-03-29T15:05:43.263Z</time></trkpt><trkpt lat="40.663127" lon="9.7430412"><ele>11.0</ele><time>2026-03-29T15:05:44.266Z</time></trkpt><trkpt lat="40.6632124" lon="9.7431264"><ele>11.0</ele><time>2026-03-29T15:05:45.3Z</time></trkpt><trkpt lat="40.6633355" lon="9.7432375"><ele>11.0</ele><time>2026-03-29T15:05:46.274Z</time></trkpt><trkpt lat="40.6634607" lon="9.7433503"><ele>11.0</ele><time>2026-03-29T15:05:47.264Z</time></trkpt><trkpt lat="40.6636006" lon="9.743475"><ele>10.666666666666666</ele><time>2026-03-29T15:05:48.265Z</time></trkpt><trkpt lat="40.6637436" lon="9.7436043"><ele>10.333333333333334</ele><time>2026-03-29T15:05:49.282Z</time></trkpt><trkpt lat="40.6638974" lon="9.7437342"><ele>10.0</ele><time>2026-03-29T15:05:50.269Z</time></trkpt><trkpt lat="40.6640602" lon="9.7438795"><ele>10.0</ele><time>2026-03-29T15:05:51.278Z</time></trkpt><trkpt lat="40.6642318" lon="9.744027"><ele>10.0</ele><time>2026-03-29T15:05:52.27Z</time></trkpt><trkpt lat="40.6644082" lon="9.744183"><ele>10.0</ele><time>2026-03-29T15:05:53.265Z</time></trkpt><trkpt lat="40.6645803" lon="9.7443353"><ele>9.666666666666668</ele><time>2026-03-29T15:05:54.262Z</time></trkpt><trkpt lat="40.6647458" lon="9.7444825"><ele>9.333333333333334</ele><time>2026-03-29T15:05:55.261Z</time></trkpt><trkpt lat="40.6649141" lon="9.7446294"><ele>9.0</ele><time>2026-03-29T15:05:56.267Z</time></trkpt><trkpt lat="40.6650854" lon="9.7447763"><ele>9.0</ele><time>2026-03-29T15:05:57.265Z</time></trkpt><trkpt lat="40.6652574" lon="9.7449284"><ele>9.0</ele><time>2026-03-29T15:05:58.317Z</time></trkpt><trkpt lat="40.665434" lon="9.7450812"><ele>9.0</ele><time>2026-03-29T15:05:59.267Z</time></trkpt><trkpt lat="40.6656083" lon="9.7452331"><ele>8.333333333333334</ele><time>2026-03-29T15:06:00.264Z</time></trkpt><trkpt lat="40.6657768" lon="9.7453782"><ele>7.666666666666667</ele><time>2026-03-29T15:06:01.269Z</time></trkpt><trkpt lat="40.6659397" lon="9.7455181"><ele>7.0</ele><time>2026-03-29T15:06:02.267Z</time></trkpt><trkpt lat="40.6661007" lon="9.7456569"><ele>7.333333333333334</ele><time>2026-03-29T15:06:03.262Z</time></trkpt><trkpt lat="40.6662579" lon="9.7457904"><ele>7.666666666666666</ele><time>2026-03-29T15:06:04.269Z</time></trkpt><trkpt lat="40.6664054" lon="9.7459165"><ele>8.0</ele><time>2026-03-29T15:06:05.265Z</time></trkpt><trkpt lat="40.6665518" lon="9.7460469"><ele>8.0</ele><time>2026-03-29T15:06:06.261Z</time></trkpt><trkpt lat="40.6667046" lon="9.7461828"><ele>8.0</ele><time>2026-03-29T15:06:07.259Z</time></trkpt><trkpt lat="40.6668602" lon="9.7463182"><ele>8.0</ele><time>2026-03-29T15:06:08.265Z</time></trkpt><trkpt lat="40.6670182" lon="9.7464445"><ele>8.333333333333332</ele><time>2026-03-29T15:06:09.26Z</time></trkpt><trkpt lat="40.6671818" lon="9.746555"><ele>8.666666666666666</ele><time>2026-03-29T15:06:10.26Z</time></trkpt><trkpt lat="40.6673533" lon="9.746656"><ele>9.0</ele><time>2026-03-29T15:06:11.299Z</time></trkpt><trkpt lat="40.6675336" lon="9.7467555"><ele>9.0</ele><time>2026-03-29T15:06:12.261Z</time></trkpt><trkpt lat="40.6677189" lon="9.7468561"><ele>9.0</ele><time>2026-03-29T15:06:13.264Z</time></trkpt><trkpt lat="40.6679037" lon="9.7469551"><ele>9.0</ele><time>2026-03-29T15:06:14.263Z</time></trkpt><trkpt lat="40.6680933" lon="9.7470549"><ele>8.333333333333334</ele><time>2026-03-29T15:06:15.263Z</time></trkpt><trkpt lat="40.6682852" lon="9.7471562"><ele>7.666666666666667</ele><time>2026-03-29T15:06:16.264Z</time></trkpt><trkpt lat="40.6684768" lon="9.7472571"><ele>7.0</ele><time>2026-03-29T15:06:17.262Z</time></trkpt><trkpt lat="40.6686546" lon="9.7473511"><ele>6.0</ele><time>2026-03-29T15:06:18.284Z</time></trkpt><trkpt lat="40.6688162" lon="9.7474366"><ele>5.0</ele><time>2026-03-29T15:06:19.265Z</time></trkpt><trkpt lat="40.6689754" lon="9.7475195"><ele>4.0</ele><time>2026-03-29T15:06:20.265Z</time></trkpt><trkpt lat="40.6691325" lon="9.7476027"><ele>4.0</ele><time>2026-03-29T15:06:21.265Z</time></trkpt><trkpt lat="40.6692825" lon="9.7476824"><ele>4.0</ele><time>2026-03-29T15:06:22.269Z</time></trkpt><trkpt lat="40.6694214" lon="9.7477553"><ele>4.0</ele><time>2026-03-29T15:06:23.262Z</time></trkpt><trkpt lat="40.6695291" lon="9.7478145"><ele>4.0</ele><time>2026-03-29T15:06:24.303Z</time></trkpt><trkpt lat="40.6696267" lon="9.7478647"><ele>4.5</ele><time>2026-03-29T15:06:25.262Z</time></trkpt><trkpt lat="40.6697118" lon="9.7479075"><ele>5.0</ele><time>2026-03-29T15:06:26.269Z</time></trkpt><trkpt lat="40.6697937" lon="9.7479498"><ele>5.5</ele><time>2026-03-29T15:06:27.27Z</time></trkpt><trkpt lat="40.6698632" lon="9.7479879"><ele>6.0</ele><time>2026-03-29T15:06:28.268Z</time></trkpt><trkpt lat="40.6699283" lon="9.7480161"><ele>6.500000000000001</ele><time>2026-03-29T15:06:29.299Z</time></trkpt><trkpt lat="40.6700293" lon="9.7480022"><ele>7.0</ele><time>2026-03-29T15:06:31.265Z</time></trkpt><trkpt lat="40.670086" lon="9.7479023"><ele>7.0</ele><time>2026-03-29T15:06:33.269Z</time></trkpt><trkpt lat="40.6701222" lon="9.7477132"><ele>7.0</ele><time>2026-03-29T15:06:35.26Z</time></trkpt><trkpt lat="40.6701425" lon="9.747586"><ele>7.0</ele><time>2026-03-29T15:06:36.266Z</time></trkpt><trkpt lat="40.6701639" lon="9.7474508"><ele>7.0</ele><time>2026-03-29T15:06:37.264Z</time></trkpt><trkpt lat="40.6701854" lon="9.7473063"><ele>7.25</ele><time>2026-03-29T15:06:38.265Z</time></trkpt><trkpt lat="40.6702088" lon="9.7471648"><ele>7.5</ele><time>2026-03-29T15:06:39.29Z</time></trkpt><trkpt lat="40.6702392" lon="9.7470185"><ele>7.75</ele><time>2026-03-29T15:06:40.273Z</time></trkpt><trkpt lat="40.6702833" lon="9.7468695"><ele>8.0</ele><time>2026-03-29T15:06:41.268Z</time></trkpt><trkpt lat="40.6703287" lon="9.7467008"><ele>9.0</ele><time>2026-03-29T15:06:42.261Z</time></trkpt><trkpt lat="40.6703741" lon="9.7465342"><ele>10.0</ele><time>2026-03-29T15:06:43.266Z</time></trkpt><trkpt lat="40.6704146" lon="9.7463654"><ele>11.0</ele><time>2026-03-29T15:06:44.272Z</time></trkpt><trkpt lat="40.6704548" lon="9.7462295"><ele>12.0</ele><time>2026-03-29T15:06:45.266Z</time></trkpt><trkpt lat="40.6704887" lon="9.7460927"><ele>13.8</ele><time>2026-03-29T15:06:46.267Z</time></trkpt><trkpt lat="40.6705221" lon="9.745967"><ele>15.6</ele><time>2026-03-29T15:06:47.265Z</time></trkpt><trkpt lat="40.6705452" lon="9.7458393"><ele>17.400000000000002</ele><time>2026-03-29T15:06:48.297Z</time></trkpt><trkpt lat="40.6705863" lon="9.7457156"><ele>19.2</ele><time>2026-03-29T15:06:49.268Z</time></trkpt><trkpt lat="40.6706149" lon="9.7455918"><ele>21.0</ele><time>2026-03-29T15:06:50.265Z</time></trkpt><trkpt lat="40.6706438" lon="9.7454802"><ele>21.0</ele><time>2026-03-29T15:06:51.265Z</time></trkpt><trkpt lat="40.6706486" lon="9.7453608"><ele>21.0</ele><time>2026-03-29T15:06:53.263Z</time></trkpt><trkpt lat="40.6705846" lon="9.7452022"><ele>21.0</ele><time>2026-03-29T15:06:55.273Z</time></trkpt><trkpt lat="40.6705331" lon="9.7450984"><ele>21.0</ele><time>2026-03-29T15:06:56.262Z</time></trkpt><trkpt lat="40.6704807" lon="9.7449903"><ele>21.0</ele><time>2026-03-29T15:06:57.295Z</time></trkpt><trkpt lat="40.6704234" lon="9.7448829"><ele>22.333333333333332</ele><time>2026-03-29T15:06:58.263Z</time></trkpt><trkpt lat="40.6703625" lon="9.7447812"><ele>23.666666666666664</ele><time>2026-03-29T15:06:59.263Z</time></trkpt><trkpt lat="40.6702973" lon="9.7447151"><ele>25.0</ele><time>2026-03-29T15:07:00.262Z</time></trkpt><trkpt lat="40.6702309" lon="9.7446531"><ele>26.333333333333332</ele><time>2026-03-29T15:07:01.265Z</time></trkpt><trkpt lat="40.6701595" lon="9.7445626"><ele>27.666666666666664</ele><time>2026-03-29T15:07:03.269Z</time></trkpt><trkpt lat="40.6701426" lon="9.744452"><ele>29.0</ele><time>2026-03-29T15:07:05.263Z</time></trkpt><trkpt lat="40.670219" lon="9.7443322"><ele>31.0</ele><time>2026-03-29T15:07:07.262Z</time></trkpt><trkpt lat="40.670279" lon="9.7442501"><ele>33.0</ele><time>2026-03-29T15:07:08.261Z</time></trkpt><trkpt lat="40.6703363" lon="9.7441596"><ele>35.0</ele><time>2026-03-29T15:07:09.267Z</time></trkpt><trkpt lat="40.6703907" lon="9.7440464"><ele>37.0</ele><time>2026-03-29T15:07:10.261Z</time></trkpt><trkpt lat="40.6704443" lon="9.7439516"><ele>39.0</ele><time>2026-03-29T15:07:11.259Z</time></trkpt><trkpt lat="40.6705038" lon="9.7438634"><ele>39.0</ele><time>2026-03-29T15:07:12.261Z</time></trkpt><trkpt lat="40.6705559" lon="9.7437851"><ele>39.0</ele><time>2026-03-29T15:07:13.259Z</time></trkpt><trkpt lat="40.6706223" lon="9.7437096"><ele>39.0</ele><time>2026-03-29T15:07:14.262Z</time></trkpt><trkpt lat="40.6707018" lon="9.7436428"><ele>39.0</ele><time>2026-03-29T15:07:15.261Z</time></trkpt><trkpt lat="40.6707801" lon="9.7435666"><ele>39.0</ele><time>2026-03-29T15:07:16.267Z</time></trkpt><trkpt lat="40.6708506" lon="9.7434896"><ele>41.0</ele><time>2026-03-29T15:07:17.26Z</time></trkpt><trkpt lat="40.6709038" lon="9.7434449"><ele>43.0</ele><time>2026-03-29T15:07:18.258Z</time></trkpt><trkpt lat="40.670973" lon="9.7433832"><ele>45.0</ele><time>2026-03-29T15:07:20.266Z</time></trkpt><trkpt lat="40.6710201" lon="9.7433044"><ele>47.0</ele><time>2026-03-29T15:07:23.26Z</time></trkpt><trkpt lat="40.6710129" lon="9.7431826"><ele>49.0</ele><time>2026-03-29T15:07:25.262Z</time></trkpt><trkpt lat="40.6709905" lon="9.7430399"><ele>51.0</ele><time>2026-03-29T15:07:27.275Z</time></trkpt><trkpt lat="40.6709786" lon="9.7429582"><ele>51.0</ele><time>2026-03-29T15:07:28.266Z</time></trkpt><trkpt lat="40.6709555" lon="9.7428198"><ele>51.0</ele><time>2026-03-29T15:07:30.264Z</time></trkpt><trkpt lat="40.6709125" lon="9.7427148"><ele>51.0</ele><time>2026-03-29T15:07:32.265Z</time></trkpt><trkpt lat="40.6708246" lon="9.7426271"><ele>51.0</ele><time>2026-03-29T15:07:34.261Z</time></trkpt><trkpt lat="40.6707534" lon="9.7424839"><ele>51.0</ele><time>2026-03-29T15:07:36.261Z</time></trkpt><trkpt lat="40.6706846" lon="9.742343"><ele>53.75</ele><time>2026-03-29T15:07:38.284Z</time></trkpt><trkpt lat="40.6705912" lon="9.7422096"><ele>56.5</ele><time>2026-03-29T15:07:40.258Z</time></trkpt><trkpt lat="40.6705236" lon="9.7420651"><ele>59.25</ele><time>2026-03-29T15:07:42.258Z</time></trkpt><trkpt lat="40.6704828" lon="9.7419199"><ele>62.0</ele><time>2026-03-29T15:07:44.263Z</time></trkpt><trkpt lat="40.6704627" lon="9.7418346"><ele>63.6</ele><time>2026-03-29T15:07:45.273Z</time></trkpt><trkpt lat="40.6704497" lon="9.7417469"><ele>65.2</ele><time>2026-03-29T15:07:46.263Z</time></trkpt><trkpt lat="40.6704471" lon="9.7416058"><ele>66.8</ele><time>2026-03-29T15:07:48.263Z</time></trkpt><trkpt lat="40.6704425" lon="9.7414919"><ele>68.4</ele><time>2026-03-29T15:07:50.275Z</time></trkpt><trkpt lat="40.6704193" lon="9.741366"><ele>70.0</ele><time>2026-03-29T15:07:52.269Z</time></trkpt><trkpt lat="40.6703945" lon="9.7412207"><ele>70.0</ele><time>2026-03-29T15:07:54.265Z</time></trkpt><trkpt lat="40.6703886" lon="9.7410608"><ele>70.0</ele><time>2026-03-29T15:07:56.265Z</time></trkpt><trkpt lat="40.6703863" lon="9.740972"><ele>70.0</ele><time>2026-03-29T15:07:57.277Z</time></trkpt><trkpt lat="40.670373" lon="9.7408291"><ele>70.0</ele><time>2026-03-29T15:07:59.259Z</time></trkpt><trkpt lat="40.6704062" lon="9.7407126"><ele>70.0</ele><time>2026-03-29T15:08:01.261Z</time></trkpt><trkpt lat="40.6704449" lon="9.7406246"><ele>72.8</ele><time>2026-03-29T15:08:03.269Z</time></trkpt><trkpt lat="40.6704528" lon="9.7405076"><ele>75.6</ele><time>2026-03-29T15:08:05.261Z</time></trkpt><trkpt lat="40.6704434" lon="9.7403934"><ele>78.4</ele><time>2026-03-29T15:08:07.266Z</time></trkpt><trkpt lat="40.6704277" lon="9.7402603"><ele>81.2</ele><time>2026-03-29T15:08:09.297Z</time></trkpt><trkpt lat="40.6704187" lon="9.7401537"><ele>84.0</ele><time>2026-03-29T15:08:11.264Z</time></trkpt><trkpt lat="40.6704362" lon="9.7400366"><ele>89.0</ele><time>2026-03-29T15:08:13.273Z</time></trkpt><trkpt lat="40.6704487" lon="9.73989"><ele>94.0</ele><time>2026-03-29T15:08:15.266Z</time></trkpt><trkpt lat="40.6704367" lon="9.7397459"><ele>99.0</ele><time>2026-03-29T15:08:17.263Z</time></trkpt><trkpt lat="40.6704235" lon="9.7395951"><ele>104.0</ele><time>2026-03-29T15:08:19.264Z</time></trkpt><trkpt lat="40.6704247" lon="9.7394432"><ele>109.80000000000001</ele><time>2026-03-29T15:08:21.265Z</time></trkpt><trkpt lat="40.6704277" lon="9.7392803"><ele>115.60000000000001</ele><time>2026-03-29T15:08:23.264Z</time></trkpt><trkpt lat="40.6704473" lon="9.7391636"><ele>121.4</ele><time>2026-03-29T15:08:25.27Z</time></trkpt><trkpt lat="40.670529" lon="9.7391471"><ele>127.2</ele><time>2026-03-29T15:08:28.261Z</time></trkpt><trkpt lat="40.670629" lon="9.7391276"><ele>133.0</ele><time>2026-03-29T15:08:30.263Z</time></trkpt><trkpt lat="40.6707262" lon="9.7391155"><ele>133.0</ele><time>2026-03-29T15:08:32.267Z</time></trkpt><trkpt lat="40.6708061" lon="9.7391424"><ele>133.0</ele><time>2026-03-29T15:08:35.273Z</time></trkpt><trkpt lat="40.6708842" lon="9.7391638"><ele>133.0</ele><time>2026-03-29T15:08:38.28Z</time></trkpt><trkpt lat="40.6709551" lon="9.7391652"><ele>133.0</ele><time>2026-03-29T15:08:40.268Z</time></trkpt><trkpt lat="40.6710311" lon="9.7391996"><ele>133.0</ele><time>2026-03-29T15:08:42.265Z</time></trkpt><trkpt lat="40.6711206" lon="9.7392275"><ele>133.0</ele><time>2026-03-29T15:08:44.264Z</time></trkpt><trkpt lat="40.6712193" lon="9.7392465"><ele>135.0</ele><time>2026-03-29T15:08:46.266Z</time></trkpt><trkpt lat="40.6713357" lon="9.739265"><ele>137.0</ele><time>2026-03-29T15:08:48.262Z</time></trkpt><trkpt lat="40.6714178" lon="9.7392908"><ele>139.0</ele><time>2026-03-29T15:08:50.26Z</time></trkpt><trkpt lat="40.6715075" lon="9.7392902"><ele>141.0</ele><time>2026-03-29T15:08:53.273Z</time></trkpt><trkpt lat="40.6715872" lon="9.7392745"><ele>143.0</ele><time>2026-03-29T15:08:55.269Z</time></trkpt><trkpt lat="40.6716663" lon="9.7392974"><ele>143.0</ele><time>2026-03-29T15:08:57.266Z</time></trkpt><trkpt lat="40.6717355" lon="9.7393287"><ele>143.0</ele><time>2026-03-29T15:08:59.26Z</time></trkpt><trkpt lat="40.6718094" lon="9.7393438"><ele>143.0</ele><time>2026-03-29T15:09:11.279Z</time></trkpt><trkpt lat="40.6718789" lon="9.7392776"><ele>143.0</ele><time>2026-03-29T15:09:15.266Z</time></trkpt><trkpt lat="40.6719358" lon="9.7391806"><ele>143.0</ele><time>2026-03-29T15:09:18.293Z</time></trkpt><trkpt lat="40.6720342" lon="9.7391412"><ele>143.0</ele><time>2026-03-29T15:09:20.264Z</time></trkpt><trkpt lat="40.6721347" lon="9.7391381"><ele>144.66666666666666</ele><time>2026-03-29T15:09:22.262Z</time></trkpt><trkpt lat="40.6722194" lon="9.739154"><ele>146.33333333333331</ele><time>2026-03-29T15:09:24.267Z</time></trkpt><trkpt lat="40.6723147" lon="9.7391581"><ele>148.0</ele><time>2026-03-29T15:09:26.274Z</time></trkpt><trkpt lat="40.6724234" lon="9.7391895"><ele>149.66666666666666</ele><time>2026-03-29T15:09:28.268Z</time></trkpt><trkpt lat="40.6724942" lon="9.7391889"><ele>151.33333333333334</ele><time>2026-03-29T15:09:30.271Z</time></trkpt><trkpt lat="40.6725616" lon="9.739153"><ele>153.0</ele><time>2026-03-29T15:09:32.277Z</time></trkpt><trkpt lat="40.672655" lon="9.7391392"><ele>153.0</ele><time>2026-03-29T15:09:34.269Z</time></trkpt><trkpt lat="40.6727233" lon="9.7391027"><ele>153.0</ele><time>2026-03-29T15:09:37.265Z</time></trkpt><trkpt lat="40.6726621" lon="9.7390539"><ele>153.0</ele><time>2026-03-29T15:13:49.273Z</time></trkpt><trkpt lat="40.6725789" lon="9.7390096"><ele>153.0</ele><time>2026-03-29T15:13:51.277Z</time></trkpt><trkpt lat="40.6725093" lon="9.7389692"><ele>153.0</ele><time>2026-03-29T15:13:53.27Z</time></trkpt><trkpt lat="40.6724675" lon="9.7388997"><ele>153.0</ele><time>2026-03-29T15:13:55.273Z</time></trkpt><trkpt lat="40.6724289" lon="9.7387891"><ele>153.0</ele><time>2026-03-29T15:13:57.276Z</time></trkpt><trkpt lat="40.6724137" lon="9.738679"><ele>153.0</ele><time>2026-03-29T15:13:59.274Z</time></trkpt><trkpt lat="40.6724318" lon="9.7385876"><ele>153.0</ele><time>2026-03-29T15:14:01.277Z</time></trkpt><trkpt lat="40.6724917" lon="9.7385223"><ele>153.0</ele><time>2026-03-29T15:14:04.265Z</time></trkpt><trkpt lat="40.6725371" lon="9.7384426"><ele>153.0</ele><time>2026-03-29T15:14:48.271Z</time></trkpt><trkpt lat="40.6726094" lon="9.7383802"><ele>153.0</ele><time>2026-03-29T15:14:51.267Z</time></trkpt><trkpt lat="40.67268" lon="9.7383035"><ele>151.0</ele><time>2026-03-29T15:14:54.273Z</time></trkpt><trkpt lat="40.6727378" lon="9.7382445"><ele>149.0</ele><time>2026-03-29T15:14:56.28Z</time></trkpt><trkpt lat="40.6728028" lon="9.7381843"><ele>147.0</ele><time>2026-03-29T15:14:58.28Z</time></trkpt><trkpt lat="40.6728454" lon="9.7380811"><ele>145.0</ele><time>2026-03-29T15:15:00.268Z</time></trkpt><trkpt lat="40.6728765" lon="9.73794"><ele>143.0</ele><time>2026-03-29T15:15:02.275Z</time></trkpt><trkpt lat="40.6729224" lon="9.7378026"><ele>143.0</ele><time>2026-03-29T15:15:04.266Z</time></trkpt><trkpt lat="40.6729569" lon="9.7377192"><ele>143.0</ele><time>2026-03-29T15:15:05.269Z</time></trkpt><trkpt lat="40.6729939" lon="9.737639"><ele>143.0</ele><time>2026-03-29T15:15:06.265Z</time></trkpt><trkpt lat="40.6730364" lon="9.7375701"><ele>143.0</ele><time>2026-03-29T15:15:07.284Z</time></trkpt><trkpt lat="40.6730793" lon="9.7375082"><ele>143.0</ele><time>2026-03-29T15:15:08.265Z</time></trkpt><trkpt lat="40.673165" lon="9.7374073"><ele>143.0</ele><time>2026-03-29T15:15:10.275Z</time></trkpt><trkpt lat="40.6732665" lon="9.7373363"><ele>145.0</ele><time>2026-03-29T15:15:12.287Z</time></trkpt><trkpt lat="40.673382" lon="9.7373072"><ele>147.0</ele><time>2026-03-29T15:15:14.266Z</time></trkpt><trkpt lat="40.673446" lon="9.7372952"><ele>149.0</ele><time>2026-03-29T15:15:15.27Z</time></trkpt><trkpt lat="40.6735562" lon="9.737237"><ele>151.0</ele><time>2026-03-29T15:15:17.267Z</time></trkpt><trkpt lat="40.673615" lon="9.7372006"><ele>153.0</ele><time>2026-03-29T15:15:18.267Z</time></trkpt><trkpt lat="40.6736725" lon="9.7371537"><ele>155.0</ele><time>2026-03-29T15:15:19.267Z</time></trkpt><trkpt lat="40.6737265" lon="9.7371051"><ele>151.2</ele><time>2026-03-29T15:15:20.272Z</time></trkpt><trkpt lat="40.6738374" lon="9.7370304"><ele>147.4</ele><time>2026-03-29T15:15:22.265Z</time></trkpt><trkpt lat="40.673948" lon="9.736978"><ele>143.6</ele><time>2026-03-29T15:15:24.279Z</time></trkpt><trkpt lat="40.6740461" lon="9.7369445"><ele>139.8</ele><time>2026-03-29T15:15:26.268Z</time></trkpt><trkpt lat="40.6741198" lon="9.7369027"><ele>136.0</ele><time>2026-03-29T15:15:28.27Z</time></trkpt><trkpt lat="40.6741925" lon="9.7368184"><ele>136.0</ele><time>2026-03-29T15:15:30.273Z</time></trkpt><trkpt lat="40.674238" lon="9.7367132"><ele>136.0</ele><time>2026-03-29T15:15:32.274Z</time></trkpt><trkpt lat="40.6742766" lon="9.7366067"><ele>136.0</ele><time>2026-03-29T15:15:34.284Z</time></trkpt><trkpt lat="40.6743138" lon="9.7365031"><ele>136.0</ele><time>2026-03-29T15:15:36.269Z</time></trkpt><trkpt lat="40.6743188" lon="9.7363984"><ele>136.0</ele><time>2026-03-29T15:15:38.271Z</time></trkpt><trkpt lat="40.6742812" lon="9.7362961"><ele>136.0</ele><time>2026-03-29T15:15:40.273Z</time></trkpt><trkpt lat="40.6742258" lon="9.7361983"><ele>136.0</ele><time>2026-03-29T15:15:42.273Z</time></trkpt><trkpt lat="40.6741628" lon="9.7360954"><ele>136.0</ele><time>2026-03-29T15:15:44.269Z</time></trkpt><trkpt lat="40.6740864" lon="9.7359886"><ele>136.0</ele><time>2026-03-29T15:15:46.269Z</time></trkpt><trkpt lat="40.6740221" lon="9.7358727"><ele>136.0</ele><time>2026-03-29T15:15:48.27Z</time></trkpt><trkpt lat="40.6739517" lon="9.7357532"><ele>136.0</ele><time>2026-03-29T15:15:50.267Z</time></trkpt><trkpt lat="40.6738801" lon="9.7356443"><ele>137.0</ele><time>2026-03-29T15:15:52.273Z</time></trkpt><trkpt lat="40.6738199" lon="9.7355335"><ele>138.0</ele><time>2026-03-29T15:15:54.269Z</time></trkpt><trkpt lat="40.67376" lon="9.7354216"><ele>139.0</ele><time>2026-03-29T15:15:56.271Z</time></trkpt><trkpt lat="40.6736712" lon="9.7353482"><ele>140.0</ele><time>2026-03-29T15:15:58.271Z</time></trkpt><trkpt lat="40.6735747" lon="9.7352681"><ele>141.0</ele><time>2026-03-29T15:16:00.267Z</time></trkpt><trkpt lat="40.6735222" lon="9.7352186"><ele>136.85714285714286</ele><time>2026-03-29T15:16:01.262Z</time></trkpt><trkpt lat="40.6734688" lon="9.7351651"><ele>132.71428571428572</ele><time>2026-03-29T15:16:02.265Z</time></trkpt><trkpt lat="40.6734159" lon="9.7351121"><ele>128.57142857142856</ele><time>2026-03-29T15:16:03.266Z</time></trkpt><trkpt lat="40.673365" lon="9.7350566"><ele>124.42857142857143</ele><time>2026-03-29T15:16:04.267Z</time></trkpt><trkpt lat="40.6733144" lon="9.735005"><ele>120.28571428571428</ele><time>2026-03-29T15:16:05.263Z</time></trkpt><trkpt lat="40.6732638" lon="9.7349513"><ele>116.14285714285714</ele><time>2026-03-29T15:16:06.268Z</time></trkpt><trkpt lat="40.6732174" lon="9.7348903"><ele>112.0</ele><time>2026-03-29T15:16:07.263Z</time></trkpt><trkpt lat="40.6731533" lon="9.7347963"><ele>112.00000000000001</ele><time>2026-03-29T15:16:09.267Z</time></trkpt><trkpt lat="40.6731395" lon="9.7346706"><ele>112.0</ele><time>2026-03-29T15:16:11.265Z</time></trkpt><trkpt lat="40.6731932" lon="9.7345626"><ele>112.0</ele><time>2026-03-29T15:16:13.269Z</time></trkpt><trkpt lat="40.6732759" lon="9.7345002"><ele>112.0</ele><time>2026-03-29T15:16:15.286Z</time></trkpt><trkpt lat="40.6733321" lon="9.7344601"><ele>112.00000000000001</ele><time>2026-03-29T15:16:17.266Z</time></trkpt><trkpt lat="40.6734079" lon="9.7344289"><ele>112.0</ele><time>2026-03-29T15:16:19.267Z</time></trkpt><trkpt lat="40.6735049" lon="9.7344285"><ele>112.0</ele><time>2026-03-29T15:16:21.266Z</time></trkpt><trkpt lat="40.6735939" lon="9.7344939"><ele>111.99999999999999</ele><time>2026-03-29T15:16:23.276Z</time></trkpt><trkpt lat="40.6736671" lon="9.734488"><ele>111.99999999999999</ele><time>2026-03-29T15:16:25.271Z</time></trkpt><trkpt lat="40.6737291" lon="9.734434"><ele>112.0</ele><time>2026-03-29T15:16:27.269Z</time></trkpt><trkpt lat="40.6738097" lon="9.7343733"><ele>112.0</ele><time>2026-03-29T15:16:29.268Z</time></trkpt><trkpt lat="40.6739153" lon="9.734336"><ele>107.0</ele><time>2026-03-29T15:16:31.293Z</time></trkpt><trkpt lat="40.6739816" lon="9.7343268"><ele>102.0</ele><time>2026-03-29T15:16:32.271Z</time></trkpt><trkpt lat="40.6740499" lon="9.7343161"><ele>97.0</ele><time>2026-03-29T15:16:33.268Z</time></trkpt><trkpt lat="40.6741189" lon="9.7343132"><ele>92.0</ele><time>2026-03-29T15:16:34.267Z</time></trkpt><trkpt lat="40.6741855" lon="9.7342975"><ele>87.0</ele><time>2026-03-29T15:16:35.265Z</time></trkpt><trkpt lat="40.6742526" lon="9.7342721"><ele>82.0</ele><time>2026-03-29T15:16:36.293Z</time></trkpt><trkpt lat="40.6743155" lon="9.7342458"><ele>77.0</ele><time>2026-03-29T15:16:37.267Z</time></trkpt><trkpt lat="40.674388" lon="9.7342384"><ele>75.16666666666667</ele><time>2026-03-29T15:16:38.266Z</time></trkpt><trkpt lat="40.6744537" lon="9.7342324"><ele>73.33333333333334</ele><time>2026-03-29T15:16:39.269Z</time></trkpt><trkpt lat="40.6745714" lon="9.7342471"><ele>71.5</ele><time>2026-03-29T15:16:41.288Z</time></trkpt><trkpt lat="40.6746883" lon="9.7342463"><ele>69.66666666666667</ele><time>2026-03-29T15:16:43.27Z</time></trkpt><trkpt lat="40.6747567" lon="9.7342382"><ele>67.83333333333333</ele><time>2026-03-29T15:16:44.274Z</time></trkpt><trkpt lat="40.6748278" lon="9.7342326"><ele>66.0</ele><time>2026-03-29T15:16:45.266Z</time></trkpt><trkpt lat="40.6749015" lon="9.7342215"><ele>66.0</ele><time>2026-03-29T15:16:46.288Z</time></trkpt><trkpt lat="40.6749714" lon="9.7342058"><ele>66.0</ele><time>2026-03-29T15:16:47.267Z</time></trkpt><trkpt lat="40.67504" lon="9.7341881"><ele>66.0</ele><time>2026-03-29T15:16:48.27Z</time></trkpt><trkpt lat="40.6751074" lon="9.7341721"><ele>66.0</ele><time>2026-03-29T15:16:49.269Z</time></trkpt><trkpt lat="40.6751715" lon="9.7341547"><ele>66.0</ele><time>2026-03-29T15:16:50.265Z</time></trkpt><trkpt lat="40.6752378" lon="9.734132"><ele>66.0</ele><time>2026-03-29T15:16:51.288Z</time></trkpt><trkpt lat="40.6753015" lon="9.7341045"><ele>66.0</ele><time>2026-03-29T15:16:52.271Z</time></trkpt><trkpt lat="40.6753706" lon="9.7340739"><ele>65.16666666666667</ele><time>2026-03-29T15:16:53.265Z</time></trkpt><trkpt lat="40.6754357" lon="9.734045"><ele>64.33333333333333</ele><time>2026-03-29T15:16:54.271Z</time></trkpt><trkpt lat="40.6755179" lon="9.7340378"><ele>63.5</ele><time>2026-03-29T15:16:55.269Z</time></trkpt><trkpt lat="40.6756092" lon="9.7340405"><ele>62.666666666666664</ele><time>2026-03-29T15:16:56.267Z</time></trkpt><trkpt lat="40.6757114" lon="9.7340434"><ele>61.83333333333333</ele><time>2026-03-29T15:16:57.279Z</time></trkpt><trkpt lat="40.6758093" lon="9.7340448"><ele>61.0</ele><time>2026-03-29T15:16:58.262Z</time></trkpt><trkpt lat="40.6758985" lon="9.7340486"><ele>60.99999999999999</ele><time>2026-03-29T15:16:59.267Z</time></trkpt><trkpt lat="40.6759852" lon="9.7340511"><ele>61.0</ele><time>2026-03-29T15:17:00.266Z</time></trkpt><trkpt lat="40.6760731" lon="9.7340579"><ele>61.0</ele><time>2026-03-29T15:17:01.269Z</time></trkpt><trkpt lat="40.6761447" lon="9.7340622"><ele>61.0</ele><time>2026-03-29T15:17:02.271Z</time></trkpt><trkpt lat="40.6762124" lon="9.7340613"><ele>60.99999999999999</ele><time>2026-03-29T15:17:03.268Z</time></trkpt><trkpt lat="40.6762774" lon="9.7340558"><ele>61.0</ele><time>2026-03-29T15:17:04.271Z</time></trkpt><trkpt lat="40.6764" lon="9.734036"><ele>59.33333333333333</ele><time>2026-03-29T15:17:06.27Z</time></trkpt><trkpt lat="40.6764643" lon="9.7339996"><ele>57.666666666666664</ele><time>2026-03-29T15:17:07.265Z</time></trkpt><trkpt lat="40.6765397" lon="9.7339616"><ele>56.0</ele><time>2026-03-29T15:17:08.277Z</time></trkpt><trkpt lat="40.6766207" lon="9.7339429"><ele>54.33333333333333</ele><time>2026-03-29T15:17:09.262Z</time></trkpt><trkpt lat="40.6767093" lon="9.7339439"><ele>52.666666666666664</ele><time>2026-03-29T15:17:10.267Z</time></trkpt><trkpt lat="40.6767979" lon="9.7339404"><ele>51.0</ele><time>2026-03-29T15:17:11.273Z</time></trkpt><trkpt lat="40.6768839" lon="9.7339428"><ele>48.833333333333336</ele><time>2026-03-29T15:17:12.272Z</time></trkpt><trkpt lat="40.676967" lon="9.7339468"><ele>46.666666666666664</ele><time>2026-03-29T15:17:13.279Z</time></trkpt><trkpt lat="40.6770599" lon="9.7339703"><ele>44.5</ele><time>2026-03-29T15:17:14.269Z</time></trkpt><trkpt lat="40.6771477" lon="9.7339928"><ele>42.33333333333333</ele><time>2026-03-29T15:17:15.269Z</time></trkpt><trkpt lat="40.6772267" lon="9.7340143"><ele>40.166666666666664</ele><time>2026-03-29T15:17:16.266Z</time></trkpt><trkpt lat="40.6773104" lon="9.7340354"><ele>38.0</ele><time>2026-03-29T15:17:17.276Z</time></trkpt><trkpt lat="40.6773931" lon="9.7340547"><ele>38.0</ele><time>2026-03-29T15:17:18.272Z</time></trkpt><trkpt lat="40.6774781" lon="9.7340748"><ele>38.0</ele><time>2026-03-29T15:17:19.27Z</time></trkpt><trkpt lat="40.6775542" lon="9.7340926"><ele>38.0</ele><time>2026-03-29T15:17:20.272Z</time></trkpt><trkpt lat="40.6776717" lon="9.7341021"><ele>38.0</ele><time>2026-03-29T15:17:22.27Z</time></trkpt><trkpt lat="40.6777818" lon="9.7340195"><ele>38.0</ele><time>2026-03-29T15:17:24.286Z</time></trkpt><trkpt lat="40.6778335" lon="9.7339437"><ele>36.8</ele><time>2026-03-29T15:17:25.267Z</time></trkpt><trkpt lat="40.6778879" lon="9.7338714"><ele>35.599999999999994</ele><time>2026-03-29T15:17:26.267Z</time></trkpt><trkpt lat="40.677952" lon="9.7337944"><ele>34.400000000000006</ele><time>2026-03-29T15:17:27.274Z</time></trkpt><trkpt lat="40.6780292" lon="9.7337218"><ele>33.2</ele><time>2026-03-29T15:17:28.278Z</time></trkpt><trkpt lat="40.6781088" lon="9.7336531"><ele>32.0</ele><time>2026-03-29T15:17:29.271Z</time></trkpt><trkpt lat="40.6781959" lon="9.7335827"><ele>31.999999999999996</ele><time>2026-03-29T15:17:30.288Z</time></trkpt><trkpt lat="40.678275" lon="9.7335135"><ele>32.0</ele><time>2026-03-29T15:17:31.272Z</time></trkpt><trkpt lat="40.6783489" lon="9.7334476"><ele>32.0</ele><time>2026-03-29T15:17:32.264Z</time></trkpt><trkpt lat="40.6784196" lon="9.7333913"><ele>32.0</ele><time>2026-03-29T15:17:33.287Z</time></trkpt><trkpt lat="40.6784914" lon="9.7333353"><ele>31.999999999999996</ele><time>2026-03-29T15:17:34.265Z</time></trkpt><trkpt lat="40.6785616" lon="9.7332816"><ele>32.0</ele><time>2026-03-29T15:17:35.293Z</time></trkpt><trkpt lat="40.6786255" lon="9.7332186"><ele>30.6</ele><time>2026-03-29T15:17:36.271Z</time></trkpt><trkpt lat="40.6786848" lon="9.7331397"><ele>29.200000000000003</ele><time>2026-03-29T15:17:37.268Z</time></trkpt><trkpt lat="40.6787508" lon="9.7330535"><ele>27.8</ele><time>2026-03-29T15:17:38.275Z</time></trkpt><trkpt lat="40.6788244" lon="9.7329605"><ele>26.4</ele><time>2026-03-29T15:17:39.276Z</time></trkpt><trkpt lat="40.6789008" lon="9.7328615"><ele>25.0</ele><time>2026-03-29T15:17:40.276Z</time></trkpt><trkpt lat="40.678979" lon="9.7327595"><ele>25.2</ele><time>2026-03-29T15:17:41.29Z</time></trkpt><trkpt lat="40.6790573" lon="9.7326579"><ele>25.4</ele><time>2026-03-29T15:17:42.276Z</time></trkpt><trkpt lat="40.6791318" lon="9.732559"><ele>25.6</ele><time>2026-03-29T15:17:43.27Z</time></trkpt><trkpt lat="40.6792066" lon="9.7324628"><ele>25.8</ele><time>2026-03-29T15:17:44.273Z</time></trkpt><trkpt lat="40.6792744" lon="9.7323748"><ele>26.0</ele><time>2026-03-29T15:17:45.266Z</time></trkpt><trkpt lat="40.6793425" lon="9.7322983"><ele>25.999999999999996</ele><time>2026-03-29T15:17:46.285Z</time></trkpt><trkpt lat="40.6794106" lon="9.7322371"><ele>26.0</ele><time>2026-03-29T15:17:47.266Z</time></trkpt><trkpt lat="40.6794731" lon="9.7321995"><ele>26.0</ele><time>2026-03-29T15:17:48.266Z</time></trkpt><trkpt lat="40.6795512" lon="9.732164"><ele>26.0</ele><time>2026-03-29T15:17:50.269Z</time></trkpt><trkpt lat="40.6796386" lon="9.7320903"><ele>25.999999999999996</ele><time>2026-03-29T15:17:52.278Z</time></trkpt><trkpt lat="40.679682" lon="9.7320106"><ele>26.0</ele><time>2026-03-29T15:17:53.273Z</time></trkpt><trkpt lat="40.6797279" lon="9.7319001"><ele>25.75</ele><time>2026-03-29T15:17:54.271Z</time></trkpt><trkpt lat="40.6797869" lon="9.7317639"><ele>25.5</ele><time>2026-03-29T15:17:55.267Z</time></trkpt><trkpt lat="40.6798501" lon="9.7316119"><ele>25.25</ele><time>2026-03-29T15:17:56.264Z</time></trkpt><trkpt lat="40.6799174" lon="9.7314513"><ele>25.0</ele><time>2026-03-29T15:17:57.272Z</time></trkpt><trkpt lat="40.6799888" lon="9.7312791"><ele>25.0</ele><time>2026-03-29T15:17:58.265Z</time></trkpt><trkpt lat="40.6800628" lon="9.7311009"><ele>25.0</ele><time>2026-03-29T15:17:59.269Z</time></trkpt><trkpt lat="40.6801371" lon="9.7309103"><ele>25.0</ele><time>2026-03-29T15:18:00.269Z</time></trkpt><trkpt lat="40.6802104" lon="9.73071"><ele>25.0</ele><time>2026-03-29T15:18:01.261Z</time></trkpt><trkpt lat="40.6802818" lon="9.7305077"><ele>25.0</ele><time>2026-03-29T15:18:02.284Z</time></trkpt><trkpt lat="40.6803542" lon="9.7302998"><ele>25.0</ele><time>2026-03-29T15:18:03.262Z</time></trkpt><trkpt lat="40.6804292" lon="9.7300874"><ele>25.0</ele><time>2026-03-29T15:18:04.269Z</time></trkpt><trkpt lat="40.6805051" lon="9.7298697"><ele>25.0</ele><time>2026-03-29T15:18:05.271Z</time></trkpt><trkpt lat="40.6805837" lon="9.7296443"><ele>25.0</ele><time>2026-03-29T15:18:06.274Z</time></trkpt><trkpt lat="40.6806638" lon="9.7294127"><ele>25.0</ele><time>2026-03-29T15:18:07.285Z</time></trkpt><trkpt lat="40.6807437" lon="9.7291762"><ele>25.0</ele><time>2026-03-29T15:18:08.272Z</time></trkpt><trkpt lat="40.680824" lon="9.7289416"><ele>25.0</ele><time>2026-03-29T15:18:09.269Z</time></trkpt><trkpt lat="40.6809017" lon="9.7287159"><ele>26.0</ele><time>2026-03-29T15:18:10.264Z</time></trkpt><trkpt lat="40.6809803" lon="9.7284923"><ele>27.0</ele><time>2026-03-29T15:18:11.267Z</time></trkpt><trkpt lat="40.6810593" lon="9.7282677"><ele>28.0</ele><time>2026-03-29T15:18:12.281Z</time></trkpt><trkpt lat="40.6811399" lon="9.7280394"><ele>28.0</ele><time>2026-03-29T15:18:13.268Z</time></trkpt><trkpt lat="40.6812203" lon="9.7278074"><ele>28.0</ele><time>2026-03-29T15:18:14.273Z</time></trkpt><trkpt lat="40.6813005" lon="9.7275733"><ele>28.0</ele><time>2026-03-29T15:18:15.268Z</time></trkpt><trkpt lat="40.68138" lon="9.7273424"><ele>29.333333333333336</ele><time>2026-03-29T15:18:16.268Z</time></trkpt><trkpt lat="40.6814516" lon="9.7271273"><ele>30.666666666666664</ele><time>2026-03-29T15:18:17.265Z</time></trkpt><trkpt lat="40.6815123" lon="9.7269296"><ele>32.0</ele><time>2026-03-29T15:18:18.271Z</time></trkpt><trkpt lat="40.6815639" lon="9.7267391"><ele>32.5</ele><time>2026-03-29T15:18:19.267Z</time></trkpt><trkpt lat="40.6816063" lon="9.726555"><ele>33.0</ele><time>2026-03-29T15:18:20.271Z</time></trkpt><trkpt lat="40.6816391" lon="9.7263756"><ele>33.5</ele><time>2026-03-29T15:18:21.288Z</time></trkpt><trkpt lat="40.6816658" lon="9.7262055"><ele>34.0</ele><time>2026-03-29T15:18:22.261Z</time></trkpt><trkpt lat="40.6816885" lon="9.7260435"><ele>34.0</ele><time>2026-03-29T15:18:23.268Z</time></trkpt><trkpt lat="40.6817122" lon="9.7258811"><ele>34.0</ele><time>2026-03-29T15:18:24.269Z</time></trkpt><trkpt lat="40.6817444" lon="9.7257121"><ele>34.0</ele><time>2026-03-29T15:18:25.263Z</time></trkpt><trkpt lat="40.6817952" lon="9.7255307"><ele>34.0</ele><time>2026-03-29T15:18:26.269Z</time></trkpt><trkpt lat="40.6818565" lon="9.7253514"><ele>33.0</ele><time>2026-03-29T15:18:27.267Z</time></trkpt><trkpt lat="40.6819499" lon="9.7251638"><ele>32.0</ele><time>2026-03-29T15:18:28.271Z</time></trkpt><trkpt lat="40.6820541" lon="9.7249612"><ele>31.0</ele><time>2026-03-29T15:18:29.268Z</time></trkpt><trkpt lat="40.682166" lon="9.724754"><ele>31.0</ele><time>2026-03-29T15:18:30.316Z</time></trkpt><trkpt lat="40.6822794" lon="9.7245462"><ele>31.0</ele><time>2026-03-29T15:18:31.268Z</time></trkpt><trkpt lat="40.6823947" lon="9.7243364"><ele>31.0</ele><time>2026-03-29T15:18:32.277Z</time></trkpt><trkpt lat="40.6825061" lon="9.7241247"><ele>30.0</ele><time>2026-03-29T15:18:33.263Z</time></trkpt><trkpt lat="40.6826167" lon="9.7239154"><ele>29.0</ele><time>2026-03-29T15:18:34.267Z</time></trkpt><trkpt lat="40.6827247" lon="9.7237068"><ele>28.0</ele><time>2026-03-29T15:18:35.267Z</time></trkpt><trkpt lat="40.6828325" lon="9.7235019"><ele>27.333333333333336</ele><time>2026-03-29T15:18:36.261Z</time></trkpt><trkpt lat="40.6829421" lon="9.7232971"><ele>26.666666666666664</ele><time>2026-03-29T15:18:37.257Z</time></trkpt><trkpt lat="40.683054" lon="9.7230945"><ele>26.0</ele><time>2026-03-29T15:18:38.267Z</time></trkpt><trkpt lat="40.6831711" lon="9.7229006"><ele>24.333333333333332</ele><time>2026-03-29T15:18:39.303Z</time></trkpt><trkpt lat="40.6832964" lon="9.7227174"><ele>22.666666666666664</ele><time>2026-03-29T15:18:40.272Z</time></trkpt><trkpt lat="40.683435" lon="9.7225517"><ele>21.0</ele><time>2026-03-29T15:18:41.26Z</time></trkpt><trkpt lat="40.6835914" lon="9.7223996"><ele>22.0</ele><time>2026-03-29T15:18:42.269Z</time></trkpt><trkpt lat="40.6837577" lon="9.7222584"><ele>23.0</ele><time>2026-03-29T15:18:43.262Z</time></trkpt><trkpt lat="40.6839341" lon="9.7221291"><ele>24.0</ele><time>2026-03-29T15:18:44.287Z</time></trkpt><trkpt lat="40.6841166" lon="9.7220096"><ele>24.0</ele><time>2026-03-29T15:18:45.262Z</time></trkpt><trkpt lat="40.684301" lon="9.7219008"><ele>24.0</ele><time>2026-03-29T15:18:46.269Z</time></trkpt><trkpt lat="40.6844839" lon="9.7217948"><ele>24.0</ele><time>2026-03-29T15:18:47.274Z</time></trkpt><trkpt lat="40.6846642" lon="9.7216902"><ele>21.333333333333332</ele><time>2026-03-29T15:18:48.269Z</time></trkpt><trkpt lat="40.6848413" lon="9.7215879"><ele>18.666666666666664</ele><time>2026-03-29T15:18:49.275Z</time></trkpt><trkpt lat="40.685019" lon="9.7214847"><ele>16.0</ele><time>2026-03-29T15:18:50.274Z</time></trkpt><trkpt lat="40.6851985" lon="9.7213868"><ele>15.666666666666666</ele><time>2026-03-29T15:18:51.264Z</time></trkpt><trkpt lat="40.6853838" lon="9.7212868"><ele>15.333333333333332</ele><time>2026-03-29T15:18:52.271Z</time></trkpt><trkpt lat="40.6855675" lon="9.7211719"><ele>15.0</ele><time>2026-03-29T15:18:53.269Z</time></trkpt><trkpt lat="40.6857518" lon="9.7210657"><ele>14.333333333333332</ele><time>2026-03-29T15:18:54.285Z</time></trkpt><trkpt lat="40.6859312" lon="9.7209593"><ele>13.666666666666666</ele><time>2026-03-29T15:18:55.264Z</time></trkpt><trkpt lat="40.6861014" lon="9.7208595"><ele>13.0</ele><time>2026-03-29T15:18:56.266Z</time></trkpt><trkpt lat="40.6862664" lon="9.7207622"><ele>12.333333333333332</ele><time>2026-03-29T15:18:57.264Z</time></trkpt><trkpt lat="40.6864206" lon="9.7206675"><ele>11.666666666666666</ele><time>2026-03-29T15:18:58.267Z</time></trkpt><trkpt lat="40.6865822" lon="9.7205724"><ele>11.0</ele><time>2026-03-29T15:18:59.272Z</time></trkpt><trkpt lat="40.6867424" lon="9.7204793"><ele>11.0</ele><time>2026-03-29T15:19:00.274Z</time></trkpt><trkpt lat="40.6869044" lon="9.7203855"><ele>11.0</ele><time>2026-03-29T15:19:01.28Z</time></trkpt><trkpt lat="40.687053" lon="9.7202996"><ele>11.0</ele><time>2026-03-29T15:19:02.27Z</time></trkpt><trkpt lat="40.6871955" lon="9.720219"><ele>9.75</ele><time>2026-03-29T15:19:03.268Z</time></trkpt><trkpt lat="40.6873269" lon="9.7201455"><ele>8.5</ele><time>2026-03-29T15:19:04.268Z</time></trkpt><trkpt lat="40.6874453" lon="9.720077"><ele>7.25</ele><time>2026-03-29T15:19:05.267Z</time></trkpt><trkpt lat="40.6875601" lon="9.720018"><ele>6.0</ele><time>2026-03-29T15:19:06.268Z</time></trkpt><trkpt lat="40.6876691" lon="9.7199737"><ele>5.8</ele><time>2026-03-29T15:19:07.274Z</time></trkpt><trkpt lat="40.6877631" lon="9.7199327"><ele>5.6</ele><time>2026-03-29T15:19:08.271Z</time></trkpt><trkpt lat="40.687836" lon="9.7198828"><ele>5.4</ele><time>2026-03-29T15:19:09.298Z</time></trkpt><trkpt lat="40.6878804" lon="9.7197368"><ele>5.2</ele><time>2026-03-29T15:19:11.276Z</time></trkpt><trkpt lat="40.6878604" lon="9.7196491"><ele>5.0</ele><time>2026-03-29T15:19:12.272Z</time></trkpt><trkpt lat="40.6878196" lon="9.7195474"><ele>5.0</ele><time>2026-03-29T15:19:13.265Z</time></trkpt><trkpt lat="40.6877706" lon="9.7194215"><ele>5.0</ele><time>2026-03-29T15:19:14.274Z</time></trkpt><trkpt lat="40.6877054" lon="9.7192682"><ele>5.0</ele><time>2026-03-29T15:19:15.265Z</time></trkpt><trkpt lat="40.687643" lon="9.7190847"><ele>5.0</ele><time>2026-03-29T15:19:16.294Z</time></trkpt><trkpt lat="40.6875867" lon="9.7188811"><ele>5.0</ele><time>2026-03-29T15:19:17.263Z</time></trkpt><trkpt lat="40.6875313" lon="9.7186706"><ele>5.0</ele><time>2026-03-29T15:19:18.269Z</time></trkpt><trkpt lat="40.6874768" lon="9.7184507"><ele>5.0</ele><time>2026-03-29T15:19:19.271Z</time></trkpt><trkpt lat="40.6874227" lon="9.7182505"><ele>4.75</ele><time>2026-03-29T15:19:20.269Z</time></trkpt><trkpt lat="40.6873758" lon="9.7180634"><ele>4.5</ele><time>2026-03-29T15:19:21.29Z</time></trkpt><trkpt lat="40.6873285" lon="9.7179125"><ele>4.25</ele><time>2026-03-29T15:19:22.265Z</time></trkpt><trkpt lat="40.6872905" lon="9.7177766"><ele>4.0</ele><time>2026-03-29T15:19:23.273Z</time></trkpt><trkpt lat="40.6872595" lon="9.7176669"><ele>4.333333333333333</ele><time>2026-03-29T15:19:24.266Z</time></trkpt><trkpt lat="40.6872423" lon="9.7175852"><ele>4.666666666666666</ele><time>2026-03-29T15:19:25.266Z</time></trkpt><trkpt lat="40.6872347" lon="9.7174498"><ele>5.0</ele><time>2026-03-29T15:19:27.273Z</time></trkpt><trkpt lat="40.6872986" lon="9.7173633"><ele>5.333333333333333</ele><time>2026-03-29T15:19:29.269Z</time></trkpt><trkpt lat="40.6873818" lon="9.7173308"><ele>5.666666666666667</ele><time>2026-03-29T15:19:30.283Z</time></trkpt><trkpt lat="40.6874749" lon="9.7172874"><ele>6.0</ele><time>2026-03-29T15:19:31.287Z</time></trkpt><trkpt lat="40.6875835" lon="9.7172249"><ele>6.0</ele><time>2026-03-29T15:19:32.269Z</time></trkpt><trkpt lat="40.6876988" lon="9.7171543"><ele>6.0</ele><time>2026-03-29T15:19:33.27Z</time></trkpt><trkpt lat="40.6878197" lon="9.7170774"><ele>6.0</ele><time>2026-03-29T15:19:34.264Z</time></trkpt><trkpt lat="40.6879473" lon="9.716994"><ele>6.0</ele><time>2026-03-29T15:19:35.273Z</time></trkpt><trkpt lat="40.6880685" lon="9.7169042"><ele>5.75</ele><time>2026-03-29T15:19:36.266Z</time></trkpt><trkpt lat="40.6881956" lon="9.7168249"><ele>5.5</ele><time>2026-03-29T15:19:37.283Z</time></trkpt><trkpt lat="40.6883159" lon="9.7167342"><ele>5.25</ele><time>2026-03-29T15:19:38.265Z</time></trkpt><trkpt lat="40.6884374" lon="9.7166485"><ele>5.0</ele><time>2026-03-29T15:19:39.275Z</time></trkpt><trkpt lat="40.688546" lon="9.7165798"><ele>4.6</ele><time>2026-03-29T15:19:40.265Z</time></trkpt><trkpt lat="40.6886277" lon="9.7165229"><ele>4.2</ele><time>2026-03-29T15:19:41.271Z</time></trkpt><trkpt lat="40.6886967" lon="9.7164483"><ele>3.8</ele><time>2026-03-29T15:19:42.269Z</time></trkpt><trkpt lat="40.6887722" lon="9.7163573"><ele>3.4</ele><time>2026-03-29T15:19:43.266Z</time></trkpt><trkpt lat="40.6888541" lon="9.7162471"><ele>3.0</ele><time>2026-03-29T15:19:44.274Z</time></trkpt><trkpt lat="40.6889381" lon="9.7161696"><ele>3.0</ele><time>2026-03-29T15:19:45.262Z</time></trkpt><trkpt lat="40.6890044" lon="9.7161264"><ele>3.0</ele><time>2026-03-29T15:19:46.303Z</time></trkpt><trkpt lat="40.6890726" lon="9.7160878"><ele>3.0</ele><time>2026-03-29T15:19:47.266Z</time></trkpt><trkpt lat="40.6891459" lon="9.7160202"><ele>3.0</ele><time>2026-03-29T15:19:48.265Z</time></trkpt><trkpt lat="40.6892354" lon="9.7159482"><ele>3.0</ele><time>2026-03-29T15:19:49.266Z</time></trkpt><trkpt lat="40.689335" lon="9.7158529"><ele>3.0</ele><time>2026-03-29T15:19:50.269Z</time></trkpt><trkpt lat="40.6894373" lon="9.7157532"><ele>3.0</ele><time>2026-03-29T15:19:51.297Z</time></trkpt><trkpt lat="40.689546" lon="9.7156514"><ele>3.0</ele><time>2026-03-29T15:19:52.273Z</time></trkpt><trkpt lat="40.6896471" lon="9.7155559"><ele>3.0</ele><time>2026-03-29T15:19:53.269Z</time></trkpt><trkpt lat="40.6897433" lon="9.7154529"><ele>3.0</ele><time>2026-03-29T15:19:54.266Z</time></trkpt><trkpt lat="40.6898408" lon="9.715359"><ele>3.0</ele><time>2026-03-29T15:19:55.27Z</time></trkpt><trkpt lat="40.6899459" lon="9.7152745"><ele>3.0</ele><time>2026-03-29T15:19:56.272Z</time></trkpt><trkpt lat="40.6900354" lon="9.7151907"><ele>3.0</ele><time>2026-03-29T15:19:57.272Z</time></trkpt><trkpt lat="40.6901304" lon="9.7150917"><ele>3.4</ele><time>2026-03-29T15:19:58.291Z</time></trkpt><trkpt lat="40.6902138" lon="9.714993"><ele>3.8</ele><time>2026-03-29T15:19:59.263Z</time></trkpt><trkpt lat="40.6902815" lon="9.7148946"><ele>4.2</ele><time>2026-03-29T15:20:00.261Z</time></trkpt><trkpt lat="40.6903576" lon="9.7148227"><ele>4.6</ele><time>2026-03-29T15:20:01.267Z</time></trkpt><trkpt lat="40.6904445" lon="9.7147715"><ele>5.0</ele><time>2026-03-29T15:20:02.265Z</time></trkpt><trkpt lat="40.6905365" lon="9.714743"><ele>5.0</ele><time>2026-03-29T15:20:03.267Z</time></trkpt><trkpt lat="40.6906158" lon="9.7147334"><ele>5.0</ele><time>2026-03-29T15:20:04.288Z</time></trkpt><trkpt lat="40.6906919" lon="9.7147492"><ele>5.0</ele><time>2026-03-29T15:20:05.264Z</time></trkpt><trkpt lat="40.6907798" lon="9.7147961"><ele>5.0</ele><time>2026-03-29T15:20:06.271Z</time></trkpt><trkpt lat="40.6908707" lon="9.7148723"><ele>5.0</ele><time>2026-03-29T15:20:07.26Z</time></trkpt><trkpt lat="40.6909724" lon="9.7149672"><ele>5.0</ele><time>2026-03-29T15:20:08.268Z</time></trkpt><trkpt lat="40.69108" lon="9.7150862"><ele>5.0</ele><time>2026-03-29T15:20:09.269Z</time></trkpt><trkpt lat="40.6911782" lon="9.7151818"><ele>5.0</ele><time>2026-03-29T15:20:10.267Z</time></trkpt><trkpt lat="40.6912802" lon="9.7152542"><ele>5.0</ele><time>2026-03-29T15:20:11.26Z</time></trkpt><trkpt lat="40.6913868" lon="9.7153046"><ele>4.8</ele><time>2026-03-29T15:20:12.269Z</time></trkpt><trkpt lat="40.6914952" lon="9.7153443"><ele>4.6</ele><time>2026-03-29T15:20:13.266Z</time></trkpt><trkpt lat="40.6915969" lon="9.7153433"><ele>4.4</ele><time>2026-03-29T15:20:14.268Z</time></trkpt><trkpt lat="40.6917028" lon="9.7153296"><ele>4.2</ele><time>2026-03-29T15:20:15.267Z</time></trkpt><trkpt lat="40.6918084" lon="9.7152872"><ele>4.0</ele><time>2026-03-29T15:20:16.262Z</time></trkpt><trkpt lat="40.6918958" lon="9.7152258"><ele>3.6</ele><time>2026-03-29T15:20:17.264Z</time></trkpt><trkpt lat="40.6919771" lon="9.7151601"><ele>3.2</ele><time>2026-03-29T15:20:18.282Z</time></trkpt><trkpt lat="40.6920455" lon="9.7150641"><ele>2.8000000000000003</ele><time>2026-03-29T15:20:19.275Z</time></trkpt><trkpt lat="40.6921036" lon="9.7149528"><ele>2.4000000000000004</ele><time>2026-03-29T15:20:20.27Z</time></trkpt><trkpt lat="40.6921555" lon="9.7148213"><ele>2.0</ele><time>2026-03-29T15:20:21.269Z</time></trkpt><trkpt lat="40.6921981" lon="9.7146788"><ele>2.0</ele><time>2026-03-29T15:20:22.27Z</time></trkpt><trkpt lat="40.6922303" lon="9.7145193"><ele>2.0</ele><time>2026-03-29T15:20:23.292Z</time></trkpt><trkpt lat="40.6922512" lon="9.7143556"><ele>2.0</ele><time>2026-03-29T15:20:24.269Z</time></trkpt><trkpt lat="40.6922665" lon="9.7142035"><ele>2.0</ele><time>2026-03-29T15:20:25.274Z</time></trkpt><trkpt lat="40.6922501" lon="9.7140653"><ele>2.5</ele><time>2026-03-29T15:20:26.27Z</time></trkpt><trkpt lat="40.6922098" lon="9.7139357"><ele>3.0</ele><time>2026-03-29T15:20:27.269Z</time></trkpt><trkpt lat="40.6921539" lon="9.7137981"><ele>3.5</ele><time>2026-03-29T15:20:28.269Z</time></trkpt><trkpt lat="40.6920924" lon="9.7136552"><ele>4.0</ele><time>2026-03-29T15:20:29.269Z</time></trkpt><trkpt lat="40.6920282" lon="9.7135341"><ele>4.0</ele><time>2026-03-29T15:20:30.322Z</time></trkpt><trkpt lat="40.6919937" lon="9.713427"><ele>4.0</ele><time>2026-03-29T15:20:31.269Z</time></trkpt><trkpt lat="40.6919643" lon="9.7133365"><ele>4.0</ele><time>2026-03-29T15:20:32.268Z</time></trkpt><trkpt lat="40.6920578" lon="9.7132309"><ele>4.0</ele><time>2026-03-29T15:20:34.273Z</time></trkpt><trkpt lat="40.6921603" lon="9.7131988"><ele>4.0</ele><time>2026-03-29T15:20:35.291Z</time></trkpt><trkpt lat="40.6922843" lon="9.7131676"><ele>4.0</ele><time>2026-03-29T15:20:36.269Z</time></trkpt><trkpt lat="40.6924144" lon="9.7131334"><ele>4.0</ele><time>2026-03-29T15:20:37.269Z</time></trkpt><trkpt lat="40.692549" lon="9.7130931"><ele>4.0</ele><time>2026-03-29T15:20:38.264Z</time></trkpt><trkpt lat="40.6926744" lon="9.7130485"><ele>4.0</ele><time>2026-03-29T15:20:39.27Z</time></trkpt><trkpt lat="40.6927914" lon="9.7129971"><ele>3.5</ele><time>2026-03-29T15:20:40.264Z</time></trkpt><trkpt lat="40.6929189" lon="9.7129637"><ele>3.0</ele><time>2026-03-29T15:20:41.317Z</time></trkpt><trkpt lat="40.6930527" lon="9.7129487"><ele>2.5</ele><time>2026-03-29T15:20:42.277Z</time></trkpt><trkpt lat="40.6931799" lon="9.7129561"><ele>2.0</ele><time>2026-03-29T15:20:43.273Z</time></trkpt><trkpt lat="40.6933022" lon="9.7129766"><ele>2.0</ele><time>2026-03-29T15:20:44.271Z</time></trkpt><trkpt lat="40.693424" lon="9.7129642"><ele>2.0</ele><time>2026-03-29T15:20:45.268Z</time></trkpt><trkpt lat="40.6935479" lon="9.7129224"><ele>2.0</ele><time>2026-03-29T15:20:46.273Z</time></trkpt><trkpt lat="40.6936765" lon="9.71288"><ele>2.0</ele><time>2026-03-29T15:20:47.273Z</time></trkpt><trkpt lat="40.6938083" lon="9.7128597"><ele>2.2</ele><time>2026-03-29T15:20:48.269Z</time></trkpt><trkpt lat="40.6939187" lon="9.7128597"><ele>2.4000000000000004</ele><time>2026-03-29T15:20:49.293Z</time></trkpt><trkpt lat="40.6940043" lon="9.7128735"><ele>2.5999999999999996</ele><time>2026-03-29T15:20:50.27Z</time></trkpt><trkpt lat="40.6941079" lon="9.7129729"><ele>2.8</ele><time>2026-03-29T15:20:52.268Z</time></trkpt><trkpt lat="40.6941335" lon="9.7130608"><ele>3.0</ele><time>2026-03-29T15:20:53.269Z</time></trkpt><trkpt lat="40.6941968" lon="9.7131792"><ele>3.0</ele><time>2026-03-29T15:20:54.277Z</time></trkpt><trkpt lat="40.6942619" lon="9.7133108"><ele>3.0</ele><time>2026-03-29T15:20:55.273Z</time></trkpt><trkpt lat="40.6943244" lon="9.713455"><ele>3.0</ele><time>2026-03-29T15:20:56.269Z</time></trkpt><trkpt lat="40.6943759" lon="9.7135777"><ele>3.0</ele><time>2026-03-29T15:20:57.269Z</time></trkpt><trkpt lat="40.6944046" lon="9.7136599"><ele>3.0</ele><time>2026-03-29T15:20:58.265Z</time></trkpt><trkpt lat="40.6944381" lon="9.7137308"><ele>2.8</ele><time>2026-03-29T15:21:00.271Z</time></trkpt><trkpt lat="40.6945484" lon="9.7136904"><ele>2.5999999999999996</ele><time>2026-03-29T15:21:03.269Z</time></trkpt><trkpt lat="40.6946272" lon="9.7135759"><ele>2.4000000000000004</ele><time>2026-03-29T15:21:05.265Z</time></trkpt><trkpt lat="40.6946916" lon="9.7135284"><ele>2.2</ele><time>2026-03-29T15:21:06.268Z</time></trkpt><trkpt lat="40.6946783" lon="9.713392"><ele>2.0</ele><time>2026-03-29T15:21:08.268Z</time></trkpt><trkpt lat="40.6946428" lon="9.7132792"><ele>1.9999999999999998</ele><time>2026-03-29T15:21:09.28Z</time></trkpt><trkpt lat="40.6946202" lon="9.7131521"><ele>2.0</ele><time>2026-03-29T15:21:10.267Z</time></trkpt><trkpt lat="40.6946168" lon="9.7130261"><ele>2.0</ele><time>2026-03-29T15:21:11.266Z</time></trkpt><trkpt lat="40.6946354" lon="9.7129072"><ele>2.0</ele><time>2026-03-29T15:21:12.272Z</time></trkpt><trkpt lat="40.6946773" lon="9.7128078"><ele>1.9999999999999998</ele><time>2026-03-29T15:21:13.262Z</time></trkpt><trkpt lat="40.6947296" lon="9.712738"><ele>2.0</ele><time>2026-03-29T15:21:14.294Z</time></trkpt><trkpt lat="40.6947915" lon="9.7126739"><ele>2.25</ele><time>2026-03-29T15:21:15.273Z</time></trkpt><trkpt lat="40.6948986" lon="9.7126203"><ele>2.5</ele><time>2026-03-29T15:21:16.271Z</time></trkpt><trkpt lat="40.6950206" lon="9.7125661"><ele>2.75</ele><time>2026-03-29T15:21:17.275Z</time></trkpt><trkpt lat="40.6951554" lon="9.7125077"><ele>3.0</ele><time>2026-03-29T15:21:18.271Z</time></trkpt><trkpt lat="40.6952887" lon="9.7124425"><ele>3.333333333333333</ele><time>2026-03-29T15:21:19.266Z</time></trkpt><trkpt lat="40.6954225" lon="9.7123693"><ele>3.6666666666666665</ele><time>2026-03-29T15:21:20.277Z</time></trkpt><trkpt lat="40.6955624" lon="9.71229"><ele>4.0</ele><time>2026-03-29T15:21:21.27Z</time></trkpt><trkpt lat="40.6957063" lon="9.7122132"><ele>4.0</ele><time>2026-03-29T15:21:22.29Z</time></trkpt><trkpt lat="40.6958515" lon="9.7121364"><ele>4.0</ele><time>2026-03-29T15:21:23.273Z</time></trkpt><trkpt lat="40.6959999" lon="9.7120632"><ele>4.0</ele><time>2026-03-29T15:21:24.272Z</time></trkpt><trkpt lat="40.6961507" lon="9.7119854"><ele>6.0</ele><time>2026-03-29T15:21:25.269Z</time></trkpt><trkpt lat="40.696294" lon="9.711894"><ele>8.0</ele><time>2026-03-29T15:21:26.265Z</time></trkpt><trkpt lat="40.6964253" lon="9.7117932"><ele>10.0</ele><time>2026-03-29T15:21:27.271Z</time></trkpt><trkpt lat="40.6965547" lon="9.7116939"><ele>10.0</ele><time>2026-03-29T15:21:28.267Z</time></trkpt><trkpt lat="40.6966856" lon="9.711606"><ele>10.0</ele><time>2026-03-29T15:21:29.289Z</time></trkpt><trkpt lat="40.6968069" lon="9.7115318"><ele>10.0</ele><time>2026-03-29T15:21:30.271Z</time></trkpt><trkpt lat="40.6969184" lon="9.7114404"><ele>10.0</ele><time>2026-03-29T15:21:31.27Z</time></trkpt><trkpt lat="40.6970222" lon="9.7113288"><ele>10.0</ele><time>2026-03-29T15:21:32.278Z</time></trkpt><trkpt lat="40.6971284" lon="9.7112042"><ele>10.0</ele><time>2026-03-29T15:21:33.269Z</time></trkpt><trkpt lat="40.697227" lon="9.7110785"><ele>10.0</ele><time>2026-03-29T15:21:34.293Z</time></trkpt><trkpt lat="40.6973286" lon="9.710953"><ele>10.0</ele><time>2026-03-29T15:21:35.274Z</time></trkpt><trkpt lat="40.6974328" lon="9.7108578"><ele>10.4</ele><time>2026-03-29T15:21:36.273Z</time></trkpt><trkpt lat="40.6975349" lon="9.7107814"><ele>10.8</ele><time>2026-03-29T15:21:37.275Z</time></trkpt><trkpt lat="40.6976195" lon="9.7106895"><ele>11.2</ele><time>2026-03-29T15:21:38.275Z</time></trkpt><trkpt lat="40.6976836" lon="9.7105795"><ele>11.6</ele><time>2026-03-29T15:21:39.274Z</time></trkpt><trkpt lat="40.6977502" lon="9.7104536"><ele>12.0</ele><time>2026-03-29T15:21:40.271Z</time></trkpt><trkpt lat="40.6978391" lon="9.7102949"><ele>12.75</ele><time>2026-03-29T15:21:41.271Z</time></trkpt><trkpt lat="40.6979139" lon="9.7101534"><ele>13.5</ele><time>2026-03-29T15:21:42.275Z</time></trkpt><trkpt lat="40.6980039" lon="9.7100016"><ele>14.25</ele><time>2026-03-29T15:21:43.27Z</time></trkpt><trkpt lat="40.6980925" lon="9.7098515"><ele>15.0</ele><time>2026-03-29T15:21:44.273Z</time></trkpt><trkpt lat="40.6981736" lon="9.7097066"><ele>15.0</ele><time>2026-03-29T15:21:45.279Z</time></trkpt><trkpt lat="40.6982363" lon="9.7095582"><ele>15.0</ele><time>2026-03-29T15:21:46.275Z</time></trkpt><trkpt lat="40.6982968" lon="9.7094076"><ele>15.0</ele><time>2026-03-29T15:21:47.274Z</time></trkpt><trkpt lat="40.6983581" lon="9.7092429"><ele>15.0</ele><time>2026-03-29T15:21:48.271Z</time></trkpt><trkpt lat="40.6984167" lon="9.7090657"><ele>15.0</ele><time>2026-03-29T15:21:49.273Z</time></trkpt><trkpt lat="40.6984693" lon="9.7088911"><ele>15.0</ele><time>2026-03-29T15:21:50.272Z</time></trkpt><trkpt lat="40.6985201" lon="9.7087064"><ele>15.0</ele><time>2026-03-29T15:21:51.271Z</time></trkpt><trkpt lat="40.6985675" lon="9.708524"><ele>15.0</ele><time>2026-03-29T15:21:52.274Z</time></trkpt><trkpt lat="40.6986186" lon="9.7083414"><ele>13.5</ele><time>2026-03-29T15:21:53.271Z</time></trkpt><trkpt lat="40.6986703" lon="9.708157"><ele>12.0</ele><time>2026-03-29T15:21:54.297Z</time></trkpt><trkpt lat="40.6987186" lon="9.7079737"><ele>10.5</ele><time>2026-03-29T15:21:55.272Z</time></trkpt><trkpt lat="40.6987671" lon="9.7077928"><ele>9.0</ele><time>2026-03-29T15:21:56.266Z</time></trkpt><trkpt lat="40.6988038" lon="9.7076306"><ele>8.8</ele><time>2026-03-29T15:21:57.278Z</time></trkpt><trkpt lat="40.698838" lon="9.7074865"><ele>8.600000000000001</ele><time>2026-03-29T15:21:58.265Z</time></trkpt><trkpt lat="40.6988705" lon="9.7073657"><ele>8.4</ele><time>2026-03-29T15:21:59.286Z</time></trkpt><trkpt lat="40.6988908" lon="9.7072782"><ele>8.200000000000001</ele><time>2026-03-29T15:22:00.263Z</time></trkpt><trkpt lat="40.6988894" lon="9.707161"><ele>8.0</ele><time>2026-03-29T15:22:02.271Z</time></trkpt><trkpt lat="40.6988472" lon="9.7070711"><ele>8.0</ele><time>2026-03-29T15:22:04.275Z</time></trkpt><trkpt lat="40.6987271" lon="9.7069667"><ele>8.0</ele><time>2026-03-29T15:22:10.261Z</time></trkpt><trkpt lat="40.6986608" lon="9.7069184"><ele>8.0</ele><time>2026-03-29T15:22:11.27Z</time></trkpt><trkpt lat="40.6986056" lon="9.7068752"><ele>8.0</ele><time>2026-03-29T15:22:12.265Z</time></trkpt><trkpt lat="40.6985462" lon="9.7067971"><ele>8.0</ele><time>2026-03-29T15:22:13.272Z</time></trkpt><trkpt lat="40.6985055" lon="9.7067004"><ele>8.4</ele><time>2026-03-29T15:22:14.266Z</time></trkpt><trkpt lat="40.6984989" lon="9.7066103"><ele>8.8</ele><time>2026-03-29T15:22:15.294Z</time></trkpt><trkpt lat="40.6984977" lon="9.7065103"><ele>9.2</ele><time>2026-03-29T15:22:16.266Z</time></trkpt><trkpt lat="40.6985006" lon="9.7063792"><ele>9.6</ele><time>2026-03-29T15:22:17.268Z</time></trkpt><trkpt lat="40.6985038" lon="9.7062371"><ele>10.0</ele><time>2026-03-29T15:22:18.265Z</time></trkpt><trkpt lat="40.6984998" lon="9.7060964"><ele>10.0</ele><time>2026-03-29T15:22:19.278Z</time></trkpt><trkpt lat="40.6984956" lon="9.705966"><ele>10.0</ele><time>2026-03-29T15:22:20.269Z</time></trkpt><trkpt lat="40.6984899" lon="9.7058518"><ele>10.0</ele><time>2026-03-29T15:22:21.271Z</time></trkpt><trkpt lat="40.6984873" lon="9.7057676"><ele>10.0</ele><time>2026-03-29T15:22:22.274Z</time></trkpt><trkpt lat="40.69852" lon="9.7056117"><ele>10.0</ele><time>2026-03-29T15:22:24.268Z</time></trkpt><trkpt lat="40.6985536" lon="9.7055363"><ele>10.0</ele><time>2026-03-29T15:22:25.279Z</time></trkpt><trkpt lat="40.6985751" lon="9.7054463"><ele>10.0</ele><time>2026-03-29T15:22:26.269Z</time></trkpt><trkpt lat="40.6985583" lon="9.7053361"><ele>10.0</ele><time>2026-03-29T15:22:27.271Z</time></trkpt><trkpt lat="40.6985369" lon="9.705191"><ele>10.0</ele><time>2026-03-29T15:22:28.265Z</time></trkpt><trkpt lat="40.6985305" lon="9.7050033"><ele>10.0</ele><time>2026-03-29T15:22:29.268Z</time></trkpt><trkpt lat="40.6985253" lon="9.7048174"><ele>10.25</ele><time>2026-03-29T15:22:30.269Z</time></trkpt><trkpt lat="40.6985158" lon="9.7046624"><ele>10.5</ele><time>2026-03-29T15:22:31.268Z</time></trkpt><trkpt lat="40.6985157" lon="9.7044887"><ele>10.75</ele><time>2026-03-29T15:22:32.273Z</time></trkpt><trkpt lat="40.69851" lon="9.704331"><ele>11.0</ele><time>2026-03-29T15:22:33.27Z</time></trkpt><trkpt lat="40.6985092" lon="9.7041936"><ele>11.0</ele><time>2026-03-29T15:22:34.272Z</time></trkpt><trkpt lat="40.6985038" lon="9.7040928"><ele>11.0</ele><time>2026-03-29T15:22:35.273Z</time></trkpt><trkpt lat="40.6984931" lon="9.7040029"><ele>11.0</ele><time>2026-03-29T15:22:36.269Z</time></trkpt><trkpt lat="40.6985106" lon="9.7039044"><ele>11.0</ele><time>2026-03-29T15:22:37.286Z</time></trkpt><trkpt lat="40.6985469" lon="9.7038129"><ele>11.0</ele><time>2026-03-29T15:22:38.266Z</time></trkpt><trkpt lat="40.6985736" lon="9.7037214"><ele>11.0</ele><time>2026-03-29T15:22:39.267Z</time></trkpt><trkpt lat="40.6985723" lon="9.703607"><ele>11.0</ele><time>2026-03-29T15:22:40.262Z</time></trkpt><trkpt lat="40.6985724" lon="9.7034651"><ele>11.0</ele><time>2026-03-29T15:22:41.27Z</time></trkpt><trkpt lat="40.6985908" lon="9.7033104"><ele>11.0</ele><time>2026-03-29T15:22:42.259Z</time></trkpt><trkpt lat="40.6986163" lon="9.7031547"><ele>11.0</ele><time>2026-03-29T15:22:43.269Z</time></trkpt><trkpt lat="40.6986434" lon="9.7029843"><ele>11.200000000000001</ele><time>2026-03-29T15:22:44.271Z</time></trkpt><trkpt lat="40.6986681" lon="9.7028244"><ele>11.4</ele><time>2026-03-29T15:22:45.265Z</time></trkpt><trkpt lat="40.6987071" lon="9.7026831"><ele>11.6</ele><time>2026-03-29T15:22:46.267Z</time></trkpt><trkpt lat="40.69874" lon="9.7025685"><ele>11.8</ele><time>2026-03-29T15:22:47.275Z</time></trkpt><trkpt lat="40.6987674" lon="9.7024887"><ele>12.0</ele><time>2026-03-29T15:22:48.297Z</time></trkpt><trkpt lat="40.6988091" lon="9.7023993"><ele>12.166666666666666</ele><time>2026-03-29T15:22:50.271Z</time></trkpt><trkpt lat="40.6988929" lon="9.7023967"><ele>12.333333333333332</ele><time>2026-03-29T15:22:52.275Z</time></trkpt><trkpt lat="40.6989791" lon="9.702476"><ele>12.5</ele><time>2026-03-29T15:22:54.272Z</time></trkpt><trkpt lat="40.6990567" lon="9.7025587"><ele>12.666666666666666</ele><time>2026-03-29T15:22:56.27Z</time></trkpt><trkpt lat="40.6991464" lon="9.7025152"><ele>12.833333333333332</ele><time>2026-03-29T15:22:58.269Z</time></trkpt><trkpt lat="40.6991819" lon="9.7024457"><ele>13.0</ele><time>2026-03-29T15:23:00.271Z</time></trkpt><trkpt lat="40.699217" lon="9.7023565"><ele>13.0</ele><time>2026-03-29T15:23:02.271Z</time></trkpt><trkpt lat="40.6992554" lon="9.7022319"><ele>13.0</ele><time>2026-03-29T15:23:04.271Z</time></trkpt><trkpt lat="40.6992904" lon="9.7020826"><ele>13.0</ele><time>2026-03-29T15:23:06.269Z</time></trkpt><trkpt lat="40.6993223" lon="9.701945"><ele>13.0</ele><time>2026-03-29T15:23:08.291Z</time></trkpt><trkpt lat="40.6993787" lon="9.7018661"><ele>13.0</ele><time>2026-03-29T15:23:10.271Z</time></trkpt><trkpt lat="40.6994873" lon="9.7018322"><ele>12.999999999999998</ele><time>2026-03-29T15:23:12.276Z</time></trkpt><trkpt lat="40.6995608" lon="9.7018002"><ele>13.0</ele><time>2026-03-29T15:23:13.263Z</time></trkpt><trkpt lat="40.6996257" lon="9.7017608"><ele>13.0</ele><time>2026-03-29T15:23:14.262Z</time></trkpt><trkpt lat="40.6997344" lon="9.7016843"><ele>13.0</ele><time>2026-03-29T15:23:16.272Z</time></trkpt><trkpt lat="40.6997949" lon="9.701647"><ele>12.999999999999998</ele><time>2026-03-29T15:23:17.28Z</time></trkpt><trkpt lat="40.6998653" lon="9.7016047"><ele>13.0</ele><time>2026-03-29T15:23:18.263Z</time></trkpt><trkpt lat="40.6999329" lon="9.7015489"><ele>13.0</ele><time>2026-03-29T15:23:19.273Z</time></trkpt><trkpt lat="40.7000025" lon="9.7014772"><ele>13.0</ele><time>2026-03-29T15:23:20.267Z</time></trkpt><trkpt lat="40.7000765" lon="9.7013981"><ele>13.0</ele><time>2026-03-29T15:23:21.263Z</time></trkpt><trkpt lat="40.7001491" lon="9.7013073"><ele>13.0</ele><time>2026-03-29T15:23:22.264Z</time></trkpt><trkpt lat="40.7002169" lon="9.7012147"><ele>13.0</ele><time>2026-03-29T15:23:23.263Z</time></trkpt><trkpt lat="40.7002997" lon="9.7011482"><ele>13.0</ele><time>2026-03-29T15:23:24.267Z</time></trkpt><trkpt lat="40.7003959" lon="9.701097"><ele>13.0</ele><time>2026-03-29T15:23:25.272Z</time></trkpt><trkpt lat="40.7004938" lon="9.7010461"><ele>13.0</ele><time>2026-03-29T15:23:26.272Z</time></trkpt><trkpt lat="40.7005868" lon="9.7010128"><ele>13.0</ele><time>2026-03-29T15:23:27.282Z</time></trkpt><trkpt lat="40.7006697" lon="9.7009791"><ele>13.0</ele><time>2026-03-29T15:23:28.264Z</time></trkpt><trkpt lat="40.7007297" lon="9.7009477"><ele>12.999999999999998</ele><time>2026-03-29T15:23:29.27Z</time></trkpt><trkpt lat="40.7007786" lon="9.7008604"><ele>13.0</ele><time>2026-03-29T15:23:59.27Z</time></trkpt><trkpt lat="40.7007784" lon="9.7007447"><ele>13.0</ele><time>2026-03-29T15:24:03.276Z</time></trkpt><trkpt lat="40.700769" lon="9.7006218"><ele>13.0</ele><time>2026-03-29T15:24:06.265Z</time></trkpt><trkpt lat="40.7007678" lon="9.700537"><ele>12.999999999999998</ele><time>2026-03-29T15:24:08.275Z</time></trkpt><trkpt lat="40.700771" lon="9.7004387"><ele>13.0</ele><time>2026-03-29T15:24:10.269Z</time></trkpt><trkpt lat="40.7007594" lon="9.7003191"><ele>13.166666666666666</ele><time>2026-03-29T15:24:12.271Z</time></trkpt><trkpt lat="40.700726" lon="9.7001939"><ele>13.333333333333332</ele><time>2026-03-29T15:24:14.271Z</time></trkpt><trkpt lat="40.700699" lon="9.7001179"><ele>13.5</ele><time>2026-03-29T15:24:15.264Z</time></trkpt><trkpt lat="40.7006714" lon="9.7000349"><ele>13.666666666666668</ele><time>2026-03-29T15:24:16.283Z</time></trkpt><trkpt lat="40.7006421" lon="9.6999468"><ele>13.833333333333334</ele><time>2026-03-29T15:24:17.267Z</time></trkpt><trkpt lat="40.7006064" lon="9.6998409"><ele>14.0</ele><time>2026-03-29T15:24:18.273Z</time></trkpt><trkpt lat="40.700571" lon="9.6997303"><ele>14.0</ele><time>2026-03-29T15:24:19.272Z</time></trkpt><trkpt lat="40.7005355" lon="9.699614"><ele>13.999999999999998</ele><time>2026-03-29T15:24:20.271Z</time></trkpt><trkpt lat="40.7004977" lon="9.6995069"><ele>13.999999999999998</ele><time>2026-03-29T15:24:21.27Z</time></trkpt><trkpt lat="40.700459" lon="9.6994006"><ele>14.0</ele><time>2026-03-29T15:24:22.271Z</time></trkpt><trkpt lat="40.7004043" lon="9.6992937"><ele>14.0</ele><time>2026-03-29T15:24:23.269Z</time></trkpt><trkpt lat="40.7003293" lon="9.6991866"><ele>14.166666666666668</ele><time>2026-03-29T15:24:24.27Z</time></trkpt><trkpt lat="40.700258" lon="9.6990867"><ele>14.333333333333334</ele><time>2026-03-29T15:24:25.288Z</time></trkpt><trkpt lat="40.700191" lon="9.6989857"><ele>14.5</ele><time>2026-03-29T15:24:26.273Z</time></trkpt><trkpt lat="40.700133" lon="9.6988929"><ele>14.666666666666668</ele><time>2026-03-29T15:24:27.265Z</time></trkpt><trkpt lat="40.700082" lon="9.6988019"><ele>14.833333333333334</ele><time>2026-03-29T15:24:28.277Z</time></trkpt><trkpt lat="40.7000569" lon="9.6987206"><ele>15.0</ele><time>2026-03-29T15:24:29.269Z</time></trkpt><trkpt lat="40.7001148" lon="9.6985721"><ele>15.4</ele><time>2026-03-29T15:24:31.264Z</time></trkpt><trkpt lat="40.7001797" lon="9.6984819"><ele>15.8</ele><time>2026-03-29T15:24:32.273Z</time></trkpt><trkpt lat="40.7002486" lon="9.6983761"><ele>16.2</ele><time>2026-03-29T15:24:33.27Z</time></trkpt><trkpt lat="40.7003285" lon="9.6982653"><ele>16.6</ele><time>2026-03-29T15:24:34.268Z</time></trkpt><trkpt lat="40.7004075" lon="9.6981501"><ele>17.0</ele><time>2026-03-29T15:24:35.269Z</time></trkpt><trkpt lat="40.7004951" lon="9.6980351"><ele>17.0</ele><time>2026-03-29T15:24:36.271Z</time></trkpt><trkpt lat="40.7005834" lon="9.6979307"><ele>17.0</ele><time>2026-03-29T15:24:37.275Z</time></trkpt><trkpt lat="40.7006699" lon="9.6978319"><ele>17.0</ele><time>2026-03-29T15:24:38.27Z</time></trkpt><trkpt lat="40.7007425" lon="9.6977471"><ele>17.0</ele><time>2026-03-29T15:24:39.269Z</time></trkpt><trkpt lat="40.7007977" lon="9.69767"><ele>17.0</ele><time>2026-03-29T15:24:40.266Z</time></trkpt><trkpt lat="40.7008294" lon="9.6975957"><ele>17.5</ele><time>2026-03-29T15:24:41.291Z</time></trkpt><trkpt lat="40.7008315" lon="9.697416"><ele>18.0</ele><time>2026-03-29T15:24:43.269Z</time></trkpt><trkpt lat="40.700823" lon="9.6972951"><ele>18.5</ele><time>2026-03-29T15:24:44.263Z</time></trkpt><trkpt lat="40.7008281" lon="9.6971476"><ele>19.0</ele><time>2026-03-29T15:24:45.274Z</time></trkpt><trkpt lat="40.7008356" lon="9.6969949"><ele>19.5</ele><time>2026-03-29T15:24:46.277Z</time></trkpt><trkpt lat="40.7008352" lon="9.6968322"><ele>20.0</ele><time>2026-03-29T15:24:47.271Z</time></trkpt><trkpt lat="40.7008279" lon="9.6966646"><ele>20.5</ele><time>2026-03-29T15:24:48.293Z</time></trkpt><trkpt lat="40.7008174" lon="9.6964953"><ele>21.0</ele><time>2026-03-29T15:24:49.274Z</time></trkpt><trkpt lat="40.700801" lon="9.6963279"><ele>21.0</ele><time>2026-03-29T15:24:50.275Z</time></trkpt><trkpt lat="40.7007823" lon="9.6961602"><ele>21.0</ele><time>2026-03-29T15:24:51.27Z</time></trkpt><trkpt lat="40.7007682" lon="9.6959973"><ele>21.0</ele><time>2026-03-29T15:24:52.274Z</time></trkpt><trkpt lat="40.7007478" lon="9.6958364"><ele>21.0</ele><time>2026-03-29T15:24:53.272Z</time></trkpt><trkpt lat="40.7007285" lon="9.695669"><ele>21.25</ele><time>2026-03-29T15:24:54.265Z</time></trkpt><trkpt lat="40.7007198" lon="9.6954924"><ele>21.5</ele><time>2026-03-29T15:24:55.27Z</time></trkpt><trkpt lat="40.7007149" lon="9.6953116"><ele>21.75</ele><time>2026-03-29T15:24:56.268Z</time></trkpt><trkpt lat="40.7007107" lon="9.6951425"><ele>22.0</ele><time>2026-03-29T15:24:57.289Z</time></trkpt><trkpt lat="40.7007083" lon="9.6949686"><ele>22.25</ele><time>2026-03-29T15:24:58.264Z</time></trkpt><trkpt lat="40.7007077" lon="9.6947955"><ele>22.5</ele><time>2026-03-29T15:24:59.262Z</time></trkpt><trkpt lat="40.7006984" lon="9.6946356"><ele>22.75</ele><time>2026-03-29T15:25:00.264Z</time></trkpt><trkpt lat="40.7006896" lon="9.6944842"><ele>23.0</ele><time>2026-03-29T15:25:01.269Z</time></trkpt><trkpt lat="40.7006587" lon="9.694344"><ele>23.599999999999998</ele><time>2026-03-29T15:25:02.264Z</time></trkpt><trkpt lat="40.7006213" lon="9.694203"><ele>24.2</ele><time>2026-03-29T15:25:03.268Z</time></trkpt><trkpt lat="40.700587" lon="9.6940663"><ele>24.8</ele><time>2026-03-29T15:25:04.291Z</time></trkpt><trkpt lat="40.7005597" lon="9.6939291"><ele>25.4</ele><time>2026-03-29T15:25:05.271Z</time></trkpt><trkpt lat="40.7005282" lon="9.6937843"><ele>26.0</ele><time>2026-03-29T15:25:06.265Z</time></trkpt><trkpt lat="40.7004966" lon="9.6936341"><ele>26.4</ele><time>2026-03-29T15:25:07.271Z</time></trkpt><trkpt lat="40.7004689" lon="9.6934919"><ele>26.8</ele><time>2026-03-29T15:25:08.263Z</time></trkpt><trkpt lat="40.7004434" lon="9.6933685"><ele>27.199999999999996</ele><time>2026-03-29T15:25:09.282Z</time></trkpt><trkpt lat="40.7004166" lon="9.693247"><ele>27.599999999999998</ele><time>2026-03-29T15:25:10.263Z</time></trkpt><trkpt lat="40.7004026" lon="9.6931047"><ele>28.0</ele><time>2026-03-29T15:25:11.271Z</time></trkpt><trkpt lat="40.7003909" lon="9.6929582"><ele>28.0</ele><time>2026-03-29T15:25:12.263Z</time></trkpt><trkpt lat="40.7003819" lon="9.6928008"><ele>28.0</ele><time>2026-03-29T15:25:13.268Z</time></trkpt><trkpt lat="40.7003718" lon="9.6926406"><ele>28.0</ele><time>2026-03-29T15:25:14.268Z</time></trkpt><trkpt lat="40.7003607" lon="9.692488"><ele>28.0</ele><time>2026-03-29T15:25:15.268Z</time></trkpt><trkpt lat="40.7003535" lon="9.6923453"><ele>28.599999999999998</ele><time>2026-03-29T15:25:16.278Z</time></trkpt><trkpt lat="40.7003584" lon="9.6922048"><ele>29.199999999999996</ele><time>2026-03-29T15:25:17.266Z</time></trkpt><trkpt lat="40.7003658" lon="9.6920691"><ele>29.8</ele><time>2026-03-29T15:25:18.269Z</time></trkpt><trkpt lat="40.7003743" lon="9.6919315"><ele>30.4</ele><time>2026-03-29T15:25:19.271Z</time></trkpt><trkpt lat="40.7003976" lon="9.6917998"><ele>31.0</ele><time>2026-03-29T15:25:20.274Z</time></trkpt><trkpt lat="40.7004201" lon="9.6916575"><ele>31.6</ele><time>2026-03-29T15:25:21.263Z</time></trkpt><trkpt lat="40.7004454" lon="9.6915192"><ele>32.2</ele><time>2026-03-29T15:25:22.281Z</time></trkpt><trkpt lat="40.7004694" lon="9.6913912"><ele>32.8</ele><time>2026-03-29T15:25:23.269Z</time></trkpt><trkpt lat="40.7005002" lon="9.6912653"><ele>33.4</ele><time>2026-03-29T15:25:24.264Z</time></trkpt><trkpt lat="40.7005278" lon="9.6911403"><ele>34.0</ele><time>2026-03-29T15:25:25.267Z</time></trkpt><trkpt lat="40.7005477" lon="9.6910203"><ele>34.333333333333336</ele><time>2026-03-29T15:25:26.268Z</time></trkpt><trkpt lat="40.7005695" lon="9.6909035"><ele>34.66666666666667</ele><time>2026-03-29T15:25:27.288Z</time></trkpt><trkpt lat="40.7005911" lon="9.6907943"><ele>35.0</ele><time>2026-03-29T15:25:28.262Z</time></trkpt><trkpt lat="40.7006154" lon="9.6906849"><ele>35.333333333333336</ele><time>2026-03-29T15:25:29.27Z</time></trkpt><trkpt lat="40.7006369" lon="9.6905774"><ele>35.666666666666664</ele><time>2026-03-29T15:25:30.265Z</time></trkpt><trkpt lat="40.7006572" lon="9.690478"><ele>36.0</ele><time>2026-03-29T15:25:31.271Z</time></trkpt><trkpt lat="40.7006853" lon="9.6903793"><ele>36.0</ele><time>2026-03-29T15:25:32.265Z</time></trkpt><trkpt lat="40.7007112" lon="9.6902855"><ele>36.0</ele><time>2026-03-29T15:25:33.304Z</time></trkpt><trkpt lat="40.7007362" lon="9.690208"><ele>36.0</ele><time>2026-03-29T15:25:34.267Z</time></trkpt><trkpt lat="40.7007888" lon="9.6900693"><ele>36.0</ele><time>2026-03-29T15:25:36.266Z</time></trkpt><trkpt lat="40.700828" lon="9.6900037"><ele>36.0</ele><time>2026-03-29T15:25:37.265Z</time></trkpt><trkpt lat="40.7008905" lon="9.6899281"><ele>36.0</ele><time>2026-03-29T15:25:38.265Z</time></trkpt><trkpt lat="40.7009574" lon="9.6898575"><ele>36.0</ele><time>2026-03-29T15:25:39.268Z</time></trkpt><trkpt lat="40.701035" lon="9.6897881"><ele>36.0</ele><time>2026-03-29T15:25:40.273Z</time></trkpt><trkpt lat="40.701114" lon="9.6897211"><ele>36.0</ele><time>2026-03-29T15:25:41.271Z</time></trkpt><trkpt lat="40.7012133" lon="9.6896864"><ele>36.0</ele><time>2026-03-29T15:25:42.262Z</time></trkpt><trkpt lat="40.7013158" lon="9.689666"><ele>36.0</ele><time>2026-03-29T15:25:43.263Z</time></trkpt><trkpt lat="40.7014118" lon="9.6896323"><ele>36.5</ele><time>2026-03-29T15:25:44.264Z</time></trkpt><trkpt lat="40.7014902" lon="9.6896033"><ele>37.0</ele><time>2026-03-29T15:25:45.267Z</time></trkpt><trkpt lat="40.7015616" lon="9.689586"><ele>37.5</ele><time>2026-03-29T15:25:46.283Z</time></trkpt><trkpt lat="40.70163" lon="9.689597"><ele>38.0</ele><time>2026-03-29T15:25:47.266Z</time></trkpt><trkpt lat="40.7017083" lon="9.6896405"><ele>38.5</ele><time>2026-03-29T15:25:48.265Z</time></trkpt><trkpt lat="40.7017964" lon="9.6897129"><ele>39.0</ele><time>2026-03-29T15:25:49.26Z</time></trkpt><trkpt lat="40.7018903" lon="9.689808"><ele>40.75</ele><time>2026-03-29T15:25:50.268Z</time></trkpt><trkpt lat="40.7019897" lon="9.6899072"><ele>42.5</ele><time>2026-03-29T15:25:51.266Z</time></trkpt><trkpt lat="40.702089" lon="9.6900112"><ele>44.25</ele><time>2026-03-29T15:25:52.267Z</time></trkpt><trkpt lat="40.7021887" lon="9.6901083"><ele>46.0</ele><time>2026-03-29T15:25:53.277Z</time></trkpt><trkpt lat="40.7022874" lon="9.6901992"><ele>45.25</ele><time>2026-03-29T15:25:54.265Z</time></trkpt><trkpt lat="40.7023892" lon="9.6902823"><ele>44.5</ele><time>2026-03-29T15:25:55.266Z</time></trkpt><trkpt lat="40.7024915" lon="9.6903645"><ele>43.75</ele><time>2026-03-29T15:25:56.271Z</time></trkpt><trkpt lat="40.7025984" lon="9.6904209"><ele>43.0</ele><time>2026-03-29T15:25:57.264Z</time></trkpt><trkpt lat="40.7027145" lon="9.6904734"><ele>40.5</ele><time>2026-03-29T15:25:58.291Z</time></trkpt><trkpt lat="40.7028325" lon="9.6905106"><ele>38.0</ele><time>2026-03-29T15:25:59.27Z</time></trkpt><trkpt lat="40.702954" lon="9.6905354"><ele>35.5</ele><time>2026-03-29T15:26:00.268Z</time></trkpt><trkpt lat="40.7030789" lon="9.6905492"><ele>33.0</ele><time>2026-03-29T15:26:01.268Z</time></trkpt><trkpt lat="40.7032068" lon="9.6905568"><ele>33.0</ele><time>2026-03-29T15:26:02.269Z</time></trkpt><trkpt lat="40.7033382" lon="9.6905699"><ele>33.0</ele><time>2026-03-29T15:26:03.284Z</time></trkpt><trkpt lat="40.7034676" lon="9.6905839"><ele>33.0</ele><time>2026-03-29T15:26:04.268Z</time></trkpt><trkpt lat="40.7035825" lon="9.6906342"><ele>33.0</ele><time>2026-03-29T15:26:05.272Z</time></trkpt><trkpt lat="40.7036806" lon="9.6907021"><ele>34.0</ele><time>2026-03-29T15:26:06.272Z</time></trkpt><trkpt lat="40.7037662" lon="9.690797"><ele>35.0</ele><time>2026-03-29T15:26:07.261Z</time></trkpt><trkpt lat="40.7038356" lon="9.6909097"><ele>36.0</ele><time>2026-03-29T15:26:08.276Z</time></trkpt><trkpt lat="40.7039068" lon="9.6910296"><ele>37.0</ele><time>2026-03-29T15:26:09.261Z</time></trkpt><trkpt lat="40.7039615" lon="9.69117"><ele>35.0</ele><time>2026-03-29T15:26:10.265Z</time></trkpt><trkpt lat="40.7040141" lon="9.6913149"><ele>33.0</ele><time>2026-03-29T15:26:11.265Z</time></trkpt><trkpt lat="40.7040625" lon="9.6914652"><ele>31.0</ele><time>2026-03-29T15:26:12.26Z</time></trkpt><trkpt lat="40.7041014" lon="9.691613"><ele>29.0</ele><time>2026-03-29T15:26:13.269Z</time></trkpt><trkpt lat="40.7041264" lon="9.6917729"><ele>27.75</ele><time>2026-03-29T15:26:14.266Z</time></trkpt><trkpt lat="40.7041504" lon="9.6919348"><ele>26.5</ele><time>2026-03-29T15:26:15.266Z</time></trkpt><trkpt lat="40.7041594" lon="9.6921111"><ele>25.25</ele><time>2026-03-29T15:26:16.286Z</time></trkpt><trkpt lat="40.7041696" lon="9.6922898"><ele>24.0</ele><time>2026-03-29T15:26:17.259Z</time></trkpt><trkpt lat="40.7041816" lon="9.692468"><ele>24.0</ele><time>2026-03-29T15:26:18.266Z</time></trkpt><trkpt lat="40.7041904" lon="9.6926413"><ele>24.0</ele><time>2026-03-29T15:26:19.261Z</time></trkpt><trkpt lat="40.7042006" lon="9.6928104"><ele>24.0</ele><time>2026-03-29T15:26:20.263Z</time></trkpt><trkpt lat="40.7042141" lon="9.6929753"><ele>24.0</ele><time>2026-03-29T15:26:21.26Z</time></trkpt><trkpt lat="40.7042316" lon="9.6931325"><ele>23.5</ele><time>2026-03-29T15:26:22.283Z</time></trkpt><trkpt lat="40.7042616" lon="9.6932836"><ele>23.0</ele><time>2026-03-29T15:26:23.27Z</time></trkpt><trkpt lat="40.7043074" lon="9.6934386"><ele>22.5</ele><time>2026-03-29T15:26:24.267Z</time></trkpt><trkpt lat="40.704364" lon="9.6935966"><ele>22.0</ele><time>2026-03-29T15:26:25.262Z</time></trkpt><trkpt lat="40.7044233" lon="9.6937632"><ele>22.0</ele><time>2026-03-29T15:26:26.266Z</time></trkpt><trkpt lat="40.7044903" lon="9.6939339"><ele>22.0</ele><time>2026-03-29T15:26:27.264Z</time></trkpt><trkpt lat="40.7045579" lon="9.694106"><ele>22.0</ele><time>2026-03-29T15:26:28.272Z</time></trkpt><trkpt lat="40.7046284" lon="9.6942914"><ele>21.333333333333332</ele><time>2026-03-29T15:26:29.266Z</time></trkpt><trkpt lat="40.7047009" lon="9.6944849"><ele>20.666666666666668</ele><time>2026-03-29T15:26:30.264Z</time></trkpt><trkpt lat="40.7047685" lon="9.6946765"><ele>20.0</ele><time>2026-03-29T15:26:31.264Z</time></trkpt><trkpt lat="40.7048325" lon="9.6948578"><ele>20.0</ele><time>2026-03-29T15:26:32.264Z</time></trkpt><trkpt lat="40.7048924" lon="9.6950365"><ele>20.0</ele><time>2026-03-29T15:26:33.265Z</time></trkpt><trkpt lat="40.7049566" lon="9.6952288"><ele>20.0</ele><time>2026-03-29T15:26:34.26Z</time></trkpt><trkpt lat="40.705023" lon="9.6954265"><ele>19.333333333333336</ele><time>2026-03-29T15:26:35.261Z</time></trkpt><trkpt lat="40.7050875" lon="9.6956349"><ele>18.666666666666668</ele><time>2026-03-29T15:26:36.265Z</time></trkpt><trkpt lat="40.705145" lon="9.6958565"><ele>18.0</ele><time>2026-03-29T15:26:37.262Z</time></trkpt><trkpt lat="40.7052007" lon="9.6960834"><ele>16.666666666666668</ele><time>2026-03-29T15:26:38.261Z</time></trkpt><trkpt lat="40.7052533" lon="9.6963006"><ele>15.333333333333334</ele><time>2026-03-29T15:26:39.266Z</time></trkpt><trkpt lat="40.7053092" lon="9.6965168"><ele>14.0</ele><time>2026-03-29T15:26:40.265Z</time></trkpt><trkpt lat="40.7053685" lon="9.6967395"><ele>13.0</ele><time>2026-03-29T15:26:41.288Z</time></trkpt><trkpt lat="40.7054175" lon="9.6969545"><ele>12.0</ele><time>2026-03-29T15:26:42.271Z</time></trkpt><trkpt lat="40.7054657" lon="9.6971683"><ele>11.0</ele><time>2026-03-29T15:26:43.268Z</time></trkpt><trkpt lat="40.7055094" lon="9.6973847"><ele>11.0</ele><time>2026-03-29T15:26:44.269Z</time></trkpt><trkpt lat="40.7055592" lon="9.697602"><ele>11.0</ele><time>2026-03-29T15:26:45.261Z</time></trkpt><trkpt lat="40.7056098" lon="9.697816"><ele>11.0</ele><time>2026-03-29T15:26:46.288Z</time></trkpt><trkpt lat="40.7056605" lon="9.6980092"><ele>10.75</ele><time>2026-03-29T15:26:47.263Z</time></trkpt><trkpt lat="40.7057099" lon="9.6981901"><ele>10.5</ele><time>2026-03-29T15:26:48.269Z</time></trkpt><trkpt lat="40.7057618" lon="9.6983683"><ele>10.25</ele><time>2026-03-29T15:26:49.264Z</time></trkpt><trkpt lat="40.7058161" lon="9.6985518"><ele>10.0</ele><time>2026-03-29T15:26:50.264Z</time></trkpt><trkpt lat="40.7058713" lon="9.6987408"><ele>9.666666666666668</ele><time>2026-03-29T15:26:51.29Z</time></trkpt><trkpt lat="40.7059275" lon="9.6989352"><ele>9.333333333333334</ele><time>2026-03-29T15:26:52.262Z</time></trkpt><trkpt lat="40.7059854" lon="9.6991319"><ele>9.0</ele><time>2026-03-29T15:26:53.271Z</time></trkpt><trkpt lat="40.7060446" lon="9.6993244"><ele>10.0</ele><time>2026-03-29T15:26:54.269Z</time></trkpt><trkpt lat="40.7061043" lon="9.6995161"><ele>11.0</ele><time>2026-03-29T15:26:55.267Z</time></trkpt><trkpt lat="40.7061667" lon="9.699703"><ele>12.0</ele><time>2026-03-29T15:26:56.269Z</time></trkpt><trkpt lat="40.7062283" lon="9.6998893"><ele>12.0</ele><time>2026-03-29T15:26:57.268Z</time></trkpt><trkpt lat="40.7062901" lon="9.7000804"><ele>12.0</ele><time>2026-03-29T15:26:58.266Z</time></trkpt><trkpt lat="40.7063532" lon="9.700272"><ele>12.0</ele><time>2026-03-29T15:26:59.281Z</time></trkpt><trkpt lat="40.706416" lon="9.7004602"><ele>11.0</ele><time>2026-03-29T15:27:00.264Z</time></trkpt><trkpt lat="40.7064757" lon="9.7006319"><ele>10.0</ele><time>2026-03-29T15:27:01.264Z</time></trkpt><trkpt lat="40.7065312" lon="9.70079"><ele>9.0</ele><time>2026-03-29T15:27:02.268Z</time></trkpt><trkpt lat="40.7065831" lon="9.7009404"><ele>8.0</ele><time>2026-03-29T15:27:03.275Z</time></trkpt><trkpt lat="40.7066318" lon="9.7010805"><ele>7.999999999999999</ele><time>2026-03-29T15:27:04.266Z</time></trkpt><trkpt lat="40.706674" lon="9.7012035"><ele>8.0</ele><time>2026-03-29T15:27:05.272Z</time></trkpt><trkpt lat="40.7067104" lon="9.7013069"><ele>8.0</ele><time>2026-03-29T15:27:06.262Z</time></trkpt><trkpt lat="40.7067401" lon="9.7013904"><ele>8.0</ele><time>2026-03-29T15:27:07.27Z</time></trkpt><trkpt lat="40.706778" lon="9.701496"><ele>7.999999999999999</ele><time>2026-03-29T15:27:09.269Z</time></trkpt><trkpt lat="40.7068701" lon="9.7015371"><ele>8.0</ele><time>2026-03-29T15:27:12.279Z</time></trkpt><trkpt lat="40.70693" lon="9.7014989"><ele>8.0</ele><time>2026-03-29T15:27:13.266Z</time></trkpt><trkpt lat="40.707003" lon="9.7014357"><ele>8.0</ele><time>2026-03-29T15:27:14.276Z</time></trkpt><trkpt lat="40.7070839" lon="9.7013601"><ele>8.0</ele><time>2026-03-29T15:27:15.272Z</time></trkpt><trkpt lat="40.7071732" lon="9.701269"><ele>8.0</ele><time>2026-03-29T15:27:16.276Z</time></trkpt><trkpt lat="40.7072793" lon="9.7011688"><ele>8.0</ele><time>2026-03-29T15:27:17.299Z</time></trkpt><trkpt lat="40.7073888" lon="9.7010646"><ele>8.0</ele><time>2026-03-29T15:27:18.271Z</time></trkpt><trkpt lat="40.7074976" lon="9.7009557"><ele>8.0</ele><time>2026-03-29T15:27:19.27Z</time></trkpt><trkpt lat="40.7076172" lon="9.7008441"><ele>8.0</ele><time>2026-03-29T15:27:20.271Z</time></trkpt><trkpt lat="40.7077361" lon="9.7007315"><ele>8.0</ele><time>2026-03-29T15:27:21.264Z</time></trkpt><trkpt lat="40.7078582" lon="9.7006175"><ele>8.333333333333332</ele><time>2026-03-29T15:27:22.282Z</time></trkpt><trkpt lat="40.7079867" lon="9.700501"><ele>8.666666666666666</ele><time>2026-03-29T15:27:23.261Z</time></trkpt><trkpt lat="40.7081107" lon="9.7003819"><ele>9.0</ele><time>2026-03-29T15:27:24.262Z</time></trkpt><trkpt lat="40.7082364" lon="9.7002639"><ele>9.666666666666666</ele><time>2026-03-29T15:27:25.289Z</time></trkpt><trkpt lat="40.7083662" lon="9.7001468"><ele>10.333333333333332</ele><time>2026-03-29T15:27:26.269Z</time></trkpt><trkpt lat="40.7084973" lon="9.7000259"><ele>11.0</ele><time>2026-03-29T15:27:27.288Z</time></trkpt><trkpt lat="40.7086298" lon="9.6998994"><ele>12.0</ele><time>2026-03-29T15:27:28.273Z</time></trkpt><trkpt lat="40.7087646" lon="9.6997712"><ele>13.0</ele><time>2026-03-29T15:27:29.274Z</time></trkpt><trkpt lat="40.7089003" lon="9.6996407"><ele>14.0</ele><time>2026-03-29T15:27:30.265Z</time></trkpt><trkpt lat="40.7090343" lon="9.6995137"><ele>14.666666666666668</ele><time>2026-03-29T15:27:31.27Z</time></trkpt><trkpt lat="40.7091652" lon="9.6993908"><ele>15.333333333333332</ele><time>2026-03-29T15:27:32.29Z</time></trkpt><trkpt lat="40.7092852" lon="9.6992772"><ele>16.0</ele><time>2026-03-29T15:27:33.27Z</time></trkpt><trkpt lat="40.7094005" lon="9.6991662"><ele>15.333333333333332</ele><time>2026-03-29T15:27:34.265Z</time></trkpt><trkpt lat="40.7095203" lon="9.6990478"><ele>14.666666666666668</ele><time>2026-03-29T15:27:35.274Z</time></trkpt><trkpt lat="40.7096439" lon="9.698925"><ele>14.0</ele><time>2026-03-29T15:27:36.265Z</time></trkpt><trkpt lat="40.7097633" lon="9.6987936"><ele>14.0</ele><time>2026-03-29T15:27:37.295Z</time></trkpt><trkpt lat="40.7098712" lon="9.6986505"><ele>14.0</ele><time>2026-03-29T15:27:38.266Z</time></trkpt><trkpt lat="40.7099606" lon="9.6984892"><ele>14.0</ele><time>2026-03-29T15:27:39.273Z</time></trkpt><trkpt lat="40.7100334" lon="9.6983084"><ele>14.333333333333334</ele><time>2026-03-29T15:27:40.269Z</time></trkpt><trkpt lat="40.7100901" lon="9.6981086"><ele>14.666666666666668</ele><time>2026-03-29T15:27:41.273Z</time></trkpt><trkpt lat="40.7101346" lon="9.697888"><ele>15.0</ele><time>2026-03-29T15:27:42.27Z</time></trkpt><trkpt lat="40.7101752" lon="9.697653"><ele>15.666666666666668</ele><time>2026-03-29T15:27:43.275Z</time></trkpt><trkpt lat="40.7102131" lon="9.6974183"><ele>16.333333333333336</ele><time>2026-03-29T15:27:44.271Z</time></trkpt><trkpt lat="40.7102505" lon="9.6971853"><ele>17.0</ele><time>2026-03-29T15:27:45.292Z</time></trkpt><trkpt lat="40.7102888" lon="9.6969549"><ele>14.666666666666668</ele><time>2026-03-29T15:27:46.269Z</time></trkpt><trkpt lat="40.710327" lon="9.6967257"><ele>12.333333333333334</ele><time>2026-03-29T15:27:47.273Z</time></trkpt><trkpt lat="40.7103652" lon="9.6964955"><ele>10.0</ele><time>2026-03-29T15:27:48.266Z</time></trkpt><trkpt lat="40.7104038" lon="9.6962653"><ele>10.666666666666668</ele><time>2026-03-29T15:27:49.274Z</time></trkpt><trkpt lat="40.7104441" lon="9.696032"><ele>11.333333333333334</ele><time>2026-03-29T15:27:50.262Z</time></trkpt><trkpt lat="40.7104861" lon="9.6957961"><ele>12.0</ele><time>2026-03-29T15:27:51.27Z</time></trkpt><trkpt lat="40.710527" lon="9.6955598"><ele>12.0</ele><time>2026-03-29T15:27:52.269Z</time></trkpt><trkpt lat="40.7105698" lon="9.6953166"><ele>12.0</ele><time>2026-03-29T15:27:53.27Z</time></trkpt><trkpt lat="40.7106146" lon="9.6950668"><ele>12.0</ele><time>2026-03-29T15:27:54.267Z</time></trkpt><trkpt lat="40.7106589" lon="9.6948109"><ele>12.0</ele><time>2026-03-29T15:27:55.274Z</time></trkpt><trkpt lat="40.7107019" lon="9.6945533"><ele>12.0</ele><time>2026-03-29T15:27:56.26Z</time></trkpt><trkpt lat="40.7107447" lon="9.694298"><ele>12.0</ele><time>2026-03-29T15:27:57.267Z</time></trkpt><trkpt lat="40.7107888" lon="9.6940451"><ele>12.0</ele><time>2026-03-29T15:27:58.265Z</time></trkpt><trkpt lat="40.710832" lon="9.6937972"><ele>12.0</ele><time>2026-03-29T15:27:59.263Z</time></trkpt><trkpt lat="40.7108735" lon="9.6935507"><ele>12.0</ele><time>2026-03-29T15:28:00.273Z</time></trkpt><trkpt lat="40.7109147" lon="9.6933055"><ele>12.0</ele><time>2026-03-29T15:28:01.262Z</time></trkpt><trkpt lat="40.7109564" lon="9.6930613"><ele>12.0</ele><time>2026-03-29T15:28:02.302Z</time></trkpt><trkpt lat="40.7109967" lon="9.6928185"><ele>12.0</ele><time>2026-03-29T15:28:03.263Z</time></trkpt><trkpt lat="40.7110356" lon="9.6925751"><ele>12.333333333333332</ele><time>2026-03-29T15:28:04.261Z</time></trkpt><trkpt lat="40.7110742" lon="9.692331"><ele>12.666666666666666</ele><time>2026-03-29T15:28:05.26Z</time></trkpt><trkpt lat="40.7111113" lon="9.692096"><ele>13.0</ele><time>2026-03-29T15:28:06.27Z</time></trkpt><trkpt lat="40.7111428" lon="9.6918892"><ele>13.0</ele><time>2026-03-29T15:28:07.261Z</time></trkpt><trkpt lat="40.7111692" lon="9.6917083"><ele>13.0</ele><time>2026-03-29T15:28:08.286Z</time></trkpt><trkpt lat="40.7111927" lon="9.6915525"><ele>13.0</ele><time>2026-03-29T15:28:09.265Z</time></trkpt><trkpt lat="40.711213" lon="9.691419"><ele>13.0</ele><time>2026-03-29T15:28:10.265Z</time></trkpt><trkpt lat="40.7112237" lon="9.6912909"><ele>13.0</ele><time>2026-03-29T15:28:11.27Z</time></trkpt><trkpt lat="40.7112202" lon="9.6911569"><ele>13.0</ele><time>2026-03-29T15:28:12.262Z</time></trkpt><trkpt lat="40.7112026" lon="9.6910213"><ele>13.0</ele><time>2026-03-29T15:28:13.287Z</time></trkpt><trkpt lat="40.7111785" lon="9.6908927"><ele>13.0</ele><time>2026-03-29T15:28:14.264Z</time></trkpt><trkpt lat="40.7111145" lon="9.6907735"><ele>13.0</ele><time>2026-03-29T15:28:15.27Z</time></trkpt><trkpt lat="40.711034" lon="9.6906538"><ele>14.25</ele><time>2026-03-29T15:28:16.269Z</time></trkpt><trkpt lat="40.7109502" lon="9.6905311"><ele>15.5</ele><time>2026-03-29T15:28:17.268Z</time></trkpt><trkpt lat="40.7108691" lon="9.6903939"><ele>16.75</ele><time>2026-03-29T15:28:18.263Z</time></trkpt><trkpt lat="40.7108039" lon="9.6902343"><ele>18.0</ele><time>2026-03-29T15:28:19.272Z</time></trkpt><trkpt lat="40.7107374" lon="9.6900699"><ele>18.666666666666668</ele><time>2026-03-29T15:28:20.259Z</time></trkpt><trkpt lat="40.7106906" lon="9.6898726"><ele>19.333333333333336</ele><time>2026-03-29T15:28:21.265Z</time></trkpt><trkpt lat="40.7106461" lon="9.6896755"><ele>20.0</ele><time>2026-03-29T15:28:22.266Z</time></trkpt><trkpt lat="40.7106196" lon="9.6894522"><ele>20.666666666666668</ele><time>2026-03-29T15:28:23.262Z</time></trkpt><trkpt lat="40.710559" lon="9.6892085"><ele>21.333333333333332</ele><time>2026-03-29T15:28:24.28Z</time></trkpt><trkpt lat="40.7104998" lon="9.6889753"><ele>22.0</ele><time>2026-03-29T15:28:25.268Z</time></trkpt><trkpt lat="40.7104485" lon="9.6887331"><ele>21.666666666666664</ele><time>2026-03-29T15:28:26.267Z</time></trkpt><trkpt lat="40.7104132" lon="9.6884897"><ele>21.333333333333332</ele><time>2026-03-29T15:28:27.268Z</time></trkpt><trkpt lat="40.7103912" lon="9.6882355"><ele>21.0</ele><time>2026-03-29T15:28:28.272Z</time></trkpt><trkpt lat="40.7103761" lon="9.6879719"><ele>21.0</ele><time>2026-03-29T15:28:29.264Z</time></trkpt><trkpt lat="40.7103635" lon="9.6877072"><ele>21.0</ele><time>2026-03-29T15:28:30.283Z</time></trkpt><trkpt lat="40.7103561" lon="9.6874637"><ele>21.0</ele><time>2026-03-29T15:28:31.264Z</time></trkpt><trkpt lat="40.7103531" lon="9.6872484"><ele>21.0</ele><time>2026-03-29T15:28:32.271Z</time></trkpt><trkpt lat="40.7103488" lon="9.6870486"><ele>21.0</ele><time>2026-03-29T15:28:33.271Z</time></trkpt><trkpt lat="40.7103458" lon="9.6868687"><ele>21.0</ele><time>2026-03-29T15:28:34.27Z</time></trkpt><trkpt lat="40.7103483" lon="9.6866956"><ele>21.0</ele><time>2026-03-29T15:28:35.264Z</time></trkpt><trkpt lat="40.710364" lon="9.6865229"><ele>20.75</ele><time>2026-03-29T15:28:36.274Z</time></trkpt><trkpt lat="40.7103927" lon="9.6863517"><ele>20.5</ele><time>2026-03-29T15:28:37.267Z</time></trkpt><trkpt lat="40.7104366" lon="9.6861836"><ele>20.25</ele><time>2026-03-29T15:28:38.271Z</time></trkpt><trkpt lat="40.7104705" lon="9.6860152"><ele>20.0</ele><time>2026-03-29T15:28:39.271Z</time></trkpt><trkpt lat="40.7105055" lon="9.6858371"><ele>20.0</ele><time>2026-03-29T15:28:40.271Z</time></trkpt><trkpt lat="40.7105269" lon="9.6856458"><ele>20.0</ele><time>2026-03-29T15:28:41.267Z</time></trkpt><trkpt lat="40.7105461" lon="9.6854624"><ele>20.0</ele><time>2026-03-29T15:28:42.27Z</time></trkpt><trkpt lat="40.7105779" lon="9.6852746"><ele>20.0</ele><time>2026-03-29T15:28:43.288Z</time></trkpt><trkpt lat="40.7106143" lon="9.6850813"><ele>20.0</ele><time>2026-03-29T15:28:44.275Z</time></trkpt><trkpt lat="40.7106442" lon="9.6848765"><ele>20.0</ele><time>2026-03-29T15:28:45.268Z</time></trkpt><trkpt lat="40.7106656" lon="9.6846628"><ele>20.0</ele><time>2026-03-29T15:28:46.274Z</time></trkpt><trkpt lat="40.710687" lon="9.6844531"><ele>20.333333333333336</ele><time>2026-03-29T15:28:47.269Z</time></trkpt><trkpt lat="40.7106973" lon="9.6842458"><ele>20.666666666666668</ele><time>2026-03-29T15:28:48.291Z</time></trkpt><trkpt lat="40.7107074" lon="9.6840455"><ele>21.0</ele><time>2026-03-29T15:28:49.267Z</time></trkpt><trkpt lat="40.7107295" lon="9.6838503"><ele>21.0</ele><time>2026-03-29T15:28:50.272Z</time></trkpt><trkpt lat="40.7107643" lon="9.6836675"><ele>21.0</ele><time>2026-03-29T15:28:51.266Z</time></trkpt><trkpt lat="40.7108007" lon="9.6834965"><ele>21.0</ele><time>2026-03-29T15:28:52.27Z</time></trkpt><trkpt lat="40.7108326" lon="9.6833374"><ele>21.0</ele><time>2026-03-29T15:28:53.269Z</time></trkpt><trkpt lat="40.7108386" lon="9.6831961"><ele>21.25</ele><time>2026-03-29T15:28:54.269Z</time></trkpt><trkpt lat="40.7108343" lon="9.6830582"><ele>21.5</ele><time>2026-03-29T15:28:55.266Z</time></trkpt><trkpt lat="40.7108386" lon="9.6829072"><ele>21.75</ele><time>2026-03-29T15:28:56.269Z</time></trkpt><trkpt lat="40.7108575" lon="9.6827592"><ele>22.0</ele><time>2026-03-29T15:28:57.27Z</time></trkpt><trkpt lat="40.7108971" lon="9.6826097"><ele>22.0</ele><time>2026-03-29T15:28:58.287Z</time></trkpt><trkpt lat="40.710959" lon="9.6824517"><ele>22.0</ele><time>2026-03-29T15:28:59.265Z</time></trkpt><trkpt lat="40.7110025" lon="9.6823231"><ele>22.0</ele><time>2026-03-29T15:29:00.268Z</time></trkpt><trkpt lat="40.7110503" lon="9.682219"><ele>22.0</ele><time>2026-03-29T15:29:01.268Z</time></trkpt><trkpt lat="40.7110998" lon="9.6821476"><ele>22.0</ele><time>2026-03-29T15:29:02.269Z</time></trkpt><trkpt lat="40.7111652" lon="9.6821101"><ele>22.0</ele><time>2026-03-29T15:29:03.274Z</time></trkpt><trkpt lat="40.7112717" lon="9.6820892"><ele>22.0</ele><time>2026-03-29T15:29:04.265Z</time></trkpt><trkpt lat="40.7113851" lon="9.6820467"><ele>22.0</ele><time>2026-03-29T15:29:05.271Z</time></trkpt><trkpt lat="40.7114671" lon="9.6820144"><ele>22.0</ele><time>2026-03-29T15:29:06.265Z</time></trkpt><trkpt lat="40.7115289" lon="9.6819724"><ele>22.0</ele><time>2026-03-29T15:29:07.275Z</time></trkpt><trkpt lat="40.711578" lon="9.6818816"><ele>22.200000000000003</ele><time>2026-03-29T15:29:08.268Z</time></trkpt><trkpt lat="40.7116033" lon="9.6817702"><ele>22.4</ele><time>2026-03-29T15:29:09.294Z</time></trkpt><trkpt lat="40.7116231" lon="9.6816315"><ele>22.6</ele><time>2026-03-29T15:29:10.27Z</time></trkpt><trkpt lat="40.7116455" lon="9.681474"><ele>22.799999999999997</ele><time>2026-03-29T15:29:11.265Z</time></trkpt><trkpt lat="40.7116672" lon="9.6813094"><ele>23.0</ele><time>2026-03-29T15:29:12.257Z</time></trkpt><trkpt lat="40.7116902" lon="9.6811393"><ele>23.0</ele><time>2026-03-29T15:29:13.274Z</time></trkpt><trkpt lat="40.7117179" lon="9.6809665"><ele>23.0</ele><time>2026-03-29T15:29:14.27Z</time></trkpt><trkpt lat="40.7117483" lon="9.6807976"><ele>23.0</ele><time>2026-03-29T15:29:15.268Z</time></trkpt><trkpt lat="40.7117775" lon="9.6806278"><ele>23.0</ele><time>2026-03-29T15:29:16.262Z</time></trkpt><trkpt lat="40.7118008" lon="9.6804611"><ele>23.0</ele><time>2026-03-29T15:29:17.264Z</time></trkpt><trkpt lat="40.7118205" lon="9.6802946"><ele>23.0</ele><time>2026-03-29T15:29:18.268Z</time></trkpt><trkpt lat="40.7118432" lon="9.680127"><ele>23.0</ele><time>2026-03-29T15:29:19.265Z</time></trkpt><trkpt lat="40.7118679" lon="9.6799561"><ele>23.0</ele><time>2026-03-29T15:29:20.266Z</time></trkpt><trkpt lat="40.7118929" lon="9.6797756"><ele>23.75</ele><time>2026-03-29T15:29:21.258Z</time></trkpt><trkpt lat="40.7119155" lon="9.6796064"><ele>24.5</ele><time>2026-03-29T15:29:22.288Z</time></trkpt><trkpt lat="40.7119359" lon="9.6794342"><ele>25.25</ele><time>2026-03-29T15:29:23.271Z</time></trkpt><trkpt lat="40.7119586" lon="9.6792557"><ele>26.0</ele><time>2026-03-29T15:29:24.265Z</time></trkpt><trkpt lat="40.7119772" lon="9.6790772"><ele>26.5</ele><time>2026-03-29T15:29:25.268Z</time></trkpt><trkpt lat="40.7119958" lon="9.6789006"><ele>27.0</ele><time>2026-03-29T15:29:26.264Z</time></trkpt><trkpt lat="40.7120094" lon="9.6787114"><ele>27.5</ele><time>2026-03-29T15:29:27.271Z</time></trkpt><trkpt lat="40.7120213" lon="9.6785148"><ele>28.0</ele><time>2026-03-29T15:29:28.264Z</time></trkpt><trkpt lat="40.7120383" lon="9.6783249"><ele>28.0</ele><time>2026-03-29T15:29:29.271Z</time></trkpt><trkpt lat="40.7120556" lon="9.6781366"><ele>28.0</ele><time>2026-03-29T15:29:30.266Z</time></trkpt><trkpt lat="40.7120678" lon="9.6779513"><ele>28.0</ele><time>2026-03-29T15:29:31.275Z</time></trkpt><trkpt lat="40.7120775" lon="9.6777692"><ele>28.0</ele><time>2026-03-29T15:29:32.266Z</time></trkpt><trkpt lat="40.7120879" lon="9.6775827"><ele>28.0</ele><time>2026-03-29T15:29:33.263Z</time></trkpt><trkpt lat="40.712091" lon="9.6773912"><ele>28.0</ele><time>2026-03-29T15:29:34.261Z</time></trkpt><trkpt lat="40.7120973" lon="9.6772049"><ele>28.0</ele><time>2026-03-29T15:29:35.266Z</time></trkpt><trkpt lat="40.7121076" lon="9.6770199"><ele>28.0</ele><time>2026-03-29T15:29:36.27Z</time></trkpt><trkpt lat="40.7121249" lon="9.6768326"><ele>28.0</ele><time>2026-03-29T15:29:37.263Z</time></trkpt><trkpt lat="40.7121492" lon="9.6766454"><ele>28.0</ele><time>2026-03-29T15:29:38.286Z</time></trkpt><trkpt lat="40.7121729" lon="9.6764491"><ele>28.0</ele><time>2026-03-29T15:29:39.265Z</time></trkpt><trkpt lat="40.7122073" lon="9.676252"><ele>28.0</ele><time>2026-03-29T15:29:40.264Z</time></trkpt><trkpt lat="40.7122522" lon="9.676052"><ele>28.333333333333336</ele><time>2026-03-29T15:29:41.264Z</time></trkpt><trkpt lat="40.7122979" lon="9.6758426"><ele>28.666666666666664</ele><time>2026-03-29T15:29:42.262Z</time></trkpt><trkpt lat="40.7123427" lon="9.675639"><ele>29.0</ele><time>2026-03-29T15:29:43.266Z</time></trkpt><trkpt lat="40.7123819" lon="9.6754408"><ele>29.25</ele><time>2026-03-29T15:29:44.268Z</time></trkpt><trkpt lat="40.7124216" lon="9.6752571"><ele>29.5</ele><time>2026-03-29T15:29:45.268Z</time></trkpt><trkpt lat="40.7124542" lon="9.6750931"><ele>29.75</ele><time>2026-03-29T15:29:46.263Z</time></trkpt><trkpt lat="40.7124831" lon="9.6749577"><ele>30.0</ele><time>2026-03-29T15:29:47.285Z</time></trkpt><trkpt lat="40.7125063" lon="9.6748637"><ele>30.0</ele><time>2026-03-29T15:29:48.273Z</time></trkpt><trkpt lat="40.7125514" lon="9.6747743"><ele>30.0</ele><time>2026-03-29T15:29:50.267Z</time></trkpt><trkpt lat="40.7126324" lon="9.6747744"><ele>30.0</ele><time>2026-03-29T15:29:56.267Z</time></trkpt><trkpt lat="40.7127762" lon="9.6748157"><ele>30.0</ele><time>2026-03-29T15:29:58.266Z</time></trkpt><trkpt lat="40.7128716" lon="9.6748494"><ele>30.0</ele><time>2026-03-29T15:29:59.269Z</time></trkpt><trkpt lat="40.7129672" lon="9.674895"><ele>30.0</ele><time>2026-03-29T15:30:00.283Z</time></trkpt><trkpt lat="40.7130676" lon="9.6749417"><ele>30.0</ele><time>2026-03-29T15:30:01.268Z</time></trkpt><trkpt lat="40.7131696" lon="9.6750034"><ele>30.0</ele><time>2026-03-29T15:30:02.262Z</time></trkpt><trkpt lat="40.7132685" lon="9.6750831"><ele>30.0</ele><time>2026-03-29T15:30:03.267Z</time></trkpt><trkpt lat="40.7133504" lon="9.6751627"><ele>30.0</ele><time>2026-03-29T15:30:04.264Z</time></trkpt><trkpt lat="40.71344" lon="9.6752259"><ele>30.0</ele><time>2026-03-29T15:30:05.272Z</time></trkpt><trkpt lat="40.7135252" lon="9.6752841"><ele>30.0</ele><time>2026-03-29T15:30:06.262Z</time></trkpt><trkpt lat="40.7136194" lon="9.6753437"><ele>30.0</ele><time>2026-03-29T15:30:07.265Z</time></trkpt><trkpt lat="40.7137275" lon="9.6753817"><ele>30.0</ele><time>2026-03-29T15:30:08.265Z</time></trkpt><trkpt lat="40.7138587" lon="9.675433"><ele>30.0</ele><time>2026-03-29T15:30:09.27Z</time></trkpt><trkpt lat="40.7139798" lon="9.6754887"><ele>30.0</ele><time>2026-03-29T15:30:10.267Z</time></trkpt><trkpt lat="40.7140984" lon="9.6755359"><ele>30.0</ele><time>2026-03-29T15:30:11.268Z</time></trkpt><trkpt lat="40.7142251" lon="9.6755741"><ele>30.0</ele><time>2026-03-29T15:30:12.267Z</time></trkpt><trkpt lat="40.7143564" lon="9.6756091"><ele>30.0</ele><time>2026-03-29T15:30:13.262Z</time></trkpt><trkpt lat="40.7144906" lon="9.6756556"><ele>30.25</ele><time>2026-03-29T15:30:14.267Z</time></trkpt><trkpt lat="40.714616" lon="9.6757301"><ele>30.5</ele><time>2026-03-29T15:30:15.266Z</time></trkpt><trkpt lat="40.7147509" lon="9.6757937"><ele>30.75</ele><time>2026-03-29T15:30:16.29Z</time></trkpt><trkpt lat="40.7148818" lon="9.6758634"><ele>31.0</ele><time>2026-03-29T15:30:17.265Z</time></trkpt><trkpt lat="40.7150157" lon="9.6759394"><ele>31.0</ele><time>2026-03-29T15:30:18.262Z</time></trkpt><trkpt lat="40.7151337" lon="9.6760184"><ele>31.0</ele><time>2026-03-29T15:30:19.269Z</time></trkpt><trkpt lat="40.7152473" lon="9.676092"><ele>31.0</ele><time>2026-03-29T15:30:20.266Z</time></trkpt><trkpt lat="40.7153551" lon="9.6761588"><ele>31.0</ele><time>2026-03-29T15:30:21.266Z</time></trkpt><trkpt lat="40.7154688" lon="9.6762243"><ele>30.75</ele><time>2026-03-29T15:30:22.288Z</time></trkpt><trkpt lat="40.7155909" lon="9.6762944"><ele>30.5</ele><time>2026-03-29T15:30:23.265Z</time></trkpt><trkpt lat="40.7157151" lon="9.6763673"><ele>30.25</ele><time>2026-03-29T15:30:24.264Z</time></trkpt><trkpt lat="40.7158373" lon="9.6764427"><ele>30.0</ele><time>2026-03-29T15:30:25.271Z</time></trkpt><trkpt lat="40.7159503" lon="9.6765121"><ele>30.0</ele><time>2026-03-29T15:30:26.267Z</time></trkpt><trkpt lat="40.7160523" lon="9.6765734"><ele>30.0</ele><time>2026-03-29T15:30:27.268Z</time></trkpt><trkpt lat="40.7161323" lon="9.6766132"><ele>30.0</ele><time>2026-03-29T15:30:28.278Z</time></trkpt><trkpt lat="40.7161977" lon="9.6766304"><ele>30.0</ele><time>2026-03-29T15:30:29.264Z</time></trkpt><trkpt lat="40.716253" lon="9.6765884"><ele>30.0</ele><time>2026-03-29T15:30:30.269Z</time></trkpt><trkpt lat="40.7163136" lon="9.6765274"><ele>30.0</ele><time>2026-03-29T15:30:31.271Z</time></trkpt><trkpt lat="40.7163778" lon="9.6764192"><ele>29.8</ele><time>2026-03-29T15:30:32.263Z</time></trkpt><trkpt lat="40.71644" lon="9.6762824"><ele>29.6</ele><time>2026-03-29T15:30:33.276Z</time></trkpt><trkpt lat="40.7165008" lon="9.6761591"><ele>29.4</ele><time>2026-03-29T15:30:34.258Z</time></trkpt><trkpt lat="40.7165515" lon="9.676061"><ele>29.2</ele><time>2026-03-29T15:30:35.264Z</time></trkpt><trkpt lat="40.7165982" lon="9.6759751"><ele>29.0</ele><time>2026-03-29T15:30:36.265Z</time></trkpt><trkpt lat="40.7166804" lon="9.6759439"><ele>29.333333333333332</ele><time>2026-03-29T15:30:38.281Z</time></trkpt><trkpt lat="40.7167476" lon="9.6759438"><ele>29.666666666666664</ele><time>2026-03-29T15:30:39.261Z</time></trkpt><trkpt lat="40.7168212" lon="9.6759542"><ele>30.0</ele><time>2026-03-29T15:30:40.258Z</time></trkpt><trkpt lat="40.7169141" lon="9.6760027"><ele>30.333333333333336</ele><time>2026-03-29T15:30:41.261Z</time></trkpt><trkpt lat="40.7170094" lon="9.6759887"><ele>30.666666666666668</ele><time>2026-03-29T15:30:42.262Z</time></trkpt><trkpt lat="40.7170846" lon="9.6759123"><ele>31.0</ele><time>2026-03-29T15:30:43.287Z</time></trkpt><trkpt lat="40.7171539" lon="9.6758249"><ele>31.0</ele><time>2026-03-29T15:30:44.281Z</time></trkpt><trkpt lat="40.7172411" lon="9.6757508"><ele>31.0</ele><time>2026-03-29T15:30:45.267Z</time></trkpt><trkpt lat="40.7173305" lon="9.675688"><ele>31.0</ele><time>2026-03-29T15:30:46.279Z</time></trkpt><trkpt lat="40.7174389" lon="9.6756618"><ele>31.0</ele><time>2026-03-29T15:30:47.27Z</time></trkpt><trkpt lat="40.7175231" lon="9.6756319"><ele>31.0</ele><time>2026-03-29T15:30:48.28Z</time></trkpt><trkpt lat="40.7175911" lon="9.6755839"><ele>31.000000000000004</ele><time>2026-03-29T15:30:49.265Z</time></trkpt><trkpt lat="40.7176535" lon="9.6755133"><ele>31.0</ele><time>2026-03-29T15:30:50.269Z</time></trkpt><trkpt lat="40.717708" lon="9.6754218"><ele>31.0</ele><time>2026-03-29T15:30:51.263Z</time></trkpt><trkpt lat="40.7177523" lon="9.6753215"><ele>31.0</ele><time>2026-03-29T15:30:52.265Z</time></trkpt><trkpt lat="40.717786" lon="9.6752475"><ele>31.000000000000004</ele><time>2026-03-29T15:30:53.264Z</time></trkpt><trkpt lat="40.7178369" lon="9.6751688"><ele>31.0</ele><time>2026-03-29T15:30:55.271Z</time></trkpt><trkpt lat="40.7179149" lon="9.6751142"><ele>30.833333333333336</ele><time>2026-03-29T15:30:58.269Z</time></trkpt><trkpt lat="40.7179685" lon="9.6750647"><ele>30.666666666666668</ele><time>2026-03-29T15:31:00.268Z</time></trkpt><trkpt lat="40.7180147" lon="9.6749985"><ele>30.5</ele><time>2026-03-29T15:31:01.268Z</time></trkpt><trkpt lat="40.7180534" lon="9.6749248"><ele>30.333333333333336</ele><time>2026-03-29T15:31:02.272Z</time></trkpt><trkpt lat="40.7181291" lon="9.6748511"><ele>30.166666666666668</ele><time>2026-03-29T15:31:04.269Z</time></trkpt><trkpt lat="40.7182402" lon="9.6747878"><ele>30.0</ele><time>2026-03-29T15:31:06.272Z</time></trkpt><trkpt lat="40.718304" lon="9.674715"><ele>30.0</ele><time>2026-03-29T15:31:07.261Z</time></trkpt><trkpt lat="40.7183774" lon="9.6746319"><ele>30.0</ele><time>2026-03-29T15:31:08.289Z</time></trkpt><trkpt lat="40.7184548" lon="9.6745428"><ele>30.0</ele><time>2026-03-29T15:31:09.265Z</time></trkpt><trkpt lat="40.718528" lon="9.6744469"><ele>30.0</ele><time>2026-03-29T15:31:10.271Z</time></trkpt><trkpt lat="40.7186089" lon="9.6743535"><ele>30.0</ele><time>2026-03-29T15:31:11.262Z</time></trkpt><trkpt lat="40.718671" lon="9.6742564"><ele>31.166666666666668</ele><time>2026-03-29T15:31:12.269Z</time></trkpt><trkpt lat="40.7187258" lon="9.6741797"><ele>32.333333333333336</ele><time>2026-03-29T15:31:13.267Z</time></trkpt><trkpt lat="40.7187867" lon="9.6740973"><ele>33.5</ele><time>2026-03-29T15:31:15.261Z</time></trkpt><trkpt lat="40.7188363" lon="9.6740353"><ele>34.66666666666667</ele><time>2026-03-29T15:31:24.263Z</time></trkpt><trkpt lat="40.7188715" lon="9.6739598"><ele>35.833333333333336</ele><time>2026-03-29T15:31:25.274Z</time></trkpt><trkpt lat="40.7189072" lon="9.6738505"><ele>37.0</ele><time>2026-03-29T15:31:26.272Z</time></trkpt><trkpt lat="40.718943" lon="9.6737058"><ele>37.0</ele><time>2026-03-29T15:31:27.293Z</time></trkpt><trkpt lat="40.7189818" lon="9.6735453"><ele>37.0</ele><time>2026-03-29T15:31:28.264Z</time></trkpt><trkpt lat="40.7190255" lon="9.6733693"><ele>37.0</ele><time>2026-03-29T15:31:29.263Z</time></trkpt><trkpt lat="40.7190779" lon="9.6731872"><ele>37.0</ele><time>2026-03-29T15:31:30.264Z</time></trkpt><trkpt lat="40.7191439" lon="9.6730104"><ele>37.0</ele><time>2026-03-29T15:31:31.269Z</time></trkpt><trkpt lat="40.7192219" lon="9.6728425"><ele>37.0</ele><time>2026-03-29T15:31:32.268Z</time></trkpt><trkpt lat="40.7193069" lon="9.6726671"><ele>37.0</ele><time>2026-03-29T15:31:33.283Z</time></trkpt><trkpt lat="40.7194081" lon="9.6724847"><ele>37.333333333333336</ele><time>2026-03-29T15:31:34.261Z</time></trkpt><trkpt lat="40.7195241" lon="9.6723105"><ele>37.666666666666664</ele><time>2026-03-29T15:31:35.269Z</time></trkpt><trkpt lat="40.7196421" lon="9.6721367"><ele>38.0</ele><time>2026-03-29T15:31:36.267Z</time></trkpt><trkpt lat="40.7197639" lon="9.6719697"><ele>37.666666666666664</ele><time>2026-03-29T15:31:37.263Z</time></trkpt><trkpt lat="40.7198895" lon="9.6718096"><ele>37.333333333333336</ele><time>2026-03-29T15:31:38.264Z</time></trkpt><trkpt lat="40.7200189" lon="9.6716519"><ele>37.0</ele><time>2026-03-29T15:31:39.264Z</time></trkpt><trkpt lat="40.7201395" lon="9.6715027"><ele>37.66666666666667</ele><time>2026-03-29T15:31:40.262Z</time></trkpt><trkpt lat="40.7202498" lon="9.671366"><ele>38.333333333333336</ele><time>2026-03-29T15:31:41.262Z</time></trkpt><trkpt lat="40.7203577" lon="9.6712293"><ele>39.0</ele><time>2026-03-29T15:31:42.269Z</time></trkpt><trkpt lat="40.7204709" lon="9.671088"><ele>39.0</ele><time>2026-03-29T15:31:43.265Z</time></trkpt><trkpt lat="40.72059" lon="9.6709395"><ele>39.0</ele><time>2026-03-29T15:31:44.271Z</time></trkpt><trkpt lat="40.7207105" lon="9.6707832"><ele>39.0</ele><time>2026-03-29T15:31:45.267Z</time></trkpt><trkpt lat="40.7208273" lon="9.6706146"><ele>39.0</ele><time>2026-03-29T15:31:46.292Z</time></trkpt><trkpt lat="40.72094" lon="9.6704311"><ele>39.0</ele><time>2026-03-29T15:31:47.265Z</time></trkpt><trkpt lat="40.7210418" lon="9.6702259"><ele>39.0</ele><time>2026-03-29T15:31:48.265Z</time></trkpt><trkpt lat="40.7211356" lon="9.6699971"><ele>40.0</ele><time>2026-03-29T15:31:49.261Z</time></trkpt><trkpt lat="40.7212178" lon="9.6697658"><ele>41.0</ele><time>2026-03-29T15:31:50.266Z</time></trkpt><trkpt lat="40.7212995" lon="9.669524"><ele>42.0</ele><time>2026-03-29T15:31:51.273Z</time></trkpt><trkpt lat="40.7213812" lon="9.669268"><ele>42.0</ele><time>2026-03-29T15:31:52.279Z</time></trkpt><trkpt lat="40.7214655" lon="9.6690205"><ele>42.0</ele><time>2026-03-29T15:31:53.265Z</time></trkpt><trkpt lat="40.7215456" lon="9.6687691"><ele>42.0</ele><time>2026-03-29T15:31:54.267Z</time></trkpt><trkpt lat="40.7216245" lon="9.6685245"><ele>42.0</ele><time>2026-03-29T15:31:55.265Z</time></trkpt><trkpt lat="40.7217037" lon="9.6682757"><ele>42.0</ele><time>2026-03-29T15:31:56.27Z</time></trkpt><trkpt lat="40.721781" lon="9.6680279"><ele>42.0</ele><time>2026-03-29T15:31:57.267Z</time></trkpt><trkpt lat="40.7218551" lon="9.667797"><ele>45.33333333333333</ele><time>2026-03-29T15:31:58.266Z</time></trkpt><trkpt lat="40.7219231" lon="9.6675797"><ele>48.666666666666664</ele><time>2026-03-29T15:31:59.265Z</time></trkpt><trkpt lat="40.7219903" lon="9.6673671"><ele>52.0</ele><time>2026-03-29T15:32:00.267Z</time></trkpt><trkpt lat="40.7220555" lon="9.6671617"><ele>52.0</ele><time>2026-03-29T15:32:01.27Z</time></trkpt><trkpt lat="40.7221218" lon="9.6669596"><ele>52.0</ele><time>2026-03-29T15:32:02.267Z</time></trkpt><trkpt lat="40.7221844" lon="9.6667671"><ele>52.0</ele><time>2026-03-29T15:32:03.264Z</time></trkpt><trkpt lat="40.722248" lon="9.6665836"><ele>50.5</ele><time>2026-03-29T15:32:04.263Z</time></trkpt><trkpt lat="40.7223109" lon="9.6664164"><ele>49.0</ele><time>2026-03-29T15:32:05.262Z</time></trkpt><trkpt lat="40.7223817" lon="9.6662548"><ele>47.5</ele><time>2026-03-29T15:32:06.298Z</time></trkpt><trkpt lat="40.722462" lon="9.6660949"><ele>46.0</ele><time>2026-03-29T15:32:07.263Z</time></trkpt><trkpt lat="40.7225484" lon="9.6659373"><ele>45.5</ele><time>2026-03-29T15:32:08.271Z</time></trkpt><trkpt lat="40.722638" lon="9.6657855"><ele>45.0</ele><time>2026-03-29T15:32:09.269Z</time></trkpt><trkpt lat="40.7227289" lon="9.6656399"><ele>44.5</ele><time>2026-03-29T15:32:10.268Z</time></trkpt><trkpt lat="40.7228271" lon="9.6654963"><ele>44.0</ele><time>2026-03-29T15:32:11.265Z</time></trkpt><trkpt lat="40.7229407" lon="9.6653547"><ele>45.666666666666664</ele><time>2026-03-29T15:32:12.292Z</time></trkpt><trkpt lat="40.723067" lon="9.6652153"><ele>47.33333333333333</ele><time>2026-03-29T15:32:13.266Z</time></trkpt><trkpt lat="40.7231987" lon="9.6650746"><ele>49.0</ele><time>2026-03-29T15:32:14.265Z</time></trkpt><trkpt lat="40.723332" lon="9.6649307"><ele>49.0</ele><time>2026-03-29T15:32:15.27Z</time></trkpt><trkpt lat="40.7234668" lon="9.6647866"><ele>49.0</ele><time>2026-03-29T15:32:16.26Z</time></trkpt><trkpt lat="40.7235995" lon="9.6646494"><ele>49.0</ele><time>2026-03-29T15:32:17.281Z</time></trkpt><trkpt lat="40.7237329" lon="9.6645209"><ele>49.0</ele><time>2026-03-29T15:32:18.261Z</time></trkpt><trkpt lat="40.723865" lon="9.6644081"><ele>49.0</ele><time>2026-03-29T15:32:19.272Z</time></trkpt><trkpt lat="40.7239878" lon="9.6643223"><ele>49.0</ele><time>2026-03-29T15:32:20.262Z</time></trkpt><trkpt lat="40.7241157" lon="9.6642349"><ele>49.0</ele><time>2026-03-29T15:32:21.264Z</time></trkpt><trkpt lat="40.7242454" lon="9.664149"><ele>49.0</ele><time>2026-03-29T15:32:22.265Z</time></trkpt><trkpt lat="40.7243776" lon="9.6640584"><ele>49.0</ele><time>2026-03-29T15:32:23.26Z</time></trkpt><trkpt lat="40.7245151" lon="9.6639689"><ele>49.0</ele><time>2026-03-29T15:32:24.257Z</time></trkpt><trkpt lat="40.7246517" lon="9.6638812"><ele>49.25</ele><time>2026-03-29T15:32:25.268Z</time></trkpt><trkpt lat="40.7247899" lon="9.66379"><ele>49.5</ele><time>2026-03-29T15:32:26.269Z</time></trkpt><trkpt lat="40.724925" lon="9.6637004"><ele>49.75</ele><time>2026-03-29T15:32:27.265Z</time></trkpt><trkpt lat="40.7250453" lon="9.6636197"><ele>50.0</ele><time>2026-03-29T15:32:28.273Z</time></trkpt><trkpt lat="40.7251525" lon="9.6635428"><ele>51.2</ele><time>2026-03-29T15:32:29.264Z</time></trkpt><trkpt lat="40.7252526" lon="9.6634639"><ele>52.4</ele><time>2026-03-29T15:32:30.276Z</time></trkpt><trkpt lat="40.7253466" lon="9.6633809"><ele>53.599999999999994</ele><time>2026-03-29T15:32:31.27Z</time></trkpt><trkpt lat="40.7254294" lon="9.6632881"><ele>54.8</ele><time>2026-03-29T15:32:32.265Z</time></trkpt><trkpt lat="40.7255055" lon="9.6631905"><ele>56.0</ele><time>2026-03-29T15:32:33.27Z</time></trkpt><trkpt lat="40.7255782" lon="9.6630883"><ele>56.00000000000001</ele><time>2026-03-29T15:32:34.264Z</time></trkpt><trkpt lat="40.7256484" lon="9.6629891"><ele>56.0</ele><time>2026-03-29T15:32:35.273Z</time></trkpt><trkpt lat="40.7257138" lon="9.6628941"><ele>56.0</ele><time>2026-03-29T15:32:36.261Z</time></trkpt><trkpt lat="40.7257752" lon="9.6628056"><ele>56.0</ele><time>2026-03-29T15:32:37.288Z</time></trkpt><trkpt lat="40.7258282" lon="9.6627239"><ele>56.00000000000001</ele><time>2026-03-29T15:32:38.264Z</time></trkpt><trkpt lat="40.7258712" lon="9.6626593"><ele>56.0</ele><time>2026-03-29T15:32:39.276Z</time></trkpt><trkpt lat="40.7259463" lon="9.6626183"><ele>55.50000000000001</ele><time>2026-03-29T15:32:41.269Z</time></trkpt><trkpt lat="40.7260341" lon="9.6626421"><ele>55.0</ele><time>2026-03-29T15:32:43.269Z</time></trkpt><trkpt lat="40.7261018" lon="9.6626452"><ele>54.5</ele><time>2026-03-29T15:32:44.272Z</time></trkpt><trkpt lat="40.7262325" lon="9.6626413"><ele>54.0</ele><time>2026-03-29T15:32:46.273Z</time></trkpt><trkpt lat="40.7263008" lon="9.6626598"><ele>53.50000000000001</ele><time>2026-03-29T15:32:47.266Z</time></trkpt><trkpt lat="40.726372" lon="9.6626873"><ele>53.0</ele><time>2026-03-29T15:32:48.275Z</time></trkpt><trkpt lat="40.7264475" lon="9.6627222"><ele>54.4</ele><time>2026-03-29T15:32:49.269Z</time></trkpt><trkpt lat="40.7265244" lon="9.6627627"><ele>55.8</ele><time>2026-03-29T15:32:50.263Z</time></trkpt><trkpt lat="40.7266067" lon="9.6628078"><ele>57.2</ele><time>2026-03-29T15:32:51.259Z</time></trkpt><trkpt lat="40.7266935" lon="9.6628559"><ele>58.6</ele><time>2026-03-29T15:32:52.264Z</time></trkpt><trkpt lat="40.7267877" lon="9.6629054"><ele>60.0</ele><time>2026-03-29T15:32:53.266Z</time></trkpt><trkpt lat="40.7268785" lon="9.6629616"><ele>61.166666666666664</ele><time>2026-03-29T15:32:54.262Z</time></trkpt><trkpt lat="40.7269574" lon="9.6630122"><ele>62.33333333333333</ele><time>2026-03-29T15:32:55.275Z</time></trkpt><trkpt lat="40.7270357" lon="9.6630612"><ele>63.5</ele><time>2026-03-29T15:32:56.269Z</time></trkpt><trkpt lat="40.7271168" lon="9.6630919"><ele>64.66666666666666</ele><time>2026-03-29T15:32:57.268Z</time></trkpt><trkpt lat="40.7271999" lon="9.663103"><ele>65.83333333333333</ele><time>2026-03-29T15:32:58.266Z</time></trkpt><trkpt lat="40.7272831" lon="9.6630902"><ele>67.0</ele><time>2026-03-29T15:32:59.267Z</time></trkpt><trkpt lat="40.7273672" lon="9.663081"><ele>67.0</ele><time>2026-03-29T15:33:00.27Z</time></trkpt><trkpt lat="40.7274564" lon="9.6630554"><ele>67.0</ele><time>2026-03-29T15:33:01.266Z</time></trkpt><trkpt lat="40.7275393" lon="9.6630336"><ele>67.0</ele><time>2026-03-29T15:33:02.265Z</time></trkpt><trkpt lat="40.7276202" lon="9.6630302"><ele>67.0</ele><time>2026-03-29T15:33:03.283Z</time></trkpt><trkpt lat="40.7277059" lon="9.6630671"><ele>67.0</ele><time>2026-03-29T15:33:04.269Z</time></trkpt><trkpt lat="40.7278071" lon="9.6631236"><ele>69.0</ele><time>2026-03-29T15:33:05.258Z</time></trkpt><trkpt lat="40.7278898" lon="9.6631917"><ele>71.0</ele><time>2026-03-29T15:33:06.261Z</time></trkpt><trkpt lat="40.7279771" lon="9.6632726"><ele>73.0</ele><time>2026-03-29T15:33:07.275Z</time></trkpt><trkpt lat="40.7280548" lon="9.6633458"><ele>75.0</ele><time>2026-03-29T15:33:08.27Z</time></trkpt><trkpt lat="40.7281309" lon="9.6634188"><ele>77.0</ele><time>2026-03-29T15:33:09.29Z</time></trkpt><trkpt lat="40.7282059" lon="9.6634998"><ele>77.0</ele><time>2026-03-29T15:33:10.27Z</time></trkpt><trkpt lat="40.7282727" lon="9.6635965"><ele>77.0</ele><time>2026-03-29T15:33:11.265Z</time></trkpt><trkpt lat="40.7283294" lon="9.663697"><ele>77.0</ele><time>2026-03-29T15:33:12.267Z</time></trkpt><trkpt lat="40.7283791" lon="9.6638046"><ele>77.0</ele><time>2026-03-29T15:33:13.271Z</time></trkpt><trkpt lat="40.728412" lon="9.663925"><ele>77.0</ele><time>2026-03-29T15:33:14.272Z</time></trkpt><trkpt lat="40.7284334" lon="9.6640552"><ele>75.8</ele><time>2026-03-29T15:33:15.268Z</time></trkpt><trkpt lat="40.7284511" lon="9.664185"><ele>74.6</ele><time>2026-03-29T15:33:16.289Z</time></trkpt><trkpt lat="40.7284686" lon="9.6643107"><ele>73.39999999999999</ele><time>2026-03-29T15:33:17.272Z</time></trkpt><trkpt lat="40.7284812" lon="9.6644325"><ele>72.2</ele><time>2026-03-29T15:33:18.257Z</time></trkpt><trkpt lat="40.7285115" lon="9.6645374"><ele>71.0</ele><time>2026-03-29T15:33:19.267Z</time></trkpt><trkpt lat="40.7285504" lon="9.6646243"><ele>71.8</ele><time>2026-03-29T15:33:20.261Z</time></trkpt><trkpt lat="40.7286137" lon="9.6647058"><ele>72.6</ele><time>2026-03-29T15:33:21.288Z</time></trkpt><trkpt lat="40.7286974" lon="9.6647821"><ele>73.4</ele><time>2026-03-29T15:33:22.269Z</time></trkpt><trkpt lat="40.7287949" lon="9.6648464"><ele>74.2</ele><time>2026-03-29T15:33:23.258Z</time></trkpt><trkpt lat="40.7288872" lon="9.6648929"><ele>75.0</ele><time>2026-03-29T15:33:24.262Z</time></trkpt><trkpt lat="40.728978" lon="9.6649437"><ele>75.0</ele><time>2026-03-29T15:33:25.261Z</time></trkpt><trkpt lat="40.7290439" lon="9.6650205"><ele>75.0</ele><time>2026-03-29T15:33:26.264Z</time></trkpt><trkpt lat="40.7291" lon="9.6651196"><ele>75.0</ele><time>2026-03-29T15:33:27.273Z</time></trkpt><trkpt lat="40.7291432" lon="9.6652232"><ele>75.0</ele><time>2026-03-29T15:33:28.263Z</time></trkpt><trkpt lat="40.7291822" lon="9.6653121"><ele>75.0</ele><time>2026-03-29T15:33:29.299Z</time></trkpt><trkpt lat="40.7292385" lon="9.6654027"><ele>75.0</ele><time>2026-03-29T15:33:30.263Z</time></trkpt><trkpt lat="40.7292997" lon="9.6654856"><ele>74.0</ele><time>2026-03-29T15:33:31.269Z</time></trkpt><trkpt lat="40.7293851" lon="9.6655597"><ele>73.0</ele><time>2026-03-29T15:33:32.266Z</time></trkpt><trkpt lat="40.7294718" lon="9.6656557"><ele>72.0</ele><time>2026-03-29T15:33:33.27Z</time></trkpt><trkpt lat="40.7295604" lon="9.6657556"><ele>71.0</ele><time>2026-03-29T15:33:34.283Z</time></trkpt><trkpt lat="40.7296473" lon="9.6658537"><ele>70.0</ele><time>2026-03-29T15:33:35.266Z</time></trkpt><trkpt lat="40.7297278" lon="9.6659456"><ele>71.4</ele><time>2026-03-29T15:33:36.262Z</time></trkpt><trkpt lat="40.7298109" lon="9.6660454"><ele>72.8</ele><time>2026-03-29T15:33:37.266Z</time></trkpt><trkpt lat="40.7298866" lon="9.6661464"><ele>74.2</ele><time>2026-03-29T15:33:38.263Z</time></trkpt><trkpt lat="40.7299552" lon="9.6662421"><ele>75.6</ele><time>2026-03-29T15:33:39.266Z</time></trkpt><trkpt lat="40.7300135" lon="9.6663323"><ele>77.0</ele><time>2026-03-29T15:33:40.265Z</time></trkpt><trkpt lat="40.7300728" lon="9.6664099"><ele>77.0</ele><time>2026-03-29T15:33:41.264Z</time></trkpt><trkpt lat="40.7301418" lon="9.6664701"><ele>77.0</ele><time>2026-03-29T15:33:42.262Z</time></trkpt><trkpt lat="40.7302289" lon="9.666515"><ele>77.0</ele><time>2026-03-29T15:33:43.265Z</time></trkpt><trkpt lat="40.7303195" lon="9.6665527"><ele>77.0</ele><time>2026-03-29T15:33:44.273Z</time></trkpt><trkpt lat="40.7303933" lon="9.6665756"><ele>77.0</ele><time>2026-03-29T15:33:45.263Z</time></trkpt><trkpt lat="40.7304561" lon="9.6666308"><ele>77.0</ele><time>2026-03-29T15:33:47.269Z</time></trkpt><trkpt lat="40.7305246" lon="9.666728"><ele>77.6</ele><time>2026-03-29T15:33:49.284Z</time></trkpt><trkpt lat="40.7305883" lon="9.6668657"><ele>78.2</ele><time>2026-03-29T15:33:51.264Z</time></trkpt><trkpt lat="40.7306364" lon="9.6669415"><ele>78.8</ele><time>2026-03-29T15:34:01.274Z</time></trkpt><trkpt lat="40.7305842" lon="9.6668305"><ele>79.4</ele><time>2026-03-29T15:34:03.279Z</time></trkpt><trkpt lat="40.7305256" lon="9.6667292"><ele>80.0</ele><time>2026-03-29T15:34:05.261Z</time></trkpt><trkpt lat="40.7305091" lon="9.6666054"><ele>80.0</ele><time>2026-03-29T15:34:10.26Z</time></trkpt><trkpt lat="40.7305912" lon="9.6666589"><ele>80.0</ele><time>2026-03-29T15:34:12.275Z</time></trkpt><trkpt lat="40.7306435" lon="9.6667105"><ele>80.0</ele><time>2026-03-29T15:34:13.265Z</time></trkpt><trkpt lat="40.7306959" lon="9.6667739"><ele>80.0</ele><time>2026-03-29T15:34:14.291Z</time></trkpt><trkpt lat="40.7307503" lon="9.6668448"><ele>80.0</ele><time>2026-03-29T15:34:15.265Z</time></trkpt><trkpt lat="40.7308138" lon="9.6669415"><ele>80.0</ele><time>2026-03-29T15:34:16.266Z</time></trkpt><trkpt lat="40.730878" lon="9.6670386"><ele>81.25</ele><time>2026-03-29T15:34:17.271Z</time></trkpt><trkpt lat="40.7309516" lon="9.6671604"><ele>82.5</ele><time>2026-03-29T15:34:18.267Z</time></trkpt><trkpt lat="40.7310274" lon="9.6672857"><ele>83.75</ele><time>2026-03-29T15:34:19.276Z</time></trkpt><trkpt lat="40.7310991" lon="9.6674086"><ele>85.0</ele><time>2026-03-29T15:34:20.262Z</time></trkpt><trkpt lat="40.7311681" lon="9.6675344"><ele>85.2</ele><time>2026-03-29T15:34:21.279Z</time></trkpt><trkpt lat="40.7312453" lon="9.6676407"><ele>85.4</ele><time>2026-03-29T15:34:22.265Z</time></trkpt><trkpt lat="40.7313313" lon="9.6677278"><ele>85.6</ele><time>2026-03-29T15:34:23.267Z</time></trkpt><trkpt lat="40.7314209" lon="9.6678169"><ele>85.8</ele><time>2026-03-29T15:34:24.26Z</time></trkpt><trkpt lat="40.7315046" lon="9.6679039"><ele>86.0</ele><time>2026-03-29T15:34:25.26Z</time></trkpt><trkpt lat="40.7316026" lon="9.6679871"><ele>87.6</ele><time>2026-03-29T15:34:26.265Z</time></trkpt><trkpt lat="40.7317043" lon="9.6680673"><ele>89.19999999999999</ele><time>2026-03-29T15:34:27.261Z</time></trkpt><trkpt lat="40.7318142" lon="9.6681363"><ele>90.80000000000001</ele><time>2026-03-29T15:34:28.26Z</time></trkpt><trkpt lat="40.7319159" lon="9.6681893"><ele>92.4</ele><time>2026-03-29T15:34:29.281Z</time></trkpt><trkpt lat="40.7320109" lon="9.6682212"><ele>94.0</ele><time>2026-03-29T15:34:30.263Z</time></trkpt><trkpt lat="40.7321106" lon="9.6682381"><ele>94.0</ele><time>2026-03-29T15:34:31.267Z</time></trkpt><trkpt lat="40.732214" lon="9.668264"><ele>94.0</ele><time>2026-03-29T15:34:32.261Z</time></trkpt><trkpt lat="40.7323082" lon="9.6683079"><ele>94.0</ele><time>2026-03-29T15:34:33.264Z</time></trkpt><trkpt lat="40.732408" lon="9.6683569"><ele>94.0</ele><time>2026-03-29T15:34:34.259Z</time></trkpt><trkpt lat="40.7325102" lon="9.6684279"><ele>94.0</ele><time>2026-03-29T15:34:35.272Z</time></trkpt><trkpt lat="40.7326161" lon="9.6685042"><ele>94.0</ele><time>2026-03-29T15:34:36.265Z</time></trkpt><trkpt lat="40.7327146" lon="9.6685927"><ele>94.0</ele><time>2026-03-29T15:34:37.265Z</time></trkpt><trkpt lat="40.7328029" lon="9.6686919"><ele>94.0</ele><time>2026-03-29T15:34:38.26Z</time></trkpt><trkpt lat="40.732895" lon="9.6687743"><ele>94.0</ele><time>2026-03-29T15:34:39.264Z</time></trkpt><trkpt lat="40.732992" lon="9.6688352"><ele>95.80000000000001</ele><time>2026-03-29T15:34:40.265Z</time></trkpt><trkpt lat="40.7330978" lon="9.668885"><ele>97.60000000000001</ele><time>2026-03-29T15:34:41.265Z</time></trkpt><trkpt lat="40.7332015" lon="9.6689318"><ele>99.4</ele><time>2026-03-29T15:34:42.276Z</time></trkpt><trkpt lat="40.7333055" lon="9.6689813"><ele>101.2</ele><time>2026-03-29T15:34:43.259Z</time></trkpt><trkpt lat="40.7334016" lon="9.6690329"><ele>103.0</ele><time>2026-03-29T15:34:44.276Z</time></trkpt><trkpt lat="40.7334958" lon="9.6690855"><ele>105.0</ele><time>2026-03-29T15:34:45.264Z</time></trkpt><trkpt lat="40.7335939" lon="9.6691623"><ele>107.0</ele><time>2026-03-29T15:34:46.263Z</time></trkpt><trkpt lat="40.7336918" lon="9.6692535"><ele>109.0</ele><time>2026-03-29T15:34:47.274Z</time></trkpt><trkpt lat="40.7337819" lon="9.6693423"><ele>111.0</ele><time>2026-03-29T15:34:48.261Z</time></trkpt><trkpt lat="40.7338629" lon="9.6694398"><ele>110.8</ele><time>2026-03-29T15:34:49.284Z</time></trkpt><trkpt lat="40.7339396" lon="9.6695349"><ele>110.6</ele><time>2026-03-29T15:34:50.264Z</time></trkpt><trkpt lat="40.7340114" lon="9.6696299"><ele>110.4</ele><time>2026-03-29T15:34:51.263Z</time></trkpt><trkpt lat="40.7340776" lon="9.6697269"><ele>110.2</ele><time>2026-03-29T15:34:52.263Z</time></trkpt><trkpt lat="40.7341426" lon="9.6698321"><ele>110.0</ele><time>2026-03-29T15:34:53.266Z</time></trkpt><trkpt lat="40.7342106" lon="9.6699274"><ele>110.0</ele><time>2026-03-29T15:34:54.262Z</time></trkpt><trkpt lat="40.7342734" lon="9.6700108"><ele>110.0</ele><time>2026-03-29T15:34:55.262Z</time></trkpt><trkpt lat="40.7343348" lon="9.6700706"><ele>110.0</ele><time>2026-03-29T15:34:56.264Z</time></trkpt><trkpt lat="40.7344315" lon="9.6701235"><ele>110.0</ele><time>2026-03-29T15:34:58.292Z</time></trkpt><trkpt lat="40.734446" lon="9.670216"><ele>110.0</ele><time>2026-03-29T15:35:00.271Z</time></trkpt><trkpt lat="40.7343731" lon="9.6703565"><ele>112.2</ele><time>2026-03-29T15:35:02.27Z</time></trkpt><trkpt lat="40.7343307" lon="9.6704533"><ele>114.4</ele><time>2026-03-29T15:35:03.273Z</time></trkpt><trkpt lat="40.7342955" lon="9.670576"><ele>116.6</ele><time>2026-03-29T15:35:04.261Z</time></trkpt><trkpt lat="40.7342647" lon="9.6707094"><ele>118.8</ele><time>2026-03-29T15:35:05.274Z</time></trkpt><trkpt lat="40.7342381" lon="9.6708549"><ele>121.0</ele><time>2026-03-29T15:35:06.261Z</time></trkpt><trkpt lat="40.7342142" lon="9.670999"><ele>123.6</ele><time>2026-03-29T15:35:07.275Z</time></trkpt><trkpt lat="40.7341995" lon="9.6711407"><ele>126.19999999999999</ele><time>2026-03-29T15:35:08.264Z</time></trkpt><trkpt lat="40.7341987" lon="9.6712616"><ele>128.8</ele><time>2026-03-29T15:35:09.268Z</time></trkpt><trkpt lat="40.7342072" lon="9.6713708"><ele>131.4</ele><time>2026-03-29T15:35:10.269Z</time></trkpt><trkpt lat="40.7342108" lon="9.671461"><ele>134.0</ele><time>2026-03-29T15:35:11.266Z</time></trkpt><trkpt lat="40.7341666" lon="9.671604"><ele>134.0</ele><time>2026-03-29T15:35:13.263Z</time></trkpt><trkpt lat="40.7341151" lon="9.6716705"><ele>134.0</ele><time>2026-03-29T15:35:14.278Z</time></trkpt><trkpt lat="40.7340729" lon="9.6717394"><ele>134.0</ele><time>2026-03-29T15:35:15.262Z</time></trkpt><trkpt lat="40.7340539" lon="9.6718221"><ele>134.0</ele><time>2026-03-29T15:35:16.262Z</time></trkpt><trkpt lat="40.7340424" lon="9.6719241"><ele>134.0</ele><time>2026-03-29T15:35:17.27Z</time></trkpt><trkpt lat="40.7340273" lon="9.6720337"><ele>134.0</ele><time>2026-03-29T15:35:18.264Z</time></trkpt><trkpt lat="40.734007" lon="9.6721489"><ele>137.6</ele><time>2026-03-29T15:35:19.278Z</time></trkpt><trkpt lat="40.7339794" lon="9.6722566"><ele>141.2</ele><time>2026-03-29T15:35:20.259Z</time></trkpt><trkpt lat="40.7339466" lon="9.6723642"><ele>144.79999999999998</ele><time>2026-03-29T15:35:21.261Z</time></trkpt><trkpt lat="40.7339142" lon="9.6724828"><ele>148.4</ele><time>2026-03-29T15:35:22.263Z</time></trkpt><trkpt lat="40.7338915" lon="9.672617"><ele>152.0</ele><time>2026-03-29T15:35:23.258Z</time></trkpt><trkpt lat="40.7338792" lon="9.6727543"><ele>155.39999999999998</ele><time>2026-03-29T15:35:24.31Z</time></trkpt><trkpt lat="40.733866" lon="9.6728979"><ele>158.79999999999998</ele><time>2026-03-29T15:35:25.268Z</time></trkpt><trkpt lat="40.7338567" lon="9.6730356"><ele>162.2</ele><time>2026-03-29T15:35:26.276Z</time></trkpt><trkpt lat="40.7338513" lon="9.6731714"><ele>165.6</ele><time>2026-03-29T15:35:27.262Z</time></trkpt><trkpt lat="40.733848" lon="9.6732994"><ele>169.0</ele><time>2026-03-29T15:35:28.265Z</time></trkpt><trkpt lat="40.7338591" lon="9.6733933"><ele>169.0</ele><time>2026-03-29T15:35:29.264Z</time></trkpt><trkpt lat="40.7339034" lon="9.6734768"><ele>169.0</ele><time>2026-03-29T15:35:31.262Z</time></trkpt><trkpt lat="40.7339806" lon="9.6734243"><ele>169.0</ele><time>2026-03-29T15:35:34.265Z</time></trkpt><trkpt lat="40.7339841" lon="9.6732688"><ele>169.0</ele><time>2026-03-29T15:35:36.261Z</time></trkpt><trkpt lat="40.7339988" lon="9.673181"><ele>169.0</ele><time>2026-03-29T15:35:37.271Z</time></trkpt><trkpt lat="40.7340471" lon="9.6730849"><ele>169.0</ele><time>2026-03-29T15:35:38.271Z</time></trkpt><trkpt lat="40.7341058" lon="9.6729873"><ele>169.0</ele><time>2026-03-29T15:35:39.259Z</time></trkpt><trkpt lat="40.7341701" lon="9.6728813"><ele>169.0</ele><time>2026-03-29T15:35:40.264Z</time></trkpt><trkpt lat="40.734239" lon="9.6727898"><ele>169.0</ele><time>2026-03-29T15:35:41.262Z</time></trkpt><trkpt lat="40.7343093" lon="9.6727234"><ele>169.0</ele><time>2026-03-29T15:35:42.272Z</time></trkpt><trkpt lat="40.7343876" lon="9.6726831"><ele>169.0</ele><time>2026-03-29T15:35:43.262Z</time></trkpt><trkpt lat="40.7344637" lon="9.6726667"><ele>169.0</ele><time>2026-03-29T15:35:44.3Z</time></trkpt><trkpt lat="40.7345498" lon="9.672677"><ele>169.5</ele><time>2026-03-29T15:35:45.268Z</time></trkpt><trkpt lat="40.7346461" lon="9.6727055"><ele>170.0</ele><time>2026-03-29T15:35:46.272Z</time></trkpt><trkpt lat="40.7347428" lon="9.6727291"><ele>170.5</ele><time>2026-03-29T15:35:47.26Z</time></trkpt><trkpt lat="40.7348237" lon="9.6727288"><ele>171.0</ele><time>2026-03-29T15:35:48.269Z</time></trkpt><trkpt lat="40.7348911" lon="9.6727247"><ele>171.5</ele><time>2026-03-29T15:35:49.265Z</time></trkpt><trkpt lat="40.7349418" lon="9.6726688"><ele>172.0</ele><time>2026-03-29T15:35:50.257Z</time></trkpt><trkpt lat="40.7349919" lon="9.6725897"><ele>172.0</ele><time>2026-03-29T15:35:51.269Z</time></trkpt><trkpt lat="40.7350164" lon="9.6724611"><ele>172.0</ele><time>2026-03-29T15:35:52.271Z</time></trkpt><trkpt lat="40.7350424" lon="9.6723562"><ele>172.0</ele><time>2026-03-29T15:35:53.26Z</time></trkpt><trkpt lat="40.7350686" lon="9.6722587"><ele>172.0</ele><time>2026-03-29T15:35:54.261Z</time></trkpt><trkpt lat="40.7351359" lon="9.6722138"><ele>172.0</ele><time>2026-03-29T15:35:55.269Z</time></trkpt><trkpt lat="40.735231" lon="9.6721916"><ele>172.0</ele><time>2026-03-29T15:35:56.263Z</time></trkpt><trkpt lat="40.7353479" lon="9.6721874"><ele>173.8</ele><time>2026-03-29T15:35:57.297Z</time></trkpt><trkpt lat="40.7354539" lon="9.6721925"><ele>175.6</ele><time>2026-03-29T15:35:58.265Z</time></trkpt><trkpt lat="40.7355499" lon="9.6722007"><ele>177.4</ele><time>2026-03-29T15:35:59.267Z</time></trkpt><trkpt lat="40.7356426" lon="9.6722331"><ele>179.20000000000002</ele><time>2026-03-29T15:36:00.262Z</time></trkpt><trkpt lat="40.7357356" lon="9.6723133"><ele>181.0</ele><time>2026-03-29T15:36:01.265Z</time></trkpt><trkpt lat="40.7358338" lon="9.6723794"><ele>181.0</ele><time>2026-03-29T15:36:02.271Z</time></trkpt><trkpt lat="40.7359157" lon="9.6724258"><ele>181.0</ele><time>2026-03-29T15:36:03.27Z</time></trkpt><trkpt lat="40.7359852" lon="9.6724507"><ele>181.0</ele><time>2026-03-29T15:36:04.275Z</time></trkpt><trkpt lat="40.7360483" lon="9.6724439"><ele>181.0</ele><time>2026-03-29T15:36:05.265Z</time></trkpt><trkpt lat="40.7361286" lon="9.6723708"><ele>181.0</ele><time>2026-03-29T15:36:07.265Z</time></trkpt><trkpt lat="40.7361613" lon="9.6722437"><ele>181.0</ele><time>2026-03-29T15:36:09.27Z</time></trkpt><trkpt lat="40.7361914" lon="9.6721285"><ele>181.83333333333334</ele><time>2026-03-29T15:36:10.282Z</time></trkpt><trkpt lat="40.736242" lon="9.6720361"><ele>182.66666666666669</ele><time>2026-03-29T15:36:11.263Z</time></trkpt><trkpt lat="40.7363006" lon="9.6719339"><ele>183.5</ele><time>2026-03-29T15:36:12.272Z</time></trkpt><trkpt lat="40.7363555" lon="9.6718413"><ele>184.33333333333334</ele><time>2026-03-29T15:36:13.26Z</time></trkpt><trkpt lat="40.7364245" lon="9.6717859"><ele>185.16666666666666</ele><time>2026-03-29T15:36:14.273Z</time></trkpt><trkpt lat="40.7365181" lon="9.6717569"><ele>186.0</ele><time>2026-03-29T15:36:15.267Z</time></trkpt><trkpt lat="40.7366163" lon="9.671761"><ele>186.0</ele><time>2026-03-29T15:36:16.274Z</time></trkpt><trkpt lat="40.7367173" lon="9.6717708"><ele>186.0</ele><time>2026-03-29T15:36:17.27Z</time></trkpt><trkpt lat="40.7368327" lon="9.671769"><ele>186.0</ele><time>2026-03-29T15:36:18.292Z</time></trkpt><trkpt lat="40.7369428" lon="9.6717448"><ele>186.0</ele><time>2026-03-29T15:36:19.269Z</time></trkpt><trkpt lat="40.7370449" lon="9.6717109"><ele>186.0</ele><time>2026-03-29T15:36:20.26Z</time></trkpt><trkpt lat="40.7371473" lon="9.6716657"><ele>190.25</ele><time>2026-03-29T15:36:21.267Z</time></trkpt><trkpt lat="40.7372511" lon="9.6716221"><ele>194.5</ele><time>2026-03-29T15:36:22.263Z</time></trkpt><trkpt lat="40.7373575" lon="9.6715524"><ele>198.75</ele><time>2026-03-29T15:36:23.281Z</time></trkpt><trkpt lat="40.7374647" lon="9.6714704"><ele>203.0</ele><time>2026-03-29T15:36:24.268Z</time></trkpt><trkpt lat="40.7375665" lon="9.6713897"><ele>203.00000000000003</ele><time>2026-03-29T15:36:25.262Z</time></trkpt><trkpt lat="40.7376497" lon="9.671347"><ele>203.0</ele><time>2026-03-29T15:36:26.268Z</time></trkpt><trkpt lat="40.7377236" lon="9.6713347"><ele>203.0</ele><time>2026-03-29T15:36:27.264Z</time></trkpt><trkpt lat="40.7377921" lon="9.6713652"><ele>203.0</ele><time>2026-03-29T15:36:28.271Z</time></trkpt><trkpt lat="40.7378655" lon="9.6714269"><ele>203.00000000000003</ele><time>2026-03-29T15:36:29.266Z</time></trkpt><trkpt lat="40.7379387" lon="9.6715115"><ele>203.0</ele><time>2026-03-29T15:36:30.297Z</time></trkpt><trkpt lat="40.7380099" lon="9.6715999"><ele>202.60000000000002</ele><time>2026-03-29T15:36:31.259Z</time></trkpt><trkpt lat="40.7380623" lon="9.6717193"><ele>202.20000000000002</ele><time>2026-03-29T15:36:32.262Z</time></trkpt><trkpt lat="40.7381095" lon="9.671838"><ele>201.8</ele><time>2026-03-29T15:36:33.272Z</time></trkpt><trkpt lat="40.7381542" lon="9.6719652"><ele>201.4</ele><time>2026-03-29T15:36:34.26Z</time></trkpt><trkpt lat="40.7382001" lon="9.6721004"><ele>201.0</ele><time>2026-03-29T15:36:35.283Z</time></trkpt><trkpt lat="40.7382488" lon="9.6722429"><ele>204.25</ele><time>2026-03-29T15:36:36.265Z</time></trkpt><trkpt lat="40.7383" lon="9.6723911"><ele>207.5</ele><time>2026-03-29T15:36:37.263Z</time></trkpt><trkpt lat="40.7383538" lon="9.6725433"><ele>210.75</ele><time>2026-03-29T15:36:38.265Z</time></trkpt><trkpt lat="40.7384164" lon="9.6726889"><ele>214.0</ele><time>2026-03-29T15:36:39.274Z</time></trkpt><trkpt lat="40.7384792" lon="9.6728296"><ele>210.39999999999998</ele><time>2026-03-29T15:36:40.266Z</time></trkpt><trkpt lat="40.7385351" lon="9.6729655"><ele>206.79999999999998</ele><time>2026-03-29T15:36:41.267Z</time></trkpt><trkpt lat="40.7385838" lon="9.6730906"><ele>203.2</ele><time>2026-03-29T15:36:42.266Z</time></trkpt><trkpt lat="40.7386253" lon="9.6732063"><ele>199.60000000000002</ele><time>2026-03-29T15:36:43.264Z</time></trkpt><trkpt lat="40.7386654" lon="9.6733139"><ele>196.0</ele><time>2026-03-29T15:36:44.293Z</time></trkpt><trkpt lat="40.7386878" lon="9.6734121"><ele>196.0</ele><time>2026-03-29T15:36:45.269Z</time></trkpt><trkpt lat="40.7386935" lon="9.6735525"><ele>196.0</ele><time>2026-03-29T15:36:46.273Z</time></trkpt><trkpt lat="40.7387025" lon="9.673696"><ele>196.0</ele><time>2026-03-29T15:36:47.269Z</time></trkpt><trkpt lat="40.7387132" lon="9.6738522"><ele>196.0</ele><time>2026-03-29T15:36:48.26Z</time></trkpt><trkpt lat="40.7387239" lon="9.674014"><ele>199.8</ele><time>2026-03-29T15:36:49.27Z</time></trkpt><trkpt lat="40.738732" lon="9.6741713"><ele>203.60000000000002</ele><time>2026-03-29T15:36:50.266Z</time></trkpt><trkpt lat="40.7387388" lon="9.6743309"><ele>207.4</ele><time>2026-03-29T15:36:51.286Z</time></trkpt><trkpt lat="40.7387485" lon="9.6744697"><ele>211.2</ele><time>2026-03-29T15:36:52.271Z</time></trkpt><trkpt lat="40.7387668" lon="9.6745819"><ele>215.0</ele><time>2026-03-29T15:36:53.266Z</time></trkpt><trkpt lat="40.7388035" lon="9.6746719"><ele>218.66666666666669</ele><time>2026-03-29T15:36:54.272Z</time></trkpt><trkpt lat="40.7388547" lon="9.6747453"><ele>222.33333333333334</ele><time>2026-03-29T15:36:55.269Z</time></trkpt><trkpt lat="40.7389154" lon="9.6747928"><ele>226.0</ele><time>2026-03-29T15:36:56.268Z</time></trkpt><trkpt lat="40.7389813" lon="9.6748396"><ele>229.66666666666669</ele><time>2026-03-29T15:36:57.259Z</time></trkpt><trkpt lat="40.7390756" lon="9.6748473"><ele>233.33333333333334</ele><time>2026-03-29T15:36:58.292Z</time></trkpt><trkpt lat="40.7391716" lon="9.6748554"><ele>237.0</ele><time>2026-03-29T15:36:59.27Z</time></trkpt><trkpt lat="40.7392764" lon="9.6748742"><ele>237.0</ele><time>2026-03-29T15:37:00.267Z</time></trkpt><trkpt lat="40.7393701" lon="9.6748938"><ele>237.0</ele><time>2026-03-29T15:37:01.269Z</time></trkpt><trkpt lat="40.7394323" lon="9.6749282"><ele>237.0</ele><time>2026-03-29T15:37:02.269Z</time></trkpt><trkpt lat="40.7394934" lon="9.6749635"><ele>237.0</ele><time>2026-03-29T15:37:04.277Z</time></trkpt><trkpt lat="40.7394861" lon="9.6751209"><ele>237.0</ele><time>2026-03-29T15:46:31.281Z</time></trkpt><trkpt lat="40.7395028" lon="9.6752023"><ele>237.0</ele><time>2026-03-29T15:46:32.271Z</time></trkpt><trkpt lat="40.7395255" lon="9.6752825"><ele>235.33333333333334</ele><time>2026-03-29T15:46:33.276Z</time></trkpt><trkpt lat="40.7395576" lon="9.6753744"><ele>233.66666666666669</ele><time>2026-03-29T15:46:34.272Z</time></trkpt><trkpt lat="40.7395873" lon="9.6754754"><ele>232.0</ele><time>2026-03-29T15:46:35.28Z</time></trkpt><trkpt lat="40.7396204" lon="9.6755745"><ele>230.33333333333334</ele><time>2026-03-29T15:46:36.269Z</time></trkpt><trkpt lat="40.7396506" lon="9.6756729"><ele>228.66666666666669</ele><time>2026-03-29T15:46:37.27Z</time></trkpt><trkpt lat="40.7396785" lon="9.6757743"><ele>227.0</ele><time>2026-03-29T15:46:38.272Z</time></trkpt><trkpt lat="40.7397041" lon="9.675865"><ele>227.00000000000003</ele><time>2026-03-29T15:46:39.271Z</time></trkpt><trkpt lat="40.7397432" lon="9.6759501"><ele>227.0</ele><time>2026-03-29T15:46:40.292Z</time></trkpt><trkpt lat="40.7397802" lon="9.6760235"><ele>227.0</ele><time>2026-03-29T15:46:41.269Z</time></trkpt><trkpt lat="40.7398234" lon="9.6761624"><ele>227.0</ele><time>2026-03-29T15:46:43.269Z</time></trkpt><trkpt lat="40.7398232" lon="9.6762491"><ele>227.00000000000003</ele><time>2026-03-29T15:46:44.268Z</time></trkpt><trkpt lat="40.7398215" lon="9.676343"><ele>227.0</ele><time>2026-03-29T15:46:45.269Z</time></trkpt><trkpt lat="40.7398197" lon="9.6764422"><ele>230.00000000000003</ele><time>2026-03-29T15:46:46.268Z</time></trkpt><trkpt lat="40.7398331" lon="9.6765463"><ele>233.0</ele><time>2026-03-29T15:46:47.288Z</time></trkpt><trkpt lat="40.7398566" lon="9.6766435"><ele>236.0</ele><time>2026-03-29T15:46:48.275Z</time></trkpt><trkpt lat="40.7398777" lon="9.6767355"><ele>239.0</ele><time>2026-03-29T15:46:49.273Z</time></trkpt><trkpt lat="40.7398966" lon="9.6768423"><ele>242.00000000000003</ele><time>2026-03-29T15:46:50.266Z</time></trkpt><trkpt lat="40.7399122" lon="9.6769447"><ele>245.0</ele><time>2026-03-29T15:46:51.265Z</time></trkpt><trkpt lat="40.7399267" lon="9.6770416"><ele>247.50000000000003</ele><time>2026-03-29T15:46:52.265Z</time></trkpt><trkpt lat="40.739949" lon="9.6771492"><ele>250.0</ele><time>2026-03-29T15:46:53.267Z</time></trkpt><trkpt lat="40.7399662" lon="9.6772533"><ele>252.5</ele><time>2026-03-29T15:46:54.266Z</time></trkpt><trkpt lat="40.7399778" lon="9.6773632"><ele>255.0</ele><time>2026-03-29T15:46:55.292Z</time></trkpt><trkpt lat="40.7399911" lon="9.6774718"><ele>257.5</ele><time>2026-03-29T15:46:56.278Z</time></trkpt><trkpt lat="40.7400074" lon="9.6775663"><ele>260.0</ele><time>2026-03-29T15:46:57.273Z</time></trkpt><trkpt lat="40.7400286" lon="9.6776515"><ele>260.0</ele><time>2026-03-29T15:46:58.276Z</time></trkpt><trkpt lat="40.7400459" lon="9.6777321"><ele>260.0</ele><time>2026-03-29T15:46:59.27Z</time></trkpt><trkpt lat="40.7400376" lon="9.6778202"><ele>260.0</ele><time>2026-03-29T15:47:00.297Z</time></trkpt><trkpt lat="40.7400353" lon="9.6779066"><ele>260.0</ele><time>2026-03-29T15:47:01.268Z</time></trkpt><trkpt lat="40.7400118" lon="9.6780592"><ele>260.0</ele><time>2026-03-29T15:47:03.27Z</time></trkpt><trkpt lat="40.7399276" lon="9.678152"><ele>260.0</ele><time>2026-03-29T15:47:05.277Z</time></trkpt><trkpt lat="40.739858" lon="9.6781764"><ele>262.2</ele><time>2026-03-29T15:47:08.287Z</time></trkpt><trkpt lat="40.7397902" lon="9.6781423"><ele>264.4</ele><time>2026-03-29T15:47:23.272Z</time></trkpt><trkpt lat="40.7397141" lon="9.678109"><ele>266.6</ele><time>2026-03-29T15:47:25.278Z</time></trkpt><trkpt lat="40.7395921" lon="9.6780591"><ele>268.8</ele><time>2026-03-29T15:47:27.296Z</time></trkpt><trkpt lat="40.7394883" lon="9.6780178"><ele>271.0</ele><time>2026-03-29T15:47:29.269Z</time></trkpt><trkpt lat="40.7393809" lon="9.6779409"><ele>273.2857142857143</ele><time>2026-03-29T15:47:31.268Z</time></trkpt><trkpt lat="40.7393241" lon="9.6779014"><ele>275.57142857142856</ele><time>2026-03-29T15:47:32.274Z</time></trkpt><trkpt lat="40.7392613" lon="9.6778574"><ele>277.8571428571429</ele><time>2026-03-29T15:47:33.264Z</time></trkpt><trkpt lat="40.739195" lon="9.6778095"><ele>280.1428571428571</ele><time>2026-03-29T15:47:34.273Z</time></trkpt><trkpt lat="40.7391329" lon="9.677761"><ele>282.42857142857144</ele><time>2026-03-29T15:47:35.269Z</time></trkpt><trkpt lat="40.7390752" lon="9.6777067"><ele>284.7142857142857</ele><time>2026-03-29T15:47:36.279Z</time></trkpt><trkpt lat="40.7390229" lon="9.6776526"><ele>287.0</ele><time>2026-03-29T15:47:37.269Z</time></trkpt><trkpt lat="40.738932" lon="9.6775865"><ele>287.0</ele><time>2026-03-29T15:47:39.268Z</time></trkpt><trkpt lat="40.7388266" lon="9.6775949"><ele>287.0</ele><time>2026-03-29T15:47:41.269Z</time></trkpt><trkpt lat="40.7387266" lon="9.6775508"><ele>287.0</ele><time>2026-03-29T15:47:43.268Z</time></trkpt><trkpt lat="40.7386177" lon="9.6774621"><ele>287.0</ele><time>2026-03-29T15:47:45.264Z</time></trkpt><trkpt lat="40.7385507" lon="9.677414"><ele>287.0</ele><time>2026-03-29T15:47:46.267Z</time></trkpt><trkpt lat="40.7384882" lon="9.6773794"><ele>291.1666666666667</ele><time>2026-03-29T15:47:47.272Z</time></trkpt><trkpt lat="40.7384077" lon="9.6773444"><ele>295.33333333333337</ele><time>2026-03-29T15:47:49.269Z</time></trkpt><trkpt lat="40.7383629" lon="9.6774118"><ele>299.5</ele><time>2026-03-29T15:47:52.268Z</time></trkpt><trkpt lat="40.7383894" lon="9.6775022"><ele>303.6666666666667</ele><time>2026-03-29T15:47:54.269Z</time></trkpt><trkpt lat="40.7384251" lon="9.6776034"><ele>307.8333333333333</ele><time>2026-03-29T15:47:56.275Z</time></trkpt><trkpt lat="40.7383897" lon="9.6777615"><ele>312.0</ele><time>2026-03-29T15:47:58.271Z</time></trkpt><trkpt lat="40.7383605" lon="9.6778452"><ele>313.1666666666667</ele><time>2026-03-29T15:47:59.285Z</time></trkpt><trkpt lat="40.738342" lon="9.6779418"><ele>314.3333333333333</ele><time>2026-03-29T15:48:00.266Z</time></trkpt><trkpt lat="40.7383255" lon="9.6780536"><ele>315.5</ele><time>2026-03-29T15:48:01.27Z</time></trkpt><trkpt lat="40.7383052" lon="9.6781653"><ele>316.66666666666663</ele><time>2026-03-29T15:48:02.267Z</time></trkpt><trkpt lat="40.7382858" lon="9.6782776"><ele>317.8333333333333</ele><time>2026-03-29T15:48:03.273Z</time></trkpt><trkpt lat="40.7382744" lon="9.6783798"><ele>319.0</ele><time>2026-03-29T15:48:04.267Z</time></trkpt><trkpt lat="40.738283" lon="9.6784686"><ele>319.0</ele><time>2026-03-29T15:48:05.274Z</time></trkpt><trkpt lat="40.7383066" lon="9.678549"><ele>319.0</ele><time>2026-03-29T15:48:06.262Z</time></trkpt><trkpt lat="40.7383424" lon="9.6786245"><ele>319.0</ele><time>2026-03-29T15:48:07.269Z</time></trkpt><trkpt lat="40.7383967" lon="9.6787575"><ele>319.0</ele><time>2026-03-29T15:48:09.278Z</time></trkpt><trkpt lat="40.7384654" lon="9.6788774"><ele>319.0</ele><time>2026-03-29T15:48:11.272Z</time></trkpt><trkpt lat="40.7385716" lon="9.6789292"><ele>316.4</ele><time>2026-03-29T15:48:13.272Z</time></trkpt><trkpt lat="40.738681" lon="9.6789625"><ele>313.79999999999995</ele><time>2026-03-29T15:48:15.271Z</time></trkpt><trkpt lat="40.7387618" lon="9.6790439"><ele>311.20000000000005</ele><time>2026-03-29T15:48:17.276Z</time></trkpt><trkpt lat="40.7388125" lon="9.679213"><ele>308.6</ele><time>2026-03-29T15:48:19.277Z</time></trkpt><trkpt lat="40.7388344" lon="9.6793215"><ele>306.0</ele><time>2026-03-29T15:48:20.276Z</time></trkpt><trkpt lat="40.7388542" lon="9.6794337"><ele>306.0</ele><time>2026-03-29T15:48:21.275Z</time></trkpt><trkpt lat="40.7388681" lon="9.6795416"><ele>306.0</ele><time>2026-03-29T15:48:22.277Z</time></trkpt><trkpt lat="40.7388808" lon="9.6796535"><ele>306.0</ele><time>2026-03-29T15:48:23.275Z</time></trkpt><trkpt lat="40.738893" lon="9.6797607"><ele>306.0</ele><time>2026-03-29T15:48:24.27Z</time></trkpt><trkpt lat="40.7389032" lon="9.6798556"><ele>306.0</ele><time>2026-03-29T15:48:25.269Z</time></trkpt><trkpt lat="40.7389219" lon="9.6800166"><ele>306.0</ele><time>2026-03-29T15:48:27.293Z</time></trkpt><trkpt lat="40.7389443" lon="9.6801509"><ele>304.6666666666667</ele><time>2026-03-29T15:48:29.27Z</time></trkpt><trkpt lat="40.7389672" lon="9.6802666"><ele>303.3333333333333</ele><time>2026-03-29T15:48:31.276Z</time></trkpt><trkpt lat="40.7389789" lon="9.6803587"><ele>302.0</ele><time>2026-03-29T15:48:33.269Z</time></trkpt><trkpt lat="40.7389874" lon="9.6804544"><ele>300.66666666666663</ele><time>2026-03-29T15:48:36.267Z</time></trkpt><trkpt lat="40.739019" lon="9.6805495"><ele>299.3333333333333</ele><time>2026-03-29T15:49:23.277Z</time></trkpt><trkpt lat="40.739042" lon="9.680635"><ele>298.0</ele><time>2026-03-29T15:49:25.273Z</time></trkpt><trkpt lat="40.7390657" lon="9.6807261"><ele>298.0</ele><time>2026-03-29T15:49:27.269Z</time></trkpt><trkpt lat="40.7390907" lon="9.680867"><ele>298.0</ele><time>2026-03-29T15:49:29.272Z</time></trkpt><trkpt lat="40.7390998" lon="9.680952"><ele>298.0</ele><time>2026-03-29T15:49:30.26Z</time></trkpt><trkpt lat="40.73911" lon="9.6811014"><ele>298.0</ele><time>2026-03-29T15:49:32.264Z</time></trkpt><trkpt lat="40.7391066" lon="9.6812458"><ele>298.0</ele><time>2026-03-29T15:49:34.267Z</time></trkpt><trkpt lat="40.7391153" lon="9.681374"><ele>295.5</ele><time>2026-03-29T15:49:36.265Z</time></trkpt><trkpt lat="40.7391441" lon="9.6814789"><ele>293.0</ele><time>2026-03-29T15:49:38.269Z</time></trkpt><trkpt lat="40.7391984" lon="9.6815563"><ele>290.5</ele><time>2026-03-29T15:49:40.268Z</time></trkpt><trkpt lat="40.7392953" lon="9.6816199"><ele>288.0</ele><time>2026-03-29T15:49:42.304Z</time></trkpt><trkpt lat="40.7393423" lon="9.6817035"><ele>285.5</ele><time>2026-03-29T15:49:44.265Z</time></trkpt><trkpt lat="40.7393362" lon="9.6817923"><ele>283.0</ele><time>2026-03-29T15:49:46.274Z</time></trkpt><trkpt lat="40.7392789" lon="9.6818802"><ele>279.0</ele><time>2026-03-29T15:49:48.266Z</time></trkpt><trkpt lat="40.7391984" lon="9.6819704"><ele>275.0</ele><time>2026-03-29T15:49:50.266Z</time></trkpt><trkpt lat="40.7391032" lon="9.6820932"><ele>271.0</ele><time>2026-03-29T15:49:52.269Z</time></trkpt><trkpt lat="40.7390569" lon="9.6821557"><ele>267.0</ele><time>2026-03-29T15:49:53.269Z</time></trkpt><trkpt lat="40.7390094" lon="9.6822114"><ele>263.0</ele><time>2026-03-29T15:49:54.264Z</time></trkpt><trkpt lat="40.7389447" lon="9.682302"><ele>263.0</ele><time>2026-03-29T15:49:56.271Z</time></trkpt><trkpt lat="40.7389666" lon="9.6824001"><ele>263.0</ele><time>2026-03-29T15:49:59.27Z</time></trkpt><trkpt lat="40.7390364" lon="9.6824211"><ele>263.0</ele><time>2026-03-29T15:50:01.265Z</time></trkpt><trkpt lat="40.7391008" lon="9.6824557"><ele>263.0</ele><time>2026-03-29T15:50:02.274Z</time></trkpt><trkpt lat="40.7391794" lon="9.6824863"><ele>263.0</ele><time>2026-03-29T15:50:03.269Z</time></trkpt><trkpt lat="40.7392365" lon="9.6825389"><ele>263.0</ele><time>2026-03-29T15:50:04.269Z</time></trkpt><trkpt lat="40.7393032" lon="9.682597"><ele>263.0</ele><time>2026-03-29T15:50:05.267Z</time></trkpt><trkpt lat="40.7393737" lon="9.6826576"><ele>263.0</ele><time>2026-03-29T15:50:06.265Z</time></trkpt><trkpt lat="40.7394395" lon="9.6827207"><ele>263.0</ele><time>2026-03-29T15:50:07.283Z</time></trkpt><trkpt lat="40.7395007" lon="9.6827815"><ele>263.0</ele><time>2026-03-29T15:50:08.265Z</time></trkpt><trkpt lat="40.7395489" lon="9.6828355"><ele>263.0</ele><time>2026-03-29T15:50:09.261Z</time></trkpt><trkpt lat="40.7395991" lon="9.6828892"><ele>263.0</ele><time>2026-03-29T15:50:10.259Z</time></trkpt><trkpt lat="40.7396523" lon="9.6829439"><ele>263.0</ele><time>2026-03-29T15:50:11.262Z</time></trkpt><trkpt lat="40.7397081" lon="9.6830051"><ele>258.33333333333337</ele><time>2026-03-29T15:50:12.266Z</time></trkpt><trkpt lat="40.7397648" lon="9.6830645"><ele>253.66666666666669</ele><time>2026-03-29T15:50:13.265Z</time></trkpt><trkpt lat="40.7398221" lon="9.6831245"><ele>249.0</ele><time>2026-03-29T15:50:14.268Z</time></trkpt><trkpt lat="40.7398784" lon="9.6831827"><ele>244.33333333333331</ele><time>2026-03-29T15:50:15.284Z</time></trkpt><trkpt lat="40.7399303" lon="9.6832419"><ele>239.66666666666666</ele><time>2026-03-29T15:50:16.269Z</time></trkpt><trkpt lat="40.7399778" lon="9.6833016"><ele>235.0</ele><time>2026-03-29T15:50:17.265Z</time></trkpt><trkpt lat="40.7400376" lon="9.6834489"><ele>234.99999999999997</ele><time>2026-03-29T15:50:19.264Z</time></trkpt><trkpt lat="40.7400523" lon="9.6835395"><ele>235.0</ele><time>2026-03-29T15:50:20.273Z</time></trkpt><trkpt lat="40.7400596" lon="9.683637"><ele>235.0</ele><time>2026-03-29T15:50:21.289Z</time></trkpt><trkpt lat="40.7400662" lon="9.6837311"><ele>235.0</ele><time>2026-03-29T15:50:22.266Z</time></trkpt><trkpt lat="40.7400826" lon="9.6838865"><ele>234.99999999999997</ele><time>2026-03-29T15:50:24.266Z</time></trkpt><trkpt lat="40.7400758" lon="9.6840317"><ele>235.0</ele><time>2026-03-29T15:50:26.269Z</time></trkpt><trkpt lat="40.7400613" lon="9.6841685"><ele>232.0</ele><time>2026-03-29T15:50:28.284Z</time></trkpt><trkpt lat="40.7400872" lon="9.6843231"><ele>229.0</ele><time>2026-03-29T15:50:30.267Z</time></trkpt><trkpt lat="40.7401162" lon="9.6844148"><ele>226.0</ele><time>2026-03-29T15:50:31.269Z</time></trkpt><trkpt lat="40.740154" lon="9.6845531"><ele>223.0</ele><time>2026-03-29T15:50:33.268Z</time></trkpt><trkpt lat="40.7401687" lon="9.684674"><ele>220.0</ele><time>2026-03-29T15:50:35.268Z</time></trkpt><trkpt lat="40.7401865" lon="9.6847943"><ele>217.49999999999997</ele><time>2026-03-29T15:50:37.298Z</time></trkpt><trkpt lat="40.740275" lon="9.684875"><ele>215.0</ele><time>2026-03-29T15:50:39.274Z</time></trkpt><trkpt lat="40.7403387" lon="9.6849293"><ele>212.5</ele><time>2026-03-29T15:50:40.27Z</time></trkpt><trkpt lat="40.7403963" lon="9.6849884"><ele>210.0</ele><time>2026-03-29T15:50:41.265Z</time></trkpt><trkpt lat="40.7404496" lon="9.6850584"><ele>207.49999999999997</ele><time>2026-03-29T15:50:42.273Z</time></trkpt><trkpt lat="40.7404997" lon="9.6851274"><ele>205.0</ele><time>2026-03-29T15:50:43.27Z</time></trkpt><trkpt lat="40.7405881" lon="9.6852353"><ele>203.0</ele><time>2026-03-29T15:50:45.265Z</time></trkpt><trkpt lat="40.7406705" lon="9.6853347"><ele>201.0</ele><time>2026-03-29T15:50:47.268Z</time></trkpt><trkpt lat="40.7407026" lon="9.6854689"><ele>199.0</ele><time>2026-03-29T15:50:49.269Z</time></trkpt><trkpt lat="40.7406893" lon="9.6855768"><ele>197.0</ele><time>2026-03-29T15:50:51.266Z</time></trkpt><trkpt lat="40.7406203" lon="9.6856164"><ele>195.0</ele><time>2026-03-29T15:50:53.288Z</time></trkpt><trkpt lat="40.7405421" lon="9.6856037"><ele>195.0</ele><time>2026-03-29T15:50:55.27Z</time></trkpt><trkpt lat="40.7404388" lon="9.6855684"><ele>195.0</ele><time>2026-03-29T15:50:57.268Z</time></trkpt><trkpt lat="40.7403353" lon="9.6855597"><ele>195.0</ele><time>2026-03-29T15:50:59.267Z</time></trkpt><trkpt lat="40.7402344" lon="9.6855427"><ele>195.0</ele><time>2026-03-29T15:51:01.266Z</time></trkpt><trkpt lat="40.7401095" lon="9.6855204"><ele>195.0</ele><time>2026-03-29T15:51:03.277Z</time></trkpt><trkpt lat="40.7400447" lon="9.6855178"><ele>192.16666666666666</ele><time>2026-03-29T15:51:04.264Z</time></trkpt><trkpt lat="40.7399802" lon="9.6855239"><ele>189.33333333333334</ele><time>2026-03-29T15:51:05.265Z</time></trkpt><trkpt lat="40.7398631" lon="9.6855247"><ele>186.5</ele><time>2026-03-29T15:51:07.269Z</time></trkpt><trkpt lat="40.7397872" lon="9.6855075"><ele>183.66666666666669</ele><time>2026-03-29T15:51:09.274Z</time></trkpt><trkpt lat="40.7397166" lon="9.6855406"><ele>180.83333333333334</ele><time>2026-03-29T15:51:12.267Z</time></trkpt><trkpt lat="40.7397376" lon="9.6856483"><ele>178.0</ele><time>2026-03-29T15:51:15.27Z</time></trkpt><trkpt lat="40.7397775" lon="9.6857361"><ele>178.0</ele><time>2026-03-29T15:51:17.266Z</time></trkpt><trkpt lat="40.7398319" lon="9.6858217"><ele>178.0</ele><time>2026-03-29T15:51:19.265Z</time></trkpt><trkpt lat="40.739893" lon="9.6859383"><ele>178.0</ele><time>2026-03-29T15:51:21.268Z</time></trkpt><trkpt lat="40.7399455" lon="9.6860613"><ele>178.0</ele><time>2026-03-29T15:51:23.262Z</time></trkpt><trkpt lat="40.7399948" lon="9.6861554"><ele>178.0</ele><time>2026-03-29T15:51:25.268Z</time></trkpt><trkpt lat="40.73996" lon="9.6862468"><ele>178.0</ele><time>2026-03-29T15:51:28.27Z</time></trkpt><trkpt lat="40.739892" lon="9.6862212"><ele>178.0</ele><time>2026-03-29T15:51:30.265Z</time></trkpt><trkpt lat="40.7398111" lon="9.6861733"><ele>178.0</ele><time>2026-03-29T15:51:32.263Z</time></trkpt><trkpt lat="40.7397145" lon="9.6861428"><ele>178.0</ele><time>2026-03-29T15:51:34.268Z</time></trkpt><trkpt lat="40.7396194" lon="9.6861292"><ele>178.0</ele><time>2026-03-29T15:51:36.267Z</time></trkpt><trkpt lat="40.7395381" lon="9.6861098"><ele>178.0</ele><time>2026-03-29T15:51:38.267Z</time></trkpt><trkpt lat="40.7394436" lon="9.6860897"><ele>174.0</ele><time>2026-03-29T15:51:41.265Z</time></trkpt><trkpt lat="40.7393569" lon="9.6860601"><ele>170.0</ele><time>2026-03-29T15:51:43.269Z</time></trkpt><trkpt lat="40.7392814" lon="9.686059"><ele>166.0</ele><time>2026-03-29T15:51:45.277Z</time></trkpt><trkpt lat="40.7392026" lon="9.6860635"><ele>162.0</ele><time>2026-03-29T15:51:48.262Z</time></trkpt><trkpt lat="40.7391442" lon="9.6860054"><ele>158.0</ele><time>2026-03-29T15:51:50.262Z</time></trkpt><trkpt lat="40.7390819" lon="9.6859443"><ele>154.0</ele><time>2026-03-29T15:51:52.274Z</time></trkpt><trkpt lat="40.739045" lon="9.6858606"><ele>154.0</ele><time>2026-03-29T15:51:54.276Z</time></trkpt><trkpt lat="40.7390043" lon="9.6857765"><ele>154.0</ele><time>2026-03-29T15:51:56.262Z</time></trkpt><trkpt lat="40.7389306" lon="9.6857442"><ele>154.0</ele><time>2026-03-29T15:51:59.262Z</time></trkpt><trkpt lat="40.7389089" lon="9.685827"><ele>154.0</ele><time>2026-03-29T15:52:01.27Z</time></trkpt><trkpt lat="40.7389149" lon="9.6859265"><ele>154.0</ele><time>2026-03-29T15:52:03.27Z</time></trkpt><trkpt lat="40.7389281" lon="9.6860373"><ele>154.0</ele><time>2026-03-29T15:52:05.261Z</time></trkpt><trkpt lat="40.7389085" lon="9.6861618"><ele>150.6</ele><time>2026-03-29T15:52:07.261Z</time></trkpt><trkpt lat="40.7388907" lon="9.6862856"><ele>147.2</ele><time>2026-03-29T15:52:09.269Z</time></trkpt><trkpt lat="40.7388714" lon="9.6864391"><ele>143.79999999999998</ele><time>2026-03-29T15:52:11.285Z</time></trkpt><trkpt lat="40.7388692" lon="9.6865721"><ele>140.4</ele><time>2026-03-29T15:52:13.269Z</time></trkpt><trkpt lat="40.7388694" lon="9.6867145"><ele>137.0</ele><time>2026-03-29T15:52:15.268Z</time></trkpt><trkpt lat="40.7388687" lon="9.6868716"><ele>135.66666666666666</ele><time>2026-03-29T15:52:17.262Z</time></trkpt><trkpt lat="40.738879" lon="9.6869686"><ele>134.33333333333331</ele><time>2026-03-29T15:52:18.263Z</time></trkpt><trkpt lat="40.7388806" lon="9.6870538"><ele>133.0</ele><time>2026-03-29T15:52:19.267Z</time></trkpt><trkpt lat="40.7388702" lon="9.6871427"><ele>131.66666666666666</ele><time>2026-03-29T15:52:20.27Z</time></trkpt><trkpt lat="40.7388524" lon="9.6872247"><ele>130.33333333333334</ele><time>2026-03-29T15:52:21.268Z</time></trkpt><trkpt lat="40.7388115" lon="9.6873781"><ele>129.0</ele><time>2026-03-29T15:52:23.27Z</time></trkpt><trkpt lat="40.7387867" lon="9.6875328"><ele>129.0</ele><time>2026-03-29T15:52:25.271Z</time></trkpt><trkpt lat="40.7387869" lon="9.6876782"><ele>129.0</ele><time>2026-03-29T15:52:27.283Z</time></trkpt><trkpt lat="40.7388158" lon="9.6877572"><ele>129.0</ele><time>2026-03-29T15:52:28.266Z</time></trkpt><trkpt lat="40.7388556" lon="9.6878276"><ele>129.0</ele><time>2026-03-29T15:52:29.273Z</time></trkpt><trkpt lat="40.7389263" lon="9.6879492"><ele>129.0</ele><time>2026-03-29T15:52:31.261Z</time></trkpt><trkpt lat="40.7389782" lon="9.6880646"><ele>126.4</ele><time>2026-03-29T15:52:33.269Z</time></trkpt><trkpt lat="40.7390305" lon="9.6881726"><ele>123.80000000000001</ele><time>2026-03-29T15:52:35.265Z</time></trkpt><trkpt lat="40.7390581" lon="9.6882861"><ele>121.19999999999999</ele><time>2026-03-29T15:52:37.267Z</time></trkpt><trkpt lat="40.7390665" lon="9.6884321"><ele>118.6</ele><time>2026-03-29T15:52:39.275Z</time></trkpt><trkpt lat="40.739035" lon="9.6886003"><ele>116.0</ele><time>2026-03-29T15:52:41.267Z</time></trkpt><trkpt lat="40.7390163" lon="9.6886912"><ele>114.0</ele><time>2026-03-29T15:52:42.263Z</time></trkpt><trkpt lat="40.7390086" lon="9.6887813"><ele>112.0</ele><time>2026-03-29T15:52:43.271Z</time></trkpt><trkpt lat="40.7389907" lon="9.6889386"><ele>110.0</ele><time>2026-03-29T15:52:45.269Z</time></trkpt><trkpt lat="40.7389744" lon="9.6890226"><ele>108.0</ele><time>2026-03-29T15:52:46.274Z</time></trkpt><trkpt lat="40.7389575" lon="9.6891816"><ele>106.0</ele><time>2026-03-29T15:52:48.278Z</time></trkpt><trkpt lat="40.7389683" lon="9.6893061"><ele>106.0</ele><time>2026-03-29T15:52:50.268Z</time></trkpt><trkpt lat="40.7389755" lon="9.6894112"><ele>106.0</ele><time>2026-03-29T15:52:52.271Z</time></trkpt><trkpt lat="40.7389861" lon="9.6895399"><ele>106.0</ele><time>2026-03-29T15:52:54.269Z</time></trkpt><trkpt lat="40.739" lon="9.6896804"><ele>106.0</ele><time>2026-03-29T15:52:56.267Z</time></trkpt><trkpt lat="40.7390131" lon="9.6898127"><ele>106.0</ele><time>2026-03-29T15:52:58.269Z</time></trkpt><trkpt lat="40.7390235" lon="9.6899384"><ele>104.71428571428572</ele><time>2026-03-29T15:53:00.267Z</time></trkpt><trkpt lat="40.739028" lon="9.6900706"><ele>103.42857142857142</ele><time>2026-03-29T15:53:02.288Z</time></trkpt><trkpt lat="40.7390328" lon="9.6901535"><ele>102.14285714285714</ele><time>2026-03-29T15:53:03.273Z</time></trkpt><trkpt lat="40.7390393" lon="9.6902376"><ele>100.85714285714286</ele><time>2026-03-29T15:53:04.268Z</time></trkpt><trkpt lat="40.7390457" lon="9.6903259"><ele>99.57142857142858</ele><time>2026-03-29T15:53:05.266Z</time></trkpt><trkpt lat="40.7390543" lon="9.690416"><ele>98.28571428571428</ele><time>2026-03-29T15:53:06.269Z</time></trkpt><trkpt lat="40.7390663" lon="9.6905027"><ele>97.0</ele><time>2026-03-29T15:53:07.267Z</time></trkpt><trkpt lat="40.7390842" lon="9.690585"><ele>95.16666666666667</ele><time>2026-03-29T15:53:08.268Z</time></trkpt><trkpt lat="40.7391512" lon="9.6907152"><ele>93.33333333333334</ele><time>2026-03-29T15:53:10.276Z</time></trkpt><trkpt lat="40.7392633" lon="9.6907862"><ele>91.5</ele><time>2026-03-29T15:53:12.265Z</time></trkpt><trkpt lat="40.7393279" lon="9.6908169"><ele>89.66666666666667</ele><time>2026-03-29T15:53:13.269Z</time></trkpt><trkpt lat="40.7393927" lon="9.6908343"><ele>87.83333333333334</ele><time>2026-03-29T15:53:14.265Z</time></trkpt><trkpt lat="40.7394551" lon="9.6908493"><ele>86.0</ele><time>2026-03-29T15:53:15.276Z</time></trkpt><trkpt lat="40.7395666" lon="9.6909071"><ele>86.0</ele><time>2026-03-29T15:53:17.306Z</time></trkpt><trkpt lat="40.7396617" lon="9.6909652"><ele>86.0</ele><time>2026-03-29T15:53:19.269Z</time></trkpt><trkpt lat="40.7397449" lon="9.6909889"><ele>86.0</ele><time>2026-03-29T15:53:21.269Z</time></trkpt><trkpt lat="40.7398346" lon="9.6909666"><ele>86.0</ele><time>2026-03-29T15:53:47.268Z</time></trkpt><trkpt lat="40.7398964" lon="9.690823"><ele>86.0</ele><time>2026-03-29T15:53:49.264Z</time></trkpt><trkpt lat="40.7399178" lon="9.6907092"><ele>86.0</ele><time>2026-03-29T15:53:50.301Z</time></trkpt><trkpt lat="40.7399398" lon="9.6905769"><ele>86.0</ele><time>2026-03-29T15:53:51.262Z</time></trkpt><trkpt lat="40.7399679" lon="9.6904221"><ele>86.0</ele><time>2026-03-29T15:53:52.269Z</time></trkpt><trkpt lat="40.7400032" lon="9.6902536"><ele>86.0</ele><time>2026-03-29T15:53:53.269Z</time></trkpt><trkpt lat="40.7400446" lon="9.6900828"><ele>87.25</ele><time>2026-03-29T15:53:54.267Z</time></trkpt><trkpt lat="40.7400974" lon="9.6899084"><ele>88.5</ele><time>2026-03-29T15:53:55.314Z</time></trkpt><trkpt lat="40.740152" lon="9.689734"><ele>89.75</ele><time>2026-03-29T15:53:56.265Z</time></trkpt><trkpt lat="40.7402325" lon="9.6895674"><ele>91.0</ele><time>2026-03-29T15:53:57.273Z</time></trkpt><trkpt lat="40.7403251" lon="9.6893985"><ele>95.0</ele><time>2026-03-29T15:53:58.264Z</time></trkpt><trkpt lat="40.740433" lon="9.6892276"><ele>99.0</ele><time>2026-03-29T15:53:59.261Z</time></trkpt><trkpt lat="40.7405542" lon="9.6890681"><ele>103.0</ele><time>2026-03-29T15:54:00.266Z</time></trkpt><trkpt lat="40.7406955" lon="9.6889133"><ele>103.0</ele><time>2026-03-29T15:54:01.265Z</time></trkpt><trkpt lat="40.7408366" lon="9.6887735"><ele>103.0</ele><time>2026-03-29T15:54:02.279Z</time></trkpt><trkpt lat="40.7409745" lon="9.6886422"><ele>103.0</ele><time>2026-03-29T15:54:03.266Z</time></trkpt><trkpt lat="40.7411058" lon="9.6885163"><ele>109.33333333333334</ele><time>2026-03-29T15:54:04.263Z</time></trkpt><trkpt lat="40.741231" lon="9.6883967"><ele>115.66666666666666</ele><time>2026-03-29T15:54:05.262Z</time></trkpt><trkpt lat="40.7413543" lon="9.6882806"><ele>122.0</ele><time>2026-03-29T15:54:06.267Z</time></trkpt><trkpt lat="40.7414768" lon="9.6881663"><ele>122.0</ele><time>2026-03-29T15:54:07.265Z</time></trkpt><trkpt lat="40.7415995" lon="9.688054"><ele>122.0</ele><time>2026-03-29T15:54:08.261Z</time></trkpt><trkpt lat="40.7417223" lon="9.6879407"><ele>122.0</ele><time>2026-03-29T15:54:09.269Z</time></trkpt><trkpt lat="40.7418466" lon="9.6878274"><ele>127.33333333333333</ele><time>2026-03-29T15:54:10.267Z</time></trkpt><trkpt lat="40.7419722" lon="9.6877141"><ele>132.66666666666666</ele><time>2026-03-29T15:54:11.284Z</time></trkpt><trkpt lat="40.7421005" lon="9.6876005"><ele>138.0</ele><time>2026-03-29T15:54:12.266Z</time></trkpt><trkpt lat="40.7422331" lon="9.6874873"><ele>138.0</ele><time>2026-03-29T15:54:13.267Z</time></trkpt><trkpt lat="40.742373" lon="9.6873777"><ele>138.0</ele><time>2026-03-29T15:54:14.267Z</time></trkpt><trkpt lat="40.7425236" lon="9.6872759"><ele>138.0</ele><time>2026-03-29T15:54:15.265Z</time></trkpt><trkpt lat="40.7426813" lon="9.6871838"><ele>140.66666666666666</ele><time>2026-03-29T15:54:16.269Z</time></trkpt><trkpt lat="40.7428464" lon="9.6870963"><ele>143.33333333333331</ele><time>2026-03-29T15:54:17.265Z</time></trkpt><trkpt lat="40.743017" lon="9.6870093"><ele>146.0</ele><time>2026-03-29T15:54:18.277Z</time></trkpt><trkpt lat="40.7431938" lon="9.6869215"><ele>140.0</ele><time>2026-03-29T15:54:19.266Z</time></trkpt><trkpt lat="40.7433772" lon="9.6868308"><ele>134.0</ele><time>2026-03-29T15:54:20.301Z</time></trkpt><trkpt lat="40.7435629" lon="9.6867388"><ele>128.0</ele><time>2026-03-29T15:54:21.265Z</time></trkpt><trkpt lat="40.7437438" lon="9.6866446"><ele>127.0</ele><time>2026-03-29T15:54:22.269Z</time></trkpt><trkpt lat="40.7439209" lon="9.6865521"><ele>126.0</ele><time>2026-03-29T15:54:23.266Z</time></trkpt><trkpt lat="40.7440877" lon="9.6864625"><ele>125.0</ele><time>2026-03-29T15:54:24.273Z</time></trkpt><trkpt lat="40.7442494" lon="9.6863724"><ele>121.66666666666666</ele><time>2026-03-29T15:54:25.278Z</time></trkpt><trkpt lat="40.744413" lon="9.6862846"><ele>118.33333333333334</ele><time>2026-03-29T15:54:26.277Z</time></trkpt><trkpt lat="40.7445772" lon="9.6862091"><ele>115.0</ele><time>2026-03-29T15:54:27.272Z</time></trkpt><trkpt lat="40.7447475" lon="9.686157"><ele>115.0</ele><time>2026-03-29T15:54:28.266Z</time></trkpt><trkpt lat="40.7449203" lon="9.6861324"><ele>115.0</ele><time>2026-03-29T15:54:29.268Z</time></trkpt><trkpt lat="40.745095" lon="9.686128"><ele>115.0</ele><time>2026-03-29T15:54:30.272Z</time></trkpt><trkpt lat="40.7452608" lon="9.6861314"><ele>109.0</ele><time>2026-03-29T15:54:31.269Z</time></trkpt><trkpt lat="40.7454182" lon="9.686134"><ele>103.0</ele><time>2026-03-29T15:54:32.264Z</time></trkpt><trkpt lat="40.7455664" lon="9.6861364"><ele>97.0</ele><time>2026-03-29T15:54:33.275Z</time></trkpt><trkpt lat="40.7457058" lon="9.6861325"><ele>91.0</ele><time>2026-03-29T15:54:34.269Z</time></trkpt><trkpt lat="40.7458432" lon="9.686121"><ele>92.5</ele><time>2026-03-29T15:54:35.265Z</time></trkpt><trkpt lat="40.7459847" lon="9.6860903"><ele>94.0</ele><time>2026-03-29T15:54:36.276Z</time></trkpt><trkpt lat="40.746121" lon="9.6860245"><ele>95.5</ele><time>2026-03-29T15:54:37.266Z</time></trkpt><trkpt lat="40.7462562" lon="9.6859306"><ele>97.0</ele><time>2026-03-29T15:54:38.284Z</time></trkpt><trkpt lat="40.7463826" lon="9.6858093"><ele>97.0</ele><time>2026-03-29T15:54:39.269Z</time></trkpt><trkpt lat="40.7464907" lon="9.6856544"><ele>97.0</ele><time>2026-03-29T15:54:40.265Z</time></trkpt><trkpt lat="40.7465812" lon="9.6854753"><ele>97.0</ele><time>2026-03-29T15:54:41.261Z</time></trkpt><trkpt lat="40.7466604" lon="9.6852946"><ele>96.25</ele><time>2026-03-29T15:54:42.273Z</time></trkpt><trkpt lat="40.7467419" lon="9.6851274"><ele>95.5</ele><time>2026-03-29T15:54:43.266Z</time></trkpt><trkpt lat="40.7468295" lon="9.6849788"><ele>94.75</ele><time>2026-03-29T15:54:44.265Z</time></trkpt><trkpt lat="40.7469181" lon="9.684844"><ele>94.0</ele><time>2026-03-29T15:54:45.267Z</time></trkpt><trkpt lat="40.7470222" lon="9.6847545"><ele>93.25</ele><time>2026-03-29T15:54:46.283Z</time></trkpt><trkpt lat="40.7471302" lon="9.6846958"><ele>92.5</ele><time>2026-03-29T15:54:47.277Z</time></trkpt><trkpt lat="40.7472525" lon="9.6846873"><ele>91.75</ele><time>2026-03-29T15:54:48.275Z</time></trkpt><trkpt lat="40.7473995" lon="9.6847372"><ele>91.0</ele><time>2026-03-29T15:54:49.272Z</time></trkpt><trkpt lat="40.7475562" lon="9.6847953"><ele>91.0</ele><time>2026-03-29T15:54:50.269Z</time></trkpt><trkpt lat="40.747708" lon="9.6848464"><ele>91.0</ele><time>2026-03-29T15:54:51.265Z</time></trkpt><trkpt lat="40.7478496" lon="9.6848846"><ele>91.0</ele><time>2026-03-29T15:54:52.274Z</time></trkpt><trkpt lat="40.7479804" lon="9.6848861"><ele>91.0</ele><time>2026-03-29T15:54:53.263Z</time></trkpt><trkpt lat="40.7481121" lon="9.684843"><ele>89.0</ele><time>2026-03-29T15:54:54.281Z</time></trkpt><trkpt lat="40.7482301" lon="9.684752"><ele>87.0</ele><time>2026-03-29T15:54:55.263Z</time></trkpt><trkpt lat="40.7483213" lon="9.6846251"><ele>85.0</ele><time>2026-03-29T15:54:56.267Z</time></trkpt><trkpt lat="40.7483748" lon="9.6844712"><ele>83.0</ele><time>2026-03-29T15:54:57.266Z</time></trkpt><trkpt lat="40.7483993" lon="9.6842931"><ele>83.0</ele><time>2026-03-29T15:54:58.277Z</time></trkpt><trkpt lat="40.7484043" lon="9.6840963"><ele>83.0</ele><time>2026-03-29T15:54:59.271Z</time></trkpt><trkpt lat="40.7484036" lon="9.6838974"><ele>83.0</ele><time>2026-03-29T15:55:00.269Z</time></trkpt><trkpt lat="40.7484059" lon="9.6837165"><ele>83.0</ele><time>2026-03-29T15:55:01.271Z</time></trkpt><trkpt lat="40.7484317" lon="9.6835448"><ele>84.0</ele><time>2026-03-29T15:55:02.266Z</time></trkpt><trkpt lat="40.7484593" lon="9.6833844"><ele>85.0</ele><time>2026-03-29T15:55:03.27Z</time></trkpt><trkpt lat="40.7485482" lon="9.6832471"><ele>86.0</ele><time>2026-03-29T15:55:04.261Z</time></trkpt><trkpt lat="40.7486632" lon="9.6831409"><ele>87.0</ele><time>2026-03-29T15:55:05.266Z</time></trkpt><trkpt lat="40.7487957" lon="9.683047"><ele>82.66666666666667</ele><time>2026-03-29T15:55:06.262Z</time></trkpt><trkpt lat="40.7489381" lon="9.6829474"><ele>78.33333333333334</ele><time>2026-03-29T15:55:07.277Z</time></trkpt><trkpt lat="40.7490692" lon="9.6828242"><ele>74.0</ele><time>2026-03-29T15:55:08.265Z</time></trkpt><trkpt lat="40.7491868" lon="9.6826795"><ele>74.0</ele><time>2026-03-29T15:55:09.26Z</time></trkpt><trkpt lat="40.7492871" lon="9.6825135"><ele>74.0</ele><time>2026-03-29T15:55:10.261Z</time></trkpt><trkpt lat="40.7493757" lon="9.6823283"><ele>74.0</ele><time>2026-03-29T15:55:11.27Z</time></trkpt><trkpt lat="40.7494523" lon="9.6821278"><ele>68.33333333333334</ele><time>2026-03-29T15:55:12.27Z</time></trkpt><trkpt lat="40.7495206" lon="9.6819161"><ele>62.66666666666667</ele><time>2026-03-29T15:55:13.287Z</time></trkpt><trkpt lat="40.7495904" lon="9.6816987"><ele>57.0</ele><time>2026-03-29T15:55:14.26Z</time></trkpt><trkpt lat="40.7496648" lon="9.6814786"><ele>57.0</ele><time>2026-03-29T15:55:15.265Z</time></trkpt><trkpt lat="40.7497412" lon="9.6812733"><ele>57.0</ele><time>2026-03-29T15:55:16.263Z</time></trkpt><trkpt lat="40.7498172" lon="9.6810718"><ele>57.0</ele><time>2026-03-29T15:55:17.264Z</time></trkpt><trkpt lat="40.7498922" lon="9.6808725"><ele>57.66666666666667</ele><time>2026-03-29T15:55:18.282Z</time></trkpt><trkpt lat="40.7499693" lon="9.6806711"><ele>58.333333333333336</ele><time>2026-03-29T15:55:19.265Z</time></trkpt><trkpt lat="40.7500493" lon="9.6804756"><ele>59.0</ele><time>2026-03-29T15:55:20.265Z</time></trkpt><trkpt lat="40.7501401" lon="9.6802982"><ele>56.333333333333336</ele><time>2026-03-29T15:55:21.27Z</time></trkpt><trkpt lat="40.7502399" lon="9.6801349"><ele>53.66666666666667</ele><time>2026-03-29T15:55:22.265Z</time></trkpt><trkpt lat="40.7503778" lon="9.6800042"><ele>51.0</ele><time>2026-03-29T15:55:23.269Z</time></trkpt><trkpt lat="40.750527" lon="9.6799079"><ele>51.0</ele><time>2026-03-29T15:55:24.27Z</time></trkpt><trkpt lat="40.7506884" lon="9.6798255"><ele>51.0</ele><time>2026-03-29T15:55:25.265Z</time></trkpt><trkpt lat="40.75086" lon="9.6797803"><ele>51.0</ele><time>2026-03-29T15:55:26.273Z</time></trkpt><trkpt lat="40.7510423" lon="9.6797442"><ele>49.0</ele><time>2026-03-29T15:55:27.264Z</time></trkpt><trkpt lat="40.7512179" lon="9.6797358"><ele>47.0</ele><time>2026-03-29T15:55:28.269Z</time></trkpt><trkpt lat="40.7513975" lon="9.6797501"><ele>45.0</ele><time>2026-03-29T15:55:29.268Z</time></trkpt><trkpt lat="40.7515788" lon="9.6797782"><ele>45.0</ele><time>2026-03-29T15:55:30.276Z</time></trkpt><trkpt lat="40.7517475" lon="9.6798123"><ele>45.0</ele><time>2026-03-29T15:55:31.264Z</time></trkpt><trkpt lat="40.7519108" lon="9.6798444"><ele>45.0</ele><time>2026-03-29T15:55:32.27Z</time></trkpt><trkpt lat="40.7520584" lon="9.679866"><ele>44.0</ele><time>2026-03-29T15:55:33.264Z</time></trkpt><trkpt lat="40.7521916" lon="9.6798699"><ele>43.0</ele><time>2026-03-29T15:55:34.268Z</time></trkpt><trkpt lat="40.7523229" lon="9.6798059"><ele>42.0</ele><time>2026-03-29T15:55:35.267Z</time></trkpt><trkpt lat="40.7524505" lon="9.6797032"><ele>41.0</ele><time>2026-03-29T15:55:36.261Z</time></trkpt><trkpt lat="40.7525777" lon="9.679568"><ele>43.0</ele><time>2026-03-29T15:55:37.285Z</time></trkpt><trkpt lat="40.7527048" lon="9.679428"><ele>45.0</ele><time>2026-03-29T15:55:38.268Z</time></trkpt><trkpt lat="40.7528288" lon="9.679294"><ele>47.0</ele><time>2026-03-29T15:55:39.267Z</time></trkpt><trkpt lat="40.7529543" lon="9.679158"><ele>42.33333333333333</ele><time>2026-03-29T15:55:40.267Z</time></trkpt><trkpt lat="40.7530853" lon="9.6790284"><ele>37.666666666666664</ele><time>2026-03-29T15:55:41.26Z</time></trkpt><trkpt lat="40.7532262" lon="9.6789126"><ele>33.0</ele><time>2026-03-29T15:55:42.261Z</time></trkpt><trkpt lat="40.7533721" lon="9.6788299"><ele>33.0</ele><time>2026-03-29T15:55:43.265Z</time></trkpt><trkpt lat="40.7535325" lon="9.6787769"><ele>33.0</ele><time>2026-03-29T15:55:44.27Z</time></trkpt><trkpt lat="40.7536888" lon="9.6787359"><ele>33.0</ele><time>2026-03-29T15:55:45.277Z</time></trkpt><trkpt lat="40.7538552" lon="9.6787492"><ele>33.0</ele><time>2026-03-29T15:55:46.264Z</time></trkpt><trkpt lat="40.7540251" lon="9.6787708"><ele>33.0</ele><time>2026-03-29T15:55:47.261Z</time></trkpt><trkpt lat="40.7542007" lon="9.678791"><ele>33.0</ele><time>2026-03-29T15:55:48.262Z</time></trkpt><trkpt lat="40.7543738" lon="9.6788133"><ele>32.0</ele><time>2026-03-29T15:55:49.265Z</time></trkpt><trkpt lat="40.7545396" lon="9.6788358"><ele>31.0</ele><time>2026-03-29T15:55:50.283Z</time></trkpt><trkpt lat="40.7547068" lon="9.678869"><ele>30.0</ele><time>2026-03-29T15:55:51.265Z</time></trkpt><trkpt lat="40.7548715" lon="9.678919"><ele>30.0</ele><time>2026-03-29T15:55:52.265Z</time></trkpt><trkpt lat="40.7550369" lon="9.678991"><ele>30.0</ele><time>2026-03-29T15:55:53.262Z</time></trkpt><trkpt lat="40.7551996" lon="9.6790724"><ele>30.0</ele><time>2026-03-29T15:55:54.265Z</time></trkpt><trkpt lat="40.7553615" lon="9.6791578"><ele>29.333333333333336</ele><time>2026-03-29T15:55:55.261Z</time></trkpt><trkpt lat="40.7555222" lon="9.6792446"><ele>28.666666666666668</ele><time>2026-03-29T15:55:56.264Z</time></trkpt><trkpt lat="40.7556822" lon="9.6793292"><ele>28.0</ele><time>2026-03-29T15:55:57.28Z</time></trkpt><trkpt lat="40.7558437" lon="9.6794115"><ele>28.333333333333336</ele><time>2026-03-29T15:55:58.263Z</time></trkpt><trkpt lat="40.756008" lon="9.6794867"><ele>28.666666666666664</ele><time>2026-03-29T15:55:59.261Z</time></trkpt><trkpt lat="40.7561718" lon="9.6795427"><ele>29.0</ele><time>2026-03-29T15:56:00.273Z</time></trkpt><trkpt lat="40.7563376" lon="9.6795726"><ele>27.666666666666664</ele><time>2026-03-29T15:56:01.26Z</time></trkpt><trkpt lat="40.7565059" lon="9.6795698"><ele>26.333333333333336</ele><time>2026-03-29T15:56:02.284Z</time></trkpt><trkpt lat="40.7566778" lon="9.6795395"><ele>25.0</ele><time>2026-03-29T15:56:03.269Z</time></trkpt><trkpt lat="40.7568559" lon="9.6794907"><ele>24.333333333333336</ele><time>2026-03-29T15:56:04.268Z</time></trkpt><trkpt lat="40.7570418" lon="9.6794326"><ele>23.666666666666668</ele><time>2026-03-29T15:56:05.264Z</time></trkpt><trkpt lat="40.757224" lon="9.6793763"><ele>23.0</ele><time>2026-03-29T15:56:06.261Z</time></trkpt><trkpt lat="40.7573982" lon="9.6793251"><ele>23.0</ele><time>2026-03-29T15:56:07.277Z</time></trkpt><trkpt lat="40.7575603" lon="9.6792825"><ele>23.0</ele><time>2026-03-29T15:56:08.27Z</time></trkpt><trkpt lat="40.7577156" lon="9.6792507"><ele>23.0</ele><time>2026-03-29T15:56:09.265Z</time></trkpt><trkpt lat="40.7578714" lon="9.6792248"><ele>22.333333333333336</ele><time>2026-03-29T15:56:10.262Z</time></trkpt><trkpt lat="40.7580294" lon="9.6792012"><ele>21.666666666666668</ele><time>2026-03-29T15:56:11.262Z</time></trkpt><trkpt lat="40.7581921" lon="9.6791768"><ele>21.0</ele><time>2026-03-29T15:56:12.264Z</time></trkpt><trkpt lat="40.7583577" lon="9.6791514"><ele>21.0</ele><time>2026-03-29T15:56:13.266Z</time></trkpt><trkpt lat="40.7585258" lon="9.6791258"><ele>21.0</ele><time>2026-03-29T15:56:14.265Z</time></trkpt><trkpt lat="40.7586959" lon="9.6791008"><ele>21.0</ele><time>2026-03-29T15:56:15.278Z</time></trkpt><trkpt lat="40.7588681" lon="9.6790762"><ele>20.666666666666668</ele><time>2026-03-29T15:56:16.264Z</time></trkpt><trkpt lat="40.7590418" lon="9.6790507"><ele>20.333333333333336</ele><time>2026-03-29T15:56:17.261Z</time></trkpt><trkpt lat="40.7592094" lon="9.6790262"><ele>20.0</ele><time>2026-03-29T15:56:18.261Z</time></trkpt><trkpt lat="40.7593691" lon="9.679004"><ele>19.0</ele><time>2026-03-29T15:56:19.263Z</time></trkpt><trkpt lat="40.7595216" lon="9.678982"><ele>18.0</ele><time>2026-03-29T15:56:20.265Z</time></trkpt><trkpt lat="40.7596708" lon="9.6789586"><ele>17.0</ele><time>2026-03-29T15:56:21.265Z</time></trkpt><trkpt lat="40.7598105" lon="9.6789267"><ele>16.0</ele><time>2026-03-29T15:56:22.267Z</time></trkpt><trkpt lat="40.7599538" lon="9.6788716"><ele>16.0</ele><time>2026-03-29T15:56:23.27Z</time></trkpt><trkpt lat="40.7600927" lon="9.6787904"><ele>16.0</ele><time>2026-03-29T15:56:24.28Z</time></trkpt><trkpt lat="40.7602358" lon="9.6786937"><ele>16.0</ele><time>2026-03-29T15:56:25.266Z</time></trkpt><trkpt lat="40.7603795" lon="9.6785622"><ele>14.333333333333332</ele><time>2026-03-29T15:56:26.264Z</time></trkpt><trkpt lat="40.760527" lon="9.6784291"><ele>12.666666666666666</ele><time>2026-03-29T15:56:27.263Z</time></trkpt><trkpt lat="40.7606717" lon="9.6782896"><ele>11.0</ele><time>2026-03-29T15:56:28.267Z</time></trkpt><trkpt lat="40.7608196" lon="9.6781419"><ele>11.0</ele><time>2026-03-29T15:56:29.261Z</time></trkpt><trkpt lat="40.7609714" lon="9.6779937"><ele>11.0</ele><time>2026-03-29T15:56:30.264Z</time></trkpt><trkpt lat="40.7611236" lon="9.6778453"><ele>11.0</ele><time>2026-03-29T15:56:31.265Z</time></trkpt><trkpt lat="40.7612712" lon="9.6776966"><ele>11.0</ele><time>2026-03-29T15:56:32.265Z</time></trkpt><trkpt lat="40.761419" lon="9.6775504"><ele>11.0</ele><time>2026-03-29T15:56:33.263Z</time></trkpt><trkpt lat="40.761567" lon="9.6774049"><ele>11.0</ele><time>2026-03-29T15:56:34.27Z</time></trkpt><trkpt lat="40.7617152" lon="9.6772586"><ele>11.0</ele><time>2026-03-29T15:56:35.263Z</time></trkpt><trkpt lat="40.761863" lon="9.6771145"><ele>11.0</ele><time>2026-03-29T15:56:36.288Z</time></trkpt><trkpt lat="40.7620082" lon="9.6769694"><ele>11.0</ele><time>2026-03-29T15:56:37.258Z</time></trkpt><trkpt lat="40.7621547" lon="9.6768238"><ele>10.333333333333332</ele><time>2026-03-29T15:56:38.268Z</time></trkpt><trkpt lat="40.7623009" lon="9.6766789"><ele>9.666666666666666</ele><time>2026-03-29T15:56:39.265Z</time></trkpt><trkpt lat="40.762447" lon="9.6765347"><ele>9.0</ele><time>2026-03-29T15:56:40.263Z</time></trkpt><trkpt lat="40.7625867" lon="9.6763979"><ele>9.0</ele><time>2026-03-29T15:56:41.269Z</time></trkpt><trkpt lat="40.7627144" lon="9.6762708"><ele>9.0</ele><time>2026-03-29T15:56:42.27Z</time></trkpt><trkpt lat="40.7628307" lon="9.6761528"><ele>9.0</ele><time>2026-03-29T15:56:43.273Z</time></trkpt><trkpt lat="40.7629383" lon="9.6760431"><ele>9.0</ele><time>2026-03-29T15:56:44.261Z</time></trkpt><trkpt lat="40.7630362" lon="9.6759422"><ele>9.0</ele><time>2026-03-29T15:56:45.261Z</time></trkpt><trkpt lat="40.7631277" lon="9.6758489"><ele>9.0</ele><time>2026-03-29T15:56:46.266Z</time></trkpt><trkpt lat="40.7632166" lon="9.6757588"><ele>9.0</ele><time>2026-03-29T15:56:47.273Z</time></trkpt><trkpt lat="40.7632949" lon="9.6756661"><ele>9.0</ele><time>2026-03-29T15:56:48.267Z</time></trkpt><trkpt lat="40.7633576" lon="9.6755573"><ele>9.0</ele><time>2026-03-29T15:56:49.272Z</time></trkpt><trkpt lat="40.7633981" lon="9.6754276"><ele>9.0</ele><time>2026-03-29T15:56:50.266Z</time></trkpt><trkpt lat="40.7634108" lon="9.6752847"><ele>9.0</ele><time>2026-03-29T15:56:51.268Z</time></trkpt><trkpt lat="40.7633949" lon="9.6751385"><ele>9.0</ele><time>2026-03-29T15:56:52.274Z</time></trkpt><trkpt lat="40.7633703" lon="9.674983"><ele>9.0</ele><time>2026-03-29T15:56:53.263Z</time></trkpt><trkpt lat="40.763362" lon="9.6748089"><ele>9.666666666666666</ele><time>2026-03-29T15:56:54.262Z</time></trkpt><trkpt lat="40.763354" lon="9.6746206"><ele>10.333333333333332</ele><time>2026-03-29T15:56:55.265Z</time></trkpt><trkpt lat="40.7633809" lon="9.6744056"><ele>11.0</ele><time>2026-03-29T15:56:56.273Z</time></trkpt><trkpt lat="40.7634064" lon="9.6741869"><ele>11.0</ele><time>2026-03-29T15:56:57.261Z</time></trkpt><trkpt lat="40.7634365" lon="9.6739524"><ele>11.0</ele><time>2026-03-29T15:56:58.288Z</time></trkpt><trkpt lat="40.7634721" lon="9.6737121"><ele>11.0</ele><time>2026-03-29T15:56:59.26Z</time></trkpt><trkpt lat="40.7635057" lon="9.6734612"><ele>11.333333333333332</ele><time>2026-03-29T15:57:00.263Z</time></trkpt><trkpt lat="40.7635431" lon="9.673206"><ele>11.666666666666666</ele><time>2026-03-29T15:57:01.272Z</time></trkpt><trkpt lat="40.7635802" lon="9.672947"><ele>12.0</ele><time>2026-03-29T15:57:02.262Z</time></trkpt><trkpt lat="40.7636142" lon="9.6726909"><ele>12.333333333333332</ele><time>2026-03-29T15:57:03.263Z</time></trkpt><trkpt lat="40.7636518" lon="9.6724371"><ele>12.666666666666666</ele><time>2026-03-29T15:57:04.271Z</time></trkpt><trkpt lat="40.7636873" lon="9.6721876"><ele>13.0</ele><time>2026-03-29T15:57:05.274Z</time></trkpt><trkpt lat="40.7637216" lon="9.6719425"><ele>13.0</ele><time>2026-03-29T15:57:06.279Z</time></trkpt><trkpt lat="40.7637541" lon="9.6717091"><ele>13.0</ele><time>2026-03-29T15:57:07.261Z</time></trkpt><trkpt lat="40.7637826" lon="9.6714761"><ele>13.0</ele><time>2026-03-29T15:57:08.265Z</time></trkpt><trkpt lat="40.7638048" lon="9.6712369"><ele>13.0</ele><time>2026-03-29T15:57:09.264Z</time></trkpt><trkpt lat="40.7638233" lon="9.6709951"><ele>13.0</ele><time>2026-03-29T15:57:10.263Z</time></trkpt><trkpt lat="40.7638407" lon="9.6707492"><ele>13.0</ele><time>2026-03-29T15:57:11.264Z</time></trkpt><trkpt lat="40.7638574" lon="9.6705025"><ele>13.333333333333332</ele><time>2026-03-29T15:57:12.265Z</time></trkpt><trkpt lat="40.7638732" lon="9.6702578"><ele>13.666666666666668</ele><time>2026-03-29T15:57:13.279Z</time></trkpt><trkpt lat="40.7638886" lon="9.670025"><ele>14.0</ele><time>2026-03-29T15:57:14.261Z</time></trkpt><trkpt lat="40.7639054" lon="9.6698057"><ele>14.0</ele><time>2026-03-29T15:57:15.265Z</time></trkpt><trkpt lat="40.7639306" lon="9.6695909"><ele>14.0</ele><time>2026-03-29T15:57:16.267Z</time></trkpt><trkpt lat="40.7639705" lon="9.6693806"><ele>14.0</ele><time>2026-03-29T15:57:17.265Z</time></trkpt><trkpt lat="40.7640316" lon="9.6691789"><ele>14.0</ele><time>2026-03-29T15:57:18.261Z</time></trkpt><trkpt lat="40.7641082" lon="9.6689839"><ele>14.0</ele><time>2026-03-29T15:57:19.264Z</time></trkpt><trkpt lat="40.7641946" lon="9.6687906"><ele>14.0</ele><time>2026-03-29T15:57:20.273Z</time></trkpt><trkpt lat="40.7642869" lon="9.6685953"><ele>14.666666666666668</ele><time>2026-03-29T15:57:21.265Z</time></trkpt><trkpt lat="40.7643826" lon="9.6683934"><ele>15.333333333333332</ele><time>2026-03-29T15:57:22.272Z</time></trkpt><trkpt lat="40.7644817" lon="9.6681849"><ele>16.0</ele><time>2026-03-29T15:57:23.266Z</time></trkpt><trkpt lat="40.7645846" lon="9.6679712"><ele>16.333333333333332</ele><time>2026-03-29T15:57:24.274Z</time></trkpt><trkpt lat="40.7646879" lon="9.6677553"><ele>16.666666666666668</ele><time>2026-03-29T15:57:25.259Z</time></trkpt><trkpt lat="40.7647897" lon="9.6675396"><ele>17.0</ele><time>2026-03-29T15:57:26.261Z</time></trkpt><trkpt lat="40.76489" lon="9.6673234"><ele>17.0</ele><time>2026-03-29T15:57:27.273Z</time></trkpt><trkpt lat="40.764989" lon="9.6671064"><ele>17.0</ele><time>2026-03-29T15:57:28.268Z</time></trkpt><trkpt lat="40.7650878" lon="9.6668895"><ele>17.0</ele><time>2026-03-29T15:57:29.276Z</time></trkpt><trkpt lat="40.765186" lon="9.6666834"><ele>16.333333333333336</ele><time>2026-03-29T15:57:30.262Z</time></trkpt><trkpt lat="40.7652833" lon="9.6664864"><ele>15.666666666666668</ele><time>2026-03-29T15:57:31.261Z</time></trkpt><trkpt lat="40.7653607" lon="9.6663001"><ele>15.0</ele><time>2026-03-29T15:57:32.269Z</time></trkpt><trkpt lat="40.7654092" lon="9.6661237"><ele>15.5</ele><time>2026-03-29T15:57:33.262Z</time></trkpt><trkpt lat="40.7654376" lon="9.6659502"><ele>16.0</ele><time>2026-03-29T15:57:34.293Z</time></trkpt><trkpt lat="40.7654197" lon="9.6657829"><ele>16.5</ele><time>2026-03-29T15:57:35.266Z</time></trkpt><trkpt lat="40.7653696" lon="9.6656267"><ele>17.0</ele><time>2026-03-29T15:57:36.269Z</time></trkpt><trkpt lat="40.7652848" lon="9.6654714"><ele>17.0</ele><time>2026-03-29T15:57:37.262Z</time></trkpt><trkpt lat="40.7651763" lon="9.6653135"><ele>17.0</ele><time>2026-03-29T15:57:38.269Z</time></trkpt><trkpt lat="40.7650588" lon="9.665145"><ele>17.0</ele><time>2026-03-29T15:57:39.264Z</time></trkpt><trkpt lat="40.7649305" lon="9.6649681"><ele>17.333333333333336</ele><time>2026-03-29T15:57:40.269Z</time></trkpt><trkpt lat="40.7647971" lon="9.6647797"><ele>17.666666666666668</ele><time>2026-03-29T15:57:41.268Z</time></trkpt><trkpt lat="40.764664" lon="9.6645872"><ele>18.0</ele><time>2026-03-29T15:57:42.264Z</time></trkpt><trkpt lat="40.7645279" lon="9.6643918"><ele>18.666666666666668</ele><time>2026-03-29T15:57:43.265Z</time></trkpt><trkpt lat="40.7643901" lon="9.6641952"><ele>19.333333333333336</ele><time>2026-03-29T15:57:44.286Z</time></trkpt><trkpt lat="40.7642504" lon="9.6639987"><ele>20.0</ele><time>2026-03-29T15:57:45.267Z</time></trkpt><trkpt lat="40.7641097" lon="9.6638007"><ele>20.333333333333336</ele><time>2026-03-29T15:57:46.268Z</time></trkpt><trkpt lat="40.7639683" lon="9.6636017"><ele>20.666666666666668</ele><time>2026-03-29T15:57:47.262Z</time></trkpt><trkpt lat="40.7638266" lon="9.6634009"><ele>21.0</ele><time>2026-03-29T15:57:48.266Z</time></trkpt><trkpt lat="40.7636848" lon="9.663198"><ele>21.0</ele><time>2026-03-29T15:57:49.271Z</time></trkpt><trkpt lat="40.7635412" lon="9.6629926"><ele>21.0</ele><time>2026-03-29T15:57:50.268Z</time></trkpt><trkpt lat="40.7633958" lon="9.6627847"><ele>21.0</ele><time>2026-03-29T15:57:51.283Z</time></trkpt><trkpt lat="40.7632487" lon="9.6625747"><ele>21.333333333333332</ele><time>2026-03-29T15:57:52.267Z</time></trkpt><trkpt lat="40.7630981" lon="9.6623624"><ele>21.666666666666664</ele><time>2026-03-29T15:57:53.27Z</time></trkpt><trkpt lat="40.7629443" lon="9.6621481"><ele>22.0</ele><time>2026-03-29T15:57:54.263Z</time></trkpt><trkpt lat="40.7627888" lon="9.6619292"><ele>22.5</ele><time>2026-03-29T15:57:55.268Z</time></trkpt><trkpt lat="40.7626314" lon="9.6617057"><ele>23.0</ele><time>2026-03-29T15:57:56.264Z</time></trkpt><trkpt lat="40.7624728" lon="9.6614805"><ele>23.0</ele><time>2026-03-29T15:57:57.272Z</time></trkpt><trkpt lat="40.7623142" lon="9.6612561"><ele>23.0</ele><time>2026-03-29T15:57:58.266Z</time></trkpt><trkpt lat="40.7621603" lon="9.6610373"><ele>23.333333333333336</ele><time>2026-03-29T15:57:59.268Z</time></trkpt><trkpt lat="40.7620141" lon="9.6608286"><ele>23.666666666666668</ele><time>2026-03-29T15:58:00.266Z</time></trkpt><trkpt lat="40.761873" lon="9.6606271"><ele>24.0</ele><time>2026-03-29T15:58:01.265Z</time></trkpt><trkpt lat="40.7617353" lon="9.6604272"><ele>25.0</ele><time>2026-03-29T15:58:02.264Z</time></trkpt><trkpt lat="40.761599" lon="9.6602308"><ele>26.0</ele><time>2026-03-29T15:58:03.259Z</time></trkpt><trkpt lat="40.7614643" lon="9.6600414"><ele>27.0</ele><time>2026-03-29T15:58:04.29Z</time></trkpt><trkpt lat="40.7613373" lon="9.6598636"><ele>27.0</ele><time>2026-03-29T15:58:05.264Z</time></trkpt><trkpt lat="40.7612218" lon="9.6596881"><ele>27.0</ele><time>2026-03-29T15:58:06.273Z</time></trkpt><trkpt lat="40.7611226" lon="9.6595041"><ele>27.0</ele><time>2026-03-29T15:58:07.268Z</time></trkpt><trkpt lat="40.7610433" lon="9.6593013"><ele>28.0</ele><time>2026-03-29T15:58:08.273Z</time></trkpt><trkpt lat="40.7609702" lon="9.6590981"><ele>29.0</ele><time>2026-03-29T15:58:09.268Z</time></trkpt><trkpt lat="40.7609206" lon="9.6588629"><ele>30.0</ele><time>2026-03-29T15:58:10.271Z</time></trkpt><trkpt lat="40.7608825" lon="9.6586091"><ele>30.333333333333336</ele><time>2026-03-29T15:58:11.265Z</time></trkpt><trkpt lat="40.7608451" lon="9.6583452"><ele>30.666666666666668</ele><time>2026-03-29T15:58:12.265Z</time></trkpt><trkpt lat="40.7608261" lon="9.658079"><ele>31.0</ele><time>2026-03-29T15:58:13.271Z</time></trkpt><trkpt lat="40.7608259" lon="9.6578168"><ele>31.0</ele><time>2026-03-29T15:58:14.27Z</time></trkpt><trkpt lat="40.7608429" lon="9.6575505"><ele>31.0</ele><time>2026-03-29T15:58:15.267Z</time></trkpt><trkpt lat="40.760872" lon="9.6572895"><ele>31.0</ele><time>2026-03-29T15:58:16.282Z</time></trkpt><trkpt lat="40.7609013" lon="9.6570322"><ele>30.666666666666668</ele><time>2026-03-29T15:58:17.267Z</time></trkpt><trkpt lat="40.760926" lon="9.6567845"><ele>30.333333333333336</ele><time>2026-03-29T15:58:18.273Z</time></trkpt><trkpt lat="40.7609417" lon="9.6565433"><ele>30.0</ele><time>2026-03-29T15:58:19.267Z</time></trkpt><trkpt lat="40.7609429" lon="9.6563083"><ele>29.333333333333336</ele><time>2026-03-29T15:58:20.269Z</time></trkpt><trkpt lat="40.7609152" lon="9.6560825"><ele>28.666666666666668</ele><time>2026-03-29T15:58:21.265Z</time></trkpt><trkpt lat="40.7608882" lon="9.6558549"><ele>28.0</ele><time>2026-03-29T15:58:22.289Z</time></trkpt><trkpt lat="40.760829" lon="9.6556253"><ele>28.0</ele><time>2026-03-29T15:58:23.271Z</time></trkpt><trkpt lat="40.7607645" lon="9.6553921"><ele>28.0</ele><time>2026-03-29T15:58:24.263Z</time></trkpt><trkpt lat="40.7606988" lon="9.6551532"><ele>28.0</ele><time>2026-03-29T15:58:25.265Z</time></trkpt><trkpt lat="40.7606333" lon="9.6549091"><ele>28.333333333333336</ele><time>2026-03-29T15:58:26.27Z</time></trkpt><trkpt lat="40.760575" lon="9.6546759"><ele>28.666666666666664</ele><time>2026-03-29T15:58:27.274Z</time></trkpt><trkpt lat="40.7605257" lon="9.6544593"><ele>29.0</ele><time>2026-03-29T15:58:28.291Z</time></trkpt><trkpt lat="40.7604901" lon="9.6542727"><ele>29.0</ele><time>2026-03-29T15:58:29.265Z</time></trkpt><trkpt lat="40.7604807" lon="9.6541196"><ele>29.0</ele><time>2026-03-29T15:58:30.262Z</time></trkpt><trkpt lat="40.7605063" lon="9.6539885"><ele>29.0</ele><time>2026-03-29T15:58:31.268Z</time></trkpt><trkpt lat="40.7605382" lon="9.6538783"><ele>29.0</ele><time>2026-03-29T15:58:32.267Z</time></trkpt><trkpt lat="40.7605795" lon="9.6537812"><ele>29.0</ele><time>2026-03-29T15:58:33.299Z</time></trkpt><trkpt lat="40.7606363" lon="9.6537202"><ele>29.0</ele><time>2026-03-29T15:58:34.268Z</time></trkpt><trkpt lat="40.7607004" lon="9.6536772"><ele>29.0</ele><time>2026-03-29T15:58:35.268Z</time></trkpt><trkpt lat="40.7607853" lon="9.6536615"><ele>29.0</ele><time>2026-03-29T15:58:36.269Z</time></trkpt><trkpt lat="40.7608842" lon="9.6536918"><ele>29.0</ele><time>2026-03-29T15:58:37.27Z</time></trkpt><trkpt lat="40.7609995" lon="9.6537428"><ele>29.0</ele><time>2026-03-29T15:58:38.27Z</time></trkpt><trkpt lat="40.7611091" lon="9.6537888"><ele>29.2</ele><time>2026-03-29T15:58:39.272Z</time></trkpt><trkpt lat="40.7612193" lon="9.6538358"><ele>29.4</ele><time>2026-03-29T15:58:40.261Z</time></trkpt><trkpt lat="40.7613335" lon="9.6538757"><ele>29.6</ele><time>2026-03-29T15:58:41.292Z</time></trkpt><trkpt lat="40.761442" lon="9.6539099"><ele>29.8</ele><time>2026-03-29T15:58:42.27Z</time></trkpt><trkpt lat="40.7615423" lon="9.6539395"><ele>30.0</ele><time>2026-03-29T15:58:43.262Z</time></trkpt><trkpt lat="40.7616263" lon="9.653962"><ele>30.0</ele><time>2026-03-29T15:58:44.272Z</time></trkpt><trkpt lat="40.7617025" lon="9.6539817"><ele>30.0</ele><time>2026-03-29T15:58:45.27Z</time></trkpt><trkpt lat="40.7617686" lon="9.6539948"><ele>30.0</ele><time>2026-03-29T15:58:46.288Z</time></trkpt><trkpt lat="40.7618735" lon="9.6540128"><ele>30.0</ele><time>2026-03-29T15:58:48.266Z</time></trkpt><trkpt lat="40.7619391" lon="9.6540228"><ele>30.0</ele><time>2026-03-29T15:58:50.269Z</time></trkpt><trkpt lat="40.7620289" lon="9.6540104"><ele>30.0</ele><time>2026-03-29T15:59:09.263Z</time></trkpt><trkpt lat="40.7621086" lon="9.654007"><ele>29.8</ele><time>2026-03-29T15:59:11.273Z</time></trkpt><trkpt lat="40.7622002" lon="9.6540184"><ele>29.6</ele><time>2026-03-29T15:59:13.264Z</time></trkpt><trkpt lat="40.7622818" lon="9.6540274"><ele>29.4</ele><time>2026-03-29T15:59:15.261Z</time></trkpt><trkpt lat="40.7623555" lon="9.6540336"><ele>29.2</ele><time>2026-03-29T15:59:17.294Z</time></trkpt><trkpt lat="40.762469" lon="9.6540443"><ele>29.0</ele><time>2026-03-29T15:59:19.272Z</time></trkpt><trkpt lat="40.762558" lon="9.6540536"><ele>29.0</ele><time>2026-03-29T15:59:20.263Z</time></trkpt><trkpt lat="40.7626593" lon="9.6540635"><ele>29.0</ele><time>2026-03-29T15:59:21.269Z</time></trkpt><trkpt lat="40.7627816" lon="9.6540757"><ele>29.0</ele><time>2026-03-29T15:59:22.262Z</time></trkpt><trkpt lat="40.7629268" lon="9.6540906"><ele>29.0</ele><time>2026-03-29T15:59:23.266Z</time></trkpt><trkpt lat="40.7630827" lon="9.6541065"><ele>28.666666666666664</ele><time>2026-03-29T15:59:24.275Z</time></trkpt><trkpt lat="40.7632556" lon="9.6541252"><ele>28.333333333333336</ele><time>2026-03-29T15:59:25.266Z</time></trkpt><trkpt lat="40.763445" lon="9.6541454"><ele>28.0</ele><time>2026-03-29T15:59:26.293Z</time></trkpt><trkpt lat="40.7636383" lon="9.6541689"><ele>28.0</ele><time>2026-03-29T15:59:27.272Z</time></trkpt><trkpt lat="40.763831" lon="9.654189"><ele>28.0</ele><time>2026-03-29T15:59:28.261Z</time></trkpt><trkpt lat="40.7640129" lon="9.6542078"><ele>28.0</ele><time>2026-03-29T15:59:29.263Z</time></trkpt><trkpt lat="40.76418" lon="9.654225"><ele>28.0</ele><time>2026-03-29T15:59:30.262Z</time></trkpt><trkpt lat="40.7643368" lon="9.6542411"><ele>28.0</ele><time>2026-03-29T15:59:31.287Z</time></trkpt><trkpt lat="40.7644988" lon="9.6542622"><ele>28.0</ele><time>2026-03-29T15:59:32.266Z</time></trkpt><trkpt lat="40.7646715" lon="9.6542886"><ele>29.333333333333336</ele><time>2026-03-29T15:59:33.262Z</time></trkpt><trkpt lat="40.7648527" lon="9.6543141"><ele>30.666666666666664</ele><time>2026-03-29T15:59:34.272Z</time></trkpt><trkpt lat="40.7650358" lon="9.654336"><ele>32.0</ele><time>2026-03-29T15:59:35.264Z</time></trkpt><trkpt lat="40.7652282" lon="9.6543568"><ele>32.0</ele><time>2026-03-29T15:59:36.285Z</time></trkpt><trkpt lat="40.7654302" lon="9.6543785"><ele>32.0</ele><time>2026-03-29T15:59:37.265Z</time></trkpt><trkpt lat="40.765637" lon="9.6544"><ele>32.0</ele><time>2026-03-29T15:59:38.264Z</time></trkpt><trkpt lat="40.7658393" lon="9.6544221"><ele>32.0</ele><time>2026-03-29T15:59:39.263Z</time></trkpt><trkpt lat="40.7660425" lon="9.6544435"><ele>32.0</ele><time>2026-03-29T15:59:40.264Z</time></trkpt><trkpt lat="40.7662457" lon="9.6544656"><ele>32.0</ele><time>2026-03-29T15:59:41.264Z</time></trkpt><trkpt lat="40.7664477" lon="9.6544876"><ele>31.666666666666664</ele><time>2026-03-29T15:59:42.267Z</time></trkpt><trkpt lat="40.7666504" lon="9.654509"><ele>31.333333333333336</ele><time>2026-03-29T15:59:43.262Z</time></trkpt><trkpt lat="40.7668447" lon="9.6545289"><ele>31.0</ele><time>2026-03-29T15:59:44.271Z</time></trkpt><trkpt lat="40.7670325" lon="9.6545427"><ele>31.0</ele><time>2026-03-29T15:59:45.263Z</time></trkpt><trkpt lat="40.7672183" lon="9.6545472"><ele>31.0</ele><time>2026-03-29T15:59:46.286Z</time></trkpt><trkpt lat="40.7674066" lon="9.6545411"><ele>31.0</ele><time>2026-03-29T15:59:47.264Z</time></trkpt><trkpt lat="40.7675984" lon="9.6545283"><ele>29.666666666666668</ele><time>2026-03-29T15:59:48.267Z</time></trkpt><trkpt lat="40.7677874" lon="9.6545132"><ele>28.333333333333336</ele><time>2026-03-29T15:59:49.269Z</time></trkpt><trkpt lat="40.7679736" lon="9.6544957"><ele>27.0</ele><time>2026-03-29T15:59:50.261Z</time></trkpt><trkpt lat="40.7681516" lon="9.6544697"><ele>26.666666666666664</ele><time>2026-03-29T15:59:51.275Z</time></trkpt><trkpt lat="40.7683281" lon="9.6544396"><ele>26.333333333333332</ele><time>2026-03-29T15:59:52.267Z</time></trkpt><trkpt lat="40.7685005" lon="9.6544115"><ele>26.0</ele><time>2026-03-29T15:59:53.265Z</time></trkpt><trkpt lat="40.7686766" lon="9.6543882"><ele>26.0</ele><time>2026-03-29T15:59:54.263Z</time></trkpt><trkpt lat="40.7688552" lon="9.6543753"><ele>26.0</ele><time>2026-03-29T15:59:55.263Z</time></trkpt><trkpt lat="40.7690333" lon="9.654365"><ele>26.0</ele><time>2026-03-29T15:59:56.267Z</time></trkpt><trkpt lat="40.7692222" lon="9.6543487"><ele>24.666666666666664</ele><time>2026-03-29T15:59:57.267Z</time></trkpt><trkpt lat="40.7694163" lon="9.6543283"><ele>23.333333333333332</ele><time>2026-03-29T15:59:58.285Z</time></trkpt><trkpt lat="40.7696146" lon="9.6543063"><ele>22.0</ele><time>2026-03-29T15:59:59.263Z</time></trkpt><trkpt lat="40.7698014" lon="9.654286"><ele>22.0</ele><time>2026-03-29T16:00:00.266Z</time></trkpt><trkpt lat="40.7699744" lon="9.654269"><ele>22.0</ele><time>2026-03-29T16:00:01.264Z</time></trkpt><trkpt lat="40.7701401" lon="9.6542541"><ele>22.0</ele><time>2026-03-29T16:00:02.269Z</time></trkpt><trkpt lat="40.7703023" lon="9.6542824"><ele>21.333333333333332</ele><time>2026-03-29T16:00:03.262Z</time></trkpt><trkpt lat="40.7704635" lon="9.6543352"><ele>20.666666666666668</ele><time>2026-03-29T16:00:04.263Z</time></trkpt><trkpt lat="40.7706283" lon="9.6544166"><ele>20.0</ele><time>2026-03-29T16:00:05.269Z</time></trkpt><trkpt lat="40.7707996" lon="9.6545062"><ele>19.0</ele><time>2026-03-29T16:00:06.26Z</time></trkpt><trkpt lat="40.7709805" lon="9.6546047"><ele>18.0</ele><time>2026-03-29T16:00:07.28Z</time></trkpt><trkpt lat="40.7711653" lon="9.6547046"><ele>17.0</ele><time>2026-03-29T16:00:08.258Z</time></trkpt><trkpt lat="40.7713569" lon="9.6548058"><ele>17.0</ele><time>2026-03-29T16:00:09.262Z</time></trkpt><trkpt lat="40.7715497" lon="9.654905"><ele>17.0</ele><time>2026-03-29T16:00:10.272Z</time></trkpt><trkpt lat="40.77173" lon="9.6549994"><ele>17.0</ele><time>2026-03-29T16:00:11.276Z</time></trkpt><trkpt lat="40.7718978" lon="9.6550866"><ele>16.333333333333336</ele><time>2026-03-29T16:00:12.271Z</time></trkpt><trkpt lat="40.7720547" lon="9.6551664"><ele>15.666666666666668</ele><time>2026-03-29T16:00:13.289Z</time></trkpt><trkpt lat="40.7722047" lon="9.6552445"><ele>15.0</ele><time>2026-03-29T16:00:14.264Z</time></trkpt><trkpt lat="40.7723536" lon="9.6553246"><ele>14.5</ele><time>2026-03-29T16:00:15.274Z</time></trkpt><trkpt lat="40.772487" lon="9.6553969"><ele>14.0</ele><time>2026-03-29T16:00:16.266Z</time></trkpt><trkpt lat="40.7726019" lon="9.6554599"><ele>13.5</ele><time>2026-03-29T16:00:17.268Z</time></trkpt><trkpt lat="40.7726976" lon="9.6555111"><ele>13.0</ele><time>2026-03-29T16:00:18.269Z</time></trkpt><trkpt lat="40.7727794" lon="9.6555552"><ele>12.999999999999998</ele><time>2026-03-29T16:00:19.261Z</time></trkpt><trkpt lat="40.772853" lon="9.6555939"><ele>13.0</ele><time>2026-03-29T16:00:20.279Z</time></trkpt><trkpt lat="40.7729207" lon="9.6556281"><ele>13.0</ele><time>2026-03-29T16:00:21.264Z</time></trkpt><trkpt lat="40.7729796" lon="9.6556591"><ele>13.0</ele><time>2026-03-29T16:00:22.266Z</time></trkpt><trkpt lat="40.7730657" lon="9.6557042"><ele>12.999999999999998</ele><time>2026-03-29T16:00:24.262Z</time></trkpt><trkpt lat="40.7731665" lon="9.6557567"><ele>13.0</ele><time>2026-03-29T16:00:26.269Z</time></trkpt><trkpt lat="40.7732302" lon="9.6557896"><ele>13.0</ele><time>2026-03-29T16:00:27.268Z</time></trkpt><trkpt lat="40.7733002" lon="9.6558245"><ele>13.0</ele><time>2026-03-29T16:00:28.266Z</time></trkpt><trkpt lat="40.7733739" lon="9.6558668"><ele>13.0</ele><time>2026-03-29T16:00:29.273Z</time></trkpt><trkpt lat="40.7734563" lon="9.6559092"><ele>13.0</ele><time>2026-03-29T16:00:30.266Z</time></trkpt><trkpt lat="40.773555" lon="9.6559552"><ele>13.0</ele><time>2026-03-29T16:00:31.269Z</time></trkpt><trkpt lat="40.7736635" lon="9.6560025"><ele>13.25</ele><time>2026-03-29T16:00:32.268Z</time></trkpt><trkpt lat="40.7737771" lon="9.6560478"><ele>13.5</ele><time>2026-03-29T16:00:33.276Z</time></trkpt><trkpt lat="40.7738948" lon="9.656089"><ele>13.75</ele><time>2026-03-29T16:00:34.271Z</time></trkpt><trkpt lat="40.7740231" lon="9.6561318"><ele>14.0</ele><time>2026-03-29T16:00:35.271Z</time></trkpt><trkpt lat="40.7741602" lon="9.656178"><ele>13.25</ele><time>2026-03-29T16:00:36.289Z</time></trkpt><trkpt lat="40.7743004" lon="9.6562257"><ele>12.5</ele><time>2026-03-29T16:00:37.27Z</time></trkpt><trkpt lat="40.7744431" lon="9.6562724"><ele>11.75</ele><time>2026-03-29T16:00:38.267Z</time></trkpt><trkpt lat="40.7745866" lon="9.6563194"><ele>11.0</ele><time>2026-03-29T16:00:39.268Z</time></trkpt><trkpt lat="40.7747296" lon="9.6563663"><ele>11.0</ele><time>2026-03-29T16:00:40.27Z</time></trkpt><trkpt lat="40.7748662" lon="9.6564114"><ele>11.0</ele><time>2026-03-29T16:00:41.283Z</time></trkpt><trkpt lat="40.7750029" lon="9.6564559"><ele>11.0</ele><time>2026-03-29T16:00:42.266Z</time></trkpt><trkpt lat="40.7751427" lon="9.6565017"><ele>11.0</ele><time>2026-03-29T16:00:43.267Z</time></trkpt><trkpt lat="40.7752889" lon="9.6565487"><ele>11.0</ele><time>2026-03-29T16:00:44.269Z</time></trkpt><trkpt lat="40.7754365" lon="9.6565963"><ele>11.0</ele><time>2026-03-29T16:00:45.265Z</time></trkpt><trkpt lat="40.7755771" lon="9.6566418"><ele>11.0</ele><time>2026-03-29T16:00:46.267Z</time></trkpt><trkpt lat="40.7757168" lon="9.6566868"><ele>11.0</ele><time>2026-03-29T16:00:47.285Z</time></trkpt><trkpt lat="40.7758549" lon="9.6567327"><ele>11.0</ele><time>2026-03-29T16:00:48.263Z</time></trkpt><trkpt lat="40.7759848" lon="9.6567749"><ele>11.0</ele><time>2026-03-29T16:00:49.266Z</time></trkpt><trkpt lat="40.7761094" lon="9.6568156"><ele>11.0</ele><time>2026-03-29T16:00:50.27Z</time></trkpt><trkpt lat="40.7762338" lon="9.656858"><ele>11.0</ele><time>2026-03-29T16:00:51.269Z</time></trkpt><trkpt lat="40.7763595" lon="9.6568987"><ele>10.75</ele><time>2026-03-29T16:00:52.265Z</time></trkpt><trkpt lat="40.7764902" lon="9.6569372"><ele>10.5</ele><time>2026-03-29T16:00:53.293Z</time></trkpt><trkpt lat="40.776625" lon="9.6569733"><ele>10.25</ele><time>2026-03-29T16:00:54.264Z</time></trkpt><trkpt lat="40.7767635" lon="9.6570066"><ele>10.0</ele><time>2026-03-29T16:00:55.269Z</time></trkpt><trkpt lat="40.7769059" lon="9.6570374"><ele>9.0</ele><time>2026-03-29T16:00:56.267Z</time></trkpt><trkpt lat="40.7770536" lon="9.6570674"><ele>8.0</ele><time>2026-03-29T16:00:57.264Z</time></trkpt><trkpt lat="40.777208" lon="9.6570989"><ele>7.0</ele><time>2026-03-29T16:00:58.265Z</time></trkpt><trkpt lat="40.7773661" lon="9.6571316"><ele>7.0</ele><time>2026-03-29T16:00:59.261Z</time></trkpt><trkpt lat="40.7775231" lon="9.6571641"><ele>7.0</ele><time>2026-03-29T16:01:00.28Z</time></trkpt><trkpt lat="40.7776802" lon="9.6571962"><ele>7.0</ele><time>2026-03-29T16:01:01.269Z</time></trkpt><trkpt lat="40.7778268" lon="9.657225"><ele>7.25</ele><time>2026-03-29T16:01:02.263Z</time></trkpt><trkpt lat="40.7779617" lon="9.6572517"><ele>7.5</ele><time>2026-03-29T16:01:03.27Z</time></trkpt><trkpt lat="40.7780917" lon="9.6572766"><ele>7.75</ele><time>2026-03-29T16:01:04.261Z</time></trkpt><trkpt lat="40.7782168" lon="9.6573014"><ele>8.0</ele><time>2026-03-29T16:01:05.293Z</time></trkpt><trkpt lat="40.7783325" lon="9.6573252"><ele>8.0</ele><time>2026-03-29T16:01:06.268Z</time></trkpt><trkpt lat="40.7784398" lon="9.6573481"><ele>8.0</ele><time>2026-03-29T16:01:07.264Z</time></trkpt><trkpt lat="40.7785389" lon="9.6573687"><ele>8.0</ele><time>2026-03-29T16:01:08.266Z</time></trkpt><trkpt lat="40.7786297" lon="9.6573875"><ele>8.0</ele><time>2026-03-29T16:01:09.273Z</time></trkpt><trkpt lat="40.778706" lon="9.657403"><ele>8.0</ele><time>2026-03-29T16:01:10.269Z</time></trkpt><trkpt lat="40.7787787" lon="9.6574168"><ele>7.800000000000001</ele><time>2026-03-29T16:01:11.286Z</time></trkpt><trkpt lat="40.778861" lon="9.6574339"><ele>7.6000000000000005</ele><time>2026-03-29T16:01:12.262Z</time></trkpt><trkpt lat="40.7789497" lon="9.6574543"><ele>7.3999999999999995</ele><time>2026-03-29T16:01:13.268Z</time></trkpt><trkpt lat="40.7790537" lon="9.6574759"><ele>7.199999999999999</ele><time>2026-03-29T16:01:14.277Z</time></trkpt><trkpt lat="40.779173" lon="9.6574987"><ele>7.0</ele><time>2026-03-29T16:01:15.268Z</time></trkpt><trkpt lat="40.7793095" lon="9.6575244"><ele>7.0</ele><time>2026-03-29T16:01:16.291Z</time></trkpt><trkpt lat="40.7794585" lon="9.6575534"><ele>7.0</ele><time>2026-03-29T16:01:17.267Z</time></trkpt><trkpt lat="40.779604" lon="9.6575814"><ele>7.0</ele><time>2026-03-29T16:01:18.274Z</time></trkpt><trkpt lat="40.7797508" lon="9.6576096"><ele>7.0</ele><time>2026-03-29T16:01:19.266Z</time></trkpt><trkpt lat="40.779902" lon="9.6576395"><ele>7.0</ele><time>2026-03-29T16:01:20.263Z</time></trkpt><trkpt lat="40.780059" lon="9.6576712"><ele>7.0</ele><time>2026-03-29T16:01:21.268Z</time></trkpt><trkpt lat="40.7802228" lon="9.6577039"><ele>7.0</ele><time>2026-03-29T16:01:22.269Z</time></trkpt><trkpt lat="40.7803907" lon="9.6577364"><ele>6.666666666666667</ele><time>2026-03-29T16:01:23.283Z</time></trkpt><trkpt lat="40.780562" lon="9.6577656"><ele>6.333333333333334</ele><time>2026-03-29T16:01:24.266Z</time></trkpt><trkpt lat="40.7807363" lon="9.6577892"><ele>6.0</ele><time>2026-03-29T16:01:25.267Z</time></trkpt><trkpt lat="40.780913" lon="9.6578041"><ele>5.333333333333333</ele><time>2026-03-29T16:01:26.263Z</time></trkpt><trkpt lat="40.7810947" lon="9.6578116"><ele>4.666666666666666</ele><time>2026-03-29T16:01:27.268Z</time></trkpt><trkpt lat="40.7812813" lon="9.657812"><ele>4.0</ele><time>2026-03-29T16:01:28.265Z</time></trkpt><trkpt lat="40.781467" lon="9.6578086"><ele>4.0</ele><time>2026-03-29T16:01:29.259Z</time></trkpt><trkpt lat="40.7816551" lon="9.6578022"><ele>4.0</ele><time>2026-03-29T16:01:30.283Z</time></trkpt><trkpt lat="40.7818395" lon="9.6577939"><ele>4.0</ele><time>2026-03-29T16:01:31.264Z</time></trkpt><trkpt lat="40.782023" lon="9.6577834"><ele>4.0</ele><time>2026-03-29T16:01:32.268Z</time></trkpt><trkpt lat="40.782208" lon="9.6577725"><ele>4.0</ele><time>2026-03-29T16:01:33.27Z</time></trkpt><trkpt lat="40.7823956" lon="9.6577622"><ele>4.0</ele><time>2026-03-29T16:01:34.272Z</time></trkpt><trkpt lat="40.7825851" lon="9.6577507"><ele>4.0</ele><time>2026-03-29T16:01:35.288Z</time></trkpt><trkpt lat="40.7827747" lon="9.6577378"><ele>4.0</ele><time>2026-03-29T16:01:36.271Z</time></trkpt><trkpt lat="40.7829624" lon="9.6577251"><ele>4.0</ele><time>2026-03-29T16:01:37.269Z</time></trkpt><trkpt lat="40.7831476" lon="9.6577135"><ele>4.0</ele><time>2026-03-29T16:01:38.264Z</time></trkpt><trkpt lat="40.7833227" lon="9.6577022"><ele>4.0</ele><time>2026-03-29T16:01:39.271Z</time></trkpt><trkpt lat="40.7834842" lon="9.6576909"><ele>4.0</ele><time>2026-03-29T16:01:40.264Z</time></trkpt><trkpt lat="40.783634" lon="9.6576808"><ele>3.5</ele><time>2026-03-29T16:01:41.289Z</time></trkpt><trkpt lat="40.7837723" lon="9.6576722"><ele>3.0</ele><time>2026-03-29T16:01:42.267Z</time></trkpt><trkpt lat="40.7838996" lon="9.6576647"><ele>2.5</ele><time>2026-03-29T16:01:43.263Z</time></trkpt><trkpt lat="40.7840134" lon="9.6576586"><ele>2.0</ele><time>2026-03-29T16:01:44.267Z</time></trkpt><trkpt lat="40.7841144" lon="9.6576564"><ele>1.9999999999999998</ele><time>2026-03-29T16:01:45.271Z</time></trkpt><trkpt lat="40.7842034" lon="9.6576571"><ele>2.0</ele><time>2026-03-29T16:01:46.265Z</time></trkpt><trkpt lat="40.7842787" lon="9.6576628"><ele>2.0</ele><time>2026-03-29T16:01:47.277Z</time></trkpt><trkpt lat="40.7843454" lon="9.657676"><ele>2.0</ele><time>2026-03-29T16:01:48.265Z</time></trkpt><trkpt lat="40.7844115" lon="9.6576976"><ele>1.9999999999999998</ele><time>2026-03-29T16:01:49.261Z</time></trkpt><trkpt lat="40.7845183" lon="9.6577571"><ele>2.0</ele><time>2026-03-29T16:01:51.269Z</time></trkpt><trkpt lat="40.7846232" lon="9.6577671"><ele>2.0</ele><time>2026-03-29T16:01:53.261Z</time></trkpt><trkpt lat="40.7847447" lon="9.65769"><ele>2.0</ele><time>2026-03-29T16:01:55.269Z</time></trkpt><trkpt lat="40.7848251" lon="9.6576408"><ele>2.0</ele><time>2026-03-29T16:01:56.276Z</time></trkpt><trkpt lat="40.7849232" lon="9.657593"><ele>2.0</ele><time>2026-03-29T16:01:57.262Z</time></trkpt><trkpt lat="40.7850457" lon="9.6575568"><ele>2.0</ele><time>2026-03-29T16:01:58.272Z</time></trkpt><trkpt lat="40.7851914" lon="9.6575392"><ele>2.0</ele><time>2026-03-29T16:01:59.263Z</time></trkpt><trkpt lat="40.7853552" lon="9.6575309"><ele>2.0</ele><time>2026-03-29T16:02:00.267Z</time></trkpt><trkpt lat="40.785534" lon="9.6575328"><ele>2.0</ele><time>2026-03-29T16:02:01.263Z</time></trkpt><trkpt lat="40.7857211" lon="9.6575324"><ele>2.0</ele><time>2026-03-29T16:02:02.267Z</time></trkpt><trkpt lat="40.7859114" lon="9.6575185"><ele>2.0</ele><time>2026-03-29T16:02:03.303Z</time></trkpt><trkpt lat="40.7861028" lon="9.6574981"><ele>1.3333333333333333</ele><time>2026-03-29T16:02:04.268Z</time></trkpt><trkpt lat="40.7862981" lon="9.6574777"><ele>0.6666666666666666</ele><time>2026-03-29T16:02:05.271Z</time></trkpt><trkpt lat="40.7864884" lon="9.65745"><ele>0.0</ele><time>2026-03-29T16:02:06.269Z</time></trkpt><trkpt lat="40.786668" lon="9.6574262"><ele>0.0</ele><time>2026-03-29T16:02:07.273Z</time></trkpt><trkpt lat="40.7868427" lon="9.6574053"><ele>0.0</ele><time>2026-03-29T16:02:08.265Z</time></trkpt><trkpt lat="40.7870213" lon="9.6573874"><ele>0.0</ele><time>2026-03-29T16:02:09.274Z</time></trkpt><trkpt lat="40.787206" lon="9.6573643"><ele>0.0</ele><time>2026-03-29T16:02:10.265Z</time></trkpt><trkpt lat="40.7873964" lon="9.6573377"><ele>0.0</ele><time>2026-03-29T16:02:11.263Z</time></trkpt><trkpt lat="40.7875924" lon="9.6573039"><ele>0.0</ele><time>2026-03-29T16:02:12.265Z</time></trkpt><trkpt lat="40.7877845" lon="9.6572579"><ele>0.3333333333333333</ele><time>2026-03-29T16:02:13.261Z</time></trkpt><trkpt lat="40.7879764" lon="9.6572034"><ele>0.6666666666666666</ele><time>2026-03-29T16:02:14.283Z</time></trkpt><trkpt lat="40.7881641" lon="9.6571454"><ele>1.0</ele><time>2026-03-29T16:02:15.266Z</time></trkpt><trkpt lat="40.7883539" lon="9.657088"><ele>1.0</ele><time>2026-03-29T16:02:16.269Z</time></trkpt><trkpt lat="40.7885465" lon="9.6570293"><ele>1.0</ele><time>2026-03-29T16:02:17.267Z</time></trkpt><trkpt lat="40.7887408" lon="9.6569722"><ele>1.0</ele><time>2026-03-29T16:02:18.273Z</time></trkpt><trkpt lat="40.7889376" lon="9.6569155"><ele>1.0</ele><time>2026-03-29T16:02:19.272Z</time></trkpt><trkpt lat="40.7891327" lon="9.6568533"><ele>1.0</ele><time>2026-03-29T16:02:20.27Z</time></trkpt><trkpt lat="40.7893256" lon="9.6567953"><ele>1.0</ele><time>2026-03-29T16:02:21.281Z</time></trkpt><trkpt lat="40.7895127" lon="9.6567375"><ele>2.3333333333333335</ele><time>2026-03-29T16:02:22.268Z</time></trkpt><trkpt lat="40.7896974" lon="9.6566818"><ele>3.666666666666667</ele><time>2026-03-29T16:02:23.273Z</time></trkpt><trkpt lat="40.7898802" lon="9.6566231"><ele>5.0</ele><time>2026-03-29T16:02:24.266Z</time></trkpt><trkpt lat="40.7900655" lon="9.6565639"><ele>4.666666666666667</ele><time>2026-03-29T16:02:25.274Z</time></trkpt><trkpt lat="40.7902537" lon="9.6565049"><ele>4.333333333333333</ele><time>2026-03-29T16:02:26.261Z</time></trkpt><trkpt lat="40.7904454" lon="9.6564468"><ele>4.0</ele><time>2026-03-29T16:02:27.269Z</time></trkpt><trkpt lat="40.7906373" lon="9.6563906"><ele>4.0</ele><time>2026-03-29T16:02:28.273Z</time></trkpt><trkpt lat="40.7908287" lon="9.6563383"><ele>4.0</ele><time>2026-03-29T16:02:29.262Z</time></trkpt><trkpt lat="40.7910232" lon="9.6562859"><ele>4.0</ele><time>2026-03-29T16:02:30.27Z</time></trkpt><trkpt lat="40.7912228" lon="9.6562458"><ele>3.333333333333333</ele><time>2026-03-29T16:02:31.269Z</time></trkpt><trkpt lat="40.7914194" lon="9.6562139"><ele>2.6666666666666665</ele><time>2026-03-29T16:02:32.258Z</time></trkpt><trkpt lat="40.7916193" lon="9.6561868"><ele>2.0</ele><time>2026-03-29T16:02:33.287Z</time></trkpt><trkpt lat="40.7918101" lon="9.6561656"><ele>2.0</ele><time>2026-03-29T16:02:34.269Z</time></trkpt><trkpt lat="40.7919977" lon="9.6561441"><ele>2.0</ele><time>2026-03-29T16:02:35.271Z</time></trkpt><trkpt lat="40.7921816" lon="9.6561276"><ele>2.0</ele><time>2026-03-29T16:02:36.271Z</time></trkpt><trkpt lat="40.7923678" lon="9.6561123"><ele>2.0</ele><time>2026-03-29T16:02:37.259Z</time></trkpt><trkpt lat="40.7925555" lon="9.6560926"><ele>2.0</ele><time>2026-03-29T16:02:38.285Z</time></trkpt><trkpt lat="40.7927393" lon="9.6560723"><ele>2.0</ele><time>2026-03-29T16:02:39.261Z</time></trkpt><trkpt lat="40.7929231" lon="9.6560572"><ele>2.333333333333333</ele><time>2026-03-29T16:02:40.259Z</time></trkpt><trkpt lat="40.793106" lon="9.6560434"><ele>2.6666666666666665</ele><time>2026-03-29T16:02:41.263Z</time></trkpt><trkpt lat="40.7932878" lon="9.6560201"><ele>3.0</ele><time>2026-03-29T16:02:42.262Z</time></trkpt><trkpt lat="40.7934699" lon="9.6560027"><ele>3.333333333333333</ele><time>2026-03-29T16:02:43.269Z</time></trkpt><trkpt lat="40.7936543" lon="9.655987"><ele>3.6666666666666665</ele><time>2026-03-29T16:02:44.262Z</time></trkpt><trkpt lat="40.7938393" lon="9.6559677"><ele>4.0</ele><time>2026-03-29T16:02:45.266Z</time></trkpt><trkpt lat="40.7940244" lon="9.6559482"><ele>4.0</ele><time>2026-03-29T16:02:46.264Z</time></trkpt><trkpt lat="40.7942077" lon="9.6559265"><ele>4.0</ele><time>2026-03-29T16:02:47.269Z</time></trkpt><trkpt lat="40.7943791" lon="9.6559102"><ele>4.0</ele><time>2026-03-29T16:02:48.268Z</time></trkpt><trkpt lat="40.7945412" lon="9.6558953"><ele>3.333333333333333</ele><time>2026-03-29T16:02:49.272Z</time></trkpt><trkpt lat="40.7947122" lon="9.6558772"><ele>2.6666666666666665</ele><time>2026-03-29T16:02:50.262Z</time></trkpt><trkpt lat="40.7948898" lon="9.655862"><ele>2.0</ele><time>2026-03-29T16:02:51.284Z</time></trkpt><trkpt lat="40.7950654" lon="9.6558497"><ele>1.75</ele><time>2026-03-29T16:02:52.265Z</time></trkpt><trkpt lat="40.7952209" lon="9.655833"><ele>1.5</ele><time>2026-03-29T16:02:53.26Z</time></trkpt><trkpt lat="40.7953554" lon="9.6558187"><ele>1.25</ele><time>2026-03-29T16:02:54.263Z</time></trkpt><trkpt lat="40.7954774" lon="9.6558044"><ele>1.0</ele><time>2026-03-29T16:02:55.274Z</time></trkpt><trkpt lat="40.795593" lon="9.6557921"><ele>1.0</ele><time>2026-03-29T16:02:56.267Z</time></trkpt><trkpt lat="40.7957201" lon="9.6557862"><ele>1.0</ele><time>2026-03-29T16:02:57.262Z</time></trkpt><trkpt lat="40.7958614" lon="9.6557817"><ele>1.0</ele><time>2026-03-29T16:02:58.26Z</time></trkpt><trkpt lat="40.7960178" lon="9.6557864"><ele>1.0</ele><time>2026-03-29T16:02:59.276Z</time></trkpt><trkpt lat="40.7961885" lon="9.6557945"><ele>1.3333333333333333</ele><time>2026-03-29T16:03:00.269Z</time></trkpt><trkpt lat="40.7963665" lon="9.6558073"><ele>1.6666666666666665</ele><time>2026-03-29T16:03:01.271Z</time></trkpt><trkpt lat="40.7965462" lon="9.6558195"><ele>2.0</ele><time>2026-03-29T16:03:02.269Z</time></trkpt><trkpt lat="40.7967272" lon="9.6558331"><ele>1.6666666666666665</ele><time>2026-03-29T16:03:03.262Z</time></trkpt><trkpt lat="40.7969137" lon="9.6558494"><ele>1.3333333333333333</ele><time>2026-03-29T16:03:04.275Z</time></trkpt><trkpt lat="40.7971038" lon="9.6558649"><ele>1.0</ele><time>2026-03-29T16:03:05.263Z</time></trkpt><trkpt lat="40.7972975" lon="9.6558821"><ele>1.0</ele><time>2026-03-29T16:03:06.273Z</time></trkpt><trkpt lat="40.7974959" lon="9.6559"><ele>1.0</ele><time>2026-03-29T16:03:07.263Z</time></trkpt><trkpt lat="40.7977085" lon="9.6559189"><ele>1.0</ele><time>2026-03-29T16:03:08.262Z</time></trkpt><trkpt lat="40.7979384" lon="9.6559379"><ele>1.3333333333333333</ele><time>2026-03-29T16:03:09.263Z</time></trkpt><trkpt lat="40.7981595" lon="9.6559563"><ele>1.6666666666666665</ele><time>2026-03-29T16:03:10.265Z</time></trkpt><trkpt lat="40.7983712" lon="9.6559746"><ele>2.0</ele><time>2026-03-29T16:03:11.269Z</time></trkpt><trkpt lat="40.7985824" lon="9.6559939"><ele>2.0</ele><time>2026-03-29T16:03:12.27Z</time></trkpt><trkpt lat="40.7987944" lon="9.6560134"><ele>2.0</ele><time>2026-03-29T16:03:13.262Z</time></trkpt><trkpt lat="40.7990038" lon="9.6560329"><ele>2.0</ele><time>2026-03-29T16:03:14.275Z</time></trkpt><trkpt lat="40.799209" lon="9.6560519"><ele>1.6666666666666665</ele><time>2026-03-29T16:03:15.258Z</time></trkpt><trkpt lat="40.7994105" lon="9.6560696"><ele>1.3333333333333333</ele><time>2026-03-29T16:03:16.283Z</time></trkpt><trkpt lat="40.7996097" lon="9.6560856"><ele>1.0</ele><time>2026-03-29T16:03:17.263Z</time></trkpt><trkpt lat="40.7998105" lon="9.6561017"><ele>1.0</ele><time>2026-03-29T16:03:18.27Z</time></trkpt><trkpt lat="40.8000178" lon="9.6561203"><ele>1.0</ele><time>2026-03-29T16:03:19.261Z</time></trkpt><trkpt lat="40.8002261" lon="9.6561403"><ele>1.0</ele><time>2026-03-29T16:03:20.269Z</time></trkpt><trkpt lat="40.8004355" lon="9.656161"><ele>1.3333333333333333</ele><time>2026-03-29T16:03:21.261Z</time></trkpt><trkpt lat="40.8006449" lon="9.6561798"><ele>1.6666666666666665</ele><time>2026-03-29T16:03:22.264Z</time></trkpt><trkpt lat="40.800854" lon="9.6561963"><ele>2.0</ele><time>2026-03-29T16:03:23.261Z</time></trkpt><trkpt lat="40.8010566" lon="9.6562123"><ele>2.0</ele><time>2026-03-29T16:03:24.27Z</time></trkpt><trkpt lat="40.8012554" lon="9.6562285"><ele>2.0</ele><time>2026-03-29T16:03:25.259Z</time></trkpt><trkpt lat="40.8014513" lon="9.6562458"><ele>2.0</ele><time>2026-03-29T16:03:26.259Z</time></trkpt><trkpt lat="40.8016436" lon="9.6562642"><ele>1.6666666666666665</ele><time>2026-03-29T16:03:27.263Z</time></trkpt><trkpt lat="40.8018364" lon="9.6562834"><ele>1.3333333333333333</ele><time>2026-03-29T16:03:28.261Z</time></trkpt><trkpt lat="40.8020331" lon="9.6563038"><ele>1.0</ele><time>2026-03-29T16:03:29.261Z</time></trkpt><trkpt lat="40.8022336" lon="9.6563231"><ele>1.0</ele><time>2026-03-29T16:03:30.28Z</time></trkpt><trkpt lat="40.8024416" lon="9.6563403"><ele>1.0</ele><time>2026-03-29T16:03:31.265Z</time></trkpt><trkpt lat="40.8026532" lon="9.6563579"><ele>1.0</ele><time>2026-03-29T16:03:32.261Z</time></trkpt><trkpt lat="40.8028654" lon="9.6563766"><ele>0.6666666666666666</ele><time>2026-03-29T16:03:33.262Z</time></trkpt><trkpt lat="40.8030772" lon="9.6563976"><ele>0.3333333333333333</ele><time>2026-03-29T16:03:34.264Z</time></trkpt><trkpt lat="40.8032873" lon="9.6564178"><ele>0.0</ele><time>2026-03-29T16:03:35.265Z</time></trkpt><trkpt lat="40.8034964" lon="9.6564368"><ele>0.3333333333333333</ele><time>2026-03-29T16:03:36.263Z</time></trkpt><trkpt lat="40.8036998" lon="9.6564546"><ele>0.6666666666666666</ele><time>2026-03-29T16:03:37.261Z</time></trkpt><trkpt lat="40.8039033" lon="9.6564762"><ele>1.0</ele><time>2026-03-29T16:03:38.274Z</time></trkpt><trkpt lat="40.8041077" lon="9.6565125"><ele>1.0</ele><time>2026-03-29T16:03:39.268Z</time></trkpt><trkpt lat="40.8043147" lon="9.6565641"><ele>1.0</ele><time>2026-03-29T16:03:40.262Z</time></trkpt><trkpt lat="40.8045232" lon="9.6566291"><ele>1.0</ele><time>2026-03-29T16:03:41.261Z</time></trkpt><trkpt lat="40.8047345" lon="9.6566987"><ele>0.6666666666666666</ele><time>2026-03-29T16:03:42.266Z</time></trkpt><trkpt lat="40.8049468" lon="9.6567696"><ele>0.3333333333333333</ele><time>2026-03-29T16:03:43.264Z</time></trkpt><trkpt lat="40.8051568" lon="9.6568421"><ele>0.0</ele><time>2026-03-29T16:03:44.271Z</time></trkpt><trkpt lat="40.8053646" lon="9.6569141"><ele>0.0</ele><time>2026-03-29T16:03:45.263Z</time></trkpt><trkpt lat="40.8055623" lon="9.6569815"><ele>0.0</ele><time>2026-03-29T16:03:46.267Z</time></trkpt><trkpt lat="40.8057583" lon="9.6570469"><ele>0.0</ele><time>2026-03-29T16:03:47.269Z</time></trkpt><trkpt lat="40.8059532" lon="9.6571117"><ele>0.3333333333333333</ele><time>2026-03-29T16:03:48.272Z</time></trkpt><trkpt lat="40.8061474" lon="9.6571766"><ele>0.6666666666666666</ele><time>2026-03-29T16:03:49.27Z</time></trkpt><trkpt lat="40.8063415" lon="9.6572411"><ele>1.0</ele><time>2026-03-29T16:03:50.281Z</time></trkpt><trkpt lat="40.8065358" lon="9.6573048"><ele>1.0</ele><time>2026-03-29T16:03:51.262Z</time></trkpt><trkpt lat="40.806731" lon="9.6573681"><ele>1.0</ele><time>2026-03-29T16:03:52.278Z</time></trkpt><trkpt lat="40.8069266" lon="9.6574332"><ele>1.0</ele><time>2026-03-29T16:03:53.27Z</time></trkpt><trkpt lat="40.8071227" lon="9.6575003"><ele>1.6666666666666665</ele><time>2026-03-29T16:03:54.273Z</time></trkpt><trkpt lat="40.8073191" lon="9.6575682"><ele>2.3333333333333335</ele><time>2026-03-29T16:03:55.275Z</time></trkpt><trkpt lat="40.8075157" lon="9.657635"><ele>3.0</ele><time>2026-03-29T16:03:56.272Z</time></trkpt><trkpt lat="40.8077122" lon="9.6577013"><ele>3.0</ele><time>2026-03-29T16:03:57.273Z</time></trkpt><trkpt lat="40.8079092" lon="9.657768"><ele>3.0</ele><time>2026-03-29T16:03:58.272Z</time></trkpt><trkpt lat="40.8081064" lon="9.6578345"><ele>3.0</ele><time>2026-03-29T16:03:59.275Z</time></trkpt><trkpt lat="40.8083051" lon="9.6578992"><ele>4.0</ele><time>2026-03-29T16:04:00.274Z</time></trkpt><trkpt lat="40.8085044" lon="9.6579646"><ele>5.0</ele><time>2026-03-29T16:04:01.263Z</time></trkpt><trkpt lat="40.8087023" lon="9.6580307"><ele>6.0</ele><time>2026-03-29T16:04:02.271Z</time></trkpt><trkpt lat="40.8089001" lon="9.6580975"><ele>6.0</ele><time>2026-03-29T16:04:03.269Z</time></trkpt><trkpt lat="40.809098" lon="9.6581643"><ele>6.0</ele><time>2026-03-29T16:04:04.281Z</time></trkpt><trkpt lat="40.8092964" lon="9.6582306"><ele>6.0</ele><time>2026-03-29T16:04:05.263Z</time></trkpt><trkpt lat="40.8094956" lon="9.6582974"><ele>6.666666666666666</ele><time>2026-03-29T16:04:06.263Z</time></trkpt><trkpt lat="40.8096955" lon="9.6583641"><ele>7.333333333333333</ele><time>2026-03-29T16:04:07.263Z</time></trkpt><trkpt lat="40.8098958" lon="9.6584313"><ele>8.0</ele><time>2026-03-29T16:04:08.273Z</time></trkpt><trkpt lat="40.8100966" lon="9.6585003"><ele>8.333333333333332</ele><time>2026-03-29T16:04:09.263Z</time></trkpt><trkpt lat="40.8102976" lon="9.6585687"><ele>8.666666666666666</ele><time>2026-03-29T16:04:10.261Z</time></trkpt><trkpt lat="40.8104991" lon="9.658637"><ele>9.0</ele><time>2026-03-29T16:04:11.261Z</time></trkpt><trkpt lat="40.810701" lon="9.6587057"><ele>8.333333333333334</ele><time>2026-03-29T16:04:12.262Z</time></trkpt><trkpt lat="40.8109037" lon="9.6587747"><ele>7.666666666666667</ele><time>2026-03-29T16:04:13.261Z</time></trkpt><trkpt lat="40.8111074" lon="9.6588424"><ele>7.0</ele><time>2026-03-29T16:04:14.263Z</time></trkpt><trkpt lat="40.811312" lon="9.6589085"><ele>7.0</ele><time>2026-03-29T16:04:15.267Z</time></trkpt><trkpt lat="40.8115172" lon="9.6589747"><ele>7.0</ele><time>2026-03-29T16:04:16.265Z</time></trkpt><trkpt lat="40.8117227" lon="9.6590426"><ele>7.0</ele><time>2026-03-29T16:04:17.257Z</time></trkpt><trkpt lat="40.8119278" lon="9.6591113"><ele>8.0</ele><time>2026-03-29T16:04:18.292Z</time></trkpt><trkpt lat="40.8121331" lon="9.6591817"><ele>9.0</ele><time>2026-03-29T16:04:19.262Z</time></trkpt><trkpt lat="40.8123384" lon="9.659252"><ele>10.0</ele><time>2026-03-29T16:04:20.267Z</time></trkpt><trkpt lat="40.8125442" lon="9.6593227"><ele>10.666666666666668</ele><time>2026-03-29T16:04:21.259Z</time></trkpt><trkpt lat="40.81275" lon="9.6593925"><ele>11.333333333333334</ele><time>2026-03-29T16:04:22.262Z</time></trkpt><trkpt lat="40.8129556" lon="9.6594617"><ele>12.0</ele><time>2026-03-29T16:04:23.272Z</time></trkpt><trkpt lat="40.8131595" lon="9.6595301"><ele>12.0</ele><time>2026-03-29T16:04:24.263Z</time></trkpt><trkpt lat="40.8133626" lon="9.6595986"><ele>12.0</ele><time>2026-03-29T16:04:25.281Z</time></trkpt><trkpt lat="40.8135638" lon="9.6596658"><ele>12.0</ele><time>2026-03-29T16:04:26.261Z</time></trkpt><trkpt lat="40.8137644" lon="9.6597332"><ele>13.0</ele><time>2026-03-29T16:04:27.262Z</time></trkpt><trkpt lat="40.8139646" lon="9.6598011"><ele>14.0</ele><time>2026-03-29T16:04:28.262Z</time></trkpt><trkpt lat="40.8141644" lon="9.6598671"><ele>15.0</ele><time>2026-03-29T16:04:29.262Z</time></trkpt><trkpt lat="40.8143635" lon="9.6599327"><ele>16.333333333333332</ele><time>2026-03-29T16:04:30.266Z</time></trkpt><trkpt lat="40.8145618" lon="9.6599973"><ele>17.666666666666664</ele><time>2026-03-29T16:04:31.26Z</time></trkpt><trkpt lat="40.814755" lon="9.6600503"><ele>19.0</ele><time>2026-03-29T16:04:32.279Z</time></trkpt><trkpt lat="40.8149479" lon="9.6600836"><ele>19.0</ele><time>2026-03-29T16:04:33.261Z</time></trkpt><trkpt lat="40.8151421" lon="9.6600991"><ele>19.0</ele><time>2026-03-29T16:04:34.264Z</time></trkpt><trkpt lat="40.8153401" lon="9.6600942"><ele>19.0</ele><time>2026-03-29T16:04:35.269Z</time></trkpt><trkpt lat="40.8155441" lon="9.6600726"><ele>19.0</ele><time>2026-03-29T16:04:36.266Z</time></trkpt><trkpt lat="40.8157509" lon="9.6600426"><ele>19.0</ele><time>2026-03-29T16:04:37.261Z</time></trkpt><trkpt lat="40.8159594" lon="9.6600114"><ele>19.0</ele><time>2026-03-29T16:04:38.265Z</time></trkpt><trkpt lat="40.8161684" lon="9.6599778"><ele>19.333333333333332</ele><time>2026-03-29T16:04:39.262Z</time></trkpt><trkpt lat="40.8163771" lon="9.6599425"><ele>19.666666666666668</ele><time>2026-03-29T16:04:40.265Z</time></trkpt><trkpt lat="40.8165863" lon="9.6599077"><ele>20.0</ele><time>2026-03-29T16:04:41.261Z</time></trkpt><trkpt lat="40.8167909" lon="9.6598727"><ele>19.666666666666668</ele><time>2026-03-29T16:04:42.279Z</time></trkpt><trkpt lat="40.8169901" lon="9.6598388"><ele>19.333333333333332</ele><time>2026-03-29T16:04:43.26Z</time></trkpt><trkpt lat="40.8171859" lon="9.659805"><ele>19.0</ele><time>2026-03-29T16:04:44.258Z</time></trkpt><trkpt lat="40.8173787" lon="9.6597716"><ele>19.0</ele><time>2026-03-29T16:04:45.261Z</time></trkpt><trkpt lat="40.8175697" lon="9.6597381"><ele>19.0</ele><time>2026-03-29T16:04:46.268Z</time></trkpt><trkpt lat="40.8177598" lon="9.659706"><ele>19.0</ele><time>2026-03-29T16:04:47.266Z</time></trkpt><trkpt lat="40.8179495" lon="9.6596749"><ele>19.333333333333332</ele><time>2026-03-29T16:04:48.261Z</time></trkpt><trkpt lat="40.8181405" lon="9.6596462"><ele>19.666666666666668</ele><time>2026-03-29T16:04:49.273Z</time></trkpt><trkpt lat="40.8183317" lon="9.659616"><ele>20.0</ele><time>2026-03-29T16:04:50.264Z</time></trkpt><trkpt lat="40.8185258" lon="9.6595851"><ele>21.333333333333336</ele><time>2026-03-29T16:04:51.264Z</time></trkpt><trkpt lat="40.8187231" lon="9.659553"><ele>22.666666666666668</ele><time>2026-03-29T16:04:52.262Z</time></trkpt><trkpt lat="40.8189238" lon="9.6595211"><ele>24.0</ele><time>2026-03-29T16:04:53.268Z</time></trkpt><trkpt lat="40.8191289" lon="9.6594883"><ele>24.666666666666664</ele><time>2026-03-29T16:04:54.261Z</time></trkpt><trkpt lat="40.8193378" lon="9.6594545"><ele>25.333333333333332</ele><time>2026-03-29T16:04:55.261Z</time></trkpt><trkpt lat="40.8195503" lon="9.6594195"><ele>26.0</ele><time>2026-03-29T16:04:56.263Z</time></trkpt><trkpt lat="40.8197659" lon="9.6593857"><ele>26.333333333333332</ele><time>2026-03-29T16:04:57.262Z</time></trkpt><trkpt lat="40.8199802" lon="9.6593525"><ele>26.666666666666664</ele><time>2026-03-29T16:04:58.26Z</time></trkpt><trkpt lat="40.8201831" lon="9.6593221"><ele>27.0</ele><time>2026-03-29T16:04:59.264Z</time></trkpt><trkpt lat="40.8203792" lon="9.659294"><ele>27.333333333333336</ele><time>2026-03-29T16:05:00.28Z</time></trkpt><trkpt lat="40.8205739" lon="9.6592695"><ele>27.666666666666668</ele><time>2026-03-29T16:05:01.261Z</time></trkpt><trkpt lat="40.8207694" lon="9.6592544"><ele>28.0</ele><time>2026-03-29T16:05:02.262Z</time></trkpt><trkpt lat="40.8209648" lon="9.6592577"><ele>29.0</ele><time>2026-03-29T16:05:03.261Z</time></trkpt><trkpt lat="40.8211598" lon="9.6592779"><ele>30.0</ele><time>2026-03-29T16:05:04.262Z</time></trkpt><trkpt lat="40.8213551" lon="9.6593126"><ele>31.0</ele><time>2026-03-29T16:05:05.261Z</time></trkpt><trkpt lat="40.8215532" lon="9.659359"><ele>31.0</ele><time>2026-03-29T16:05:06.26Z</time></trkpt><trkpt lat="40.8217555" lon="9.6594121"><ele>31.0</ele><time>2026-03-29T16:05:07.279Z</time></trkpt><trkpt lat="40.8219624" lon="9.6594657"><ele>31.0</ele><time>2026-03-29T16:05:08.264Z</time></trkpt><trkpt lat="40.8221748" lon="9.6595186"><ele>31.333333333333336</ele><time>2026-03-29T16:05:09.264Z</time></trkpt><trkpt lat="40.82239" lon="9.6595713"><ele>31.666666666666664</ele><time>2026-03-29T16:05:10.264Z</time></trkpt><trkpt lat="40.8226047" lon="9.6596251"><ele>32.0</ele><time>2026-03-29T16:05:11.262Z</time></trkpt><trkpt lat="40.8228187" lon="9.6596801"><ele>32.666666666666664</ele><time>2026-03-29T16:05:12.262Z</time></trkpt><trkpt lat="40.823031" lon="9.6597355"><ele>33.333333333333336</ele><time>2026-03-29T16:05:13.265Z</time></trkpt><trkpt lat="40.8232396" lon="9.6597896"><ele>34.0</ele><time>2026-03-29T16:05:14.262Z</time></trkpt><trkpt lat="40.8234455" lon="9.6598424"><ele>35.333333333333336</ele><time>2026-03-29T16:05:15.266Z</time></trkpt><trkpt lat="40.8236479" lon="9.6598941"><ele>36.666666666666664</ele><time>2026-03-29T16:05:16.266Z</time></trkpt><trkpt lat="40.8238463" lon="9.6599449"><ele>38.0</ele><time>2026-03-29T16:05:17.282Z</time></trkpt><trkpt lat="40.8240431" lon="9.6599948"><ele>38.0</ele><time>2026-03-29T16:05:18.264Z</time></trkpt><trkpt lat="40.8242384" lon="9.6600435"><ele>38.0</ele><time>2026-03-29T16:05:19.266Z</time></trkpt><trkpt lat="40.8244258" lon="9.6600895"><ele>38.0</ele><time>2026-03-29T16:05:20.269Z</time></trkpt><trkpt lat="40.8246092" lon="9.6601343"><ele>38.666666666666664</ele><time>2026-03-29T16:05:21.259Z</time></trkpt><trkpt lat="40.8247898" lon="9.6601795"><ele>39.333333333333336</ele><time>2026-03-29T16:05:22.297Z</time></trkpt><trkpt lat="40.8249595" lon="9.6602246"><ele>40.0</ele><time>2026-03-29T16:05:23.263Z</time></trkpt><trkpt lat="40.8251125" lon="9.6602762"><ele>40.25</ele><time>2026-03-29T16:05:24.267Z</time></trkpt><trkpt lat="40.8252541" lon="9.6603275"><ele>40.5</ele><time>2026-03-29T16:05:25.264Z</time></trkpt><trkpt lat="40.8253815" lon="9.6604235"><ele>40.75</ele><time>2026-03-29T16:05:26.266Z</time></trkpt><trkpt lat="40.8255005" lon="9.6605443"><ele>41.0</ele><time>2026-03-29T16:05:27.264Z</time></trkpt><trkpt lat="40.8256235" lon="9.6606902"><ele>41.0</ele><time>2026-03-29T16:05:28.261Z</time></trkpt><trkpt lat="40.8257518" lon="9.6608503"><ele>41.0</ele><time>2026-03-29T16:05:29.264Z</time></trkpt><trkpt lat="40.8258863" lon="9.6610129"><ele>41.0</ele><time>2026-03-29T16:05:30.261Z</time></trkpt><trkpt lat="40.8260237" lon="9.6611768"><ele>38.666666666666664</ele><time>2026-03-29T16:05:31.26Z</time></trkpt><trkpt lat="40.8261535" lon="9.661336"><ele>36.333333333333336</ele><time>2026-03-29T16:05:32.264Z</time></trkpt><trkpt lat="40.8262774" lon="9.6614848"><ele>34.0</ele><time>2026-03-29T16:05:33.297Z</time></trkpt><trkpt lat="40.8263949" lon="9.6616305"><ele>34.0</ele><time>2026-03-29T16:05:34.262Z</time></trkpt><trkpt lat="40.8265075" lon="9.6617736"><ele>34.0</ele><time>2026-03-29T16:05:35.261Z</time></trkpt><trkpt lat="40.8266179" lon="9.6619149"><ele>34.0</ele><time>2026-03-29T16:05:36.263Z</time></trkpt><trkpt lat="40.8267281" lon="9.6620533"><ele>32.5</ele><time>2026-03-29T16:05:37.265Z</time></trkpt><trkpt lat="40.8268397" lon="9.662183"><ele>31.0</ele><time>2026-03-29T16:05:38.26Z</time></trkpt><trkpt lat="40.8269531" lon="9.6623036"><ele>29.5</ele><time>2026-03-29T16:05:39.282Z</time></trkpt><trkpt lat="40.8270713" lon="9.6624047"><ele>28.0</ele><time>2026-03-29T16:05:40.265Z</time></trkpt><trkpt lat="40.8272107" lon="9.6624622"><ele>28.0</ele><time>2026-03-29T16:05:41.262Z</time></trkpt><trkpt lat="40.8273619" lon="9.6624816"><ele>28.0</ele><time>2026-03-29T16:05:42.263Z</time></trkpt><trkpt lat="40.8275176" lon="9.6624794"><ele>28.0</ele><time>2026-03-29T16:05:43.264Z</time></trkpt><trkpt lat="40.8276817" lon="9.6624581"><ele>27.0</ele><time>2026-03-29T16:05:44.296Z</time></trkpt><trkpt lat="40.8278675" lon="9.6624248"><ele>26.0</ele><time>2026-03-29T16:05:45.261Z</time></trkpt><trkpt lat="40.8280796" lon="9.6624083"><ele>25.0</ele><time>2026-03-29T16:05:46.265Z</time></trkpt><trkpt lat="40.8283173" lon="9.6623994"><ele>25.0</ele><time>2026-03-29T16:05:47.264Z</time></trkpt><trkpt lat="40.8285559" lon="9.6623862"><ele>25.0</ele><time>2026-03-29T16:05:48.269Z</time></trkpt><trkpt lat="40.8287831" lon="9.6623834"><ele>25.0</ele><time>2026-03-29T16:05:49.27Z</time></trkpt><trkpt lat="40.8289946" lon="9.6623872"><ele>25.0</ele><time>2026-03-29T16:05:50.268Z</time></trkpt><trkpt lat="40.8291991" lon="9.6624349"><ele>25.0</ele><time>2026-03-29T16:05:51.273Z</time></trkpt><trkpt lat="40.8294031" lon="9.662551"><ele>26.5</ele><time>2026-03-29T16:05:52.265Z</time></trkpt><trkpt lat="40.8296087" lon="9.6627067"><ele>28.0</ele><time>2026-03-29T16:05:53.262Z</time></trkpt><trkpt lat="40.8298216" lon="9.6628797"><ele>27.5</ele><time>2026-03-29T16:05:54.271Z</time></trkpt><trkpt lat="40.8300484" lon="9.6630611"><ele>27.0</ele><time>2026-03-29T16:05:55.261Z</time></trkpt><trkpt lat="40.8302673" lon="9.6632322"><ele>27.0</ele><time>2026-03-29T16:05:56.27Z</time></trkpt><trkpt lat="40.8304707" lon="9.6633959"><ele>27.0</ele><time>2026-03-29T16:05:57.261Z</time></trkpt><trkpt lat="40.8306606" lon="9.6635495"><ele>24.0</ele><time>2026-03-29T16:05:58.269Z</time></trkpt><trkpt lat="40.8308379" lon="9.6636924"><ele>21.0</ele><time>2026-03-29T16:05:59.267Z</time></trkpt><trkpt lat="40.8310023" lon="9.6638187"><ele>18.0</ele><time>2026-03-29T16:06:00.271Z</time></trkpt><trkpt lat="40.8311599" lon="9.6639223"><ele>17.666666666666668</ele><time>2026-03-29T16:06:01.262Z</time></trkpt><trkpt lat="40.8313244" lon="9.6639902"><ele>17.333333333333336</ele><time>2026-03-29T16:06:02.27Z</time></trkpt><trkpt lat="40.8315111" lon="9.6640332"><ele>17.0</ele><time>2026-03-29T16:06:03.262Z</time></trkpt><trkpt lat="40.8317071" lon="9.6640671"><ele>16.666666666666668</ele><time>2026-03-29T16:06:04.293Z</time></trkpt><trkpt lat="40.8319051" lon="9.6640981"><ele>16.333333333333332</ele><time>2026-03-29T16:06:05.262Z</time></trkpt><trkpt lat="40.8321054" lon="9.6641294"><ele>16.0</ele><time>2026-03-29T16:06:06.272Z</time></trkpt><trkpt lat="40.8323041" lon="9.664157"><ele>16.0</ele><time>2026-03-29T16:06:07.266Z</time></trkpt><trkpt lat="40.83251" lon="9.6641926"><ele>16.0</ele><time>2026-03-29T16:06:08.275Z</time></trkpt><trkpt lat="40.8327278" lon="9.6642304"><ele>16.0</ele><time>2026-03-29T16:06:09.262Z</time></trkpt><trkpt lat="40.8329521" lon="9.6642642"><ele>16.0</ele><time>2026-03-29T16:06:10.287Z</time></trkpt><trkpt lat="40.833181" lon="9.6642986"><ele>16.0</ele><time>2026-03-29T16:06:11.264Z</time></trkpt><trkpt lat="40.8333982" lon="9.6643328"><ele>16.0</ele><time>2026-03-29T16:06:12.259Z</time></trkpt><trkpt lat="40.8335984" lon="9.6643652"><ele>16.666666666666664</ele><time>2026-03-29T16:06:13.265Z</time></trkpt><trkpt lat="40.8337834" lon="9.6643919"><ele>17.333333333333332</ele><time>2026-03-29T16:06:14.264Z</time></trkpt><trkpt lat="40.8339534" lon="9.6644088"><ele>18.0</ele><time>2026-03-29T16:06:15.283Z</time></trkpt><trkpt lat="40.8341103" lon="9.6644034"><ele>18.0</ele><time>2026-03-29T16:06:16.268Z</time></trkpt><trkpt lat="40.8342638" lon="9.6643701"><ele>18.0</ele><time>2026-03-29T16:06:17.268Z</time></trkpt><trkpt lat="40.834407" lon="9.6642999"><ele>18.0</ele><time>2026-03-29T16:06:18.262Z</time></trkpt><trkpt lat="40.8345339" lon="9.6641937"><ele>18.666666666666668</ele><time>2026-03-29T16:06:19.261Z</time></trkpt><trkpt lat="40.8346531" lon="9.6640476"><ele>19.333333333333336</ele><time>2026-03-29T16:06:20.299Z</time></trkpt><trkpt lat="40.8347728" lon="9.6638677"><ele>20.0</ele><time>2026-03-29T16:06:21.266Z</time></trkpt><trkpt lat="40.834895" lon="9.6636763"><ele>20.666666666666668</ele><time>2026-03-29T16:06:22.265Z</time></trkpt><trkpt lat="40.8350181" lon="9.6634837"><ele>21.333333333333332</ele><time>2026-03-29T16:06:23.269Z</time></trkpt><trkpt lat="40.8351417" lon="9.6632863"><ele>22.0</ele><time>2026-03-29T16:06:24.263Z</time></trkpt><trkpt lat="40.8352677" lon="9.6630847"><ele>22.0</ele><time>2026-03-29T16:06:25.273Z</time></trkpt><trkpt lat="40.8353974" lon="9.6628766"><ele>22.0</ele><time>2026-03-29T16:06:26.26Z</time></trkpt><trkpt lat="40.8355317" lon="9.6626632"><ele>22.0</ele><time>2026-03-29T16:06:27.303Z</time></trkpt><trkpt lat="40.835668" lon="9.662445"><ele>21.333333333333332</ele><time>2026-03-29T16:06:28.265Z</time></trkpt><trkpt lat="40.8358042" lon="9.6622248"><ele>20.666666666666668</ele><time>2026-03-29T16:06:29.263Z</time></trkpt><trkpt lat="40.8359428" lon="9.6620068"><ele>20.0</ele><time>2026-03-29T16:06:30.269Z</time></trkpt><trkpt lat="40.8360857" lon="9.6617973"><ele>19.0</ele><time>2026-03-29T16:06:31.267Z</time></trkpt><trkpt lat="40.8362186" lon="9.6615888"><ele>18.0</ele><time>2026-03-29T16:06:32.265Z</time></trkpt><trkpt lat="40.8363485" lon="9.6613827"><ele>17.0</ele><time>2026-03-29T16:06:33.266Z</time></trkpt><trkpt lat="40.8364789" lon="9.6611788"><ele>17.666666666666668</ele><time>2026-03-29T16:06:34.257Z</time></trkpt><trkpt lat="40.8366083" lon="9.6609712"><ele>18.333333333333332</ele><time>2026-03-29T16:06:35.266Z</time></trkpt><trkpt lat="40.8367364" lon="9.6607632"><ele>19.0</ele><time>2026-03-29T16:06:36.256Z</time></trkpt><trkpt lat="40.8368644" lon="9.6605565"><ele>19.333333333333332</ele><time>2026-03-29T16:06:37.26Z</time></trkpt><trkpt lat="40.836995" lon="9.6603529"><ele>19.666666666666668</ele><time>2026-03-29T16:06:38.265Z</time></trkpt><trkpt lat="40.8371216" lon="9.66015"><ele>20.0</ele><time>2026-03-29T16:06:39.264Z</time></trkpt><trkpt lat="40.837249" lon="9.6599473"><ele>20.0</ele><time>2026-03-29T16:06:40.289Z</time></trkpt><trkpt lat="40.837379" lon="9.6597394"><ele>20.0</ele><time>2026-03-29T16:06:41.256Z</time></trkpt><trkpt lat="40.8375094" lon="9.6595297"><ele>20.0</ele><time>2026-03-29T16:06:42.265Z</time></trkpt><trkpt lat="40.8376403" lon="9.6593195"><ele>22.666666666666668</ele><time>2026-03-29T16:06:43.258Z</time></trkpt><trkpt lat="40.8377707" lon="9.6591119"><ele>25.333333333333336</ele><time>2026-03-29T16:06:44.267Z</time></trkpt><trkpt lat="40.8378986" lon="9.6589081"><ele>28.0</ele><time>2026-03-29T16:06:45.264Z</time></trkpt><trkpt lat="40.8380243" lon="9.6587069"><ele>28.666666666666668</ele><time>2026-03-29T16:06:46.256Z</time></trkpt><trkpt lat="40.8381508" lon="9.6585047"><ele>29.333333333333336</ele><time>2026-03-29T16:06:47.257Z</time></trkpt><trkpt lat="40.838281" lon="9.6583011"><ele>30.0</ele><time>2026-03-29T16:06:48.262Z</time></trkpt><trkpt lat="40.8384182" lon="9.6580966"><ele>30.0</ele><time>2026-03-29T16:06:49.263Z</time></trkpt><trkpt lat="40.8385597" lon="9.6578967"><ele>30.0</ele><time>2026-03-29T16:06:50.259Z</time></trkpt><trkpt lat="40.8387028" lon="9.6576995"><ele>30.0</ele><time>2026-03-29T16:06:51.263Z</time></trkpt><trkpt lat="40.8388475" lon="9.6575022"><ele>30.0</ele><time>2026-03-29T16:06:52.259Z</time></trkpt><trkpt lat="40.8389918" lon="9.6573036"><ele>30.0</ele><time>2026-03-29T16:06:53.28Z</time></trkpt><trkpt lat="40.8391367" lon="9.6571036"><ele>30.0</ele><time>2026-03-29T16:06:54.259Z</time></trkpt><trkpt lat="40.8392801" lon="9.6569061"><ele>31.666666666666664</ele><time>2026-03-29T16:06:55.264Z</time></trkpt><trkpt lat="40.8394199" lon="9.6567141"><ele>33.33333333333333</ele><time>2026-03-29T16:06:56.267Z</time></trkpt><trkpt lat="40.8395569" lon="9.6565264"><ele>35.0</ele><time>2026-03-29T16:06:57.262Z</time></trkpt><trkpt lat="40.8396913" lon="9.6563412"><ele>35.0</ele><time>2026-03-29T16:06:58.295Z</time></trkpt><trkpt lat="40.8398225" lon="9.6561559"><ele>35.0</ele><time>2026-03-29T16:06:59.262Z</time></trkpt><trkpt lat="40.8399491" lon="9.6559682"><ele>35.0</ele><time>2026-03-29T16:07:00.255Z</time></trkpt><trkpt lat="40.8400634" lon="9.6557804"><ele>36.33333333333333</ele><time>2026-03-29T16:07:01.259Z</time></trkpt><trkpt lat="40.8401634" lon="9.6555908"><ele>37.666666666666664</ele><time>2026-03-29T16:07:02.266Z</time></trkpt><trkpt lat="40.8402504" lon="9.6553955"><ele>39.0</ele><time>2026-03-29T16:07:03.262Z</time></trkpt><trkpt lat="40.8403231" lon="9.6552034"><ele>39.25</ele><time>2026-03-29T16:07:04.265Z</time></trkpt><trkpt lat="40.8403837" lon="9.6550242"><ele>39.5</ele><time>2026-03-29T16:07:05.261Z</time></trkpt><trkpt lat="40.8404407" lon="9.6548544"><ele>39.75</ele><time>2026-03-29T16:07:06.265Z</time></trkpt><trkpt lat="40.8404971" lon="9.6546906"><ele>40.0</ele><time>2026-03-29T16:07:07.265Z</time></trkpt><trkpt lat="40.8405531" lon="9.6545269"><ele>41.0</ele><time>2026-03-29T16:07:08.266Z</time></trkpt><trkpt lat="40.840607" lon="9.6543622"><ele>42.0</ele><time>2026-03-29T16:07:09.276Z</time></trkpt><trkpt lat="40.8406611" lon="9.6541968"><ele>43.0</ele><time>2026-03-29T16:07:10.264Z</time></trkpt><trkpt lat="40.840717" lon="9.6540349"><ele>44.0</ele><time>2026-03-29T16:07:11.257Z</time></trkpt><trkpt lat="40.8407745" lon="9.6538804"><ele>44.0</ele><time>2026-03-29T16:07:12.26Z</time></trkpt><trkpt lat="40.8408369" lon="9.6537343"><ele>44.0</ele><time>2026-03-29T16:07:13.264Z</time></trkpt><trkpt lat="40.8409085" lon="9.6535964"><ele>44.0</ele><time>2026-03-29T16:07:14.263Z</time></trkpt><trkpt lat="40.8409878" lon="9.653462"><ele>44.0</ele><time>2026-03-29T16:07:15.274Z</time></trkpt><trkpt lat="40.8410673" lon="9.6533334"><ele>44.5</ele><time>2026-03-29T16:07:16.263Z</time></trkpt><trkpt lat="40.8411475" lon="9.6532078"><ele>45.0</ele><time>2026-03-29T16:07:17.26Z</time></trkpt><trkpt lat="40.8412275" lon="9.6530849"><ele>45.5</ele><time>2026-03-29T16:07:18.265Z</time></trkpt><trkpt lat="40.8413062" lon="9.6529787"><ele>46.0</ele><time>2026-03-29T16:07:19.265Z</time></trkpt><trkpt lat="40.8413827" lon="9.6528675"><ele>45.599999999999994</ele><time>2026-03-29T16:07:20.272Z</time></trkpt><trkpt lat="40.8414601" lon="9.6527583"><ele>45.2</ele><time>2026-03-29T16:07:21.266Z</time></trkpt><trkpt lat="40.8415402" lon="9.6526592"><ele>44.8</ele><time>2026-03-29T16:07:22.284Z</time></trkpt><trkpt lat="40.8416216" lon="9.6525738"><ele>44.400000000000006</ele><time>2026-03-29T16:07:23.259Z</time></trkpt><trkpt lat="40.8417047" lon="9.652498"><ele>44.0</ele><time>2026-03-29T16:07:24.266Z</time></trkpt><trkpt lat="40.8417853" lon="9.6524233"><ele>42.6</ele><time>2026-03-29T16:07:25.26Z</time></trkpt><trkpt lat="40.8418603" lon="9.6523493"><ele>41.2</ele><time>2026-03-29T16:07:26.269Z</time></trkpt><trkpt lat="40.8419229" lon="9.652268"><ele>39.800000000000004</ele><time>2026-03-29T16:07:27.262Z</time></trkpt><trkpt lat="40.8419729" lon="9.6521622"><ele>38.400000000000006</ele><time>2026-03-29T16:07:28.272Z</time></trkpt><trkpt lat="40.8420058" lon="9.6520269"><ele>37.0</ele><time>2026-03-29T16:07:29.266Z</time></trkpt><trkpt lat="40.8420227" lon="9.6518621"><ele>35.0</ele><time>2026-03-29T16:07:30.267Z</time></trkpt><trkpt lat="40.8420334" lon="9.6516784"><ele>33.0</ele><time>2026-03-29T16:07:31.265Z</time></trkpt><trkpt lat="40.8420443" lon="9.6514953"><ele>31.0</ele><time>2026-03-29T16:07:32.262Z</time></trkpt><trkpt lat="40.8420652" lon="9.6513215"><ele>29.0</ele><time>2026-03-29T16:07:33.265Z</time></trkpt><trkpt lat="40.842095" lon="9.6511583"><ele>27.5</ele><time>2026-03-29T16:07:34.269Z</time></trkpt><trkpt lat="40.8421166" lon="9.6510121"><ele>26.0</ele><time>2026-03-29T16:07:35.266Z</time></trkpt><trkpt lat="40.8421391" lon="9.650823"><ele>24.5</ele><time>2026-03-29T16:07:36.292Z</time></trkpt><trkpt lat="40.8421398" lon="9.6506369"><ele>23.0</ele><time>2026-03-29T16:07:37.271Z</time></trkpt><trkpt lat="40.8421226" lon="9.65045"><ele>22.25</ele><time>2026-03-29T16:07:38.265Z</time></trkpt><trkpt lat="40.842103" lon="9.6502887"><ele>21.5</ele><time>2026-03-29T16:07:39.274Z</time></trkpt><trkpt lat="40.8420797" lon="9.650118"><ele>20.75</ele><time>2026-03-29T16:07:40.269Z</time></trkpt><trkpt lat="40.8420547" lon="9.6499622"><ele>20.0</ele><time>2026-03-29T16:07:41.289Z</time></trkpt><trkpt lat="40.8420354" lon="9.6498173"><ele>20.0</ele><time>2026-03-29T16:07:42.266Z</time></trkpt><trkpt lat="40.8420195" lon="9.6496713"><ele>20.0</ele><time>2026-03-29T16:07:43.269Z</time></trkpt><trkpt lat="40.8420398" lon="9.6495403"><ele>20.0</ele><time>2026-03-29T16:07:44.268Z</time></trkpt><trkpt lat="40.8421027" lon="9.6494207"><ele>20.0</ele><time>2026-03-29T16:07:45.272Z</time></trkpt><trkpt lat="40.842186" lon="9.6492953"><ele>20.0</ele><time>2026-03-29T16:07:46.267Z</time></trkpt><trkpt lat="40.8423397" lon="9.6492149"><ele>20.0</ele><time>2026-03-29T16:07:47.278Z</time></trkpt><trkpt lat="40.8425209" lon="9.6491219"><ele>20.0</ele><time>2026-03-29T16:07:48.257Z</time></trkpt><trkpt lat="40.8427249" lon="9.6490152"><ele>20.0</ele><time>2026-03-29T16:07:49.269Z</time></trkpt><trkpt lat="40.8429306" lon="9.6489062"><ele>17.5</ele><time>2026-03-29T16:07:50.275Z</time></trkpt><trkpt lat="40.8431412" lon="9.6488094"><ele>15.0</ele><time>2026-03-29T16:07:51.262Z</time></trkpt><trkpt lat="40.8433579" lon="9.6487169"><ele>14.0</ele><time>2026-03-29T16:07:52.266Z</time></trkpt><trkpt lat="40.8435828" lon="9.6486326"><ele>13.0</ele><time>2026-03-29T16:07:53.267Z</time></trkpt><trkpt lat="40.8438203" lon="9.6485536"><ele>13.0</ele><time>2026-03-29T16:07:54.289Z</time></trkpt><trkpt lat="40.8440766" lon="9.6484761"><ele>13.0</ele><time>2026-03-29T16:07:55.264Z</time></trkpt><trkpt lat="40.8443348" lon="9.6484052"><ele>13.0</ele><time>2026-03-29T16:07:56.261Z</time></trkpt><trkpt lat="40.8445675" lon="9.6483446"><ele>13.0</ele><time>2026-03-29T16:07:57.261Z</time></trkpt><trkpt lat="40.8447726" lon="9.6482888"><ele>13.0</ele><time>2026-03-29T16:07:58.263Z</time></trkpt><trkpt lat="40.8449705" lon="9.648234"><ele>12.333333333333332</ele><time>2026-03-29T16:07:59.289Z</time></trkpt><trkpt lat="40.8451671" lon="9.6481782"><ele>11.666666666666666</ele><time>2026-03-29T16:08:00.261Z</time></trkpt><trkpt lat="40.8453598" lon="9.6481242"><ele>11.0</ele><time>2026-03-29T16:08:01.265Z</time></trkpt><trkpt lat="40.8455523" lon="9.6480706"><ele>11.0</ele><time>2026-03-29T16:08:02.261Z</time></trkpt><trkpt lat="40.8457436" lon="9.6480012"><ele>11.0</ele><time>2026-03-29T16:08:03.262Z</time></trkpt><trkpt lat="40.8459454" lon="9.6479529"><ele>11.0</ele><time>2026-03-29T16:08:04.286Z</time></trkpt><trkpt lat="40.8461447" lon="9.647897"><ele>10.333333333333332</ele><time>2026-03-29T16:08:05.268Z</time></trkpt><trkpt lat="40.8463383" lon="9.6478443"><ele>9.666666666666666</ele><time>2026-03-29T16:08:06.263Z</time></trkpt><trkpt lat="40.8465229" lon="9.6477965"><ele>9.0</ele><time>2026-03-29T16:08:07.264Z</time></trkpt><trkpt lat="40.8467082" lon="9.6477456"><ele>9.333333333333334</ele><time>2026-03-29T16:08:08.265Z</time></trkpt><trkpt lat="40.8468955" lon="9.6476944"><ele>9.666666666666668</ele><time>2026-03-29T16:08:09.267Z</time></trkpt><trkpt lat="40.8470881" lon="9.6476412"><ele>10.0</ele><time>2026-03-29T16:08:10.268Z</time></trkpt><trkpt lat="40.8472848" lon="9.6475856"><ele>10.0</ele><time>2026-03-29T16:08:11.269Z</time></trkpt><trkpt lat="40.8474849" lon="9.6475291"><ele>10.0</ele><time>2026-03-29T16:08:12.265Z</time></trkpt><trkpt lat="40.8476922" lon="9.6474723"><ele>10.0</ele><time>2026-03-29T16:08:13.266Z</time></trkpt><trkpt lat="40.8479015" lon="9.6474141"><ele>9.333333333333334</ele><time>2026-03-29T16:08:14.294Z</time></trkpt><trkpt lat="40.8481105" lon="9.6473549"><ele>8.666666666666666</ele><time>2026-03-29T16:08:15.268Z</time></trkpt><trkpt lat="40.8483158" lon="9.6472959"><ele>8.0</ele><time>2026-03-29T16:08:16.266Z</time></trkpt><trkpt lat="40.8485198" lon="9.6472377"><ele>7.0</ele><time>2026-03-29T16:08:17.263Z</time></trkpt><trkpt lat="40.8487197" lon="9.6471812"><ele>6.0</ele><time>2026-03-29T16:08:18.261Z</time></trkpt><trkpt lat="40.8489163" lon="9.6471238"><ele>5.0</ele><time>2026-03-29T16:08:19.259Z</time></trkpt><trkpt lat="40.8491135" lon="9.6470657"><ele>5.0</ele><time>2026-03-29T16:08:20.288Z</time></trkpt><trkpt lat="40.8493102" lon="9.6470071"><ele>5.0</ele><time>2026-03-29T16:08:21.259Z</time></trkpt><trkpt lat="40.8495068" lon="9.6469481"><ele>5.0</ele><time>2026-03-29T16:08:22.262Z</time></trkpt><trkpt lat="40.8497044" lon="9.6468918"><ele>4.666666666666667</ele><time>2026-03-29T16:08:23.262Z</time></trkpt><trkpt lat="40.8499025" lon="9.6468367"><ele>4.333333333333333</ele><time>2026-03-29T16:08:24.259Z</time></trkpt><trkpt lat="40.850101" lon="9.6467807"><ele>4.0</ele><time>2026-03-29T16:08:25.263Z</time></trkpt><trkpt lat="40.8502999" lon="9.6467244"><ele>5.333333333333333</ele><time>2026-03-29T16:08:26.259Z</time></trkpt><trkpt lat="40.8504994" lon="9.6466673"><ele>6.666666666666666</ele><time>2026-03-29T16:08:27.262Z</time></trkpt><trkpt lat="40.8506992" lon="9.6466099"><ele>8.0</ele><time>2026-03-29T16:08:28.261Z</time></trkpt><trkpt lat="40.8508989" lon="9.6465514"><ele>7.666666666666666</ele><time>2026-03-29T16:08:29.254Z</time></trkpt><trkpt lat="40.8510981" lon="9.6464942"><ele>7.333333333333334</ele><time>2026-03-29T16:08:30.264Z</time></trkpt><trkpt lat="40.851297" lon="9.6464378"><ele>7.0</ele><time>2026-03-29T16:08:31.259Z</time></trkpt><trkpt lat="40.8514952" lon="9.6463811"><ele>7.0</ele><time>2026-03-29T16:08:32.261Z</time></trkpt><trkpt lat="40.8516934" lon="9.6463243"><ele>7.0</ele><time>2026-03-29T16:08:33.262Z</time></trkpt><trkpt lat="40.8518915" lon="9.6462674"><ele>7.0</ele><time>2026-03-29T16:08:34.267Z</time></trkpt><trkpt lat="40.8520899" lon="9.6462108"><ele>7.0</ele><time>2026-03-29T16:08:35.266Z</time></trkpt><trkpt lat="40.8522872" lon="9.6461541"><ele>7.0</ele><time>2026-03-29T16:08:36.258Z</time></trkpt><trkpt lat="40.8524851" lon="9.6460979"><ele>7.0</ele><time>2026-03-29T16:08:37.262Z</time></trkpt><trkpt lat="40.8526834" lon="9.6460419"><ele>7.666666666666667</ele><time>2026-03-29T16:08:38.261Z</time></trkpt><trkpt lat="40.8528826" lon="9.6459855"><ele>8.333333333333334</ele><time>2026-03-29T16:08:39.263Z</time></trkpt><trkpt lat="40.8530801" lon="9.6459252"><ele>9.0</ele><time>2026-03-29T16:08:40.261Z</time></trkpt><trkpt lat="40.8532765" lon="9.6458549"><ele>8.333333333333334</ele><time>2026-03-29T16:08:41.263Z</time></trkpt><trkpt lat="40.8534696" lon="9.6457679"><ele>7.666666666666667</ele><time>2026-03-29T16:08:42.258Z</time></trkpt><trkpt lat="40.8536592" lon="9.6456667"><ele>7.0</ele><time>2026-03-29T16:08:43.261Z</time></trkpt><trkpt lat="40.8538463" lon="9.6455554"><ele>7.0</ele><time>2026-03-29T16:08:44.284Z</time></trkpt><trkpt lat="40.8540323" lon="9.6454411"><ele>7.0</ele><time>2026-03-29T16:08:45.262Z</time></trkpt><trkpt lat="40.8542175" lon="9.645326"><ele>7.0</ele><time>2026-03-29T16:08:46.26Z</time></trkpt><trkpt lat="40.8544026" lon="9.6452117"><ele>7.0</ele><time>2026-03-29T16:08:47.263Z</time></trkpt><trkpt lat="40.8545878" lon="9.6450992"><ele>7.0</ele><time>2026-03-29T16:08:48.261Z</time></trkpt><trkpt lat="40.8547735" lon="9.6449882"><ele>7.0</ele><time>2026-03-29T16:08:49.261Z</time></trkpt><trkpt lat="40.8549586" lon="9.6448784"><ele>6.666666666666667</ele><time>2026-03-29T16:08:50.265Z</time></trkpt><trkpt lat="40.8551422" lon="9.6447679"><ele>6.333333333333334</ele><time>2026-03-29T16:08:51.277Z</time></trkpt><trkpt lat="40.8553254" lon="9.6446567"><ele>6.0</ele><time>2026-03-29T16:08:52.265Z</time></trkpt><trkpt lat="40.8555079" lon="9.6445453"><ele>6.666666666666666</ele><time>2026-03-29T16:08:53.259Z</time></trkpt><trkpt lat="40.8556834" lon="9.6444377"><ele>7.333333333333333</ele><time>2026-03-29T16:08:54.265Z</time></trkpt><trkpt lat="40.855847" lon="9.644338"><ele>8.0</ele><time>2026-03-29T16:08:55.259Z</time></trkpt><trkpt lat="40.8560061" lon="9.6442408"><ele>8.0</ele><time>2026-03-29T16:08:56.281Z</time></trkpt><trkpt lat="40.8561666" lon="9.6441437"><ele>8.0</ele><time>2026-03-29T16:08:57.26Z</time></trkpt><trkpt lat="40.856318" lon="9.6440525"><ele>8.0</ele><time>2026-03-29T16:08:58.263Z</time></trkpt><trkpt lat="40.8564557" lon="9.6439692"><ele>8.0</ele><time>2026-03-29T16:08:59.267Z</time></trkpt><trkpt lat="40.8565797" lon="9.6438974"><ele>8.0</ele><time>2026-03-29T16:09:00.264Z</time></trkpt><trkpt lat="40.8566913" lon="9.643844"><ele>8.0</ele><time>2026-03-29T16:09:01.288Z</time></trkpt><trkpt lat="40.8567979" lon="9.6438153"><ele>8.0</ele><time>2026-03-29T16:09:02.265Z</time></trkpt><trkpt lat="40.8568983" lon="9.6438209"><ele>8.0</ele><time>2026-03-29T16:09:03.259Z</time></trkpt><trkpt lat="40.8569889" lon="9.6438285"><ele>8.0</ele><time>2026-03-29T16:09:04.262Z</time></trkpt><trkpt lat="40.857075" lon="9.6438026"><ele>8.0</ele><time>2026-03-29T16:09:05.266Z</time></trkpt><trkpt lat="40.8571486" lon="9.6437404"><ele>8.0</ele><time>2026-03-29T16:09:06.264Z</time></trkpt><trkpt lat="40.8572311" lon="9.6436404"><ele>8.0</ele><time>2026-03-29T16:09:07.278Z</time></trkpt><trkpt lat="40.857338" lon="9.6435229"><ele>9.333333333333332</ele><time>2026-03-29T16:09:08.265Z</time></trkpt><trkpt lat="40.8574694" lon="9.6434069"><ele>10.666666666666666</ele><time>2026-03-29T16:09:09.258Z</time></trkpt><trkpt lat="40.8576086" lon="9.6433001"><ele>12.0</ele><time>2026-03-29T16:09:10.262Z</time></trkpt><trkpt lat="40.8577555" lon="9.6432041"><ele>12.0</ele><time>2026-03-29T16:09:11.261Z</time></trkpt><trkpt lat="40.8579078" lon="9.6431115"><ele>12.0</ele><time>2026-03-29T16:09:12.261Z</time></trkpt><trkpt lat="40.85806" lon="9.6430175"><ele>12.0</ele><time>2026-03-29T16:09:13.259Z</time></trkpt><trkpt lat="40.8582097" lon="9.6429292"><ele>12.0</ele><time>2026-03-29T16:09:14.263Z</time></trkpt><trkpt lat="40.8583584" lon="9.6428454"><ele>12.0</ele><time>2026-03-29T16:09:15.261Z</time></trkpt><trkpt lat="40.8584965" lon="9.6427567"><ele>12.0</ele><time>2026-03-29T16:09:16.258Z</time></trkpt><trkpt lat="40.8586401" lon="9.6426727"><ele>13.0</ele><time>2026-03-29T16:09:17.263Z</time></trkpt><trkpt lat="40.8587874" lon="9.6425909"><ele>14.0</ele><time>2026-03-29T16:09:18.262Z</time></trkpt><trkpt lat="40.8589452" lon="9.6425203"><ele>15.0</ele><time>2026-03-29T16:09:19.259Z</time></trkpt><trkpt lat="40.8591149" lon="9.6424595"><ele>15.333333333333332</ele><time>2026-03-29T16:09:20.282Z</time></trkpt><trkpt lat="40.8593021" lon="9.6424084"><ele>15.666666666666666</ele><time>2026-03-29T16:09:21.27Z</time></trkpt><trkpt lat="40.8595037" lon="9.6423671"><ele>16.0</ele><time>2026-03-29T16:09:22.267Z</time></trkpt><trkpt lat="40.8596958" lon="9.6423342"><ele>16.0</ele><time>2026-03-29T16:09:23.264Z</time></trkpt><trkpt lat="40.8598748" lon="9.642303"><ele>16.0</ele><time>2026-03-29T16:09:24.272Z</time></trkpt><trkpt lat="40.8600409" lon="9.6422731"><ele>16.0</ele><time>2026-03-29T16:09:25.26Z</time></trkpt><trkpt lat="40.860204" lon="9.6422453"><ele>16.333333333333332</ele><time>2026-03-29T16:09:26.262Z</time></trkpt><trkpt lat="40.8603641" lon="9.6422159"><ele>16.666666666666668</ele><time>2026-03-29T16:09:27.263Z</time></trkpt><trkpt lat="40.8605245" lon="9.6421842"><ele>17.0</ele><time>2026-03-29T16:09:28.26Z</time></trkpt><trkpt lat="40.8606809" lon="9.6421574"><ele>17.0</ele><time>2026-03-29T16:09:29.268Z</time></trkpt><trkpt lat="40.8608436" lon="9.642134"><ele>17.0</ele><time>2026-03-29T16:09:30.293Z</time></trkpt><trkpt lat="40.861008" lon="9.6421079"><ele>17.0</ele><time>2026-03-29T16:09:31.266Z</time></trkpt><trkpt lat="40.8611758" lon="9.642077"><ele>18.0</ele><time>2026-03-29T16:09:32.263Z</time></trkpt><trkpt lat="40.8613428" lon="9.6420443"><ele>19.0</ele><time>2026-03-29T16:09:33.264Z</time></trkpt><trkpt lat="40.8615092" lon="9.6420062"><ele>20.0</ele><time>2026-03-29T16:09:34.267Z</time></trkpt><trkpt lat="40.8616715" lon="9.6419607"><ele>21.666666666666668</ele><time>2026-03-29T16:09:35.262Z</time></trkpt><trkpt lat="40.8618255" lon="9.6419084"><ele>23.333333333333336</ele><time>2026-03-29T16:09:36.263Z</time></trkpt><trkpt lat="40.8619777" lon="9.6418519"><ele>25.0</ele><time>2026-03-29T16:09:37.265Z</time></trkpt><trkpt lat="40.8621287" lon="9.6417928"><ele>25.0</ele><time>2026-03-29T16:09:38.269Z</time></trkpt><trkpt lat="40.8622776" lon="9.641735"><ele>25.0</ele><time>2026-03-29T16:09:39.275Z</time></trkpt><trkpt lat="40.8624196" lon="9.6416822"><ele>25.0</ele><time>2026-03-29T16:09:40.262Z</time></trkpt><trkpt lat="40.8625583" lon="9.6416308"><ele>25.0</ele><time>2026-03-29T16:09:41.259Z</time></trkpt><trkpt lat="40.8626964" lon="9.6415779"><ele>23.75</ele><time>2026-03-29T16:09:42.258Z</time></trkpt><trkpt lat="40.8628343" lon="9.641523"><ele>22.5</ele><time>2026-03-29T16:09:43.26Z</time></trkpt><trkpt lat="40.8629727" lon="9.641469"><ele>21.25</ele><time>2026-03-29T16:09:44.269Z</time></trkpt><trkpt lat="40.8631143" lon="9.6414173"><ele>20.0</ele><time>2026-03-29T16:09:45.262Z</time></trkpt><trkpt lat="40.8632589" lon="9.6413747"><ele>20.0</ele><time>2026-03-29T16:09:46.276Z</time></trkpt><trkpt lat="40.8634101" lon="9.6413487"><ele>20.0</ele><time>2026-03-29T16:09:47.263Z</time></trkpt><trkpt lat="40.8635721" lon="9.641341"><ele>20.0</ele><time>2026-03-29T16:09:48.262Z</time></trkpt><trkpt lat="40.8637429" lon="9.6413487"><ele>19.0</ele><time>2026-03-29T16:09:49.259Z</time></trkpt><trkpt lat="40.8639149" lon="9.6413642"><ele>18.0</ele><time>2026-03-29T16:09:50.261Z</time></trkpt><trkpt lat="40.864084" lon="9.641379"><ele>17.0</ele><time>2026-03-29T16:09:51.261Z</time></trkpt><trkpt lat="40.8642477" lon="9.6413947"><ele>16.666666666666668</ele><time>2026-03-29T16:09:52.264Z</time></trkpt><trkpt lat="40.8644031" lon="9.6414119"><ele>16.333333333333332</ele><time>2026-03-29T16:09:53.264Z</time></trkpt><trkpt lat="40.8645624" lon="9.6414297"><ele>16.0</ele><time>2026-03-29T16:09:54.264Z</time></trkpt><trkpt lat="40.8647221" lon="9.6414505"><ele>16.0</ele><time>2026-03-29T16:09:55.264Z</time></trkpt><trkpt lat="40.864883" lon="9.6414665"><ele>16.0</ele><time>2026-03-29T16:09:56.264Z</time></trkpt><trkpt lat="40.865052" lon="9.6414843"><ele>16.0</ele><time>2026-03-29T16:09:57.261Z</time></trkpt><trkpt lat="40.8652232" lon="9.6415035"><ele>14.666666666666666</ele><time>2026-03-29T16:09:58.26Z</time></trkpt><trkpt lat="40.8653915" lon="9.6415218"><ele>13.333333333333332</ele><time>2026-03-29T16:09:59.283Z</time></trkpt><trkpt lat="40.8655578" lon="9.6415408"><ele>12.0</ele><time>2026-03-29T16:10:00.265Z</time></trkpt><trkpt lat="40.865722" lon="9.6415607"><ele>12.0</ele><time>2026-03-29T16:10:01.266Z</time></trkpt><trkpt lat="40.8658851" lon="9.6415782"><ele>12.0</ele><time>2026-03-29T16:10:02.262Z</time></trkpt><trkpt lat="40.8660465" lon="9.6415932"><ele>12.0</ele><time>2026-03-29T16:10:03.263Z</time></trkpt><trkpt lat="40.8662063" lon="9.6416017"><ele>12.0</ele><time>2026-03-29T16:10:04.273Z</time></trkpt><trkpt lat="40.8663672" lon="9.6415916"><ele>12.0</ele><time>2026-03-29T16:10:05.259Z</time></trkpt><trkpt lat="40.8665382" lon="9.6415474"><ele>12.0</ele><time>2026-03-29T16:10:06.261Z</time></trkpt><trkpt lat="40.8667321" lon="9.641476"><ele>10.5</ele><time>2026-03-29T16:10:07.271Z</time></trkpt><trkpt lat="40.8669618" lon="9.641391"><ele>9.0</ele><time>2026-03-29T16:10:08.265Z</time></trkpt><trkpt lat="40.8672264" lon="9.6412925"><ele>9.0</ele><time>2026-03-29T16:10:09.284Z</time></trkpt><trkpt lat="40.8675223" lon="9.6411823"><ele>9.0</ele><time>2026-03-29T16:10:10.262Z</time></trkpt><trkpt lat="40.8678083" lon="9.64108"><ele>8.5</ele><time>2026-03-29T16:10:11.263Z</time></trkpt><trkpt lat="40.8680603" lon="9.6409922"><ele>8.0</ele><time>2026-03-29T16:10:12.258Z</time></trkpt><trkpt lat="40.8682841" lon="9.6409027"><ele>6.5</ele><time>2026-03-29T16:10:13.259Z</time></trkpt><trkpt lat="40.8684943" lon="9.6407875"><ele>5.0</ele><time>2026-03-29T16:10:14.257Z</time></trkpt><trkpt lat="40.8686999" lon="9.6406398"><ele>5.0</ele><time>2026-03-29T16:10:15.261Z</time></trkpt><trkpt lat="40.868914" lon="9.6404632"><ele>5.0</ele><time>2026-03-29T16:10:16.263Z</time></trkpt><trkpt lat="40.8691394" lon="9.6402827"><ele>5.0</ele><time>2026-03-29T16:10:17.285Z</time></trkpt><trkpt lat="40.8693533" lon="9.6401055"><ele>5.0</ele><time>2026-03-29T16:10:18.266Z</time></trkpt><trkpt lat="40.8695508" lon="9.6399307"><ele>5.0</ele><time>2026-03-29T16:10:19.261Z</time></trkpt><trkpt lat="40.8697339" lon="9.6397783"><ele>5.0</ele><time>2026-03-29T16:10:20.265Z</time></trkpt><trkpt lat="40.8698986" lon="9.6396309"><ele>5.0</ele><time>2026-03-29T16:10:21.266Z</time></trkpt><trkpt lat="40.8700303" lon="9.6394848"><ele>5.666666666666667</ele><time>2026-03-29T16:10:22.266Z</time></trkpt><trkpt lat="40.8701348" lon="9.6393086"><ele>6.333333333333334</ele><time>2026-03-29T16:10:23.261Z</time></trkpt><trkpt lat="40.8702145" lon="9.6390926"><ele>7.0</ele><time>2026-03-29T16:10:24.267Z</time></trkpt><trkpt lat="40.8702863" lon="9.6388499"><ele>7.333333333333334</ele><time>2026-03-29T16:10:25.263Z</time></trkpt><trkpt lat="40.8703437" lon="9.6385741"><ele>7.666666666666666</ele><time>2026-03-29T16:10:26.281Z</time></trkpt><trkpt lat="40.8704019" lon="9.6383038"><ele>8.0</ele><time>2026-03-29T16:10:27.262Z</time></trkpt><trkpt lat="40.8704569" lon="9.6380375"><ele>8.666666666666666</ele><time>2026-03-29T16:10:28.269Z</time></trkpt><trkpt lat="40.8705097" lon="9.6377693"><ele>9.333333333333334</ele><time>2026-03-29T16:10:29.267Z</time></trkpt><trkpt lat="40.8705645" lon="9.6374988"><ele>10.0</ele><time>2026-03-29T16:10:30.26Z</time></trkpt><trkpt lat="40.8706224" lon="9.6372232"><ele>10.0</ele><time>2026-03-29T16:10:31.26Z</time></trkpt><trkpt lat="40.8706801" lon="9.636949"><ele>10.0</ele><time>2026-03-29T16:10:32.266Z</time></trkpt><trkpt lat="40.8707448" lon="9.6366775"><ele>10.0</ele><time>2026-03-29T16:10:33.257Z</time></trkpt><trkpt lat="40.8708144" lon="9.6364076"><ele>10.0</ele><time>2026-03-29T16:10:34.269Z</time></trkpt><trkpt lat="40.8708834" lon="9.6361385"><ele>10.0</ele><time>2026-03-29T16:10:35.265Z</time></trkpt><trkpt lat="40.8709517" lon="9.6358703"><ele>10.0</ele><time>2026-03-29T16:10:36.266Z</time></trkpt><trkpt lat="40.8710205" lon="9.6356049"><ele>10.0</ele><time>2026-03-29T16:10:37.265Z</time></trkpt><trkpt lat="40.8710892" lon="9.6353403"><ele>10.0</ele><time>2026-03-29T16:10:38.266Z</time></trkpt><trkpt lat="40.871161" lon="9.6350782"><ele>10.0</ele><time>2026-03-29T16:10:39.26Z</time></trkpt><trkpt lat="40.8712394" lon="9.634818"><ele>10.0</ele><time>2026-03-29T16:10:40.266Z</time></trkpt><trkpt lat="40.871327" lon="9.6345616"><ele>10.0</ele><time>2026-03-29T16:10:41.264Z</time></trkpt><trkpt lat="40.8714236" lon="9.6343084"><ele>10.0</ele><time>2026-03-29T16:10:42.263Z</time></trkpt><trkpt lat="40.8715246" lon="9.6340561"><ele>10.0</ele><time>2026-03-29T16:10:43.262Z</time></trkpt><trkpt lat="40.8716262" lon="9.6338019"><ele>10.0</ele><time>2026-03-29T16:10:44.264Z</time></trkpt><trkpt lat="40.8717288" lon="9.6335465"><ele>10.0</ele><time>2026-03-29T16:10:45.268Z</time></trkpt><trkpt lat="40.8718335" lon="9.633298"><ele>10.0</ele><time>2026-03-29T16:10:46.267Z</time></trkpt><trkpt lat="40.8719539" lon="9.6330384"><ele>10.0</ele><time>2026-03-29T16:10:47.266Z</time></trkpt><trkpt lat="40.8720604" lon="9.6327811"><ele>10.333333333333334</ele><time>2026-03-29T16:10:48.262Z</time></trkpt><trkpt lat="40.8721716" lon="9.6325387"><ele>10.666666666666666</ele><time>2026-03-29T16:10:49.266Z</time></trkpt><trkpt lat="40.8722905" lon="9.6322981"><ele>11.0</ele><time>2026-03-29T16:10:50.27Z</time></trkpt><trkpt lat="40.8724117" lon="9.6320594"><ele>11.333333333333332</ele><time>2026-03-29T16:10:51.269Z</time></trkpt><trkpt lat="40.8725427" lon="9.631825"><ele>11.666666666666666</ele><time>2026-03-29T16:10:52.291Z</time></trkpt><trkpt lat="40.8726828" lon="9.6316056"><ele>12.0</ele><time>2026-03-29T16:10:53.27Z</time></trkpt><trkpt lat="40.8728331" lon="9.6314141"><ele>12.0</ele><time>2026-03-29T16:10:54.269Z</time></trkpt><trkpt lat="40.8729948" lon="9.6312438"><ele>12.0</ele><time>2026-03-29T16:10:55.268Z</time></trkpt><trkpt lat="40.8731639" lon="9.6310853"><ele>12.0</ele><time>2026-03-29T16:10:56.27Z</time></trkpt><trkpt lat="40.8733334" lon="9.6309349"><ele>11.666666666666666</ele><time>2026-03-29T16:10:57.266Z</time></trkpt><trkpt lat="40.8734998" lon="9.6307884"><ele>11.333333333333332</ele><time>2026-03-29T16:10:58.262Z</time></trkpt><trkpt lat="40.8736601" lon="9.630644"><ele>11.0</ele><time>2026-03-29T16:10:59.293Z</time></trkpt><trkpt lat="40.8738149" lon="9.6305023"><ele>11.0</ele><time>2026-03-29T16:11:00.273Z</time></trkpt><trkpt lat="40.8739703" lon="9.6303614"><ele>11.0</ele><time>2026-03-29T16:11:01.268Z</time></trkpt><trkpt lat="40.8741252" lon="9.6302223"><ele>11.0</ele><time>2026-03-29T16:11:02.268Z</time></trkpt><trkpt lat="40.8742825" lon="9.6300834"><ele>11.0</ele><time>2026-03-29T16:11:03.268Z</time></trkpt><trkpt lat="40.8744392" lon="9.6299444"><ele>11.0</ele><time>2026-03-29T16:11:04.272Z</time></trkpt><trkpt lat="40.874594" lon="9.6298064"><ele>11.0</ele><time>2026-03-29T16:11:05.269Z</time></trkpt><trkpt lat="40.8747391" lon="9.6296747"><ele>11.0</ele><time>2026-03-29T16:11:06.277Z</time></trkpt><trkpt lat="40.8748728" lon="9.6295541"><ele>11.0</ele><time>2026-03-29T16:11:07.269Z</time></trkpt><trkpt lat="40.8749904" lon="9.6294505"><ele>11.0</ele><time>2026-03-29T16:11:08.271Z</time></trkpt><trkpt lat="40.8750986" lon="9.6293618"><ele>11.0</ele><time>2026-03-29T16:11:09.265Z</time></trkpt><trkpt lat="40.875186" lon="9.629292"><ele>11.166666666666666</ele><time>2026-03-29T16:11:10.262Z</time></trkpt><trkpt lat="40.8752609" lon="9.6292396"><ele>11.333333333333332</ele><time>2026-03-29T16:11:11.273Z</time></trkpt><trkpt lat="40.8753284" lon="9.6292035"><ele>11.5</ele><time>2026-03-29T16:11:12.268Z</time></trkpt><trkpt lat="40.875398" lon="9.6291913"><ele>11.666666666666666</ele><time>2026-03-29T16:11:14.265Z</time></trkpt><trkpt lat="40.8754847" lon="9.629237"><ele>11.833333333333334</ele><time>2026-03-29T16:11:16.267Z</time></trkpt><trkpt lat="40.8755968" lon="9.6292243"><ele>12.0</ele><time>2026-03-29T16:11:18.29Z</time></trkpt><trkpt lat="40.8756882" lon="9.6291891"><ele>12.0</ele><time>2026-03-29T16:11:20.267Z</time></trkpt><trkpt lat="40.8757463" lon="9.6291439"><ele>12.0</ele><time>2026-03-29T16:11:22.268Z</time></trkpt><trkpt lat="40.8758032" lon="9.6290749"><ele>12.0</ele><time>2026-03-29T16:13:39.272Z</time></trkpt><trkpt lat="40.8758477" lon="9.6289471"><ele>12.0</ele><time>2026-03-29T16:13:41.28Z</time></trkpt><trkpt lat="40.8758908" lon="9.6288428"><ele>12.0</ele><time>2026-03-29T16:13:42.266Z</time></trkpt><trkpt lat="40.8759555" lon="9.6287193"><ele>13.666666666666668</ele><time>2026-03-29T16:13:43.273Z</time></trkpt><trkpt lat="40.8760419" lon="9.6285863"><ele>15.333333333333334</ele><time>2026-03-29T16:13:44.269Z</time></trkpt><trkpt lat="40.8761556" lon="9.6284429"><ele>17.0</ele><time>2026-03-29T16:13:45.267Z</time></trkpt><trkpt lat="40.8762908" lon="9.628302"><ele>17.0</ele><time>2026-03-29T16:13:46.263Z</time></trkpt><trkpt lat="40.8764262" lon="9.6281621"><ele>17.0</ele><time>2026-03-29T16:13:47.266Z</time></trkpt><trkpt lat="40.8765623" lon="9.6280283"><ele>17.0</ele><time>2026-03-29T16:13:48.261Z</time></trkpt><trkpt lat="40.8766853" lon="9.6278823"><ele>17.0</ele><time>2026-03-29T16:13:49.262Z</time></trkpt><trkpt lat="40.8767862" lon="9.6277182"><ele>17.0</ele><time>2026-03-29T16:13:50.278Z</time></trkpt><trkpt lat="40.8768667" lon="9.6275213"><ele>17.0</ele><time>2026-03-29T16:13:51.261Z</time></trkpt><trkpt lat="40.876921" lon="9.6273071"><ele>17.0</ele><time>2026-03-29T16:13:52.28Z</time></trkpt><trkpt lat="40.8769442" lon="9.6270879"><ele>17.0</ele><time>2026-03-29T16:13:53.261Z</time></trkpt><trkpt lat="40.8769315" lon="9.6268637"><ele>17.0</ele><time>2026-03-29T16:13:54.265Z</time></trkpt><trkpt lat="40.8768996" lon="9.6266371"><ele>15.333333333333334</ele><time>2026-03-29T16:13:55.257Z</time></trkpt><trkpt lat="40.876833" lon="9.6264289"><ele>13.666666666666668</ele><time>2026-03-29T16:13:56.257Z</time></trkpt><trkpt lat="40.8767827" lon="9.6262229"><ele>12.0</ele><time>2026-03-29T16:13:57.257Z</time></trkpt><trkpt lat="40.8767731" lon="9.6260028"><ele>12.0</ele><time>2026-03-29T16:13:58.273Z</time></trkpt><trkpt lat="40.8768065" lon="9.6257719"><ele>12.0</ele><time>2026-03-29T16:13:59.27Z</time></trkpt><trkpt lat="40.8768698" lon="9.6255194"><ele>12.0</ele><time>2026-03-29T16:14:00.263Z</time></trkpt><trkpt lat="40.8769575" lon="9.6252503"><ele>13.0</ele><time>2026-03-29T16:14:01.278Z</time></trkpt><trkpt lat="40.8770554" lon="9.6249725"><ele>14.0</ele><time>2026-03-29T16:14:02.269Z</time></trkpt><trkpt lat="40.8771519" lon="9.6246909"><ele>14.0</ele><time>2026-03-29T16:14:03.275Z</time></trkpt><trkpt lat="40.8772494" lon="9.6244183"><ele>14.0</ele><time>2026-03-29T16:14:04.274Z</time></trkpt><trkpt lat="40.877347" lon="9.6241548"><ele>14.0</ele><time>2026-03-29T16:14:05.265Z</time></trkpt><trkpt lat="40.8774453" lon="9.6238973"><ele>14.0</ele><time>2026-03-29T16:14:06.266Z</time></trkpt><trkpt lat="40.8775387" lon="9.6236397"><ele>14.0</ele><time>2026-03-29T16:14:07.268Z</time></trkpt><trkpt lat="40.8776234" lon="9.6233741"><ele>13.0</ele><time>2026-03-29T16:14:08.279Z</time></trkpt><trkpt lat="40.8776951" lon="9.6231007"><ele>12.0</ele><time>2026-03-29T16:14:09.268Z</time></trkpt><trkpt lat="40.8777537" lon="9.622817"><ele>11.0</ele><time>2026-03-29T16:14:10.267Z</time></trkpt><trkpt lat="40.8778066" lon="9.6225277"><ele>11.0</ele><time>2026-03-29T16:14:11.263Z</time></trkpt><trkpt lat="40.8778587" lon="9.6222357"><ele>11.0</ele><time>2026-03-29T16:14:12.265Z</time></trkpt><trkpt lat="40.877907" lon="9.621942"><ele>12.333333333333332</ele><time>2026-03-29T16:14:13.261Z</time></trkpt><trkpt lat="40.87795" lon="9.6216562"><ele>13.666666666666666</ele><time>2026-03-29T16:14:14.27Z</time></trkpt><trkpt lat="40.8779646" lon="9.6213641"><ele>15.0</ele><time>2026-03-29T16:14:15.268Z</time></trkpt><trkpt lat="40.8779564" lon="9.6210731"><ele>16.0</ele><time>2026-03-29T16:14:16.276Z</time></trkpt><trkpt lat="40.8779275" lon="9.6207873"><ele>17.0</ele><time>2026-03-29T16:14:17.269Z</time></trkpt><trkpt lat="40.8778746" lon="9.6205169"><ele>18.0</ele><time>2026-03-29T16:14:18.268Z</time></trkpt><trkpt lat="40.8777986" lon="9.62026"><ele>17.666666666666668</ele><time>2026-03-29T16:14:19.264Z</time></trkpt><trkpt lat="40.8777114" lon="9.6200117"><ele>17.333333333333336</ele><time>2026-03-29T16:14:20.271Z</time></trkpt><trkpt lat="40.877632" lon="9.6197818"><ele>17.0</ele><time>2026-03-29T16:14:21.276Z</time></trkpt><trkpt lat="40.8775711" lon="9.6195707"><ele>19.0</ele><time>2026-03-29T16:14:22.27Z</time></trkpt><trkpt lat="40.8775394" lon="9.6193624"><ele>21.0</ele><time>2026-03-29T16:14:23.266Z</time></trkpt><trkpt lat="40.8775224" lon="9.6191488"><ele>23.0</ele><time>2026-03-29T16:14:24.268Z</time></trkpt><trkpt lat="40.8775606" lon="9.6189143"><ele>26.0</ele><time>2026-03-29T16:14:25.262Z</time></trkpt><trkpt lat="40.8776085" lon="9.6186773"><ele>29.0</ele><time>2026-03-29T16:14:26.268Z</time></trkpt><trkpt lat="40.877665" lon="9.6184483"><ele>32.0</ele><time>2026-03-29T16:14:27.264Z</time></trkpt><trkpt lat="40.877719" lon="9.618226"><ele>32.33333333333333</ele><time>2026-03-29T16:14:28.265Z</time></trkpt><trkpt lat="40.8777935" lon="9.6180094"><ele>32.666666666666664</ele><time>2026-03-29T16:14:29.266Z</time></trkpt><trkpt lat="40.8778805" lon="9.6178082"><ele>33.0</ele><time>2026-03-29T16:14:30.272Z</time></trkpt><trkpt lat="40.8779672" lon="9.617604"><ele>33.333333333333336</ele><time>2026-03-29T16:14:31.261Z</time></trkpt><trkpt lat="40.8780466" lon="9.6173899"><ele>33.66666666666667</ele><time>2026-03-29T16:14:32.269Z</time></trkpt><trkpt lat="40.8781236" lon="9.6171605"><ele>34.0</ele><time>2026-03-29T16:14:33.267Z</time></trkpt><trkpt lat="40.8781923" lon="9.6169262"><ele>34.333333333333336</ele><time>2026-03-29T16:14:34.262Z</time></trkpt><trkpt lat="40.8782456" lon="9.6166817"><ele>34.666666666666664</ele><time>2026-03-29T16:14:35.273Z</time></trkpt><trkpt lat="40.8782792" lon="9.6164301"><ele>35.0</ele><time>2026-03-29T16:14:36.264Z</time></trkpt><trkpt lat="40.8782973" lon="9.6161759"><ele>36.0</ele><time>2026-03-29T16:14:37.264Z</time></trkpt><trkpt lat="40.8783107" lon="9.6159409"><ele>37.0</ele><time>2026-03-29T16:14:38.269Z</time></trkpt><trkpt lat="40.8783289" lon="9.6157224"><ele>38.0</ele><time>2026-03-29T16:14:39.268Z</time></trkpt><trkpt lat="40.8783643" lon="9.6155178"><ele>38.0</ele><time>2026-03-29T16:14:40.274Z</time></trkpt><trkpt lat="40.8784285" lon="9.6153308"><ele>38.0</ele><time>2026-03-29T16:14:41.262Z</time></trkpt><trkpt lat="40.8785216" lon="9.6151681"><ele>38.0</ele><time>2026-03-29T16:14:42.267Z</time></trkpt><trkpt lat="40.8786407" lon="9.6150226"><ele>40.0</ele><time>2026-03-29T16:14:43.277Z</time></trkpt><trkpt lat="40.8787634" lon="9.6148881"><ele>42.0</ele><time>2026-03-29T16:14:44.267Z</time></trkpt><trkpt lat="40.8788636" lon="9.6147517"><ele>44.0</ele><time>2026-03-29T16:14:45.275Z</time></trkpt><trkpt lat="40.8789563" lon="9.6146"><ele>45.666666666666664</ele><time>2026-03-29T16:14:46.267Z</time></trkpt><trkpt lat="40.8790202" lon="9.6144122"><ele>47.33333333333333</ele><time>2026-03-29T16:14:47.26Z</time></trkpt><trkpt lat="40.8790801" lon="9.6142124"><ele>49.0</ele><time>2026-03-29T16:14:48.269Z</time></trkpt><trkpt lat="40.8791273" lon="9.6140167"><ele>49.0</ele><time>2026-03-29T16:14:49.268Z</time></trkpt><trkpt lat="40.879172" lon="9.6138285"><ele>49.0</ele><time>2026-03-29T16:14:50.267Z</time></trkpt><trkpt lat="40.8792174" lon="9.6136395"><ele>49.0</ele><time>2026-03-29T16:14:51.273Z</time></trkpt><trkpt lat="40.8792602" lon="9.6134557"><ele>49.0</ele><time>2026-03-29T16:14:52.282Z</time></trkpt><trkpt lat="40.8792969" lon="9.6132687"><ele>50.666666666666664</ele><time>2026-03-29T16:14:53.272Z</time></trkpt><trkpt lat="40.8793285" lon="9.6130589"><ele>52.33333333333333</ele><time>2026-03-29T16:14:54.275Z</time></trkpt><trkpt lat="40.8793512" lon="9.6127982"><ele>54.0</ele><time>2026-03-29T16:14:55.276Z</time></trkpt><trkpt lat="40.8793843" lon="9.6124973"><ele>54.0</ele><time>2026-03-29T16:14:56.293Z</time></trkpt><trkpt lat="40.8794383" lon="9.6121741"><ele>54.0</ele><time>2026-03-29T16:14:57.264Z</time></trkpt><trkpt lat="40.8795012" lon="9.6118605"><ele>52.5</ele><time>2026-03-29T16:14:58.277Z</time></trkpt><trkpt lat="40.87957" lon="9.6115501"><ele>51.0</ele><time>2026-03-29T16:14:59.263Z</time></trkpt><trkpt lat="40.8796368" lon="9.6112408"><ele>50.5</ele><time>2026-03-29T16:15:00.277Z</time></trkpt><trkpt lat="40.8796996" lon="9.6109408"><ele>50.0</ele><time>2026-03-29T16:15:01.279Z</time></trkpt><trkpt lat="40.8797608" lon="9.6106449"><ele>50.0</ele><time>2026-03-29T16:15:02.284Z</time></trkpt><trkpt lat="40.8798279" lon="9.6103516"><ele>50.0</ele><time>2026-03-29T16:15:03.282Z</time></trkpt><trkpt lat="40.8798949" lon="9.6100628"><ele>50.333333333333336</ele><time>2026-03-29T16:15:04.294Z</time></trkpt><trkpt lat="40.8799606" lon="9.6097873"><ele>50.66666666666667</ele><time>2026-03-29T16:15:05.278Z</time></trkpt><trkpt lat="40.8800218" lon="9.6095146"><ele>51.0</ele><time>2026-03-29T16:15:06.28Z</time></trkpt><trkpt lat="40.8800839" lon="9.6092512"><ele>49.333333333333336</ele><time>2026-03-29T16:15:07.265Z</time></trkpt><trkpt lat="40.8801442" lon="9.6090038"><ele>47.66666666666667</ele><time>2026-03-29T16:15:08.27Z</time></trkpt><trkpt lat="40.8802008" lon="9.6087701"><ele>46.0</ele><time>2026-03-29T16:15:09.261Z</time></trkpt><trkpt lat="40.8802703" lon="9.6085529"><ele>45.0</ele><time>2026-03-29T16:15:10.276Z</time></trkpt><trkpt lat="40.8803524" lon="9.6083455"><ele>44.0</ele><time>2026-03-29T16:15:11.273Z</time></trkpt><trkpt lat="40.8804394" lon="9.6081424"><ele>43.0</ele><time>2026-03-29T16:15:12.276Z</time></trkpt><trkpt lat="40.8805176" lon="9.6079532"><ele>42.66666666666667</ele><time>2026-03-29T16:15:13.284Z</time></trkpt><trkpt lat="40.8805882" lon="9.6077667"><ele>42.333333333333336</ele><time>2026-03-29T16:15:14.277Z</time></trkpt><trkpt lat="40.8806535" lon="9.6075796"><ele>42.0</ele><time>2026-03-29T16:15:15.262Z</time></trkpt><trkpt lat="40.8807072" lon="9.6073777"><ele>42.0</ele><time>2026-03-29T16:15:16.278Z</time></trkpt><trkpt lat="40.8807403" lon="9.6071602"><ele>42.0</ele><time>2026-03-29T16:15:17.264Z</time></trkpt><trkpt lat="40.880757" lon="9.6069198"><ele>42.0</ele><time>2026-03-29T16:15:18.301Z</time></trkpt><trkpt lat="40.880764" lon="9.6066689"><ele>41.666666666666664</ele><time>2026-03-29T16:15:19.264Z</time></trkpt><trkpt lat="40.8807675" lon="9.6064161"><ele>41.33333333333333</ele><time>2026-03-29T16:15:20.262Z</time></trkpt><trkpt lat="40.8807716" lon="9.6061689"><ele>41.0</ele><time>2026-03-29T16:15:21.262Z</time></trkpt><trkpt lat="40.8807736" lon="9.60592"><ele>40.33333333333333</ele><time>2026-03-29T16:15:22.278Z</time></trkpt><trkpt lat="40.8807723" lon="9.6056812"><ele>39.666666666666664</ele><time>2026-03-29T16:15:23.271Z</time></trkpt><trkpt lat="40.8807772" lon="9.6054322"><ele>39.0</ele><time>2026-03-29T16:15:24.281Z</time></trkpt><trkpt lat="40.8807747" lon="9.6051622"><ele>38.0</ele><time>2026-03-29T16:15:25.275Z</time></trkpt><trkpt lat="40.8807769" lon="9.6049236"><ele>37.0</ele><time>2026-03-29T16:15:26.266Z</time></trkpt><trkpt lat="40.8807791" lon="9.6046802"><ele>36.0</ele><time>2026-03-29T16:15:27.27Z</time></trkpt><trkpt lat="40.8807681" lon="9.60443"><ele>35.333333333333336</ele><time>2026-03-29T16:15:28.278Z</time></trkpt><trkpt lat="40.8807362" lon="9.6041873"><ele>34.66666666666667</ele><time>2026-03-29T16:15:29.304Z</time></trkpt><trkpt lat="40.8806812" lon="9.6039447"><ele>34.0</ele><time>2026-03-29T16:15:30.282Z</time></trkpt><trkpt lat="40.8806151" lon="9.6037093"><ele>34.333333333333336</ele><time>2026-03-29T16:15:31.265Z</time></trkpt><trkpt lat="40.8805518" lon="9.603475"><ele>34.666666666666664</ele><time>2026-03-29T16:15:32.283Z</time></trkpt><trkpt lat="40.8804982" lon="9.6032417"><ele>35.0</ele><time>2026-03-29T16:15:33.275Z</time></trkpt><trkpt lat="40.8804701" lon="9.6030023"><ele>34.666666666666664</ele><time>2026-03-29T16:15:34.289Z</time></trkpt><trkpt lat="40.88046" lon="9.6027515"><ele>34.333333333333336</ele><time>2026-03-29T16:15:35.27Z</time></trkpt><trkpt lat="40.8804597" lon="9.6024982"><ele>34.0</ele><time>2026-03-29T16:15:36.276Z</time></trkpt><trkpt lat="40.8804592" lon="9.6022417"><ele>34.0</ele><time>2026-03-29T16:15:37.273Z</time></trkpt><trkpt lat="40.8804583" lon="9.60198"><ele>34.0</ele><time>2026-03-29T16:15:38.273Z</time></trkpt><trkpt lat="40.8804543" lon="9.6017128"><ele>34.0</ele><time>2026-03-29T16:15:39.267Z</time></trkpt><trkpt lat="40.8804485" lon="9.6014422"><ele>34.0</ele><time>2026-03-29T16:15:40.271Z</time></trkpt><trkpt lat="40.8804479" lon="9.6011692"><ele>34.0</ele><time>2026-03-29T16:15:41.287Z</time></trkpt><trkpt lat="40.8804492" lon="9.6008999"><ele>34.0</ele><time>2026-03-29T16:15:42.272Z</time></trkpt><trkpt lat="40.880467" lon="9.6006334"><ele>33.66666666666667</ele><time>2026-03-29T16:15:43.277Z</time></trkpt><trkpt lat="40.8805057" lon="9.6003673"><ele>33.333333333333336</ele><time>2026-03-29T16:15:44.277Z</time></trkpt><trkpt lat="40.8805619" lon="9.6000979"><ele>33.0</ele><time>2026-03-29T16:15:45.272Z</time></trkpt><trkpt lat="40.8806269" lon="9.5998231"><ele>33.333333333333336</ele><time>2026-03-29T16:15:46.261Z</time></trkpt><trkpt lat="40.88071" lon="9.5995592"><ele>33.66666666666667</ele><time>2026-03-29T16:15:47.283Z</time></trkpt><trkpt lat="40.8808186" lon="9.5993131"><ele>34.0</ele><time>2026-03-29T16:15:48.26Z</time></trkpt><trkpt lat="40.88095" lon="9.5990829"><ele>34.0</ele><time>2026-03-29T16:15:49.266Z</time></trkpt><trkpt lat="40.8810981" lon="9.5988579"><ele>34.0</ele><time>2026-03-29T16:15:50.267Z</time></trkpt><trkpt lat="40.8812522" lon="9.5986326"><ele>34.0</ele><time>2026-03-29T16:15:51.265Z</time></trkpt><trkpt lat="40.8814034" lon="9.5984152"><ele>34.0</ele><time>2026-03-29T16:15:52.261Z</time></trkpt><trkpt lat="40.8815527" lon="9.5981982"><ele>34.0</ele><time>2026-03-29T16:15:53.261Z</time></trkpt><trkpt lat="40.8817026" lon="9.5979777"><ele>33.66666666666667</ele><time>2026-03-29T16:15:54.266Z</time></trkpt><trkpt lat="40.8818516" lon="9.5977587"><ele>33.333333333333336</ele><time>2026-03-29T16:15:55.264Z</time></trkpt><trkpt lat="40.8819941" lon="9.5975504"><ele>33.0</ele><time>2026-03-29T16:15:56.266Z</time></trkpt><trkpt lat="40.8821271" lon="9.5973572"><ele>33.0</ele><time>2026-03-29T16:15:57.264Z</time></trkpt><trkpt lat="40.8822464" lon="9.5971935"><ele>33.0</ele><time>2026-03-29T16:15:58.264Z</time></trkpt><trkpt lat="40.8823525" lon="9.5970651"><ele>33.0</ele><time>2026-03-29T16:15:59.268Z</time></trkpt><trkpt lat="40.8824512" lon="9.5969795"><ele>33.0</ele><time>2026-03-29T16:16:00.266Z</time></trkpt><trkpt lat="40.8825527" lon="9.5969121"><ele>32.5</ele><time>2026-03-29T16:16:01.265Z</time></trkpt><trkpt lat="40.8826694" lon="9.5969318"><ele>32.0</ele><time>2026-03-29T16:16:02.273Z</time></trkpt><trkpt lat="40.882796" lon="9.5970034"><ele>31.5</ele><time>2026-03-29T16:16:03.273Z</time></trkpt><trkpt lat="40.8829287" lon="9.5970749"><ele>31.0</ele><time>2026-03-29T16:16:04.261Z</time></trkpt><trkpt lat="40.8830644" lon="9.5971107"><ele>31.0</ele><time>2026-03-29T16:16:05.288Z</time></trkpt><trkpt lat="40.8832014" lon="9.5970905"><ele>31.0</ele><time>2026-03-29T16:16:06.265Z</time></trkpt><trkpt lat="40.8833422" lon="9.5970313"><ele>31.0</ele><time>2026-03-29T16:16:07.261Z</time></trkpt><trkpt lat="40.8835023" lon="9.5969553"><ele>27.0</ele><time>2026-03-29T16:16:08.262Z</time></trkpt><trkpt lat="40.8836843" lon="9.5968582"><ele>23.0</ele><time>2026-03-29T16:16:09.264Z</time></trkpt><trkpt lat="40.8838791" lon="9.5967879"><ele>19.0</ele><time>2026-03-29T16:16:10.266Z</time></trkpt><trkpt lat="40.8841184" lon="9.5967594"><ele>17.5</ele><time>2026-03-29T16:16:11.263Z</time></trkpt><trkpt lat="40.8843459" lon="9.5966859"><ele>16.0</ele><time>2026-03-29T16:16:12.264Z</time></trkpt><trkpt lat="40.8845596" lon="9.5966057"><ele>16.0</ele><time>2026-03-29T16:16:13.269Z</time></trkpt><trkpt lat="40.8847355" lon="9.5965044"><ele>16.0</ele><time>2026-03-29T16:16:14.264Z</time></trkpt><trkpt lat="40.884889" lon="9.5964168"><ele>16.0</ele><time>2026-03-29T16:16:15.268Z</time></trkpt><trkpt lat="40.8850182" lon="9.5963019"><ele>15.0</ele><time>2026-03-29T16:16:16.264Z</time></trkpt><trkpt lat="40.8851162" lon="9.5961324"><ele>14.0</ele><time>2026-03-29T16:16:17.269Z</time></trkpt><trkpt lat="40.8851925" lon="9.5959233"><ele>13.0</ele><time>2026-03-29T16:16:18.267Z</time></trkpt><trkpt lat="40.8852722" lon="9.5956679"><ele>13.0</ele><time>2026-03-29T16:16:19.266Z</time></trkpt><trkpt lat="40.8853505" lon="9.595397"><ele>13.0</ele><time>2026-03-29T16:16:20.275Z</time></trkpt><trkpt lat="40.8854474" lon="9.595144"><ele>13.0</ele><time>2026-03-29T16:16:21.266Z</time></trkpt><trkpt lat="40.8855359" lon="9.5949095"><ele>13.0</ele><time>2026-03-29T16:16:22.273Z</time></trkpt><trkpt lat="40.8856341" lon="9.5946889"><ele>13.0</ele><time>2026-03-29T16:16:23.265Z</time></trkpt><trkpt lat="40.8857385" lon="9.5944733"><ele>13.0</ele><time>2026-03-29T16:16:24.269Z</time></trkpt><trkpt lat="40.8858387" lon="9.5942619"><ele>13.333333333333332</ele><time>2026-03-29T16:16:25.265Z</time></trkpt><trkpt lat="40.8859325" lon="9.5940648"><ele>13.666666666666668</ele><time>2026-03-29T16:16:26.264Z</time></trkpt><trkpt lat="40.8860203" lon="9.5938816"><ele>14.0</ele><time>2026-03-29T16:16:27.272Z</time></trkpt><trkpt lat="40.8861026" lon="9.5937055"><ele>14.0</ele><time>2026-03-29T16:16:28.266Z</time></trkpt><trkpt lat="40.886187" lon="9.5935359"><ele>14.0</ele><time>2026-03-29T16:16:29.274Z</time></trkpt><trkpt lat="40.8862707" lon="9.5933648"><ele>14.0</ele><time>2026-03-29T16:16:30.272Z</time></trkpt><trkpt lat="40.8863533" lon="9.5931948"><ele>14.0</ele><time>2026-03-29T16:16:31.271Z</time></trkpt><trkpt lat="40.8864361" lon="9.5930239"><ele>14.0</ele><time>2026-03-29T16:16:32.269Z</time></trkpt><trkpt lat="40.88652" lon="9.5928519"><ele>14.0</ele><time>2026-03-29T16:16:33.269Z</time></trkpt><trkpt lat="40.8866054" lon="9.5926699"><ele>13.666666666666668</ele><time>2026-03-29T16:16:34.266Z</time></trkpt><trkpt lat="40.8866918" lon="9.5924815"><ele>13.333333333333332</ele><time>2026-03-29T16:16:35.271Z</time></trkpt><trkpt lat="40.8867764" lon="9.5923"><ele>13.0</ele><time>2026-03-29T16:16:36.274Z</time></trkpt><trkpt lat="40.8868562" lon="9.5921284"><ele>12.75</ele><time>2026-03-29T16:16:37.265Z</time></trkpt><trkpt lat="40.8869365" lon="9.5919601"><ele>12.5</ele><time>2026-03-29T16:16:38.289Z</time></trkpt><trkpt lat="40.8870161" lon="9.5917954"><ele>12.25</ele><time>2026-03-29T16:16:39.268Z</time></trkpt><trkpt lat="40.8870983" lon="9.5916363"><ele>12.0</ele><time>2026-03-29T16:16:40.265Z</time></trkpt><trkpt lat="40.8871749" lon="9.591487"><ele>12.0</ele><time>2026-03-29T16:16:41.273Z</time></trkpt><trkpt lat="40.8872452" lon="9.591346"><ele>12.0</ele><time>2026-03-29T16:16:42.273Z</time></trkpt><trkpt lat="40.8873101" lon="9.5912148"><ele>12.0</ele><time>2026-03-29T16:16:43.282Z</time></trkpt><trkpt lat="40.8873708" lon="9.5910908"><ele>12.0</ele><time>2026-03-29T16:16:44.268Z</time></trkpt><trkpt lat="40.8874278" lon="9.5909727"><ele>12.2</ele><time>2026-03-29T16:16:45.272Z</time></trkpt><trkpt lat="40.8874876" lon="9.5908532"><ele>12.399999999999999</ele><time>2026-03-29T16:16:46.273Z</time></trkpt><trkpt lat="40.8875483" lon="9.5907333"><ele>12.600000000000001</ele><time>2026-03-29T16:16:47.267Z</time></trkpt><trkpt lat="40.8876111" lon="9.5906121"><ele>12.8</ele><time>2026-03-29T16:16:48.29Z</time></trkpt><trkpt lat="40.8876796" lon="9.5904896"><ele>13.0</ele><time>2026-03-29T16:16:49.266Z</time></trkpt><trkpt lat="40.8877569" lon="9.5903384"><ele>12.0</ele><time>2026-03-29T16:16:50.274Z</time></trkpt><trkpt lat="40.8878624" lon="9.5901803"><ele>11.0</ele><time>2026-03-29T16:16:51.268Z</time></trkpt><trkpt lat="40.887976" lon="9.5900269"><ele>10.0</ele><time>2026-03-29T16:16:52.275Z</time></trkpt><trkpt lat="40.8880741" lon="9.5898845"><ele>10.0</ele><time>2026-03-29T16:16:53.266Z</time></trkpt><trkpt lat="40.8881749" lon="9.5897444"><ele>10.0</ele><time>2026-03-29T16:16:54.271Z</time></trkpt><trkpt lat="40.8882681" lon="9.589612"><ele>10.0</ele><time>2026-03-29T16:16:55.274Z</time></trkpt><trkpt lat="40.8883491" lon="9.5894905"><ele>10.0</ele><time>2026-03-29T16:16:56.271Z</time></trkpt><trkpt lat="40.8884268" lon="9.5893774"><ele>10.0</ele><time>2026-03-29T16:16:57.269Z</time></trkpt><trkpt lat="40.8884891" lon="9.5892809"><ele>10.0</ele><time>2026-03-29T16:16:58.286Z</time></trkpt><trkpt lat="40.8885478" lon="9.5892003"><ele>10.0</ele><time>2026-03-29T16:16:59.272Z</time></trkpt><trkpt lat="40.8886001" lon="9.5891321"><ele>10.0</ele><time>2026-03-29T16:17:00.272Z</time></trkpt><trkpt lat="40.8886586" lon="9.5890821"><ele>10.0</ele><time>2026-03-29T16:17:01.267Z</time></trkpt><trkpt lat="40.888723" lon="9.5890376"><ele>10.0</ele><time>2026-03-29T16:17:02.265Z</time></trkpt><trkpt lat="40.8887977" lon="9.589023"><ele>10.0</ele><time>2026-03-29T16:17:03.269Z</time></trkpt><trkpt lat="40.888865" lon="9.5889968"><ele>10.0</ele><time>2026-03-29T16:17:04.272Z</time></trkpt><trkpt lat="40.8889244" lon="9.5889361"><ele>10.0</ele><time>2026-03-29T16:17:05.294Z</time></trkpt><trkpt lat="40.8889658" lon="9.5888476"><ele>10.0</ele><time>2026-03-29T16:17:06.273Z</time></trkpt><trkpt lat="40.8889777" lon="9.5887512"><ele>10.0</ele><time>2026-03-29T16:17:07.278Z</time></trkpt><trkpt lat="40.8889855" lon="9.5886582"><ele>10.0</ele><time>2026-03-29T16:17:08.274Z</time></trkpt><trkpt lat="40.8890075" lon="9.5885732"><ele>10.0</ele><time>2026-03-29T16:17:09.266Z</time></trkpt><trkpt lat="40.8890469" lon="9.5884863"><ele>10.0</ele><time>2026-03-29T16:17:10.283Z</time></trkpt><trkpt lat="40.8890998" lon="9.5883835"><ele>10.0</ele><time>2026-03-29T16:17:11.269Z</time></trkpt><trkpt lat="40.8891659" lon="9.5882631"><ele>10.0</ele><time>2026-03-29T16:17:12.272Z</time></trkpt><trkpt lat="40.8892444" lon="9.5881342"><ele>10.0</ele><time>2026-03-29T16:17:13.269Z</time></trkpt><trkpt lat="40.8893465" lon="9.5879832"><ele>10.0</ele><time>2026-03-29T16:17:14.273Z</time></trkpt><trkpt lat="40.8894484" lon="9.5878148"><ele>10.0</ele><time>2026-03-29T16:17:15.288Z</time></trkpt><trkpt lat="40.8895612" lon="9.5876328"><ele>10.0</ele><time>2026-03-29T16:17:16.271Z</time></trkpt><trkpt lat="40.8896699" lon="9.5874272"><ele>10.0</ele><time>2026-03-29T16:17:17.269Z</time></trkpt><trkpt lat="40.889776" lon="9.5872087"><ele>10.0</ele><time>2026-03-29T16:17:18.266Z</time></trkpt><trkpt lat="40.8898829" lon="9.5869861"><ele>10.0</ele><time>2026-03-29T16:17:19.266Z</time></trkpt><trkpt lat="40.8899885" lon="9.5867538"><ele>9.666666666666668</ele><time>2026-03-29T16:17:20.282Z</time></trkpt><trkpt lat="40.8900933" lon="9.5865164"><ele>9.333333333333334</ele><time>2026-03-29T16:17:21.266Z</time></trkpt><trkpt lat="40.8901976" lon="9.5862798"><ele>9.0</ele><time>2026-03-29T16:17:22.27Z</time></trkpt><trkpt lat="40.8902996" lon="9.5860434"><ele>9.0</ele><time>2026-03-29T16:17:23.274Z</time></trkpt><trkpt lat="40.8903986" lon="9.5858044"><ele>9.0</ele><time>2026-03-29T16:17:24.27Z</time></trkpt><trkpt lat="40.8904964" lon="9.5855603"><ele>9.0</ele><time>2026-03-29T16:17:25.268Z</time></trkpt><trkpt lat="40.8905911" lon="9.5853242"><ele>9.0</ele><time>2026-03-29T16:17:26.273Z</time></trkpt><trkpt lat="40.8906808" lon="9.5850957"><ele>9.0</ele><time>2026-03-29T16:17:27.271Z</time></trkpt><trkpt lat="40.8907661" lon="9.5848711"><ele>9.0</ele><time>2026-03-29T16:17:28.292Z</time></trkpt><trkpt lat="40.89085" lon="9.5846486"><ele>9.0</ele><time>2026-03-29T16:17:29.273Z</time></trkpt><trkpt lat="40.8909334" lon="9.5844295"><ele>9.0</ele><time>2026-03-29T16:17:30.271Z</time></trkpt><trkpt lat="40.8910192" lon="9.5842089"><ele>9.0</ele><time>2026-03-29T16:17:31.278Z</time></trkpt><trkpt lat="40.8911044" lon="9.5839853"><ele>9.0</ele><time>2026-03-29T16:17:32.269Z</time></trkpt><trkpt lat="40.8911897" lon="9.5837621"><ele>9.0</ele><time>2026-03-29T16:17:33.276Z</time></trkpt><trkpt lat="40.8912732" lon="9.5835343"><ele>9.0</ele><time>2026-03-29T16:17:34.267Z</time></trkpt><trkpt lat="40.8913486" lon="9.5832981"><ele>8.333333333333334</ele><time>2026-03-29T16:17:35.266Z</time></trkpt><trkpt lat="40.8914108" lon="9.5830521"><ele>7.666666666666667</ele><time>2026-03-29T16:17:36.269Z</time></trkpt><trkpt lat="40.8914549" lon="9.5827967"><ele>7.0</ele><time>2026-03-29T16:17:37.272Z</time></trkpt><trkpt lat="40.8914819" lon="9.5825279"><ele>6.333333333333334</ele><time>2026-03-29T16:17:38.267Z</time></trkpt><trkpt lat="40.8914996" lon="9.5822446"><ele>5.666666666666667</ele><time>2026-03-29T16:17:39.285Z</time></trkpt><trkpt lat="40.8915158" lon="9.5819502"><ele>5.0</ele><time>2026-03-29T16:17:40.269Z</time></trkpt><trkpt lat="40.8915302" lon="9.5816543"><ele>4.666666666666667</ele><time>2026-03-29T16:17:41.272Z</time></trkpt><trkpt lat="40.8915438" lon="9.5813629"><ele>4.333333333333333</ele><time>2026-03-29T16:17:42.263Z</time></trkpt><trkpt lat="40.8915567" lon="9.5810755"><ele>4.0</ele><time>2026-03-29T16:17:43.268Z</time></trkpt><trkpt lat="40.8915709" lon="9.5807913"><ele>3.6666666666666665</ele><time>2026-03-29T16:17:44.269Z</time></trkpt><trkpt lat="40.8915863" lon="9.580508"><ele>3.333333333333333</ele><time>2026-03-29T16:17:45.275Z</time></trkpt><trkpt lat="40.8916015" lon="9.5802252"><ele>3.0</ele><time>2026-03-29T16:17:46.285Z</time></trkpt><trkpt lat="40.8916159" lon="9.5799437"><ele>3.0</ele><time>2026-03-29T16:17:47.265Z</time></trkpt><trkpt lat="40.8916296" lon="9.5796635"><ele>3.0</ele><time>2026-03-29T16:17:48.272Z</time></trkpt><trkpt lat="40.8916427" lon="9.5793839"><ele>3.0</ele><time>2026-03-29T16:17:49.269Z</time></trkpt><trkpt lat="40.8916558" lon="9.5791062"><ele>3.666666666666667</ele><time>2026-03-29T16:17:50.27Z</time></trkpt><trkpt lat="40.8916712" lon="9.5788315"><ele>4.333333333333334</ele><time>2026-03-29T16:17:51.27Z</time></trkpt><trkpt lat="40.8916904" lon="9.5785602"><ele>5.0</ele><time>2026-03-29T16:17:52.268Z</time></trkpt><trkpt lat="40.8917189" lon="9.5782918"><ele>4.333333333333334</ele><time>2026-03-29T16:17:53.271Z</time></trkpt><trkpt lat="40.8917588" lon="9.5780211"><ele>3.666666666666667</ele><time>2026-03-29T16:17:54.294Z</time></trkpt><trkpt lat="40.8918116" lon="9.5777477"><ele>3.0</ele><time>2026-03-29T16:17:55.276Z</time></trkpt><trkpt lat="40.8918725" lon="9.5774697"><ele>2.5</ele><time>2026-03-29T16:17:56.267Z</time></trkpt><trkpt lat="40.8919372" lon="9.577186"><ele>2.0</ele><time>2026-03-29T16:17:57.269Z</time></trkpt><trkpt lat="40.892004" lon="9.5769007"><ele>2.0</ele><time>2026-03-29T16:17:58.264Z</time></trkpt><trkpt lat="40.8920717" lon="9.5766134"><ele>2.0</ele><time>2026-03-29T16:17:59.303Z</time></trkpt><trkpt lat="40.8921399" lon="9.576325"><ele>2.5</ele><time>2026-03-29T16:18:00.265Z</time></trkpt><trkpt lat="40.8922079" lon="9.5760348"><ele>3.0</ele><time>2026-03-29T16:18:01.268Z</time></trkpt><trkpt lat="40.8922752" lon="9.5757437"><ele>3.0</ele><time>2026-03-29T16:18:02.27Z</time></trkpt><trkpt lat="40.8923414" lon="9.5754567"><ele>3.0</ele><time>2026-03-29T16:18:03.268Z</time></trkpt><trkpt lat="40.8924082" lon="9.5751723"><ele>3.0</ele><time>2026-03-29T16:18:04.265Z</time></trkpt><trkpt lat="40.8924751" lon="9.5748892"><ele>3.0</ele><time>2026-03-29T16:18:05.294Z</time></trkpt><trkpt lat="40.8925413" lon="9.5746033"><ele>3.0</ele><time>2026-03-29T16:18:06.265Z</time></trkpt><trkpt lat="40.8926073" lon="9.5743143"><ele>3.0</ele><time>2026-03-29T16:18:07.275Z</time></trkpt><trkpt lat="40.8926725" lon="9.5740269"><ele>3.0</ele><time>2026-03-29T16:18:08.263Z</time></trkpt><trkpt lat="40.8927364" lon="9.5737435"><ele>3.0</ele><time>2026-03-29T16:18:09.273Z</time></trkpt><trkpt lat="40.8928008" lon="9.5734608"><ele>3.0</ele><time>2026-03-29T16:18:10.269Z</time></trkpt><trkpt lat="40.8928657" lon="9.5731769"><ele>2.0</ele><time>2026-03-29T16:18:11.271Z</time></trkpt><trkpt lat="40.8929305" lon="9.5728917"><ele>1.0</ele><time>2026-03-29T16:18:12.284Z</time></trkpt><trkpt lat="40.8929953" lon="9.5726069"><ele>0.0</ele><time>2026-03-29T16:18:13.282Z</time></trkpt><trkpt lat="40.8930603" lon="9.5723209"><ele>-1.0</ele><time>2026-03-29T16:18:14.27Z</time></trkpt><trkpt lat="40.8931263" lon="9.5720335"><ele>-1.5</ele><time>2026-03-29T16:18:15.269Z</time></trkpt><trkpt lat="40.8931929" lon="9.5717448"><ele>-2.0</ele><time>2026-03-29T16:18:16.276Z</time></trkpt><trkpt lat="40.8932606" lon="9.5714574"><ele>-1.0</ele><time>2026-03-29T16:18:17.272Z</time></trkpt><trkpt lat="40.8933265" lon="9.5711706"><ele>0.0</ele><time>2026-03-29T16:18:18.272Z</time></trkpt><trkpt lat="40.8933918" lon="9.5708881"><ele>0.0</ele><time>2026-03-29T16:18:19.291Z</time></trkpt><trkpt lat="40.8934564" lon="9.5706121"><ele>0.0</ele><time>2026-03-29T16:18:20.267Z</time></trkpt><trkpt lat="40.89352" lon="9.5703367"><ele>0.0</ele><time>2026-03-29T16:18:21.27Z</time></trkpt><trkpt lat="40.8935825" lon="9.5700598"><ele>0.0</ele><time>2026-03-29T16:18:22.273Z</time></trkpt><trkpt lat="40.8936456" lon="9.5697843"><ele>0.0</ele><time>2026-03-29T16:18:23.269Z</time></trkpt><trkpt lat="40.8937133" lon="9.5695131"><ele>0.0</ele><time>2026-03-29T16:18:24.29Z</time></trkpt><trkpt lat="40.8937821" lon="9.5692704"><ele>1.0</ele><time>2026-03-29T16:18:25.269Z</time></trkpt><trkpt lat="40.8938516" lon="9.5690351"><ele>2.0</ele><time>2026-03-29T16:18:26.271Z</time></trkpt><trkpt lat="40.8939305" lon="9.5688122"><ele>3.0</ele><time>2026-03-29T16:18:27.27Z</time></trkpt><trkpt lat="40.894011" lon="9.5686047"><ele>3.0</ele><time>2026-03-29T16:18:28.269Z</time></trkpt><trkpt lat="40.8940951" lon="9.5684105"><ele>3.0</ele><time>2026-03-29T16:18:29.268Z</time></trkpt><trkpt lat="40.8941828" lon="9.5682449"><ele>3.0</ele><time>2026-03-29T16:18:30.272Z</time></trkpt><trkpt lat="40.8942739" lon="9.5680928"><ele>3.0</ele><time>2026-03-29T16:18:31.282Z</time></trkpt><trkpt lat="40.8943616" lon="9.5679724"><ele>3.0</ele><time>2026-03-29T16:18:32.274Z</time></trkpt><trkpt lat="40.8944515" lon="9.5678823"><ele>3.0</ele><time>2026-03-29T16:18:33.271Z</time></trkpt><trkpt lat="40.894543" lon="9.567821"><ele>3.0</ele><time>2026-03-29T16:18:34.274Z</time></trkpt><trkpt lat="40.8946389" lon="9.5677683"><ele>3.0</ele><time>2026-03-29T16:18:35.272Z</time></trkpt><trkpt lat="40.8947184" lon="9.567698"><ele>3.0</ele><time>2026-03-29T16:18:36.285Z</time></trkpt><trkpt lat="40.8947782" lon="9.5675955"><ele>3.0</ele><time>2026-03-29T16:18:37.269Z</time></trkpt><trkpt lat="40.8948146" lon="9.567471"><ele>3.0</ele><time>2026-03-29T16:18:38.274Z</time></trkpt><trkpt lat="40.8948589" lon="9.5673328"><ele>3.0</ele><time>2026-03-29T16:18:39.27Z</time></trkpt><trkpt lat="40.8949327" lon="9.5671902"><ele>3.0</ele><time>2026-03-29T16:18:40.269Z</time></trkpt><trkpt lat="40.895036" lon="9.5670379"><ele>2.6666666666666665</ele><time>2026-03-29T16:18:41.276Z</time></trkpt><trkpt lat="40.8951586" lon="9.5668691"><ele>2.333333333333333</ele><time>2026-03-29T16:18:42.267Z</time></trkpt><trkpt lat="40.8952905" lon="9.5666929"><ele>2.0</ele><time>2026-03-29T16:18:43.294Z</time></trkpt><trkpt lat="40.8954346" lon="9.5665034"><ele>2.0</ele><time>2026-03-29T16:18:44.272Z</time></trkpt><trkpt lat="40.895591" lon="9.5663019"><ele>2.0</ele><time>2026-03-29T16:18:45.273Z</time></trkpt><trkpt lat="40.8957506" lon="9.5661017"><ele>2.0</ele><time>2026-03-29T16:18:46.272Z</time></trkpt><trkpt lat="40.8959172" lon="9.5659018"><ele>2.5</ele><time>2026-03-29T16:18:47.268Z</time></trkpt><trkpt lat="40.8960879" lon="9.5657028"><ele>3.0</ele><time>2026-03-29T16:18:48.267Z</time></trkpt><trkpt lat="40.8962491" lon="9.5654847"><ele>3.0</ele><time>2026-03-29T16:18:49.273Z</time></trkpt><trkpt lat="40.8964142" lon="9.5653"><ele>3.0</ele><time>2026-03-29T16:18:50.268Z</time></trkpt><trkpt lat="40.8965721" lon="9.5651201"><ele>3.0</ele><time>2026-03-29T16:18:51.268Z</time></trkpt><trkpt lat="40.8967281" lon="9.5649449"><ele>2.6666666666666665</ele><time>2026-03-29T16:18:52.269Z</time></trkpt><trkpt lat="40.8968794" lon="9.5647663"><ele>2.333333333333333</ele><time>2026-03-29T16:18:53.275Z</time></trkpt><trkpt lat="40.8970336" lon="9.56459"><ele>2.0</ele><time>2026-03-29T16:18:54.29Z</time></trkpt><trkpt lat="40.8971782" lon="9.5644185"><ele>2.0</ele><time>2026-03-29T16:18:55.276Z</time></trkpt><trkpt lat="40.8973256" lon="9.564246"><ele>2.0</ele><time>2026-03-29T16:18:56.271Z</time></trkpt><trkpt lat="40.8974782" lon="9.5640647"><ele>2.0</ele><time>2026-03-29T16:18:57.271Z</time></trkpt><trkpt lat="40.8976307" lon="9.5638806"><ele>2.333333333333333</ele><time>2026-03-29T16:18:58.278Z</time></trkpt><trkpt lat="40.8977862" lon="9.5636925"><ele>2.6666666666666665</ele><time>2026-03-29T16:18:59.269Z</time></trkpt><trkpt lat="40.8979317" lon="9.5634993"><ele>3.0</ele><time>2026-03-29T16:19:00.268Z</time></trkpt><trkpt lat="40.8980887" lon="9.5633131"><ele>3.0</ele><time>2026-03-29T16:19:01.271Z</time></trkpt><trkpt lat="40.8982404" lon="9.563131"><ele>3.0</ele><time>2026-03-29T16:19:02.275Z</time></trkpt><trkpt lat="40.8983892" lon="9.5629498"><ele>3.0</ele><time>2026-03-29T16:19:03.271Z</time></trkpt><trkpt lat="40.8985366" lon="9.5627713"><ele>3.333333333333333</ele><time>2026-03-29T16:19:04.269Z</time></trkpt><trkpt lat="40.8986807" lon="9.5625991"><ele>3.6666666666666665</ele><time>2026-03-29T16:19:05.271Z</time></trkpt><trkpt lat="40.8988221" lon="9.5624288"><ele>4.0</ele><time>2026-03-29T16:19:06.27Z</time></trkpt><trkpt lat="40.8989651" lon="9.5622565"><ele>4.0</ele><time>2026-03-29T16:19:07.265Z</time></trkpt><trkpt lat="40.8991078" lon="9.5620881"><ele>4.0</ele><time>2026-03-29T16:19:08.271Z</time></trkpt><trkpt lat="40.89925" lon="9.5619195"><ele>4.0</ele><time>2026-03-29T16:19:09.268Z</time></trkpt><trkpt lat="40.8993907" lon="9.5617515"><ele>4.0</ele><time>2026-03-29T16:19:10.274Z</time></trkpt><trkpt lat="40.8995308" lon="9.5615811"><ele>4.0</ele><time>2026-03-29T16:19:11.266Z</time></trkpt><trkpt lat="40.8996729" lon="9.5614051"><ele>4.0</ele><time>2026-03-29T16:19:12.273Z</time></trkpt><trkpt lat="40.8998218" lon="9.561221"><ele>4.333333333333333</ele><time>2026-03-29T16:19:13.275Z</time></trkpt><trkpt lat="40.8999743" lon="9.5610267"><ele>4.666666666666667</ele><time>2026-03-29T16:19:14.273Z</time></trkpt><trkpt lat="40.9001354" lon="9.5608259"><ele>5.0</ele><time>2026-03-29T16:19:15.271Z</time></trkpt><trkpt lat="40.9003038" lon="9.5606155"><ele>5.0</ele><time>2026-03-29T16:19:16.29Z</time></trkpt><trkpt lat="40.9004744" lon="9.5604057"><ele>5.0</ele><time>2026-03-29T16:19:17.277Z</time></trkpt><trkpt lat="40.9006404" lon="9.5602058"><ele>5.333333333333334</ele><time>2026-03-29T16:19:18.273Z</time></trkpt><trkpt lat="40.9007951" lon="9.5600201"><ele>5.666666666666667</ele><time>2026-03-29T16:19:19.273Z</time></trkpt><trkpt lat="40.9009396" lon="9.5598467"><ele>6.0</ele><time>2026-03-29T16:19:20.271Z</time></trkpt><trkpt lat="40.9010801" lon="9.5596774"><ele>7.0</ele><time>2026-03-29T16:19:21.272Z</time></trkpt><trkpt lat="40.9012187" lon="9.559513"><ele>8.0</ele><time>2026-03-29T16:19:22.269Z</time></trkpt><trkpt lat="40.9013554" lon="9.5593528"><ele>9.0</ele><time>2026-03-29T16:19:23.267Z</time></trkpt><trkpt lat="40.9014902" lon="9.5591942"><ele>9.0</ele><time>2026-03-29T16:19:24.273Z</time></trkpt><trkpt lat="40.9016228" lon="9.5590347"><ele>9.0</ele><time>2026-03-29T16:19:25.27Z</time></trkpt><trkpt lat="40.901754" lon="9.5588726"><ele>9.0</ele><time>2026-03-29T16:19:26.291Z</time></trkpt><trkpt lat="40.9018961" lon="9.5586908"><ele>9.5</ele><time>2026-03-29T16:19:27.271Z</time></trkpt><trkpt lat="40.9020572" lon="9.5584902"><ele>10.0</ele><time>2026-03-29T16:19:28.272Z</time></trkpt><trkpt lat="40.9022421" lon="9.5582759"><ele>10.0</ele><time>2026-03-29T16:19:29.269Z</time></trkpt><trkpt lat="40.9024386" lon="9.558062"><ele>10.0</ele><time>2026-03-29T16:19:30.27Z</time></trkpt><trkpt lat="40.9026417" lon="9.5578292"><ele>12.0</ele><time>2026-03-29T16:19:31.269Z</time></trkpt><trkpt lat="40.9028438" lon="9.5575964"><ele>14.0</ele><time>2026-03-29T16:19:32.287Z</time></trkpt><trkpt lat="40.9030337" lon="9.5573878"><ele>14.0</ele><time>2026-03-29T16:19:33.269Z</time></trkpt><trkpt lat="40.9032098" lon="9.5571983"><ele>14.0</ele><time>2026-03-29T16:19:34.269Z</time></trkpt><trkpt lat="40.9033821" lon="9.5570299"><ele>14.0</ele><time>2026-03-29T16:19:35.268Z</time></trkpt><trkpt lat="40.903539" lon="9.5568762"><ele>13.0</ele><time>2026-03-29T16:19:36.277Z</time></trkpt><trkpt lat="40.9036796" lon="9.5567288"><ele>12.0</ele><time>2026-03-29T16:19:37.271Z</time></trkpt><trkpt lat="40.9038063" lon="9.5565667"><ele>11.0</ele><time>2026-03-29T16:19:38.293Z</time></trkpt><trkpt lat="40.9039187" lon="9.5563768"><ele>10.0</ele><time>2026-03-29T16:19:39.27Z</time></trkpt><trkpt lat="40.9040158" lon="9.5561789"><ele>9.0</ele><time>2026-03-29T16:19:40.274Z</time></trkpt><trkpt lat="40.9041073" lon="9.5559922"><ele>8.0</ele><time>2026-03-29T16:19:41.27Z</time></trkpt><trkpt lat="40.9041884" lon="9.5558064"><ele>6.5</ele><time>2026-03-29T16:19:42.27Z</time></trkpt><trkpt lat="40.9042602" lon="9.5556314"><ele>5.0</ele><time>2026-03-29T16:19:43.278Z</time></trkpt><trkpt lat="40.9043123" lon="9.5554665"><ele>3.5</ele><time>2026-03-29T16:19:44.275Z</time></trkpt><trkpt lat="40.9043376" lon="9.555296"><ele>2.0</ele><time>2026-03-29T16:19:45.293Z</time></trkpt><trkpt lat="40.9043298" lon="9.5551122"><ele>1.6666666666666665</ele><time>2026-03-29T16:19:46.274Z</time></trkpt><trkpt lat="40.9042866" lon="9.5549197"><ele>1.3333333333333333</ele><time>2026-03-29T16:19:47.275Z</time></trkpt><trkpt lat="40.9042315" lon="9.554727"><ele>1.0</ele><time>2026-03-29T16:19:48.273Z</time></trkpt><trkpt lat="40.9041999" lon="9.5545303"><ele>2.25</ele><time>2026-03-29T16:19:49.268Z</time></trkpt><trkpt lat="40.9041863" lon="9.5543248"><ele>3.5</ele><time>2026-03-29T16:19:50.273Z</time></trkpt><trkpt lat="40.9041741" lon="9.5541323"><ele>4.75</ele><time>2026-03-29T16:19:51.269Z</time></trkpt><trkpt lat="40.9041562" lon="9.5539516"><ele>6.0</ele><time>2026-03-29T16:19:52.323Z</time></trkpt><trkpt lat="40.9041319" lon="9.5537842"><ele>4.666666666666667</ele><time>2026-03-29T16:19:53.277Z</time></trkpt><trkpt lat="40.9040961" lon="9.5536295"><ele>3.333333333333333</ele><time>2026-03-29T16:19:54.275Z</time></trkpt><trkpt lat="40.9040501" lon="9.5534378"><ele>2.0</ele><time>2026-03-29T16:19:55.275Z</time></trkpt><trkpt lat="40.9039214" lon="9.5532458"><ele>2.0</ele><time>2026-03-29T16:19:56.271Z</time></trkpt><trkpt lat="40.9037907" lon="9.5530465"><ele>2.0</ele><time>2026-03-29T16:19:57.275Z</time></trkpt><trkpt lat="40.9036841" lon="9.5528391"><ele>2.0</ele><time>2026-03-29T16:19:58.273Z</time></trkpt><trkpt lat="40.9035979" lon="9.5526313"><ele>1.6666666666666665</ele><time>2026-03-29T16:19:59.271Z</time></trkpt><trkpt lat="40.9035388" lon="9.5524405"><ele>1.3333333333333333</ele><time>2026-03-29T16:20:00.288Z</time></trkpt><trkpt lat="40.9035409" lon="9.552245"><ele>1.0</ele><time>2026-03-29T16:20:01.27Z</time></trkpt><trkpt lat="40.9035916" lon="9.5520496"><ele>1.6666666666666665</ele><time>2026-03-29T16:20:02.273Z</time></trkpt><trkpt lat="40.9036354" lon="9.5518498"><ele>2.3333333333333335</ele><time>2026-03-29T16:20:03.266Z</time></trkpt><trkpt lat="40.9036091" lon="9.551647"><ele>3.0</ele><time>2026-03-29T16:20:04.272Z</time></trkpt><trkpt lat="40.9035612" lon="9.5514401"><ele>3.0</ele><time>2026-03-29T16:20:05.272Z</time></trkpt><trkpt lat="40.9035026" lon="9.5512155"><ele>3.0</ele><time>2026-03-29T16:20:06.276Z</time></trkpt><trkpt lat="40.903435" lon="9.5509731"><ele>3.0</ele><time>2026-03-29T16:20:07.274Z</time></trkpt><trkpt lat="40.9033617" lon="9.550708"><ele>3.0</ele><time>2026-03-29T16:20:08.299Z</time></trkpt><trkpt lat="40.9032784" lon="9.5504326"><ele>3.0</ele><time>2026-03-29T16:20:09.27Z</time></trkpt><trkpt lat="40.9031932" lon="9.5501272"><ele>3.0</ele><time>2026-03-29T16:20:10.27Z</time></trkpt><trkpt lat="40.9031016" lon="9.5498213"><ele>3.0</ele><time>2026-03-29T16:20:11.278Z</time></trkpt><trkpt lat="40.9030227" lon="9.5495122"><ele>3.0</ele><time>2026-03-29T16:20:12.277Z</time></trkpt><trkpt lat="40.9029501" lon="9.5492187"><ele>3.0</ele><time>2026-03-29T16:20:13.301Z</time></trkpt><trkpt lat="40.9028839" lon="9.5489396"><ele>3.333333333333333</ele><time>2026-03-29T16:20:14.269Z</time></trkpt><trkpt lat="40.9028224" lon="9.5486764"><ele>3.6666666666666665</ele><time>2026-03-29T16:20:15.269Z</time></trkpt><trkpt lat="40.9027569" lon="9.5484345"><ele>4.0</ele><time>2026-03-29T16:20:16.269Z</time></trkpt><trkpt lat="40.9026834" lon="9.5482"><ele>4.0</ele><time>2026-03-29T16:20:17.274Z</time></trkpt><trkpt lat="40.9025908" lon="9.5479762"><ele>4.0</ele><time>2026-03-29T16:20:18.294Z</time></trkpt><trkpt lat="40.9024792" lon="9.5477631"><ele>4.0</ele><time>2026-03-29T16:20:19.271Z</time></trkpt><trkpt lat="40.9023556" lon="9.5475531"><ele>4.0</ele><time>2026-03-29T16:20:20.274Z</time></trkpt><trkpt lat="40.9022213" lon="9.5473319"><ele>4.0</ele><time>2026-03-29T16:20:21.276Z</time></trkpt><trkpt lat="40.9021059" lon="9.5471017"><ele>4.0</ele><time>2026-03-29T16:20:22.273Z</time></trkpt><trkpt lat="40.9020104" lon="9.546854"><ele>4.0</ele><time>2026-03-29T16:20:23.288Z</time></trkpt><trkpt lat="40.9019186" lon="9.5466095"><ele>4.0</ele><time>2026-03-29T16:20:24.276Z</time></trkpt><trkpt lat="40.9018453" lon="9.5463724"><ele>4.0</ele><time>2026-03-29T16:20:25.276Z</time></trkpt><trkpt lat="40.9017804" lon="9.5461497"><ele>5.666666666666666</ele><time>2026-03-29T16:20:26.279Z</time></trkpt><trkpt lat="40.9017247" lon="9.5459503"><ele>7.333333333333333</ele><time>2026-03-29T16:20:27.273Z</time></trkpt><trkpt lat="40.9016696" lon="9.5457577"><ele>9.0</ele><time>2026-03-29T16:20:28.277Z</time></trkpt><trkpt lat="40.9016016" lon="9.5455781"><ele>9.0</ele><time>2026-03-29T16:20:29.275Z</time></trkpt><trkpt lat="40.9014934" lon="9.5453991"><ele>9.0</ele><time>2026-03-29T16:20:30.267Z</time></trkpt><trkpt lat="40.9013702" lon="9.5452126"><ele>9.0</ele><time>2026-03-29T16:20:31.265Z</time></trkpt><trkpt lat="40.9012539" lon="9.5449925"><ele>7.333333333333333</ele><time>2026-03-29T16:20:32.274Z</time></trkpt><trkpt lat="40.901152" lon="9.5447538"><ele>5.666666666666666</ele><time>2026-03-29T16:20:33.27Z</time></trkpt><trkpt lat="40.9010567" lon="9.5445223"><ele>4.0</ele><time>2026-03-29T16:20:34.278Z</time></trkpt><trkpt lat="40.9009591" lon="9.5442964"><ele>4.0</ele><time>2026-03-29T16:20:35.273Z</time></trkpt><trkpt lat="40.9008636" lon="9.5440838"><ele>4.0</ele><time>2026-03-29T16:20:36.297Z</time></trkpt><trkpt lat="40.9007746" lon="9.5438789"><ele>4.0</ele><time>2026-03-29T16:20:37.271Z</time></trkpt><trkpt lat="40.9006883" lon="9.5436846"><ele>4.0</ele><time>2026-03-29T16:20:38.275Z</time></trkpt><trkpt lat="40.900611" lon="9.5434908"><ele>4.0</ele><time>2026-03-29T16:20:39.272Z</time></trkpt><trkpt lat="40.9005618" lon="9.543286"><ele>4.0</ele><time>2026-03-29T16:20:40.28Z</time></trkpt><trkpt lat="40.9005126" lon="9.5430791"><ele>3.6666666666666665</ele><time>2026-03-29T16:20:41.271Z</time></trkpt><trkpt lat="40.9005132" lon="9.5428733"><ele>3.333333333333333</ele><time>2026-03-29T16:20:42.273Z</time></trkpt><trkpt lat="40.9005322" lon="9.542662"><ele>3.0</ele><time>2026-03-29T16:20:43.274Z</time></trkpt><trkpt lat="40.9005599" lon="9.5424581"><ele>3.0</ele><time>2026-03-29T16:20:44.279Z</time></trkpt><trkpt lat="40.9006219" lon="9.5422807"><ele>3.0</ele><time>2026-03-29T16:20:45.27Z</time></trkpt><trkpt lat="40.9007073" lon="9.5421271"><ele>3.0</ele><time>2026-03-29T16:20:46.28Z</time></trkpt><trkpt lat="40.9008125" lon="9.5419786"><ele>3.0</ele><time>2026-03-29T16:20:47.275Z</time></trkpt><trkpt lat="40.9009438" lon="9.5418109"><ele>3.0</ele><time>2026-03-29T16:20:48.277Z</time></trkpt><trkpt lat="40.901081" lon="9.5416298"><ele>3.0</ele><time>2026-03-29T16:20:49.276Z</time></trkpt><trkpt lat="40.901222" lon="9.5414393"><ele>3.0</ele><time>2026-03-29T16:20:50.274Z</time></trkpt><trkpt lat="40.9013761" lon="9.5412385"><ele>3.0</ele><time>2026-03-29T16:20:51.294Z</time></trkpt><trkpt lat="40.9015353" lon="9.5410315"><ele>3.0</ele><time>2026-03-29T16:20:52.281Z</time></trkpt><trkpt lat="40.9016905" lon="9.5408222"><ele>3.0</ele><time>2026-03-29T16:20:53.272Z</time></trkpt><trkpt lat="40.901845" lon="9.5406195"><ele>3.0</ele><time>2026-03-29T16:20:54.278Z</time></trkpt><trkpt lat="40.9019982" lon="9.5404157"><ele>3.0</ele><time>2026-03-29T16:20:55.278Z</time></trkpt><trkpt lat="40.9021545" lon="9.5402127"><ele>3.0</ele><time>2026-03-29T16:20:56.269Z</time></trkpt><trkpt lat="40.9023134" lon="9.5400077"><ele>3.0</ele><time>2026-03-29T16:20:57.302Z</time></trkpt><trkpt lat="40.9024702" lon="9.5397991"><ele>3.0</ele><time>2026-03-29T16:20:58.277Z</time></trkpt><trkpt lat="40.9026265" lon="9.5395908"><ele>3.0</ele><time>2026-03-29T16:20:59.274Z</time></trkpt><trkpt lat="40.9027819" lon="9.5393802"><ele>3.0</ele><time>2026-03-29T16:21:00.276Z</time></trkpt><trkpt lat="40.9029374" lon="9.5391705"><ele>3.0</ele><time>2026-03-29T16:21:01.27Z</time></trkpt><trkpt lat="40.903097" lon="9.5389605"><ele>3.0</ele><time>2026-03-29T16:21:02.277Z</time></trkpt><trkpt lat="40.9032603" lon="9.5387451"><ele>1.5</ele><time>2026-03-29T16:21:03.273Z</time></trkpt><trkpt lat="40.903429" lon="9.5385324"><ele>0.0</ele><time>2026-03-29T16:21:04.298Z</time></trkpt><trkpt lat="40.9035953" lon="9.5383071"><ele>0.0</ele><time>2026-03-29T16:21:05.27Z</time></trkpt><trkpt lat="40.9037575" lon="9.5380834"><ele>0.0</ele><time>2026-03-29T16:21:06.28Z</time></trkpt><trkpt lat="40.903917" lon="9.5378693"><ele>0.3333333333333333</ele><time>2026-03-29T16:21:07.275Z</time></trkpt><trkpt lat="40.9040745" lon="9.537661"><ele>0.6666666666666666</ele><time>2026-03-29T16:21:08.271Z</time></trkpt><trkpt lat="40.9042271" lon="9.5374584"><ele>1.0</ele><time>2026-03-29T16:21:09.272Z</time></trkpt><trkpt lat="40.9043772" lon="9.5372616"><ele>1.0</ele><time>2026-03-29T16:21:10.28Z</time></trkpt><trkpt lat="40.9045247" lon="9.5370698"><ele>1.0</ele><time>2026-03-29T16:21:11.274Z</time></trkpt><trkpt lat="40.9046731" lon="9.5368846"><ele>1.0</ele><time>2026-03-29T16:21:12.291Z</time></trkpt><trkpt lat="40.9048231" lon="9.5367088"><ele>1.0</ele><time>2026-03-29T16:21:13.269Z</time></trkpt><trkpt lat="40.9049754" lon="9.5365509"><ele>1.0</ele><time>2026-03-29T16:21:14.275Z</time></trkpt><trkpt lat="40.9051324" lon="9.536418"><ele>1.0</ele><time>2026-03-29T16:21:15.277Z</time></trkpt><trkpt lat="40.9052958" lon="9.5363101"><ele>1.0</ele><time>2026-03-29T16:21:16.273Z</time></trkpt><trkpt lat="40.9054652" lon="9.5362272"><ele>1.0</ele><time>2026-03-29T16:21:17.27Z</time></trkpt><trkpt lat="40.9056412" lon="9.5361694"><ele>1.0</ele><time>2026-03-29T16:21:18.296Z</time></trkpt><trkpt lat="40.9058234" lon="9.5361279"><ele>0.6666666666666666</ele><time>2026-03-29T16:21:19.28Z</time></trkpt><trkpt lat="40.9060002" lon="9.5361309"><ele>0.3333333333333333</ele><time>2026-03-29T16:21:20.277Z</time></trkpt><trkpt lat="40.9061803" lon="9.5361492"><ele>0.0</ele><time>2026-03-29T16:21:21.278Z</time></trkpt><trkpt lat="40.9063532" lon="9.5362072"><ele>0.0</ele><time>2026-03-29T16:21:22.276Z</time></trkpt><trkpt lat="40.9065208" lon="9.5362675"><ele>0.0</ele><time>2026-03-29T16:21:23.278Z</time></trkpt><trkpt lat="40.906694" lon="9.5363467"><ele>0.0</ele><time>2026-03-29T16:21:24.273Z</time></trkpt><trkpt lat="40.9068677" lon="9.5363962"><ele>0.3333333333333333</ele><time>2026-03-29T16:21:25.275Z</time></trkpt><trkpt lat="40.9070521" lon="9.5364248"><ele>0.6666666666666666</ele><time>2026-03-29T16:21:26.269Z</time></trkpt><trkpt lat="40.907241" lon="9.5364396"><ele>1.0</ele><time>2026-03-29T16:21:27.297Z</time></trkpt><trkpt lat="40.9074413" lon="9.5364298"><ele>0.6666666666666666</ele><time>2026-03-29T16:21:28.275Z</time></trkpt><trkpt lat="40.9076385" lon="9.5363923"><ele>0.3333333333333333</ele><time>2026-03-29T16:21:29.274Z</time></trkpt><trkpt lat="40.9078328" lon="9.5363247"><ele>0.0</ele><time>2026-03-29T16:21:30.275Z</time></trkpt><trkpt lat="40.9080204" lon="9.5362261"><ele>1.3333333333333333</ele><time>2026-03-29T16:21:31.278Z</time></trkpt><trkpt lat="40.9081991" lon="9.5360991"><ele>2.6666666666666665</ele><time>2026-03-29T16:21:32.274Z</time></trkpt><trkpt lat="40.9083665" lon="9.5359474"><ele>4.0</ele><time>2026-03-29T16:21:33.279Z</time></trkpt><trkpt lat="40.9085185" lon="9.5357722"><ele>6.0</ele><time>2026-03-29T16:21:34.278Z</time></trkpt><trkpt lat="40.9086534" lon="9.5355761"><ele>8.0</ele><time>2026-03-29T16:21:35.273Z</time></trkpt><trkpt lat="40.9087705" lon="9.5353622"><ele>10.0</ele><time>2026-03-29T16:21:36.297Z</time></trkpt><trkpt lat="40.9088697" lon="9.5351309"><ele>12.0</ele><time>2026-03-29T16:21:37.269Z</time></trkpt><trkpt lat="40.9089499" lon="9.5348851"><ele>14.0</ele><time>2026-03-29T16:21:38.273Z</time></trkpt><trkpt lat="40.9090095" lon="9.5346282"><ele>16.0</ele><time>2026-03-29T16:21:39.272Z</time></trkpt><trkpt lat="40.909044" lon="9.5343603"><ele>15.333333333333332</ele><time>2026-03-29T16:21:40.275Z</time></trkpt><trkpt lat="40.9090544" lon="9.5340835"><ele>14.666666666666668</ele><time>2026-03-29T16:21:41.273Z</time></trkpt><trkpt lat="40.9090413" lon="9.5337997"><ele>14.0</ele><time>2026-03-29T16:21:42.279Z</time></trkpt><trkpt lat="40.909004" lon="9.5335129"><ele>14.0</ele><time>2026-03-29T16:21:43.269Z</time></trkpt><trkpt lat="40.9089519" lon="9.5332236"><ele>14.0</ele><time>2026-03-29T16:21:44.291Z</time></trkpt><trkpt lat="40.9088915" lon="9.532932"><ele>13.0</ele><time>2026-03-29T16:21:45.268Z</time></trkpt><trkpt lat="40.9088289" lon="9.5326364"><ele>12.0</ele><time>2026-03-29T16:21:46.273Z</time></trkpt><trkpt lat="40.9087662" lon="9.5323392"><ele>11.5</ele><time>2026-03-29T16:21:47.271Z</time></trkpt><trkpt lat="40.908705" lon="9.5320441"><ele>11.0</ele><time>2026-03-29T16:21:48.272Z</time></trkpt><trkpt lat="40.9086451" lon="9.5317579"><ele>11.0</ele><time>2026-03-29T16:21:49.273Z</time></trkpt><trkpt lat="40.9085877" lon="9.5314767"><ele>11.0</ele><time>2026-03-29T16:21:50.273Z</time></trkpt><trkpt lat="40.9085291" lon="9.5311976"><ele>11.0</ele><time>2026-03-29T16:21:51.277Z</time></trkpt><trkpt lat="40.9084703" lon="9.5309204"><ele>10.666666666666666</ele><time>2026-03-29T16:21:52.282Z</time></trkpt><trkpt lat="40.9084111" lon="9.5306428"><ele>10.333333333333334</ele><time>2026-03-29T16:21:53.269Z</time></trkpt><trkpt lat="40.9083518" lon="9.5303607"><ele>10.0</ele><time>2026-03-29T16:21:54.297Z</time></trkpt><trkpt lat="40.9082931" lon="9.5300752"><ele>8.5</ele><time>2026-03-29T16:21:55.275Z</time></trkpt><trkpt lat="40.9082332" lon="9.5297868"><ele>7.0</ele><time>2026-03-29T16:21:56.278Z</time></trkpt><trkpt lat="40.9081718" lon="9.5294953"><ele>7.0</ele><time>2026-03-29T16:21:57.283Z</time></trkpt><trkpt lat="40.9081095" lon="9.5292017"><ele>7.0</ele><time>2026-03-29T16:21:58.272Z</time></trkpt><trkpt lat="40.9080477" lon="9.5289117"><ele>7.333333333333334</ele><time>2026-03-29T16:21:59.317Z</time></trkpt><trkpt lat="40.9079896" lon="9.5286312"><ele>7.666666666666666</ele><time>2026-03-29T16:22:00.27Z</time></trkpt><trkpt lat="40.9079377" lon="9.5283666"><ele>8.0</ele><time>2026-03-29T16:22:01.275Z</time></trkpt><trkpt lat="40.9078866" lon="9.5281218"><ele>8.666666666666666</ele><time>2026-03-29T16:22:02.268Z</time></trkpt><trkpt lat="40.9078634" lon="9.5278756"><ele>9.333333333333334</ele><time>2026-03-29T16:22:03.274Z</time></trkpt><trkpt lat="40.9078622" lon="9.5276112"><ele>10.0</ele><time>2026-03-29T16:22:04.269Z</time></trkpt><trkpt lat="40.9078667" lon="9.5273381"><ele>10.0</ele><time>2026-03-29T16:22:05.28Z</time></trkpt><trkpt lat="40.9078897" lon="9.5270703"><ele>10.0</ele><time>2026-03-29T16:22:06.273Z</time></trkpt><trkpt lat="40.9079171" lon="9.5268067"><ele>10.0</ele><time>2026-03-29T16:22:07.269Z</time></trkpt><trkpt lat="40.9079484" lon="9.5265614"><ele>11.0</ele><time>2026-03-29T16:22:08.271Z</time></trkpt><trkpt lat="40.9079833" lon="9.5262963"><ele>12.0</ele><time>2026-03-29T16:22:09.271Z</time></trkpt><trkpt lat="40.9080071" lon="9.5260354"><ele>13.0</ele><time>2026-03-29T16:22:10.265Z</time></trkpt><trkpt lat="40.9080292" lon="9.525775"><ele>13.0</ele><time>2026-03-29T16:22:11.273Z</time></trkpt><trkpt lat="40.9080562" lon="9.5255229"><ele>13.0</ele><time>2026-03-29T16:22:12.269Z</time></trkpt><trkpt lat="40.9080704" lon="9.5252908"><ele>13.0</ele><time>2026-03-29T16:22:13.292Z</time></trkpt><trkpt lat="40.9080908" lon="9.5250844"><ele>13.0</ele><time>2026-03-29T16:22:14.267Z</time></trkpt><trkpt lat="40.9081101" lon="9.5248919"><ele>13.0</ele><time>2026-03-29T16:22:15.263Z</time></trkpt><trkpt lat="40.9081344" lon="9.5247119"><ele>13.0</ele><time>2026-03-29T16:22:16.267Z</time></trkpt><trkpt lat="40.9081576" lon="9.5245358"><ele>13.0</ele><time>2026-03-29T16:22:17.272Z</time></trkpt><trkpt lat="40.9081817" lon="9.5243624"><ele>13.0</ele><time>2026-03-29T16:22:18.27Z</time></trkpt><trkpt lat="40.9082047" lon="9.5241971"><ele>13.0</ele><time>2026-03-29T16:22:19.27Z</time></trkpt><trkpt lat="40.9082246" lon="9.5240221"><ele>13.0</ele><time>2026-03-29T16:22:20.266Z</time></trkpt><trkpt lat="40.9082435" lon="9.5238425"><ele>13.0</ele><time>2026-03-29T16:22:21.275Z</time></trkpt><trkpt lat="40.9082567" lon="9.5236629"><ele>12.25</ele><time>2026-03-29T16:22:22.267Z</time></trkpt><trkpt lat="40.9082668" lon="9.5234818"><ele>11.5</ele><time>2026-03-29T16:22:23.293Z</time></trkpt><trkpt lat="40.9082753" lon="9.5232972"><ele>10.75</ele><time>2026-03-29T16:22:24.27Z</time></trkpt><trkpt lat="40.9082866" lon="9.5231206"><ele>10.0</ele><time>2026-03-29T16:22:25.271Z</time></trkpt><trkpt lat="40.9083023" lon="9.5229558"><ele>10.0</ele><time>2026-03-29T16:22:26.272Z</time></trkpt><trkpt lat="40.9083236" lon="9.5228119"><ele>10.0</ele><time>2026-03-29T16:22:27.276Z</time></trkpt><trkpt lat="40.9083555" lon="9.5226744"><ele>10.0</ele><time>2026-03-29T16:22:28.278Z</time></trkpt><trkpt lat="40.9084021" lon="9.5225267"><ele>10.0</ele><time>2026-03-29T16:22:29.292Z</time></trkpt><trkpt lat="40.9084641" lon="9.5223732"><ele>10.0</ele><time>2026-03-29T16:22:30.272Z</time></trkpt><trkpt lat="40.9085355" lon="9.5222287"><ele>10.0</ele><time>2026-03-29T16:22:31.275Z</time></trkpt><trkpt lat="40.9086058" lon="9.5220894"><ele>10.0</ele><time>2026-03-29T16:22:32.278Z</time></trkpt><trkpt lat="40.9086599" lon="9.5219518"><ele>10.0</ele><time>2026-03-29T16:22:33.269Z</time></trkpt><trkpt lat="40.9086866" lon="9.5218142"><ele>9.75</ele><time>2026-03-29T16:22:34.297Z</time></trkpt><trkpt lat="40.9086809" lon="9.5216768"><ele>9.5</ele><time>2026-03-29T16:22:35.272Z</time></trkpt><trkpt lat="40.9086532" lon="9.5215186"><ele>9.25</ele><time>2026-03-29T16:22:36.276Z</time></trkpt><trkpt lat="40.9086202" lon="9.5213344"><ele>9.0</ele><time>2026-03-29T16:22:37.27Z</time></trkpt><trkpt lat="40.9085872" lon="9.5211255"><ele>8.75</ele><time>2026-03-29T16:22:38.272Z</time></trkpt><trkpt lat="40.9085632" lon="9.5209217"><ele>8.5</ele><time>2026-03-29T16:22:39.274Z</time></trkpt><trkpt lat="40.9085725" lon="9.5207261"><ele>8.25</ele><time>2026-03-29T16:22:40.272Z</time></trkpt><trkpt lat="40.9085858" lon="9.5205348"><ele>8.0</ele><time>2026-03-29T16:22:41.269Z</time></trkpt><trkpt lat="40.9086001" lon="9.5203434"><ele>8.0</ele><time>2026-03-29T16:22:42.286Z</time></trkpt><trkpt lat="40.9086197" lon="9.5201565"><ele>8.0</ele><time>2026-03-29T16:22:43.276Z</time></trkpt><trkpt lat="40.9086364" lon="9.5199552"><ele>8.0</ele><time>2026-03-29T16:22:44.277Z</time></trkpt><trkpt lat="40.9086551" lon="9.5197455"><ele>8.0</ele><time>2026-03-29T16:22:45.277Z</time></trkpt><trkpt lat="40.9086819" lon="9.5195305"><ele>8.0</ele><time>2026-03-29T16:22:46.28Z</time></trkpt><trkpt lat="40.9087097" lon="9.5193157"><ele>8.0</ele><time>2026-03-29T16:22:47.274Z</time></trkpt><trkpt lat="40.9087315" lon="9.5191063"><ele>8.0</ele><time>2026-03-29T16:22:48.275Z</time></trkpt><trkpt lat="40.9087477" lon="9.5189169"><ele>8.0</ele><time>2026-03-29T16:22:49.276Z</time></trkpt><trkpt lat="40.9087642" lon="9.5187368"><ele>8.0</ele><time>2026-03-29T16:22:50.272Z</time></trkpt><trkpt lat="40.908784" lon="9.5185589"><ele>8.0</ele><time>2026-03-29T16:22:51.278Z</time></trkpt><trkpt lat="40.9087999" lon="9.5183866"><ele>8.200000000000001</ele><time>2026-03-29T16:22:52.275Z</time></trkpt><trkpt lat="40.9088169" lon="9.5182268"><ele>8.4</ele><time>2026-03-29T16:22:53.294Z</time></trkpt><trkpt lat="40.9088214" lon="9.5180881"><ele>8.600000000000001</ele><time>2026-03-29T16:22:54.272Z</time></trkpt><trkpt lat="40.908824" lon="9.5179498"><ele>8.8</ele><time>2026-03-29T16:22:55.275Z</time></trkpt><trkpt lat="40.9088151" lon="9.5178455"><ele>9.0</ele><time>2026-03-29T16:22:56.273Z</time></trkpt><trkpt lat="40.9088101" lon="9.5177188"><ele>9.666666666666666</ele><time>2026-03-29T16:22:58.272Z</time></trkpt><trkpt lat="40.9088384" lon="9.5175735"><ele>10.333333333333332</ele><time>2026-03-29T16:23:00.297Z</time></trkpt><trkpt lat="40.9088628" lon="9.5174914"><ele>11.0</ele><time>2026-03-29T16:23:01.274Z</time></trkpt><trkpt lat="40.9088761" lon="9.5173986"><ele>11.666666666666666</ele><time>2026-03-29T16:23:02.273Z</time></trkpt><trkpt lat="40.9088786" lon="9.5173079"><ele>12.333333333333332</ele><time>2026-03-29T16:23:03.277Z</time></trkpt><trkpt lat="40.9088827" lon="9.5172069"><ele>13.0</ele><time>2026-03-29T16:23:04.276Z</time></trkpt><trkpt lat="40.9089008" lon="9.517095"><ele>13.25</ele><time>2026-03-29T16:23:05.272Z</time></trkpt><trkpt lat="40.9089293" lon="9.5169615"><ele>13.5</ele><time>2026-03-29T16:23:06.278Z</time></trkpt><trkpt lat="40.908948" lon="9.5168083"><ele>13.75</ele><time>2026-03-29T16:23:07.292Z</time></trkpt><trkpt lat="40.9089705" lon="9.5165928"><ele>14.0</ele><time>2026-03-29T16:23:08.279Z</time></trkpt><trkpt lat="40.9089943" lon="9.5163576"><ele>15.0</ele><time>2026-03-29T16:23:09.27Z</time></trkpt><trkpt lat="40.9090252" lon="9.5161121"><ele>16.0</ele><time>2026-03-29T16:23:10.273Z</time></trkpt><trkpt lat="40.9090538" lon="9.5158695"><ele>17.0</ele><time>2026-03-29T16:23:11.298Z</time></trkpt><trkpt lat="40.9090704" lon="9.5156434"><ele>17.0</ele><time>2026-03-29T16:23:12.344Z</time></trkpt><trkpt lat="40.9090945" lon="9.5154229"><ele>17.0</ele><time>2026-03-29T16:23:13.285Z</time></trkpt><trkpt lat="40.9091095" lon="9.5152196"><ele>17.0</ele><time>2026-03-29T16:23:14.296Z</time></trkpt><trkpt lat="40.9091163" lon="9.5150387"><ele>17.0</ele><time>2026-03-29T16:23:15.306Z</time></trkpt><trkpt lat="40.9091128" lon="9.5148797"><ele>17.0</ele><time>2026-03-29T16:23:16.271Z</time></trkpt><trkpt lat="40.9091067" lon="9.5147582"><ele>17.0</ele><time>2026-03-29T16:23:17.326Z</time></trkpt><trkpt lat="40.9091026" lon="9.5146682"><ele>17.0</ele><time>2026-03-29T16:23:18.282Z</time></trkpt><trkpt lat="40.9091106" lon="9.5145594"><ele>17.0</ele><time>2026-03-29T16:23:20.27Z</time></trkpt><trkpt lat="40.9091437" lon="9.5144672"><ele>17.0</ele><time>2026-03-29T16:23:22.279Z</time></trkpt><trkpt lat="40.9091709" lon="9.5143834"><ele>17.0</ele><time>2026-03-29T16:23:23.286Z</time></trkpt><trkpt lat="40.9092041" lon="9.5142887"><ele>17.0</ele><time>2026-03-29T16:23:24.269Z</time></trkpt><trkpt lat="40.9092244" lon="9.5141743"><ele>17.0</ele><time>2026-03-29T16:23:25.294Z</time></trkpt><trkpt lat="40.9092439" lon="9.5140533"><ele>17.0</ele><time>2026-03-29T16:23:26.273Z</time></trkpt><trkpt lat="40.9092607" lon="9.5139399"><ele>17.0</ele><time>2026-03-29T16:23:27.271Z</time></trkpt><trkpt lat="40.909277" lon="9.513807"><ele>16.75</ele><time>2026-03-29T16:23:28.274Z</time></trkpt><trkpt lat="40.909296" lon="9.5136508"><ele>16.5</ele><time>2026-03-29T16:23:29.273Z</time></trkpt><trkpt lat="40.9093139" lon="9.5134776"><ele>16.25</ele><time>2026-03-29T16:23:30.29Z</time></trkpt><trkpt lat="40.9093337" lon="9.5132804"><ele>16.0</ele><time>2026-03-29T16:23:31.273Z</time></trkpt><trkpt lat="40.9093547" lon="9.5130842"><ele>16.0</ele><time>2026-03-29T16:23:32.275Z</time></trkpt><trkpt lat="40.9093754" lon="9.5129066"><ele>16.0</ele><time>2026-03-29T16:23:33.277Z</time></trkpt><trkpt lat="40.9093961" lon="9.5127467"><ele>16.0</ele><time>2026-03-29T16:23:34.275Z</time></trkpt><trkpt lat="40.9094201" lon="9.5126"><ele>16.0</ele><time>2026-03-29T16:23:35.298Z</time></trkpt><trkpt lat="40.9094527" lon="9.5124707"><ele>16.2</ele><time>2026-03-29T16:23:36.281Z</time></trkpt><trkpt lat="40.9094892" lon="9.5123572"><ele>16.400000000000002</ele><time>2026-03-29T16:23:37.276Z</time></trkpt><trkpt lat="40.9095126" lon="9.5122563"><ele>16.6</ele><time>2026-03-29T16:23:38.281Z</time></trkpt><trkpt lat="40.9095173" lon="9.5121657"><ele>16.8</ele><time>2026-03-29T16:23:39.277Z</time></trkpt><trkpt lat="40.9095051" lon="9.5120119"><ele>17.0</ele><time>2026-03-29T16:23:41.272Z</time></trkpt><trkpt lat="40.9095099" lon="9.5118438"><ele>17.0</ele><time>2026-03-29T16:23:43.277Z</time></trkpt><trkpt lat="40.9095087" lon="9.5117347"><ele>17.0</ele><time>2026-03-29T16:23:44.274Z</time></trkpt><trkpt lat="40.9095072" lon="9.5115984"><ele>17.0</ele><time>2026-03-29T16:23:45.277Z</time></trkpt><trkpt lat="40.9095199" lon="9.5114064"><ele>17.0</ele><time>2026-03-29T16:23:46.277Z</time></trkpt><trkpt lat="40.9095391" lon="9.5112029"><ele>17.0</ele><time>2026-03-29T16:23:47.266Z</time></trkpt><trkpt lat="40.9095625" lon="9.5110051"><ele>17.0</ele><time>2026-03-29T16:23:48.274Z</time></trkpt><trkpt lat="40.9095854" lon="9.5107587"><ele>17.0</ele><time>2026-03-29T16:23:49.29Z</time></trkpt><trkpt lat="40.9096225" lon="9.510517"><ele>17.0</ele><time>2026-03-29T16:23:50.269Z</time></trkpt><trkpt lat="40.9096506" lon="9.5102901"><ele>17.0</ele><time>2026-03-29T16:23:51.279Z</time></trkpt><trkpt lat="40.9096708" lon="9.5100947"><ele>17.0</ele><time>2026-03-29T16:23:52.269Z</time></trkpt><trkpt lat="40.9096778" lon="9.5099219"><ele>17.0</ele><time>2026-03-29T16:23:53.276Z</time></trkpt><trkpt lat="40.9096838" lon="9.5097454"><ele>17.0</ele><time>2026-03-29T16:23:54.27Z</time></trkpt><trkpt lat="40.9096971" lon="9.5095998"><ele>17.0</ele><time>2026-03-29T16:23:55.273Z</time></trkpt><trkpt lat="40.9097437" lon="9.5094664"><ele>17.0</ele><time>2026-03-29T16:23:56.275Z</time></trkpt><trkpt lat="40.909798" lon="9.5093335"><ele>16.5</ele><time>2026-03-29T16:23:57.277Z</time></trkpt><trkpt lat="40.9098855" lon="9.5092461"><ele>16.0</ele><time>2026-03-29T16:23:58.274Z</time></trkpt><trkpt lat="40.9099636" lon="9.5091454"><ele>15.5</ele><time>2026-03-29T16:23:59.273Z</time></trkpt><trkpt lat="40.9100247" lon="9.5090027"><ele>15.0</ele><time>2026-03-29T16:24:00.269Z</time></trkpt><trkpt lat="40.9100562" lon="9.5088294"><ele>15.0</ele><time>2026-03-29T16:24:01.268Z</time></trkpt><trkpt lat="40.9100534" lon="9.5086447"><ele>15.0</ele><time>2026-03-29T16:24:02.273Z</time></trkpt><trkpt lat="40.9100232" lon="9.5084528"><ele>15.0</ele><time>2026-03-29T16:24:03.281Z</time></trkpt><trkpt lat="40.9099788" lon="9.5082432"><ele>15.0</ele><time>2026-03-29T16:24:04.277Z</time></trkpt><trkpt lat="40.9099551" lon="9.5080089"><ele>15.0</ele><time>2026-03-29T16:24:05.275Z</time></trkpt><trkpt lat="40.9099603" lon="9.5077444"><ele>15.0</ele><time>2026-03-29T16:24:06.297Z</time></trkpt><trkpt lat="40.9099826" lon="9.5074635"><ele>12.5</ele><time>2026-03-29T16:24:07.279Z</time></trkpt><trkpt lat="40.9100163" lon="9.5071647"><ele>10.0</ele><time>2026-03-29T16:24:08.276Z</time></trkpt><trkpt lat="40.9100526" lon="9.506865"><ele>7.5</ele><time>2026-03-29T16:24:09.276Z</time></trkpt><trkpt lat="40.9101029" lon="9.5065515"><ele>5.0</ele><time>2026-03-29T16:24:10.273Z</time></trkpt><trkpt lat="40.910167" lon="9.5062389"><ele>5.0</ele><time>2026-03-29T16:24:11.277Z</time></trkpt><trkpt lat="40.9102465" lon="9.5059322"><ele>5.0</ele><time>2026-03-29T16:24:12.274Z</time></trkpt><trkpt lat="40.9103305" lon="9.505648"><ele>5.0</ele><time>2026-03-29T16:24:13.275Z</time></trkpt><trkpt lat="40.9104123" lon="9.5053785"><ele>5.0</ele><time>2026-03-29T16:24:14.276Z</time></trkpt><trkpt lat="40.9105053" lon="9.5051354"><ele>5.0</ele><time>2026-03-29T16:24:15.303Z</time></trkpt><trkpt lat="40.910596" lon="9.5049065"><ele>5.0</ele><time>2026-03-29T16:24:16.275Z</time></trkpt><trkpt lat="40.9106921" lon="9.5046913"><ele>5.0</ele><time>2026-03-29T16:24:17.275Z</time></trkpt><trkpt lat="40.9107921" lon="9.5044833"><ele>5.0</ele><time>2026-03-29T16:24:18.277Z</time></trkpt><trkpt lat="40.9108976" lon="9.504262"><ele>5.0</ele><time>2026-03-29T16:24:19.271Z</time></trkpt><trkpt lat="40.911019" lon="9.5040655"><ele>5.0</ele><time>2026-03-29T16:24:20.275Z</time></trkpt><trkpt lat="40.9111418" lon="9.5038744"><ele>5.0</ele><time>2026-03-29T16:24:21.27Z</time></trkpt><trkpt lat="40.9112673" lon="9.5036882"><ele>5.0</ele><time>2026-03-29T16:24:22.274Z</time></trkpt><trkpt lat="40.9113956" lon="9.5035106"><ele>5.0</ele><time>2026-03-29T16:24:23.269Z</time></trkpt><trkpt lat="40.9115346" lon="9.5033307"><ele>5.0</ele><time>2026-03-29T16:24:24.275Z</time></trkpt><trkpt lat="40.9116862" lon="9.503147"><ele>3.5</ele><time>2026-03-29T16:24:25.273Z</time></trkpt><trkpt lat="40.9118616" lon="9.5029665"><ele>2.0</ele><time>2026-03-29T16:24:26.278Z</time></trkpt><trkpt lat="40.9120534" lon="9.502792"><ele>2.0</ele><time>2026-03-29T16:24:27.271Z</time></trkpt><trkpt lat="40.9122502" lon="9.5026256"><ele>2.0</ele><time>2026-03-29T16:24:28.273Z</time></trkpt><trkpt lat="40.9124482" lon="9.5024714"><ele>1.3333333333333333</ele><time>2026-03-29T16:24:29.275Z</time></trkpt><trkpt lat="40.9126477" lon="9.5023449"><ele>0.6666666666666666</ele><time>2026-03-29T16:24:30.275Z</time></trkpt><trkpt lat="40.9128485" lon="9.5022231"><ele>0.0</ele><time>2026-03-29T16:24:31.278Z</time></trkpt><trkpt lat="40.9130506" lon="9.5021106"><ele>0.3333333333333333</ele><time>2026-03-29T16:24:32.293Z</time></trkpt><trkpt lat="40.9132537" lon="9.5020099"><ele>0.6666666666666666</ele><time>2026-03-29T16:24:33.276Z</time></trkpt><trkpt lat="40.9134585" lon="9.5019321"><ele>1.0</ele><time>2026-03-29T16:24:34.276Z</time></trkpt><trkpt lat="40.913659" lon="9.5018655"><ele>2.0</ele><time>2026-03-29T16:24:35.277Z</time></trkpt><trkpt lat="40.9138527" lon="9.5018106"><ele>3.0</ele><time>2026-03-29T16:24:36.27Z</time></trkpt><trkpt lat="40.9140482" lon="9.5017728"><ele>4.0</ele><time>2026-03-29T16:24:37.29Z</time></trkpt><trkpt lat="40.9142442" lon="9.5017414"><ele>4.0</ele><time>2026-03-29T16:24:38.276Z</time></trkpt><trkpt lat="40.9144326" lon="9.5017183"><ele>4.0</ele><time>2026-03-29T16:24:39.274Z</time></trkpt><trkpt lat="40.914636" lon="9.5016987"><ele>4.0</ele><time>2026-03-29T16:24:40.274Z</time></trkpt><trkpt lat="40.914823" lon="9.5016841"><ele>4.0</ele><time>2026-03-29T16:24:41.274Z</time></trkpt><trkpt lat="40.9150089" lon="9.5016768"><ele>4.0</ele><time>2026-03-29T16:24:42.3Z</time></trkpt><trkpt lat="40.915195" lon="9.5016742"><ele>4.0</ele><time>2026-03-29T16:24:43.277Z</time></trkpt><trkpt lat="40.9153759" lon="9.501656"><ele>3.0</ele><time>2026-03-29T16:24:44.27Z</time></trkpt><trkpt lat="40.9155503" lon="9.5016502"><ele>2.0</ele><time>2026-03-29T16:24:45.275Z</time></trkpt><trkpt lat="40.9157204" lon="9.5016411"><ele>1.0</ele><time>2026-03-29T16:24:46.273Z</time></trkpt><trkpt lat="40.9158787" lon="9.501624"><ele>1.0</ele><time>2026-03-29T16:24:47.275Z</time></trkpt><trkpt lat="40.9160331" lon="9.5016138"><ele>1.0</ele><time>2026-03-29T16:24:48.273Z</time></trkpt><trkpt lat="40.9161988" lon="9.5016061"><ele>1.0</ele><time>2026-03-29T16:24:49.292Z</time></trkpt><trkpt lat="40.9163634" lon="9.5015949"><ele>1.0</ele><time>2026-03-29T16:24:50.272Z</time></trkpt><trkpt lat="40.916533" lon="9.5015888"><ele>1.0</ele><time>2026-03-29T16:24:51.267Z</time></trkpt><trkpt lat="40.9167084" lon="9.5015767"><ele>1.0</ele><time>2026-03-29T16:24:52.269Z</time></trkpt><trkpt lat="40.9168955" lon="9.5015643"><ele>0.6666666666666666</ele><time>2026-03-29T16:24:53.273Z</time></trkpt><trkpt lat="40.917091" lon="9.5015547"><ele>0.3333333333333333</ele><time>2026-03-29T16:24:54.273Z</time></trkpt><trkpt lat="40.9172941" lon="9.5015436"><ele>0.0</ele><time>2026-03-29T16:24:55.273Z</time></trkpt><trkpt lat="40.9174994" lon="9.5015354"><ele>0.0</ele><time>2026-03-29T16:24:56.286Z</time></trkpt><trkpt lat="40.9177155" lon="9.5015203"><ele>0.0</ele><time>2026-03-29T16:24:57.279Z</time></trkpt><trkpt lat="40.9179398" lon="9.5015121"><ele>0.0</ele><time>2026-03-29T16:24:58.272Z</time></trkpt><trkpt lat="40.9181628" lon="9.5015024"><ele>0.0</ele><time>2026-03-29T16:24:59.272Z</time></trkpt><trkpt lat="40.9183857" lon="9.5014917"><ele>0.0</ele><time>2026-03-29T16:25:00.269Z</time></trkpt><trkpt lat="40.9186131" lon="9.50148"><ele>0.0</ele><time>2026-03-29T16:25:01.28Z</time></trkpt><trkpt lat="40.9188435" lon="9.5014698"><ele>0.0</ele><time>2026-03-29T16:25:02.272Z</time></trkpt><trkpt lat="40.9190691" lon="9.5014619"><ele>0.0</ele><time>2026-03-29T16:25:03.269Z</time></trkpt><trkpt lat="40.919278" lon="9.5014628"><ele>0.0</ele><time>2026-03-29T16:25:04.27Z</time></trkpt><trkpt lat="40.9194793" lon="9.501467"><ele>0.0</ele><time>2026-03-29T16:25:05.275Z</time></trkpt><trkpt lat="40.9196786" lon="9.5015057"><ele>0.0</ele><time>2026-03-29T16:25:06.273Z</time></trkpt><trkpt lat="40.9198724" lon="9.50155"><ele>0.0</ele><time>2026-03-29T16:25:07.288Z</time></trkpt><trkpt lat="40.9200622" lon="9.5016201"><ele>0.0</ele><time>2026-03-29T16:25:08.269Z</time></trkpt><trkpt lat="40.920254" lon="9.5017077"><ele>1.3333333333333333</ele><time>2026-03-29T16:25:09.27Z</time></trkpt><trkpt lat="40.9204364" lon="9.5018046"><ele>2.6666666666666665</ele><time>2026-03-29T16:25:10.275Z</time></trkpt><trkpt lat="40.9206126" lon="9.5019237"><ele>4.0</ele><time>2026-03-29T16:25:11.272Z</time></trkpt><trkpt lat="40.9207814" lon="9.5020625"><ele>5.333333333333333</ele><time>2026-03-29T16:25:12.269Z</time></trkpt><trkpt lat="40.9209444" lon="9.5022145"><ele>6.666666666666666</ele><time>2026-03-29T16:25:13.274Z</time></trkpt><trkpt lat="40.9210978" lon="9.5023823"><ele>8.0</ele><time>2026-03-29T16:25:14.269Z</time></trkpt><trkpt lat="40.9212407" lon="9.5025697"><ele>8.0</ele><time>2026-03-29T16:25:15.268Z</time></trkpt><trkpt lat="40.9213719" lon="9.5027756"><ele>8.0</ele><time>2026-03-29T16:25:16.27Z</time></trkpt><trkpt lat="40.921485" lon="9.5030006"><ele>8.0</ele><time>2026-03-29T16:25:17.272Z</time></trkpt><trkpt lat="40.92158" lon="9.5032423"><ele>7.333333333333333</ele><time>2026-03-29T16:25:18.302Z</time></trkpt><trkpt lat="40.9216706" lon="9.5034937"><ele>6.666666666666666</ele><time>2026-03-29T16:25:19.27Z</time></trkpt><trkpt lat="40.9217623" lon="9.5037461"><ele>6.0</ele><time>2026-03-29T16:25:20.278Z</time></trkpt><trkpt lat="40.9218543" lon="9.50399"><ele>1.0</ele><time>2026-03-29T16:25:21.266Z</time></trkpt><trkpt lat="40.9246285" lon="9.5075684"><ele>1.0</ele><time>2026-03-29T16:25:43.206Z</time></trkpt><trkpt lat="40.9247106" lon="9.5078148"><ele>1.0</ele><time>2026-03-29T16:25:44.271Z</time></trkpt><trkpt lat="40.9247288" lon="9.5080562"><ele>1.0</ele><time>2026-03-29T16:25:45.273Z</time></trkpt><trkpt lat="40.9247412" lon="9.5083099"><ele>1.0</ele><time>2026-03-29T16:25:46.296Z</time></trkpt><trkpt lat="40.9247529" lon="9.5085522"><ele>1.0</ele><time>2026-03-29T16:25:47.268Z</time></trkpt><trkpt lat="40.9247547" lon="9.5087924"><ele>1.0</ele><time>2026-03-29T16:25:48.269Z</time></trkpt><trkpt lat="40.9247527" lon="9.509041"><ele>1.0</ele><time>2026-03-29T16:25:49.269Z</time></trkpt><trkpt lat="40.9247495" lon="9.5092865"><ele>1.0</ele><time>2026-03-29T16:25:50.268Z</time></trkpt><trkpt lat="40.9247426" lon="9.5095476"><ele>1.0</ele><time>2026-03-29T16:25:51.272Z</time></trkpt><trkpt lat="40.9247223" lon="9.5097918"><ele>0.6666666666666666</ele><time>2026-03-29T16:25:52.274Z</time></trkpt><trkpt lat="40.924713" lon="9.5100359"><ele>0.3333333333333333</ele><time>2026-03-29T16:25:53.274Z</time></trkpt><trkpt lat="40.9246844" lon="9.5102623"><ele>0.0</ele><time>2026-03-29T16:25:54.292Z</time></trkpt><trkpt lat="40.9246538" lon="9.5104655"><ele>0.0</ele><time>2026-03-29T16:25:55.271Z</time></trkpt><trkpt lat="40.9246169" lon="9.5106682"><ele>0.0</ele><time>2026-03-29T16:25:56.274Z</time></trkpt><trkpt lat="40.9245788" lon="9.5108394"><ele>0.0</ele><time>2026-03-29T16:25:57.273Z</time></trkpt><trkpt lat="40.9245502" lon="9.5110618"><ele>0.0</ele><time>2026-03-29T16:25:58.273Z</time></trkpt><trkpt lat="40.9245282" lon="9.5113187"><ele>0.0</ele><time>2026-03-29T16:25:59.269Z</time></trkpt><trkpt lat="40.9244954" lon="9.5116044"><ele>0.0</ele><time>2026-03-29T16:26:00.274Z</time></trkpt><trkpt lat="40.9244561" lon="9.5118895"><ele>0.0</ele><time>2026-03-29T16:26:01.27Z</time></trkpt><trkpt lat="40.9244197" lon="9.5121618"><ele>0.0</ele><time>2026-03-29T16:26:02.269Z</time></trkpt><trkpt lat="40.9243762" lon="9.5124187"><ele>0.0</ele><time>2026-03-29T16:26:03.287Z</time></trkpt><trkpt lat="40.9243303" lon="9.5126579"><ele>0.0</ele><time>2026-03-29T16:26:04.27Z</time></trkpt><trkpt lat="40.9242883" lon="9.5129182"><ele>0.0</ele><time>2026-03-29T16:26:05.269Z</time></trkpt><trkpt lat="40.9242465" lon="9.5131802"><ele>0.0</ele><time>2026-03-29T16:26:06.268Z</time></trkpt><trkpt lat="40.9242194" lon="9.5134461"><ele>0.3333333333333333</ele><time>2026-03-29T16:26:07.271Z</time></trkpt><trkpt lat="40.9241892" lon="9.5136844"><ele>0.6666666666666666</ele><time>2026-03-29T16:26:08.289Z</time></trkpt><trkpt lat="40.9241607" lon="9.5138938"><ele>1.0</ele><time>2026-03-29T16:26:09.266Z</time></trkpt><trkpt lat="40.9241352" lon="9.514092"><ele>1.0</ele><time>2026-03-29T16:26:10.267Z</time></trkpt><trkpt lat="40.9241114" lon="9.5142591"><ele>1.0</ele><time>2026-03-29T16:26:11.266Z</time></trkpt><trkpt lat="40.9240837" lon="9.5143983"><ele>1.0</ele><time>2026-03-29T16:26:12.269Z</time></trkpt><trkpt lat="40.9240521" lon="9.5145041"><ele>1.0</ele><time>2026-03-29T16:26:13.273Z</time></trkpt><trkpt lat="40.9240182" lon="9.5146094"><ele>1.0</ele><time>2026-03-29T16:26:14.271Z</time></trkpt><trkpt lat="40.9239922" lon="9.5147047"><ele>1.0</ele><time>2026-03-29T16:26:15.282Z</time></trkpt><trkpt lat="40.923984" lon="9.514802"><ele>1.0</ele><time>2026-03-29T16:26:16.277Z</time></trkpt><trkpt lat="40.924049" lon="9.5148729"><ele>1.0</ele><time>2026-03-29T16:26:18.267Z</time></trkpt><trkpt lat="40.9241091" lon="9.5147532"><ele>1.0</ele><time>2026-03-29T16:26:20.279Z</time></trkpt><trkpt lat="40.9241277" lon="9.5146546"><ele>1.0</ele><time>2026-03-29T16:26:21.273Z</time></trkpt><trkpt lat="40.9241488" lon="9.5144816"><ele>1.0</ele><time>2026-03-29T16:26:22.301Z</time></trkpt><trkpt lat="40.9241798" lon="9.5143091"><ele>1.0</ele><time>2026-03-29T16:26:23.271Z</time></trkpt><trkpt lat="40.9242082" lon="9.5141181"><ele>1.0</ele><time>2026-03-29T16:26:24.272Z</time></trkpt><trkpt lat="40.9242337" lon="9.5139333"><ele>1.0</ele><time>2026-03-29T16:26:25.273Z</time></trkpt><trkpt lat="40.9242714" lon="9.5137383"><ele>0.6666666666666666</ele><time>2026-03-29T16:26:26.27Z</time></trkpt><trkpt lat="40.9243059" lon="9.5135389"><ele>0.3333333333333333</ele><time>2026-03-29T16:26:27.305Z</time></trkpt><trkpt lat="40.9243335" lon="9.5133438"><ele>0.0</ele><time>2026-03-29T16:26:28.27Z</time></trkpt><trkpt lat="40.9243641" lon="9.5131276"><ele>0.0</ele><time>2026-03-29T16:26:29.272Z</time></trkpt><trkpt lat="40.9243942" lon="9.5129126"><ele>0.0</ele><time>2026-03-29T16:26:30.27Z</time></trkpt><trkpt lat="40.9244313" lon="9.5126783"><ele>0.0</ele><time>2026-03-29T16:26:31.269Z</time></trkpt><trkpt lat="40.9244682" lon="9.5124369"><ele>0.0</ele><time>2026-03-29T16:26:32.296Z</time></trkpt><trkpt lat="40.9245055" lon="9.5121901"><ele>0.0</ele><time>2026-03-29T16:26:33.271Z</time></trkpt><trkpt lat="40.9245402" lon="9.5119561"><ele>0.0</ele><time>2026-03-29T16:26:34.28Z</time></trkpt><trkpt lat="40.9245806" lon="9.5117388"><ele>0.0</ele><time>2026-03-29T16:26:35.276Z</time></trkpt><trkpt lat="40.9246158" lon="9.5115375"><ele>0.0</ele><time>2026-03-29T16:26:36.278Z</time></trkpt><trkpt lat="40.9246508" lon="9.5113582"><ele>0.0</ele><time>2026-03-29T16:26:37.277Z</time></trkpt><trkpt lat="40.9246782" lon="9.5111936"><ele>0.0</ele><time>2026-03-29T16:26:38.277Z</time></trkpt><trkpt lat="40.924692" lon="9.5110554"><ele>0.0</ele><time>2026-03-29T16:26:39.28Z</time></trkpt><trkpt lat="40.9247106" lon="9.5109531"><ele>0.0</ele><time>2026-03-29T16:26:40.272Z</time></trkpt><trkpt lat="40.9247923" lon="9.5108731"><ele>0.0</ele><time>2026-03-29T16:26:42.272Z</time></trkpt><trkpt lat="40.9248823" lon="9.510812"><ele>0.0</ele><time>2026-03-29T16:26:44.273Z</time></trkpt><trkpt lat="40.9249316" lon="9.5107282"><ele>0.0</ele><time>2026-03-29T16:26:46.278Z</time></trkpt><trkpt lat="40.9249466" lon="9.5106461"><ele>0.0</ele><time>2026-03-29T16:26:48.276Z</time></trkpt><trkpt lat="40.9248753" lon="9.5106293"><ele>0.0</ele><time>2026-03-29T17:19:31.248Z</time></trkpt><trkpt lat="40.9248363" lon="9.5106998"><ele>0.0</ele><time>2026-03-29T17:20:22.249Z</time></trkpt><trkpt lat="40.9247886" lon="9.5107644"><ele>0.0</ele><time>2026-03-29T17:20:25.275Z</time></trkpt><trkpt lat="40.9247232" lon="9.5107003"><ele>0.0</ele><time>2026-03-29T17:20:35.274Z</time></trkpt><trkpt lat="40.9247285" lon="9.5106114"><ele>0.0</ele><time>2026-03-29T17:20:37.271Z</time></trkpt><trkpt lat="40.9247388" lon="9.5105114"><ele>0.0</ele><time>2026-03-29T17:20:39.286Z</time></trkpt><trkpt lat="40.9247557" lon="9.5104195"><ele>0.0</ele><time>2026-03-29T17:20:41.275Z</time></trkpt><trkpt lat="40.9247647" lon="9.5103317"><ele>0.0</ele><time>2026-03-29T17:20:43.277Z</time></trkpt><trkpt lat="40.9247832" lon="9.5102156"><ele>0.0</ele><time>2026-03-29T17:20:46.275Z</time></trkpt><trkpt lat="40.9248045" lon="9.5101287"><ele>0.0</ele><time>2026-03-29T17:20:48.294Z</time></trkpt><trkpt lat="40.9248171" lon="9.5100339"><ele>0.0</ele><time>2026-03-29T17:20:51.277Z</time></trkpt><trkpt lat="40.9247529" lon="9.5101051"><ele>0.0</ele><time>2026-03-29T17:20:55.279Z</time></trkpt><trkpt lat="40.9247379" lon="9.5102125"><ele>0.0</ele><time>2026-03-29T17:20:56.278Z</time></trkpt><trkpt lat="40.9247213" lon="9.5103164"><ele>0.0</ele><time>2026-03-29T17:20:57.272Z</time></trkpt><trkpt lat="40.924701" lon="9.5104133"><ele>0.0</ele><time>2026-03-29T17:20:58.278Z</time></trkpt><trkpt lat="40.9246853" lon="9.5104973"><ele>0.0</ele><time>2026-03-29T17:20:59.274Z</time></trkpt><trkpt lat="40.924671" lon="9.5105838"><ele>0.0</ele><time>2026-03-29T17:21:00.297Z</time></trkpt><trkpt lat="40.9246556" lon="9.5106798"><ele>0.0</ele><time>2026-03-29T17:21:01.278Z</time></trkpt><trkpt lat="40.9246396" lon="9.5107801"><ele>0.0</ele><time>2026-03-29T17:21:02.273Z</time></trkpt><trkpt lat="40.9246211" lon="9.5108841"><ele>0.0</ele><time>2026-03-29T17:21:03.273Z</time></trkpt><trkpt lat="40.9246049" lon="9.5109883"><ele>0.0</ele><time>2026-03-29T17:21:04.28Z</time></trkpt><trkpt lat="40.92459" lon="9.5110941"><ele>0.0</ele><time>2026-03-29T17:21:05.269Z</time></trkpt><trkpt lat="40.9245732" lon="9.5111999"><ele>0.0</ele><time>2026-03-29T17:21:06.292Z</time></trkpt><trkpt lat="40.9245552" lon="9.5113108"><ele>0.0</ele><time>2026-03-29T17:21:07.271Z</time></trkpt><trkpt lat="40.9245371" lon="9.5114305"><ele>0.0</ele><time>2026-03-29T17:21:08.274Z</time></trkpt><trkpt lat="40.9245164" lon="9.5115566"><ele>0.0</ele><time>2026-03-29T17:21:09.274Z</time></trkpt><trkpt lat="40.9244966" lon="9.5116852"><ele>0.0</ele><time>2026-03-29T17:21:10.271Z</time></trkpt><trkpt lat="40.9244768" lon="9.5118106"><ele>0.0</ele><time>2026-03-29T17:21:11.323Z</time></trkpt><trkpt lat="40.9244562" lon="9.5119345"><ele>0.0</ele><time>2026-03-29T17:21:12.274Z</time></trkpt><trkpt lat="40.9244374" lon="9.5120628"><ele>0.0</ele><time>2026-03-29T17:21:13.272Z</time></trkpt><trkpt lat="40.9244192" lon="9.5121915"><ele>0.0</ele><time>2026-03-29T17:21:14.274Z</time></trkpt><trkpt lat="40.9244" lon="9.5123203"><ele>0.0</ele><time>2026-03-29T17:21:15.27Z</time></trkpt><trkpt lat="40.924381" lon="9.5124482"><ele>0.0</ele><time>2026-03-29T17:21:16.272Z</time></trkpt><trkpt lat="40.9243632" lon="9.5125735"><ele>0.0</ele><time>2026-03-29T17:21:17.274Z</time></trkpt><trkpt lat="40.9243453" lon="9.51269"><ele>0.0</ele><time>2026-03-29T17:21:18.272Z</time></trkpt><trkpt lat="40.9243288" lon="9.5128053"><ele>0.0</ele><time>2026-03-29T17:21:19.273Z</time></trkpt><trkpt lat="40.924313" lon="9.5129158"><ele>0.0</ele><time>2026-03-29T17:21:20.273Z</time></trkpt><trkpt lat="40.9242969" lon="9.5130233"><ele>0.0</ele><time>2026-03-29T17:21:21.268Z</time></trkpt><trkpt lat="40.9242787" lon="9.5131335"><ele>0.0</ele><time>2026-03-29T17:21:22.27Z</time></trkpt><trkpt lat="40.92426" lon="9.5132476"><ele>0.0</ele><time>2026-03-29T17:21:23.274Z</time></trkpt><trkpt lat="40.9242409" lon="9.5133643"><ele>0.0</ele><time>2026-03-29T17:21:24.269Z</time></trkpt><trkpt lat="40.9242229" lon="9.5134825"><ele>0.0</ele><time>2026-03-29T17:21:25.296Z</time></trkpt><trkpt lat="40.9242059" lon="9.5135955"><ele>0.16666666666666666</ele><time>2026-03-29T17:21:26.274Z</time></trkpt><trkpt lat="40.9241879" lon="9.5137107"><ele>0.3333333333333333</ele><time>2026-03-29T17:21:27.276Z</time></trkpt><trkpt lat="40.9241703" lon="9.5138253"><ele>0.5</ele><time>2026-03-29T17:21:28.271Z</time></trkpt><trkpt lat="40.9241499" lon="9.5139415"><ele>0.6666666666666666</ele><time>2026-03-29T17:21:29.271Z</time></trkpt><trkpt lat="40.9241301" lon="9.5140577"><ele>0.8333333333333333</ele><time>2026-03-29T17:21:30.268Z</time></trkpt><trkpt lat="40.9241106" lon="9.5141721"><ele>1.0</ele><time>2026-03-29T17:21:31.281Z</time></trkpt><trkpt lat="40.9240901" lon="9.5142904"><ele>1.0</ele><time>2026-03-29T17:21:32.285Z</time></trkpt><trkpt lat="40.9240682" lon="9.5144025"><ele>1.0</ele><time>2026-03-29T17:21:33.288Z</time></trkpt><trkpt lat="40.9240425" lon="9.5145155"><ele>1.0</ele><time>2026-03-29T17:21:34.274Z</time></trkpt><trkpt lat="40.9240168" lon="9.514634"><ele>1.0</ele><time>2026-03-29T17:21:35.272Z</time></trkpt><trkpt lat="40.9239958" lon="9.5147645"><ele>1.0</ele><time>2026-03-29T17:21:36.27Z</time></trkpt><trkpt lat="40.92398" lon="9.5148879"><ele>1.0</ele><time>2026-03-29T17:21:37.27Z</time></trkpt><trkpt lat="40.9239672" lon="9.5150053"><ele>1.0</ele><time>2026-03-29T17:21:38.29Z</time></trkpt><trkpt lat="40.9239531" lon="9.5151244"><ele>1.0</ele><time>2026-03-29T17:21:39.268Z</time></trkpt><trkpt lat="40.9239384" lon="9.5152448"><ele>1.0</ele><time>2026-03-29T17:21:40.269Z</time></trkpt><trkpt lat="40.9239215" lon="9.5153719"><ele>1.0</ele><time>2026-03-29T17:21:41.27Z</time></trkpt><trkpt lat="40.9239028" lon="9.5155012"><ele>1.0</ele><time>2026-03-29T17:21:42.275Z</time></trkpt><trkpt lat="40.9238835" lon="9.5156303"><ele>1.0</ele><time>2026-03-29T17:21:43.275Z</time></trkpt><trkpt lat="40.923866" lon="9.5157596"><ele>1.0</ele><time>2026-03-29T17:21:44.271Z</time></trkpt><trkpt lat="40.923852" lon="9.5158782"><ele>1.0</ele><time>2026-03-29T17:21:45.27Z</time></trkpt><trkpt lat="40.9238398" lon="9.5159924"><ele>1.0</ele><time>2026-03-29T17:21:46.291Z</time></trkpt><trkpt lat="40.923831" lon="9.516106"><ele>0.9999999999999999</ele><time>2026-03-29T17:21:47.275Z</time></trkpt><trkpt lat="40.9238218" lon="9.5162161"><ele>1.0</ele><time>2026-03-29T17:21:48.273Z</time></trkpt><trkpt lat="40.9238127" lon="9.5163233"><ele>1.0</ele><time>2026-03-29T17:21:49.273Z</time></trkpt><trkpt lat="40.9238028" lon="9.5164264"><ele>1.0</ele><time>2026-03-29T17:21:50.268Z</time></trkpt><trkpt lat="40.9237931" lon="9.5165266"><ele>0.9999999999999999</ele><time>2026-03-29T17:21:51.321Z</time></trkpt><trkpt lat="40.9237842" lon="9.5166279"><ele>1.0</ele><time>2026-03-29T17:21:52.272Z</time></trkpt><trkpt lat="40.923777" lon="9.5167309"><ele>0.9999999999999999</ele><time>2026-03-29T17:21:53.275Z</time></trkpt><trkpt lat="40.9237677" lon="9.5168356"><ele>1.0</ele><time>2026-03-29T17:21:54.274Z</time></trkpt><trkpt lat="40.9237598" lon="9.5169419"><ele>1.0</ele><time>2026-03-29T17:21:55.266Z</time></trkpt><trkpt lat="40.9237547" lon="9.517048"><ele>1.0</ele><time>2026-03-29T17:21:56.273Z</time></trkpt><trkpt lat="40.9237509" lon="9.517153"><ele>0.9999999999999999</ele><time>2026-03-29T17:21:57.27Z</time></trkpt><trkpt lat="40.9237462" lon="9.5172563"><ele>1.0</ele><time>2026-03-29T17:21:58.302Z</time></trkpt><trkpt lat="40.9237387" lon="9.5173601"><ele>1.1666666666666665</ele><time>2026-03-29T17:21:59.272Z</time></trkpt><trkpt lat="40.9237278" lon="9.517463"><ele>1.3333333333333333</ele><time>2026-03-29T17:22:00.271Z</time></trkpt><trkpt lat="40.9237155" lon="9.5175641"><ele>1.5</ele><time>2026-03-29T17:22:01.271Z</time></trkpt><trkpt lat="40.9237009" lon="9.5176687"><ele>1.6666666666666665</ele><time>2026-03-29T17:22:02.273Z</time></trkpt><trkpt lat="40.9236787" lon="9.5177741"><ele>1.8333333333333333</ele><time>2026-03-29T17:22:03.27Z</time></trkpt><trkpt lat="40.9236541" lon="9.5178783"><ele>2.0</ele><time>2026-03-29T17:22:04.275Z</time></trkpt><trkpt lat="40.9236286" lon="9.5179785"><ele>2.0</ele><time>2026-03-29T17:22:05.269Z</time></trkpt><trkpt lat="40.9236025" lon="9.5180691"><ele>2.0</ele><time>2026-03-29T17:22:06.281Z</time></trkpt><trkpt lat="40.923578" lon="9.5181507"><ele>2.0</ele><time>2026-03-29T17:22:07.268Z</time></trkpt><trkpt lat="40.9235374" lon="9.5182854"><ele>2.0</ele><time>2026-03-29T17:22:09.273Z</time></trkpt><trkpt lat="40.923496" lon="9.5184064"><ele>2.0</ele><time>2026-03-29T17:22:11.273Z</time></trkpt><trkpt lat="40.9234562" lon="9.5185213"><ele>2.0</ele><time>2026-03-29T17:22:13.274Z</time></trkpt></trkseg></trk></gpx>